
Distance (Route):
Temperature : 14.3°C
Humidity : 82.2%
Pressure : 952.2hPa| Receiver | Frames | First received | Last received |
|---|---|---|---|
| BIOWL1-15 | 733 | 2026-08-31 22:58:07 | 2026-09-01 01:26:03 |
| DL1XH-west | 388 | 2026-08-31 23:49:08 | 2026-09-01 01:10:44 |
| DM0DOS-11 | 362 | 2026-08-31 22:59:34 | 2026-09-01 01:26:31 |
| DL1XH1-15 | 201 | 2026-08-31 23:52:01 | 2026-09-01 01:10:40 |
| HSKMA3-T | 180 | 2026-08-31 23:47:55 | 2026-09-01 01:15:56 |
| DB0UT-7 | 126 | 2026-08-31 22:33:54 | 2026-09-01 01:34:46 |
| DL1XH-15 | 123 | 2026-09-01 00:15:39 | 2026-09-01 01:05:08 |
| DB0UT-9 | 121 | 2026-08-31 22:33:49 | 2026-09-01 01:34:31 |
| DB0ND-19 | 115 | 2026-08-31 22:46:28 | 2026-09-01 01:35:36 |
| DK5PH-5 | 111 | 2026-08-31 22:52:17 | 2026-09-01 01:34:47 |
| DF7PN | 104 | 2026-08-31 22:49:37 | 2026-09-01 01:34:15 |
| DL1ZP-14 | 100 | 2026-08-31 22:48:05 | 2026-09-01 01:34:48 |
| DL3AQ-11 | 94 | 2026-08-31 23:57:20 | 2026-09-01 01:11:06 |
| HEMX73-11 | 87 | 2026-08-31 22:49:30 | 2026-09-01 01:15:17 |
| AA1-15 | 87 | 2026-09-01 00:42:10 | 2026-09-01 01:04:22 |
| DM3KS-11 | 85 | 2026-08-31 22:47:31 | 2026-09-01 01:19:40 |
| BIOWL9-15 | 84 | 2026-08-31 22:58:48 | 2026-09-01 01:24:45 |
| DJ2DS-15 | 72 | 2026-08-31 23:32:29 | 2026-09-01 01:12:42 |
| DL1NUX | 68 | 2026-09-01 01:06:44 | 2026-09-01 01:24:52 |
| DF3TZ-5 | 67 | 2026-08-31 23:16:43 | 2026-09-01 01:24:33 |
| DL9PN | 65 | 2026-08-31 22:46:24 | 2026-09-01 01:23:48 |
| DO1YAY-16 | 59 | 2026-08-31 23:01:22 | 2026-09-01 00:58:51 |
| DL0LBS | 50 | 2026-09-01 00:07:14 | 2026-09-01 01:33:18 |
| DO3MHA-11 | 48 | 2026-09-01 01:13:15 | 2026-09-01 01:26:46 |
| DL8DAS-14 | 47 | 2026-08-31 23:16:07 | 2026-09-01 01:14:03 |
| DM7RM-13 | 39 | 2026-09-01 01:05:34 | 2026-09-01 01:34:22 |
| DB0NH | 38 | 2026-09-01 00:06:14 | 2026-09-01 01:34:31 |
| DD1CC8 | 36 | 2026-08-31 23:55:50 | 2026-09-01 01:10:20 |
| DL8DAS-15 | 34 | 2026-08-31 23:36:34 | 2026-09-01 01:15:43 |
| DF1GD-15 | 33 | 2026-08-31 22:55:01 | 2026-09-01 01:29:19 |
| DJ2KF-10 | 33 | 2026-08-31 23:42:20 | 2026-09-01 01:03:44 |
| DF8AY | 32 | 2026-09-01 00:50:09 | 2026-09-01 00:59:05 |
| SFWM-10 | 28 | 2026-08-31 23:26:04 | 2026-09-01 01:28:33 |
| NBG1-10 | 28 | 2026-09-01 01:09:09 | 2026-09-01 01:33:19 |
| DL4BBY-15 | 27 | 2026-08-31 23:42:45 | 2026-09-01 01:13:08 |
| DF2AP-13 | 23 | 2026-08-31 23:20:05 | 2026-09-01 01:23:59 |
| IW2NTF | 22 | 2026-09-01 00:19:19 | 2026-09-01 01:00:00 |
| AM1SDL-15 | 21 | 2026-09-01 00:00:40 | 2026-09-01 01:12:18 |
| KANTATE | 19 | 2026-08-31 23:48:13 | 2026-09-01 01:29:50 |
| DH7VM-15 | 14 | 2026-08-31 22:56:09 | 2026-09-01 01:15:07 |
| SONCRA | 12 | 2026-09-01 00:40:29 | 2026-09-01 01:08:00 |
| DK7TD | 10 | 2026-08-31 23:31:52 | 2026-09-01 01:11:11 |
| DJTTGO | 9 | 2026-08-31 23:42:06 | 2026-09-01 01:16:40 |
| SO1NDE-10 | 8 | 2026-09-01 01:13:52 | 2026-09-01 01:24:27 |
| EDDB2-11 | 6 | 2026-09-01 00:57:44 | 2026-09-01 01:06:01 |
| BIOWL7-15 | 5 | 2026-08-31 23:15:25 | 2026-09-01 01:17:01 |
| BEGRI65-1 | 5 | 2026-08-31 23:29:12 | 2026-09-01 01:22:02 |
| GOEST3-10 | 5 | 2026-09-01 00:54:48 | 2026-09-01 00:58:11 |
| DJ3KS | 4 | 2026-08-31 23:25:09 | 2026-09-01 00:04:33 |
| HTAHTA | 4 | 2026-09-01 00:44:36 | 2026-09-01 00:53:24 |
| EDDB2-12 | 4 | 2026-09-01 01:00:52 | 2026-09-01 01:06:34 |
| DN1GJH-1 | 4 | 2026-09-01 01:12:28 | 2026-09-01 01:19:20 |
| BUE01 | 2 | 2026-09-01 00:58:08 | 2026-09-01 01:00:43 |
| SONDE2-11 | 2 | 2026-09-01 01:02:41 | 2026-09-01 01:08:54 |
| HEMX73-6 | 1 | 2026-08-31 23:59:54 | 2026-08-31 23:59:54 |
| DL6DJ-15 | 1 | 2026-09-01 01:05:10 | 2026-09-01 01:05:10 |
| Receiver | Date | Latitude | Longitude | Direction | Speed | Altitude | Climb | Temperature | Humidity | Pressure | Voltage | Killtimer | Uptime | BKT | XDATA |
|---|---|---|---|---|---|---|---|---|---|---|---|---|---|---|---|
| DB0ND-19 | 2026-09-01 01:35:36 | 49.62793 | 9.13804 | 87° | 24km/h | 618m | -7.4m/s | 14.3°C | 82.2% | 952.2hPa | 2.7V | 00:00:00 | 00:00:00 | 00:00:00 | |
| DB0ND-19 | 2026-09-01 01:35:05 | 49.62793 | 9.13794 | 91° | 24km/h | 625m | -7.3m/s | 14.3°C | 82.0% | 951.4hPa | 2.7V | 00:00:00 | 00:00:00 | 00:00:00 | |
| DL1ZP-14 | 2026-09-01 01:34:48 | 49.62819 | 9.13610 | 112° | 27km/h | 760m | -7.9m/s | 13.6°C | 83.3% | 936.6hPa | 2.7V | 00:00:00 | 00:00:00 | 00:00:00 | |
| DK5PH-5 | 2026-09-01 01:34:47 | 49.62819 | 9.13610 | 113° | 26km/h | 760m | -7.9m/s | 13.5°C | 82.8% | 936.5hPa | 2.7V | 00:00:00 | 03:06:28 | 00:00:00 | |
| DB0UT-7 | 2026-09-01 01:34:46 | 49.62821 | 9.13600 | 113° | 26km/h | 768m | -7.8m/s | 13.5°C | 83.1% | 935.4hPa | 2.7V | 00:00:00 | 03:06:27 | 00:00:00 | |
| DK5PH-5 | 2026-09-01 01:34:42 | 49.62830 | 9.13563 | 106° | 27km/h | 797m | -7.5m/s | 13.4°C | 82.5% | 932.2hPa | 2.7V | 02:12:00 | 03:06:23 | 00:00:00 | |
| DB0UT-7 | 2026-09-01 01:34:41 | 49.62831 | 9.13553 | 101° | 27km/h | 804m | -8.0m/s | 13.3°C | 82.9% | 931.3hPa | 2.7V | 00:00:00 | 00:00:00 | 00:00:00 | |
| DK5PH-5 | 2026-09-01 01:34:37 | 49.62838 | 9.13513 | 110° | 26km/h | 835m | -7.9m/s | 13.1°C | 83.0% | 927.9hPa | 2.7V | 00:00:00 | 03:06:18 | 00:00:00 | |
| DB0UT-7 | 2026-09-01 01:34:36 | 49.62840 | 9.13503 | 110° | 26km/h | 843m | -8.0m/s | 13.0°C | 83.4% | 926.9hPa | 2.7V | 02:12:00 | 03:06:17 | 00:00:00 | |
| DB0ND-19 | 2026-09-01 01:34:34 | 49.62845 | 9.13484 | 108° | 26km/h | 859m | -8.5m/s | 12.9°C | 84.3% | 925.6hPa | 2.7V | 00:00:00 | 00:00:00 | 00:00:00 | |
| DK5PH-5 | 2026-09-01 01:34:32 | 49.62849 | 9.13465 | 111° | 26km/h | 875m | -8.1m/s | 12.7°C | 84.4% | 923.7hPa | 2.7V | 00:00:00 | 03:06:13 | 00:00:00 | |
| DB0UT-9 | 2026-09-01 01:34:31 | 49.62849 | 9.13465 | 112° | 26km/h | 875m | -8.1m/s | 12.7°C | 84.8% | 923.7hPa | 2.7V | 02:12:00 | 00:00:00 | 00:00:00 | |
| DB0UT-7 | 2026-09-01 01:34:31 | 49.62851 | 9.13455 | 112° | 24km/h | 883m | -8.3m/s | 12.6°C | 84.6% | 923.0hPa | 2.7V | 00:00:00 | 00:00:00 | 00:00:00 | |
| DB0NH | 2026-09-01 01:34:31 | 49.62851 | 9.13455 | 112° | 24km/h | 883m | -8.3m/s | 12.6°C | 84.6% | 923.0hPa | 2.7V | 00:00:00 | 03:06:12 | 00:00:00 | |
| DK5PH-5 | 2026-09-01 01:34:27 | 49.62860 | 9.13420 | 110° | 24km/h | 915m | -7.9m/s | 12.4°C | 85.8% | 919.5hPa | 2.7V | 02:12:00 | 03:06:08 | 00:00:00 | |
| DB0NH | 2026-09-01 01:34:26 | 49.62862 | 9.13412 | 109° | 24km/h | 923m | -8.1m/s | 12.3°C | 86.3% | 918.6hPa | 2.7V | 02:12:00 | 03:06:07 | 00:00:00 | |
| DB0UT-7 | 2026-09-01 01:34:26 | 49.62862 | 9.13412 | 109° | 24km/h | 923m | -8.1m/s | 12.3°C | 86.3% | 918.6hPa | 2.7V | 00:00:00 | 03:06:07 | 00:00:00 | |
| DM7RM-13 | 2026-09-01 01:34:22 | 49.62866 | 9.13385 | 103° | 24km/h | 946m | -7.7m/s | 12.1°C | 87.8% | 916.2hPa | 2.7V | 02:13:00 | 00:00:00 | 00:00:00 | |
| DK5PH-5 | 2026-09-01 01:34:22 | 49.62867 | 9.13375 | 105° | 26km/h | 954m | -7.6m/s | 12.0°C | 87.8% | 915.3hPa | 2.7V | 00:00:00 | 03:06:03 | 00:00:00 | |
| DB0NH | 2026-09-01 01:34:21 | 49.62869 | 9.13365 | 113° | 26km/h | 962m | -7.5m/s | 11.9°C | 88.2% | 914.2hPa | 2.7V | 00:00:00 | 03:06:02 | 00:00:00 | |
| DB0UT-7 | 2026-09-01 01:34:21 | 49.62869 | 9.13365 | 113° | 26km/h | 962m | -7.5m/s | 11.9°C | 88.2% | 914.2hPa | 2.7V | 02:13:00 | 00:00:00 | 00:00:00 | |
| DL1ZP-14 | 2026-09-01 01:34:17 | 49.62880 | 9.13330 | 114° | 20km/h | 992m | -7.5m/s | 11.7°C | 89.8% | 911.2hPa | 2.7V | 00:00:00 | 00:00:00 | 00:00:00 | |
| DK5PH-5 | 2026-09-01 01:34:17 | 49.62880 | 9.13330 | 115° | 22km/h | 992m | -7.4m/s | 11.6°C | 89.5% | 911.1hPa | 2.7V | 00:00:00 | 03:05:58 | 00:00:00 | |
| DB0UT-7 | 2026-09-01 01:34:16 | 49.62882 | 9.13323 | 111° | 24km/h | 999m | -7.5m/s | 11.6°C | 89.9% | 910.2hPa | 2.7V | 00:00:00 | 03:05:57 | 00:00:00 | |
| DB0NH | 2026-09-01 01:34:16 | 49.62882 | 9.13323 | 111° | 22km/h | 999m | -7.5m/s | 11.6°C | 89.9% | 910.2hPa | 2.7V | 00:00:00 | 03:05:57 | 00:00:00 | |
| DF7PN | 2026-09-01 01:34:15 | 49.62884 | 9.13315 | 105° | 18km/h | 1007m | -7.5m/s | 11.6°C | 90.5% | 909.5hPa | 2.7V | 00:00:00 | 00:00:00 | 00:00:00 | |
| DK5PH-5 | 2026-09-01 01:34:12 | 49.62888 | 9.13290 | 100° | 22km/h | 1029m | -7.6m/s | 11.3°C | 91.6% | 906.8hPa | 2.7V | 02:13:00 | 03:05:53 | 00:00:00 | |
| DB0UT-9 | 2026-09-01 01:34:10 | 49.62889 | 9.13281 | 102° | 26km/h | 1037m | -7.5m/s | 11.3°C | 92.3% | 906.2hPa | 2.7V | 02:13:00 | 00:00:00 | 00:00:00 | |
| DB0NH | 2026-09-01 01:34:09 | 49.62893 | 9.13262 | 111° | 20km/h | 1052m | -8.1m/s | 11.1°C | 92.7% | 904.4hPa | 2.7V | 02:13:00 | 03:05:50 | 00:00:00 | |
| DB0UT-7 | 2026-09-01 01:34:08 | 49.62895 | 9.13253 | 115° | 20km/h | 1061m | -8.3m/s | 11.0°C | 93.3% | 903.9hPa | 2.7V | 00:00:00 | 00:00:00 | 00:00:00 | |
| DB0ND-19 | 2026-09-01 01:34:03 | 49.62907 | 9.13215 | 114° | 18km/h | 1100m | -8.1m/s | 10.7°C | 93.7% | 899.6hPa | 2.7V | 00:00:00 | 00:00:00 | 00:00:00 | |
| DK5PH-5 | 2026-09-01 01:34:02 | 49.62908 | 9.13208 | 110° | 20km/h | 1108m | -7.7m/s | 10.6°C | 93.9% | 898.8hPa | 2.7V | 00:00:00 | 03:05:43 | 00:00:00 | |
| DM7RM-13 | 2026-09-01 01:34:01 | 49.62908 | 9.13208 | 110° | 18km/h | 1108m | -7.7m/s | 10.7°C | 94.1% | 898.8hPa | 2.7V | 02:13:00 | 00:00:00 | 00:00:00 | |
| DL1ZP-14 | 2026-09-01 01:33:46 | 49.62925 | 9.13067 | 100° | 26km/h | 1230m | -7.8m/s | 9.8°C | 92.4% | 885.4hPa | 2.7V | 00:00:00 | 00:00:00 | 00:00:00 | |
| DF7PN | 2026-09-01 01:33:44 | 49.62927 | 9.13048 | 98° | 26km/h | 1245m | -7.5m/s | 9.9°C | 86.0% | 883.8hPa | 2.7V | 00:00:00 | 00:00:00 | 00:00:00 | |
| DK5PH-5 | 2026-09-01 01:33:42 | 49.62928 | 9.13029 | 98° | 22km/h | 1260m | -7.6m/s | 9.8°C | 86.4% | 882.0hPa | 2.7V | 02:13:00 | 03:05:23 | 00:00:00 | |
| DM7RM-13 | 2026-09-01 01:33:41 | 49.62928 | 9.13029 | 99° | 24km/h | 1260m | -7.6m/s | 9.8°C | 86.6% | 882.1hPa | 2.6V | 02:13:00 | 00:00:00 | 00:00:00 | |
| DB0NH | 2026-09-01 01:33:38 | 49.62931 | 9.12995 | 97° | 22km/h | 1289m | -7.4m/s | 9.7°C | 84.6% | 878.7hPa | 2.6V | 02:13:00 | 03:05:19 | 00:00:00 | |
| DB0UT-7 | 2026-09-01 01:33:38 | 49.62931 | 9.12995 | 97° | 22km/h | 1289m | -7.4m/s | 9.7°C | 84.6% | 878.7hPa | 2.7V | 00:00:00 | 03:05:19 | 00:00:00 | |
| DB0ND-19 | 2026-09-01 01:33:32 | 49.62940 | 9.12948 | 111° | 22km/h | 1335m | -7.8m/s | 9.7°C | 77.6% | 874.2hPa | 2.7V | 00:00:00 | 00:00:00 | 00:00:00 | |
| DK5PH-5 | 2026-09-01 01:33:32 | 49.62940 | 9.12948 | 112° | 27km/h | 1335m | -7.7m/s | 9.6°C | 77.4% | 874.1hPa | 2.7V | 00:00:00 | 03:05:13 | 00:00:00 | |
| DB0UT-9 | 2026-09-01 01:33:29 | 49.62944 | 9.12930 | 110° | 27km/h | 1351m | -8.1m/s | 9.6°C | 77.3% | 872.6hPa | 2.7V | 02:14:00 | 00:00:00 | 00:00:00 | |
| DB0UT-7 | 2026-09-01 01:33:28 | 49.62949 | 9.12909 | 109° | 27km/h | 1366m | -7.7m/s | 9.4°C | 77.3% | 871.0hPa | 2.7V | 02:13:00 | 00:00:00 | 00:00:00 | |
| DB0NH | 2026-09-01 01:33:28 | 49.62949 | 9.12909 | 109° | 27km/h | 1366m | -7.7m/s | 9.4°C | 77.3% | 871.0hPa | 2.6V | 00:00:00 | 03:05:09 | 00:00:00 | |
| DK5PH-5 | 2026-09-01 01:33:22 | 49.62955 | 9.12842 | 92° | 26km/h | 1412m | -8.0m/s | 9.0°C | 80.1% | 866.0hPa | 2.6V | 00:00:00 | 03:05:03 | 00:00:00 | |
| DM7RM-13 | 2026-09-01 01:33:21 | 49.62955 | 9.12842 | 93° | 27km/h | 1412m | -8.0m/s | 9.1°C | 80.2% | 866.0hPa | 2.6V | 02:14:00 | 00:00:00 | 00:00:00 | |
| NBG1-10 | 2026-09-01 01:33:19 | 49.62955 | 9.12812 | 93° | 27km/h | 1434m | -7.6m/s | 8.8°C | 84.5% | 863.6hPa | 2.6V | 00:00:00 | 03:05:00 | 00:00:00 | |
| DL0LBS | 2026-09-01 01:33:18 | 49.62955 | 9.12812 | 94° | 24km/h | 1434m | -7.7m/s | 8.9°C | 84.6% | 863.7hPa | 2.6V | 02:14:00 | 00:00:00 | 00:00:00 | |
| DB0UT-7 | 2026-09-01 01:33:18 | 49.62956 | 9.12803 | 98° | 27km/h | 1442m | -7.9m/s | 8.7°C | 85.1% | 862.9hPa | 2.6V | 00:00:00 | 03:04:59 | 00:00:00 | |
| DB0NH | 2026-09-01 01:33:18 | 49.62956 | 9.12803 | 98° | 27km/h | 1442m | -7.9m/s | 8.7°C | 85.1% | 862.9hPa | 2.6V | 00:00:00 | 03:04:59 | 00:00:00 | |
| DL1ZP-14 | 2026-09-01 01:33:15 | 49.62959 | 9.12773 | 96° | 26km/h | 1465m | -8.0m/s | 8.6°C | 87.3% | 860.5hPa | 2.6V | 00:00:00 | 00:00:00 | 00:00:00 | |
| DF7PN | 2026-09-01 01:33:13 | 49.62960 | 9.12751 | 92° | 29km/h | 1481m | -7.9m/s | 8.4°C | 88.5% | 858.7hPa | 2.7V | 00:00:00 | 00:00:00 | 00:00:00 | |
| NBG1-10 | 2026-09-01 01:33:12 | 49.62960 | 9.12739 | 92° | 31km/h | 1489m | -8.2m/s | 8.3°C | 89.4% | 858.0hPa | 2.7V | 00:00:00 | 03:04:53 | 00:00:00 | |
| DK5PH-5 | 2026-09-01 01:33:12 | 49.62960 | 9.12739 | 92° | 29km/h | 1489m | -8.2m/s | 8.3°C | 89.4% | 858.0hPa | 2.7V | 02:14:00 | 03:04:53 | 00:00:00 | |
| DB0UT-9 | 2026-09-01 01:33:09 | 49.62961 | 9.12717 | 92° | 27km/h | 1505m | -7.5m/s | 8.2°C | 90.7% | 856.5hPa | 2.7V | 02:14:00 | 00:00:00 | 00:00:00 | |
| DB0UT-7 | 2026-09-01 01:33:08 | 49.62962 | 9.12696 | 97° | 31km/h | 1521m | -7.7m/s | 8.0°C | 91.4% | 854.8hPa | 2.7V | 00:00:00 | 00:00:00 | 00:00:00 | |
| DB0NH | 2026-09-01 01:33:08 | 49.62962 | 9.12696 | 97° | 31km/h | 1521m | -7.7m/s | 8.0°C | 91.4% | 854.8hPa | 2.7V | 02:14:00 | 03:04:49 | 00:00:00 | |
| DK5PH-5 | 2026-09-01 01:33:02 | 49.62962 | 9.12627 | 92° | 33km/h | 1568m | -8.4m/s | 7.6°C | 94.7% | 849.7hPa | 2.7V | 00:00:00 | 03:04:43 | 00:00:00 | |
| DB0ND-19 | 2026-09-01 01:33:01 | 49.62963 | 9.12615 | 89° | 31km/h | 1576m | -8.0m/s | 7.6°C | 95.1% | 849.1hPa | 2.7V | 00:00:00 | 00:00:00 | 00:00:00 | |
| DL1ZP-14 | 2026-09-01 01:32:44 | 49.62947 | 9.12376 | 80° | 42km/h | 1707m | -7.3m/s | 7.4°C | 77.3% | 835.7hPa | 2.7V | 00:00:00 | 00:00:00 | 00:00:00 | |
| DF7PN | 2026-09-01 01:32:42 | 49.62944 | 9.12344 | 81° | 42km/h | 1722m | -8.0m/s | 7.5°C | 73.7% | 834.2hPa | 2.7V | 00:00:00 | 00:00:00 | 00:00:00 | |
| DK5PH-5 | 2026-09-01 01:32:42 | 49.62943 | 9.12344 | 82° | 44km/h | 1722m | -8.0m/s | 7.5°C | 73.7% | 834.2hPa | 2.7V | 02:14:00 | 03:04:23 | 00:00:00 | |
| DM7RM-13 | 2026-09-01 01:32:39 | 49.62940 | 9.12310 | 84° | 44km/h | 1737m | -8.3m/s | 7.5°C | 72.9% | 832.7hPa | 2.7V | 02:15:00 | 00:00:00 | 00:00:00 | |
| DB0NH | 2026-09-01 01:32:38 | 49.62938 | 9.12277 | 82° | 46km/h | 1753m | -7.5m/s | 7.4°C | 71.9% | 830.8hPa | 2.7V | 02:14:00 | 03:04:19 | 00:00:00 | |
| DL0LBS | 2026-09-01 01:32:37 | 49.62938 | 9.12277 | 82° | 44km/h | 1753m | -7.6m/s | 7.4°C | 71.9% | 830.9hPa | 2.7V | 02:15:00 | 00:00:00 | 00:00:00 | |
| DB0UT-7 | 2026-09-01 01:32:36 | 49.62935 | 9.12242 | 84° | 44km/h | 1768m | -7.5m/s | 7.3°C | 70.6% | 829.5hPa | 2.7V | 00:00:00 | 03:04:17 | 00:00:00 | |
| DK5PH-5 | 2026-09-01 01:32:32 | 49.62929 | 9.12171 | 85° | 44km/h | 1798m | -8.0m/s | 7.1°C | 70.2% | 826.5hPa | 2.7V | 00:00:00 | 03:04:13 | 00:00:00 | |
| DB0ND-19 | 2026-09-01 01:32:30 | 49.62926 | 9.12119 | 84° | 44km/h | 1822m | -7.9m/s | 6.9°C | 70.6% | 824.0hPa | 2.7V | 00:00:00 | 00:00:00 | 00:00:00 | |
| DB0NH | 2026-09-01 01:32:28 | 49.62925 | 9.12102 | 87° | 44km/h | 1830m | -7.6m/s | 6.8°C | 70.9% | 823.3hPa | 2.7V | 00:00:00 | 03:04:09 | 00:00:00 | |
| DB0UT-9 | 2026-09-01 01:32:27 | 49.62925 | 9.12102 | 87° | 44km/h | 1830m | -7.6m/s | 6.9°C | 70.8% | 823.3hPa | 2.7V | 02:15:00 | 00:00:00 | 00:00:00 | |
| DB0UT-7 | 2026-09-01 01:32:26 | 49.62924 | 9.12068 | 86° | 44km/h | 1845m | -7.7m/s | 6.7°C | 70.9% | 821.6hPa | 2.7V | 02:14:00 | 00:00:00 | 00:00:00 | |
| NBG1-10 | 2026-09-01 01:32:23 | 49.62920 | 9.12017 | 82° | 46km/h | 1867m | -7.2m/s | 6.5°C | 69.4% | 819.4hPa | 2.6V | 00:00:00 | 03:04:04 | 00:00:00 | |
| DK5PH-5 | 2026-09-01 01:32:22 | 49.62919 | 9.12000 | 84° | 46km/h | 1874m | -7.6m/s | 6.4°C | 70.0% | 818.8hPa | 2.6V | 00:00:00 | 03:04:03 | 00:00:00 | |
| DM7RM-13 | 2026-09-01 01:32:19 | 49.62917 | 9.11965 | 86° | 46km/h | 1889m | -7.9m/s | 6.4°C | 70.4% | 817.3hPa | 2.6V | 02:15:00 | 00:00:00 | 00:00:00 | |
| DB0NH | 2026-09-01 01:32:18 | 49.62915 | 9.11929 | 84° | 46km/h | 1904m | -7.8m/s | 6.2°C | 70.4% | 815.6hPa | 2.6V | 00:00:00 | 03:03:59 | 00:00:00 | |
| DL0LBS | 2026-09-01 01:32:17 | 49.62914 | 9.11929 | 84° | 46km/h | 1904m | -7.8m/s | 6.2°C | 70.3% | 815.6hPa | 2.6V | 02:15:00 | 00:00:00 | 00:00:00 | |
| DB0UT-7 | 2026-09-01 01:32:16 | 49.62913 | 9.11894 | 86° | 46km/h | 1920m | -7.2m/s | 6.0°C | 70.6% | 814.2hPa | 2.6V | 00:00:00 | 03:03:57 | 00:00:00 | |
| DL1ZP-14 | 2026-09-01 01:32:13 | 49.62911 | 9.11841 | 86° | 47km/h | 1942m | -7.6m/s | 5.9°C | 72.1% | 812.0hPa | 2.6V | 00:00:00 | 00:00:00 | 00:00:00 | |
| DK5PH-5 | 2026-09-01 01:32:12 | 49.62910 | 9.11822 | 86° | 46km/h | 1950m | -7.5m/s | 5.7°C | 72.1% | 811.2hPa | 2.7V | 02:15:00 | 03:03:53 | 00:00:00 | |
| DF7PN | 2026-09-01 01:32:11 | 49.62909 | 9.11804 | 86° | 46km/h | 1957m | -7.9m/s | 5.7°C | 72.2% | 810.6hPa | 2.7V | 00:00:00 | 00:00:00 | 00:00:00 | |
| DB0NH | 2026-09-01 01:32:08 | 49.62908 | 9.11751 | 88° | 47km/h | 1980m | -7.6m/s | 5.4°C | 75.4% | 808.3hPa | 2.7V | 02:15:00 | 03:03:49 | 00:00:00 | |
| DB0UT-9 | 2026-09-01 01:32:06 | 49.62907 | 9.11732 | 89° | 47km/h | 1987m | -8.1m/s | 5.4°C | 80.3% | 807.6hPa | 2.6V | 02:15:00 | 00:00:00 | 00:00:00 | |
| DB0UT-7 | 2026-09-01 01:32:06 | 49.62907 | 9.11714 | 88° | 47km/h | 1995m | -8.0m/s | 5.2°C | 84.4% | 807.0hPa | 2.6V | 00:00:00 | 00:00:00 | 00:00:00 | |
| DK5PH-5 | 2026-09-01 01:32:02 | 49.62905 | 9.11643 | 89° | 47km/h | 2024m | -7.7m/s | 5.1°C | 78.8% | 803.7hPa | 2.6V | 00:00:00 | 03:03:43 | 00:00:00 | |
| DB0ND-19 | 2026-09-01 01:31:59 | 49.62904 | 9.11587 | 87° | 47km/h | 2046m | -7.4m/s | 5.0°C | 76.0% | 801.7hPa | 2.6V | 00:00:00 | 00:00:00 | 00:00:00 | |
| DB0NH | 2026-09-01 01:31:56 | 49.62904 | 9.11532 | 94° | 49km/h | 2069m | -8.1m/s | 4.8°C | 72.1% | 799.6hPa | 2.6V | 00:00:00 | 03:03:37 | 00:00:00 | |
| DB0UT-7 | 2026-09-01 01:31:51 | 49.62905 | 9.11439 | 92° | 49km/h | 2107m | -7.8m/s | 4.4°C | 84.2% | 795.8hPa | 2.6V | 02:15:00 | 03:03:32 | 00:00:00 | |
| DB0UT-9 | 2026-09-01 01:31:46 | 49.62907 | 9.11361 | 92° | 51km/h | 2137m | -8.1m/s | 4.3°C | 83.9% | 792.9hPa | 2.7V | 02:16:00 | 00:00:00 | 00:00:00 | |
| DK5PH-5 | 2026-09-01 01:31:42 | 49.62910 | 9.11267 | 94° | 49km/h | 2174m | -7.3m/s | 4.1°C | 74.3% | 789.2hPa | 2.7V | 00:00:00 | 03:03:23 | 00:00:00 | |
| DF7PN | 2026-09-01 01:31:40 | 49.62911 | 9.11227 | 91° | 49km/h | 2189m | -7.6m/s | 4.1°C | 72.9% | 788.0hPa | 2.7V | 00:00:00 | 00:00:00 | 00:00:00 | |
| NBG1-10 | 2026-09-01 01:31:39 | 49.62912 | 9.11208 | 95° | 49km/h | 2197m | -7.7m/s | 4.0°C | 71.5% | 787.1hPa | 2.7V | 02:15:00 | 03:03:20 | 00:00:00 | |
| DM7RM-13 | 2026-09-01 01:31:38 | 49.62912 | 9.11208 | 96° | 47km/h | 2197m | -7.8m/s | 4.0°C | 71.3% | 787.2hPa | 2.7V | 02:16:00 | 00:00:00 | 00:00:00 | |
| DB0NH | 2026-09-01 01:31:35 | 49.62917 | 9.11133 | 93° | 49km/h | 2226m | -7.7m/s | 3.7°C | 72.7% | 784.2hPa | 2.7V | 00:00:00 | 03:03:16 | 00:00:00 | |
| DB0UT-7 | 2026-09-01 01:31:31 | 49.62921 | 9.11058 | 97° | 49km/h | 2256m | -7.2m/s | 3.4°C | 83.0% | 781.4hPa | 2.7V | 00:00:00 | 00:00:00 | 00:00:00 | |
| DB0ND-19 | 2026-09-01 01:31:28 | 49.62925 | 9.10999 | 95° | 49km/h | 2277m | -7.4m/s | 3.4°C | 72.6% | 779.4hPa | 2.7V | 00:00:00 | 00:00:00 | 00:00:00 | |
| DB0UT-9 | 2026-09-01 01:31:26 | 49.62927 | 9.10980 | 101° | 47km/h | 2284m | -7.6m/s | 3.4°C | 72.0% | 778.7hPa | 2.7V | 02:16:00 | 00:00:00 | 00:00:00 | |
| DK5PH-5 | 2026-09-01 01:31:22 | 49.62936 | 9.10886 | 96° | 49km/h | 2321m | -6.7m/s | 3.1°C | 73.7% | 774.9hPa | 2.7V | 02:16:00 | 03:03:03 | 00:00:00 | |
| DM7RM-13 | 2026-09-01 01:31:17 | 49.62943 | 9.10809 | 99° | 49km/h | 2350m | -8.0m/s | 2.9°C | 80.4% | 772.3hPa | 2.7V | 02:16:00 | 00:00:00 | 00:00:00 | |
| DB0NH | 2026-09-01 01:31:15 | 49.62948 | 9.10753 | 99° | 49km/h | 2373m | -7.5m/s | 2.7°C | 71.6% | 770.0hPa | 2.7V | 02:16:00 | 03:02:56 | 00:00:00 | |
| NBG1-10 | 2026-09-01 01:31:14 | 49.62950 | 9.10733 | 99° | 49km/h | 2381m | -7.5m/s | 2.7°C | 74.0% | 769.5hPa | 2.6V | 00:00:00 | 03:02:55 | 00:00:00 | |
| DB0UT-7 | 2026-09-01 01:31:11 | 49.62955 | 9.10676 | 98° | 49km/h | 2404m | -7.1m/s | 2.4°C | 76.6% | 767.2hPa | 2.6V | 00:00:00 | 03:02:52 | 00:00:00 | |
| DF7PN | 2026-09-01 01:31:09 | 49.62959 | 9.10639 | 98° | 51km/h | 2419m | -7.6m/s | 2.3°C | 80.6% | 766.0hPa | 2.6V | 00:00:00 | 00:00:00 | 00:00:00 | |
| DB0UT-9 | 2026-09-01 01:31:05 | 49.62964 | 9.10580 | 98° | 49km/h | 2440m | -7.8m/s | 2.2°C | 83.0% | 763.9hPa | 2.6V | 02:16:00 | 00:00:00 | 00:00:00 | |
| DK5PH-5 | 2026-09-01 01:31:02 | 49.62969 | 9.10504 | 97° | 49km/h | 2469m | -7.6m/s | 2.5°C | 68.0% | 761.0hPa | 2.6V | 00:00:00 | 03:02:43 | 00:00:00 | |
| DB0ND-19 | 2026-09-01 01:30:57 | 49.62976 | 9.10389 | 94° | 47km/h | 2514m | -8.0m/s | 2.7°C | 56.0% | 756.8hPa | 2.6V | 00:00:00 | 00:00:00 | 00:00:00 | |
| DB0NH | 2026-09-01 01:30:55 | 49.62977 | 9.10370 | 94° | 49km/h | 2522m | -8.1m/s | 2.7°C | 52.9% | 756.0hPa | 2.6V | 00:00:00 | 03:02:36 | 00:00:00 | |
| DL0LBS | 2026-09-01 01:30:53 | 49.62977 | 9.10351 | 93° | 49km/h | 2530m | -7.9m/s | 2.9°C | 49.4% | 755.4hPa | 2.6V | 02:17:00 | 00:00:00 | 00:00:00 | |
| NBG1-10 | 2026-09-01 01:30:52 | 49.62978 | 9.10313 | 89° | 51km/h | 2546m | -7.4m/s | 3.0°C | 46.0% | 754.0hPa | 2.6V | 00:00:00 | 03:02:33 | 00:00:00 | |
| DB0UT-7 | 2026-09-01 01:30:51 | 49.62978 | 9.10294 | 89° | 51km/h | 2553m | -7.4m/s | 2.9°C | 46.3% | 753.2hPa | 2.6V | 02:16:00 | 00:00:00 | 00:00:00 | |
| DB0UT-9 | 2026-09-01 01:30:45 | 49.62975 | 9.10199 | 88° | 49km/h | 2590m | -7.7m/s | 2.9°C | 46.8% | 749.9hPa | 2.6V | 02:17:00 | 00:00:00 | 00:00:00 | |
| DK5PH-5 | 2026-09-01 01:30:42 | 49.62972 | 9.10121 | 86° | 51km/h | 2620m | -8.3m/s | 3.0°C | 44.8% | 747.0hPa | 2.6V | 00:00:00 | 03:02:23 | 00:00:00 | |
| DL1ZP-14 | 2026-09-01 01:30:40 | 49.62969 | 9.10082 | 82° | 49km/h | 2635m | -7.3m/s | 2.9°C | 44.0% | 745.6hPa | 2.6V | 00:00:00 | 00:00:00 | 00:00:00 | |
| DF7PN | 2026-09-01 01:30:38 | 49.62967 | 9.10043 | 84° | 49km/h | 2650m | -7.1m/s | 2.8°C | 51.5% | 744.3hPa | 2.6V | 00:00:00 | 00:00:00 | 00:00:00 | |
| DM7RM-13 | 2026-09-01 01:30:36 | 49.62966 | 9.10023 | 86° | 53km/h | 2657m | -7.0m/s | 2.8°C | 50.0% | 743.8hPa | 2.6V | 02:17:00 | 00:00:00 | 00:00:00 | |
| DB0NH | 2026-09-01 01:30:35 | 49.62963 | 9.09982 | 84° | 51km/h | 2672m | -7.5m/s | 2.6°C | 52.3% | 742.2hPa | 2.6V | 00:00:00 | 03:02:16 | 00:00:00 | |
| DL0LBS | 2026-09-01 01:30:33 | 49.62962 | 9.09962 | 85° | 51km/h | 2679m | -7.2m/s | 2.6°C | 52.6% | 741.5hPa | 2.6V | 02:17:00 | 00:00:00 | 00:00:00 | |
| DB0UT-7 | 2026-09-01 01:30:31 | 49.62957 | 9.09899 | 84° | 51km/h | 2701m | -7.7m/s | 2.5°C | 49.4% | 739.5hPa | 2.6V | 00:00:00 | 03:02:12 | 00:00:00 | |
| DB0ND-19 | 2026-09-01 01:30:26 | 49.62946 | 9.09780 | 86° | 47km/h | 2744m | -7.5m/s | 2.4°C | 46.4% | 735.6hPa | 2.6V | 00:00:00 | 00:00:00 | 00:00:00 | |
| DB0UT-9 | 2026-09-01 01:30:24 | 49.62946 | 9.09780 | 87° | 49km/h | 2745m | -7.5m/s | 2.4°C | 46.4% | 735.6hPa | 2.6V | 02:17:00 | 00:00:00 | 00:00:00 | |
| DK5PH-5 | 2026-09-01 01:30:22 | 49.62946 | 9.09722 | 92° | 51km/h | 2766m | -6.8m/s | 2.2°C | 50.4% | 733.6hPa | 2.6V | 02:17:00 | 03:02:03 | 00:00:00 | |
| DM7RM-13 | 2026-09-01 01:30:17 | 49.62945 | 9.09619 | 87° | 51km/h | 2800m | -7.1m/s | 2.1°C | 49.4% | 730.5hPa | 2.6V | 02:17:00 | 00:00:00 | 00:00:00 | |
| DB0NH | 2026-09-01 01:30:16 | 49.62944 | 9.09580 | 92° | 51km/h | 2814m | -7.9m/s | 2.0°C | 49.3% | 728.9hPa | 2.6V | 02:17:00 | 03:01:56 | 00:00:00 | |
| DL0LBS | 2026-09-01 01:30:12 | 49.62944 | 9.09540 | 89° | 53km/h | 2829m | -8.1m/s | 1.9°C | 49.6% | 727.6hPa | 2.6V | 02:17:00 | 00:00:00 | 00:00:00 | |
| DB0UT-7 | 2026-09-01 01:30:11 | 49.62943 | 9.09499 | 87° | 53km/h | 2845m | -7.5m/s | 1.9°C | 50.3% | 726.4hPa | 2.6V | 00:00:00 | 00:00:00 | 00:00:00 | |
| DL1ZP-14 | 2026-09-01 01:30:09 | 49.62942 | 9.09458 | 87° | 51km/h | 2859m | -7.7m/s | 1.9°C | 45.9% | 724.9hPa | 2.6V | 00:00:00 | 00:00:00 | 00:00:00 | |
| DF7PN | 2026-09-01 01:30:07 | 49.62940 | 9.09398 | 86° | 49km/h | 2881m | -8.3m/s | 1.9°C | 39.1% | 723.0hPa | 2.6V | 00:00:00 | 00:00:00 | 00:00:00 | |
| NBG1-10 | 2026-09-01 01:30:04 | 49.62938 | 9.09359 | 88° | 53km/h | 2897m | -8.1m/s | 1.8°C | 38.5% | 721.4hPa | 2.6V | 00:00:00 | 03:01:45 | 00:00:00 | |
| DK5PH-5 | 2026-09-01 01:30:02 | 49.62938 | 9.09320 | 89° | 53km/h | 2913m | -8.1m/s | 1.9°C | 37.8% | 720.2hPa | 2.6V | 00:00:00 | 03:01:43 | 00:00:00 | |
| DB0ND-19 | 2026-09-01 01:29:55 | 49.62935 | 9.09155 | 88° | 53km/h | 2974m | -8.7m/s | 1.7°C | 36.9% | 714.7hPa | 2.6V | 00:00:00 | 00:00:00 | 00:00:00 | |
| DB0UT-7 | 2026-09-01 01:29:51 | 49.62935 | 9.09091 | 92° | 55km/h | 2998m | -8.5m/s | 1.5°C | 36.3% | 712.6hPa | 2.6V | 02:17:00 | 03:01:32 | 00:00:00 | |
| KANTATE | 2026-09-01 01:29:50 | 49.62935 | 9.09091 | 92° | 53km/h | 2998m | -8.5m/s | 1.6°C | 36.1% | 712.6hPa | 2.6V | 00:00:00 | 00:00:00 | 00:00:00 | |
| DB0UT-9 | 2026-09-01 01:29:43 | 49.62936 | 9.08945 | 91° | 53km/h | 3053m | -8.6m/s | 1.6°C | 26.8% | 707.9hPa | 2.6V | 02:18:00 | 00:00:00 | 00:00:00 | |
| NBG1-10 | 2026-09-01 01:29:42 | 49.62936 | 9.08903 | 93° | 57km/h | 3069m | -7.8m/s | 1.5°C | 26.9% | 706.3hPa | 2.6V | 00:00:00 | 03:01:23 | 00:00:00 | |
| DL1ZP-14 | 2026-09-01 01:29:38 | 49.62937 | 9.08794 | 89° | 55km/h | 3109m | -8.6m/s | 1.3°C | 26.4% | 702.9hPa | 2.6V | 00:00:00 | 00:00:00 | 00:00:00 | |
| DF7PN | 2026-09-01 01:29:36 | 49.62937 | 9.08750 | 89° | 55km/h | 3124m | -8.2m/s | 1.3°C | 25.2% | 701.6hPa | 2.6V | 00:00:00 | 00:00:00 | 00:00:00 | |
| DB0NH | 2026-09-01 01:29:35 | 49.62937 | 9.08750 | 90° | 58km/h | 3124m | -8.1m/s | 1.2°C | 25.4% | 701.5hPa | 2.6V | 00:00:00 | 03:01:16 | 00:00:00 | |
| DM7RM-13 | 2026-09-01 01:29:34 | 49.62937 | 9.08750 | 90° | 57km/h | 3124m | -8.2m/s | 1.3°C | 25.2% | 701.6hPa | 2.6V | 02:18:00 | 00:00:00 | 00:00:00 | |
| DL0LBS | 2026-09-01 01:29:31 | 49.62937 | 9.08683 | 92° | 55km/h | 3147m | -8.1m/s | 1.1°C | 24.4% | 699.4hPa | 2.6V | 02:18:00 | 00:00:00 | 00:00:00 | |
| DB0ND-19 | 2026-09-01 01:29:24 | 49.62935 | 9.08480 | 88° | 57km/h | 3218m | -8.0m/s | 0.9°C | 22.0% | 693.4hPa | 2.6V | 00:00:00 | 00:00:00 | 00:00:00 | |
| DB0UT-9 | 2026-09-01 01:29:22 | 49.62934 | 9.08480 | 89° | 58km/h | 3218m | -8.0m/s | 0.9°C | 22.0% | 693.4hPa | 2.6V | 02:18:00 | 00:00:00 | 00:00:00 | |
| DB0UT-7 | 2026-09-01 01:29:21 | 49.62934 | 9.08435 | 90° | 58km/h | 3234m | -8.0m/s | 0.9°C | 20.9% | 692.1hPa | 2.6V | 00:00:00 | 00:00:00 | 00:00:00 | |
| NBG1-10 | 2026-09-01 01:29:20 | 49.62934 | 9.08412 | 90° | 58km/h | 3242m | -7.8m/s | 0.9°C | 21.3% | 691.2hPa | 2.6V | 02:18:00 | 03:01:01 | 00:00:00 | |
| DF1GD-15 | 2026-09-01 01:29:19 | 49.62934 | 9.08412 | 91° | 58km/h | 3242m | -7.8m/s | 0.9°C | 21.2% | 691.3hPa | 2.5V | 00:00:00 | 00:00:00 | 00:00:00 | |
| DM7RM-13 | 2026-09-01 01:29:14 | 49.62936 | 9.08298 | 95° | 57km/h | 3281m | -8.7m/s | 0.6°C | 26.3% | 688.1hPa | 2.5V | 02:18:00 | 00:00:00 | 00:00:00 | |
| DK5PH-5 | 2026-09-01 01:29:12 | 49.62938 | 9.08230 | 95° | 60km/h | 3306m | -8.4m/s | 0.4°C | 29.2% | 685.9hPa | 2.5V | 02:18:00 | 03:00:53 | 00:00:00 | |
| DL0LBS | 2026-09-01 01:29:10 | 49.62939 | 9.08208 | 95° | 57km/h | 3314m | -9.0m/s | 0.4°C | 29.4% | 685.3hPa | 2.5V | 02:18:00 | 00:00:00 | 00:00:00 | |
| DL1ZP-14 | 2026-09-01 01:29:07 | 49.62945 | 9.08095 | 91° | 57km/h | 3356m | -7.9m/s | 0.2°C | 31.6% | 681.9hPa | 2.5V | 00:00:00 | 00:00:00 | 00:00:00 | |
| DF7PN | 2026-09-01 01:29:05 | 49.62946 | 9.08050 | 91° | 58km/h | 3371m | -8.2m/s | 0.1°C | 32.9% | 680.4hPa | 2.6V | 00:00:00 | 00:00:00 | 00:00:00 | |
| DB0UT-9 | 2026-09-01 01:29:02 | 49.62946 | 9.08027 | 92° | 58km/h | 3379m | -8.2m/s | 0.0°C | 33.5% | 679.8hPa | 2.6V | 02:18:00 | 00:00:00 | 00:00:00 | |
| KANTATE | 2026-09-01 01:29:01 | 49.62946 | 9.08003 | 92° | 58km/h | 3388m | -8.0m/s | 0.0°C | 33.5% | 679.2hPa | 2.6V | 00:00:00 | 00:00:00 | 00:00:00 | |
| DB0ND-19 | 2026-09-01 01:28:53 | 49.62949 | 9.07772 | 89° | 60km/h | 3470m | -8.0m/s | -0.4°C | 32.9% | 672.3hPa | 2.6V | 00:00:00 | 00:00:00 | 00:00:00 | |
| DB0UT-7 | 2026-09-01 01:28:51 | 49.62949 | 9.07748 | 91° | 60km/h | 3478m | -8.1m/s | -0.4°C | 32.6% | 671.6hPa | 2.6V | 00:00:00 | 03:00:32 | 00:00:00 | |
| DL0LBS | 2026-09-01 01:28:49 | 49.62949 | 9.07724 | 91° | 62km/h | 3486m | -8.0m/s | -0.5°C | 32.0% | 670.9hPa | 2.6V | 02:18:00 | 00:00:00 | 00:00:00 | |
| NBG1-10 | 2026-09-01 01:28:47 | 49.62949 | 9.07653 | 90° | 58km/h | 3510m | -7.6m/s | -0.6°C | 31.6% | 668.9hPa | 2.6V | 00:00:00 | 03:00:28 | 00:00:00 | |
| DK5PH-5 | 2026-09-01 01:28:42 | 49.62950 | 9.07536 | 90° | 58km/h | 3551m | -7.6m/s | -0.9°C | 31.4% | 665.5hPa | 2.6V | 00:00:00 | 03:00:23 | 00:00:00 | |
| DB0UT-9 | 2026-09-01 01:28:41 | 49.62950 | 9.07513 | 90° | 58km/h | 3558m | -8.0m/s | -1.0°C | 31.2% | 664.8hPa | 2.6V | 02:18:00 | 00:00:00 | 00:00:00 | |
| DF1GD-15 | 2026-09-01 01:28:39 | 49.62949 | 9.07490 | 90° | 58km/h | 3566m | -8.3m/s | -1.1°C | 31.4% | 664.1hPa | 2.6V | 00:00:00 | 00:00:00 | 00:00:00 | |
| DL1ZP-14 | 2026-09-01 01:28:36 | 49.62950 | 9.07377 | 90° | 57km/h | 3607m | -8.1m/s | -1.4°C | 31.3% | 660.7hPa | 2.6V | 00:00:00 | 00:00:00 | 00:00:00 | |
| DB0NH | 2026-09-01 01:28:35 | 49.62950 | 9.07377 | 91° | 58km/h | 3607m | -8.1m/s | -1.4°C | 31.7% | 660.6hPa | 2.5V | 00:00:00 | 03:00:16 | 00:00:00 | |
| DM7RM-13 | 2026-09-01 01:28:34 | 49.62951 | 9.07377 | 92° | 57km/h | 3607m | -8.1m/s | -1.4°C | 31.3% | 660.7hPa | 2.5V | 02:18:00 | 00:00:00 | 00:00:00 | |
| SFWM-10 | 2026-09-01 01:28:33 | 49.62951 | 9.07354 | 92° | 58km/h | 3615m | -8.7m/s | -1.5°C | 30.8% | 659.9hPa | 2.5V | 00:00:00 | 00:00:00 | 00:00:00 | |
| DL0LBS | 2026-09-01 01:28:28 | 49.62954 | 9.07241 | 93° | 58km/h | 3655m | -8.4m/s | -1.6°C | 25.6% | 656.6hPa | 2.5V | 02:19:00 | 00:00:00 | 00:00:00 | |
| DB0UT-7 | 2026-09-01 01:28:21 | 49.62961 | 9.07056 | 93° | 58km/h | 3722m | -7.7m/s | -1.8°C | 19.7% | 651.2hPa | 2.5V | 02:19:00 | 00:00:00 | 00:00:00 | |
| DB0UT-9 | 2026-09-01 01:28:20 | 49.62961 | 9.07056 | 94° | 58km/h | 3722m | -7.7m/s | -1.8°C | 19.5% | 651.2hPa | 2.5V | 02:19:00 | 00:00:00 | 00:00:00 | |
| DF1GD-15 | 2026-09-01 01:28:18 | 49.62964 | 9.06987 | 98° | 58km/h | 3746m | -8.7m/s | -1.9°C | 18.1% | 649.1hPa | 2.5V | 02:19:00 | 00:00:00 | 00:00:00 | |
| NBG1-10 | 2026-09-01 01:28:14 | 49.62970 | 9.06895 | 96° | 60km/h | 3778m | -8.2m/s | -2.0°C | 18.6% | 646.5hPa | 2.5V | 00:00:00 | 02:59:55 | 00:00:00 | |
| DM7RM-13 | 2026-09-01 01:28:13 | 49.62970 | 9.06895 | 96° | 60km/h | 3778m | -8.3m/s | -2.1°C | 18.4% | 646.5hPa | 2.5V | 02:19:00 | 00:00:00 | 00:00:00 | |
| DK5PH-5 | 2026-09-01 01:28:12 | 49.62973 | 9.06848 | 96° | 60km/h | 3795m | -8.8m/s | -2.1°C | 18.7% | 645.0hPa | 2.5V | 00:00:00 | 02:59:53 | 00:00:00 | |
| DL0LBS | 2026-09-01 01:28:08 | 49.62978 | 9.06780 | 97° | 58km/h | 3820m | -8.1m/s | -2.3°C | 18.0% | 643.2hPa | 2.5V | 02:19:00 | 00:00:00 | 00:00:00 | |
| DL1ZP-14 | 2026-09-01 01:28:05 | 49.62988 | 9.06665 | 97° | 58km/h | 3861m | -8.4m/s | -2.5°C | 16.8% | 639.8hPa | 2.5V | 00:00:00 | 00:00:00 | 00:00:00 | |
| DF7PN | 2026-09-01 01:28:02 | 49.62991 | 9.06620 | 95° | 57km/h | 3877m | -8.7m/s | -2.6°C | 17.1% | 638.4hPa | 2.6V | 00:00:00 | 00:00:00 | 00:00:00 | |
| DB0ND-19 | 2026-09-01 01:27:50 | 49.63010 | 9.06345 | 93° | 60km/h | 3975m | -8.8m/s | -3.2°C | 17.7% | 630.5hPa | 2.6V | 00:00:00 | 00:00:00 | 00:00:00 | |
| DL0LBS | 2026-09-01 01:27:47 | 49.63012 | 9.06297 | 92° | 62km/h | 3991m | -8.0m/s | -3.3°C | 17.5% | 629.2hPa | 2.6V | 02:19:00 | 00:00:00 | 00:00:00 | |
| DK5PH-5 | 2026-09-01 01:27:42 | 49.63014 | 9.06157 | 92° | 58km/h | 4041m | -8.7m/s | -3.4°C | 17.5% | 625.2hPa | 2.6V | 02:19:00 | 02:59:23 | 00:00:00 | |
| NBG1-10 | 2026-09-01 01:27:41 | 49.63014 | 9.06133 | 91° | 58km/h | 4049m | -8.6m/s | -3.4°C | 17.5% | 624.7hPa | 2.6V | 02:19:00 | 02:59:22 | 00:00:00 | |
| DB0UT-9 | 2026-09-01 01:27:39 | 49.63014 | 9.06109 | 91° | 62km/h | 4058m | -8.6m/s | -3.5°C | 17.1% | 624.1hPa | 2.5V | 02:19:00 | 00:00:00 | 00:00:00 | |
| SFWM-10 | 2026-09-01 01:27:38 | 49.63014 | 9.06085 | 91° | 62km/h | 4067m | -8.8m/s | -3.6°C | 16.9% | 623.5hPa | 2.5V | 00:00:00 | 00:00:00 | 00:00:00 | |
| DF1GD-15 | 2026-09-01 01:27:35 | 49.63015 | 9.06012 | 91° | 62km/h | 4092m | -9.0m/s | -3.6°C | 15.2% | 621.4hPa | 2.5V | 00:00:00 | 00:00:00 | 00:00:00 | |
| DL1ZP-14 | 2026-09-01 01:27:34 | 49.63016 | 9.05941 | 90° | 60km/h | 4118m | -8.7m/s | -3.8°C | 15.5% | 619.6hPa | 2.5V | 00:00:00 | 00:00:00 | 00:00:00 | |
| DM7RM-13 | 2026-09-01 01:27:32 | 49.63016 | 9.05941 | 91° | 62km/h | 4118m | -8.7m/s | -3.8°C | 15.5% | 619.6hPa | 2.6V | 02:20:00 | 00:00:00 | 00:00:00 | |
| DF7PN | 2026-09-01 01:27:31 | 49.63016 | 9.05894 | 90° | 58km/h | 4135m | -9.1m/s | -4.0°C | 15.9% | 618.2hPa | 2.6V | 00:00:00 | 00:00:00 | 00:00:00 | |
| DB0NH | 2026-09-01 01:27:27 | 49.63018 | 9.05802 | 95° | 57km/h | 4169m | -8.6m/s | -4.2°C | 16.6% | 615.5hPa | 2.6V | 02:19:00 | 02:59:08 | 00:00:00 | |
| DB0UT-7 | 2026-09-01 01:27:21 | 49.63025 | 9.05665 | 96° | 57km/h | 4219m | -8.5m/s | -4.6°C | 15.6% | 611.5hPa | 2.6V | 00:00:00 | 00:00:00 | 00:00:00 | |
| DB0ND-19 | 2026-09-01 01:27:20 | 49.63028 | 9.05621 | 97° | 57km/h | 4235m | -8.7m/s | -4.7°C | 15.0% | 610.4hPa | 2.6V | 00:00:00 | 00:00:00 | 00:00:00 | |
| DF1GD-15 | 2026-09-01 01:27:14 | 49.63036 | 9.05533 | 100° | 57km/h | 4268m | -8.9m/s | -4.8°C | 12.7% | 607.6hPa | 2.6V | 00:00:00 | 00:00:00 | 00:00:00 | |
| DK5PH-5 | 2026-09-01 01:27:12 | 49.63042 | 9.05469 | 97° | 57km/h | 4293m | -9.3m/s | -5.0°C | 12.4% | 605.5hPa | 2.6V | 00:00:00 | 02:58:53 | 00:00:00 | |
| DM7RM-13 | 2026-09-01 01:27:11 | 49.63042 | 9.05469 | 98° | 55km/h | 4293m | -9.3m/s | -5.0°C | 12.1% | 605.5hPa | 2.6V | 02:20:00 | 00:00:00 | 00:00:00 | |
| SFWM-10 | 2026-09-01 01:27:10 | 49.63043 | 9.05447 | 97° | 58km/h | 4302m | -8.6m/s | -5.0°C | 11.8% | 604.9hPa | 2.6V | 00:00:00 | 00:00:00 | 00:00:00 | |
| NBG1-10 | 2026-09-01 01:27:08 | 49.63049 | 9.05381 | 97° | 57km/h | 4328m | -8.0m/s | -5.1°C | 10.5% | 602.9hPa | 2.6V | 00:00:00 | 02:58:49 | 00:00:00 | |
| DB0UT-9 | 2026-09-01 01:27:07 | 49.63049 | 9.05381 | 98° | 57km/h | 4328m | -8.1m/s | -5.2°C | 10.3% | 602.9hPa | 2.6V | 02:20:00 | 00:00:00 | 00:00:00 | |
| DL0LBS | 2026-09-01 01:27:06 | 49.63051 | 9.05358 | 98° | 58km/h | 4336m | -9.5m/s | -5.2°C | 10.0% | 602.4hPa | 2.6V | 02:20:00 | 00:00:00 | 00:00:00 | |
| DL1ZP-14 | 2026-09-01 01:27:02 | 49.63059 | 9.05246 | 97° | 57km/h | 4379m | -9.0m/s | -5.7°C | 10.2% | 599.1hPa | 2.6V | 00:00:00 | 00:00:00 | 00:00:00 | |
| DF7PN | 2026-09-01 01:27:01 | 49.63063 | 9.05202 | 97° | 55km/h | 4396m | -9.0m/s | -5.9°C | 10.8% | 597.7hPa | 2.6V | 00:00:00 | 00:00:00 | 00:00:00 | |
| DB0ND-19 | 2026-09-01 01:26:48 | 49.63079 | 9.04940 | 92° | 55km/h | 4497m | -8.7m/s | -6.5°C | 10.8% | 590.0hPa | 2.6V | 00:00:00 | 00:00:00 | 00:00:00 | |
| KANTATE | 2026-09-01 01:26:47 | 49.63079 | 9.04940 | 93° | 55km/h | 4497m | -8.7m/s | -6.5°C | 10.8% | 590.0hPa | 2.6V | 02:21:00 | 00:00:00 | 00:00:00 | |
| DO3MHA-11 | 2026-09-01 01:26:46 | 49.63080 | 9.04897 | 97° | 57km/h | 4514m | -8.6m/s | -6.6°C | 11.0% | 588.7hPa | 2.6V | 02:20:00 | 02:58:27 | 00:00:00 | |
| DL0LBS | 2026-09-01 01:26:45 | 49.63080 | 9.04897 | 98° | 55km/h | 4514m | -8.7m/s | -6.6°C | 10.7% | 588.8hPa | 2.6V | 02:21:00 | 00:00:00 | 00:00:00 | |
| DK5PH-5 | 2026-09-01 01:26:42 | 49.63086 | 9.04810 | 95° | 55km/h | 4548m | -8.2m/s | -6.9°C | 12.4% | 586.2hPa | 2.6V | 00:00:00 | 02:58:23 | 00:00:00 | |
| DO3MHA-11 | 2026-09-01 01:26:41 | 49.63087 | 9.04788 | 95° | 55km/h | 4556m | -8.7m/s | -6.9°C | 13.3% | 585.5hPa | 2.6V | 00:00:00 | 02:58:22 | 00:00:00 | |
| DO3MHA-11 | 2026-09-01 01:26:36 | 49.63095 | 9.04680 | 97° | 55km/h | 4600m | -8.8m/s | -7.3°C | 14.2% | 582.4hPa | 2.6V | 00:00:00 | 02:58:17 | 00:00:00 | |
| NBG1-10 | 2026-09-01 01:26:35 | 49.63096 | 9.04658 | 95° | 55km/h | 4608m | -8.2m/s | -7.4°C | 14.1% | 581.8hPa | 2.6V | 00:00:00 | 02:58:16 | 00:00:00 | |
| DM0DOS-11 | 2026-09-01 01:26:31 | 49.63102 | 9.04529 | 92° | 55km/h | 4661m | -10.2m/s | -7.8°C | 13.6% | 578hPa | 2.6V | 02:20:54 | 02:58:10 | 00:00:00 | |
| DO3MHA-11 | 2026-09-01 01:26:31 | 49.63100 | 9.04571 | 96° | 55km/h | 4643m | -9.3m/s | -7.6°C | 13.6% | 579.2hPa | 2.5V | 02:20:00 | 02:58:12 | 00:00:00 | |
| DF7PN | 2026-09-01 01:26:29 | 49.63102 | 9.04529 | 92° | 53km/h | 4661m | -10.2m/s | -7.8°C | 13.2% | 578.0hPa | 2.5V | 00:00:00 | 00:00:00 | 00:00:00 | |
| DB0NH | 2026-09-01 01:26:27 | 49.63103 | 9.04485 | 95° | 57km/h | 4680m | -9.0m/s | -7.9°C | 13.0% | 576.7hPa | 2.5V | 00:00:00 | 02:58:08 | 00:00:00 | |
| DM0DOS-11 | 2026-09-01 01:26:26 | 49.63106 | 9.04422 | 90° | 53km/h | 4707m | -10.2m/s | -8.1°C | 13% | 574.7hPa | 2.5V | 02:20:59 | 02:58:05 | 00:00:00 | |
| DF1GD-15 | 2026-09-01 01:26:26 | 49.63104 | 9.04464 | 96° | 53km/h | 4688m | -9.3m/s | -8.0°C | 12.7% | 576.0hPa | 2.5V | 02:21:00 | 00:00:00 | 00:00:00 | |
| DL0LBS | 2026-09-01 01:26:25 | 49.63104 | 9.04464 | 96° | 53km/h | 4688m | -9.3m/s | -8.0°C | 12.7% | 576.0hPa | 2.5V | 02:21:00 | 00:00:00 | 00:00:00 | |
| DM0DOS-11 | 2026-09-01 01:26:21 | 49.63108 | 9.04316 | 93° | 55km/h | 4755m | -10.1m/s | -8.5°C | 13.7% | 571.3hPa | 2.5V | 02:21:04 | 02:58:00 | 00:00:00 | |
| DB0UT-7 | 2026-09-01 01:26:21 | 49.63107 | 9.04358 | 92° | 57km/h | 4734m | -10.0m/s | -8.3°C | 13.6% | 572.6hPa | 2.6V | 00:00:00 | 00:00:00 | 00:00:00 | |
| DO3MHA-11 | 2026-09-01 01:26:20 | 49.63107 | 9.04337 | 94° | 55km/h | 4745m | -11.0m/s | -8.3°C | 13.6% | 572.0hPa | 2.6V | 00:00:00 | 02:58:01 | 00:00:00 | |
| DB0ND-19 | 2026-09-01 01:26:17 | 49.63109 | 9.04274 | 91° | 55km/h | 4773m | -7.2m/s | -8.6°C | 13.3% | 569.9hPa | 2.6V | 00:00:00 | 00:00:00 | 00:00:00 | |
| DM0DOS-11 | 2026-09-01 01:26:16 | 49.63111 | 9.04209 | 91° | 55km/h | 4795m | -7.9m/s | -8.7°C | 12.9% | 568.4hPa | 2.6V | 02:21:09 | 02:57:55 | 00:00:00 | |
| DO3MHA-11 | 2026-09-01 01:26:15 | 49.63110 | 9.04231 | 92° | 57km/h | 4787m | -7.2m/s | -8.6°C | 13.7% | 568.6hPa | 2.6V | 02:21:00 | 02:57:56 | 00:00:00 | |
| DK5PH-5 | 2026-09-01 01:26:12 | 49.63112 | 9.04165 | 92° | 57km/h | 4810m | -8.8m/s | -8.8°C | 12.1% | 567.1hPa | 2.5V | 02:21:00 | 02:57:53 | 00:00:00 | |
| DM0DOS-11 | 2026-09-01 01:26:11 | 49.63113 | 9.04100 | 91° | 57km/h | 4832m | -7.2m/s | -9.1°C | 12% | 565.4hPa | 2.6V | 02:21:14 | 02:57:50 | 00:00:00 | |
| DM7RM-13 | 2026-09-01 01:26:10 | 49.63112 | 9.04143 | 93° | 57km/h | 4817m | -7.0m/s | -8.9°C | 11.8% | 566.5hPa | 2.5V | 02:21:00 | 00:00:00 | 00:00:00 | |
| DM0DOS-11 | 2026-09-01 01:26:06 | 49.63113 | 9.03988 | 89° | 57km/h | 4869m | -7.8m/s | -9.4°C | 11.7% | 562.6hPa | 2.5V | 02:21:19 | 02:57:45 | 00:00:00 | |
| BIOWL1-15 | 2026-09-01 01:26:03 | 49.63112 | 9.03922 | 88° | 55km/h | 4890m | -6.7m/s | -9.5°C | 13% | 561hPa | 2.6V | 02:22:16 | 02:57:42 | 00:00:00 | |
| NBG1-10 | 2026-09-01 01:26:02 | 49.63112 | 9.03943 | 89° | 57km/h | 4883m | -6.9m/s | -9.4°C | 11.6% | 561.5hPa | 2.6V | 02:21:00 | 02:57:43 | 00:00:00 | |
| DM0DOS-11 | 2026-09-01 01:26:01 | 49.63111 | 9.03877 | 89° | 57km/h | 4904m | -8.1m/s | -9.6°C | 11.5% | 560hPa | 2.6V | 02:21:24 | 02:57:40 | 00:00:00 | |
| DL1ZP-14 | 2026-09-01 01:26:00 | 49.63112 | 9.03900 | 88° | 57km/h | 4896m | -7.1m/s | -9.6°C | 11.2% | 560.5hPa | 2.6V | 00:00:00 | 00:00:00 | 00:00:00 | |
| DF7PN | 2026-09-01 01:25:58 | 49.63111 | 9.03855 | 88° | 55km/h | 4911m | -8.7m/s | -9.6°C | 11.4% | 559.4hPa | 2.5V | 00:00:00 | 00:00:00 | 00:00:00 | |
| DB0NH | 2026-09-01 01:25:57 | 49.63110 | 9.03833 | 88° | 58km/h | 4920m | -7.5m/s | -9.6°C | 11.8% | 558.7hPa | 2.5V | 02:21:00 | 02:57:38 | 00:00:00 | |
| DM0DOS-11 | 2026-09-01 01:25:56 | 49.63110 | 9.03767 | 87° | 57km/h | 4943m | -9m/s | -9.9°C | 11.6% | 557.1hPa | 2.6V | 02:21:29 | 02:57:35 | 00:00:00 | |
| DO3MHA-11 | 2026-09-01 01:25:55 | 49.63110 | 9.03789 | 90° | 57km/h | 4935m | -8.0m/s | -9.7°C | 11.8% | 557.7hPa | 2.6V | 00:00:00 | 02:57:36 | 00:00:00 | |
| KANTATE | 2026-09-01 01:25:54 | 49.63110 | 9.03789 | 91° | 55km/h | 4935m | -8.1m/s | -9.8°C | 11.4% | 557.7hPa | 2.6V | 00:00:00 | 00:00:00 | 00:00:00 | |
| DM0DOS-11 | 2026-09-01 01:25:51 | 49.63107 | 9.03658 | 86° | 57km/h | 4983m | -7.4m/s | -10.1°C | 11.3% | 554.2hPa | 2.6V | 02:21:34 | 02:57:30 | 00:00:00 | |
| DB0UT-7 | 2026-09-01 01:25:51 | 49.63108 | 9.03701 | 87° | 58km/h | 4969m | -7.2m/s | -10.0°C | 11.6% | 555.2hPa | 2.6V | 00:00:00 | 02:57:32 | 00:00:00 | |
| DO3MHA-11 | 2026-09-01 01:25:50 | 49.63107 | 9.03680 | 88° | 57km/h | 4976m | -7.5m/s | -10.0°C | 11.4% | 554.7hPa | 2.6V | 00:00:00 | 02:57:31 | 00:00:00 | |
| DM0DOS-11 | 2026-09-01 01:25:46 | 49.63102 | 9.03548 | 85° | 57km/h | 5023m | -7.5m/s | -10.4°C | 11% | 551.3hPa | 2.6V | 02:21:39 | 02:57:25 | 00:00:00 | |
| BIOWL1-15 | 2026-09-01 01:25:46 | 49.63103 | 9.03570 | 85° | 57km/h | 5016m | -7.7m/s | -10.3°C | 12.4% | 551.8hPa | 2.6V | 02:22:16 | 02:57:26 | 00:00:00 | |
| DO3MHA-11 | 2026-09-01 01:25:45 | 49.63103 | 9.03570 | 86° | 57km/h | 5016m | -7.7m/s | -10.3°C | 11.2% | 551.7hPa | 2.6V | 02:21:00 | 02:57:26 | 00:00:00 | |
| DL0LBS | 2026-09-01 01:25:44 | 49.63103 | 9.03570 | 86° | 57km/h | 5016m | -7.7m/s | -10.3°C | 10.8% | 551.8hPa | 2.6V | 02:22:00 | 00:00:00 | 00:00:00 | |
| DF1GD-15 | 2026-09-01 01:25:43 | 49.63102 | 9.03548 | 86° | 57km/h | 5023m | -7.5m/s | -10.4°C | 10.6% | 551.3hPa | 2.6V | 02:22:00 | 00:00:00 | 00:00:00 | |
| DK5PH-5 | 2026-09-01 01:25:42 | 49.63099 | 9.03504 | 84° | 58km/h | 5038m | -7.0m/s | -10.4°C | 10.4% | 550.2hPa | 2.6V | 00:00:00 | 02:57:23 | 00:00:00 | |
| DM0DOS-11 | 2026-09-01 01:25:36 | 49.63084 | 9.03325 | 81° | 60km/h | 5102m | -10.3m/s | -10.7°C | 9.1% | 545.9hPa | 2.6V | 02:21:49 | 02:57:15 | 00:00:00 | |
| BIOWL1-15 | 2026-09-01 01:25:32 | 49.63070 | 9.03140 | 82° | 60km/h | 5175m | -12m/s | -11.3°C | 9.9% | 541.1hPa | 2.5V | 02:22:16 | 02:57:07 | 00:00:00 | |
| DM7RM-13 | 2026-09-01 01:25:30 | 49.63078 | 9.03257 | 85° | 58km/h | 5127m | -9.0m/s | -10.9°C | 8.7% | 544.0hPa | 2.5V | 02:22:00 | 00:00:00 | 00:00:00 | |
| NBG1-10 | 2026-09-01 01:25:29 | 49.63074 | 9.03210 | 84° | 58km/h | 5144m | -8.1m/s | -11.0°C | 9.1% | 542.9hPa | 2.5V | 00:00:00 | 02:57:10 | 00:00:00 | |
| DB0NH | 2026-09-01 01:25:27 | 49.63071 | 9.03163 | 85° | 58km/h | 5163m | -11.6m/s | -11.2°C | 9.1% | 541.7hPa | 2.5V | 00:00:00 | 02:57:08 | 00:00:00 | |
| DM0DOS-11 | 2026-09-01 01:25:26 | 49.63066 | 9.03094 | 84° | 60km/h | 5199m | -10.9m/s | -11.5°C | 8.9% | 539.4hPa | 2.5V | 02:21:59 | 02:57:05 | 00:00:00 | |
| BIOWL1-15 | 2026-09-01 01:25:17 | 49.63058 | 9.02883 | 87° | 60km/h | 5273m | -7m/s | -12°C | 6.9% | 533.9hPa | 2.5V | 02:22:16 | 02:56:56 | 00:00:00 | |
| DM0DOS-11 | 2026-09-01 01:25:16 | 49.63058 | 9.02860 | 88° | 58km/h | 5280m | -7m/s | -12°C | 7.2% | 533.4hPa | 2.5V | 02:22:09 | 02:56:55 | 00:00:00 | |
| BIOWL1-15 | 2026-09-01 01:25:08 | 49.63063 | 9.02679 | 95° | 57km/h | 5336m | -6.9m/s | -12°C | 4.4% | 529.4hPa | 2.5V | 02:23:07 | 02:56:47 | 00:00:00 | |
| DM0DOS-11 | 2026-09-01 01:25:06 | 49.63066 | 9.02635 | 95° | 57km/h | 5350m | -7.1m/s | -12.1°C | 5.2% | 528.3hPa | 2.6V | 02:22:19 | 02:56:45 | 00:00:00 | |
| DO3MHA-11 | 2026-09-01 01:25:05 | 49.63065 | 9.02657 | 96° | 57km/h | 5343m | -7.0m/s | -12.0°C | 5.3% | 528.8hPa | 2.5V | 00:00:00 | 02:56:46 | 00:00:00 | |
| SFWM-10 | 2026-09-01 01:25:04 | 49.63065 | 9.02657 | 96° | 57km/h | 5343m | -7.1m/s | -12.0°C | 5.0% | 528.9hPa | 2.5V | 00:00:00 | 00:00:00 | 00:00:00 | |
| DL0LBS | 2026-09-01 01:25:03 | 49.63066 | 9.02635 | 97° | 57km/h | 5350m | -7.1m/s | -12.1°C | 4.9% | 528.3hPa | 2.5V | 02:23:00 | 00:00:00 | 00:00:00 | |
| DF1GD-15 | 2026-09-01 01:25:02 | 49.63068 | 9.02613 | 97° | 57km/h | 5357m | -7.5m/s | -12.1°C | 4.8% | 528.0hPa | 2.5V | 02:23:00 | 00:00:00 | 00:00:00 | |
| DL1ZP-14 | 2026-09-01 01:24:58 | 49.63078 | 9.02502 | 100° | 58km/h | 5390m | -6.9m/s | -11.9°C | 3.4% | 525.6hPa | 2.5V | 00:00:00 | 00:00:00 | 00:00:00 | |
| DM0DOS-11 | 2026-09-01 01:24:56 | 49.63089 | 9.02414 | 101° | 57km/h | 5417m | -7.2m/s | -11.9°C | 3.3% | 523.8hPa | 2.6V | 02:22:29 | 02:56:35 | 00:00:00 | |
| BIOWL1-15 | 2026-09-01 01:24:56 | 49.63084 | 9.02458 | 101° | 57km/h | 5403m | -7m/s | -11.9°C | 1.5% | 524.7hPa | 2.6V | 02:23:07 | 02:56:37 | 00:00:00 | |
| DB0NH | 2026-09-01 01:24:56 | 49.63084 | 9.02458 | 102° | 58km/h | 5403m | -6.9m/s | -11.9°C | 3.5% | 524.7hPa | 2.6V | 00:00:00 | 02:56:37 | 00:00:00 | |
| DO3MHA-11 | 2026-09-01 01:24:55 | 49.63086 | 9.02436 | 102° | 57km/h | 5411m | -7.1m/s | -11.9°C | 3.4% | 524.2hPa | 2.6V | 00:00:00 | 02:56:36 | 00:00:00 | |
| DL1NUX | 2026-09-01 01:24:52 | 49.63109 | 9.02262 | 100° | 57km/h | 5468m | -7.2m/s | -12.3°C | 3.3% | 520.4hPa | 2.6V | 02:22:36 | 02:56:28 | 00:00:00 | |
| DB0UT-7 | 2026-09-01 01:24:51 | 49.63097 | 9.02350 | 101° | 58km/h | 5440m | -7.1m/s | -12.0°C | 3.4% | 522.2hPa | 2.5V | 00:00:00 | 02:56:32 | 00:00:00 | |
| DM7RM-13 | 2026-09-01 01:24:49 | 49.63100 | 9.02328 | 102° | 57km/h | 5447m | -6.7m/s | -12.1°C | 3.1% | 521.8hPa | 2.5V | 02:23:00 | 00:00:00 | 00:00:00 | |
| KANTATE | 2026-09-01 01:24:47 | 49.63106 | 9.02284 | 102° | 57km/h | 5461m | -7.1m/s | -12.2°C | 3.1% | 520.8hPa | 2.5V | 00:00:00 | 00:00:00 | 00:00:00 | |
| DM0DOS-11 | 2026-09-01 01:24:46 | 49.63117 | 9.02197 | 100° | 58km/h | 5489m | -7.2m/s | -12.4°C | 3.3% | 518.9hPa | 2.5V | 02:22:39 | 02:56:25 | 00:00:00 | |
| BIOWL1-15 | 2026-09-01 01:24:45 | 49.63114 | 9.02219 | 101° | 57km/h | 5482m | -7.1m/s | -12.4°C | 1.3% | 519.3hPa | 2.5V | 02:23:07 | 02:56:26 | 00:00:00 | |
| BIOWL9-15 | 2026-09-01 01:24:45 | 49.63117 | 9.02197 | 100° | 57km/h | 5489m | -7.2m/s | -12.4°C | 3.1% | 518.9hPa | 2.6V | 00:00:00 | 00:00:00 | 00:00:00 | |
| SFWM-10 | 2026-09-01 01:24:43 | 49.63117 | 9.02197 | 102° | 58km/h | 5489m | -7.2m/s | -12.4°C | 3.1% | 518.9hPa | 2.6V | 00:00:00 | 00:00:00 | 00:00:00 | |
| DL1NUX | 2026-09-01 01:24:42 | 49.63135 | 9.02040 | 97° | 60km/h | 5539m | -7.4m/s | -12.7°C | 3.6% | 515.6hPa | 2.6V | 02:22:46 | 02:56:18 | 00:00:00 | |
| DK5PH-5 | 2026-09-01 01:24:42 | 49.63123 | 9.02151 | 101° | 58km/h | 5502m | -6.3m/s | -12.4°C | 3.4% | 518.0hPa | 2.6V | 02:22:00 | 02:56:23 | 00:00:00 | |
| DF1GD-15 | 2026-09-01 01:24:41 | 49.63123 | 9.02151 | 101° | 60km/h | 5502m | -6.3m/s | -12.5°C | 3.1% | 518.0hPa | 2.6V | 02:23:00 | 00:00:00 | 00:00:00 | |
| DM0DOS-11 | 2026-09-01 01:24:36 | 49.63142 | 9.01972 | 97° | 57km/h | 5561m | -10.9m/s | -12.9°C | 3.9% | 514.2hPa | 2.6V | 02:22:49 | 02:56:15 | 00:00:00 | |
| BIOWL1-15 | 2026-09-01 01:24:35 | 49.63140 | 9.01994 | 98° | 60km/h | 5553m | -6.6m/s | -12.8°C | 2.1% | 514.6hPa | 2.6V | 02:23:07 | 02:56:16 | 00:00:00 | |
| DO3MHA-11 | 2026-09-01 01:24:35 | 49.63140 | 9.01994 | 98° | 57km/h | 5553m | -6.5m/s | -12.8°C | 3.8% | 514.5hPa | 2.5V | 00:00:00 | 02:56:16 | 00:00:00 | |
| DF3TZ-5 | 2026-09-01 01:24:33 | 49.63148 | 9.01905 | 97° | 57km/h | 5590m | -8.0m/s | -13.0°C | 4.1% | 512.4hPa | 2.5V | 00:00:00 | 00:00:00 | 00:00:00 | |
| DL1NUX | 2026-09-01 01:24:32 | 49.63155 | 9.01817 | 97° | 58km/h | 5622m | -7.1m/s | -13.3°C | 4.7% | 510.1hPa | 2.5V | 02:22:56 | 02:56:08 | 00:00:00 | |
| DM7RM-13 | 2026-09-01 01:24:29 | 49.63149 | 9.01883 | 98° | 57km/h | 5598m | -8.7m/s | -13.1°C | 4.2% | 511.8hPa | 2.6V | 02:23:00 | 00:00:00 | 00:00:00 | |
| SO1NDE-10 | 2026-09-01 01:24:27 | 49.63156 | 9.01817 | 98° | 58km/h | 5622m | -7.0m/s | -13.2°C | 4.7% | 510.1hPa | 2.6V | 00:00:00 | 02:56:08 | 00:00:00 | |
| DM0DOS-11 | 2026-09-01 01:24:26 | 49.63161 | 9.01751 | 97° | 58km/h | 5643m | -7m/s | -13.4°C | 4.8% | 508.7hPa | 2.6V | 02:22:59 | 02:56:05 | 00:00:00 | |
| BIOWL1-15 | 2026-09-01 01:24:25 | 49.63159 | 9.01773 | 98° | 57km/h | 5637m | -6.5m/s | -13.4°C | 3.5% | 509.2hPa | 2.5V | 02:23:07 | 02:56:06 | 00:00:00 | |
| BIOWL1-15 | 2026-09-01 01:24:18 | 49.63187 | 9.01526 | 101° | 58km/h | 5723m | -7.8m/s | -14°C | 4.5% | 503.7hPa | 2.5V | 02:23:58 | 02:55:55 | 00:00:00 | |
| DM0DOS-11 | 2026-09-01 01:24:16 | 49.63187 | 9.01526 | 100° | 58km/h | 5722m | -7.8m/s | -14°C | 5.3% | 503.7hPa | 2.5V | 02:23:09 | 02:55:55 | 00:00:00 | |
| DO3MHA-11 | 2026-09-01 01:24:15 | 49.63184 | 9.01549 | 101° | 60km/h | 5714m | -8.5m/s | -13.9°C | 5.2% | 504.2hPa | 2.5V | 02:23:00 | 02:55:56 | 00:00:00 | |
| BIOWL9-15 | 2026-09-01 01:24:13 | 49.63190 | 9.01503 | 100° | 58km/h | 5730m | -7.5m/s | -14.0°C | 4.9% | 503.1hPa | 2.6V | 00:00:00 | 00:00:00 | 00:00:00 | |
| DL1NUX | 2026-09-01 01:24:12 | 49.63208 | 9.01367 | 102° | 60km/h | 5772m | -6.2m/s | -14.3°C | 5.3% | 500.1hPa | 2.6V | 02:23:16 | 02:55:48 | 00:00:00 | |
| DK5PH-5 | 2026-09-01 01:24:12 | 49.63192 | 9.01481 | 102° | 62km/h | 5738m | -6.7m/s | -14.1°C | 5.3% | 502.4hPa | 2.5V | 00:00:00 | 02:55:53 | 00:00:00 | |
| DM7RM-13 | 2026-09-01 01:24:08 | 49.63202 | 9.01412 | 103° | 60km/h | 5759m | -7.7m/s | -14.3°C | 5.0% | 501.1hPa | 2.5V | 02:23:00 | 00:00:00 | 00:00:00 | |
| DM0DOS-11 | 2026-09-01 01:24:06 | 49.63218 | 9.01299 | 101° | 60km/h | 5791m | -6.9m/s | -14.4°C | 5.2% | 498.9hPa | 2.5V | 02:23:19 | 02:55:45 | 00:00:00 | |
| BIOWL1-15 | 2026-09-01 01:24:03 | 49.63223 | 9.01253 | 101° | 60km/h | 5805m | -7.3m/s | -14.5°C | 4.3% | 497.9hPa | 2.6V | 02:23:58 | 02:55:43 | 00:00:00 | |
| DL0LBS | 2026-09-01 01:24:01 | 49.63223 | 9.01253 | 102° | 60km/h | 5805m | -7.3m/s | -14.5°C | 4.8% | 497.9hPa | 2.5V | 02:23:00 | 00:00:00 | 00:00:00 | |
| DF1GD-15 | 2026-09-01 01:24:00 | 49.63226 | 9.01230 | 102° | 60km/h | 5813m | -7.4m/s | -14.6°C | 4.8% | 497.4hPa | 2.5V | 02:23:00 | 00:00:00 | 00:00:00 | |
| DF2AP-13 | 2026-09-01 01:23:59 | 49.63232 | 9.01183 | 102° | 64km/h | 5827m | -7.0m/s | -14.6°C | 5.1% | 496.4hPa | 2.5V | 02:23:00 | 02:55:40 | 00:00:00 | |
| DM0DOS-11 | 2026-09-01 01:23:56 | 49.63246 | 9.01066 | 100° | 62km/h | 5861m | -6.8m/s | -14.9°C | 5.2% | 494.4hPa | 2.6V | 02:23:29 | 02:55:35 | 00:00:00 | |
| BIOWL1-15 | 2026-09-01 01:23:53 | 49.63249 | 9.01042 | 100° | 62km/h | 5868m | -7.1m/s | -15°C | 4.3% | 493.9hPa | 2.6V | 02:23:58 | 02:55:34 | 00:00:00 | |
| DL9PN | 2026-09-01 01:23:48 | 49.63269 | 9.00824 | 96° | 62km/h | 5929m | -5.6m/s | -15.4°C | 5.1% | 489.8hPa | 2.5V | 00:00:00 | 00:00:00 | 00:00:00 | |
| DM0DOS-11 | 2026-09-01 01:23:46 | 49.63269 | 9.00824 | 96° | 64km/h | 5929m | -5.6m/s | -15.4°C | 5.5% | 489.8hPa | 2.5V | 02:23:39 | 02:55:25 | 00:00:00 | |
| BIOWL1-15 | 2026-09-01 01:23:42 | 49.63273 | 9.00775 | 97° | 64km/h | 5941m | -6.9m/s | -15.5°C | 4.6% | 489hPa | 2.6V | 02:23:58 | 02:55:23 | 00:00:00 | |
| DK5PH-5 | 2026-09-01 01:23:42 | 49.63273 | 9.00775 | 97° | 68km/h | 5941m | -6.8m/s | -15.4°C | 5.4% | 489.0hPa | 2.6V | 00:00:00 | 02:55:23 | 00:00:00 | |
| DL0LBS | 2026-09-01 01:23:40 | 49.63275 | 9.00750 | 98° | 64km/h | 5948m | -6.0m/s | -15.5°C | 5.1% | 488.7hPa | 2.6V | 02:23:00 | 00:00:00 | 00:00:00 | |
| DF1GD-15 | 2026-09-01 01:23:39 | 49.63277 | 9.00725 | 98° | 64km/h | 5954m | -6.0m/s | -15.6°C | 5.1% | 488.2hPa | 2.6V | 02:23:00 | 00:00:00 | 00:00:00 | |
| DM0DOS-11 | 2026-09-01 01:23:36 | 49.63288 | 9.00571 | 96° | 66km/h | 5991m | -6.2m/s | -15.7°C | 5.4% | 485.9hPa | 2.6V | 02:23:49 | 02:55:15 | 00:00:00 | |
| BIOWL1-15 | 2026-09-01 01:23:36 | 49.63293 | 9.00520 | 97° | 68km/h | 6005m | -7.2m/s | -15.8°C | 4.6% | 485.1hPa | 2.5V | 02:23:58 | 02:55:13 | 00:00:00 | |
| DO3MHA-11 | 2026-09-01 01:23:35 | 49.63286 | 9.00597 | 97° | 68km/h | 5985m | -6.6m/s | -15.7°C | 5.4% | 486.2hPa | 2.5V | 00:00:00 | 02:55:16 | 00:00:00 | |
| DF3TZ-5 | 2026-09-01 01:23:31 | 49.63295 | 9.00494 | 97° | 66km/h | 6011m | -6.7m/s | -15.8°C | 5.0% | 484.5hPa | 2.5V | 00:00:00 | 00:00:00 | 00:00:00 | |
| DF2AP-13 | 2026-09-01 01:23:29 | 49.63299 | 9.00442 | 97° | 73km/h | 6024m | -6.4m/s | -15.9°C | 5.4% | 483.7hPa | 2.5V | 00:00:00 | 02:55:10 | 00:00:00 | |
| DM7RM-13 | 2026-09-01 01:23:27 | 49.63301 | 9.00416 | 98° | 68km/h | 6030m | -6.0m/s | -16.0°C | 5.0% | 483.4hPa | 2.5V | 02:23:00 | 00:00:00 | 00:00:00 | |
| DM0DOS-11 | 2026-09-01 01:23:26 | 49.63309 | 9.00311 | 96° | 68km/h | 6055m | -6m/s | -16.1°C | 5.5% | 481.7hPa | 2.5V | 02:23:59 | 02:55:05 | 00:00:00 | |
| DO3MHA-11 | 2026-09-01 01:23:25 | 49.63306 | 9.00337 | 97° | 69km/h | 6049m | -6.4m/s | -16.1°C | 5.5% | 482.0hPa | 2.6V | 00:00:00 | 02:55:06 | 00:00:00 | |
| DL1NUX | 2026-09-01 01:23:24 | 49.63311 | 9.00284 | 96° | 69km/h | 6061m | -6.1m/s | -16.2°C | 5.5% | 481.3hPa | 2.6V | 02:24:00 | 02:55:04 | 00:00:00 | |
| BIOWL1-15 | 2026-09-01 01:23:21 | 49.63320 | 9.00177 | 100° | 69km/h | 6087m | -6.3m/s | -16.4°C | 4.4% | 479.6hPa | 2.6V | 02:24:49 | 02:55:00 | 00:00:00 | |
| DB0UT-7 | 2026-09-01 01:23:21 | 49.63315 | 9.00231 | 98° | 75km/h | 6074m | -6.6m/s | -16.3°C | 5.5% | 480.5hPa | 2.6V | 00:00:00 | 00:00:00 | 00:00:00 | |
| DL0LBS | 2026-09-01 01:23:20 | 49.63315 | 9.00231 | 98° | 69km/h | 6074m | -6.7m/s | -16.3°C | 5.1% | 480.5hPa | 2.6V | 02:24:00 | 00:00:00 | 00:00:00 | |
| SO1NDE-10 | 2026-09-01 01:23:18 | 49.63323 | 9.00150 | 100° | 77km/h | 6093m | -6.2m/s | -16.4°C | 5.4% | 479.1hPa | 2.6V | 02:24:00 | 02:54:59 | 00:00:00 | |
| NBG1-10 | 2026-09-01 01:23:17 | 49.63326 | 9.00123 | 101° | 78km/h | 6099m | -6.3m/s | -16.5°C | 5.2% | 478.8hPa | 2.6V | 00:00:00 | 02:54:58 | 00:00:00 | |
| DO3MHA-11 | 2026-09-01 01:23:15 | 49.63333 | 9.00068 | 102° | 73km/h | 6112m | -6.7m/s | -16.5°C | 5.0% | 477.9hPa | 2.6V | 02:24:00 | 02:54:56 | 00:00:00 | |
| DL1NUX | 2026-09-01 01:23:14 | 49.63340 | 9.00013 | 100° | 73km/h | 6126m | -7.2m/s | -16.7°C | 4.6% | 477.1hPa | 2.5V | 02:24:10 | 02:54:54 | 00:00:00 | |
| BIOWL1-15 | 2026-09-01 01:23:08 | 49.63365 | 8.99784 | 100° | 77km/h | 6189m | -8.8m/s | -16.8°C | 1.9% | 473.2hPa | 2.5V | 02:24:49 | 02:54:46 | 00:00:00 | |
| DM7RM-13 | 2026-09-01 01:23:07 | 49.63356 | 8.99871 | 100° | 75km/h | 6162m | -7.3m/s | -16.8°C | 3.3% | 474.9hPa | 2.6V | 02:24:00 | 00:00:00 | 00:00:00 | |
| DO3MHA-11 | 2026-09-01 01:23:05 | 49.63365 | 8.99784 | 101° | 78km/h | 6189m | -8.7m/s | -16.7°C | 3.6% | 473.2hPa | 2.6V | 00:00:00 | 02:54:46 | 00:00:00 | |
| DL1NUX | 2026-09-01 01:23:04 | 49.63372 | 8.99725 | 100° | 77km/h | 6202m | -6.4m/s | -16.7°C | 3.8% | 472.2hPa | 2.6V | 02:24:20 | 02:54:44 | 00:00:00 | |
| BIOWL1-15 | 2026-09-01 01:22:58 | 49.63390 | 8.99574 | 100° | 80km/h | 6233m | -6m/s | -16.5°C | 10.4% | 470.2hPa | 2.6V | 02:24:49 | 02:54:39 | 00:00:00 | |
| DM0DOS-11 | 2026-09-01 01:22:56 | 49.63404 | 8.99450 | 99° | 82km/h | 6259m | -6.4m/s | -16.5°C | 26.8% | 468.7hPa | 2.6V | 02:24:29 | 02:54:35 | 00:00:00 | |
| DO3MHA-11 | 2026-09-01 01:22:55 | 49.63401 | 8.99482 | 100° | 82km/h | 6253m | -6.6m/s | -16.4°C | 25.2% | 469.0hPa | 2.5V | 00:00:00 | 02:54:36 | 00:00:00 | |
| DL1NUX | 2026-09-01 01:22:54 | 49.63408 | 8.99419 | 99° | 82km/h | 6265m | -6.6m/s | -16.5°C | 29.4% | 468.2hPa | 2.5V | 02:24:30 | 02:54:34 | 00:00:00 | |
| BIOWL1-15 | 2026-09-01 01:22:48 | 49.63425 | 8.99262 | 100° | 82km/h | 6298m | -7.9m/s | -16.8°C | 38.3% | 466.3hPa | 2.5V | 02:24:49 | 02:54:29 | 00:00:00 | |
| SO1NDE-10 | 2026-09-01 01:22:48 | 49.63425 | 8.99262 | 100° | 84km/h | 6298m | -7.8m/s | -16.7°C | 35.3% | 466.2hPa | 2.5V | 00:00:00 | 02:54:29 | 00:00:00 | |
| DM7RM-13 | 2026-09-01 01:22:47 | 49.63425 | 8.99262 | 101° | 82km/h | 6298m | -7.9m/s | -16.8°C | 33.8% | 466.3hPa | 2.5V | 02:24:00 | 00:00:00 | 00:00:00 | |
| DO3MHA-11 | 2026-09-01 01:22:45 | 49.63435 | 8.99167 | 100° | 82km/h | 6319m | -8.3m/s | -16.9°C | 37.8% | 464.8hPa | 2.5V | 02:24:00 | 02:54:26 | 00:00:00 | |
| DL1NUX | 2026-09-01 01:22:44 | 49.63443 | 8.99104 | 99° | 82km/h | 6336m | -10.5m/s | -17.1°C | 38.5% | 463.7hPa | 2.5V | 02:24:40 | 02:54:24 | 00:00:00 | |
| NBG1-10 | 2026-09-01 01:22:44 | 49.63439 | 8.99136 | 100° | 84km/h | 6327m | -9.1m/s | -17.0°C | 38.1% | 464.3hPa | 2.5V | 02:24:00 | 02:54:25 | 00:00:00 | |
| DK5PH-5 | 2026-09-01 01:22:42 | 49.63446 | 8.99073 | 101° | 84km/h | 6347m | -10.8m/s | -17.2°C | 38.7% | 463.2hPa | 2.6V | 00:00:00 | 02:54:23 | 00:00:00 | |
| DM0DOS-11 | 2026-09-01 01:22:41 | 49.63465 | 8.98879 | 97° | 84km/h | 6402m | -6.4m/s | -17.8°C | 42.5% | 459.8hPa | 2.6V | 02:24:47 | 02:54:17 | 00:00:00 | |
| BIOWL1-15 | 2026-09-01 01:22:37 | 49.63468 | 8.98847 | 98° | 84km/h | 6409m | -8.1m/s | -17.8°C | 45.9% | 459.5hPa | 2.6V | 02:24:49 | 02:54:16 | 00:00:00 | |
| DO3MHA-11 | 2026-09-01 01:22:35 | 49.63468 | 8.98847 | 98° | 84km/h | 6409m | -8.1m/s | -17.8°C | 42.6% | 459.4hPa | 2.5V | 00:00:00 | 02:54:16 | 00:00:00 | |
| DL1NUX | 2026-09-01 01:22:34 | 49.63474 | 8.98783 | 98° | 84km/h | 6425m | -7.9m/s | -18°C | 43.2% | 458.5hPa | 2.5V | 02:24:50 | 02:54:14 | 00:00:00 | |
| SFWM-10 | 2026-09-01 01:22:33 | 49.63471 | 8.98815 | 99° | 82km/h | 6418m | -8.7m/s | -17.9°C | 40.9% | 459.0hPa | 2.5V | 02:24:00 | 00:00:00 | 00:00:00 | |
| DM0DOS-11 | 2026-09-01 01:22:31 | 49.63497 | 8.98557 | 98° | 86km/h | 6475m | -6.8m/s | -18.5°C | 42.3% | 455.4hPa | 2.5V | 02:24:57 | 02:54:07 | 00:00:00 | |
| BIOWL1-15 | 2026-09-01 01:22:25 | 49.63509 | 8.98425 | 97° | 84km/h | 6503m | -7.1m/s | -18.7°C | 46% | 453.7hPa | 2.5V | 02:25:40 | 02:54:03 | 00:00:00 | |
| DL1NUX | 2026-09-01 01:22:24 | 49.63506 | 8.98458 | 97° | 86km/h | 6496m | -6.8m/s | -18.7°C | 43.2% | 454.1hPa | 2.6V | 02:25:00 | 02:54:04 | 00:00:00 | |
| DL1ZP-14 | 2026-09-01 01:22:23 | 49.63506 | 8.98458 | 97° | 84km/h | 6496m | -6.8m/s | -18.7°C | 41.3% | 454.1hPa | 2.6V | 00:00:00 | 00:00:00 | 00:00:00 | |
| DM0DOS-11 | 2026-09-01 01:22:21 | 49.63524 | 8.98232 | 95° | 82km/h | 6545m | -7.5m/s | -19.1°C | 46.5% | 451.1hPa | 2.5V | 02:25:07 | 02:53:57 | 00:00:00 | |
| DB0UT-7 | 2026-09-01 01:22:21 | 49.63512 | 8.98393 | 98° | 84km/h | 6510m | -7.0m/s | -18.7°C | 43.8% | 453.2hPa | 2.5V | 02:25:00 | 00:00:00 | 00:00:00 | |
| DB0UT-9 | 2026-09-01 01:22:19 | 49.63514 | 8.98360 | 99° | 84km/h | 6517m | -6.9m/s | -18.9°C | 42.4% | 452.8hPa | 2.6V | 02:25:00 | 00:00:00 | 00:00:00 | |
| SO1NDE-10 | 2026-09-01 01:22:18 | 49.63519 | 8.98296 | 97° | 84km/h | 6531m | -7.2m/s | -18.9°C | 46.0% | 452.0hPa | 2.6V | 00:00:00 | 02:53:59 | 00:00:00 | |
| DF1GD-15 | 2026-09-01 01:22:17 | 49.63520 | 8.98296 | 98° | 84km/h | 6531m | -7.2m/s | -19.0°C | 44.1% | 452.0hPa | 2.6V | 02:25:00 | 00:00:00 | 00:00:00 | |
| DO3MHA-11 | 2026-09-01 01:22:15 | 49.63526 | 8.98200 | 97° | 84km/h | 6553m | -7.2m/s | -19.2°C | 47.0% | 450.6hPa | 2.6V | 02:25:00 | 02:53:56 | 00:00:00 | |
| DL1NUX | 2026-09-01 01:22:14 | 49.63531 | 8.98136 | 96° | 82km/h | 6566m | -7.1m/s | -19.3°C | 47.5% | 449.8hPa | 2.6V | 02:25:10 | 02:53:54 | 00:00:00 | |
| DK5PH-5 | 2026-09-01 01:22:12 | 49.63533 | 8.98104 | 97° | 84km/h | 6573m | -6.1m/s | -19.3°C | 47.9% | 449.4hPa | 2.5V | 00:00:00 | 02:53:53 | 00:00:00 | |
| DM0DOS-11 | 2026-09-01 01:22:11 | 49.63549 | 8.97906 | 96° | 84km/h | 6615m | -7.4m/s | -19.7°C | 47.2% | 446.8hPa | 2.5V | 02:25:17 | 02:53:47 | 00:00:00 | |
| DB0ND-19 | 2026-09-01 01:22:09 | 49.63541 | 8.98006 | 97° | 84km/h | 6594m | -7.4m/s | -19.6°C | 44.6% | 448.1hPa | 2.6V | 00:00:00 | 00:00:00 | 00:00:00 | |
| DO3MHA-11 | 2026-09-01 01:22:05 | 49.63551 | 8.97873 | 98° | 84km/h | 6623m | -7.3m/s | -19.7°C | 47.3% | 446.4hPa | 2.6V | 00:00:00 | 02:53:46 | 00:00:00 | |
| DL1NUX | 2026-09-01 01:22:04 | 49.63557 | 8.97806 | 96° | 84km/h | 6640m | -10.6m/s | -19.9°C | 52.5% | 445.5hPa | 2.6V | 02:25:20 | 02:53:44 | 00:00:00 | |
| BEGRI65-1 | 2026-09-01 01:22:02 | 49.63557 | 8.97806 | 98° | 84km/h | 6640m | -10.6m/s | -20.0°C | 50.2% | 445.5hPa | 2.5V | 00:00:00 | 00:00:00 | 00:00:00 | |
| DM0DOS-11 | 2026-09-01 01:22:01 | 49.63581 | 8.97547 | 98° | 82km/h | 6703m | -9.2m/s | -20.5°C | 71.9% | 441.6hPa | 2.5V | 02:25:28 | 02:53:36 | 00:00:00 | |
| BIOWL1-15 | 2026-09-01 01:21:59 | 49.63588 | 8.97483 | 99° | 84km/h | 6720m | -8.5m/s | -20.5°C | 74.1% | 440.7hPa | 2.6V | 02:25:40 | 02:53:34 | 00:00:00 | |
| DF2AP-13 | 2026-09-01 01:21:58 | 49.63572 | 8.97644 | 99° | 84km/h | 6680m | -6.6m/s | -20.3°C | 62.1% | 442.9hPa | 2.6V | 00:00:00 | 02:53:39 | 00:00:00 | |
| DF1GD-15 | 2026-09-01 01:21:56 | 49.63575 | 8.97612 | 100° | 84km/h | 6688m | -8.2m/s | -20.4°C | 61.9% | 442.5hPa | 2.6V | 02:25:00 | 00:00:00 | 00:00:00 | |
| DO3MHA-11 | 2026-09-01 01:21:55 | 49.63581 | 8.97547 | 99° | 84km/h | 6703m | -9.1m/s | -20.5°C | 71.9% | 441.6hPa | 2.6V | 00:00:00 | 02:53:36 | 00:00:00 | |
| DL1NUX | 2026-09-01 01:21:54 | 49.63588 | 8.97483 | 99° | 84km/h | 6720m | -8.5m/s | -20.5°C | 74.8% | 440.7hPa | 2.6V | 02:25:30 | 02:53:34 | 00:00:00 | |
| DL1ZP-14 | 2026-09-01 01:21:52 | 49.63591 | 8.97451 | 100° | 82km/h | 6728m | -8.0m/s | -20.6°C | 71.8% | 440.2hPa | 2.6V | 00:00:00 | 00:00:00 | 00:00:00 | |
| DB0NH | 2026-09-01 01:21:51 | 49.63595 | 8.97419 | 100° | 86km/h | 6737m | -8.7m/s | -20.6°C | 74.8% | 439.7hPa | 2.5V | 00:00:00 | 02:53:32 | 00:00:00 | |
| DM0DOS-11 | 2026-09-01 01:21:50 | 49.63614 | 8.97260 | 99° | 84km/h | 6780m | -8.4m/s | -21°C | 77% | 437.2hPa | 2.5V | 02:25:37 | 02:53:27 | 00:00:00 | |
| BIOWL1-15 | 2026-09-01 01:21:48 | 49.63624 | 8.97163 | 99° | 84km/h | 6804m | -7.6m/s | -21.2°C | 76.8% | 435.7hPa | 2.6V | 02:25:40 | 02:53:24 | 00:00:00 | |
| DO3MHA-11 | 2026-09-01 01:21:45 | 49.63617 | 8.97227 | 100° | 84km/h | 6788m | -7.1m/s | -21.0°C | 77.8% | 436.6hPa | 2.5V | 02:25:00 | 02:53:26 | 00:00:00 | |
| DL1NUX | 2026-09-01 01:21:44 | 49.63624 | 8.97163 | 99° | 84km/h | 6804m | -7.6m/s | -21.2°C | 77.9% | 435.7hPa | 2.6V | 02:25:40 | 02:53:24 | 00:00:00 | |
| DL9PN | 2026-09-01 01:21:44 | 49.63624 | 8.97163 | 99° | 84km/h | 6804m | -7.6m/s | -21.2°C | 74.7% | 435.7hPa | 2.5V | 00:00:00 | 00:00:00 | 00:00:00 | |
| DK5PH-5 | 2026-09-01 01:21:42 | 49.63627 | 8.97130 | 99° | 86km/h | 6811m | -7.6m/s | -21.2°C | 77.6% | 435.2hPa | 2.5V | 02:25:00 | 02:53:23 | 00:00:00 | |
| DM0DOS-11 | 2026-09-01 01:21:39 | 49.63646 | 8.96935 | 97° | 86km/h | 6855m | -6.8m/s | -21.6°C | 79.5% | 432.5hPa | 2.5V | 02:25:47 | 02:53:17 | 00:00:00 | |
| BIOWL1-15 | 2026-09-01 01:21:34 | 49.63651 | 8.96867 | 97° | 88km/h | 6869m | -7.3m/s | -21.6°C | 77.2% | 431.7hPa | 2.5V | 02:26:31 | 02:53:15 | 00:00:00 | |
| DM0DOS-11 | 2026-09-01 01:21:29 | 49.63672 | 8.96596 | 97° | 86km/h | 6927m | -7.1m/s | -21.9°C | 72.8% | 428.3hPa | 2.6V | 02:25:57 | 02:53:07 | 00:00:00 | |
| DF2AP-13 | 2026-09-01 01:21:28 | 49.63667 | 8.96663 | 97° | 88km/h | 6913m | -7.0m/s | -21.8°C | 75.2% | 429.2hPa | 2.5V | 00:00:00 | 02:53:09 | 00:00:00 | |
| DF3TZ-5 | 2026-09-01 01:21:27 | 49.63675 | 8.96563 | 97° | 86km/h | 6934m | -7.1m/s | -21.9°C | 68.7% | 428.0hPa | 2.5V | 00:00:00 | 00:00:00 | 00:00:00 | |
| DO3MHA-11 | 2026-09-01 01:21:25 | 49.63675 | 8.96562 | 98° | 86km/h | 6934m | -7.0m/s | -21.9°C | 71.8% | 427.9hPa | 2.5V | 00:00:00 | 02:53:06 | 00:00:00 | |
| DL1NUX | 2026-09-01 01:21:24 | 49.63681 | 8.96495 | 96° | 86km/h | 6949m | -8.6m/s | -22°C | 70.9% | 427hPa | 2.5V | 02:26:00 | 02:53:04 | 00:00:00 | |
| BIOWL1-15 | 2026-09-01 01:21:24 | 49.63678 | 8.96529 | 97° | 88km/h | 6941m | -8.2m/s | -22°C | 71.8% | 427.6hPa | 2.5V | 02:26:31 | 02:53:05 | 00:00:00 | |
| DL1ZP-14 | 2026-09-01 01:21:21 | 49.63688 | 8.96395 | 95° | 86km/h | 6973m | -7.1m/s | -22.2°C | 69.1% | 425.6hPa | 2.5V | 00:00:00 | 00:00:00 | 00:00:00 | |
| DB0NH | 2026-09-01 01:21:20 | 49.63688 | 8.96395 | 96° | 88km/h | 6973m | -7.0m/s | -22.2°C | 72.2% | 425.6hPa | 2.5V | 02:26:00 | 02:53:01 | 00:00:00 | |
| DM0DOS-11 | 2026-09-01 01:21:19 | 49.63697 | 8.96261 | 95° | 88km/h | 7002m | -9.4m/s | -22.5°C | 72.5% | 424hPa | 2.6V | 02:26:07 | 02:52:57 | 00:00:00 | |
| DF7PN | 2026-09-01 01:21:19 | 49.63692 | 8.96328 | 95° | 86km/h | 6986m | -6.7m/s | -22.3°C | 69.3% | 424.9hPa | 2.6V | 00:00:00 | 00:00:00 | 00:00:00 | |
| SO1NDE-10 | 2026-09-01 01:21:18 | 49.63692 | 8.96328 | 96° | 88km/h | 6986m | -6.6m/s | -22.3°C | 72.5% | 424.8hPa | 2.6V | 00:00:00 | 02:52:59 | 00:00:00 | |
| DL0LBS | 2026-09-01 01:21:17 | 49.63692 | 8.96328 | 96° | 86km/h | 6986m | -6.7m/s | -22.3°C | 69.3% | 424.9hPa | 2.6V | 02:26:00 | 00:00:00 | 00:00:00 | |
| DO3MHA-11 | 2026-09-01 01:21:15 | 49.63699 | 8.96227 | 96° | 88km/h | 7010m | -6.9m/s | -22.5°C | 73.0% | 423.3hPa | 2.6V | 02:26:00 | 02:52:56 | 00:00:00 | |
| DL1NUX | 2026-09-01 01:21:14 | 49.63704 | 8.96160 | 96° | 86km/h | 7026m | -8m/s | -22.7°C | 73.5% | 422.5hPa | 2.5V | 02:26:10 | 02:52:54 | 00:00:00 | |
| DK5PH-5 | 2026-09-01 01:21:12 | 49.63706 | 8.96126 | 97° | 89km/h | 7034m | -8.2m/s | -22.8°C | 74.1% | 422.0hPa | 2.6V | 00:00:00 | 02:52:53 | 00:00:00 | |
| DM0DOS-11 | 2026-09-01 01:21:09 | 49.63724 | 8.95923 | 97° | 88km/h | 7082m | -7.9m/s | -23.3°C | 76.5% | 419.2hPa | 2.6V | 02:26:17 | 02:52:47 | 00:00:00 | |
| BIOWL1-15 | 2026-09-01 01:21:08 | 49.63718 | 8.95991 | 98° | 88km/h | 7067m | -7.6m/s | -23.1°C | 76% | 420.2hPa | 2.5V | 02:26:31 | 02:52:49 | 00:00:00 | |
| DB0ND-19 | 2026-09-01 01:21:07 | 49.63721 | 8.95957 | 97° | 86km/h | 7074m | -8.2m/s | -23.2°C | 73.0% | 419.7hPa | 2.5V | 00:00:00 | 00:00:00 | 00:00:00 | |
| SFWM-10 | 2026-09-01 01:21:06 | 49.63721 | 8.95957 | 99° | 88km/h | 7075m | -8.2m/s | -23.2°C | 73.0% | 419.7hPa | 2.5V | 02:26:00 | 00:00:00 | 00:00:00 | |
| DO3MHA-11 | 2026-09-01 01:21:05 | 49.63727 | 8.95889 | 98° | 89km/h | 7091m | -9.7m/s | -23.3°C | 76.7% | 418.9hPa | 2.5V | 00:00:00 | 02:52:46 | 00:00:00 | |
| DL1NUX | 2026-09-01 01:21:04 | 49.63733 | 8.95820 | 98° | 89km/h | 7109m | -8.4m/s | -23.5°C | 77.4% | 417.8hPa | 2.5V | 02:26:20 | 02:52:44 | 00:00:00 | |
| DM7RM-13 | 2026-09-01 01:21:03 | 49.63730 | 8.95854 | 98° | 89km/h | 7100m | -9.0m/s | -23.4°C | 73.9% | 418.3hPa | 2.5V | 02:26:00 | 00:00:00 | 00:00:00 | |
| DM0DOS-11 | 2026-09-01 01:20:59 | 49.63752 | 8.95578 | 96° | 89km/h | 7168m | -10.6m/s | -24°C | 78.1% | 414.3hPa | 2.5V | 02:26:27 | 02:52:37 | 00:00:00 | |
| BIOWL1-15 | 2026-09-01 01:20:57 | 49.63755 | 8.95543 | 97° | 89km/h | 7177m | -8.6m/s | -24.1°C | 78.4% | 413.7hPa | 2.5V | 02:26:31 | 02:52:36 | 00:00:00 | |
| DF3TZ-5 | 2026-09-01 01:20:56 | 49.63755 | 8.95543 | 96° | 88km/h | 7177m | -8.6m/s | -24.1°C | 74.7% | 413.7hPa | 2.6V | 00:00:00 | 00:00:00 | 00:00:00 | |
| DO3MHA-11 | 2026-09-01 01:20:55 | 49.63755 | 8.95543 | 97° | 89km/h | 7177m | -8.5m/s | -24.1°C | 78.2% | 413.7hPa | 2.6V | 00:00:00 | 02:52:36 | 00:00:00 | |
| DL1NUX | 2026-09-01 01:20:54 | 49.63760 | 8.95473 | 96° | 89km/h | 7194m | -8.1m/s | -24.3°C | 78.7% | 412.7hPa | 2.6V | 02:26:30 | 02:52:34 | 00:00:00 | |
| DL1ZP-14 | 2026-09-01 01:20:50 | 49.63770 | 8.95335 | 95° | 88km/h | 7229m | -9.7m/s | -24.6°C | 75.1% | 410.8hPa | 2.5V | 00:00:00 | 00:00:00 | 00:00:00 | |
| DM0DOS-11 | 2026-09-01 01:20:49 | 49.63776 | 8.95230 | 95° | 91km/h | 7254m | -8.5m/s | -24.8°C | 78.8% | 409.5hPa | 2.6V | 02:26:37 | 02:52:27 | 00:00:00 | |
| BIOWL1-15 | 2026-09-01 01:20:45 | 49.63779 | 8.95195 | 96° | 88km/h | 7262m | -8.7m/s | -24.9°C | 79.4% | 409hPa | 2.5V | 02:27:22 | 02:52:26 | 00:00:00 | |
| DO3MHA-11 | 2026-09-01 01:20:45 | 49.63779 | 8.95195 | 96° | 89km/h | 7262m | -8.7m/s | -24.8°C | 79.3% | 408.9hPa | 2.5V | 02:26:00 | 02:52:26 | 00:00:00 | |
| DL1NUX | 2026-09-01 01:20:44 | 49.63783 | 8.95125 | 96° | 91km/h | 7281m | -10.7m/s | -25°C | 83.9% | 408hPa | 2.5V | 02:26:40 | 02:52:24 | 00:00:00 | |
| DK5PH-5 | 2026-09-01 01:20:42 | 49.63786 | 8.95090 | 96° | 88km/h | 7291m | -10.3m/s | -25.1°C | 84.8% | 407.4hPa | 2.5V | 00:00:00 | 02:52:23 | 00:00:00 | |
| DL9PN | 2026-09-01 01:20:41 | 49.63788 | 8.95055 | 97° | 89km/h | 7300m | -9.1m/s | -25.2°C | 80.4% | 406.9hPa | 2.5V | 00:00:00 | 00:00:00 | 00:00:00 | |
| DM0DOS-11 | 2026-09-01 01:20:39 | 49.63804 | 8.94884 | 99° | 88km/h | 7348m | -9.9m/s | -25.5°C | 85.1% | 404.3hPa | 2.5V | 02:26:47 | 02:52:17 | 00:00:00 | |
| BIOWL1-15 | 2026-09-01 01:20:35 | 49.63808 | 8.94850 | 99° | 88km/h | 7357m | -10m/s | -25.5°C | 83.6% | 403.8hPa | 2.5V | 02:27:22 | 02:52:16 | 00:00:00 | |
| DO3MHA-11 | 2026-09-01 01:20:35 | 49.63808 | 8.94850 | 100° | 88km/h | 7357m | -10.0m/s | -25.5°C | 84.9% | 403.7hPa | 2.6V | 00:00:00 | 02:52:16 | 00:00:00 | |
| DL1NUX | 2026-09-01 01:20:34 | 49.63814 | 8.94782 | 97° | 88km/h | 7376m | -10.1m/s | -25.6°C | 82.6% | 402.8hPa | 2.6V | 02:26:50 | 02:52:14 | 00:00:00 | |
| NBG1-10 | 2026-09-01 01:20:32 | 49.63818 | 8.94748 | 100° | 88km/h | 7386m | -10.3m/s | -25.6°C | 81.2% | 402.2hPa | 2.6V | 00:00:00 | 02:52:13 | 00:00:00 | |
| DM0DOS-11 | 2026-09-01 01:20:29 | 49.63839 | 8.94514 | 96° | 88km/h | 7453m | -9.4m/s | -26.1°C | 83.1% | 398.5hPa | 2.6V | 02:26:58 | 02:52:06 | 00:00:00 | |
| BIOWL1-15 | 2026-09-01 01:20:24 | 49.63842 | 8.94481 | 98° | 84km/h | 7462m | -9.9m/s | -26.2°C | 82.9% | 398hPa | 2.5V | 02:27:22 | 02:52:05 | 00:00:00 | |
| DL1NUX | 2026-09-01 01:20:24 | 49.63844 | 8.94448 | 96° | 86km/h | 7472m | -10.9m/s | -26.3°C | 84.5% | 397.5hPa | 2.5V | 02:27:00 | 02:52:04 | 00:00:00 | |
| DB0NH | 2026-09-01 01:20:22 | 49.63847 | 8.94414 | 99° | 88km/h | 7482m | -9.7m/s | -26.3°C | 85.0% | 396.9hPa | 2.5V | 00:00:00 | 02:52:03 | 00:00:00 | |
| DB0UT-7 | 2026-09-01 01:20:21 | 49.63850 | 8.94381 | 97° | 88km/h | 7492m | -10.6m/s | -26.4°C | 85.4% | 396.4hPa | 2.5V | 00:00:00 | 00:00:00 | 00:00:00 | |
| DM0DOS-11 | 2026-09-01 01:20:19 | 49.63866 | 8.94178 | 97° | 88km/h | 7551m | -10.5m/s | -26.8°C | 83.1% | 393.2hPa | 2.5V | 02:27:08 | 02:51:56 | 00:00:00 | |
| DL1ZP-14 | 2026-09-01 01:20:19 | 49.63858 | 8.94281 | 96° | 88km/h | 7521m | -9.7m/s | -26.6°C | 81.7% | 394.9hPa | 2.6V | 00:00:00 | 00:00:00 | 00:00:00 | |
| SO1NDE-10 | 2026-09-01 01:20:18 | 49.63858 | 8.94281 | 97° | 88km/h | 7521m | -9.7m/s | -26.6°C | 86.0% | 394.8hPa | 2.6V | 02:27:00 | 02:51:59 | 00:00:00 | |
| SFWM-10 | 2026-09-01 01:20:17 | 49.63858 | 8.94281 | 97° | 89km/h | 7521m | -9.7m/s | -26.6°C | 81.7% | 394.9hPa | 2.5V | 00:00:00 | 00:00:00 | 00:00:00 | |
| DF7PN | 2026-09-01 01:20:16 | 49.63864 | 8.94212 | 95° | 88km/h | 7541m | -10.4m/s | -26.8°C | 80.2% | 393.9hPa | 2.5V | 00:00:00 | 00:00:00 | 00:00:00 | |
| DO3MHA-11 | 2026-09-01 01:20:15 | 49.63867 | 8.94178 | 98° | 89km/h | 7551m | -10.4m/s | -26.7°C | 83.1% | 393.2hPa | 2.5V | 02:27:00 | 02:51:56 | 00:00:00 | |
| DL1NUX | 2026-09-01 01:20:14 | 49.63872 | 8.94109 | 95° | 91km/h | 7571m | -10m/s | -26.8°C | 79.7% | 392.3hPa | 2.6V | 02:27:10 | 02:51:54 | 00:00:00 | |
| BIOWL1-15 | 2026-09-01 01:20:13 | 49.63876 | 8.94040 | 96° | 89km/h | 7591m | -10.1m/s | -26.9°C | 79.6% | 391.3hPa | 2.6V | 02:27:22 | 02:51:52 | 00:00:00 | |
| DK5PH-5 | 2026-09-01 01:20:12 | 49.63874 | 8.94074 | 96° | 88km/h | 7581m | -10.3m/s | -26.8°C | 78.8% | 391.7hPa | 2.6V | 02:27:00 | 02:51:53 | 00:00:00 | |
| DF1GD-15 | 2026-09-01 01:20:11 | 49.63874 | 8.94074 | 97° | 89km/h | 7581m | -10.4m/s | -26.8°C | 74.8% | 391.8hPa | 2.5V | 02:27:00 | 00:00:00 | 00:00:00 | |
| DL9PN | 2026-09-01 01:20:10 | 49.63881 | 8.93970 | 96° | 88km/h | 7610m | -9.0m/s | -27.0°C | 75.1% | 390.2hPa | 2.5V | 00:00:00 | 00:00:00 | 00:00:00 | |
| DM0DOS-11 | 2026-09-01 01:20:09 | 49.63890 | 8.93832 | 95° | 89km/h | 7644m | -8.5m/s | -27.1°C | 77.3% | 388.3hPa | 2.5V | 02:27:18 | 02:51:46 | 00:00:00 | |
| BIOWL1-15 | 2026-09-01 01:20:07 | 49.63894 | 8.93763 | 95° | 88km/h | 7662m | -9m/s | -27.3°C | 77.6% | 387.3hPa | 2.5V | 02:27:22 | 02:51:44 | 00:00:00 | |
| DB0ND-19 | 2026-09-01 01:20:05 | 49.63890 | 8.93832 | 95° | 89km/h | 7644m | -8.5m/s | -27.2°C | 73.3% | 388.3hPa | 2.5V | 00:00:00 | 00:00:00 | 00:00:00 | |
| DL1NUX | 2026-09-01 01:20:04 | 49.63894 | 8.93763 | 95° | 88km/h | 7662m | -9m/s | -27.3°C | 77.5% | 387.3hPa | 2.5V | 02:27:20 | 02:51:44 | 00:00:00 | |
| DO3MHA-11 | 2026-09-01 01:20:04 | 49.63892 | 8.93798 | 95° | 88km/h | 7653m | -9.3m/s | -27.2°C | 77.2% | 387.8hPa | 2.5V | 00:00:00 | 02:51:45 | 00:00:00 | |
| DM7RM-13 | 2026-09-01 01:20:00 | 49.63898 | 8.93695 | 96° | 88km/h | 7679m | -8.5m/s | -27.4°C | 73.8% | 386.4hPa | 2.5V | 02:27:00 | 00:00:00 | 00:00:00 | |
| NBG1-10 | 2026-09-01 01:19:59 | 49.63903 | 8.93627 | 96° | 86km/h | 7694m | -8.4m/s | -27.5°C | 78.5% | 385.5hPa | 2.5V | 00:00:00 | 02:51:40 | 00:00:00 | |
| DF2AP-13 | 2026-09-01 01:19:58 | 49.63905 | 8.93593 | 96° | 86km/h | 7702m | -8.0m/s | -27.6°C | 78.8% | 385.1hPa | 2.5V | 00:00:00 | 02:51:39 | 00:00:00 | |
| DB0UT-9 | 2026-09-01 01:19:55 | 49.63910 | 8.93525 | 96° | 88km/h | 7718m | -7.8m/s | -27.8°C | 74.4% | 384.2hPa | 2.5V | 00:00:00 | 00:00:00 | 00:00:00 | |
| DL1NUX | 2026-09-01 01:19:54 | 49.63916 | 8.93424 | 95° | 86km/h | 7741m | -8m/s | -28°C | 78.2% | 382.9hPa | 2.5V | 02:27:30 | 02:51:34 | 00:00:00 | |
| BIOWL1-15 | 2026-09-01 01:19:52 | 49.63918 | 8.93391 | 95° | 86km/h | 7750m | -8.4m/s | -28°C | 77.7% | 382.4hPa | 2.5V | 02:28:13 | 02:51:33 | 00:00:00 | |
| DB0NH | 2026-09-01 01:19:52 | 49.63918 | 8.93391 | 95° | 86km/h | 7750m | -8.3m/s | -28.0°C | 77.9% | 382.4hPa | 2.5V | 00:00:00 | 02:51:33 | 00:00:00 | |
| DB0UT-7 | 2026-09-01 01:19:51 | 49.63920 | 8.93357 | 96° | 86km/h | 7758m | -8.7m/s | -28.0°C | 77.9% | 382.0hPa | 2.5V | 00:00:00 | 02:51:32 | 00:00:00 | |
| SFWM-10 | 2026-09-01 01:19:50 | 49.63920 | 8.93357 | 96° | 86km/h | 7758m | -8.7m/s | -28.1°C | 73.8% | 382.0hPa | 2.5V | 00:00:00 | 00:00:00 | 00:00:00 | |
| DM0DOS-11 | 2026-09-01 01:19:49 | 49.63932 | 8.93159 | 95° | 84km/h | 7808m | -9.5m/s | -28.5°C | 76% | 379.5hPa | 2.5V | 02:27:38 | 02:51:26 | 00:00:00 | |
| DL1ZP-14 | 2026-09-01 01:19:48 | 49.63928 | 8.93225 | 95° | 84km/h | 7790m | -9.0m/s | -28.4°C | 72.8% | 380.3hPa | 2.6V | 00:00:00 | 00:00:00 | 00:00:00 | |
| DF7PN | 2026-09-01 01:19:46 | 49.63932 | 8.93159 | 95° | 82km/h | 7808m | -9.5m/s | -28.5°C | 71.8% | 379.5hPa | 2.6V | 00:00:00 | 00:00:00 | 00:00:00 | |
| DL1NUX | 2026-09-01 01:19:44 | 49.63936 | 8.93093 | 95° | 84km/h | 7827m | -8.2m/s | -28.6°C | 75.6% | 378.5hPa | 2.6V | 02:27:40 | 02:51:24 | 00:00:00 | |
| BIOWL1-15 | 2026-09-01 01:19:41 | 49.63945 | 8.92960 | 97° | 86km/h | 7860m | -9m/s | -28.8°C | 72.8% | 376.6hPa | 2.5V | 02:28:13 | 02:51:20 | 00:00:00 | |
| DM3KS-11 | 2026-09-01 01:19:40 | 49.63942 | 8.92993 | 95° | 84km/h | 7851m | -8.7m/s | -28.8°C | 68.3% | 377.1hPa | 2.5V | 00:00:00 | 00:00:00 | 00:00:00 | |
| DM0DOS-11 | 2026-09-01 01:19:39 | 49.63956 | 8.92791 | 96° | 88km/h | 7904m | -9.9m/s | -29.1°C | 71.3% | 374.2hPa | 2.5V | 02:27:49 | 02:51:15 | 00:00:00 | |
| DL1NUX | 2026-09-01 01:19:34 | 49.63958 | 8.92757 | 95° | 89km/h | 7914m | -8.9m/s | -29.2°C | 71.3% | 373.8hPa | 2.6V | 02:27:50 | 02:51:14 | 00:00:00 | |
| BIOWL1-15 | 2026-09-01 01:19:31 | 49.63963 | 8.92688 | 96° | 88km/h | 7932m | -10.7m/s | -29.3°C | 72.4% | 372.8hPa | 2.5V | 02:28:13 | 02:51:12 | 00:00:00 | |
| DF1GD-15 | 2026-09-01 01:19:30 | 49.63963 | 8.92688 | 97° | 88km/h | 7932m | -10.7m/s | -29.3°C | 67.1% | 372.8hPa | 2.5V | 02:28:00 | 00:00:00 | 00:00:00 | |
| DM0DOS-11 | 2026-09-01 01:19:29 | 49.63981 | 8.92443 | 96° | 91km/h | 7998m | -10m/s | -29.6°C | 65.9% | 369.4hPa | 2.5V | 02:27:59 | 02:51:05 | 00:00:00 | |
| DF2AP-13 | 2026-09-01 01:19:28 | 49.63971 | 8.92584 | 97° | 93km/h | 7959m | -9.7m/s | -29.4°C | 70.0% | 371.3hPa | 2.6V | 02:27:00 | 02:51:09 | 00:00:00 | |
| NBG1-10 | 2026-09-01 01:19:26 | 49.63976 | 8.92514 | 98° | 95km/h | 7978m | -9.8m/s | -29.5°C | 68.4% | 370.4hPa | 2.5V | 02:27:00 | 02:51:07 | 00:00:00 | |
| DL1NUX | 2026-09-01 01:19:24 | 49.63984 | 8.92408 | 96° | 89km/h | 8007m | -9.9m/s | -29.7°C | 65.6% | 368.9hPa | 2.6V | 02:28:00 | 02:51:04 | 00:00:00 | |
| BIOWL1-15 | 2026-09-01 01:19:21 | 49.63989 | 8.92337 | 96° | 89km/h | 8027m | -10.3m/s | -29.8°C | 68.3% | 367.9hPa | 2.5V | 02:28:13 | 02:51:02 | 00:00:00 | |
| DN1GJH-1 | 2026-09-01 01:19:20 | 49.63989 | 8.92337 | 97° | 89km/h | 8027m | -10.3m/s | 0°C | 0% | 367.9hPa | 2.5V | 02:28:00 | 00:00:00 | 00:00:00 | |
| DM0DOS-11 | 2026-09-01 01:19:19 | 49.64007 | 8.92087 | 95° | 91km/h | 8092m | -10.2m/s | -30.4°C | 71.9% | 364.5hPa | 2.5V | 02:28:09 | 02:50:55 | 00:00:00 | |
| BIOWL1-15 | 2026-09-01 01:19:12 | 49.64018 | 8.91942 | 97° | 95km/h | 8132m | -10.2m/s | -30.7°C | 75.2% | 362.6hPa | 2.5V | 02:28:13 | 02:50:51 | 00:00:00 | |
| DF1GD-15 | 2026-09-01 01:19:10 | 49.64015 | 8.91978 | 98° | 95km/h | 8122m | -10.1m/s | -30.6°C | 69.7% | 363.1hPa | 2.5V | 02:28:00 | 00:00:00 | 00:00:00 | |
| DM3KS-11 | 2026-09-01 01:19:09 | 49.64020 | 8.91905 | 96° | 93km/h | 8141m | -9.0m/s | -30.8°C | 71.1% | 362.1hPa | 2.5V | 00:00:00 | 00:00:00 | 00:00:00 | |
| DL9PN | 2026-09-01 01:19:08 | 49.64026 | 8.91831 | 96° | 95km/h | 8157m | -8.9m/s | -30.9°C | 71.1% | 361.2hPa | 2.5V | 00:00:00 | 00:00:00 | 00:00:00 | |
| DM0DOS-11 | 2026-09-01 01:19:07 | 49.64034 | 8.91721 | 96° | 93km/h | 8184m | -9.4m/s | -31.1°C | 74.9% | 359.9hPa | 2.5V | 02:28:19 | 02:50:45 | 00:00:00 | |
| DO3MHA-11 | 2026-09-01 01:19:05 | 49.64031 | 8.91758 | 96° | 99km/h | 8175m | -10.0m/s | -31.0°C | 75.7% | 360.4hPa | 2.6V | 00:00:00 | 02:50:46 | 00:00:00 | |
| DL1NUX | 2026-09-01 01:19:04 | 49.64040 | 8.91646 | 95° | 99km/h | 8204m | -10.4m/s | -31.2°C | 71.8% | 358.9hPa | 2.6V | 02:28:21 | 02:50:43 | 00:00:00 | |
| BIOWL1-15 | 2026-09-01 01:18:59 | 49.64052 | 8.91454 | 97° | 100km/h | 8259m | -10.4m/s | -31.5°C | 70.8% | 356.2hPa | 2.6V | 02:29:04 | 02:50:38 | 00:00:00 | |
| DM0DOS-11 | 2026-09-01 01:18:59 | 49.64061 | 8.91334 | 94° | 104km/h | 8290m | -11.2m/s | -31.8°C | 68.9% | 354.7hPa | 2.5V | 02:28:29 | 02:50:35 | 00:00:00 | |
| DF3TZ-5 | 2026-09-01 01:18:52 | 49.64070 | 8.91213 | 94° | 106km/h | 8320m | -11.7m/s | -31.9°C | 60.9% | 353.0hPa | 2.5V | 00:00:00 | 00:00:00 | 00:00:00 | |
| DL1NUX | 2026-09-01 01:18:51 | 49.64082 | 8.91006 | 95° | 104km/h | 8380m | -12.7m/s | -32.2°C | 59.7% | 350.2hPa | 2.5V | 02:28:37 | 02:50:27 | 00:00:00 | |
| BIOWL1-15 | 2026-09-01 01:18:48 | 49.64079 | 8.91047 | 95° | 104km/h | 8367m | -13.4m/s | -32.2°C | 64.1% | 350.9hPa | 2.6V | 02:29:04 | 02:50:28 | 00:00:00 | |
| DM0DOS-11 | 2026-09-01 01:18:47 | 49.64088 | 8.90924 | 96° | 106km/h | 8405m | -13m/s | -32.4°C | 56.9% | 349hPa | 2.5V | 02:28:39 | 02:50:25 | 00:00:00 | |
| DO3MHA-11 | 2026-09-01 01:18:45 | 49.64085 | 8.90965 | 97° | 110km/h | 8392m | -13.5m/s | -32.2°C | 58.4% | 349.6hPa | 2.6V | 00:00:00 | 02:50:26 | 00:00:00 | |
| DF7PN | 2026-09-01 01:18:43 | 49.64092 | 8.90882 | 96° | 108km/h | 8417m | -13.7m/s | -32.5°C | 51.8% | 348.4hPa | 2.6V | 00:00:00 | 00:00:00 | 00:00:00 | |
| DL1NUX | 2026-09-01 01:18:42 | 49.64110 | 8.90583 | 96° | 111km/h | 8509m | -13.3m/s | -33.1°C | 54.9% | 344.1hPa | 2.6V | 02:28:47 | 02:50:17 | 00:00:00 | |
| DM0DOS-11 | 2026-09-01 01:18:39 | 49.64116 | 8.90497 | 95° | 113km/h | 8536m | -12.6m/s | -33.4°C | 53.5% | 342.7hPa | 2.5V | 02:28:49 | 02:50:15 | 00:00:00 | |
| BIOWL1-15 | 2026-09-01 01:18:37 | 49.64107 | 8.90625 | 96° | 108km/h | 8496m | -12.9m/s | -33.1°C | 60.1% | 344.6hPa | 2.6V | 02:29:04 | 02:50:18 | 00:00:00 | |
| DM7RM-13 | 2026-09-01 01:18:36 | 49.64107 | 8.90625 | 97° | 108km/h | 8497m | -12.9m/s | -33.1°C | 52.4% | 344.6hPa | 2.6V | 02:29:00 | 00:00:00 | 00:00:00 | |
| DB0UT-7 | 2026-09-01 01:18:35 | 49.64112 | 8.90540 | 97° | 115km/h | 8523m | -13.7m/s | -33.2°C | 53.8% | 343.4hPa | 2.6V | 00:00:00 | 02:50:16 | 00:00:00 | |
| DL0LBS | 2026-09-01 01:18:33 | 49.64116 | 8.90497 | 97° | 113km/h | 8536m | -12.6m/s | -33.4°C | 49.6% | 342.7hPa | 2.6V | 02:29:00 | 00:00:00 | 00:00:00 | |
| BIOWL9-15 | 2026-09-01 01:18:32 | 49.64125 | 8.90366 | 95° | 113km/h | 8572m | -13.3m/s | -33.7°C | 49.2% | 340.9hPa | 2.6V | 00:00:00 | 00:00:00 | 00:00:00 | |
| DF1GD-15 | 2026-09-01 01:18:29 | 49.64127 | 8.90321 | 97° | 113km/h | 8585m | -12.4m/s | -33.8°C | 49.4% | 340.3hPa | 2.6V | 02:29:00 | 00:00:00 | 00:00:00 | |
| DF2AP-13 | 2026-09-01 01:18:28 | 49.64132 | 8.90236 | 95° | 115km/h | 8610m | -13.0m/s | -33.9°C | 52.5% | 338.9hPa | 2.6V | 00:00:00 | 02:50:09 | 00:00:00 | |
| DM0DOS-11 | 2026-09-01 01:18:27 | 49.64141 | 8.90060 | 94° | 111km/h | 8657m | -12m/s | -34.4°C | 53.5% | 336.6hPa | 2.6V | 02:28:59 | 02:50:05 | 00:00:00 | |
| BIOWL1-15 | 2026-09-01 01:18:27 | 49.64135 | 8.90192 | 94° | 115km/h | 8622m | -12.3m/s | -34.1°C | 56.5% | 338.3hPa | 2.5V | 02:29:04 | 02:50:08 | 00:00:00 | |
| BIOWL1-15 | 2026-09-01 01:18:20 | 49.64158 | 8.89704 | 95° | 115km/h | 8756m | -12.1m/s | -35.1°C | 56.3% | 331.8hPa | 2.5V | 02:29:55 | 02:49:57 | 00:00:00 | |
| NBG1-10 | 2026-09-01 01:18:20 | 49.64149 | 8.89880 | 94° | 115km/h | 8706m | -14.0m/s | -34.7°C | 51.0% | 334.3hPa | 2.6V | 00:00:00 | 02:50:01 | 00:00:00 | |
| DN1GJH-1 | 2026-09-01 01:18:19 | 49.64149 | 8.89880 | 94° | 115km/h | 8706m | -14.1m/s | 0°C | 0% | 334.3hPa | 2.6V | 02:29:00 | 00:00:00 | 00:00:00 | |
| DM0DOS-11 | 2026-09-01 01:18:16 | 49.64163 | 8.89614 | 93° | 119km/h | 8779m | -12.7m/s | -35.3°C | 53.7% | 330.7hPa | 2.6V | 02:29:09 | 02:49:55 | 00:00:00 | |
| DO3MHA-11 | 2026-09-01 01:18:15 | 49.64160 | 8.89659 | 95° | 117km/h | 8768m | -12.3m/s | -35.2°C | 53.7% | 331.2hPa | 2.5V | 00:00:00 | 02:49:56 | 00:00:00 | |
| DL1NUX | 2026-09-01 01:18:14 | 49.64170 | 8.89436 | 94° | 115km/h | 8832m | -13.7m/s | -35.7°C | 51.8% | 328.3hPa | 2.5V | 02:29:13 | 02:49:51 | 00:00:00 | |
| DL0LBS | 2026-09-01 01:18:13 | 49.64163 | 8.89614 | 94° | 119km/h | 8779m | -12.7m/s | -35.3°C | 49.4% | 330.7hPa | 2.6V | 02:29:00 | 00:00:00 | 00:00:00 | |
| DK5PH-5 | 2026-09-01 01:18:12 | 49.64166 | 8.89524 | 93° | 115km/h | 8805m | -14.4m/s | -35.5°C | 53.1% | 329.5hPa | 2.6V | 00:00:00 | 02:49:53 | 00:00:00 | |
| DF1GD-15 | 2026-09-01 01:18:09 | 49.64170 | 8.89436 | 95° | 115km/h | 8832m | -13.7m/s | -35.7°C | 47.6% | 328.3hPa | 2.6V | 02:29:00 | 00:00:00 | 00:00:00 | |
| DM3KS-11 | 2026-09-01 01:18:07 | 49.64176 | 8.89300 | 93° | 117km/h | 8872m | -12.9m/s | -36.1°C | 46.7% | 326.4hPa | 2.6V | 00:00:00 | 00:00:00 | 00:00:00 | |
| DM0DOS-11 | 2026-09-01 01:18:06 | 49.64182 | 8.89163 | 93° | 117km/h | 8908m | -13.4m/s | -36.4°C | 49.7% | 324.7hPa | 2.6V | 02:29:19 | 02:49:45 | 00:00:00 | |
| BIOWL1-15 | 2026-09-01 01:18:05 | 49.64180 | 8.89209 | 93° | 119km/h | 8896m | -12.9m/s | -36.3°C | 54% | 325.3hPa | 2.5V | 02:29:55 | 02:49:46 | 00:00:00 | |
| DB0UT-7 | 2026-09-01 01:18:05 | 49.64180 | 8.89208 | 94° | 115km/h | 8896m | -12.8m/s | -36.2°C | 50.3% | 325.2hPa | 2.5V | 00:00:00 | 00:00:00 | 00:00:00 | |
| DB0UT-9 | 2026-09-01 01:18:02 | 49.64184 | 8.89117 | 95° | 117km/h | 8921m | -13.4m/s | -36.4°C | 45.2% | 324.1hPa | 2.5V | 02:29:00 | 00:00:00 | 00:00:00 | |
| BIOWL9-15 | 2026-09-01 01:18:01 | 49.64191 | 8.88983 | 93° | 117km/h | 8957m | -13.1m/s | -36.7°C | 46.2% | 322.4hPa | 2.5V | 00:00:00 | 00:00:00 | 00:00:00 | |
| DM0DOS-11 | 2026-09-01 01:17:59 | 49.64206 | 8.88715 | 94° | 117km/h | 9025m | -9.9m/s | -37.3°C | 55.9% | 319.2hPa | 2.5V | 02:29:29 | 02:49:35 | 00:00:00 | |
| BIOWL1-15 | 2026-09-01 01:17:55 | 49.64203 | 8.88760 | 95° | 117km/h | 9016m | -10.1m/s | -37.2°C | 57.1% | 319.6hPa | 2.5V | 02:29:55 | 02:49:36 | 00:00:00 | |
| DL1NUX | 2026-09-01 01:17:54 | 49.64209 | 8.88671 | 95° | 111km/h | 9035m | -11.3m/s | -37.4°C | 56.5% | 318.8hPa | 2.6V | 02:29:30 | 02:49:34 | 00:00:00 | |
| DF3TZ-5 | 2026-09-01 01:17:49 | 49.64221 | 8.88493 | 96° | 117km/h | 9079m | -11.0m/s | -37.8°C | 53.0% | 316.8hPa | 2.6V | 00:00:00 | 00:00:00 | 00:00:00 | |
| DF1GD-15 | 2026-09-01 01:17:48 | 49.64220 | 8.88493 | 97° | 117km/h | 9079m | -11.0m/s | -37.8°C | 53.0% | 316.8hPa | 2.6V | 02:29:00 | 00:00:00 | 00:00:00 | |
| NBG1-10 | 2026-09-01 01:17:47 | 49.64228 | 8.88405 | 97° | 111km/h | 9101m | -13.2m/s | -37.9°C | 57.5% | 315.7hPa | 2.6V | 02:29:00 | 02:49:28 | 00:00:00 | |
| DM0DOS-11 | 2026-09-01 01:17:46 | 49.64240 | 8.88275 | 98° | 110km/h | 9138m | -12m/s | -38.3°C | 57.6% | 314.1hPa | 2.5V | 02:29:39 | 02:49:25 | 00:00:00 | |
| BIOWL1-15 | 2026-09-01 01:17:44 | 49.64239 | 8.88275 | 99° | 110km/h | 9138m | -12m/s | -38.3°C | 59.9% | 314.1hPa | 2.5V | 02:29:55 | 02:49:25 | 00:00:00 | |
| DL1ZP-14 | 2026-09-01 01:17:43 | 49.64244 | 8.88232 | 98° | 113km/h | 9150m | -12.1m/s | -38.4°C | 53.0% | 313.5hPa | 2.5V | 00:00:00 | 00:00:00 | 00:00:00 | |
| DF7PN | 2026-09-01 01:17:41 | 49.64252 | 8.88144 | 97° | 110km/h | 9174m | -13.2m/s | -38.6°C | 53.8% | 312.5hPa | 2.5V | 00:00:00 | 00:00:00 | 00:00:00 | |
| DM0DOS-11 | 2026-09-01 01:17:39 | 49.64281 | 8.87843 | 98° | 111km/h | 9252m | -10.5m/s | -39.3°C | 56.7% | 309hPa | 2.5V | 02:29:49 | 02:49:15 | 00:00:00 | |
| BIOWL1-15 | 2026-09-01 01:17:35 | 49.64285 | 8.87799 | 98° | 113km/h | 9263m | -11.3m/s | -39.4°C | 57.8% | 308.5hPa | 2.5V | 02:29:55 | 02:49:14 | 00:00:00 | |
| DO3MHA-11 | 2026-09-01 01:17:35 | 49.64277 | 8.87886 | 98° | 113km/h | 9242m | -10.1m/s | -39.2°C | 57.6% | 309.3hPa | 2.5V | 00:00:00 | 02:49:16 | 00:00:00 | |
| DM7RM-13 | 2026-09-01 01:17:33 | 49.64281 | 8.87842 | 99° | 111km/h | 9252m | -10.5m/s | -39.3°C | 51.7% | 309.0hPa | 2.5V | 02:29:00 | 00:00:00 | 00:00:00 | |
| DL0LBS | 2026-09-01 01:17:31 | 49.64289 | 8.87755 | 99° | 113km/h | 9274m | -11.0m/s | -39.5°C | 49.8% | 308.0hPa | 2.5V | 02:29:00 | 00:00:00 | 00:00:00 | |
| BIOWL9-15 | 2026-09-01 01:17:30 | 49.64302 | 8.87625 | 97° | 113km/h | 9306m | -10.3m/s | -39.6°C | 45.5% | 306.5hPa | 2.5V | 00:00:00 | 00:00:00 | 00:00:00 | |
| DF2AP-13 | 2026-09-01 01:17:28 | 49.64306 | 8.87581 | 98° | 111km/h | 9316m | -10.3m/s | -39.6°C | 48.9% | 305.9hPa | 2.5V | 00:00:00 | 02:49:09 | 00:00:00 | |
| DM0DOS-11 | 2026-09-01 01:17:26 | 49.64322 | 8.87407 | 99° | 111km/h | 9353m | -10.1m/s | -39.8°C | 44.8% | 304.3hPa | 2.5V | 02:29:59 | 02:49:05 | 00:00:00 | |
| BIOWL1-15 | 2026-09-01 01:17:22 | 49.64336 | 8.87277 | 99° | 111km/h | 9385m | -11.7m/s | -40.1°C | 46.3% | 303hPa | 2.6V | 02:30:46 | 02:49:02 | 00:00:00 | |
| DB0NH | 2026-09-01 01:17:22 | 49.64331 | 8.87320 | 98° | 111km/h | 9374m | -11.7m/s | -39.9°C | 44.0% | 303.4hPa | 2.5V | 00:00:00 | 02:49:03 | 00:00:00 | |
| DB0UT-9 | 2026-09-01 01:17:21 | 49.64331 | 8.87320 | 99° | 115km/h | 9374m | -11.8m/s | -40.0°C | 39.6% | 303.5hPa | 2.5V | 02:30:00 | 00:00:00 | 00:00:00 | |
| KANTATE | 2026-09-01 01:17:20 | 49.64336 | 8.87277 | 100° | 111km/h | 9385m | -11.7m/s | -40.1°C | 39.1% | 303.0hPa | 2.5V | 00:00:00 | 00:00:00 | 00:00:00 | |
| DM0DOS-11 | 2026-09-01 01:17:19 | 49.64367 | 8.86979 | 98° | 110km/h | 9466m | -12.3m/s | -40.8°C | 43.3% | 299.4hPa | 2.5V | 02:30:09 | 02:48:55 | 00:00:00 | |
| BIOWL1-15 | 2026-09-01 01:17:10 | 49.64402 | 8.86633 | 99° | 111km/h | 9563m | -13.2m/s | -41.6°C | 49.2% | 295.2hPa | 2.5V | 02:30:46 | 02:48:47 | 00:00:00 | |
| DF1GD-15 | 2026-09-01 01:17:08 | 49.64389 | 8.86764 | 99° | 111km/h | 9526m | -12.9m/s | -41.3°C | 39.9% | 296.9hPa | 2.6V | 02:30:00 | 00:00:00 | 00:00:00 | |
| DM0DOS-11 | 2026-09-01 01:17:06 | 49.64410 | 8.86547 | 97° | 113km/h | 9587m | -13.1m/s | -41.9°C | 46.6% | 294.1hPa | 2.6V | 02:30:19 | 02:48:45 | 00:00:00 | |
| BIOWL1-15 | 2026-09-01 01:17:02 | 49.64426 | 8.86375 | 98° | 113km/h | 9636m | -11.7m/s | -42.3°C | 51% | 292hPa | 2.6V | 02:30:46 | 02:48:41 | 00:00:00 | |
| BIOWL7-15 | 2026-09-01 01:17:01 | 49.64418 | 8.86460 | 99° | 110km/h | 9612m | -12.8m/s | -42.1°C | 42.2% | 293.0hPa | 2.6V | 00:00:00 | 00:00:00 | 00:00:00 | |
| BIOWL9-15 | 2026-09-01 01:16:59 | 49.64434 | 8.86289 | 97° | 113km/h | 9657m | -12.4m/s | -42.5°C | 43.3% | 291.1hPa | 2.6V | 00:00:00 | 00:00:00 | 00:00:00 | |
| DF2AP-13 | 2026-09-01 01:16:58 | 49.64434 | 8.86288 | 98° | 113km/h | 9657m | -12.4m/s | -42.4°C | 48.4% | 291.0hPa | 2.6V | 00:00:00 | 02:48:39 | 00:00:00 | |
| DM0DOS-11 | 2026-09-01 01:16:55 | 49.64450 | 8.86118 | 97° | 111km/h | 9707m | -13.5m/s | -42.9°C | 47.9% | 289hPa | 2.6V | 02:30:29 | 02:48:35 | 00:00:00 | |
| BIOWL1-15 | 2026-09-01 01:16:49 | 49.64470 | 8.85900 | 98° | 115km/h | 9767m | -13.3m/s | -43.4°C | 54.8% | 286.5hPa | 2.6V | 02:30:46 | 02:48:30 | 00:00:00 | |
| DL1NUX | 2026-09-01 01:16:49 | 49.64491 | 8.85683 | 98° | 115km/h | 9825m | -9.6m/s | -43.9°C | 55.9% | 283.8hPa | 2.5V | 02:30:39 | 02:48:25 | 00:00:00 | |
| SO1NDE-10 | 2026-09-01 01:16:47 | 49.64478 | 8.85813 | 98° | 115km/h | 9793m | -13.9m/s | -43.6°C | 52.9% | 285.3hPa | 2.5V | 00:00:00 | 02:48:28 | 00:00:00 | |
| DO3MHA-11 | 2026-09-01 01:16:45 | 49.64486 | 8.85726 | 99° | 113km/h | 9816m | -9.9m/s | -43.8°C | 55.4% | 284.2hPa | 2.5V | 00:00:00 | 02:48:26 | 00:00:00 | |
| DK5PH-5 | 2026-09-01 01:16:42 | 49.64499 | 8.85595 | 99° | 113km/h | 9846m | -12.3m/s | -44.0°C | 56.7% | 282.9hPa | 2.5V | 00:00:00 | 02:48:23 | 00:00:00 | |
| NBG1-10 | 2026-09-01 01:16:41 | 49.64504 | 8.85550 | 98° | 113km/h | 9858m | -14.4m/s | -44.1°C | 57.2% | 282.5hPa | 2.5V | 00:00:00 | 02:48:22 | 00:00:00 | |
| DJTTGO | 2026-09-01 01:16:40 | 49.64504 | 8.85550 | 99° | 115km/h | 9858m | -14.4m/s | -44.2°C | 51.2% | 282.5hPa | 2.5V | 02:30:00 | 00:00:00 | 00:00:00 | |
| DM0DOS-11 | 2026-09-01 01:16:39 | 49.64534 | 8.85247 | 98° | 111km/h | 9950m | -14m/s | -45°C | 60.4% | 278.6hPa | 2.5V | 02:30:49 | 02:48:15 | 00:00:00 | |
| BIOWL1-15 | 2026-09-01 01:16:38 | 49.64530 | 8.85290 | 99° | 110km/h | 9937m | -13.8m/s | -44.9°C | 63% | 279.2hPa | 2.5V | 02:31:37 | 02:48:16 | 00:00:00 | |
| DB0UT-9 | 2026-09-01 01:16:37 | 49.64516 | 8.85418 | 100° | 111km/h | 9899m | -13.7m/s | -44.5°C | 52.6% | 280.9hPa | 2.5V | 02:30:00 | 00:00:00 | 00:00:00 | |
| DO3MHA-11 | 2026-09-01 01:16:35 | 49.64530 | 8.85290 | 99° | 113km/h | 9937m | -13.7m/s | -44.8°C | 60.0% | 279.2hPa | 2.5V | 00:00:00 | 02:48:16 | 00:00:00 | |
| DM3KS-11 | 2026-09-01 01:16:34 | 49.64534 | 8.85247 | 98° | 110km/h | 9950m | -14.0m/s | -45.0°C | 54.1% | 278.6hPa | 2.5V | 00:00:00 | 00:00:00 | 00:00:00 | |
| DL9PN | 2026-09-01 01:16:33 | 49.64538 | 8.85204 | 98° | 113km/h | 9964m | -12.8m/s | -45.1°C | 54.4% | 278.1hPa | 2.5V | 00:00:00 | 00:00:00 | 00:00:00 | |
| DM7RM-13 | 2026-09-01 01:16:32 | 49.64538 | 8.85204 | 99° | 115km/h | 9964m | -12.8m/s | -45.1°C | 54.4% | 278.1hPa | 2.5V | 02:31:00 | 00:00:00 | 00:00:00 | |
| BEGRI65-1 | 2026-09-01 01:16:31 | 49.64543 | 8.85160 | 100° | 115km/h | 9976m | -12.6m/s | -45.3°C | 54.8% | 277.6hPa | 2.5V | 02:31:00 | 00:00:00 | 00:00:00 | |
| DL0LBS | 2026-09-01 01:16:30 | 49.64548 | 8.85116 | 100° | 111km/h | 9987m | -13.2m/s | -45.4°C | 54.9% | 277.0hPa | 2.5V | 02:31:00 | 00:00:00 | 00:00:00 | |
| DM0DOS-11 | 2026-09-01 01:16:29 | 49.64581 | 8.84809 | 97° | 115km/h | 10075m | -14.4m/s | -46.1°C | 59.9% | 273.4hPa | 2.5V | 02:30:59 | 02:48:05 | 00:00:00 | |
| BIOWL1-15 | 2026-09-01 01:16:25 | 49.64585 | 8.84764 | 98° | 117km/h | 10088m | -14.8m/s | -46.2°C | 63% | 272.8hPa | 2.5V | 02:31:37 | 02:48:04 | 00:00:00 | |
| DO3MHA-11 | 2026-09-01 01:16:25 | 49.64576 | 8.84853 | 99° | 115km/h | 10061m | -13.7m/s | -46.0°C | 60.3% | 273.9hPa | 2.5V | 02:30:00 | 02:48:06 | 00:00:00 | |
| SFWM-10 | 2026-09-01 01:16:22 | 49.64585 | 8.84764 | 99° | 117km/h | 10089m | -14.8m/s | -46.2°C | 53.2% | 272.8hPa | 2.6V | 02:31:00 | 00:00:00 | 00:00:00 | |
| DB0NH | 2026-09-01 01:16:20 | 49.64599 | 8.84632 | 100° | 113km/h | 10135m | -14.6m/s | -46.5°C | 58.7% | 271.2hPa | 2.6V | 02:31:00 | 02:48:01 | 00:00:00 | |
| DM0DOS-11 | 2026-09-01 01:16:19 | 49.64629 | 8.84369 | 99° | 111km/h | 10221m | -14.1m/s | -47.3°C | 57.7% | 267.7hPa | 2.5V | 02:31:09 | 02:47:55 | 00:00:00 | |
| BIOWL1-15 | 2026-09-01 01:16:15 | 49.64633 | 8.84326 | 99° | 113km/h | 10235m | -14.1m/s | -47.4°C | 60.2% | 267.1hPa | 2.5V | 02:31:37 | 02:47:54 | 00:00:00 | |
| DO3MHA-11 | 2026-09-01 01:16:15 | 49.64623 | 8.84412 | 100° | 113km/h | 10208m | -13.8m/s | -47.1°C | 57.8% | 268.2hPa | 2.6V | 00:00:00 | 02:47:56 | 00:00:00 | |
| DK5PH-5 | 2026-09-01 01:16:12 | 49.64638 | 8.84282 | 100° | 115km/h | 10249m | -14.6m/s | -47.4°C | 56.7% | 266.6hPa | 2.6V | 00:00:00 | 02:47:53 | 00:00:00 | |
| DL1ZP-14 | 2026-09-01 01:16:10 | 49.64647 | 8.84194 | 99° | 115km/h | 10277m | -12.9m/s | -47.7°C | 49.2% | 265.4hPa | 2.6V | 00:00:00 | 00:00:00 | 00:00:00 | |
| DM0DOS-11 | 2026-09-01 01:16:09 | 49.64674 | 8.83933 | 99° | 111km/h | 10348m | -12m/s | -48.2°C | 53.2% | 262.5hPa | 2.6V | 02:31:19 | 02:47:45 | 00:00:00 | |
| BIOWL1-15 | 2026-09-01 01:16:04 | 49.64692 | 8.83758 | 99° | 113km/h | 10398m | -12.6m/s | -48.6°C | 55.5% | 260.6hPa | 2.5V | 02:31:37 | 02:47:41 | 00:00:00 | |
| DL1NUX | 2026-09-01 01:16:04 | 49.64687 | 8.83802 | 97° | 113km/h | 10385m | -13.3m/s | -48.5°C | 52.8% | 261.1hPa | 2.5V | 02:31:22 | 02:47:42 | 00:00:00 | |
| DM3KS-11 | 2026-09-01 01:16:03 | 49.64678 | 8.83890 | 98° | 111km/h | 10360m | -13.2m/s | -48.3°C | 46.4% | 262.0hPa | 2.6V | 00:00:00 | 00:00:00 | 00:00:00 | |
| DL9PN | 2026-09-01 01:16:02 | 49.64683 | 8.83846 | 99° | 115km/h | 10373m | -12.6m/s | -48.4°C | 46.2% | 261.6hPa | 2.6V | 00:00:00 | 00:00:00 | 00:00:00 | |
| DM0DOS-11 | 2026-09-01 01:15:59 | 49.64717 | 8.83490 | 98° | 113km/h | 10467m | -12.3m/s | -49.1°C | 50% | 257.8hPa | 2.6V | 02:31:29 | 02:47:35 | 00:00:00 | |
| HSKMA3-T | 2026-09-01 01:15:56 | 49.64708 | 8.83580 | 98° | 119km/h | 10443m | -12.2m/s | -48.9°C | 54% | 258.9hPa | 2.5V | 02:33:19 | 02:47:37 | 00:00:00 | |
| BIOWL1-15 | 2026-09-01 01:15:54 | 49.64717 | 8.83490 | 98° | 113km/h | 10467m | -12.3m/s | -49.1°C | 53.5% | 257.8hPa | 2.6V | 02:31:37 | 02:47:35 | 00:00:00 | |
| DM7RM-13 | 2026-09-01 01:15:51 | 49.64725 | 8.83399 | 100° | 117km/h | 10491m | -12.3m/s | -49.3°C | 43.2% | 256.9hPa | 2.5V | 02:31:00 | 00:00:00 | 00:00:00 | |
| DB0NH | 2026-09-01 01:15:50 | 49.64734 | 8.83310 | 98° | 115km/h | 10516m | -13.6m/s | -49.5°C | 49.2% | 255.8hPa | 2.5V | 00:00:00 | 02:47:31 | 00:00:00 | |
| DM0DOS-11 | 2026-09-01 01:15:49 | 49.64758 | 8.83039 | 97° | 115km/h | 10596m | -12.7m/s | -50.2°C | 47.4% | 252.8hPa | 2.5V | 02:31:39 | 02:47:25 | 00:00:00 | |
| BIOWL1-15 | 2026-09-01 01:15:44 | 49.64758 | 8.83039 | 97° | 115km/h | 10596m | -12.7m/s | -50.2°C | 50.9% | 252.8hPa | 2.5V | 02:32:28 | 02:47:25 | 00:00:00 | |
| DL1NUX | 2026-09-01 01:15:44 | 49.64773 | 8.82855 | 96° | 120km/h | 10649m | -14.4m/s | -50.6°C | 44.9% | 250.7hPa | 2.5V | 02:31:43 | 02:47:21 | 00:00:00 | |
| DL8DAS-15 | 2026-09-01 01:15:43 | 49.64758 | 8.83039 | 98° | 115km/h | 10596m | -12.7m/s | -50.2°C | 40.9% | 252.8hPa | 2.6V | 00:00:00 | 00:00:00 | 00:00:00 | |
| DK5PH-5 | 2026-09-01 01:15:42 | 49.64766 | 8.82948 | 97° | 115km/h | 10623m | -13.6m/s | -50.3°C | 45.7% | 251.7hPa | 2.6V | 02:31:00 | 02:47:23 | 00:00:00 | |
| DM0DOS-11 | 2026-09-01 01:15:39 | 49.64791 | 8.82583 | 95° | 113km/h | 10736m | -15.4m/s | -51.2°C | 43.9% | 247.5hPa | 2.5V | 02:31:49 | 02:47:15 | 00:00:00 | |
| BIOWL1-15 | 2026-09-01 01:15:29 | 49.64808 | 8.82364 | 98° | 115km/h | 10805m | -14.5m/s | -51.8°C | 51.1% | 244.8hPa | 2.5V | 02:32:28 | 02:47:10 | 00:00:00 | |
| BIOWL1-15 | 2026-09-01 01:15:23 | 49.64837 | 8.81923 | 96° | 111km/h | 10947m | -13m/s | -53.2°C | 55.9% | 239.5hPa | 2.5V | 02:32:28 | 02:47:00 | 00:00:00 | |
| DL1NUX | 2026-09-01 01:15:20 | 49.64848 | 8.81744 | 95° | 117km/h | 10999m | -13.6m/s | -53.7°C | 53.8% | 237.6hPa | 2.6V | 02:32:08 | 02:46:56 | 00:00:00 | |
| DM0DOS-11 | 2026-09-01 01:15:19 | 49.64852 | 8.81699 | 96° | 117km/h | 11012m | -15.2m/s | -53.8°C | 54% | 237.1hPa | 2.6V | 02:32:09 | 02:46:55 | 00:00:00 | |
| HEMX73-11 | 2026-09-01 01:15:17 | 49.64840 | 8.81879 | 96° | 113km/h | 10959m | -12.1m/s | -53.3°C | 45.0% | 239.0hPa | 2.6V | 02:32:00 | 00:00:00 | 00:00:00 | |
| DO3MHA-11 | 2026-09-01 01:15:16 | 49.64848 | 8.81744 | 96° | 115km/h | 10999m | -13.6m/s | -53.7°C | 53.8% | 237.5hPa | 2.6V | 00:00:00 | 02:46:56 | 00:00:00 | |
| HSKMA3-T | 2026-09-01 01:15:16 | 49.64848 | 8.81744 | 96° | 117km/h | 10999m | -13.6m/s | -53.7°C | 57.5% | 237.6hPa | 2.6V | 02:33:19 | 02:46:56 | 00:00:00 | |
| DF3TZ-5 | 2026-09-01 01:15:14 | 49.64852 | 8.81699 | 96° | 117km/h | 11013m | -15.2m/s | -53.8°C | 46.2% | 237.1hPa | 2.6V | 00:00:00 | 00:00:00 | 00:00:00 | |
| DK5PH-5 | 2026-09-01 01:15:12 | 49.64858 | 8.81610 | 98° | 111km/h | 11041m | -15.5m/s | -54.1°C | 54.7% | 236.0hPa | 2.6V | 00:00:00 | 02:46:53 | 00:00:00 | |
| DM7RM-13 | 2026-09-01 01:15:11 | 49.64858 | 8.81610 | 99° | 113km/h | 11041m | -15.6m/s | -54.1°C | 46.8% | 236.0hPa | 2.6V | 02:32:00 | 00:00:00 | 00:00:00 | |
| DM0DOS-11 | 2026-09-01 01:15:09 | 49.64891 | 8.81256 | 98° | 111km/h | 11165m | -15.4m/s | -55.3°C | 57% | 231.5hPa | 2.6V | 02:32:19 | 02:46:45 | 00:00:00 | |
| BIOWL1-15 | 2026-09-01 01:15:08 | 49.64875 | 8.81433 | 97° | 117km/h | 11104m | -16m/s | -54.7°C | 59.5% | 233.8hPa | 2.5V | 02:32:28 | 02:46:49 | 00:00:00 | |
| DH7VM-15 | 2026-09-01 01:15:07 | 49.64875 | 8.81432 | 98° | 117km/h | 11104m | -16.0m/s | -54.7°C | 47.8% | 233.8hPa | 2.5V | 00:00:00 | 00:00:00 | 00:00:00 | |
| DF7PN | 2026-09-01 01:15:06 | 49.64883 | 8.81343 | 97° | 113km/h | 11135m | -16.0m/s | -55.0°C | 48.3% | 232.6hPa | 2.5V | 00:00:00 | 00:00:00 | 00:00:00 | |
| DO3MHA-11 | 2026-09-01 01:15:05 | 49.64887 | 8.81299 | 98° | 111km/h | 11150m | -15.9m/s | -55.1°C | 56.8% | 232.1hPa | 2.5V | 00:00:00 | 02:46:46 | 00:00:00 | |
| DF1GD-15 | 2026-09-01 01:15:04 | 49.64887 | 8.81299 | 99° | 111km/h | 11150m | -15.9m/s | -55.2°C | 48.4% | 232.1hPa | 2.5V | 02:32:00 | 00:00:00 | 00:00:00 | |
| NBG1-10 | 2026-09-01 01:15:02 | 49.64900 | 8.81172 | 101° | 110km/h | 11196m | -14.3m/s | -55.5°C | 56.7% | 230.4hPa | 2.5V | 00:00:00 | 02:46:43 | 00:00:00 | |
| DM3KS-11 | 2026-09-01 01:15:01 | 49.64905 | 8.81129 | 100° | 113km/h | 11210m | -16.0m/s | -55.7°C | 47.8% | 230.0hPa | 2.5V | 00:00:00 | 00:00:00 | 00:00:00 | |
| DL1NUX | 2026-09-01 01:15:00 | 49.64935 | 8.80869 | 98° | 113km/h | 11302m | -14.9m/s | -56.5°C | 56.2% | 226.6hPa | 2.5V | 02:32:28 | 02:46:36 | 00:00:00 | |
| HSKMA3-T | 2026-09-01 01:15:00 | 49.64910 | 8.81085 | 101° | 113km/h | 11225m | -16m/s | -55.8°C | 59.3% | 229.4hPa | 2.5V | 02:33:19 | 02:46:41 | 00:00:00 | |
| DL9PN | 2026-09-01 01:15:00 | 49.64916 | 8.81043 | 100° | 108km/h | 11240m | -14.9m/s | -56.0°C | 47.9% | 228.8hPa | 2.5V | 00:00:00 | 00:00:00 | 00:00:00 | |
| DM0DOS-11 | 2026-09-01 01:14:59 | 49.64939 | 8.80826 | 97° | 111km/h | 11316m | -15.3m/s | -56.6°C | 56.2% | 226.1hPa | 2.5V | 02:32:29 | 02:46:35 | 00:00:00 | |
| BIOWL1-15 | 2026-09-01 01:14:59 | 49.64926 | 8.80957 | 99° | 115km/h | 11271m | -16.3m/s | -56.2°C | 58.7% | 227.8hPa | 2.5V | 02:32:28 | 02:46:38 | 00:00:00 | |
| DB0ND-19 | 2026-09-01 01:14:55 | 49.64940 | 8.80826 | 97° | 110km/h | 11316m | -15.3m/s | -56.6°C | 47.5% | 226.1hPa | 2.5V | 00:00:00 | 00:00:00 | 00:00:00 | |
| BIOWL9-15 | 2026-09-01 01:14:54 | 49.64940 | 8.80826 | 97° | 110km/h | 11316m | -15.3m/s | -56.6°C | 47.5% | 226.1hPa | 2.5V | 00:00:00 | 00:00:00 | 00:00:00 | |
| DL1NUX | 2026-09-01 01:14:50 | 49.64980 | 8.80436 | 97° | 111km/h | 11452m | -16m/s | -57.7°C | 56.5% | 221.4hPa | 2.5V | 02:32:38 | 02:46:26 | 00:00:00 | |
| DB0UT-7 | 2026-09-01 01:14:50 | 49.64958 | 8.80656 | 101° | 110km/h | 11375m | -15.3m/s | -57.0°C | 56.0% | 224.0hPa | 2.5V | 00:00:00 | 00:00:00 | 00:00:00 | |
| DM0DOS-11 | 2026-09-01 01:14:49 | 49.64985 | 8.80394 | 99° | 108km/h | 11468m | -15.5m/s | -57.9°C | 56.5% | 220.8hPa | 2.5V | 02:32:39 | 02:46:25 | 00:00:00 | |
| BIOWL1-15 | 2026-09-01 01:14:46 | 49.64994 | 8.80311 | 100° | 106km/h | 11499m | -15.3m/s | -58.1°C | 56.1% | 219.7hPa | 2.6V | 02:33:19 | 02:46:23 | 00:00:00 | |
| HSKMA3-T | 2026-09-01 01:14:43 | 49.64989 | 8.80352 | 101° | 106km/h | 11483m | -15.9m/s | -58°C | 56.4% | 220.3hPa | 2.6V | 02:33:19 | 02:46:24 | 00:00:00 | |
| DK5PH-5 | 2026-09-01 01:14:42 | 49.64994 | 8.80311 | 100° | 110km/h | 11499m | -15.3m/s | -58.1°C | 56.4% | 219.7hPa | 2.5V | 00:00:00 | 02:46:23 | 00:00:00 | |
| DL1NUX | 2026-09-01 01:14:40 | 49.65020 | 8.80022 | 94° | 108km/h | 11604m | -16.4m/s | -58.8°C | 53.5% | 216hPa | 2.5V | 02:32:48 | 02:46:16 | 00:00:00 | |
| BIOWL1-15 | 2026-09-01 01:14:36 | 49.65018 | 8.80064 | 95° | 110km/h | 11589m | -16m/s | -58.7°C | 52.8% | 216hPa | 2.6V | 02:33:19 | 02:46:17 | 00:00:00 | |
| HSKMA3-T | 2026-09-01 01:14:32 | 49.65028 | 8.79897 | 97° | 110km/h | 11649m | -16.7m/s | -59°C | 49.4% | 214.6hPa | 2.5V | 02:33:19 | 02:46:13 | 00:00:00 | |
| DM3KS-11 | 2026-09-01 01:14:30 | 49.65034 | 8.79811 | 95° | 111km/h | 11680m | -15.4m/s | -59.1°C | 40.4% | 213.5hPa | 2.5V | 00:00:00 | 00:00:00 | 00:00:00 | |
| DM0DOS-11 | 2026-09-01 01:14:29 | 49.65049 | 8.79548 | 95° | 113km/h | 11775m | -15.8m/s | -59.5°C | 47.3% | 210.2hPa | 2.5V | 02:32:59 | 02:46:05 | 00:00:00 | |
| BIOWL1-15 | 2026-09-01 01:14:25 | 49.65046 | 8.79592 | 96° | 111km/h | 11760m | -15.9m/s | -59.6°C | 45.1% | 210.8hPa | 2.5V | 02:33:19 | 02:46:06 | 00:00:00 | |
| DO3MHA-11 | 2026-09-01 01:14:25 | 49.65046 | 8.79592 | 96° | 113km/h | 11760m | -15.9m/s | -59.5°C | 48.0% | 210.7hPa | 2.5V | 02:32:00 | 02:46:06 | 00:00:00 | |
| DB0ND-19 | 2026-09-01 01:14:24 | 49.65052 | 8.79504 | 95° | 115km/h | 11791m | -16.9m/s | -59.6°C | 37.8% | 209.8hPa | 2.5V | 00:00:00 | 00:00:00 | 00:00:00 | |
| BIOWL9-15 | 2026-09-01 01:14:23 | 49.65052 | 8.79504 | 95° | 115km/h | 11791m | -16.9m/s | -59.6°C | 37.8% | 209.8hPa | 2.5V | 00:00:00 | 00:00:00 | 00:00:00 | |
| DJTTGO | 2026-09-01 01:14:22 | 49.65055 | 8.79459 | 97° | 115km/h | 11806m | -15.3m/s | -59.7°C | 37.4% | 209.1hPa | 2.5V | 00:00:00 | 00:00:00 | 00:00:00 | |
| SFWM-10 | 2026-09-01 01:14:21 | 49.65055 | 8.79459 | 97° | 115km/h | 11806m | -15.3m/s | -59.7°C | 37.4% | 209.1hPa | 2.5V | 00:00:00 | 00:00:00 | 00:00:00 | |
| DB0UT-7 | 2026-09-01 01:14:20 | 49.65061 | 8.79370 | 97° | 108km/h | 11837m | -16.4m/s | -60.0°C | 45.7% | 208.1hPa | 2.5V | 02:33:00 | 02:46:01 | 00:00:00 | |
| DM0DOS-11 | 2026-09-01 01:14:19 | 49.65078 | 8.79113 | 96° | 108km/h | 11929m | -15.9m/s | -59.7°C | 39.6% | 205.1hPa | 2.5V | 02:33:09 | 02:45:55 | 00:00:00 | |
| HSKMA3-T | 2026-09-01 01:14:18 | 49.65067 | 8.79281 | 95° | 113km/h | 11868m | -16m/s | -60.2°C | 40.3% | 207.1hPa | 2.5V | 02:33:19 | 02:45:59 | 00:00:00 | |
| BIOWL1-15 | 2026-09-01 01:14:15 | 49.65075 | 8.79154 | 96° | 106km/h | 11914m | -15.6m/s | -59.9°C | 37.7% | 205.6hPa | 2.6V | 02:33:19 | 02:45:56 | 00:00:00 | |
| DO3MHA-11 | 2026-09-01 01:14:15 | 49.65075 | 8.79154 | 97° | 106km/h | 11914m | -15.6m/s | -59.8°C | 41.5% | 205.5hPa | 2.5V | 00:00:00 | 02:45:56 | 00:00:00 | |
| DL1NUX | 2026-09-01 01:14:14 | 49.65081 | 8.79071 | 94° | 110km/h | 11944m | -17.4m/s | -59.6°C | 37.9% | 204.6hPa | 2.5V | 02:33:10 | 02:45:54 | 00:00:00 | |
| DK5PH-5 | 2026-09-01 01:14:12 | 49.65084 | 8.79029 | 96° | 111km/h | 11960m | -16.8m/s | -59.6°C | 37.1% | 203.6hPa | 2.5V | 02:33:00 | 02:45:53 | 00:00:00 | |
| DN1GJH-1 | 2026-09-01 01:14:11 | 49.65084 | 8.79029 | 96° | 108km/h | 11960m | -16.8m/s | -59.6°C | 29.3% | 203.6hPa | 2.5V | 00:00:00 | 00:00:00 | 00:00:00 | |
| DM7RM-13 | 2026-09-01 01:14:08 | 49.65088 | 8.78905 | 92° | 106km/h | 12010m | -17.0m/s | -59.8°C | 27.2% | 202.5hPa | 2.5V | 02:33:00 | 00:00:00 | 00:00:00 | |
| BEGRI65-1 | 2026-09-01 01:14:07 | 49.65088 | 8.78864 | 91° | 104km/h | 12026m | -16.7m/s | -59.8°C | 26.5% | 202.0hPa | 2.5V | 02:33:00 | 00:00:00 | 00:00:00 | |
| DM0DOS-11 | 2026-09-01 01:14:06 | 49.65081 | 8.78577 | 85° | 110km/h | 12129m | -15.2m/s | -59.7°C | 28.2% | 198.7hPa | 2.5V | 02:33:22 | 02:45:42 | 00:00:00 | |
| HSKMA3-T | 2026-09-01 01:14:04 | 49.65085 | 8.78701 | 88° | 104km/h | 12088m | -15.4m/s | -59.5°C | 27% | 200.1hPa | 2.5V | 02:33:19 | 02:45:45 | 00:00:00 | |
| DF7PN | 2026-09-01 01:14:04 | 49.65085 | 8.78701 | 88° | 104km/h | 12088m | -15.4m/s | -59.5°C | 23.1% | 200.1hPa | 2.5V | 00:00:00 | 00:00:00 | 00:00:00 | |
| DL1NUX | 2026-09-01 01:14:04 | 49.65084 | 8.78660 | 88° | 106km/h | 12102m | -14.6m/s | -59.6°C | 29.7% | 199.6hPa | 2.6V | 02:33:20 | 02:45:44 | 00:00:00 | |
| DL8DAS-14 | 2026-09-01 01:14:03 | 49.65084 | 8.78660 | 88° | 106km/h | 12102m | -14.6m/s | -59.6°C | 22.5% | 199.6hPa | 2.5V | 00:00:00 | 00:00:00 | 00:00:00 | |
| KANTATE | 2026-09-01 01:14:02 | 49.65084 | 8.78660 | 89° | 106km/h | 12103m | -14.6m/s | -59.6°C | 22.5% | 199.6hPa | 2.5V | 02:34:00 | 00:00:00 | 00:00:00 | |
| SFWM-10 | 2026-09-01 01:14:01 | 49.65083 | 8.78619 | 87° | 106km/h | 12116m | -13.2m/s | -59.6°C | 21.9% | 199.1hPa | 2.5V | 02:34:00 | 00:00:00 | 00:00:00 | |
| DM3KS-11 | 2026-09-01 01:13:59 | 49.65076 | 8.78491 | 84° | 108km/h | 12158m | -14.5m/s | -59.8°C | 20.1% | 197.8hPa | 2.5V | 00:00:00 | 00:00:00 | 00:00:00 | |
| DL9PN | 2026-09-01 01:13:58 | 49.65070 | 8.78405 | 82° | 110km/h | 12188m | -14.8m/s | -59.6°C | 18.2% | 196.8hPa | 2.5V | 00:00:00 | 00:00:00 | 00:00:00 | |
| DM0DOS-11 | 2026-09-01 01:13:56 | 49.65046 | 8.78138 | 80° | 117km/h | 12282m | -16.6m/s | -59.4°C | 19.6% | 193.9hPa | 2.5V | 02:33:32 | 02:45:32 | 00:00:00 | |
| NBG1-10 | 2026-09-01 01:13:56 | 49.65067 | 8.78362 | 83° | 111km/h | 12203m | -17.2m/s | -59.3°C | 23.5% | 196.4hPa | 2.5V | 00:00:00 | 02:45:37 | 00:00:00 | |
| DO3MHA-11 | 2026-09-01 01:13:55 | 49.65063 | 8.78318 | 83° | 115km/h | 12219m | -15.7m/s | 0°C | 0% | 0hPa | 2.5V | 02:33:00 | 02:45:36 | 00:00:00 | |
| DL1NUX | 2026-09-01 01:13:54 | 49.65055 | 8.78229 | 81° | 117km/h | 12251m | -16.4m/s | -59.4°C | 21% | 194.9hPa | 2.5V | 02:33:30 | 02:45:34 | 00:00:00 | |
| BIOWL1-15 | 2026-09-01 01:13:53 | 49.65046 | 8.78138 | 80° | 117km/h | 12282m | -16.6m/s | -59.4°C | 15.6% | 194hPa | 2.5V | 02:34:10 | 02:45:32 | 00:00:00 | |
| HSKMA3-T | 2026-09-01 01:13:53 | 49.65056 | 8.78229 | 81° | 117km/h | 12251m | -16.4m/s | -59.4°C | 17.3% | 194.9hPa | 2.5V | 02:35:01 | 02:45:34 | 00:00:00 | |
| DB0ND-19 | 2026-09-01 01:13:53 | 49.65051 | 8.78183 | 80° | 117km/h | 12267m | -15.7m/s | -59.4°C | 14.2% | 194.4hPa | 2.6V | 00:00:00 | 00:00:00 | 00:00:00 | |
| SO1NDE-10 | 2026-09-01 01:13:52 | 49.65051 | 8.78183 | 81° | 111km/h | 12267m | -15.6m/s | -59.3°C | 20.2% | 194.4hPa | 2.6V | 00:00:00 | 02:45:33 | 00:00:00 | |
| DB0UT-7 | 2026-09-01 01:13:49 | 49.65037 | 8.78048 | 82° | 108km/h | 12313m | -16.0m/s | -58.9°C | 17.3% | 192.9hPa | 2.6V | 00:00:00 | 00:00:00 | 00:00:00 | |
| DM7RM-13 | 2026-09-01 01:13:47 | 49.65033 | 8.78003 | 84° | 115km/h | 12330m | -16.2m/s | -58.8°C | 10.9% | 192.5hPa | 2.6V | 02:34:00 | 00:00:00 | 00:00:00 | |
| DM0DOS-11 | 2026-09-01 01:13:46 | 49.65016 | 8.77681 | 87° | 119km/h | 12436m | -14.1m/s | -57.4°C | 10.6% | 189.2hPa | 2.6V | 02:33:42 | 02:45:22 | 00:00:00 | |
| DO3MHA-11 | 2026-09-01 01:13:45 | 49.65023 | 8.77867 | 86° | 115km/h | 12376m | -14.8m/s | 0°C | 0% | 0hPa | 2.5V | 00:00:00 | 02:45:26 | 00:00:00 | |
| DL1NUX | 2026-09-01 01:13:44 | 49.65019 | 8.77775 | 86° | 120km/h | 12406m | -15.1m/s | -57.8°C | 11.8% | 190.2hPa | 2.5V | 02:33:40 | 02:45:24 | 00:00:00 | |
| BIOWL1-15 | 2026-09-01 01:13:42 | 49.65018 | 8.77728 | 87° | 120km/h | 12421m | -15.9m/s | -57.6°C | 8.2% | 189.8hPa | 2.6V | 02:34:10 | 02:45:23 | 00:00:00 | |
| DB0NH | 2026-09-01 01:13:41 | 49.65016 | 8.77680 | 88° | 93km/h | 12436m | -14.1m/s | 0°C | 0% | 0hPa | 2.5V | 00:00:00 | 02:45:22 | 00:00:00 | |
| DJTTGO | 2026-09-01 01:13:40 | 49.65015 | 8.77635 | 89° | 115km/h | 12450m | -14.4m/s | -57.1°C | 6.0% | 188.8hPa | 2.5V | 00:00:00 | 00:00:00 | 00:00:00 | |
| DO3MHA-11 | 2026-09-01 01:13:35 | 49.65014 | 8.77418 | 90° | 106km/h | 12521m | -14.9m/s | 0°C | 0% | 0hPa | 2.5V | 00:00:00 | 02:45:16 | 00:00:00 | |
| DL1NUX | 2026-09-01 01:13:34 | 49.65015 | 8.77335 | 90° | 108km/h | 12548m | -15.1m/s | -55.9°C | 8.1% | 185.9hPa | 2.5V | 02:33:50 | 02:45:14 | 00:00:00 | |
| BIOWL1-15 | 2026-09-01 01:13:34 | 49.65015 | 8.77294 | 91° | 108km/h | 12563m | -14.3m/s | -55.8°C | 5.2% | 185.5hPa | 2.6V | 02:34:10 | 02:45:13 | 00:00:00 | |
| HSKMA3-T | 2026-09-01 01:13:28 | 49.65019 | 8.77132 | 93° | 104km/h | 12621m | -16.6m/s | -55.3°C | 4.5% | 183.9hPa | 2.5V | 02:35:01 | 02:45:09 | 00:00:00 | |
| DL9PN | 2026-09-01 01:13:27 | 49.65022 | 8.77052 | 94° | 102km/h | 12649m | -12.8m/s | -55.4°C | 3.9% | 182.9hPa | 2.6V | 00:00:00 | 00:00:00 | 00:00:00 | |
| DM0DOS-11 | 2026-09-01 01:13:26 | 49.65034 | 8.76858 | 96° | 97km/h | 12717m | -14.7m/s | -55.2°C | 6.5% | 181.1hPa | 2.6V | 02:34:02 | 02:45:02 | 00:00:00 | |
| BIOWL1-15 | 2026-09-01 01:13:21 | 49.65040 | 8.76782 | 96° | 99km/h | 12748m | -16.2m/s | -54.9°C | 3.3% | 180.2hPa | 2.5V | 02:34:10 | 02:45:00 | 00:00:00 | |
| HSKMA3-T | 2026-09-01 01:13:15 | 49.65050 | 8.76636 | 96° | 88km/h | 12809m | -14.9m/s | -54.2°C | 2.8% | 178.5hPa | 2.6V | 02:35:01 | 02:44:56 | 00:00:00 | |
| DO3MHA-11 | 2026-09-01 01:13:15 | 49.65050 | 8.76636 | 97° | 46km/h | 12810m | -14.8m/s | 0°C | 0% | 0hPa | 2.6V | 00:00:00 | 02:44:56 | 00:00:00 | |
| HEMX73-11 | 2026-09-01 01:13:13 | 49.65053 | 8.76603 | 97° | 88km/h | 12824m | -14.7m/s | -54.3°C | 2.7% | 178.1hPa | 2.6V | 02:34:00 | 00:00:00 | 00:00:00 | |
| DM0DOS-11 | 2026-09-01 01:13:11 | 49.65060 | 8.76504 | 96° | 86km/h | 12867m | -13.2m/s | -54.4°C | 5.4% | 176.9hPa | 2.6V | 02:34:12 | 02:44:52 | 00:00:00 | |
| BIOWL1-15 | 2026-09-01 01:13:08 | 49.65072 | 8.76350 | 95° | 78km/h | 12941m | -16.1m/s | -54.5°C | 2.4% | 174.9hPa | 2.5V | 02:35:01 | 02:44:47 | 00:00:00 | |
| DL4BBY-15 | 2026-09-01 01:13:08 | 49.65068 | 8.76411 | 96° | 80km/h | 12910m | -16.0m/s | -55.1°C | 0% | 0hPa | 2.5V | 00:00:00 | 00:00:00 | 00:00:00 | |
| DF2AP-13 | 2026-09-01 01:13:07 | 49.65069 | 8.76380 | 95° | 82km/h | 12925m | -16.2m/s | -54.4°C | 5.2% | 175.3hPa | 2.5V | 02:34:00 | 02:44:48 | 00:00:00 | |
| DM7RM-13 | 2026-09-01 01:13:06 | 49.65069 | 8.76380 | 96° | 78km/h | 12925m | -16.2m/s | -54.4°C | 2.5% | 175.3hPa | 2.5V | 02:35:00 | 00:00:00 | 00:00:00 | |
| DL1NUX | 2026-09-01 01:13:04 | 49.65079 | 8.76229 | 92° | 78km/h | 13002m | -14.3m/s | -54.8°C | 5.4% | 173.2hPa | 2.5V | 02:34:21 | 02:44:43 | 00:00:00 | |
| HSKMA3-T | 2026-09-01 01:12:56 | 49.65085 | 8.76041 | 93° | 84km/h | 13080m | -14.3m/s | -54.9°C | 2.3% | 171.1hPa | 2.5V | 02:35:01 | 02:44:37 | 00:00:00 | |
| BIOWL1-15 | 2026-09-01 01:12:55 | 49.65089 | 8.75946 | 92° | 78km/h | 13119m | -13.9m/s | -54.9°C | 2.4% | 170.1hPa | 2.6V | 02:35:01 | 02:44:34 | 00:00:00 | |
| DM0DOS-11 | 2026-09-01 01:12:55 | 49.65091 | 8.75884 | 92° | 78km/h | 13148m | -13.8m/s | -55°C | 5.5% | 169.3hPa | 2.5V | 02:34:32 | 02:44:32 | 00:00:00 | |
| DL1NUX | 2026-09-01 01:12:55 | 49.65090 | 8.75915 | 92° | 82km/h | 13133m | -15m/s | -55°C | 5.5% | 169.7hPa | 2.6V | 02:34:31 | 02:44:33 | 00:00:00 | |
| HSKMA3-T | 2026-09-01 01:12:45 | 49.65091 | 8.75692 | 88° | 82km/h | 13234m | -15m/s | -54.8°C | 2.5% | 167.1hPa | 2.5V | 02:35:01 | 02:44:26 | 00:00:00 | |
| DM0DOS-11 | 2026-09-01 01:12:44 | 49.65084 | 8.75561 | 84° | 84km/h | 13288m | -12.7m/s | -54.6°C | 5.5% | 165.6hPa | 2.6V | 02:34:42 | 02:44:22 | 00:00:00 | |
| DL1NUX | 2026-09-01 01:12:44 | 49.65086 | 8.75594 | 84° | 88km/h | 13275m | -14.3m/s | -54.6°C | 5.5% | 165.9hPa | 2.6V | 02:34:41 | 02:44:23 | 00:00:00 | |
| DJ2DS-15 | 2026-09-01 01:12:42 | 49.65086 | 8.75594 | 85° | 89km/h | 13276m | -14.3m/s | -54.5°C | 5.5% | 165.8hPa | 2.5V | 00:00:00 | 02:44:23 | 00:00:00 | |
| BIOWL1-15 | 2026-09-01 01:12:42 | 49.65086 | 8.75594 | 84° | 88km/h | 13275m | -14.3m/s | -54.6°C | 2.5% | 165.9hPa | 2.6V | 02:35:01 | 02:44:23 | 00:00:00 | |
| BEGRI65-1 | 2026-09-01 01:12:41 | 49.65086 | 8.75594 | 85° | 88km/h | 13276m | -14.3m/s | -54.6°C | 2.6% | 165.9hPa | 2.5V | 00:00:00 | 00:00:00 | 00:00:00 | |
| DF3TZ-5 | 2026-09-01 01:12:39 | 49.65080 | 8.75494 | 83° | 89km/h | 13317m | -14.4m/s | -54.8°C | 2.6% | 164.8hPa | 2.5V | 00:00:00 | 00:00:00 | 00:00:00 | |
| DF2AP-13 | 2026-09-01 01:12:37 | 49.65075 | 8.75426 | 83° | 89km/h | 13346m | -15.2m/s | -54.9°C | 5.7% | 164.0hPa | 2.5V | 00:00:00 | 02:44:18 | 00:00:00 | |
| SFWM-10 | 2026-09-01 01:12:35 | 49.65072 | 8.75392 | 83° | 89km/h | 13362m | -16.6m/s | -55.0°C | 2.6% | 163.7hPa | 2.5V | 02:35:00 | 00:00:00 | 00:00:00 | |
| DM0DOS-11 | 2026-09-01 01:12:34 | 49.65058 | 8.75217 | 82° | 91km/h | 13443m | -17m/s | -54.3°C | 5.4% | 161.7hPa | 2.5V | 02:34:52 | 02:44:12 | 00:00:00 | |
| DL1NUX | 2026-09-01 01:12:34 | 49.65061 | 8.75253 | 82° | 93km/h | 13427m | -16.8m/s | -54.5°C | 5.5% | 162.1hPa | 2.5V | 02:34:51 | 02:44:13 | 00:00:00 | |
| HSKMA3-T | 2026-09-01 01:12:34 | 49.65066 | 8.75324 | 83° | 91km/h | 13394m | -16.1m/s | -54.9°C | 2.6% | 162.9hPa | 2.6V | 02:35:01 | 02:44:15 | 00:00:00 | |
| BIOWL1-15 | 2026-09-01 01:12:31 | 49.65058 | 8.75217 | 83° | 91km/h | 13443m | -17m/s | -54.3°C | 2.5% | 161.7hPa | 2.5V | 02:35:01 | 02:44:12 | 00:00:00 | |
| DF7PN | 2026-09-01 01:12:31 | 49.65056 | 8.75181 | 83° | 93km/h | 13460m | -16.5m/s | -54.2°C | 2.5% | 161.3hPa | 2.5V | 00:00:00 | 00:00:00 | 00:00:00 | |
| DB0NH | 2026-09-01 01:12:30 | 49.65056 | 8.75181 | 84° | 89km/h | 13460m | -16.4m/s | 0°C | 0% | 0hPa | 2.5V | 00:00:00 | 02:44:11 | 00:00:00 | |
| DN1GJH-1 | 2026-09-01 01:12:28 | 49.65053 | 8.75145 | 85° | 95km/h | 13475m | -14.8m/s | -54.2°C | 0% | 160.8hPa | 2.5V | 02:35:00 | 00:00:00 | 00:00:00 | |
| DM3KS-11 | 2026-09-01 01:12:26 | 49.65046 | 8.75036 | 85° | 91km/h | 13521m | -16.4m/s | -54.3°C | 2.5% | 159.7hPa | 2.5V | 00:00:00 | 00:00:00 | 00:00:00 | |
| DL9PN | 2026-09-01 01:12:25 | 49.65042 | 8.74964 | 86° | 88km/h | 13556m | -18.6m/s | 0°C | -1.0% | 159.0hPa | 2.5V | 00:00:00 | 00:00:00 | 00:00:00 | |
| DM0DOS-11 | 2026-09-01 01:12:24 | 49.65037 | 8.74862 | 86° | 86km/h | 13608m | -17.1m/s | -54.1°C | 5.3% | 157.6hPa | 2.5V | 02:35:02 | 02:44:02 | 00:00:00 | |
| DL1NUX | 2026-09-01 01:12:24 | 49.65039 | 8.74895 | 85° | 86km/h | 13591m | -18.2m/s | -54.1°C | 5.3% | 158hPa | 2.5V | 02:35:01 | 02:44:03 | 00:00:00 | |
| BIOWL1-15 | 2026-09-01 01:12:21 | 49.65037 | 8.74862 | 86° | 86km/h | 13608m | -17.1m/s | -54.1°C | 2.6% | 157.6hPa | 2.5V | 02:35:52 | 02:44:02 | 00:00:00 | |
| HSKMA3-T | 2026-09-01 01:12:19 | 49.65034 | 8.74795 | 86° | 86km/h | 13643m | -18.3m/s | -54.1°C | 2.5% | 156.8hPa | 2.5V | 02:37:34 | 02:44:00 | 00:00:00 | |
| DB0UT-7 | 2026-09-01 01:12:19 | 49.65034 | 8.74795 | 87° | 89km/h | 13643m | -18.3m/s | -54.0°C | 5.2% | 156.7hPa | 2.6V | 00:00:00 | 02:44:00 | 00:00:00 | |
| AM1SDL-15 | 2026-09-01 01:12:18 | 49.65033 | 8.74760 | 88° | 89km/h | 13661m | -18.7m/s | -54.1°C | 5.3% | 156.3hPa | 2.6V | 00:00:00 | 02:43:59 | 00:00:00 | |
| NBG1-10 | 2026-09-01 01:12:16 | 49.65031 | 8.74690 | 87° | 89km/h | 13697m | -17.5m/s | -54.3°C | 5.4% | 155.4hPa | 2.6V | 00:00:00 | 02:43:57 | 00:00:00 | |
| DM0DOS-11 | 2026-09-01 01:12:14 | 49.65022 | 8.74513 | 87° | 88km/h | 13782m | -16.9m/s | -54.4°C | 5.4% | 153.5hPa | 2.6V | 02:35:12 | 02:43:52 | 00:00:00 | |
| DL1NUX | 2026-09-01 01:12:14 | 49.65024 | 8.74548 | 86° | 88km/h | 13765m | -15.8m/s | -54.4°C | 5.4% | 153.8hPa | 2.5V | 02:35:11 | 02:43:53 | 00:00:00 | |
| BIOWL1-15 | 2026-09-01 01:12:10 | 49.65021 | 8.74478 | 87° | 89km/h | 13798m | -16m/s | -54.4°C | 2.5% | 153hPa | 2.6V | 02:35:52 | 02:43:51 | 00:00:00 | |
| HSKMA3-T | 2026-09-01 01:12:08 | 49.65019 | 8.74407 | 87° | 89km/h | 13830m | -16.7m/s | -54.4°C | 2.5% | 152.2hPa | 2.5V | 02:37:34 | 02:43:49 | 00:00:00 | |
| DF2AP-13 | 2026-09-01 01:12:07 | 49.65018 | 8.74372 | 86° | 89km/h | 13846m | -15.9m/s | -54.5°C | 5.4% | 151.8hPa | 2.6V | 00:00:00 | 02:43:48 | 00:00:00 | |
| DM0DOS-11 | 2026-09-01 01:12:04 | 49.65009 | 8.74162 | 86° | 89km/h | 13944m | -18.5m/s | -54.7°C | 5.3% | 149.5hPa | 2.6V | 02:35:22 | 02:43:42 | 00:00:00 | |
| BIOWL1-15 | 2026-09-01 01:11:59 | 49.65007 | 8.74054 | 90° | 91km/h | 13999m | -17.5m/s | -54.9°C | 2.3% | 148.3hPa | 2.5V | 02:35:52 | 02:43:39 | 00:00:00 | |
| HSKMA3-T | 2026-09-01 01:11:57 | 49.65007 | 8.74018 | 90° | 95km/h | 14016m | -18.7m/s | -54.8°C | 2.3% | 147.9hPa | 2.5V | 02:37:34 | 02:43:38 | 00:00:00 | |
| DM3KS-11 | 2026-09-01 01:11:55 | 49.65006 | 8.73943 | 88° | 95km/h | 14052m | -18.8m/s | -54.8°C | 2.3% | 147.1hPa | 2.5V | 00:00:00 | 00:00:00 | 00:00:00 | |
| DM0DOS-11 | 2026-09-01 01:11:54 | 49.65007 | 8.73798 | 92° | 89km/h | 14124m | -17.1m/s | -55°C | 5.2% | 145.4hPa | 2.5V | 02:35:32 | 02:43:32 | 00:00:00 | |
| BIOWL1-15 | 2026-09-01 01:11:48 | 49.65011 | 8.73693 | 94° | 88km/h | 14177m | -18.4m/s | -54.9°C | 2% | 144.2hPa | 2.6V | 02:35:52 | 02:43:29 | 00:00:00 | |
| HSKMA3-T | 2026-09-01 01:11:46 | 49.65014 | 8.73625 | 95° | 88km/h | 14212m | -18.9m/s | -54.9°C | 1.9% | 143.4hPa | 2.5V | 02:37:34 | 02:43:27 | 00:00:00 | |
| DM0DOS-11 | 2026-09-01 01:11:44 | 49.65019 | 8.73453 | 91° | 84km/h | 14303m | -18.8m/s | -55.1°C | 5.2% | 141.4hPa | 2.5V | 02:35:42 | 02:43:22 | 00:00:00 | |
| BIOWL1-15 | 2026-09-01 01:11:38 | 49.65020 | 8.73352 | 91° | 86km/h | 14358m | -19.6m/s | -55.2°C | 2% | 140.2hPa | 2.6V | 02:35:52 | 02:43:19 | 00:00:00 | |
| HSKMA3-T | 2026-09-01 01:11:36 | 49.65022 | 8.73284 | 92° | 89km/h | 14395m | -20.7m/s | -55.1°C | 2% | 139.4hPa | 2.5V | 02:37:34 | 02:43:17 | 00:00:00 | |
| DM0DOS-11 | 2026-09-01 01:11:34 | 49.65024 | 8.73106 | 91° | 88km/h | 14490m | -18.7m/s | -55.1°C | 5.2% | 137.3hPa | 2.5V | 02:35:52 | 02:43:12 | 00:00:00 | |
| DL1NUX | 2026-09-01 01:11:34 | 49.65023 | 8.73141 | 90° | 88km/h | 14472m | -19.2m/s | -55.2°C | 5.2% | 137.7hPa | 2.6V | 02:35:51 | 02:43:13 | 00:00:00 | |
| BIOWL1-15 | 2026-09-01 01:11:27 | 49.65030 | 8.72933 | 96° | 88km/h | 14582m | -18.5m/s | -55.2°C | 1.9% | 135.4hPa | 2.6V | 02:36:43 | 02:43:07 | 00:00:00 | |
| DB0NH | 2026-09-01 01:11:26 | 49.65030 | 8.72933 | 96° | 84km/h | 14582m | -18.4m/s | 0°C | 0% | 0hPa | 2.5V | 00:00:00 | 02:43:07 | 00:00:00 | |
| DM0DOS-11 | 2026-09-01 01:11:24 | 49.65043 | 8.72766 | 96° | 82km/h | 14668m | -17.3m/s | -55.4°C | 5.4% | 133.5hPa | 2.5V | 02:36:02 | 02:43:02 | 00:00:00 | |
| HSKMA3-T | 2026-09-01 01:11:23 | 49.65037 | 8.72830 | 97° | 88km/h | 14635m | -16.1m/s | -55.3°C | 1.8% | 134.2hPa | 2.5V | 02:37:34 | 02:43:04 | 00:00:00 | |
| BIOWL1-15 | 2026-09-01 01:11:17 | 49.65054 | 8.72637 | 95° | 84km/h | 14737m | -17.3m/s | -54.9°C | 1.6% | 132.1hPa | 2.5V | 02:36:43 | 02:42:58 | 00:00:00 | |
| HSKMA3-T | 2026-09-01 01:11:12 | 49.65060 | 8.72479 | 93° | 78km/h | 14828m | -18.5m/s | -54.5°C | 1.5% | 130.3hPa | 2.5V | 02:37:34 | 02:42:53 | 00:00:00 | |
| DK7TD | 2026-09-01 01:11:11 | 49.65061 | 8.72448 | 92° | 80km/h | 14847m | -18m/s | 0°C | 0% | 0hPa | 2.5V | 18:12:15 | 02:42:52 | 00:00:00 | |
| DM0DOS-11 | 2026-09-01 01:11:11 | 49.65061 | 8.72417 | 90° | 80km/h | 14864m | -17.9m/s | -54.2°C | 4.7% | 129.5hPa | 2.6V | 02:36:13 | 02:42:51 | 00:00:00 | |
| BIOWL1-15 | 2026-09-01 01:11:06 | 49.65063 | 8.72290 | 93° | 80km/h | 14932m | -17.5m/s | -53.7°C | 1.3% | 128.2hPa | 2.5V | 02:36:43 | 02:42:47 | 00:00:00 | |
| DL3AQ-11 | 2026-09-01 01:11:06 | 49.65064 | 8.72259 | 91° | 80km/h | 14947m | -14.4m/s | -53.7°C | 1.7% | 127.8hPa | 2.5V | 00:00:00 | 00:00:00 | 00:00:00 | |
| DL1NUX | 2026-09-01 01:11:04 | 49.65067 | 8.72168 | 94° | 77km/h | 14991m | -15.8m/s | -53.3°C | 4.5% | 126.9hPa | 2.5V | 02:36:21 | 02:42:43 | 00:00:00 | |
| HSKMA3-T | 2026-09-01 01:11:02 | 49.65067 | 8.72168 | 94° | 77km/h | 14991m | -15.8m/s | -53.3°C | 1.2% | 126.9hPa | 2.5V | 02:37:34 | 02:42:43 | 00:00:00 | |
| BIOWL1-15 | 2026-09-01 01:10:56 | 49.65085 | 8.71996 | 102° | 71km/h | 15072m | -14.8m/s | -53°C | 1.2% | 125.3hPa | 2.5V | 02:36:43 | 02:42:37 | 00:00:00 | |
| DF1GD-15 | 2026-09-01 01:10:55 | 49.65085 | 8.71996 | 103° | 71km/h | 15073m | -14.8m/s | -53.0°C | 1.7% | 125.3hPa | 2.6V | 02:36:00 | 00:00:00 | 00:00:00 | |
| DL1NUX | 2026-09-01 01:10:54 | 49.65099 | 8.71891 | 101° | 66km/h | 15140m | -17.6m/s | -53.3°C | 4.5% | 124.1hPa | 2.6V | 02:36:31 | 02:42:33 | 00:00:00 | |
| HSKMA3-T | 2026-09-01 01:10:50 | 49.65106 | 8.71837 | 100° | 71km/h | 15177m | -17.9m/s | -53°C | 1.2% | 123.5hPa | 2.5V | 02:37:34 | 02:42:31 | 00:00:00 | |
| BIOWL1-15 | 2026-09-01 01:10:45 | 49.65122 | 8.71706 | 99° | 69km/h | 15262m | -18.9m/s | -53.1°C | 1.2% | 121.8hPa | 2.5V | 02:36:43 | 02:42:26 | 00:00:00 | |
| DL1NUX | 2026-09-01 01:10:44 | 49.65129 | 8.71623 | 99° | 73km/h | 15315m | -16.8m/s | -53.2°C | 0% | 120.8hPa | 2.6V | 02:36:41 | 02:42:23 | 00:00:00 | |
| DL1XH-west | 2026-09-01 01:10:44 | 49.65124 | 8.71679 | 98° | 71km/h | 15280m | -18.5m/s | -53.2°C | 1.2% | 121.4hPa | 2.5V | 02:36:43 | 02:42:25 | 00:00:00 | |
| DB0NH | 2026-09-01 01:10:43 | 49.65127 | 8.71651 | 98° | 60km/h | 15298m | -17.8m/s | 0°C | 0% | 0hPa | 2.5V | 00:00:00 | 02:42:24 | 00:00:00 | |
| DK5PH-5 | 2026-09-01 01:10:42 | 49.65130 | 8.71623 | 100° | 58km/h | 15315m | -16.8m/s | -53.2°C | 4.5% | 120.7hPa | 2.5V | 00:00:00 | 02:42:23 | 00:00:00 | |
| DM7RM-13 | 2026-09-01 01:10:41 | 49.65129 | 8.71623 | 101° | 73km/h | 15315m | -16.8m/s | -53.2°C | 1.7% | 120.8hPa | 2.5V | 02:36:00 | 00:00:00 | 00:00:00 | |
| DL1XH1-15 | 2026-09-01 01:10:40 | 49.65154 | 8.71444 | 102° | 60km/h | 15422m | -14.7m/s | -53.1°C | 4.6% | 118.7hPa | 2.5V | 02:36:48 | 02:42:16 | 00:00:00 | |
| HSKMA3-T | 2026-09-01 01:10:38 | 49.65143 | 8.71518 | 103° | 68km/h | 15375m | -16.3m/s | -53.3°C | 1.2% | 119.6hPa | 2.5V | 02:37:34 | 02:42:19 | 00:00:00 | |
| BIOWL1-15 | 2026-09-01 01:10:35 | 49.65154 | 8.71444 | 102° | 60km/h | 15422m | -14.7m/s | -53.1°C | 1.3% | 118.7hPa | 2.5V | 02:37:34 | 02:42:16 | 00:00:00 | |
| DL1NUX | 2026-09-01 01:10:34 | 49.65163 | 8.71375 | 103° | 60km/h | 15471m | -18m/s | -52.9°C | 0% | 117.9hPa | 2.6V | 02:36:51 | 02:42:13 | 00:00:00 | |
| DL1XH-west | 2026-09-01 01:10:34 | 49.65157 | 8.71421 | 101° | 62km/h | 15437m | -15m/s | -52.9°C | 1.2% | 118.4hPa | 2.5V | 02:37:34 | 02:42:15 | 00:00:00 | |
| DM0DOS-11 | 2026-09-01 01:10:31 | 49.65170 | 8.71331 | 99° | 60km/h | 15506m | -21.6m/s | -52.8°C | 4.4% | 117.3hPa | 2.5V | 02:36:53 | 02:42:11 | 00:00:00 | |
| BIOWL1-15 | 2026-09-01 01:10:26 | 49.65183 | 8.71190 | 98° | 58km/h | 15624m | -19.5m/s | -52.6°C | 1.1% | 115.1hPa | 2.5V | 02:37:34 | 02:42:05 | 00:00:00 | |
| DM0DOS-11 | 2026-09-01 01:10:25 | 49.65192 | 8.71102 | 100° | 57km/h | 15704m | -20.8m/s | -52.2°C | 4.3% | 113.7hPa | 2.5V | 02:37:03 | 02:42:01 | 00:00:00 | |
| DL1NUX | 2026-09-01 01:10:24 | 49.65187 | 8.71145 | 100° | 57km/h | 15664m | -20.9m/s | -52.5°C | 0% | 114.4hPa | 2.6V | 02:37:01 | 02:42:03 | 00:00:00 | |
| DL1XH-west | 2026-09-01 01:10:23 | 49.65185 | 8.71167 | 98° | 57km/h | 15643m | -20.6m/s | -52.5°C | 1.1% | 114.8hPa | 2.5V | 02:37:34 | 02:42:04 | 00:00:00 | |
| HSKMA3-T | 2026-09-01 01:10:21 | 49.65190 | 8.71123 | 99° | 57km/h | 15684m | -20.9m/s | -52.4°C | 1.1% | 114hPa | 2.6V | 02:37:34 | 02:42:02 | 00:00:00 | |
| DD1CC8 | 2026-09-01 01:10:20 | 49.65192 | 8.71102 | 100° | 55km/h | 15704m | -20.8m/s | -52.2°C | 1.5% | 113.8hPa | 2.5V | 00:00:00 | 00:00:00 | 00:00:00 | |
| DB0UT-7 | 2026-09-01 01:10:19 | 49.65194 | 8.71080 | 99° | 47km/h | 15724m | -19.3m/s | -52.0°C | 4.3% | 113.3hPa | 2.5V | 00:00:00 | 02:42:00 | 00:00:00 | |
| DL0LBS | 2026-09-01 01:10:18 | 49.65194 | 8.71080 | 100° | 53km/h | 15724m | -19.4m/s | -52.0°C | 1.6% | 113.4hPa | 2.5V | 02:37:00 | 00:00:00 | 00:00:00 | |
| SFWM-10 | 2026-09-01 01:10:17 | 49.65196 | 8.71060 | 100° | 55km/h | 15742m | -18.6m/s | -52.0°C | 1.5% | 113.0hPa | 2.5V | 02:37:00 | 00:00:00 | 00:00:00 | |
| DB0UT-9 | 2026-09-01 01:10:16 | 49.65199 | 8.71020 | 94° | 49km/h | 15781m | -19.9m/s | -51.7°C | 1.5% | 112.4hPa | 2.5V | 02:37:00 | 00:00:00 | 00:00:00 | |
| BIOWL9-15 | 2026-09-01 01:10:15 | 49.65200 | 8.71001 | 94° | 44km/h | 15801m | -21.0m/s | -51.4°C | 1.4% | 112.0hPa | 2.5V | 00:00:00 | 00:00:00 | 00:00:00 | |
| DM0DOS-11 | 2026-09-01 01:10:14 | 49.65200 | 8.70909 | 88° | 46km/h | 15895m | -18.7m/s | -51.1°C | 3.9% | 110.4hPa | 2.5V | 02:37:13 | 02:41:51 | 00:00:00 | |
| DL1NUX | 2026-09-01 01:10:14 | 49.65200 | 8.70946 | 92° | 47km/h | 15858m | -17.6m/s | -51.2°C | 0% | 111hPa | 2.5V | 02:37:11 | 02:41:53 | 00:00:00 | |
| BIOWL1-15 | 2026-09-01 01:10:13 | 49.65200 | 8.70965 | 90° | 47km/h | 15840m | -18.4m/s | -51.5°C | 0.9% | 111.3hPa | 2.5V | 02:37:34 | 02:41:54 | 00:00:00 | |
| DL1XH-west | 2026-09-01 01:10:12 | 49.65201 | 8.70946 | 92° | 49km/h | 15858m | -17.6m/s | -51.2°C | 0.8% | 111hPa | 2.5V | 02:37:34 | 02:41:53 | 00:00:00 | |
| DK5PH-5 | 2026-09-01 01:10:12 | 49.65201 | 8.70946 | 93° | 47km/h | 15858m | -17.5m/s | -51.2°C | 4.0% | 111.0hPa | 2.5V | 00:00:00 | 02:41:53 | 00:00:00 | |
| DF2AP-13 | 2026-09-01 01:10:07 | 49.65199 | 8.70854 | 86° | 47km/h | 15951m | -18.0m/s | -51.1°C | 3.9% | 109.4hPa | 2.5V | 02:37:00 | 02:41:48 | 00:00:00 | |
| DL1NUX | 2026-09-01 01:10:04 | 49.65193 | 8.70760 | 81° | 46km/h | 16039m | -17.9m/s | -50.7°C | 0% | 107.9hPa | 2.5V | 02:37:21 | 02:41:43 | 00:00:00 | |
| BIOWL1-15 | 2026-09-01 01:10:04 | 49.65193 | 8.70760 | 82° | 46km/h | 16039m | -18m/s | -50.7°C | 0.7% | 107.9hPa | 2.5V | 02:37:34 | 02:41:43 | 00:00:00 | |
| DM0DOS-11 | 2026-09-01 01:10:03 | 49.65189 | 8.70722 | 80° | 51km/h | 16075m | -16.5m/s | -50.7°C | 3.8% | 107.3hPa | 2.5V | 02:37:23 | 02:41:41 | 00:00:00 | |
| DL1XH-west | 2026-09-01 01:10:01 | 49.65192 | 8.70741 | 80° | 51km/h | 16057m | -18.9m/s | -50.7°C | 0.8% | 107.7hPa | 2.5V | 02:37:34 | 02:41:42 | 00:00:00 | |
| HSKMA3-T | 2026-09-01 01:09:54 | 49.65182 | 8.70593 | 84° | 44km/h | 16197m | -18.8m/s | -50.8°C | 0.7% | 105.3hPa | 2.6V | 02:37:34 | 02:41:34 | 00:00:00 | |
| DM0DOS-11 | 2026-09-01 01:09:53 | 49.65179 | 8.70539 | 83° | 47km/h | 16254m | -20.1m/s | -50.9°C | 3.9% | 104.5hPa | 2.5V | 02:37:33 | 02:41:31 | 00:00:00 | |
| DL1XH-west | 2026-09-01 01:09:51 | 49.65180 | 8.70557 | 85° | 47km/h | 16235m | -19.2m/s | -51°C | 0.8% | 104.7hPa | 2.5V | 02:37:34 | 02:41:32 | 00:00:00 | |
| DM3KS-11 | 2026-09-01 01:09:51 | 49.65179 | 8.70539 | 83° | 47km/h | 16254m | -20.1m/s | -50.9°C | 1.3% | 104.5hPa | 2.6V | 00:00:00 | 00:00:00 | 00:00:00 | |
| DD1CC8 | 2026-09-01 01:09:49 | 49.65177 | 8.70521 | 80° | 42km/h | 16273m | -19.0m/s | -50.9°C | 1.3% | 104.1hPa | 2.6V | 00:00:00 | 00:00:00 | 00:00:00 | |
| DL3AQ-11 | 2026-09-01 01:09:45 | 49.65168 | 8.70450 | 80° | 46km/h | 16348m | -19.6m/s | -50.9°C | 1.3% | 103.0hPa | 2.6V | 00:00:00 | 00:00:00 | 00:00:00 | |
| DL1XH1-15 | 2026-09-01 01:09:44 | 49.65161 | 8.70341 | 85° | 49km/h | 16464m | -19.8m/s | -51.2°C | 3.8% | 101.1hPa | 2.6V | 02:37:44 | 02:41:20 | 00:00:00 | |
| BIOWL9-15 | 2026-09-01 01:09:44 | 49.65166 | 8.70432 | 79° | 44km/h | 16366m | -17.8m/s | -50.9°C | 1.3% | 102.6hPa | 2.6V | 00:00:00 | 00:00:00 | 00:00:00 | |
| HSKMA3-T | 2026-09-01 01:09:43 | 49.65164 | 8.70414 | 83° | 47km/h | 16385m | -19.6m/s | -50.9°C | 0.7% | 102.4hPa | 2.6V | 02:39:16 | 02:41:24 | 00:00:00 | |
| DM0DOS-11 | 2026-09-01 01:09:43 | 49.65162 | 8.70360 | 86° | 46km/h | 16445m | -20.4m/s | -51.1°C | 3.8% | 101.5hPa | 2.5V | 02:37:43 | 02:41:21 | 00:00:00 | |
| BIOWL1-15 | 2026-09-01 01:09:40 | 49.65161 | 8.70359 | 86° | 46km/h | 16445m | -20.4m/s | -51.1°C | 0.7% | 101.5hPa | 2.5V | 02:38:25 | 02:41:21 | 00:00:00 | |
| DM7RM-13 | 2026-09-01 01:09:39 | 49.65162 | 8.70360 | 87° | 46km/h | 16445m | -20.4m/s | -51.1°C | 1.3% | 101.5hPa | 2.6V | 02:38:00 | 00:00:00 | 00:00:00 | |
| DL0LBS | 2026-09-01 01:09:37 | 49.65160 | 8.70321 | 87° | 51km/h | 16484m | -19.8m/s | -51.2°C | 1.4% | 100.8hPa | 2.6V | 02:38:00 | 00:00:00 | 00:00:00 | |
| DF2AP-13 | 2026-09-01 01:09:35 | 49.65158 | 8.70267 | 87° | 38km/h | 16542m | -19.6m/s | -51.1°C | 3.8% | 99.9hPa | 2.6V | 00:00:00 | 02:41:16 | 00:00:00 | |
| DL1XH1-15 | 2026-09-01 01:09:34 | 49.65150 | 8.70175 | 76° | 38km/h | 16663m | -20.9m/s | -50.6°C | 3.6% | 98.1hPa | 2.6V | 02:37:54 | 02:41:10 | 00:00:00 | |
| HSKMA3-T | 2026-09-01 01:09:33 | 49.65157 | 8.70235 | 86° | 40km/h | 16581m | -19.8m/s | -51.2°C | 0.8% | 99.3hPa | 2.6V | 02:39:16 | 02:41:14 | 00:00:00 | |
| DM0DOS-11 | 2026-09-01 01:09:33 | 49.65153 | 8.70190 | 77° | 38km/h | 16641m | -21.6m/s | -50.6°C | 3.6% | 98.4hPa | 2.5V | 02:37:53 | 02:41:11 | 00:00:00 | |
| BIOWL1-15 | 2026-09-01 01:09:29 | 49.65151 | 8.70175 | 77° | 38km/h | 16663m | -20.9m/s | -50.6°C | 0.6% | 98.1hPa | 2.6V | 02:38:25 | 02:41:10 | 00:00:00 | |
| DL1NUX | 2026-09-01 01:09:28 | 49.65145 | 8.70147 | 71° | 38km/h | 16702m | -18.9m/s | -50.8°C | 0% | 97.5hPa | 2.5V | 02:37:56 | 02:41:08 | 00:00:00 | |
| DL1ZP-14 | 2026-09-01 01:09:26 | 49.65142 | 8.70133 | 71° | 35km/h | 16721m | -18.9m/s | -50.9°C | 1.3% | 97.2hPa | 2.5V | 00:00:00 | 00:00:00 | 00:00:00 | |
| DL8DAS-15 | 2026-09-01 01:09:25 | 49.65142 | 8.70133 | 73° | 37km/h | 16721m | -18.9m/s | -50.9°C | 1.3% | 97.2hPa | 2.6V | 00:00:00 | 00:00:00 | 00:00:00 | |
| DL1XH1-15 | 2026-09-01 01:09:24 | 49.65113 | 8.70031 | 62° | 42km/h | 16844m | -19.6m/s | -51.6°C | 3.8% | 95.4hPa | 2.6V | 02:38:04 | 02:41:00 | 00:00:00 | |
| DL8DAS-14 | 2026-09-01 01:09:24 | 49.65135 | 8.70106 | 64° | 38km/h | 16757m | -19.6m/s | -51.1°C | 1.3% | 96.7hPa | 2.5V | 00:00:00 | 00:00:00 | 00:00:00 | |
| DM0DOS-11 | 2026-09-01 01:09:23 | 49.65117 | 8.70046 | 63° | 42km/h | 16826m | -17.8m/s | -51.5°C | 3.8% | 95.6hPa | 2.5V | 02:38:03 | 02:41:01 | 00:00:00 | |
| HSKMA3-T | 2026-09-01 01:09:22 | 49.65127 | 8.70077 | 63° | 44km/h | 16793m | -16.6m/s | -51.3°C | 0.7% | 96.1hPa | 2.5V | 02:39:16 | 02:41:03 | 00:00:00 | |
| DL3AQ-11 | 2026-09-01 01:09:22 | 49.65122 | 8.70061 | 63° | 46km/h | 16809m | -16.7m/s | -51.4°C | 1.3% | 95.9hPa | 2.5V | 00:00:00 | 00:00:00 | 00:00:00 | |
| DL1NUX | 2026-09-01 01:09:21 | 49.65099 | 8.69992 | 56° | 38km/h | 16904m | -19.2m/s | -52°C | 0% | 94.5hPa | 2.5V | 02:38:07 | 02:40:57 | 00:00:00 | |
| DL1XH-west | 2026-09-01 01:09:19 | 49.65113 | 8.70031 | 62° | 42km/h | 16844m | -19.6m/s | -51.7°C | 0.7% | 95.4hPa | 2.6V | 02:38:25 | 02:41:00 | 00:00:00 | |
| AM1SDL-15 | 2026-09-01 01:09:18 | 49.65108 | 8.70017 | 62° | 37km/h | 16864m | -20.5m/s | -51.7°C | 3.8% | 95.0hPa | 2.5V | 00:00:00 | 02:40:59 | 00:00:00 | |
| DL0LBS | 2026-09-01 01:09:17 | 49.65108 | 8.70017 | 62° | 37km/h | 16864m | -20.6m/s | -51.8°C | 1.3% | 95.1hPa | 2.5V | 02:38:00 | 00:00:00 | 00:00:00 | |
| DM0DOS-11 | 2026-09-01 01:09:15 | 49.65063 | 8.69928 | 38° | 38km/h | 17015m | -17.5m/s | -52°C | 3.9% | 92.9hPa | 2.5V | 02:38:13 | 02:40:51 | 00:00:00 | |
| DL1XH1-15 | 2026-09-01 01:09:14 | 49.65056 | 8.69920 | 31° | 33km/h | 17031m | -16.2m/s | -52°C | 3.9% | 92.6hPa | 2.6V | 02:38:14 | 02:40:50 | 00:00:00 | |
| HSKMA3-T | 2026-09-01 01:09:12 | 49.65076 | 8.69946 | 48° | 35km/h | 16979m | -18.8m/s | -51.7°C | 0.8% | 93.4hPa | 2.5V | 02:39:16 | 02:40:53 | 00:00:00 | |
| BIOWL1-15 | 2026-09-01 01:09:11 | 49.65056 | 8.69920 | 31° | 33km/h | 17032m | -16.2m/s | -52.1°C | 0.8% | 92.6hPa | 2.6V | 02:38:25 | 02:40:50 | 00:00:00 | |
| NBG1-10 | 2026-09-01 01:09:09 | 49.65056 | 8.69920 | 32° | 22km/h | 17032m | -16.1m/s | 0°C | 0% | 0hPa | 2.5V | 00:00:00 | 02:40:50 | 00:00:00 | |
| DL1NUX | 2026-09-01 01:09:08 | 49.65034 | 8.69899 | 30° | 35km/h | 17078m | -16.8m/s | -52.2°C | 0% | 91.9hPa | 2.5V | 02:38:17 | 02:40:47 | 00:00:00 | |
| DL1XH-west | 2026-09-01 01:09:08 | 49.65049 | 8.69913 | 34° | 35km/h | 17047m | -15.4m/s | -52.1°C | 0.8% | 92.4hPa | 2.6V | 02:38:25 | 02:40:49 | 00:00:00 | |
| HEMX73-11 | 2026-09-01 01:09:06 | 49.65034 | 8.69899 | 31° | 35km/h | 17078m | -16.8m/s | -52.2°C | 1.4% | 91.9hPa | 2.6V | 02:38:00 | 00:00:00 | 00:00:00 | |
| DF2AP-13 | 2026-09-01 01:09:05 | 49.65027 | 8.69892 | 32° | 42km/h | 17096m | -19.4m/s | -52.1°C | 4.0% | 91.7hPa | 2.6V | 00:00:00 | 02:40:46 | 00:00:00 | |
| DL1XH1-15 | 2026-09-01 01:09:04 | 49.64984 | 8.69846 | 42° | 35km/h | 17198m | -21m/s | -52.9°C | 4.3% | 90.3hPa | 2.6V | 02:38:24 | 02:40:40 | 00:00:00 | |
| DM0DOS-11 | 2026-09-01 01:09:04 | 49.64991 | 8.69855 | 35° | 33km/h | 17180m | -16.6m/s | -52.8°C | 4.2% | 90.5hPa | 2.5V | 02:38:23 | 02:40:41 | 00:00:00 | |
| DL8DAS-15 | 2026-09-01 01:09:03 | 49.65019 | 8.69885 | 34° | 38km/h | 17114m | -19.2m/s | -52.2°C | 1.3% | 91.5hPa | 2.5V | 00:00:00 | 00:00:00 | 00:00:00 | |
| DF3TZ-5 | 2026-09-01 01:09:02 | 49.64954 | 8.69790 | 57° | 40km/h | 17297m | -21.2m/s | -53.1°C | 1.5% | 89.0hPa | 2.5V | 00:00:00 | 00:00:00 | 00:00:00 | |
| DL1NUX | 2026-09-01 01:09:01 | 49.64966 | 8.69815 | 48° | 38km/h | 17256m | -20.5m/s | 0°C | 0% | 0hPa | 2.5V | 02:38:27 | 02:40:37 | 00:00:00 | |
| BIOWL1-15 | 2026-09-01 01:08:58 | 49.64978 | 8.69837 | 47° | 35km/h | 17218m | -19.1m/s | -52.9°C | 1% | 90hPa | 2.6V | 02:38:25 | 02:40:39 | 00:00:00 | |
| DL1XH-west | 2026-09-01 01:08:57 | 49.64972 | 8.69826 | 49° | 37km/h | 17237m | -20.5m/s | -52.9°C | 1.1% | 89.8hPa | 2.5V | 02:39:16 | 02:40:38 | 00:00:00 | |
| DL0LBS | 2026-09-01 01:08:56 | 49.64972 | 8.69826 | 50° | 37km/h | 17237m | -20.5m/s | -52.9°C | 1.5% | 89.8hPa | 2.5V | 02:39:00 | 00:00:00 | 00:00:00 | |
| DB0UT-9 | 2026-09-01 01:08:55 | 49.64960 | 8.69803 | 55° | 40km/h | 17277m | -20.9m/s | -53.0°C | 1.5% | 89.2hPa | 2.5V | 02:39:00 | 00:00:00 | 00:00:00 | |
| DM0DOS-11 | 2026-09-01 01:08:54 | 49.64935 | 8.69733 | 70° | 44km/h | 17371m | -18.9m/s | -53.4°C | 4.6% | 88hPa | 2.5V | 02:38:33 | 02:40:31 | 00:00:00 | |
| SONDE2-11 | 2026-09-01 01:08:54 | 49.64949 | 8.69776 | 57° | 37km/h | 17316m | -18.4m/s | -53.2°C | 1.5% | 88.7hPa | 2.5V | 00:00:00 | 00:00:00 | 00:00:00 | |
| DL3AQ-11 | 2026-09-01 01:08:53 | 49.64944 | 8.69763 | 60° | 38km/h | 17334m | -19.2m/s | -53.3°C | 1.5% | 88.4hPa | 2.5V | 00:00:00 | 00:00:00 | 00:00:00 | |
| DL1XH1-15 | 2026-09-01 01:08:52 | 49.64923 | 8.69682 | 74° | 47km/h | 17435m | -22.5m/s | -53.6°C | 4.8% | 87.1hPa | 2.5V | 02:38:36 | 02:40:28 | 00:00:00 | |
| BIOWL1-15 | 2026-09-01 01:08:47 | 49.64924 | 8.69682 | 75° | 47km/h | 17435m | -22.5m/s | -53.6°C | 1.3% | 87.2hPa | 2.5V | 02:39:16 | 02:40:28 | 00:00:00 | |
| DL1XH-west | 2026-09-01 01:08:46 | 49.64921 | 8.69664 | 79° | 47km/h | 17456m | -21.1m/s | -53.5°C | 1.3% | 86.8hPa | 2.5V | 02:39:16 | 02:40:27 | 00:00:00 | |
| HEMX73-11 | 2026-09-01 01:08:45 | 49.64921 | 8.69664 | 80° | 47km/h | 17457m | -21.1m/s | -53.5°C | 1.6% | 86.8hPa | 2.5V | 02:39:00 | 00:00:00 | 00:00:00 | |
| DL1NUX | 2026-09-01 01:08:44 | 49.64916 | 8.69587 | 90° | 51km/h | 17542m | -20.3m/s | 0°C | 0% | 0hPa | 2.5V | 02:38:41 | 02:40:23 | 00:00:00 | |
| DM0DOS-11 | 2026-09-01 01:08:43 | 49.64917 | 8.69548 | 97° | 49km/h | 17580m | -19.6m/s | -52.5°C | 4.4% | 85.1hPa | 2.5V | 02:38:43 | 02:40:21 | 00:00:00 | |
| DB0ND-19 | 2026-09-01 01:08:43 | 49.64916 | 8.69587 | 90° | 49km/h | 17542m | -20.3m/s | -52.6°C | 1.5% | 85.7hPa | 2.5V | 00:00:00 | 00:00:00 | 00:00:00 | |
| DL3AQ-11 | 2026-09-01 01:08:42 | 49.64916 | 8.69567 | 92° | 49km/h | 17561m | -18.9m/s | -52.5°C | 1.5% | 85.4hPa | 2.5V | 00:00:00 | 00:00:00 | 00:00:00 | |
| AM1SDL-15 | 2026-09-01 01:08:39 | 49.64919 | 8.69530 | 99° | 33km/h | 17600m | -21.1m/s | -52.2°C | 4.3% | 84.8hPa | 2.5V | 00:00:00 | 02:40:20 | 00:00:00 | |
| DL1XH1-15 | 2026-09-01 01:08:38 | 49.64923 | 8.69497 | 99° | 42km/h | 17640m | -19.4m/s | -51.7°C | 4.1% | 84.4hPa | 2.5V | 02:38:46 | 02:40:18 | 00:00:00 | |
| BIOWL1-15 | 2026-09-01 01:08:37 | 49.64923 | 8.69497 | 100° | 42km/h | 17640m | -19.4m/s | -51.7°C | 1% | 84.4hPa | 2.5V | 02:39:16 | 02:40:18 | 00:00:00 | |
| DL1XH-west | 2026-09-01 01:08:36 | 49.64924 | 8.69481 | 101° | 40km/h | 17659m | -19.3m/s | -51.5°C | 0.9% | 84.1hPa | 2.5V | 02:39:16 | 02:40:17 | 00:00:00 | |
| DF2AP-13 | 2026-09-01 01:08:35 | 49.64926 | 8.69467 | 103° | 22km/h | 17678m | -19.2m/s | -51.2°C | 3.9% | 83.8hPa | 2.5V | 02:38:00 | 02:40:16 | 00:00:00 | |
| DL1NUX | 2026-09-01 01:08:34 | 49.64931 | 8.69431 | 106° | 27km/h | 17734m | -16.7m/s | 0°C | 0% | 0hPa | 2.5V | 02:38:51 | 02:40:13 | 00:00:00 | |
| DJ2DS-15 | 2026-09-01 01:08:34 | 49.64928 | 8.69453 | 101° | 22km/h | 17697m | -19.5m/s | -51.0°C | 3.8% | 83.6hPa | 2.6V | 00:00:00 | 02:40:15 | 00:00:00 | |
| DM0DOS-11 | 2026-09-01 01:08:33 | 49.64936 | 8.69402 | 104° | 20km/h | 17784m | -16.5m/s | -50.6°C | 3.7% | 82.4hPa | 2.6V | 02:38:54 | 02:40:10 | 00:00:00 | |
| DL1XH1-15 | 2026-09-01 01:08:32 | 49.64937 | 8.69385 | 102° | 22km/h | 17820m | -18.3m/s | -50.6°C | 3.7% | 82hPa | 2.5V | 02:38:56 | 02:40:08 | 00:00:00 | |
| BIOWL1-15 | 2026-09-01 01:08:26 | 49.64940 | 8.69333 | 96° | 15km/h | 17957m | -19.7m/s | -50.9°C | 0.6% | 80.4hPa | 2.5V | 02:39:16 | 02:40:01 | 00:00:00 | |
| DL1XH-west | 2026-09-01 01:08:25 | 49.64939 | 8.69370 | 92° | 22km/h | 17859m | -19.6m/s | -50.5°C | 0.6% | 81.6hPa | 2.5V | 02:39:16 | 02:40:06 | 00:00:00 | |
| DL4BBY-15 | 2026-09-01 01:08:25 | 49.64939 | 8.69370 | 93° | 24km/h | 17859m | -19.6m/s | -51.2°C | 0% | 0hPa | 2.5V | 00:00:00 | 00:00:00 | 00:00:00 | |
| DL1NUX | 2026-09-01 01:08:24 | 49.64940 | 8.69339 | 84° | 20km/h | 17937m | -19.6m/s | 0°C | 0% | 0hPa | 2.5V | 02:39:02 | 02:40:02 | 00:00:00 | |
| HSKMA3-T | 2026-09-01 01:08:23 | 49.64940 | 8.69353 | 95° | 20km/h | 17897m | -19m/s | -50.5°C | 0.6% | 81.1hPa | 2.6V | 02:39:16 | 02:40:04 | 00:00:00 | |
| DL8DAS-14 | 2026-09-01 01:08:22 | 49.64940 | 8.69346 | 88° | 15km/h | 17917m | -20.4m/s | -50.6°C | 1.2% | 80.8hPa | 2.6V | 00:00:00 | 00:00:00 | 00:00:00 | |
| DB0UT-7 | 2026-09-01 01:08:19 | 49.64939 | 8.69326 | 77° | 27km/h | 17978m | -21.3m/s | -50.9°C | 3.6% | 80.1hPa | 2.6V | 02:39:00 | 02:40:00 | 00:00:00 | |
| DL1XH1-15 | 2026-09-01 01:08:18 | 49.64938 | 8.69315 | 82° | 15km/h | 18021m | -23m/s | -51.1°C | 3.6% | 79.6hPa | 2.5V | 02:39:06 | 02:39:58 | 00:00:00 | |
| DJTTGO | 2026-09-01 01:08:17 | 49.64938 | 8.69315 | 84° | 15km/h | 18021m | -23.0m/s | -51.2°C | 1.2% | 79.6hPa | 2.5V | 00:00:00 | 00:00:00 | 00:00:00 | |
| DD1CC8 | 2026-09-01 01:08:16 | 49.64937 | 8.69309 | 79° | 15km/h | 18044m | -22.6m/s | -51.3°C | 1.2% | 79.4hPa | 2.5V | 00:00:00 | 00:00:00 | 00:00:00 | |
| AM1SDL-15 | 2026-09-01 01:08:15 | 49.64936 | 8.69304 | 64° | 20km/h | 18066m | -21.7m/s | -51.4°C | 3.8% | 79.0hPa | 2.5V | 02:39:00 | 02:39:56 | 00:00:00 | |
| DM0DOS-11 | 2026-09-01 01:08:14 | 49.64920 | 8.69270 | 43° | 24km/h | 18180m | -19.5m/s | -52.2°C | 4% | 77.6hPa | 2.6V | 02:39:14 | 02:39:50 | 00:00:00 | |
| DL1XH-west | 2026-09-01 01:08:14 | 49.64935 | 8.69299 | 58° | 16km/h | 18087m | -20.9m/s | -51.6°C | 0.7% | 78.8hPa | 2.6V | 02:39:16 | 02:39:55 | 00:00:00 | |
| BIOWL1-15 | 2026-09-01 01:08:12 | 49.64930 | 8.69289 | 45° | 16km/h | 18126m | -18.7m/s | -51.9°C | 0.9% | 78.2hPa | 2.5V | 02:39:16 | 02:39:53 | 00:00:00 | |
| HSKMA3-T | 2026-09-01 01:08:06 | 49.64906 | 8.69245 | 51° | 31km/h | 18237m | -20.7m/s | -52.5°C | 1% | 77hPa | 2.5V | 02:40:07 | 02:39:47 | 00:00:00 | |
| DF2AP-13 | 2026-09-01 01:08:05 | 49.64901 | 8.69235 | 49° | 27km/h | 18258m | -20.4m/s | -52.6°C | 4.1% | 76.6hPa | 2.6V | 00:00:00 | 02:39:46 | 00:00:00 | |
| DM0DOS-11 | 2026-09-01 01:08:04 | 49.64871 | 8.69176 | 56° | 35km/h | 18394m | -23.7m/s | -52.9°C | 4.2% | 75.1hPa | 2.6V | 02:39:24 | 02:39:40 | 00:00:00 | |
| DL1XH-west | 2026-09-01 01:08:03 | 49.64891 | 8.69217 | 48° | 29km/h | 18301m | -23.3m/s | -52.8°C | 1% | 76.2hPa | 2.6V | 02:40:07 | 02:39:44 | 00:00:00 | |
| BIOWL1-15 | 2026-09-01 01:08:01 | 49.64847 | 8.69114 | 63° | 38km/h | 18499m | -17.9m/s | -53.3°C | 1.1% | 73.9hPa | 2.6V | 02:40:07 | 02:39:35 | 00:00:00 | |
| SONCRA | 2026-09-01 01:08:00 | 49.64871 | 8.69176 | 56° | 35km/h | 18394m | -23.7m/s | -52.9°C | 1.4% | 75.1hPa | 2.5V | 00:00:00 | 00:00:00 | 00:00:00 | |
| DL1XH1-15 | 2026-09-01 01:07:58 | 49.64861 | 8.69152 | 62° | 38km/h | 18439m | -22.3m/s | -52.9°C | 4.2% | 74.6hPa | 2.5V | 02:39:26 | 02:39:38 | 00:00:00 | |
| DM7RM-13 | 2026-09-01 01:07:57 | 49.64866 | 8.69164 | 57° | 37km/h | 18418m | -22.7m/s | -52.9°C | 1.4% | 74.9hPa | 2.6V | 02:40:00 | 00:00:00 | 00:00:00 | |
| DL0LBS | 2026-09-01 01:07:55 | 49.64856 | 8.69138 | 58° | 40km/h | 18461m | -19.9m/s | -53.0°C | 1.4% | 74.3hPa | 2.6V | 02:40:00 | 00:00:00 | 00:00:00 | |
| DM0DOS-11 | 2026-09-01 01:07:54 | 49.64827 | 8.69057 | 56° | 27km/h | 18581m | -18.8m/s | -52.9°C | 4.2% | 72.9hPa | 2.6V | 02:39:34 | 02:39:30 | 00:00:00 | |
| DL1XH-west | 2026-09-01 01:07:52 | 49.64838 | 8.69089 | 62° | 35km/h | 18533m | -16.2m/s | -53.4°C | 1.1% | 73.5hPa | 2.5V | 02:40:07 | 02:39:33 | 00:00:00 | |
| HSKMA3-T | 2026-09-01 01:07:51 | 49.64835 | 8.69077 | 64° | 31km/h | 18548m | -14.6m/s | -53.3°C | 1.1% | 73.2hPa | 2.5V | 02:40:07 | 02:39:32 | 00:00:00 | |
| BIOWL1-15 | 2026-09-01 01:07:49 | 49.64820 | 8.69042 | 50° | 22km/h | 18618m | -19.6m/s | -52.7°C | 1% | 72.5hPa | 2.5V | 02:40:07 | 02:39:28 | 00:00:00 | |
| DB0UT-7 | 2026-09-01 01:07:49 | 49.64827 | 8.69057 | 57° | 18km/h | 18581m | -18.8m/s | -52.9°C | 4.2% | 72.9hPa | 2.5V | 00:00:00 | 00:00:00 | 00:00:00 | |
| DL1NUX | 2026-09-01 01:07:48 | 49.64820 | 8.69042 | 50° | 22km/h | 18618m | -19.6m/s | 0°C | 0% | 0hPa | 2.5V | 00:00:00 | 02:39:28 | 00:00:00 | |
| DM3KS-11 | 2026-09-01 01:07:47 | 49.64817 | 8.69035 | 45° | 18km/h | 18637m | -18.6m/s | -52.5°C | 1.3% | 72.2hPa | 2.6V | 00:00:00 | 00:00:00 | 00:00:00 | |
| DL3AQ-11 | 2026-09-01 01:07:46 | 49.64814 | 8.69030 | 54° | 16km/h | 18655m | -18.0m/s | -52.5°C | 1.3% | 72.1hPa | 2.6V | 00:00:00 | 00:00:00 | 00:00:00 | |
| DD1CC8 | 2026-09-01 01:07:45 | 49.64814 | 8.69030 | 54° | 16km/h | 18655m | -18.0m/s | -52.5°C | 1.3% | 72.1hPa | 2.6V | 00:00:00 | 00:00:00 | 00:00:00 | |
| DM0DOS-11 | 2026-09-01 01:07:44 | 49.64798 | 8.68998 | 50° | 18km/h | 18773m | -20.8m/s | -52.4°C | 3.9% | 70.8hPa | 2.6V | 02:39:44 | 02:39:20 | 00:00:00 | |
| DL1XH-west | 2026-09-01 01:07:42 | 49.64805 | 8.69013 | 52° | 16km/h | 18711m | -21.4m/s | -52.1°C | 0.8% | 71.5hPa | 2.5V | 02:40:07 | 02:39:23 | 00:00:00 | |
| BIOWL1-15 | 2026-09-01 01:07:36 | 49.64790 | 8.68981 | 47° | 16km/h | 18828m | -19.1m/s | -52.8°C | 0.9% | 70.1hPa | 2.5V | 02:40:07 | 02:39:17 | 00:00:00 | |
| DF2AP-13 | 2026-09-01 01:07:35 | 49.64787 | 8.68977 | 45° | 24km/h | 18849m | -21.9m/s | -52.8°C | 4.0% | 70.0hPa | 2.6V | 00:00:00 | 02:39:16 | 00:00:00 | |
| DM0DOS-11 | 2026-09-01 01:07:34 | 49.64772 | 8.68949 | 56° | 15km/h | 18958m | -15.7m/s | -53.6°C | 4.4% | 68.7hPa | 2.6V | 02:39:54 | 02:39:10 | 00:00:00 | |
| DJ2DS-15 | 2026-09-01 01:07:34 | 49.64784 | 8.68972 | 50° | 22km/h | 18870m | -19.7m/s | -52.8°C | 4.0% | 69.7hPa | 2.5V | 00:00:00 | 02:39:15 | 00:00:00 | |
| DL1XH1-15 | 2026-09-01 01:07:32 | 49.64769 | 8.68939 | 65° | 16km/h | 18986m | -14m/s | -53.8°C | 4.5% | 68.4hPa | 2.5V | 02:39:56 | 02:39:08 | 00:00:00 | |
| DL1XH-west | 2026-09-01 01:07:32 | 49.64779 | 8.68963 | 48° | 18km/h | 18909m | -19.6m/s | -53.3°C | 1% | 69.3hPa | 2.5V | 02:40:07 | 02:39:13 | 00:00:00 | |
| HSKMA3-T | 2026-09-01 01:07:29 | 49.64772 | 8.68949 | 57° | 15km/h | 18958m | -15.7m/s | -53.6°C | 1.1% | 68.7hPa | 2.6V | 02:40:07 | 02:39:10 | 00:00:00 | |
| BIOWL1-15 | 2026-09-01 01:07:26 | 49.64767 | 8.68933 | 69° | 15km/h | 19002m | -18.9m/s | -53.8°C | 1.2% | 68.3hPa | 2.5V | 02:40:07 | 02:39:07 | 00:00:00 | |
| DH7VM-15 | 2026-09-01 01:07:24 | 49.64767 | 8.68927 | 87° | 18km/h | 19021m | -19.4m/s | -54.0°C | 1.4% | 68.1hPa | 2.6V | 00:00:00 | 00:00:00 | 00:00:00 | |
| DM0DOS-11 | 2026-09-01 01:07:23 | 49.64762 | 8.68862 | 84° | 33km/h | 19147m | -20.5m/s | -54°C | 4.5% | 66.8hPa | 2.6V | 02:40:05 | 02:38:59 | 00:00:00 | |
| DL1XH-west | 2026-09-01 01:07:21 | 49.64765 | 8.68895 | 83° | 26km/h | 19089m | -15m/s | -54.2°C | 1.3% | 67.3hPa | 2.5V | 02:40:07 | 02:39:02 | 00:00:00 | |
| HSKMA3-T | 2026-09-01 01:07:19 | 49.64763 | 8.68874 | 83° | 27km/h | 19127m | -21.1m/s | -54.2°C | 1.2% | 67hPa | 2.6V | 02:40:07 | 02:39:00 | 00:00:00 | |
| DB0UT-7 | 2026-09-01 01:07:19 | 49.64763 | 8.68874 | 83° | 29km/h | 19127m | -21.1m/s | -54.1°C | 4.5% | 67.0hPa | 2.5V | 00:00:00 | 02:39:00 | 00:00:00 | |
| DL1XH1-15 | 2026-09-01 01:07:18 | 49.64762 | 8.68850 | 86° | 33km/h | 19166m | -19.5m/s | -54°C | 4.5% | 66.5hPa | 2.5V | 02:40:06 | 02:38:58 | 00:00:00 | |
| BIOWL1-15 | 2026-09-01 01:07:16 | 49.64761 | 8.68837 | 84° | 31km/h | 19186m | -20m/s | -54.1°C | 1.2% | 66.4hPa | 2.5V | 02:40:07 | 02:38:57 | 00:00:00 | |
| DM7RM-13 | 2026-09-01 01:07:15 | 49.64761 | 8.68837 | 85° | 29km/h | 19186m | -20.0m/s | -54.1°C | 1.5% | 66.4hPa | 2.6V | 02:40:00 | 00:00:00 | 00:00:00 | |
| DJ2DS-15 | 2026-09-01 01:07:14 | 49.64761 | 8.68812 | 92° | 29km/h | 19227m | -21.3m/s | -54.3°C | 4.7% | 65.9hPa | 2.6V | 02:40:00 | 02:38:55 | 00:00:00 | |
| DL1XH1-15 | 2026-09-01 01:07:12 | 49.64758 | 8.68740 | 71° | 22km/h | 19365m | -19.7m/s | -53.4°C | 4.4% | 64.5hPa | 2.6V | 02:40:16 | 02:38:48 | 00:00:00 | |
| DK5PH-5 | 2026-09-01 01:07:12 | 49.64760 | 8.68789 | 90° | 27km/h | 19267m | -20.4m/s | -54.1°C | 4.8% | 65.5hPa | 2.6V | 00:00:00 | 02:38:53 | 00:00:00 | |
| DM0DOS-11 | 2026-09-01 01:07:11 | 49.64759 | 8.68748 | 76° | 22km/h | 19346m | -20.1m/s | -53.3°C | 4.4% | 64.8hPa | 2.6V | 02:40:15 | 02:38:49 | 00:00:00 | |
| DL1XH-west | 2026-09-01 01:07:10 | 49.64760 | 8.68767 | 83° | 26km/h | 19306m | -21.1m/s | -53.7°C | 1.2% | 65.2hPa | 2.5V | 02:40:58 | 02:38:51 | 00:00:00 | |
| HSKMA3-T | 2026-09-01 01:07:09 | 49.64760 | 8.68757 | 83° | 24km/h | 19327m | -20.2m/s | -53.4°C | 1.1% | 64.9hPa | 2.5V | 02:40:58 | 02:38:50 | 00:00:00 | |
| BIOWL1-15 | 2026-09-01 01:07:05 | 49.64743 | 8.68706 | 44° | 29km/h | 19452m | -22.9m/s | -53.9°C | 1.2% | 63.7hPa | 2.5V | 02:40:58 | 02:38:44 | 00:00:00 | |
| DL1XH-west | 2026-09-01 01:07:00 | 49.64725 | 8.68680 | 39° | 31km/h | 19518m | -23m/s | -53.9°C | 1.3% | 63hPa | 2.5V | 02:40:58 | 02:38:41 | 00:00:00 | |
| DM0DOS-11 | 2026-09-01 01:06:59 | 49.64713 | 8.68661 | 44° | 37km/h | 19561m | -20.1m/s | -53.9°C | 4.8% | 62.6hPa | 2.5V | 02:40:25 | 02:38:39 | 00:00:00 | |
| BIOWL1-15 | 2026-09-01 01:06:59 | 49.64697 | 8.68631 | 60° | 29km/h | 19614m | -19.5m/s | -53.2°C | 1.1% | 62.1hPa | 2.5V | 02:40:58 | 02:38:36 | 00:00:00 | |
| DL1XH1-15 | 2026-09-01 01:06:58 | 49.64707 | 8.68652 | 48° | 33km/h | 19579m | -16.4m/s | -53.7°C | 4.8% | 62.4hPa | 2.6V | 02:40:26 | 02:38:38 | 00:00:00 | |
| SONCRA | 2026-09-01 01:06:58 | 49.64707 | 8.68652 | 48° | 31km/h | 19579m | -16.4m/s | -53.7°C | 1.5% | 62.4hPa | 2.5V | 00:00:00 | 00:00:00 | 00:00:00 | |
| HSKMA3-T | 2026-09-01 01:06:58 | 49.64713 | 8.68661 | 45° | 37km/h | 19561m | -20.1m/s | -53.9°C | 1.4% | 62.6hPa | 2.5V | 02:40:58 | 02:38:39 | 00:00:00 | |
| DF3TZ-5 | 2026-09-01 01:06:57 | 49.64707 | 8.68652 | 48° | 31km/h | 19579m | -16.4m/s | -53.7°C | 1.5% | 62.4hPa | 2.5V | 00:00:00 | 00:00:00 | 00:00:00 | |
| KANTATE | 2026-09-01 01:06:55 | 49.64701 | 8.68642 | 57° | 35km/h | 19596m | -16.6m/s | -53.3°C | 1.4% | 62.2hPa | 2.5V | 00:00:00 | 00:00:00 | 00:00:00 | |
| DJ2DS-15 | 2026-09-01 01:06:54 | 49.64694 | 8.68621 | 66° | 24km/h | 19633m | -18.5m/s | -53.2°C | 4.5% | 61.9hPa | 2.5V | 00:00:00 | 02:38:35 | 00:00:00 | |
| DM0DOS-11 | 2026-09-01 01:06:53 | 49.64685 | 8.68561 | 78° | 27km/h | 19749m | -20.9m/s | -53°C | 4.4% | 60.8hPa | 2.5V | 02:40:35 | 02:38:29 | 00:00:00 | |
| DL3AQ-11 | 2026-09-01 01:06:53 | 49.64690 | 8.68601 | 77° | 24km/h | 19669m | -19.4m/s | -53.0°C | 1.4% | 61.6hPa | 2.6V | 00:00:00 | 00:00:00 | 00:00:00 | |
| DL1XH1-15 | 2026-09-01 01:06:52 | 49.64683 | 8.68551 | 78° | 24km/h | 19770m | -22.4m/s | -53°C | 4.4% | 60.7hPa | 2.6V | 02:40:36 | 02:38:28 | 00:00:00 | |
| DL1XH-west | 2026-09-01 01:06:50 | 49.64687 | 8.68581 | 84° | 26km/h | 19708m | -19.9m/s | -52.8°C | 1.1% | 61.2hPa | 2.5V | 02:40:58 | 02:38:31 | 00:00:00 | |
| HSKMA3-T | 2026-09-01 01:06:48 | 49.64685 | 8.68561 | 79° | 29km/h | 19749m | -20.9m/s | -53°C | 1.1% | 60.8hPa | 2.5V | 02:40:58 | 02:38:29 | 00:00:00 | |
| BIOWL1-15 | 2026-09-01 01:06:48 | 49.64679 | 8.68521 | 83° | 26km/h | 19829m | -18.8m/s | -52.3°C | 1% | 60.1hPa | 2.5V | 02:40:58 | 02:38:25 | 00:00:00 | |
| DL1NUX | 2026-09-01 01:06:44 | 49.64677 | 8.68501 | 83° | 24km/h | 19865m | -17.1m/s | 0°C | 0% | 0hPa | 2.5V | 00:00:00 | 02:38:23 | 00:00:00 | |
| DL1XH-west | 2026-09-01 01:06:39 | 49.64680 | 8.68476 | 121° | 20km/h | 19925m | -21.7m/s | -52°C | 1% | 59.2hPa | 2.6V | 02:40:58 | 02:38:20 | 00:00:00 | |
| DL1XH1-15 | 2026-09-01 01:06:38 | 49.64686 | 8.68465 | 140° | 20km/h | 19968m | -23.2m/s | -51.7°C | 3.9% | 58.8hPa | 2.5V | 02:40:46 | 02:38:18 | 00:00:00 | |
| HSKMA3-T | 2026-09-01 01:06:37 | 49.64686 | 8.68465 | 140° | 20km/h | 19968m | -23.2m/s | -51.7°C | 0.8% | 58.8hPa | 2.5V | 02:40:58 | 02:38:18 | 00:00:00 | |
| BIOWL1-15 | 2026-09-01 01:06:35 | 49.64703 | 8.68451 | 159° | 18km/h | 20052m | -21m/s | -51.8°C | 0.9% | 58hPa | 2.5V | 02:40:58 | 02:38:14 | 00:00:00 | |
| DF2AP-13 | 2026-09-01 01:06:35 | 49.64693 | 8.68456 | 147° | 9km/h | 20012m | -20.5m/s | -51.7°C | 3.9% | 58.4hPa | 2.5V | 00:00:00 | 02:38:16 | 00:00:00 | |
| EDDB2-12 | 2026-09-01 01:06:34 | 49.64703 | 8.68451 | 158° | 18km/h | 20052m | -21.0m/s | -51.8°C | 1.3% | 58.0hPa | 2.5V | 00:00:00 | 00:00:00 | 00:00:00 | |
| DM0DOS-11 | 2026-09-01 01:06:33 | 49.64724 | 8.68447 | 179° | 15km/h | 20144m | -18.9m/s | -51.8°C | 3.9% | 57.2hPa | 2.5V | 02:40:55 | 02:38:09 | 00:00:00 | |
| DL1XH-west | 2026-09-01 01:06:28 | 49.64724 | 8.68448 | 180° | 15km/h | 20144m | -18.9m/s | -51.8°C | 0.9% | 57.2hPa | 2.5V | 02:40:58 | 02:38:09 | 00:00:00 | |
| HSKMA3-T | 2026-09-01 01:06:27 | 49.64727 | 8.68448 | 187° | 9km/h | 20163m | -20.9m/s | -51.8°C | 0.9% | 57hPa | 2.5V | 02:40:58 | 02:38:08 | 00:00:00 | |
| DL3AQ-11 | 2026-09-01 01:06:26 | 49.64732 | 8.68451 | 211° | 7km/h | 20205m | -22.5m/s | -52.1°C | 1.2% | 56.6hPa | 2.6V | 00:00:00 | 00:00:00 | 00:00:00 | |
| SFWM-10 | 2026-09-01 01:06:23 | 49.64734 | 8.68452 | 200° | 5km/h | 20227m | -22.1m/s | -52.1°C | 1.3% | 56.5hPa | 2.6V | 02:41:00 | 00:00:00 | 00:00:00 | |
| DM0DOS-11 | 2026-09-01 01:06:22 | 49.64740 | 8.68458 | 206° | 4km/h | 20357m | -19.2m/s | -52.4°C | 4.1% | 55.3hPa | 2.6V | 02:41:05 | 02:37:59 | 00:00:00 | |
| BIOWL1-15 | 2026-09-01 01:06:22 | 49.64736 | 8.68455 | 219° | 4km/h | 20270m | -23.4m/s | -52.2°C | 0.9% | 56.1hPa | 2.6V | 02:41:49 | 02:38:03 | 00:00:00 | |
| DL1XH-west | 2026-09-01 01:06:17 | 49.64740 | 8.68458 | 122° | 2km/h | 20375m | -17.6m/s | -52.4°C | 1% | 55.2hPa | 2.6V | 02:41:49 | 02:37:58 | 00:00:00 | |
| HSKMA3-T | 2026-09-01 01:06:16 | 49.64741 | 8.68456 | 101° | 7km/h | 20393m | -19.5m/s | -52.5°C | 1% | 55hPa | 2.5V | 02:41:49 | 02:37:57 | 00:00:00 | |
| BIOWL1-15 | 2026-09-01 01:06:13 | 49.64741 | 8.68439 | 68° | 7km/h | 20492m | -20.8m/s | -53.1°C | 1.1% | 54.2hPa | 2.6V | 02:41:49 | 02:37:52 | 00:00:00 | |
| DL3AQ-11 | 2026-09-01 01:06:13 | 49.64742 | 8.68443 | 81° | 11km/h | 20473m | -18.9m/s | -53.0°C | 1.4% | 54.3hPa | 2.5V | 00:00:00 | 00:00:00 | 00:00:00 | |
| DM0DOS-11 | 2026-09-01 01:06:12 | 49.64737 | 8.68430 | 48° | 11km/h | 20556m | -22.2m/s | -53.4°C | 4.4% | 53.7hPa | 2.5V | 02:41:15 | 02:37:49 | 00:00:00 | |
| DL1XH-west | 2026-09-01 01:06:07 | 49.64736 | 8.68428 | 26° | 5km/h | 20579m | -22.9m/s | -53.4°C | 1.2% | 53.5hPa | 2.5V | 02:41:49 | 02:37:48 | 00:00:00 | |
| HSKMA3-T | 2026-09-01 01:06:06 | 49.64734 | 8.68427 | 21° | 7km/h | 20602m | -24.9m/s | -53.3°C | 1.2% | 53.3hPa | 2.6V | 02:41:49 | 02:37:47 | 00:00:00 | |
| BIOWL1-15 | 2026-09-01 01:06:03 | 49.64730 | 8.68417 | 100° | 5km/h | 20714m | -21.5m/s | -53.3°C | 1.2% | 52.4hPa | 2.5V | 02:41:49 | 02:37:42 | 00:00:00 | |
| EDDB2-12 | 2026-09-01 01:06:03 | 49.64730 | 8.68419 | 98° | 5km/h | 20693m | -20.6m/s | -53.3°C | 1.4% | 52.5hPa | 2.6V | 00:00:00 | 00:00:00 | 00:00:00 | |
| DM0DOS-11 | 2026-09-01 01:06:02 | 49.64733 | 8.68411 | 160° | 9km/h | 20776m | -19.7m/s | -53.3°C | 4.4% | 51.9hPa | 2.6V | 02:41:25 | 02:37:39 | 00:00:00 | |
| DL3AQ-11 | 2026-09-01 01:06:02 | 49.64730 | 8.68417 | 99° | 4km/h | 20714m | -21.5m/s | -53.3°C | 1.4% | 52.4hPa | 2.5V | 00:00:00 | 00:00:00 | 00:00:00 | |
| EDDB2-11 | 2026-09-01 01:06:01 | 49.64730 | 8.68414 | 116° | 7km/h | 20735m | -19.7m/s | -53.3°C | 1.4% | 52.2hPa | 2.5V | 00:00:00 | 00:00:00 | 00:00:00 | |
| HEMX73-11 | 2026-09-01 01:06:00 | 49.64730 | 8.68417 | 101° | 5km/h | 20714m | -21.5m/s | -53.3°C | 1.4% | 52.4hPa | 2.5V | 02:41:00 | 00:00:00 | 00:00:00 | |
| DL1XH1-15 | 2026-09-01 01:05:58 | 49.64735 | 8.68410 | 155° | 7km/h | 20795m | -19.7m/s | -53.3°C | 4.5% | 51.7hPa | 2.5V | 02:41:26 | 02:37:38 | 00:00:00 | |
| DL1XH-west | 2026-09-01 01:05:57 | 49.64735 | 8.68410 | 155° | 7km/h | 20795m | -19.7m/s | -53.3°C | 1.2% | 51.7hPa | 2.5V | 02:41:49 | 02:37:38 | 00:00:00 | |
| HSKMA3-T | 2026-09-01 01:05:55 | 49.64739 | 8.68410 | 196° | 9km/h | 20836m | -19.4m/s | -53.2°C | 1.2% | 51.4hPa | 2.5V | 02:41:49 | 02:37:36 | 00:00:00 | |
| DJ2DS-15 | 2026-09-01 01:05:54 | 49.64741 | 8.68411 | 194° | 7km/h | 20855m | -19.4m/s | -53.1°C | 4.4% | 51.2hPa | 2.6V | 00:00:00 | 02:37:35 | 00:00:00 | |
| DL1XH1-15 | 2026-09-01 01:05:52 | 49.64750 | 8.68417 | 150° | 2km/h | 20993m | -21m/s | -53°C | 4.3% | 50.2hPa | 2.6V | 02:41:36 | 02:37:28 | 00:00:00 | |
| DM0DOS-11 | 2026-09-01 01:05:52 | 49.64750 | 8.68417 | 16° | 0km/h | 20973m | -21.5m/s | -52.9°C | 4.2% | 50.3hPa | 2.6V | 02:41:35 | 02:37:29 | 00:00:00 | |
| BIOWL1-15 | 2026-09-01 01:05:51 | 49.64748 | 8.68413 | 210° | 5km/h | 20910m | -19.7m/s | -52.9°C | 1.1% | 50.8hPa | 2.5V | 02:41:49 | 02:37:32 | 00:00:00 | |
| DL1XH-west | 2026-09-01 01:05:47 | 49.64750 | 8.68417 | 151° | 2km/h | 20994m | -21m/s | -53°C | 1.1% | 50.2hPa | 2.6V | 02:41:49 | 02:37:28 | 00:00:00 | |
| HSKMA3-T | 2026-09-01 01:05:45 | 49.64752 | 8.68418 | 251° | 4km/h | 21035m | -22.5m/s | -53.3°C | 1.2% | 49.8hPa | 2.5V | 02:41:49 | 02:37:26 | 00:00:00 | |
| BIOWL1-15 | 2026-09-01 01:05:40 | 49.64754 | 8.68428 | 269° | 9km/h | 21142m | -20.4m/s | -52.8°C | 1% | 49hPa | 2.5V | 02:41:49 | 02:37:21 | 00:00:00 | |
| DM0DOS-11 | 2026-09-01 01:05:39 | 49.64754 | 8.68436 | 283° | 15km/h | 21184m | -22.6m/s | -52.6°C | 4.1% | 48.7hPa | 2.5V | 02:41:45 | 02:37:19 | 00:00:00 | |
| BIOWL7-15 | 2026-09-01 01:05:39 | 49.64754 | 8.68431 | 275° | 9km/h | 21163m | -21.4m/s | -52.6°C | 1.3% | 48.8hPa | 2.5V | 00:00:00 | 00:00:00 | 00:00:00 | |
| DL1XH1-15 | 2026-09-01 01:05:38 | 49.64753 | 8.68441 | 278° | 15km/h | 21206m | -22.4m/s | -52.7°C | 4.1% | 48.5hPa | 2.5V | 02:41:46 | 02:37:18 | 00:00:00 | |
| DL1XH-west | 2026-09-01 01:05:37 | 49.64753 | 8.68441 | 278° | 15km/h | 21206m | -22.4m/s | -52.7°C | 1% | 48.5hPa | 2.5V | 02:41:49 | 02:37:18 | 00:00:00 | |
| HSKMA3-T | 2026-09-01 01:05:34 | 49.64744 | 8.68464 | 302° | 20km/h | 21286m | -19.4m/s | -53.2°C | 1.2% | 47.9hPa | 2.5V | 02:42:40 | 02:37:14 | 00:00:00 | |
| DM7RM-13 | 2026-09-01 01:05:34 | 49.64745 | 8.68464 | 303° | 20km/h | 21287m | -19.4m/s | -53.2°C | 1.4% | 47.9hPa | 2.6V | 02:42:00 | 00:00:00 | 00:00:00 | |
| DL1XH1-15 | 2026-09-01 01:05:32 | 49.64730 | 8.68494 | 315° | 9km/h | 21398m | -20.7m/s | -53.1°C | 4.4% | 47.1hPa | 2.6V | 02:41:56 | 02:37:08 | 00:00:00 | |
| BIOWL1-15 | 2026-09-01 01:05:29 | 49.64728 | 8.68499 | 294° | 7km/h | 21436m | -19.6m/s | -53.2°C | 1.2% | 46.8hPa | 2.5V | 02:42:40 | 02:37:06 | 00:00:00 | |
| DL1XH-west | 2026-09-01 01:05:26 | 49.64728 | 8.68497 | 302° | 7km/h | 21417m | -18m/s | -53.2°C | 1.2% | 46.9hPa | 2.5V | 02:42:40 | 02:37:07 | 00:00:00 | |
| HSKMA3-T | 2026-09-01 01:05:23 | 49.64726 | 8.68502 | 8° | 5km/h | 21476m | -23.8m/s | -53.1°C | 1.2% | 46.5hPa | 2.6V | 02:42:40 | 02:37:04 | 00:00:00 | |
| DL3AQ-11 | 2026-09-01 01:05:21 | 49.64723 | 8.68503 | 325° | 4km/h | 21519m | -18.6m/s | -53.0°C | 1.4% | 46.2hPa | 2.5V | 00:00:00 | 00:00:00 | 00:00:00 | |
| SFWM-10 | 2026-09-01 01:05:20 | 49.64723 | 8.68503 | 327° | 5km/h | 21519m | -18.6m/s | -53.0°C | 1.4% | 46.2hPa | 2.5V | 02:42:00 | 00:00:00 | 00:00:00 | |
| DB0UT-7 | 2026-09-01 01:05:19 | 49.64721 | 8.68504 | 6° | 16km/h | 21557m | -18.5m/s | -53.0°C | 4.4% | 45.9hPa | 2.5V | 02:42:00 | 02:37:00 | 00:00:00 | |
| DL1XH1-15 | 2026-09-01 01:05:18 | 49.64716 | 8.68505 | 359° | 15km/h | 21597m | -21.5m/s | -52.8°C | 4.3% | 45.6hPa | 2.6V | 02:42:06 | 02:36:58 | 00:00:00 | |
| DL1XH-west | 2026-09-01 01:05:16 | 49.64712 | 8.68505 | 7° | 16km/h | 21618m | -21.5m/s | -52.9°C | 1.2% | 45.5hPa | 2.6V | 02:42:40 | 02:36:57 | 00:00:00 | |
| BIOWL1-15 | 2026-09-01 01:05:14 | 49.64694 | 8.68500 | 22° | 22km/h | 21711m | -23.7m/s | -52.7°C | 1.1% | 44.9hPa | 2.5V | 02:42:40 | 02:36:53 | 00:00:00 | |
| HSKMA3-T | 2026-09-01 01:05:13 | 49.64699 | 8.68502 | 7° | 20km/h | 21688m | -22.5m/s | -52.8°C | 1.1% | 45hPa | 2.5V | 02:42:40 | 02:36:54 | 00:00:00 | |
| DL1XH1-15 | 2026-09-01 01:05:12 | 49.64673 | 8.68482 | 48° | 16km/h | 21813m | -19.2m/s | -52.4°C | 4.2% | 44.1hPa | 2.5V | 02:42:16 | 02:36:48 | 00:00:00 | |
| DK5PH-5 | 2026-09-01 01:05:12 | 49.64694 | 8.68500 | 22° | 18km/h | 21711m | -23.7m/s | -52.7°C | 4.3% | 44.8hPa | 2.5V | 02:42:00 | 02:36:53 | 00:00:00 | |
| DM3KS-11 | 2026-09-01 01:05:11 | 49.64689 | 8.68498 | 16° | 18km/h | 21733m | -21.8m/s | -52.7°C | 1.4% | 44.7hPa | 2.6V | 00:00:00 | 00:00:00 | 00:00:00 | |
| DL6DJ-15 | 2026-09-01 01:05:10 | 49.64677 | 8.68487 | 35° | 20km/h | 21793m | -21.6m/s | -52.6°C | 1.3% | 44.3hPa | 2.6V | 00:00:00 | 00:00:00 | 00:00:00 | |
| DL1XH-15 | 2026-09-01 01:05:08 | 49.64657 | 8.68461 | 29° | 9km/h | 21939m | -20.1m/s | -52.2°C | 4.1% | 43.2hPa | 2.6V | 02:42:22 | 02:36:42 | 00:00:00 | |
| DL1XH-west | 2026-09-01 01:05:05 | 49.64667 | 8.68473 | 42° | 15km/h | 21852m | -21m/s | -52.4°C | 1% | 43.8hPa | 2.5V | 02:42:40 | 02:36:46 | 00:00:00 | |
| HSKMA3-T | 2026-09-01 01:05:02 | 49.64660 | 8.68463 | 21° | 11km/h | 21918m | -21.9m/s | -52.3°C | 0.9% | 43.4hPa | 2.6V | 02:42:40 | 02:36:43 | 00:00:00 | |
| AM1SDL-15 | 2026-09-01 01:05:02 | 49.64660 | 8.68463 | 22° | 13km/h | 21918m | -21.8m/s | -52.2°C | 4.0% | 43.4hPa | 2.6V | 02:42:00 | 02:36:43 | 00:00:00 | |
| EDDB2-12 | 2026-09-01 01:05:00 | 49.64655 | 8.68459 | 19° | 13km/h | 21958m | -19.5m/s | -52.0°C | 1.3% | 43.1hPa | 2.5V | 00:00:00 | 00:00:00 | 00:00:00 | |
| EDDB2-11 | 2026-09-01 01:04:59 | 49.64649 | 8.68459 | 347° | 7km/h | 21996m | -19.3m/s | -52.0°C | 1.2% | 42.9hPa | 2.5V | 00:00:00 | 00:00:00 | 00:00:00 | |
| SFWM-10 | 2026-09-01 01:04:57 | 49.64649 | 8.68458 | 349° | 9km/h | 21997m | -19.3m/s | -52.0°C | 1.2% | 42.9hPa | 2.5V | 02:42:00 | 00:00:00 | 00:00:00 | |
| DL1XH-15 | 2026-09-01 01:04:56 | 49.64629 | 8.68485 | 316° | 20km/h | 22153m | -23.6m/s | -52.8°C | 4.2% | 41.9hPa | 2.5V | 02:42:32 | 02:36:32 | 00:00:00 | |
| DL1XH-west | 2026-09-01 01:04:55 | 49.64641 | 8.68465 | 318° | 13km/h | 22061m | -21.4m/s | -52.2°C | 1% | 42.5hPa | 2.6V | 02:42:40 | 02:36:36 | 00:00:00 | |
| SONCRA | 2026-09-01 01:04:54 | 49.64636 | 8.68473 | 306° | 18km/h | 22106m | -24.1m/s | -52.5°C | 1.3% | 42.1hPa | 2.6V | 00:00:00 | 00:00:00 | 00:00:00 | |
| DL3AQ-11 | 2026-09-01 01:04:53 | 49.64633 | 8.68479 | 308° | 20km/h | 22130m | -24.5m/s | -52.6°C | 1.3% | 42.1hPa | 2.6V | 00:00:00 | 00:00:00 | 00:00:00 | |
| DL1XH1-15 | 2026-09-01 01:04:52 | 49.64613 | 8.68509 | 321° | 24km/h | 22239m | -20.9m/s | -53.3°C | 4.4% | 41.3hPa | 2.6V | 02:42:36 | 02:36:28 | 00:00:00 | |
| HSKMA3-T | 2026-09-01 01:04:52 | 49.64633 | 8.68479 | 309° | 20km/h | 22129m | -24.5m/s | -52.6°C | 1% | 42.1hPa | 2.5V | 02:42:40 | 02:36:33 | 00:00:00 | |
| DL1ZP-14 | 2026-09-01 01:04:46 | 49.64608 | 8.68514 | 336° | 24km/h | 22259m | -20.2m/s | -53.5°C | 1.4% | 41.1hPa | 2.5V | 00:00:00 | 00:00:00 | 00:00:00 | |
| DF7PN | 2026-09-01 01:04:45 | 49.64596 | 8.68522 | 336° | 24km/h | 22299m | -19.9m/s | -53.5°C | 1.4% | 40.9hPa | 2.6V | 00:00:00 | 00:00:00 | 00:00:00 | |
| BIOWL1-15 | 2026-09-01 01:04:44 | 49.64570 | 8.68534 | 349° | 24km/h | 22381m | -19.6m/s | -53.6°C | 1.3% | 40.4hPa | 2.6V | 02:43:31 | 02:36:21 | 00:00:00 | |
| DL1XH-west | 2026-09-01 01:04:44 | 49.64596 | 8.68522 | 337° | 26km/h | 22299m | -19.9m/s | -53.5°C | 1.3% | 40.9hPa | 2.5V | 02:42:40 | 02:36:25 | 00:00:00 | |
| HSKMA3-T | 2026-09-01 01:04:41 | 49.64576 | 8.68532 | 348° | 24km/h | 22361m | -21.6m/s | -53.6°C | 1.3% | 40.5hPa | 2.6V | 02:43:31 | 02:36:22 | 00:00:00 | |
| DM3KS-11 | 2026-09-01 01:04:40 | 49.64570 | 8.68534 | 349° | 24km/h | 22381m | -19.6m/s | -53.6°C | 0% | 40.4hPa | 2.5V | 00:00:00 | 00:00:00 | 00:00:00 | |
| HEMX73-11 | 2026-09-01 01:04:39 | 49.64570 | 8.68534 | 350° | 24km/h | 22381m | -19.6m/s | -53.5°C | 1.4% | 40.4hPa | 2.5V | 02:43:00 | 00:00:00 | 00:00:00 | |
| DM0DOS-11 | 2026-09-01 01:04:38 | 49.64551 | 8.68539 | 352° | 26km/h | 22442m | -21.8m/s | -53.6°C | 4.6% | 40hPa | 2.5V | 02:42:46 | 02:36:18 | 00:00:00 | |
| DL1XH-west | 2026-09-01 01:04:33 | 49.64525 | 8.68537 | 12° | 29km/h | 22528m | -23.1m/s | -53.4°C | 1.3% | 39.5hPa | 2.6V | 02:43:31 | 02:36:14 | 00:00:00 | |
| DM0DOS-11 | 2026-09-01 01:04:32 | 49.64484 | 8.68524 | 15° | 26km/h | 22664m | -20.1m/s | -52.8°C | 4.4% | 38.6hPa | 2.6V | 02:42:56 | 02:36:08 | 00:00:00 | |
| HSKMA3-T | 2026-09-01 01:04:30 | 49.64504 | 8.68531 | 16° | 27km/h | 22597m | -26.3m/s | -53.1°C | 1.2% | 39.1hPa | 2.5V | 02:43:31 | 02:36:11 | 00:00:00 | |
| BIOWL1-15 | 2026-09-01 01:04:29 | 49.64497 | 8.68528 | 10° | 27km/h | 22622m | -24.9m/s | -53.1°C | 1.2% | 39hPa | 2.5V | 02:43:31 | 02:36:10 | 00:00:00 | |
| DL1XH-west | 2026-09-01 01:04:23 | 49.64461 | 8.68510 | 29° | 24km/h | 22740m | -19.3m/s | -52.8°C | 1.4% | 38.2hPa | 2.5V | 02:43:31 | 02:36:04 | 00:00:00 | |
| AA1-15 | 2026-09-01 01:04:22 | 49.64456 | 8.68505 | 32° | 22km/h | 22760m | -20.4m/s | -52.8°C | 1.2% | 38.1hPa | 2.5V | 02:44:22 | 02:36:03 | 00:00:00 | |
| BIOWL1-15 | 2026-09-01 01:04:20 | 49.64446 | 8.68483 | 77° | 13km/h | 22842m | -20.6m/s | -52.6°C | 1.2% | 37.6hPa | 2.5V | 02:43:31 | 02:35:59 | 00:00:00 | |
| HSKMA3-T | 2026-09-01 01:04:20 | 49.64449 | 8.68495 | 60° | 20km/h | 22801m | -21.7m/s | -52.5°C | 1.2% | 37.9hPa | 2.6V | 02:43:31 | 02:36:01 | 00:00:00 | |
| DB0UT-7 | 2026-09-01 01:04:19 | 49.64447 | 8.68489 | 67° | 9km/h | 22822m | -21.3m/s | -52.5°C | 4.4% | 37.7hPa | 2.5V | 00:00:00 | 02:36:00 | 00:00:00 | |
| DM0DOS-11 | 2026-09-01 01:04:18 | 49.64445 | 8.68478 | 83° | 13km/h | 22864m | -23.1m/s | -52.7°C | 4.4% | 37.5hPa | 2.5V | 02:43:06 | 02:35:58 | 00:00:00 | |
| DL1XH-west | 2026-09-01 01:04:13 | 49.64445 | 8.68464 | 52° | 4km/h | 22953m | -22.5m/s | -52.7°C | 1.3% | 36.9hPa | 2.6V | 02:43:31 | 02:35:54 | 00:00:00 | |
| AA1-15 | 2026-09-01 01:04:12 | 49.64445 | 8.68464 | 360° | 2km/h | 22975m | -22.2m/s | -52.5°C | 1.2% | 36.8hPa | 2.6V | 02:44:22 | 02:35:53 | 00:00:00 | |
| DM0DOS-11 | 2026-09-01 01:04:12 | 49.64434 | 8.68469 | 343° | 16km/h | 23079m | -19.8m/s | -52°C | 4.2% | 36.2hPa | 2.6V | 02:43:16 | 02:35:48 | 00:00:00 | |
| BIOWL1-15 | 2026-09-01 01:04:10 | 49.64437 | 8.68467 | 348° | 13km/h | 23060m | -20.6m/s | -52°C | 1.1% | 36.3hPa | 2.5V | 02:43:31 | 02:35:49 | 00:00:00 | |
| HSKMA3-T | 2026-09-01 01:04:10 | 49.64443 | 8.68464 | 328° | 7km/h | 23016m | -22.2m/s | -52.1°C | 1.1% | 36.6hPa | 2.5V | 02:43:31 | 02:35:51 | 00:00:00 | |
| DL1XH-west | 2026-09-01 01:04:02 | 49.64415 | 8.68470 | 6° | 15km/h | 23190m | -22.9m/s | -51.8°C | 1.1% | 35.6hPa | 2.5V | 02:43:31 | 02:35:43 | 00:00:00 | |
| BIOWL1-15 | 2026-09-01 01:04:00 | 49.64409 | 8.68463 | 105° | 7km/h | 23286m | -26.1m/s | -51.2°C | 0.9% | 35.2hPa | 2.6V | 02:43:31 | 02:35:39 | 00:00:00 | |
| AA1-15 | 2026-09-01 01:03:59 | 49.64409 | 8.68465 | 54° | 7km/h | 23261m | -24.4m/s | -51.3°C | 1% | 35.3hPa | 2.6V | 02:44:22 | 02:35:40 | 00:00:00 | |
| DM0DOS-11 | 2026-09-01 01:03:58 | 49.64410 | 8.68460 | 142° | 7km/h | 23311m | -23.4m/s | -51.3°C | 4% | 35hPa | 2.5V | 02:43:26 | 02:35:38 | 00:00:00 | |
| DL1XH-west | 2026-09-01 01:03:52 | 49.64421 | 8.68451 | 165° | 11km/h | 23429m | -22.1m/s | -51.4°C | 1% | 34.3hPa | 2.6V | 02:43:31 | 02:35:33 | 00:00:00 | |
| DF3TZ-5 | 2026-09-01 01:03:51 | 49.64423 | 8.68450 | 172° | 11km/h | 23451m | -22.2m/s | -51.5°C | 1.2% | 34.2hPa | 2.5V | 00:00:00 | 00:00:00 | 00:00:00 | |
| DL1XH-15 | 2026-09-01 01:03:50 | 49.64430 | 8.68447 | 170° | 7km/h | 23517m | -21.1m/s | -51.7°C | 4.1% | 33.9hPa | 2.5V | 02:43:35 | 02:35:29 | 00:00:00 | |
| HSKMA3-T | 2026-09-01 01:03:49 | 49.64428 | 8.68448 | 158° | 9km/h | 23495m | -22.4m/s | -51.7°C | 1% | 34hPa | 2.5V | 02:44:22 | 02:35:30 | 00:00:00 | |
| BIOWL1-15 | 2026-09-01 01:03:47 | 49.64432 | 8.68446 | 150° | 7km/h | 23537m | -21.1m/s | -51.8°C | 1% | 33.8hPa | 2.5V | 02:44:22 | 02:35:28 | 00:00:00 | |
| DL3AQ-11 | 2026-09-01 01:03:46 | 49.64435 | 8.68444 | 169° | 5km/h | 23578m | -20.4m/s | -52.0°C | 1.3% | 33.5hPa | 2.6V | 00:00:00 | 00:00:00 | 00:00:00 | |
| DJ2KF-10 | 2026-09-01 01:03:44 | 49.64436 | 8.68443 | 139° | 9km/h | 23599m | -21.3m/s | -52.0°C | 4.3% | 33.4hPa | 2.6V | 00:00:00 | 02:35:25 | 00:00:00 | |
| DL1XH-15 | 2026-09-01 01:03:43 | 49.64432 | 8.68446 | 6° | 9km/h | 23728m | -20m/s | -52°C | 4.3% | 32.8hPa | 2.6V | 02:43:45 | 02:35:19 | 00:00:00 | |
| DL1XH-west | 2026-09-01 01:03:42 | 49.64437 | 8.68443 | 18° | 2km/h | 23644m | -22.7m/s | -52.2°C | 1.2% | 33.2hPa | 2.5V | 02:44:22 | 02:35:23 | 00:00:00 | |
| HSKMA3-T | 2026-09-01 01:03:39 | 49.64434 | 8.68446 | 355° | 7km/h | 23707m | -21.6m/s | -52.1°C | 1.2% | 32.8hPa | 2.6V | 02:44:22 | 02:35:20 | 00:00:00 | |
| DM0DOS-11 | 2026-09-01 01:03:38 | 49.64429 | 8.68445 | 12° | 13km/h | 23748m | -20.2m/s | -51.8°C | 4.3% | 32.6hPa | 2.6V | 02:43:46 | 02:35:18 | 00:00:00 | |
| BIOWL1-15 | 2026-09-01 01:03:36 | 49.64426 | 8.68445 | 5° | 13km/h | 23770m | -23.8m/s | -51.7°C | 1.1% | 32.6hPa | 2.5V | 02:44:22 | 02:35:17 | 00:00:00 | |
| DJ2DS-15 | 2026-09-01 01:03:34 | 49.64420 | 8.68442 | 29° | 9km/h | 23819m | -24.5m/s | -51.4°C | 4.1% | 32.3hPa | 2.6V | 00:00:00 | 02:35:15 | 00:00:00 | |
| DM0DOS-11 | 2026-09-01 01:03:33 | 49.64406 | 8.68426 | 47° | 2km/h | 23999m | -22.9m/s | -50.9°C | 4% | 31.4hPa | 2.6V | 02:43:57 | 02:35:07 | 00:00:00 | |
| DL1XH-west | 2026-09-01 01:03:31 | 49.64412 | 8.68435 | 34° | 9km/h | 23888m | -23m/s | -51.4°C | 1.1% | 32hPa | 2.6V | 02:44:22 | 02:35:12 | 00:00:00 | |
| HSKMA3-T | 2026-09-01 01:03:28 | 49.64407 | 8.68429 | 70° | 4km/h | 23956m | -21.5m/s | -51.1°C | 1% | 31.6hPa | 2.5V | 02:44:22 | 02:35:09 | 00:00:00 | |
| AA1-15 | 2026-09-01 01:03:26 | 49.64406 | 8.68426 | 48° | 2km/h | 24000m | -22.9m/s | -50.9°C | 0.9% | 31.4hPa | 2.6V | 02:44:22 | 02:35:07 | 00:00:00 | |
| BIOWL1-15 | 2026-09-01 01:03:25 | 49.64406 | 8.68426 | 263° | 4km/h | 24023m | -24.1m/s | -50.9°C | 0.9% | 31.3hPa | 2.6V | 02:44:22 | 02:35:06 | 00:00:00 | |
| DL1XH-west | 2026-09-01 01:03:20 | 49.64408 | 8.68442 | 270° | 15km/h | 24142m | -24.6m/s | -50.5°C | 0.8% | 30.7hPa | 2.6V | 02:44:22 | 02:35:01 | 00:00:00 | |
| DB0UT-7 | 2026-09-01 01:03:19 | 49.64408 | 8.68446 | 277° | 11km/h | 24167m | -22.5m/s | -50.4°C | 3.7% | 30.6hPa | 2.5V | 00:00:00 | 02:35:00 | 00:00:00 | |
| DL1XH1-15 | 2026-09-01 01:03:18 | 49.64407 | 8.68454 | 300° | 7km/h | 24214m | -25.7m/s | -50.7°C | 3.8% | 30.4hPa | 2.5V | 02:44:06 | 02:34:58 | 00:00:00 | |
| DL1XH-15 | 2026-09-01 01:03:17 | 49.64406 | 8.68458 | 295° | 11km/h | 24238m | -24.1m/s | -50.7°C | 3.8% | 30.3hPa | 2.6V | 02:44:07 | 02:34:57 | 00:00:00 | |
| HSKMA3-T | 2026-09-01 01:03:17 | 49.64407 | 8.68454 | 301° | 9km/h | 24214m | -25.7m/s | -50.7°C | 0.8% | 30.4hPa | 2.5V | 02:44:22 | 02:34:58 | 00:00:00 | |
| AA1-15 | 2026-09-01 01:03:15 | 49.64405 | 8.68461 | 300° | 11km/h | 24261m | -22.7m/s | -50.8°C | 0.8% | 30.2hPa | 2.6V | 02:44:22 | 02:34:56 | 00:00:00 | |
| BIOWL1-15 | 2026-09-01 01:03:14 | 49.64403 | 8.68464 | 320° | 7km/h | 24284m | -22.4m/s | -50.9°C | 0.9% | 30.1hPa | 2.6V | 02:44:22 | 02:34:55 | 00:00:00 | |
| DL1XH-west | 2026-09-01 01:03:10 | 49.64391 | 8.68471 | 352° | 16km/h | 24372m | -20.5m/s | -51.2°C | 1% | 29.6hPa | 2.5V | 02:44:22 | 02:34:51 | 00:00:00 | |
| DM0DOS-11 | 2026-09-01 01:03:08 | 49.64377 | 8.68469 | 12° | 20km/h | 24429m | -17.8m/s | -51.4°C | 4.1% | 29.3hPa | 2.6V | 02:44:16 | 02:34:48 | 00:00:00 | |
| DL1XH-15 | 2026-09-01 01:03:07 | 49.64373 | 8.68468 | 13° | 20km/h | 24447m | -18.8m/s | -51.4°C | 4.1% | 29.2hPa | 2.5V | 02:44:17 | 02:34:47 | 00:00:00 | |
| HSKMA3-T | 2026-09-01 01:03:06 | 49.64373 | 8.68468 | 14° | 20km/h | 24447m | -18.8m/s | -51.4°C | 1.1% | 29.2hPa | 2.5V | 02:44:22 | 02:34:47 | 00:00:00 | |
| AA1-15 | 2026-09-01 01:03:05 | 49.64368 | 8.68466 | 25° | 15km/h | 24465m | -16.8m/s | -51.5°C | 1% | 29.2hPa | 2.5V | 02:44:22 | 02:34:46 | 00:00:00 | |
| BIOWL1-15 | 2026-09-01 01:03:03 | 49.64362 | 8.68460 | 38° | 11km/h | 24504m | -20.9m/s | -51.6°C | 1% | 29hPa | 2.5V | 02:44:22 | 02:34:44 | 00:00:00 | |
| DL1XH-west | 2026-09-01 01:02:59 | 49.64353 | 8.68449 | 44° | 11km/h | 24600m | -26.6m/s | -51.4°C | 1% | 28.7hPa | 2.5V | 02:45:13 | 02:34:40 | 00:00:00 | |
| DM0DOS-11 | 2026-09-01 01:02:58 | 49.64350 | 8.68444 | 43° | 11km/h | 24650m | -23.4m/s | -51.4°C | 4% | 28.4hPa | 2.5V | 02:44:26 | 02:34:38 | 00:00:00 | |
| HSKMA3-T | 2026-09-01 01:02:56 | 49.64348 | 8.68441 | 28° | 9km/h | 24672m | -22.6m/s | -51.5°C | 1% | 28.3hPa | 2.6V | 02:45:13 | 02:34:37 | 00:00:00 | |
| AA1-15 | 2026-09-01 01:02:54 | 49.64344 | 8.68438 | 53° | 7km/h | 24717m | -23.6m/s | -51.5°C | 1% | 28.1hPa | 2.5V | 02:45:13 | 02:34:35 | 00:00:00 | |
| BIOWL1-15 | 2026-09-01 01:02:52 | 49.64342 | 8.68434 | 53° | 7km/h | 24764m | -24.5m/s | -51.6°C | 1.1% | 27.9hPa | 2.5V | 02:45:13 | 02:34:33 | 00:00:00 | |
| AM1SDL-15 | 2026-09-01 01:02:50 | 49.64341 | 8.68431 | 56° | 4km/h | 24814m | -27.0m/s | -51.6°C | 4.1% | 27.7hPa | 2.5V | 00:00:00 | 02:34:31 | 00:00:00 | |
| DB0UT-7 | 2026-09-01 01:02:49 | 49.64341 | 8.68431 | 126° | 9km/h | 24841m | -26.4m/s | -51.6°C | 4.2% | 27.6hPa | 2.5V | 00:00:00 | 00:00:00 | 00:00:00 | |
| DM0DOS-11 | 2026-09-01 01:02:48 | 49.64342 | 8.68429 | 155° | 4km/h | 24889m | -23.5m/s | -51.8°C | 4.2% | 27.4hPa | 2.5V | 02:44:36 | 02:34:28 | 00:00:00 | |
| DL1XH-west | 2026-09-01 01:02:48 | 49.64341 | 8.68430 | 145° | 4km/h | 24866m | -25m/s | -51.7°C | 1.1% | 27.5hPa | 2.5V | 02:45:13 | 02:34:29 | 00:00:00 | |
| DL1XH-15 | 2026-09-01 01:02:47 | 49.64344 | 8.68433 | 274° | 4km/h | 25004m | -22.3m/s | -51.5°C | 4.2% | 26.9hPa | 2.6V | 02:44:41 | 02:34:23 | 00:00:00 | |
| HSKMA3-T | 2026-09-01 01:02:45 | 49.64344 | 8.68430 | 178° | 2km/h | 24935m | -23.4m/s | -51.8°C | 1.1% | 27.2hPa | 2.5V | 02:45:13 | 02:34:26 | 00:00:00 | |
| AA1-15 | 2026-09-01 01:02:44 | 49.64344 | 8.68431 | 250° | 2km/h | 24959m | -25m/s | -51.7°C | 1.1% | 27.1hPa | 2.6V | 02:45:13 | 02:34:25 | 00:00:00 | |
| SONCRA | 2026-09-01 01:02:44 | 49.64344 | 8.68431 | 250° | 0km/h | 24959m | -25.0m/s | -51.7°C | 1.3% | 27.1hPa | 2.5V | 00:00:00 | 00:00:00 | 00:00:00 | |
| BIOWL1-15 | 2026-09-01 01:02:41 | 49.64343 | 8.68438 | 311° | 7km/h | 25048m | -22.8m/s | -51.5°C | 1.1% | 26.7hPa | 2.5V | 02:45:13 | 02:34:21 | 00:00:00 | |
| SONDE2-11 | 2026-09-01 01:02:41 | 49.64344 | 8.68435 | 306° | 7km/h | 25026m | -23.3m/s | -51.5°C | 1.3% | 26.8hPa | 2.6V | 00:00:00 | 00:00:00 | 00:00:00 | |
| DJ2DS-15 | 2026-09-01 01:02:39 | 49.64341 | 8.68441 | 315° | 11km/h | 25070m | -22.3m/s | -51.6°C | 1.3% | 26.6hPa | 2.6V | 00:00:00 | 00:00:00 | 00:00:00 | |
| DM0DOS-11 | 2026-09-01 01:02:38 | 49.64336 | 8.68448 | 317° | 16km/h | 25118m | -25.2m/s | -51.6°C | 4.2% | 26.4hPa | 2.6V | 02:44:46 | 02:34:18 | 00:00:00 | |
| DL1XH-west | 2026-09-01 01:02:37 | 49.64336 | 8.68448 | 318° | 16km/h | 25118m | -25.2m/s | -51.6°C | 1.1% | 26.4hPa | 2.6V | 02:45:13 | 02:34:18 | 00:00:00 | |
| DL1XH-15 | 2026-09-01 01:02:37 | 49.64326 | 8.68468 | 295° | 13km/h | 25235m | -23.4m/s | -51.3°C | 4.1% | 25.9hPa | 2.5V | 02:44:51 | 02:34:13 | 00:00:00 | |
| HSKMA3-T | 2026-09-01 01:02:35 | 49.64331 | 8.68456 | 309° | 16km/h | 25166m | -24.3m/s | -51.4°C | 1.1% | 26.2hPa | 2.6V | 02:45:13 | 02:34:16 | 00:00:00 | |
| AA1-15 | 2026-09-01 01:02:33 | 49.64327 | 8.68464 | 303° | 13km/h | 25212m | -22.2m/s | -51.2°C | 1% | 26hPa | 2.5V | 02:45:13 | 02:34:14 | 00:00:00 | |
| BIOWL1-15 | 2026-09-01 01:02:29 | 49.64323 | 8.68477 | 296° | 7km/h | 25303m | -21.6m/s | -51.3°C | 1.1% | 25.7hPa | 2.5V | 02:45:13 | 02:34:10 | 00:00:00 | |
| DL1XH-west | 2026-09-01 01:02:27 | 49.64320 | 8.68478 | 15° | 9km/h | 25347m | -23.3m/s | -51.2°C | 1.1% | 25.5hPa | 2.5V | 02:45:13 | 02:34:08 | 00:00:00 | |
| HSKMA3-T | 2026-09-01 01:02:25 | 49.64314 | 8.68474 | 34° | 13km/h | 25392m | -21.6m/s | -51°C | 1% | 25.3hPa | 2.6V | 02:45:13 | 02:34:06 | 00:00:00 | |
| AA1-15 | 2026-09-01 01:02:22 | 49.64304 | 8.68462 | 37° | 18km/h | 25457m | -23.3m/s | -50.7°C | 1% | 25.1hPa | 2.5V | 02:45:13 | 02:34:03 | 00:00:00 | |
| DJTTGO | 2026-09-01 01:02:22 | 49.64304 | 8.68462 | 38° | 18km/h | 25458m | -23.3m/s | -50.7°C | 1.2% | 25.0hPa | 2.6V | 00:00:00 | 00:00:00 | 00:00:00 | |
| DL1XH1-15 | 2026-09-01 01:02:21 | 49.64289 | 8.68445 | 22° | 9km/h | 25572m | -23.5m/s | -50.7°C | 4% | 24.6hPa | 2.6V | 02:45:06 | 02:33:58 | 00:00:00 | |
| BIOWL1-15 | 2026-09-01 01:02:19 | 49.64284 | 8.68445 | 358° | 7km/h | 25661m | -24.5m/s | -50.5°C | 0.9% | 24.3hPa | 2.6V | 02:45:13 | 02:33:54 | 00:00:00 | |
| DB0UT-7 | 2026-09-01 01:02:19 | 49.64295 | 8.68450 | 42° | 7km/h | 25526m | -22.4m/s | -50.7°C | 4.0% | 24.7hPa | 2.6V | 02:45:00 | 02:34:00 | 00:00:00 | |
| DF3TZ-5 | 2026-09-01 01:02:18 | 49.64290 | 8.68445 | 22° | 9km/h | 25572m | -23.5m/s | -50.7°C | 1.2% | 24.6hPa | 2.6V | 00:00:00 | 00:00:00 | 00:00:00 | |
| DL1XH-15 | 2026-09-01 01:02:17 | 49.64282 | 8.68444 | 30° | 5km/h | 25688m | -27m/s | -50.5°C | 4% | 24.2hPa | 2.6V | 02:45:11 | 02:33:53 | 00:00:00 | |
| DL1XH-west | 2026-09-01 01:02:17 | 49.64290 | 8.68445 | 22° | 9km/h | 25572m | -23.5m/s | -50.7°C | 1% | 24.6hPa | 2.6V | 02:45:13 | 02:33:58 | 00:00:00 | |
| HSKMA3-T | 2026-09-01 01:02:15 | 49.64286 | 8.68445 | 343° | 5km/h | 25615m | -20.7m/s | -50.5°C | 0.9% | 24.4hPa | 2.5V | 02:45:13 | 02:33:56 | 00:00:00 | |
| DJ2DS-15 | 2026-09-01 01:02:14 | 49.64285 | 8.68445 | 10° | 7km/h | 25638m | -23.5m/s | -50.4°C | 4.0% | 24.3hPa | 2.5V | 02:45:00 | 02:33:55 | 00:00:00 | |
| DL3AQ-11 | 2026-09-01 01:02:13 | 49.64282 | 8.68444 | 30° | 5km/h | 25688m | -27.0m/s | -50.5°C | 1.2% | 24.2hPa | 2.6V | 00:00:00 | 00:00:00 | 00:00:00 | |
| DK5PH-5 | 2026-09-01 01:02:12 | 49.64282 | 8.68444 | 31° | 7km/h | 25688m | -27.0m/s | -50.5°C | 4.0% | 24.1hPa | 2.6V | 02:45:00 | 02:33:53 | 00:00:00 | |
| DL1XH1-15 | 2026-09-01 01:02:11 | 49.64272 | 8.68435 | 51° | 11km/h | 25814m | -26.1m/s | -50.5°C | 4% | 23.7hPa | 2.6V | 02:45:16 | 02:33:48 | 00:00:00 | |
| AA1-15 | 2026-09-01 01:02:11 | 49.64281 | 8.68443 | 28° | 9km/h | 25714m | -24.8m/s | -50.6°C | 1% | 24.1hPa | 2.5V | 02:45:13 | 02:33:52 | 00:00:00 | |
| DM0DOS-11 | 2026-09-01 01:02:10 | 49.64270 | 8.68431 | 48° | 15km/h | 25840m | -25.6m/s | -50.6°C | 4% | 23.6hPa | 2.6V | 02:45:17 | 02:33:47 | 00:00:00 | |
| BIOWL1-15 | 2026-09-01 01:02:08 | 49.64274 | 8.68437 | 28° | 11km/h | 25789m | -25.1m/s | -50.5°C | 1% | 23.8hPa | 2.6V | 02:46:04 | 02:33:49 | 00:00:00 | |
| DL1XH-15 | 2026-09-01 01:02:07 | 49.64264 | 8.68418 | 49° | 9km/h | 25937m | -23.3m/s | -50.9°C | 4.1% | 23.3hPa | 2.5V | 02:45:21 | 02:33:43 | 00:00:00 | |
| DL1XH-west | 2026-09-01 01:02:06 | 49.64270 | 8.68431 | 48° | 15km/h | 25840m | -25.6m/s | -50.6°C | 1% | 23.6hPa | 2.6V | 02:46:04 | 02:33:47 | 00:00:00 | |
| HSKMA3-T | 2026-09-01 01:02:04 | 49.64266 | 8.68424 | 53° | 11km/h | 25889m | -25.1m/s | -50.8°C | 1.1% | 23.4hPa | 2.5V | 02:46:04 | 02:33:45 | 00:00:00 | |
| AA1-15 | 2026-09-01 01:02:00 | 49.64262 | 8.68414 | 52° | 5km/h | 25986m | -25.5m/s | -50.7°C | 1.1% | 23.1hPa | 2.6V | 02:46:04 | 02:33:41 | 00:00:00 | |
| DM0DOS-11 | 2026-09-01 01:02:00 | 49.64261 | 8.68410 | 77° | 5km/h | 26084m | -26.1m/s | -50.4°C | 4% | 22.8hPa | 2.5V | 02:45:27 | 02:33:37 | 00:00:00 | |
| DL1XH1-15 | 2026-09-01 01:01:59 | 49.64261 | 8.68411 | 112° | 2km/h | 26059m | -24.4m/s | -50.5°C | 4% | 22.8hPa | 2.5V | 02:45:26 | 02:33:38 | 00:00:00 | |
| DB0ND-19 | 2026-09-01 01:01:59 | 49.64262 | 8.68413 | 18° | 2km/h | 26011m | -24.8m/s | -50.6°C | 1.2% | 23.0hPa | 2.5V | 00:00:00 | 00:00:00 | 00:00:00 | |
| BIOWL9-15 | 2026-09-01 01:01:58 | 49.64261 | 8.68412 | 64° | 5km/h | 26035m | -24.6m/s | -50.5°C | 1.3% | 22.9hPa | 2.5V | 00:00:00 | 00:00:00 | 00:00:00 | |
| DL1XH-15 | 2026-09-01 01:01:57 | 49.64262 | 8.68399 | 90° | 5km/h | 26197m | -28m/s | -50.5°C | 4.1% | 22.4hPa | 2.5V | 02:45:31 | 02:33:33 | 00:00:00 | |
| DL1XH-west | 2026-09-01 01:01:55 | 49.64261 | 8.68408 | 105° | 7km/h | 26112m | -29.1m/s | -50.3°C | 1% | 22.7hPa | 2.6V | 02:46:04 | 02:33:36 | 00:00:00 | |
| HSKMA3-T | 2026-09-01 01:01:53 | 49.64261 | 8.68401 | 113° | 7km/h | 26169m | -27.1m/s | -50.4°C | 1% | 22.5hPa | 2.5V | 02:46:04 | 02:33:34 | 00:00:00 | |
| EDDB2-11 | 2026-09-01 01:01:52 | 49.64262 | 8.68399 | 90° | 5km/h | 26197m | -28.0m/s | -50.5°C | 1.2% | 22.4hPa | 2.5V | 00:00:00 | 00:00:00 | 00:00:00 | |
| DM0DOS-11 | 2026-09-01 01:01:50 | 49.64264 | 8.68395 | 239° | 4km/h | 26362m | -29.1m/s | -50°C | 3.9% | 21.8hPa | 2.5V | 02:45:37 | 02:33:27 | 00:00:00 | |
| BIOWL1-15 | 2026-09-01 01:01:50 | 49.64264 | 8.68399 | 271° | 5km/h | 26419m | -30.6m/s | -50°C | 1% | 21.6hPa | 2.5V | 02:46:04 | 02:33:25 | 00:00:00 | |
| AA1-15 | 2026-09-01 01:01:49 | 49.64262 | 8.68394 | 100° | 4km/h | 26278m | -27.2m/s | -50.4°C | 1% | 22.1hPa | 2.6V | 02:46:04 | 02:33:30 | 00:00:00 | |
| DB0UT-7 | 2026-09-01 01:01:49 | 49.64262 | 8.68393 | 101° | 11km/h | 26279m | -27.1m/s | -50.4°C | 4.0% | 22.0hPa | 2.5V | 00:00:00 | 00:00:00 | 00:00:00 | |
| DL1XH1-15 | 2026-09-01 01:01:48 | 49.64263 | 8.68394 | 259° | 4km/h | 26333m | -29.6m/s | -50.1°C | 3.9% | 21.9hPa | 2.5V | 02:45:36 | 02:33:28 | 00:00:00 | |
| DL1XH-15 | 2026-09-01 01:01:47 | 49.64263 | 8.68401 | 310° | 4km/h | 26482m | -31m/s | -50.1°C | 3.9% | 21.4hPa | 2.6V | 02:45:41 | 02:33:23 | 00:00:00 | |
| DL1XH-west | 2026-09-01 01:01:45 | 49.64264 | 8.68397 | 261° | 4km/h | 26390m | -28m/s | -50°C | 0.9% | 21.7hPa | 2.5V | 02:46:04 | 02:33:26 | 00:00:00 | |
| HSKMA3-T | 2026-09-01 01:01:43 | 49.64264 | 8.68400 | 346° | 2km/h | 26450m | -32.7m/s | -50.1°C | 1% | 21.6hPa | 2.6V | 02:46:04 | 02:33:24 | 00:00:00 | |
| DK5PH-5 | 2026-09-01 01:01:42 | 49.64263 | 8.68401 | 311° | 11km/h | 26482m | -31.0m/s | -50.1°C | 3.9% | 21.4hPa | 2.6V | 00:00:00 | 02:33:23 | 00:00:00 | |
| DM0DOS-11 | 2026-09-01 01:01:40 | 49.64262 | 8.68384 | 86° | 18km/h | 26649m | -26.8m/s | -49.9°C | 3.9% | 20.8hPa | 2.6V | 02:45:47 | 02:33:17 | 00:00:00 | |
| AA1-15 | 2026-09-01 01:01:39 | 49.64262 | 8.68398 | 75° | 5km/h | 26565m | -26.5m/s | -50.1°C | 1% | 21.1hPa | 2.5V | 02:46:04 | 02:33:20 | 00:00:00 | |
| DL1XH1-15 | 2026-09-01 01:01:38 | 49.64262 | 8.68390 | 99° | 16km/h | 26621m | -29.4m/s | -49.9°C | 3.9% | 20.9hPa | 2.6V | 02:45:46 | 02:33:18 | 00:00:00 | |
| DL1XH-15 | 2026-09-01 01:01:37 | 49.64267 | 8.68358 | 122° | 18km/h | 26750m | -27.5m/s | -49.8°C | 3.9% | 20.5hPa | 2.6V | 02:45:51 | 02:33:13 | 00:00:00 | |
| DL1XH-west | 2026-09-01 01:01:35 | 49.64262 | 8.68377 | 103° | 16km/h | 26675m | -26.2m/s | -49.9°C | 0.9% | 20.8hPa | 2.5V | 02:46:04 | 02:33:16 | 00:00:00 | |
| DJ2DS-15 | 2026-09-01 01:01:34 | 49.64263 | 8.68371 | 107° | 13km/h | 26701m | -24.1m/s | -49.8°C | 3.9% | 20.6hPa | 2.5V | 00:00:00 | 02:33:15 | 00:00:00 | |
| DL1XH1-15 | 2026-09-01 01:01:33 | 49.64281 | 8.68338 | 146° | 13km/h | 26881m | -28.6m/s | -49.6°C | 3.8% | 20.1hPa | 2.5V | 02:45:56 | 02:33:08 | 00:00:00 | |
| HSKMA3-T | 2026-09-01 01:01:32 | 49.64267 | 8.68358 | 122° | 18km/h | 26750m | -27.5m/s | -49.8°C | 0.9% | 20.5hPa | 2.6V | 02:46:04 | 02:33:13 | 00:00:00 | |
| AA1-15 | 2026-09-01 01:01:28 | 49.64278 | 8.68341 | 149° | 13km/h | 26853m | -27.1m/s | -49.6°C | 0.9% | 20.2hPa | 2.5V | 02:46:04 | 02:33:09 | 00:00:00 | |
| DB0ND-19 | 2026-09-01 01:01:28 | 49.64281 | 8.68339 | 146° | 13km/h | 26881m | -28.6m/s | -49.6°C | 1.1% | 20.1hPa | 2.5V | 00:00:00 | 00:00:00 | 00:00:00 | |
| DL1XH-15 | 2026-09-01 01:01:27 | 49.64293 | 8.68329 | 162° | 11km/h | 27033m | -30m/s | -49.6°C | 3.8% | 19.7hPa | 2.5V | 02:46:01 | 02:33:03 | 00:00:00 | |
| BIOWL1-15 | 2026-09-01 01:01:25 | 49.64286 | 8.68334 | 160° | 11km/h | 26938m | -32.8m/s | -49.4°C | 0.8% | 19.9hPa | 2.6V | 02:46:04 | 02:33:06 | 00:00:00 | |
| DL1XH-west | 2026-09-01 01:01:24 | 49.64290 | 8.68330 | 157° | 9km/h | 27002m | -32.4m/s | -49.6°C | 0.9% | 19.8hPa | 2.5V | 02:46:04 | 02:33:04 | 00:00:00 | |
| HSKMA3-T | 2026-09-01 01:01:22 | 49.64292 | 8.68329 | 162° | 11km/h | 27033m | -30m/s | -49.6°C | 0.9% | 19.7hPa | 2.5V | 02:46:04 | 02:33:03 | 00:00:00 | |
| DL3AQ-11 | 2026-09-01 01:01:22 | 49.64295 | 8.68327 | 160° | 9km/h | 27062m | -27.2m/s | -49.6°C | 1.2% | 19.6hPa | 2.5V | 00:00:00 | 00:00:00 | 00:00:00 | |
| EDDB2-11 | 2026-09-01 01:01:21 | 49.64295 | 8.68327 | 160° | 9km/h | 27062m | -27.2m/s | -49.6°C | 1.2% | 19.6hPa | 2.5V | 00:00:00 | 00:00:00 | 00:00:00 | |
| DM0DOS-11 | 2026-09-01 01:01:20 | 49.64307 | 8.68321 | 164° | 9km/h | 27180m | -24.5m/s | -49.7°C | 3.9% | 19.2hPa | 2.5V | 02:46:07 | 02:32:57 | 00:00:00 | |
| BIOWL1-15 | 2026-09-01 01:01:18 | 49.64324 | 8.68332 | 223° | 15km/h | 27335m | -26.8m/s | -49.8°C | 1% | 18.7hPa | 2.5V | 02:46:55 | 02:32:51 | 00:00:00 | |
| AA1-15 | 2026-09-01 01:01:18 | 49.64302 | 8.68323 | 163° | 13km/h | 27132m | -22.3m/s | -49.6°C | 0.9% | 19.3hPa | 2.5V | 02:47:46 | 02:32:59 | 00:00:00 | |
| DL1XH-15 | 2026-09-01 01:01:18 | 49.64318 | 8.68325 | 200° | 13km/h | 27281m | -27m/s | -49.8°C | 4% | 18.9hPa | 2.6V | 02:46:11 | 02:32:53 | 00:00:00 | |
| DL1XH-west | 2026-09-01 01:01:14 | 49.64315 | 8.68323 | 201° | 15km/h | 27255m | -25.2m/s | -49.8°C | 1% | 19hPa | 2.6V | 02:46:55 | 02:32:54 | 00:00:00 | |
| HSKMA3-T | 2026-09-01 01:01:12 | 49.64318 | 8.68325 | 200° | 13km/h | 27281m | -27m/s | -49.8°C | 1% | 18.9hPa | 2.6V | 02:46:55 | 02:32:53 | 00:00:00 | |
| DK5PH-5 | 2026-09-01 01:01:12 | 49.64318 | 8.68325 | 201° | 11km/h | 27281m | -27.0m/s | -49.7°C | 4.0% | 18.9hPa | 2.6V | 00:00:00 | 02:32:53 | 00:00:00 | |
| DL1XH1-15 | 2026-09-01 01:01:11 | 49.64330 | 8.68344 | 257° | 11km/h | 27412m | -24.9m/s | -49.7°C | 4% | 18.5hPa | 2.6V | 02:46:16 | 02:32:48 | 00:00:00 | |
| DL1ZP-14 | 2026-09-01 01:01:09 | 49.64326 | 8.68336 | 230° | 13km/h | 27362m | -25.9m/s | -49.7°C | 1.2% | 18.7hPa | 2.5V | 00:00:00 | 00:00:00 | 00:00:00 | |
| DL8DAS-14 | 2026-09-01 01:01:08 | 49.64329 | 8.68344 | 257° | 11km/h | 27412m | -24.9m/s | -49.7°C | 1.2% | 18.5hPa | 2.6V | 00:00:00 | 00:00:00 | 00:00:00 | |
| DL1XH-15 | 2026-09-01 01:01:07 | 49.64320 | 8.68363 | 346° | 15km/h | 27553m | -30m/s | -49.5°C | 3.9% | 18.1hPa | 2.6V | 02:46:21 | 02:32:43 | 00:00:00 | |
| AA1-15 | 2026-09-01 01:01:04 | 49.64327 | 8.68358 | 324° | 13km/h | 27492m | -32.5m/s | -49.6°C | 0.9% | 18.4hPa | 2.5V | 02:47:46 | 02:32:45 | 00:00:00 | |
| BIOWL1-15 | 2026-09-01 01:01:03 | 49.64303 | 8.68359 | 82° | 2km/h | 27777m | -26.9m/s | -48.8°C | 0.9% | 17.5hPa | 2.5V | 02:46:55 | 02:32:35 | 00:00:00 | |
| DL1XH-west | 2026-09-01 01:01:02 | 49.64320 | 8.68363 | 346° | 15km/h | 27553m | -30m/s | -49.5°C | 1% | 18.1hPa | 2.6V | 02:46:55 | 02:32:43 | 00:00:00 | |
| DL1XH1-15 | 2026-09-01 01:01:01 | 49.64305 | 8.68362 | 14° | 5km/h | 27698m | -27.1m/s | -49.2°C | 3.9% | 17.7hPa | 2.6V | 02:46:26 | 02:32:38 | 00:00:00 | |
| HSKMA3-T | 2026-09-01 01:01:01 | 49.64316 | 8.68364 | 346° | 15km/h | 27583m | -31.6m/s | -49.3°C | 1% | 18.1hPa | 2.6V | 02:46:55 | 02:32:42 | 00:00:00 | |
| DJ2KF-10 | 2026-09-01 01:01:01 | 49.64316 | 8.68364 | 347° | 15km/h | 27583m | -31.6m/s | -49.3°C | 3.9% | 18.0hPa | 2.6V | 00:00:00 | 02:32:42 | 00:00:00 | |
| DM0DOS-11 | 2026-09-01 01:01:00 | 49.64304 | 8.68361 | 74° | 4km/h | 27724m | -26.5m/s | -49°C | 3.9% | 17.6hPa | 2.6V | 02:46:27 | 02:32:37 | 00:00:00 | |
| DL1XH-15 | 2026-09-01 01:00:57 | 49.64304 | 8.68358 | 217° | 4km/h | 27830m | -27.7m/s | -48.5°C | 3.7% | 17.4hPa | 2.6V | 02:46:31 | 02:32:33 | 00:00:00 | |
| DL1XH-west | 2026-09-01 01:00:52 | 49.64304 | 8.68358 | 217° | 4km/h | 27830m | -27.7m/s | -48.5°C | 0.8% | 17.4hPa | 2.6V | 02:46:55 | 02:32:33 | 00:00:00 | |
| EDDB2-12 | 2026-09-01 01:00:52 | 49.64304 | 8.68358 | 217° | 2km/h | 27830m | -27.7m/s | -48.5°C | 1.1% | 17.4hPa | 2.5V | 00:00:00 | 00:00:00 | 00:00:00 | |
| DJ2DS-15 | 2026-09-01 01:00:51 | 49.64304 | 8.68362 | 277° | 7km/h | 27885m | -28.3m/s | -48.2°C | 1.1% | 17.2hPa | 2.5V | 00:00:00 | 00:00:00 | 00:00:00 | |
| EDDB2-11 | 2026-09-01 01:00:50 | 49.64304 | 8.68362 | 277° | 7km/h | 27885m | -28.3m/s | -48.2°C | 1.1% | 17.2hPa | 2.5V | 00:00:00 | 00:00:00 | 00:00:00 | |
| HSKMA3-T | 2026-09-01 01:00:50 | 49.64304 | 8.68362 | 277° | 7km/h | 27885m | -28.3m/s | -48.2°C | 0.8% | 17.2hPa | 2.6V | 02:46:55 | 02:32:31 | 00:00:00 | |
| DM0DOS-11 | 2026-09-01 01:00:50 | 49.64306 | 8.68372 | 220° | 9km/h | 28012m | -33.9m/s | -48.1°C | 3.6% | 16.9hPa | 2.6V | 02:46:37 | 02:32:27 | 00:00:00 | |
| BIOWL1-15 | 2026-09-01 01:00:48 | 49.64314 | 8.68378 | 191° | 15km/h | 28104m | -28.6m/s | -48.2°C | 0.8% | 16.7hPa | 2.5V | 02:46:55 | 02:32:24 | 00:00:00 | |
| DL1XH-15 | 2026-09-01 01:00:47 | 49.64318 | 8.68378 | 182° | 20km/h | 28133m | -30m/s | -48.3°C | 3.6% | 16.6hPa | 2.5V | 02:46:41 | 02:32:23 | 00:00:00 | |
| DF3TZ-5 | 2026-09-01 01:00:45 | 49.64310 | 8.68376 | 203° | 15km/h | 28075m | -29.3m/s | -48.1°C | 1.1% | 16.7hPa | 2.5V | 00:00:00 | 00:00:00 | 00:00:00 | |
| DL0LBS | 2026-09-01 01:00:44 | 49.64308 | 8.68374 | 206° | 9km/h | 28045m | -31.2m/s | -48.1°C | 1.1% | 16.8hPa | 2.5V | 02:46:00 | 00:00:00 | 00:00:00 | |
| BUE01 | 2026-09-01 01:00:43 | 49.64314 | 8.68378 | 190° | 15km/h | 28104m | -28.6m/s | -48.2°C | 1.1% | 16.7hPa | 2.5V | 00:00:00 | 00:00:00 | 00:00:00 | |
| DK5PH-5 | 2026-09-01 01:00:42 | 49.64318 | 8.68378 | 183° | 11km/h | 28133m | -29.9m/s | -48.2°C | 3.6% | 16.5hPa | 2.5V | 02:46:00 | 02:32:23 | 00:00:00 | |
| DL1XH-west | 2026-09-01 01:00:42 | 49.64318 | 8.68378 | 183° | 20km/h | 28133m | -30m/s | -48.3°C | 0.8% | 16.6hPa | 2.5V | 02:46:55 | 02:32:23 | 00:00:00 | |
| DL3AQ-11 | 2026-09-01 01:00:41 | 49.64323 | 8.68379 | 183° | 18km/h | 28161m | -27.4m/s | -48.4°C | 1.1% | 16.5hPa | 2.5V | 00:00:00 | 00:00:00 | 00:00:00 | |
| DM0DOS-11 | 2026-09-01 01:00:40 | 49.64342 | 8.68384 | 239° | 7km/h | 28298m | -31.4m/s | -48.1°C | 3.7% | 16.2hPa | 2.5V | 02:46:47 | 02:32:17 | 00:00:00 | |
| HSKMA3-T | 2026-09-01 01:00:39 | 49.64333 | 8.68380 | 186° | 18km/h | 28214m | -27m/s | -48.4°C | 0.8% | 16.3hPa | 2.6V | 02:46:55 | 02:32:20 | 00:00:00 | |
| DL1ZP-14 | 2026-09-01 01:00:38 | 49.64340 | 8.68382 | 200° | 11km/h | 28269m | -28.1m/s | -48.2°C | 1.1% | 16.2hPa | 2.5V | 00:00:00 | 00:00:00 | 00:00:00 | |
| DL1XH-15 | 2026-09-01 01:00:37 | 49.64341 | 8.68392 | 344° | 5km/h | 28420m | -29.4m/s | -48.1°C | 3.7% | 15.8hPa | 2.6V | 02:46:51 | 02:32:13 | 00:00:00 | |
| DL1XH-west | 2026-09-01 01:00:31 | 49.64339 | 8.68393 | 337° | 7km/h | 28449m | -28.7m/s | -48.2°C | 0.9% | 15.8hPa | 2.5V | 02:46:55 | 02:32:12 | 00:00:00 | |
| KANTATE | 2026-09-01 01:00:30 | 49.64338 | 8.68394 | 335° | 2km/h | 28477m | -28.6m/s | -48.0°C | 1.1% | 15.7hPa | 2.5V | 00:00:00 | 00:00:00 | 00:00:00 | |
| DM0DOS-11 | 2026-09-01 01:00:29 | 49.64339 | 8.68387 | 140° | 11km/h | 28597m | -30.7m/s | -48°C | 3.7% | 15.4hPa | 2.5V | 02:46:57 | 02:32:07 | 00:00:00 | |
| HSKMA3-T | 2026-09-01 01:00:28 | 49.64337 | 8.68392 | 119° | 5km/h | 28536m | -30.5m/s | -48°C | 0.8% | 15.6hPa | 2.6V | 02:46:55 | 02:32:09 | 00:00:00 | |
| DL1XH-west | 2026-09-01 01:00:21 | 49.64354 | 8.68374 | 166° | 15km/h | 28749m | -34m/s | -47.5°C | 0.8% | 15.1hPa | 2.5V | 02:47:46 | 02:32:02 | 00:00:00 | |
| DF2AP-13 | 2026-09-01 01:00:20 | 49.64357 | 8.68373 | 170° | 5km/h | 28783m | -34.3m/s | -47.5°C | 3.6% | 0hPa | 2.5V | 02:47:00 | 02:32:01 | 00:00:00 | |
| DL1XH1-15 | 2026-09-01 01:00:19 | 49.64365 | 8.68374 | 212° | 9km/h | 28878m | -31.6m/s | -47.6°C | 3.7% | 14.8hPa | 2.6V | 02:47:06 | 02:31:58 | 00:00:00 | |
| HSKMA3-T | 2026-09-01 01:00:18 | 49.64363 | 8.68373 | 200° | 11km/h | 28847m | -31.4m/s | -47.7°C | 0.8% | 14.8hPa | 2.6V | 02:47:46 | 02:31:59 | 00:00:00 | |
| DL1XH-15 | 2026-09-01 01:00:18 | 49.64372 | 8.68385 | 253° | 7km/h | 29048m | -35.3m/s | -47.5°C | 3.7% | 14.4hPa | 2.6V | 02:47:11 | 02:31:53 | 00:00:00 | |
| BIOWL1-15 | 2026-09-01 01:00:13 | 49.64375 | 8.68396 | 310° | 5km/h | 29246m | -34.2m/s | -47.4°C | 0.9% | 14hPa | 2.6V | 02:47:46 | 02:31:47 | 00:00:00 | |
| DL1XH1-15 | 2026-09-01 01:00:13 | 49.64375 | 8.68394 | 271° | 5km/h | 29214m | -33.4m/s | -47.4°C | 3.8% | 14hPa | 2.5V | 02:47:16 | 02:31:48 | 00:00:00 | |
| DL1XH-west | 2026-09-01 01:00:11 | 49.64373 | 8.68388 | 236° | 5km/h | 29082m | -32.8m/s | -47.5°C | 0.8% | 14.3hPa | 2.6V | 02:47:46 | 02:31:52 | 00:00:00 | |
| HSKMA3-T | 2026-09-01 01:00:08 | 49.64375 | 8.68393 | 259° | 5km/h | 29180m | -34.8m/s | -47.5°C | 0.9% | 14.1hPa | 2.5V | 02:47:46 | 02:31:49 | 00:00:00 | |
| BIOWL1-15 | 2026-09-01 01:00:05 | 49.64372 | 8.68400 | 314° | 7km/h | 29348m | -34.5m/s | -47.2°C | 0.9% | 13.8hPa | 2.5V | 02:47:46 | 02:31:44 | 00:00:00 | |
| DL1XH-15 | 2026-09-01 01:00:03 | 49.64370 | 8.68402 | 312° | 7km/h | 29381m | -33m/s | -47.2°C | 3.8% | 13.7hPa | 2.5V | 02:47:21 | 02:31:43 | 00:00:00 | |
| DL3AQ-11 | 2026-09-01 01:00:02 | 49.64369 | 8.68404 | 297° | 5km/h | 29414m | -33.3m/s | -47.1°C | 1.2% | 13.6hPa | 2.5V | 00:00:00 | 00:00:00 | 00:00:00 | |
| DM3KS-11 | 2026-09-01 01:00:01 | 49.64369 | 8.68406 | 280° | 4km/h | 29448m | -34.3m/s | -46.9°C | 1.2% | 13.5hPa | 2.5V | 00:00:00 | 00:00:00 | 00:00:00 | |
| IW2NTF | 2026-09-01 01:00:00 | 49.64369 | 8.68407 | 149° | 5km/h | 29550m | -32.8m/s | -46.7°C | 0% | 13.3hPa | 2.5V | 00:00:00 | 02:31:38 | 00:00:00 | |
| DL1XH-west | 2026-09-01 01:00:00 | 49.64369 | 8.68406 | 281° | 5km/h | 29448m | -34.3m/s | -46.9°C | 0.9% | 13.5hPa | 2.6V | 02:47:46 | 02:31:41 | 00:00:00 | |
| HSKMA3-T | 2026-09-01 00:59:58 | 49.64369 | 8.68407 | 109° | 2km/h | 29516m | -33.9m/s | -46.8°C | 0.9% | 13.4hPa | 2.5V | 02:47:46 | 02:31:39 | 00:00:00 | |
| DL1XH-15 | 2026-09-01 00:59:57 | 49.64374 | 8.68406 | 34° | 2km/h | 29737m | -33.4m/s | -45.6°C | 3.6% | 12.9hPa | 2.5V | 02:47:32 | 02:31:32 | 00:00:00 | |
| AA1-15 | 2026-09-01 00:59:53 | 49.64374 | 8.68406 | 186° | 4km/h | 29672m | -30.9m/s | -45.9°C | 0.8% | 13.1hPa | 2.5V | 02:47:46 | 02:31:34 | 00:00:00 | |
| DL1XH-west | 2026-09-01 00:59:50 | 49.64374 | 8.68405 | 13° | 5km/h | 29768m | -30m/s | -45.6°C | 0.7% | 12.9hPa | 2.6V | 02:47:46 | 02:31:31 | 00:00:00 | |
| HSKMA3-T | 2026-09-01 00:59:47 | 49.64368 | 8.68406 | 359° | 11km/h | 29862m | -31.9m/s | -45.2°C | 0.6% | 12.7hPa | 2.5V | 02:47:46 | 02:31:28 | 00:00:00 | |
| IW2NTF | 2026-09-01 00:59:47 | 49.64365 | 8.68406 | 9° | 13km/h | 29894m | -32.5m/s | -45.1°C | 0% | 12.6hPa | 2.5V | 00:00:00 | 02:31:27 | 00:00:00 | |
| DL1XH-15 | 2026-09-01 00:59:46 | 49.64352 | 8.68400 | 33° | 15km/h | 30067m | -34.5m/s | -44.3°C | 3.4% | 12.3hPa | 2.5V | 02:47:42 | 02:31:22 | 00:00:00 | |
| DL3AQ-11 | 2026-09-01 00:59:46 | 49.64362 | 8.68405 | 14° | 11km/h | 29927m | -33.3m/s | -45.0°C | 1.1% | 12.6hPa | 2.5V | 00:00:00 | 00:00:00 | 00:00:00 | |
| AA1-15 | 2026-09-01 00:59:42 | 49.64355 | 8.68402 | 35° | 11km/h | 30032m | -36.2m/s | -44.4°C | 0.5% | 12.4hPa | 2.5V | 02:47:46 | 02:31:23 | 00:00:00 | |
| BIOWL1-15 | 2026-09-01 00:59:41 | 49.64349 | 8.68396 | 34° | 15km/h | 30101m | -32.3m/s | -44.1°C | 0.6% | 12.2hPa | 2.5V | 02:47:46 | 02:31:21 | 00:00:00 | |
| DM0DOS-11 | 2026-09-01 00:59:40 | 49.64332 | 8.68373 | 42° | 20km/h | 30264m | -34.9m/s | -43.2°C | 3.2% | 11.9hPa | 2.5V | 02:47:48 | 02:31:16 | 00:00:00 | |
| DL1XH-west | 2026-09-01 00:59:39 | 49.64347 | 8.68393 | 37° | 15km/h | 30132m | -30.7m/s | -43.9°C | 0.5% | 12.2hPa | 2.6V | 02:47:46 | 02:31:20 | 00:00:00 | |
| HSKMA3-T | 2026-09-01 00:59:37 | 49.64340 | 8.68385 | 40° | 22km/h | 30195m | -32.8m/s | -43.5°C | 0.5% | 12.1hPa | 2.6V | 02:47:46 | 02:31:18 | 00:00:00 | |
| DB0UT-7 | 2026-09-01 00:59:37 | 49.64340 | 8.68385 | 40° | 15km/h | 30196m | -32.7m/s | -43.5°C | 3.2% | 12.0hPa | 2.5V | 00:00:00 | 00:00:00 | 00:00:00 | |
| DL1XH-15 | 2026-09-01 00:59:36 | 49.64319 | 8.68349 | 61° | 18km/h | 30399m | -32.4m/s | -42.7°C | 3.1% | 11.7hPa | 2.5V | 02:47:52 | 02:31:12 | 00:00:00 | |
| BIOWL1-15 | 2026-09-01 00:59:31 | 49.64319 | 8.68349 | 61° | 20km/h | 30399m | -32.4m/s | -42.7°C | 0.3% | 11.7hPa | 2.5V | 02:48:37 | 02:31:12 | 00:00:00 | |
| DM0DOS-11 | 2026-09-01 00:59:30 | 49.64326 | 8.68306 | 131° | 22km/h | 30593m | -30.9m/s | -41.6°C | 2.8% | 11.3hPa | 2.5V | 02:47:58 | 02:31:06 | 00:00:00 | |
| DL1XH1-15 | 2026-09-01 00:59:30 | 49.64320 | 8.68321 | 115° | 20km/h | 30532m | -32.9m/s | -41.9°C | 2.9% | 11.5hPa | 2.6V | 02:47:56 | 02:31:08 | 00:00:00 | |
| DL1XH-west | 2026-09-01 00:59:29 | 49.64317 | 8.68335 | 95° | 16km/h | 30464m | -34.3m/s | -42.3°C | 0.3% | 11.6hPa | 2.5V | 02:48:37 | 02:31:10 | 00:00:00 | |
| HSKMA3-T | 2026-09-01 00:59:27 | 49.64320 | 8.68321 | 115° | 20km/h | 30532m | -32.9m/s | -41.9°C | 0.2% | 11.5hPa | 2.6V | 02:48:37 | 02:31:08 | 00:00:00 | |
| BIOWL1-15 | 2026-09-01 00:59:21 | 49.64336 | 8.68290 | 160° | 5km/h | 30732m | -36.1m/s | -41.1°C | 0% | 11.1hPa | 2.6V | 02:48:37 | 02:31:02 | 00:00:00 | |
| AA1-15 | 2026-09-01 00:59:21 | 49.64337 | 8.68289 | 148° | 7km/h | 30769m | -36.7m/s | -40.9°C | 0% | 11.1hPa | 2.5V | 02:48:37 | 02:31:01 | 00:00:00 | |
| DL1XH1-15 | 2026-09-01 00:59:20 | 49.64342 | 8.68285 | 155° | 7km/h | 30883m | -37m/s | -40.5°C | 2.6% | 10.9hPa | 2.6V | 02:48:06 | 02:30:58 | 00:00:00 | |
| DL1XH-west | 2026-09-01 00:59:18 | 49.64340 | 8.68287 | 145° | 9km/h | 30845m | -39.8m/s | -40.6°C | 0% | 11hPa | 2.5V | 02:48:37 | 02:30:59 | 00:00:00 | |
| IW2NTF | 2026-09-01 00:59:17 | 49.64351 | 8.68268 | 116° | 15km/h | 31044m | -32.3m/s | -40.4°C | 0% | 0hPa | 2.5V | 00:00:00 | 02:30:53 | 00:00:00 | |
| HSKMA3-T | 2026-09-01 00:59:17 | 49.64342 | 8.68285 | 156° | 7km/h | 30883m | -37m/s | -40.5°C | 0% | 10.9hPa | 2.6V | 02:48:37 | 02:30:58 | 00:00:00 | |
| AA1-15 | 2026-09-01 00:59:10 | 49.64352 | 8.68258 | 80° | 13km/h | 31105m | -31.1m/s | -40.2°C | 0% | 10.5hPa | 2.6V | 02:48:37 | 02:30:51 | 00:00:00 | |
| DL4BBY-15 | 2026-09-01 00:59:10 | 49.64352 | 8.68258 | 81° | 11km/h | 31106m | -31.0m/s | -40.9°C | 0% | 0hPa | 2.5V | 00:00:00 | 00:00:00 | 00:00:00 | |
| DL1XH1-15 | 2026-09-01 00:59:09 | 49.64349 | 8.68247 | 55° | 11km/h | 31193m | -26.1m/s | -40.4°C | 2.7% | 10.3hPa | 2.5V | 02:48:16 | 02:30:48 | 00:00:00 | |
| DL1XH-west | 2026-09-01 00:59:07 | 49.64348 | 8.68247 | 56° | 11km/h | 31193m | -26.1m/s | -40.4°C | 0% | 10.3hPa | 2.5V | 02:48:37 | 02:30:48 | 00:00:00 | |
| HSKMA3-T | 2026-09-01 00:59:06 | 49.64347 | 8.68243 | 67° | 9km/h | 31218m | -24.5m/s | -40.4°C | 0% | 10.3hPa | 2.6V | 02:48:37 | 02:30:47 | 00:00:00 | |
| DM0DOS-11 | 2026-09-01 00:59:05 | 49.64347 | 8.68240 | 95° | 7km/h | 31244m | -27.4m/s | -40.5°C | 2.7% | 10.2hPa | 2.6V | 02:48:18 | 02:30:46 | 00:00:00 | |
| DF8AY | 2026-09-01 00:59:05 | 49.64347 | 8.68240 | 96° | 9km/h | 31244m | -27.4m/s | -40.5°C | 0% | 10.3hPa | 2.6V | 02:51:10 | 02:30:46 | 00:00:00 | |
| BIOWL1-15 | 2026-09-01 00:59:01 | 49.64359 | 8.68217 | 145° | 16km/h | 31422m | -33.7m/s | -40.7°C | 0.1% | 10hPa | 2.6V | 02:48:37 | 02:30:40 | 00:00:00 | |
| DM0DOS-11 | 2026-09-01 00:59:00 | 49.64368 | 8.68208 | 141° | 5km/h | 31574m | -39.2m/s | -40.4°C | 2.8% | 9.8hPa | 2.6V | 02:48:28 | 02:30:36 | 00:00:00 | |
| AA1-15 | 2026-09-01 00:59:00 | 49.64362 | 8.68214 | 140° | 11km/h | 31458m | -39.2m/s | -40.6°C | 0% | 10hPa | 2.5V | 02:48:37 | 02:30:39 | 00:00:00 | |
| DL1XH1-15 | 2026-09-01 00:58:59 | 49.64364 | 8.68212 | 146° | 11km/h | 31497m | -39.2m/s | -40.5°C | 2.8% | 9.9hPa | 2.5V | 02:48:26 | 02:30:38 | 00:00:00 | |
| DL1XH-west | 2026-09-01 00:58:57 | 49.64364 | 8.68212 | 147° | 11km/h | 31497m | -39.2m/s | -40.6°C | 0% | 9.9hPa | 2.5V | 02:48:37 | 02:30:38 | 00:00:00 | |
| HSKMA3-T | 2026-09-01 00:58:55 | 49.64368 | 8.68208 | 141° | 5km/h | 31574m | -39.3m/s | -40.4°C | 0.1% | 9.8hPa | 2.6V | 02:48:37 | 02:30:36 | 00:00:00 | |
| DF8AY | 2026-09-01 00:58:55 | 49.64369 | 8.68207 | 134° | 5km/h | 31612m | -35.8m/s | -40.4°C | 0.1% | 9.7hPa | 2.6V | 02:51:10 | 02:30:35 | 00:00:00 | |
| DL3AQ-11 | 2026-09-01 00:58:53 | 49.64370 | 8.68204 | 93° | 4km/h | 31677m | -29.7m/s | -40.3°C | 0.8% | 9.6hPa | 2.6V | 00:00:00 | 00:00:00 | 00:00:00 | |
| BIOWL9-15 | 2026-09-01 00:58:52 | 49.64370 | 8.68204 | 93° | 4km/h | 31677m | -29.7m/s | -40.3°C | 0.8% | 9.6hPa | 2.6V | 00:00:00 | 00:00:00 | 00:00:00 | |
| DO1YAY-16 | 2026-09-01 00:58:51 | 49.64370 | 8.68202 | 116° | 4km/h | 31706m | -29.2m/s | -40.1°C | 0.8% | 9.6hPa | 2.6V | 00:00:00 | 00:00:00 | 00:00:00 | |
| DM0DOS-11 | 2026-09-01 00:58:50 | 49.64377 | 8.68178 | 100° | 16km/h | 31904m | -31.6m/s | -38.9°C | 2.6% | 9.3hPa | 2.6V | 02:48:39 | 02:30:25 | 00:00:00 | |
| DL1XH1-15 | 2026-09-01 00:58:49 | 49.64373 | 8.68194 | 103° | 15km/h | 31816m | -32.5m/s | -39.3°C | 2.7% | 9.4hPa | 2.5V | 02:48:36 | 02:30:28 | 00:00:00 | |
| BIOWL1-15 | 2026-09-01 00:58:48 | 49.64373 | 8.68198 | 103° | 7km/h | 31785m | -30.4m/s | -39.4°C | 0% | 9.5hPa | 2.6V | 02:48:37 | 02:30:29 | 00:00:00 | |
| AA1-15 | 2026-09-01 00:58:48 | 49.64373 | 8.68194 | 104° | 15km/h | 31816m | -32.5m/s | -39.3°C | 0% | 9.4hPa | 2.5V | 02:48:37 | 02:30:28 | 00:00:00 | |
| DL1XH-west | 2026-09-01 00:58:46 | 49.64375 | 8.68189 | 117° | 15km/h | 31846m | -28.4m/s | -39.3°C | 0% | 9.4hPa | 2.5V | 02:48:37 | 02:30:27 | 00:00:00 | |
| HSKMA3-T | 2026-09-01 00:58:45 | 49.64376 | 8.68184 | 113° | 15km/h | 31874m | -27.7m/s | -39.1°C | 0% | 9.3hPa | 2.5V | 02:49:28 | 02:30:26 | 00:00:00 | |
| DF8AY | 2026-09-01 00:58:42 | 49.64377 | 8.68165 | 73° | 18km/h | 31971m | -34.5m/s | -38.8°C | 0% | 9.2hPa | 2.6V | 02:51:10 | 02:30:23 | 00:00:00 | |
| DH7VM-15 | 2026-09-01 00:58:42 | 49.64377 | 8.68165 | 74° | 18km/h | 31972m | -34.5m/s | -38.8°C | 0.8% | 9.2hPa | 2.5V | 00:00:00 | 00:00:00 | 00:00:00 | |
| DL4BBY-15 | 2026-09-01 00:58:40 | 49.64374 | 8.68151 | 62° | 18km/h | 32038m | -30.9m/s | -39.3°C | 0% | 0hPa | 2.5V | 00:00:00 | 00:00:00 | 00:00:00 | |
| DM0DOS-11 | 2026-09-01 00:58:39 | 49.64358 | 8.68117 | 67° | 11km/h | 32241m | -39.1m/s | -37.5°C | 2.4% | 8.8hPa | 2.5V | 02:48:49 | 02:30:15 | 00:00:00 | |
| DL1XH1-15 | 2026-09-01 00:58:38 | 49.64365 | 8.68132 | 51° | 20km/h | 32133m | -34.7m/s | -37.9°C | 2.5% | 9hPa | 2.6V | 02:48:46 | 02:30:18 | 00:00:00 | |
| AA1-15 | 2026-09-01 00:58:37 | 49.64365 | 8.68132 | 52° | 20km/h | 32133m | -34.7m/s | -37.9°C | 0% | 9hPa | 2.6V | 02:49:28 | 02:30:18 | 00:00:00 | |
| DL1XH-west | 2026-09-01 00:58:35 | 49.64359 | 8.68122 | 56° | 15km/h | 32204m | -36.1m/s | -37.6°C | 0% | 8.9hPa | 2.6V | 02:49:28 | 02:30:16 | 00:00:00 | |
| HSKMA3-T | 2026-09-01 00:58:34 | 49.64358 | 8.68117 | 67° | 11km/h | 32241m | -39.1m/s | -37.5°C | 0% | 8.9hPa | 2.5V | 02:49:28 | 02:30:15 | 00:00:00 | |
| BIOWL1-15 | 2026-09-01 00:58:29 | 49.64350 | 8.68080 | 52° | 18km/h | 32483m | -37.1m/s | -36.3°C | 0% | 8.6hPa | 2.5V | 02:49:28 | 02:30:08 | 00:00:00 | |
| DL1XH1-15 | 2026-09-01 00:58:28 | 49.64350 | 8.68080 | 52° | 18km/h | 32483m | -37.1m/s | -36.3°C | 2.2% | 8.5hPa | 2.5V | 02:48:56 | 02:30:08 | 00:00:00 | |
| AA1-15 | 2026-09-01 00:58:27 | 49.64346 | 8.68075 | 40° | 20km/h | 32521m | -39.9m/s | -36.4°C | 0% | 8.5hPa | 2.6V | 02:49:28 | 02:30:07 | 00:00:00 | |
| DL1XH-west | 2026-09-01 00:58:24 | 49.64339 | 8.68064 | 32° | 20km/h | 32594m | -34m/s | -36.4°C | 0% | 8.4hPa | 2.6V | 02:49:28 | 02:30:05 | 00:00:00 | |
| HSKMA3-T | 2026-09-01 00:58:23 | 49.64335 | 8.68061 | 34° | 16km/h | 32628m | -33.7m/s | -36.4°C | 0% | 8.3hPa | 2.5V | 02:49:28 | 02:30:04 | 00:00:00 | |
| DB0ND-19 | 2026-09-01 00:58:22 | 49.64327 | 8.68054 | 22° | 13km/h | 32691m | -30.6m/s | -36.3°C | 0.7% | 8.2hPa | 2.6V | 00:00:00 | 00:00:00 | 00:00:00 | |
| BIOWL9-15 | 2026-09-01 00:58:21 | 49.64324 | 8.68052 | 39° | 9km/h | 32720m | -28.9m/s | -36.2°C | 0.7% | 8.2hPa | 2.6V | 00:00:00 | 00:00:00 | 00:00:00 | |
| DO1YAY-16 | 2026-09-01 00:58:20 | 49.64322 | 8.68049 | 51° | 13km/h | 32748m | -28.1m/s | -36.0°C | 0.7% | 8.2hPa | 2.6V | 00:00:00 | 00:00:00 | 00:00:00 | |
| DM0DOS-11 | 2026-09-01 00:58:19 | 49.64320 | 8.68010 | 82° | 26km/h | 32930m | -34.6m/s | -35.3°C | 2.1% | 7.9hPa | 2.6V | 02:49:09 | 02:29:55 | 00:00:00 | |
| BIOWL1-15 | 2026-09-01 00:58:18 | 49.64306 | 8.67966 | 46° | 16km/h | 33126m | -35.6m/s | -34.9°C | 0% | 7.8hPa | 2.6V | 02:49:28 | 02:29:49 | 00:00:00 | |
| AA1-15 | 2026-09-01 00:58:16 | 49.64320 | 8.68019 | 92° | 22km/h | 32894m | -37m/s | -35.4°C | 0% | 8hPa | 2.6V | 02:49:28 | 02:29:56 | 00:00:00 | |
| DL1XH-west | 2026-09-01 00:58:14 | 49.64320 | 8.68010 | 83° | 26km/h | 32930m | -34.6m/s | -35.3°C | 0% | 8hPa | 2.6V | 02:49:28 | 02:29:55 | 00:00:00 | |
| HSKMA3-T | 2026-09-01 00:58:12 | 49.64317 | 8.67993 | 66° | 22km/h | 32998m | -32.8m/s | -35.2°C | 0% | 7.9hPa | 2.5V | 02:49:28 | 02:29:53 | 00:00:00 | |
| DL1XH-15 | 2026-09-01 00:58:11 | 49.64312 | 8.67978 | 57° | 22km/h | 33060m | -30.4m/s | -35°C | 2.1% | 7.8hPa | 2.5V | 02:49:13 | 02:29:51 | 00:00:00 | |
| GOEST3-10 | 2026-09-01 00:58:11 | 49.64315 | 8.67985 | 67° | 15km/h | 33030m | -30.1m/s | 0°C | 0% | 0hPa | 2.5V | 00:00:00 | 00:00:00 | 00:00:00 | |
| DL4BBY-15 | 2026-09-01 00:58:10 | 49.64312 | 8.67978 | 58° | 20km/h | 33061m | -30.3m/s | -35.7°C | 0% | 0hPa | 2.5V | 00:00:00 | 00:00:00 | 00:00:00 | |
| HEMX73-11 | 2026-09-01 00:58:09 | 49.64312 | 8.67978 | 58° | 22km/h | 33060m | -30.4m/s | -35.0°C | 0.6% | 7.8hPa | 2.5V | 02:49:00 | 00:00:00 | 00:00:00 | |
| BUE01 | 2026-09-01 00:58:08 | 49.64306 | 8.67966 | 46° | 15km/h | 33127m | -35.6m/s | -34.9°C | -1.0% | -1.0hPa | 2.5V | 00:00:00 | 00:00:00 | 00:00:00 | |
| DB0UT-7 | 2026-09-01 00:58:07 | 49.64304 | 8.67962 | 51° | 20km/h | 33163m | -35.7m/s | -34.9°C | 2.1% | 7.7hPa | 2.5V | 00:00:00 | 02:29:48 | 00:00:00 | |
| DL1XH-15 | 2026-09-01 00:58:06 | 49.64300 | 8.67928 | 88° | 15km/h | 33369m | -26.6m/s | -34.7°C | 2% | 7.4hPa | 2.5V | 02:49:23 | 02:29:41 | 00:00:00 | |
| DJ2KF-10 | 2026-09-01 00:58:05 | 49.64300 | 8.67953 | 66° | 20km/h | 33228m | -31.0m/s | -35.0°C | 2.2% | 7.6hPa | 2.5V | 02:49:00 | 02:29:46 | 00:00:00 | |
| DM0DOS-11 | 2026-09-01 00:58:04 | 49.64300 | 8.67945 | 87° | 11km/h | 33289m | -28.8m/s | -35°C | 2.1% | 7.5hPa | 2.5V | 02:49:20 | 02:29:44 | 00:00:00 | |
| DL1XH-west | 2026-09-01 00:58:04 | 49.64300 | 8.67950 | 90° | 11km/h | 33259m | -31m/s | -35.1°C | 0% | 7.6hPa | 2.5V | 02:49:28 | 02:29:45 | 00:00:00 | |
| BIOWL1-15 | 2026-09-01 00:58:03 | 49.64300 | 8.67945 | 88° | 11km/h | 33289m | -28.8m/s | -35°C | 0% | 7.5hPa | 2.5V | 02:49:28 | 02:29:44 | 00:00:00 | |
| HSKMA3-T | 2026-09-01 00:58:01 | 49.64300 | 8.67934 | 94° | 16km/h | 33344m | -24.6m/s | -34.8°C | 0% | 7.5hPa | 2.6V | 02:49:28 | 02:29:42 | 00:00:00 | |
| DF7PN | 2026-09-01 00:58:01 | 49.64300 | 8.67928 | 88° | 15km/h | 33369m | -26.6m/s | 0°C | -1.0% | -1.0hPa | 2.6V | 00:00:00 | 00:00:00 | 00:00:00 | |
| GOEST3-10 | 2026-09-01 00:58:00 | 49.64300 | 8.67928 | 89° | 18km/h | 33369m | -26.5m/s | 0°C | 0% | 0hPa | 2.6V | 02:49:00 | 00:00:00 | 00:00:00 | |
| SFWM-10 | 2026-09-01 00:57:59 | 49.64300 | 8.67928 | 90° | 15km/h | 33369m | -26.6m/s | -34.7°C | 0.6% | 7.4hPa | 2.6V | 02:49:00 | 00:00:00 | 00:00:00 | |
| DK5PH-5 | 2026-09-01 00:57:56 | 49.64300 | 8.67901 | 101° | 22km/h | 33515m | -44.3m/s | -34.3°C | 1.9% | 7.3hPa | 2.6V | 00:00:00 | 02:29:37 | 00:00:00 | |
| GOEST3-10 | 2026-09-01 00:57:55 | 49.64301 | 8.67893 | 118° | 27km/h | 33559m | -44.3m/s | 0°C | 0% | 0hPa | 2.6V | 00:00:00 | 02:29:36 | 00:00:00 | |
| DL1XH-15 | 2026-09-01 00:57:54 | 49.64325 | 8.67856 | 144° | 31km/h | 33758m | -36.8m/s | -34.6°C | 2% | 7hPa | 2.6V | 02:49:33 | 02:29:31 | 00:00:00 | |
| DL1XH-west | 2026-09-01 00:57:53 | 49.64308 | 8.67879 | 130° | 26km/h | 33643m | -40.8m/s | -34.3°C | 0% | 7.2hPa | 2.5V | 02:51:10 | 02:29:34 | 00:00:00 | |
| BIOWL1-15 | 2026-09-01 00:57:52 | 49.64336 | 8.67839 | 127° | 31km/h | 33832m | -35.8m/s | -34.9°C | 0% | 7hPa | 2.5V | 02:51:10 | 02:29:29 | 00:00:00 | |
| HSKMA3-T | 2026-09-01 00:57:51 | 49.64319 | 8.67864 | 136° | 31km/h | 33721m | -38.8m/s | -34.5°C | 0% | 7.1hPa | 2.6V | 02:51:10 | 02:29:32 | 00:00:00 | |
| DB0ND-19 | 2026-09-01 00:57:51 | 49.64325 | 8.67856 | 144° | 31km/h | 33759m | -36.8m/s | -34.6°C | 0.6% | 7.1hPa | 2.5V | 00:00:00 | 00:00:00 | 00:00:00 | |
| BIOWL9-15 | 2026-09-01 00:57:50 | 49.64331 | 8.67848 | 133° | 31km/h | 33796m | -37.7m/s | -34.7°C | 0.6% | 7.0hPa | 2.5V | 00:00:00 | 00:00:00 | 00:00:00 | |
| DO1YAY-16 | 2026-09-01 00:57:49 | 49.64336 | 8.67839 | 127° | 31km/h | 33832m | -35.8m/s | -34.9°C | 0.6% | 7.0hPa | 2.5V | 00:00:00 | 00:00:00 | 00:00:00 | |
| DL3AQ-11 | 2026-09-01 00:57:45 | 49.64344 | 8.67810 | 92° | 24km/h | 33925m | -27.7m/s | -35.3°C | 0.6% | 6.8hPa | 2.5V | 00:00:00 | 00:00:00 | 00:00:00 | |
| DM0DOS-11 | 2026-09-01 00:57:45 | 49.64342 | 8.67794 | 60° | 24km/h | 33978m | -26.5m/s | -35.5°C | 2.2% | 6.8hPa | 2.5V | 02:49:40 | 02:29:24 | 00:00:00 | |
| DL1XH-15 | 2026-09-01 00:57:44 | 49.64330 | 8.67781 | 12° | 13km/h | 34058m | -27.9m/s | -35.6°C | 2.3% | 6.7hPa | 2.5V | 02:49:43 | 02:29:21 | 00:00:00 | |
| EDDB2-11 | 2026-09-01 00:57:44 | 49.64344 | 8.67801 | 75° | 22km/h | 33952m | -26.5m/s | -35.4°C | 0.7% | 6.8hPa | 2.5V | 00:00:00 | 00:00:00 | 00:00:00 | |
| DL1XH-west | 2026-09-01 00:57:42 | 49.64338 | 8.67787 | 41° | 22km/h | 34004m | -27.1m/s | -35.6°C | 0% | 6.8hPa | 2.5V | 02:51:10 | 02:29:23 | 00:00:00 | |
| DF8AY | 2026-09-01 00:57:41 | 49.64334 | 8.67783 | 21° | 18km/h | 34031m | -27.3m/s | -35.6°C | 0% | 6.7hPa | 2.5V | 02:51:10 | 02:29:22 | 00:00:00 | |
| HSKMA3-T | 2026-09-01 00:57:40 | 49.64330 | 8.67781 | 13° | 13km/h | 34058m | -27.9m/s | -35.6°C | 0% | 6.7hPa | 2.5V | 02:51:10 | 02:29:21 | 00:00:00 | |
| BIOWL1-15 | 2026-09-01 00:57:38 | 49.64325 | 8.67784 | 223° | 5km/h | 34141m | -31.1m/s | -35.4°C | 0% | 6.7hPa | 2.6V | 02:51:10 | 02:29:18 | 00:00:00 | |
| DB0UT-7 | 2026-09-01 00:57:37 | 49.64325 | 8.67784 | 224° | 20km/h | 34142m | -31.1m/s | -35.4°C | 2.3% | 6.6hPa | 2.6V | 02:49:00 | 00:00:00 | 00:00:00 | |
| DM0DOS-11 | 2026-09-01 00:57:35 | 49.64334 | 8.67778 | 121° | 18km/h | 34293m | -47.7m/s | -34.2°C | 2% | 6.5hPa | 2.6V | 02:49:50 | 02:29:14 | 00:00:00 | |
| DL1XH-west | 2026-09-01 00:57:31 | 49.64336 | 8.67762 | 94° | 22km/h | 34394m | -49.1m/s | -34.1°C | 0% | 6.4hPa | 2.5V | 02:51:10 | 02:29:12 | 00:00:00 | |
| HSKMA3-T | 2026-09-01 00:57:30 | 49.64336 | 8.67753 | 84° | 26km/h | 34443m | -48.3m/s | -33.9°C | 0% | 6.4hPa | 2.5V | 02:51:10 | 02:29:11 | 00:00:00 | |
| BIOWL1-15 | 2026-09-01 00:57:30 | 49.64331 | 8.67735 | 58° | 24km/h | 34545m | -53.3m/s | -33.6°C | 0% | 6.3hPa | 2.6V | 02:51:10 | 02:29:09 | 00:00:00 | |
| HEMX73-11 | 2026-09-01 00:57:29 | 49.64336 | 8.67753 | 85° | 26km/h | 34443m | -48.3m/s | -33.9°C | 0.6% | 6.4hPa | 2.6V | 02:50:00 | 00:00:00 | 00:00:00 | |
| DK5PH-5 | 2026-09-01 00:57:26 | 49.64323 | 8.67719 | 41° | 29km/h | 34646m | -47.5m/s | -33.7°C | 1.9% | 6.1hPa | 2.6V | 02:49:00 | 02:29:07 | 00:00:00 | |
| DM0DOS-11 | 2026-09-01 00:57:25 | 49.64312 | 8.67717 | 319° | 15km/h | 34803m | -54.6m/s | -33.7°C | 1.8% | 6.1hPa | 2.5V | 02:50:00 | 02:29:04 | 00:00:00 | |
| DD1CC8 | 2026-09-01 00:57:24 | 49.64315 | 8.67714 | 332° | 13km/h | 34748m | -56.4m/s | -33.6°C | 0.6% | 6.1hPa | 2.6V | 00:00:00 | 00:00:00 | 00:00:00 | |
| IW2NTF | 2026-09-01 00:57:23 | 49.64309 | 8.67721 | 309° | 13km/h | 34855m | -50.4m/s | -33.9°C | 0% | 0hPa | 2.6V | 00:00:00 | 02:29:03 | 00:00:00 | |
| DL1XH-west | 2026-09-01 00:57:21 | 49.64308 | 8.67725 | 287° | 11km/h | 34904m | -46.5m/s | -34.1°C | 0% | 5.9hPa | 2.6V | 02:51:10 | 02:29:02 | 00:00:00 | |
| DF8AY | 2026-09-01 00:57:20 | 49.64308 | 8.67730 | 264° | 11km/h | 34948m | -42.1m/s | -34.3°C | 0% | 5.9hPa | 2.5V | 02:51:10 | 02:29:01 | 00:00:00 | |
| HSKMA3-T | 2026-09-01 00:57:19 | 49.64308 | 8.67734 | 240° | 11km/h | 34988m | -37.5m/s | -34.6°C | 0% | 5.8hPa | 2.5V | 02:51:10 | 02:29:00 | 00:00:00 | |
| DL1XH-west | 2026-09-01 00:57:11 | 49.64367 | 8.67671 | 344° | 13km/h | 35188m | -43.1m/s | -34.7°C | 0% | 5.7hPa | 2.5V | 02:51:10 | 02:28:52 | 00:00:00 | |
| AA1-15 | 2026-09-01 00:57:10 | 49.64357 | 8.67677 | 334° | 26km/h | 35264m | -31.3m/s | -34.8°C | 0% | 5.6hPa | 2.6V | 02:51:10 | 02:28:50 | 00:00:00 | |
| HSKMA3-T | 2026-09-01 00:57:09 | 49.64351 | 8.67682 | 333° | 27km/h | 35291m | -23.1m/s | -34.8°C | 0% | 5.6hPa | 2.6V | 02:51:10 | 02:28:49 | 00:00:00 | |
| BIOWL1-15 | 2026-09-01 00:57:06 | 49.64330 | 8.67728 | 241° | 42km/h | 35299m | 7.8m/s | -35°C | 0% | 5.5hPa | 2.5V | 02:51:10 | 02:28:43 | 00:00:00 | |
| DL1XH-west | 2026-09-01 00:57:00 | 49.64346 | 8.67755 | 220° | 51km/h | 35286m | 4.5m/s | -35°C | 0% | 5.5hPa | 2.5V | 02:51:10 | 02:28:41 | 00:00:00 | |
| HSKMA3-T | 2026-09-01 00:56:58 | 49.64364 | 8.67773 | 203° | 33km/h | 35280m | 2.5m/s | -34.9°C | 0% | 5.6hPa | 2.6V | 02:51:10 | 02:28:39 | 00:00:00 | |
| DF8AY | 2026-09-01 00:56:57 | 49.64370 | 8.67776 | 187° | 18km/h | 35276m | 4m/s | -34.9°C | 0% | 5.6hPa | 2.6V | 02:51:10 | 02:28:38 | 00:00:00 | |
| BIOWL1-15 | 2026-09-01 00:56:54 | 49.64367 | 8.67765 | 35° | 31km/h | 35257m | 7.7m/s | -34.9°C | 0% | 5.6hPa | 2.5V | 02:51:10 | 02:28:35 | 00:00:00 | |
| DD1CC8 | 2026-09-01 00:56:53 | 49.64359 | 8.67758 | 25° | 40km/h | 35250m | 5.9m/s | -34.9°C | 0.6% | 5.6hPa | 2.6V | 00:00:00 | 00:00:00 | 00:00:00 | |
| SFWM-10 | 2026-09-01 00:56:52 | 49.64359 | 8.67758 | 26° | 42km/h | 35250m | 5.9m/s | -34.9°C | 0.6% | 5.6hPa | 2.6V | 02:51:00 | 00:00:00 | 00:00:00 | |
| IW2NTF | 2026-09-01 00:56:51 | 49.64331 | 8.67753 | 337° | 29km/h | 35242m | 1.6m/s | 0°C | 0% | 0hPa | 2.6V | 00:00:00 | 02:28:31 | 00:00:00 | |
| DL1XH-15 | 2026-09-01 00:56:50 | 49.64326 | 8.67759 | 300° | 24km/h | 35239m | 3.5m/s | -35.1°C | 2.1% | 5.6hPa | 2.5V | 02:50:34 | 02:28:30 | 00:00:00 | |
| DL1XH-west | 2026-09-01 00:56:49 | 49.64326 | 8.67759 | 301° | 24km/h | 35239m | 3.5m/s | -35.1°C | 0% | 5.6hPa | 2.5V | 02:51:10 | 02:28:30 | 00:00:00 | |
| AA1-15 | 2026-09-01 00:56:48 | 49.64324 | 8.67769 | 264° | 29km/h | 35234m | 6.2m/s | -35.1°C | 0% | 5.6hPa | 2.5V | 02:51:10 | 02:28:29 | 00:00:00 | |
| HSKMA3-T | 2026-09-01 00:56:47 | 49.64327 | 8.67781 | 240° | 40km/h | 35227m | 8.1m/s | -35.1°C | 0% | 5.6hPa | 2.5V | 02:51:10 | 02:28:28 | 00:00:00 | |
| BIOWL1-15 | 2026-09-01 00:56:44 | 49.64358 | 8.67821 | 207° | 58km/h | 35208m | 3.1m/s | -35.2°C | 0% | 5.6hPa | 2.5V | 02:51:10 | 02:28:25 | 00:00:00 | |
| DF8AY | 2026-09-01 00:56:43 | 49.64381 | 8.67834 | 189° | 35km/h | 35204m | 2.1m/s | -35.3°C | 0% | 5.6hPa | 2.5V | 02:51:10 | 02:28:23 | 00:00:00 | |
| DL1XH-west | 2026-09-01 00:56:38 | 49.64385 | 8.67824 | 24° | 29km/h | 35180m | 7.8m/s | -35.2°C | 0% | 5.7hPa | 2.5V | 02:51:10 | 02:28:19 | 00:00:00 | |
| HSKMA3-T | 2026-09-01 00:56:37 | 49.64377 | 8.67820 | 12° | 37km/h | 35173m | 5.8m/s | -35.2°C | 0% | 5.7hPa | 2.5V | 02:51:10 | 02:28:18 | 00:00:00 | |
| BIOWL1-15 | 2026-09-01 00:56:33 | 49.64363 | 8.67850 | 214° | 44km/h | 35146m | 7.8m/s | -35°C | 0% | 5.7hPa | 2.5V | 02:51:10 | 02:28:12 | 00:00:00 | |
| DF8AY | 2026-09-01 00:56:32 | 49.64357 | 8.67840 | 231° | 31km/h | 35153m | 7m/s | -35.1°C | 0% | 5.7hPa | 2.6V | 02:51:10 | 02:28:13 | 00:00:00 | |
| DL1XH-west | 2026-09-01 00:56:28 | 49.64414 | 8.67869 | 175° | 44km/h | 35127m | 2.1m/s | -35°C | 0% | 5.7hPa | 2.6V | 02:51:10 | 02:28:08 | 00:00:00 | |
| HSKMA3-T | 2026-09-01 00:56:26 | 49.64423 | 8.67866 | 159° | 31km/h | 35125m | 3.4m/s | -35°C | 0% | 5.7hPa | 2.5V | 02:51:10 | 02:28:07 | 00:00:00 | |
| DF8AY | 2026-09-01 00:56:22 | 49.64411 | 8.67834 | 17° | 38km/h | 35092m | 4.3m/s | -34.9°C | 0% | 5.7hPa | 2.6V | 02:51:10 | 02:28:02 | 00:00:00 | |
| BIOWL1-15 | 2026-09-01 00:56:20 | 49.64402 | 8.67831 | 7° | 31km/h | 35089m | 2.5m/s | -34.9°C | 0% | 5.7hPa | 2.5V | 02:51:10 | 02:28:01 | 00:00:00 | |
| DL1XH-west | 2026-09-01 00:56:17 | 49.64398 | 8.67843 | 210° | 31km/h | 35071m | 7.7m/s | -34.9°C | 0% | 5.7hPa | 2.6V | 02:51:10 | 02:27:57 | 00:00:00 | |
| DL1XH1-15 | 2026-09-01 00:56:16 | 49.64444 | 8.67860 | 180° | 46km/h | 35050m | 1.8m/s | -34.9°C | 2.1% | 5.8hPa | 2.5V | 02:51:11 | 02:27:53 | 00:00:00 | |
| HSKMA3-T | 2026-09-01 00:56:15 | 49.64407 | 8.67849 | 200° | 46km/h | 35063m | 7.6m/s | -34.9°C | 0% | 5.7hPa | 2.6V | 02:51:10 | 02:27:56 | 00:00:00 | |
| DF8AY | 2026-09-01 00:56:12 | 49.64444 | 8.67860 | 180° | 46km/h | 35050m | 1.8m/s | -34.9°C | 0% | 5.8hPa | 2.5V | 02:52:01 | 02:27:53 | 00:00:00 | |
| BIOWL1-15 | 2026-09-01 00:56:09 | 49.64455 | 8.67838 | 31° | 33km/h | 35024m | 7m/s | -34.7°C | 0% | 5.8hPa | 2.5V | 02:52:01 | 02:27:48 | 00:00:00 | |
| DL1XH-west | 2026-09-01 00:56:06 | 49.64448 | 8.67832 | 23° | 37km/h | 35018m | 5m/s | -34.7°C | 0% | 5.8hPa | 2.5V | 02:52:01 | 02:27:47 | 00:00:00 | |
| DF3TZ-5 | 2026-09-01 00:56:06 | 49.64439 | 8.67827 | 17° | 33km/h | 35015m | 3.0m/s | -34.7°C | 0.6% | 5.8hPa | 2.5V | 00:00:00 | 00:00:00 | 00:00:00 | |
| DJ2KF-10 | 2026-09-01 00:56:05 | 49.64439 | 8.67827 | 18° | 26km/h | 35015m | 3.0m/s | -34.7°C | 2.1% | 5.7hPa | 2.5V | 00:00:00 | 02:27:46 | 00:00:00 | |
| DL1XH1-15 | 2026-09-01 00:56:04 | 49.64428 | 8.67824 | 214° | 5km/h | 35004m | 5.2m/s | -34.6°C | 2% | 5.8hPa | 2.5V | 02:51:21 | 02:27:43 | 00:00:00 | |
| HSKMA3-T | 2026-09-01 00:56:04 | 49.64432 | 8.67824 | 13° | 24km/h | 35011m | 2.4m/s | -34.7°C | 0% | 5.8hPa | 2.6V | 02:52:01 | 02:27:45 | 00:00:00 | |
| DF8AY | 2026-09-01 00:55:59 | 49.64445 | 8.67831 | 192° | 40km/h | 34985m | 5.4m/s | -34.5°C | 0% | 5.8hPa | 2.5V | 02:52:01 | 02:27:40 | 00:00:00 | |
| BIOWL1-15 | 2026-09-01 00:55:58 | 49.64455 | 8.67834 | 190° | 40km/h | 34981m | 3.8m/s | -34.5°C | 0% | 5.8hPa | 2.6V | 02:52:01 | 02:27:39 | 00:00:00 | |
| DL1XH-west | 2026-09-01 00:55:56 | 49.64475 | 8.67836 | 156° | 9km/h | 34970m | 5.1m/s | -34.4°C | 0% | 5.8hPa | 2.5V | 02:52:01 | 02:27:36 | 00:00:00 | |
| DM0DOS-11 | 2026-09-01 00:55:56 | 49.64466 | 8.67826 | 25° | 31km/h | 34951m | 5.7m/s | -34.4°C | 2% | 5.8hPa | 2.6V | 02:51:31 | 02:27:33 | 00:00:00 | |
| HSKMA3-T | 2026-09-01 00:55:53 | 49.64472 | 8.67830 | 30° | 22km/h | 34957m | 6.9m/s | -34.4°C | 0% | 5.8hPa | 2.5V | 02:52:01 | 02:27:34 | 00:00:00 | |
| DF8AY | 2026-09-01 00:55:47 | 49.64451 | 8.67802 | 158° | 18km/h | 34931m | 7m/s | -34.3°C | 0% | 5.8hPa | 2.6V | 02:52:01 | 02:27:28 | 00:00:00 | |
| DL1XH-west | 2026-09-01 00:55:45 | 49.64466 | 8.67799 | 178° | 42km/h | 34917m | 5.8m/s | -34.3°C | 0% | 5.9hPa | 2.6V | 02:52:01 | 02:27:26 | 00:00:00 | |
| DO1YAY-16 | 2026-09-01 00:55:44 | 49.64477 | 8.67799 | 180° | 42km/h | 34912m | 3.2m/s | -34.3°C | 0.6% | 5.9hPa | 2.5V | 00:00:00 | 00:00:00 | 00:00:00 | |
| HSKMA3-T | 2026-09-01 00:55:43 | 49.64486 | 8.67799 | 180° | 35km/h | 34910m | 1.5m/s | -34.3°C | 0% | 5.9hPa | 2.5V | 02:52:01 | 02:27:24 | 00:00:00 | |
| AA1-15 | 2026-09-01 00:55:42 | 49.64493 | 8.67799 | 174° | 22km/h | 34908m | 2.3m/s | -34.3°C | 0% | 5.9hPa | 2.5V | 02:52:01 | 02:27:23 | 00:00:00 | |
| DF8AY | 2026-09-01 00:55:37 | 49.64475 | 8.67776 | 29° | 46km/h | 34878m | 3.8m/s | -34.3°C | 0% | 5.9hPa | 2.5V | 02:52:01 | 02:27:18 | 00:00:00 | |
| DL1XH-west | 2026-09-01 00:55:35 | 49.64456 | 8.67751 | 70° | 20km/h | 34869m | 4.4m/s | -34.2°C | 0% | 5.9hPa | 2.6V | 02:52:01 | 02:27:15 | 00:00:00 | |
| DL1XH1-15 | 2026-09-01 00:55:35 | 49.64460 | 8.67740 | 156° | 26km/h | 34856m | 7.5m/s | -34.2°C | 2% | 5.9hPa | 2.5V | 02:51:51 | 02:27:13 | 00:00:00 | |
| HSKMA3-T | 2026-09-01 00:55:34 | 49.64456 | 8.67745 | 122° | 18km/h | 34864m | 6.6m/s | -34.2°C | 0% | 5.9hPa | 2.6V | 02:52:01 | 02:27:14 | 00:00:00 | |
| AA1-15 | 2026-09-01 00:55:31 | 49.64468 | 8.67736 | 170° | 37km/h | 34849m | 6.8m/s | -34.2°C | 0% | 5.9hPa | 2.5V | 02:52:01 | 02:27:12 | 00:00:00 | |
| DF8AY | 2026-09-01 00:55:26 | 49.64500 | 8.67728 | 54° | 11km/h | 34830m | 5.6m/s | -34.2°C | 0% | 5.9hPa | 2.5V | 02:52:01 | 02:27:07 | 00:00:00 | |
| DK5PH-5 | 2026-09-01 00:55:26 | 49.64499 | 8.67728 | 55° | 27km/h | 34831m | 5.6m/s | -34.2°C | 2.0% | 5.9hPa | 2.6V | 00:00:00 | 02:27:07 | 00:00:00 | |
| DM0DOS-11 | 2026-09-01 00:55:25 | 49.64458 | 8.67693 | 33° | 44km/h | 34801m | 2.7m/s | -34.2°C | 2% | 6hPa | 2.6V | 02:52:02 | 02:27:02 | 00:00:00 | |
| DL1XH-west | 2026-09-01 00:55:25 | 49.64496 | 8.67724 | 31° | 26km/h | 34824m | 7.2m/s | -34.2°C | 0% | 6hPa | 2.5V | 02:52:01 | 02:27:06 | 00:00:00 | |
| DB0UT-7 | 2026-09-01 00:55:25 | 49.64496 | 8.67724 | 31° | 26km/h | 34824m | 7.2m/s | -34.2°C | 2.0% | 5.9hPa | 2.5V | 02:51:00 | 02:27:06 | 00:00:00 | |
| DL1XH1-15 | 2026-09-01 00:55:24 | 49.64468 | 8.67702 | 28° | 49km/h | 34805m | 4m/s | -34.2°C | 2% | 6hPa | 2.6V | 02:52:01 | 02:27:03 | 00:00:00 | |
| HSKMA3-T | 2026-09-01 00:55:22 | 49.64468 | 8.67702 | 28° | 49km/h | 34805m | 4m/s | -34.2°C | 0% | 6hPa | 2.6V | 02:52:01 | 02:27:03 | 00:00:00 | |
| AA1-15 | 2026-09-01 00:55:21 | 49.64458 | 8.67693 | 33° | 44km/h | 34801m | 2.7m/s | -34.3°C | 0% | 6hPa | 2.6V | 02:52:52 | 02:27:02 | 00:00:00 | |
| DD1CC8 | 2026-09-01 00:55:20 | 49.64446 | 8.67676 | 63° | 22km/h | 34794m | 4.8m/s | -34.3°C | 0.6% | 6.0hPa | 2.6V | 00:00:00 | 00:00:00 | 00:00:00 | |
| DM0DOS-11 | 2026-09-01 00:55:15 | 49.64471 | 8.67633 | 51° | 24km/h | 34755m | 6m/s | -34.3°C | 2% | 6hPa | 2.6V | 02:52:12 | 02:26:52 | 00:00:00 | |
| DL1XH-west | 2026-09-01 00:55:15 | 49.64460 | 8.67654 | 160° | 31km/h | 34771m | 4.1m/s | -34.3°C | 0% | 6hPa | 2.6V | 02:52:52 | 02:26:56 | 00:00:00 | |
| BIOWL9-15 | 2026-09-01 00:55:15 | 49.64467 | 8.67649 | 154° | 26km/h | 34768m | 3.1m/s | -34.3°C | 0.6% | 6.0hPa | 2.5V | 00:00:00 | 00:00:00 | 00:00:00 | |
| DJ2DS-15 | 2026-09-01 00:55:14 | 49.64467 | 8.67649 | 155° | 26km/h | 34768m | 3.0m/s | -34.2°C | 2.0% | 5.9hPa | 2.5V | 02:52:00 | 02:26:55 | 00:00:00 | |
| DL1XH-15 | 2026-09-01 00:55:13 | 49.64473 | 8.67639 | 86° | 15km/h | 34760m | 4.6m/s | -34.3°C | 2% | 6hPa | 2.5V | 02:52:11 | 02:26:53 | 00:00:00 | |
| HSKMA3-T | 2026-09-01 00:55:12 | 49.64472 | 8.67639 | 87° | 15km/h | 34760m | 4.6m/s | -34.3°C | 0% | 6hPa | 2.5V | 02:52:52 | 02:26:53 | 00:00:00 | |
| AA1-15 | 2026-09-01 00:55:11 | 49.64465 | 8.67625 | 38° | 35km/h | 34748m | 6.6m/s | -34.3°C | 0% | 6hPa | 2.6V | 02:52:52 | 02:26:51 | 00:00:00 | |
| DL4BBY-15 | 2026-09-01 00:55:09 | 49.64457 | 8.67616 | 33° | 26km/h | 34743m | 5.9m/s | -34.9°C | 0% | 0hPa | 2.5V | 00:00:00 | 00:00:00 | 00:00:00 | |
| KANTATE | 2026-09-01 00:55:07 | 49.64447 | 8.67607 | 33° | 47km/h | 34737m | 4.5m/s | -34.2°C | 0.6% | 6.0hPa | 2.5V | 00:00:00 | 00:00:00 | 00:00:00 | |
| DJ2KF-10 | 2026-09-01 00:55:06 | 49.64424 | 8.67581 | 50° | 24km/h | 34725m | 4.5m/s | -34.1°C | 2.0% | 6.0hPa | 2.5V | 02:52:00 | 02:26:46 | 00:00:00 | |
| BIOWL1-15 | 2026-09-01 00:55:06 | 49.64434 | 8.67549 | 85° | 11km/h | 34689m | 4.5m/s | -34.2°C | 0% | 6.1hPa | 2.6V | 02:52:52 | 02:26:39 | 00:00:00 | |
| DL1XH1-15 | 2026-09-01 00:55:05 | 49.64423 | 8.67564 | 139° | 16km/h | 34708m | 5.9m/s | -34.1°C | 2% | 6hPa | 2.6V | 02:52:21 | 02:26:43 | 00:00:00 | |
| DM0DOS-11 | 2026-09-01 00:55:04 | 49.64431 | 8.67556 | 149° | 16km/h | 34698m | 4.6m/s | -34.1°C | 2% | 6.1hPa | 2.5V | 02:52:23 | 02:26:41 | 00:00:00 | |
| DL1XH-west | 2026-09-01 00:55:04 | 49.64421 | 8.67574 | 70° | 16km/h | 34720m | 5.7m/s | -34.2°C | 0% | 6hPa | 2.6V | 02:52:52 | 02:26:45 | 00:00:00 | |
| HSKMA3-T | 2026-09-01 00:55:02 | 49.64423 | 8.67564 | 139° | 16km/h | 34708m | 5.9m/s | -34.2°C | 0% | 6hPa | 2.6V | 02:52:52 | 02:26:43 | 00:00:00 | |
| AA1-15 | 2026-09-01 00:54:59 | 49.64433 | 8.67553 | 130° | 11km/h | 34693m | 4.3m/s | -34.1°C | 0% | 6.1hPa | 2.5V | 02:52:52 | 02:26:40 | 00:00:00 | |
| GOEST3-10 | 2026-09-01 00:54:59 | 49.64433 | 8.67553 | 131° | 16km/h | 34694m | 4.2m/s | 0°C | 0% | 0hPa | 2.6V | 00:00:00 | 02:26:40 | 00:00:00 | |
| DL8DAS-15 | 2026-09-01 00:54:58 | 49.64433 | 8.67553 | 131° | 11km/h | 34694m | 4.3m/s | -34.1°C | 0.6% | 6.1hPa | 2.6V | 00:00:00 | 00:00:00 | 00:00:00 | |
| DK5PH-5 | 2026-09-01 00:54:56 | 49.64429 | 8.67538 | 43° | 29km/h | 34679m | 5.3m/s | -34.1°C | 2.0% | 6.0hPa | 2.6V | 00:00:00 | 02:26:37 | 00:00:00 | |
| DB0UT-7 | 2026-09-01 00:54:55 | 49.64423 | 8.67531 | 40° | 31km/h | 34674m | 4.9m/s | -34.1°C | 2.0% | 6.0hPa | 2.6V | 00:00:00 | 00:00:00 | 00:00:00 | |
| DL1XH1-15 | 2026-09-01 00:54:54 | 49.64405 | 8.67504 | 53° | 31km/h | 34661m | 4m/s | -34.2°C | 2% | 6.1hPa | 2.6V | 02:52:31 | 02:26:33 | 00:00:00 | |
| DM0DOS-11 | 2026-09-01 00:54:54 | 49.64400 | 8.67486 | 88° | 22km/h | 34651m | 5.7m/s | -34.2°C | 2% | 6.1hPa | 2.5V | 02:52:33 | 02:26:31 | 00:00:00 | |
| DL1XH-west | 2026-09-01 00:54:54 | 49.64417 | 8.67523 | 41° | 37km/h | 34669m | 4.3m/s | -34.2°C | 0% | 6.1hPa | 2.5V | 02:52:52 | 02:26:35 | 00:00:00 | |
| DF8AY | 2026-09-01 00:54:53 | 49.64410 | 8.67513 | 45° | 35km/h | 34665m | 4m/s | -34.2°C | 0% | 6.1hPa | 2.6V | 02:54:34 | 02:26:34 | 00:00:00 | |
| HSKMA3-T | 2026-09-01 00:54:51 | 49.64402 | 8.67495 | 67° | 26km/h | 34656m | 5m/s | -34.2°C | 0% | 6.1hPa | 2.6V | 02:52:52 | 02:26:32 | 00:00:00 | |
| BIOWL1-15 | 2026-09-01 00:54:49 | 49.64401 | 8.67478 | 111° | 22km/h | 34645m | 6m/s | -34.2°C | 0% | 6.1hPa | 2.5V | 02:52:52 | 02:26:30 | 00:00:00 | |
| DD1CC8 | 2026-09-01 00:54:49 | 49.64404 | 8.67471 | 126° | 20km/h | 34640m | 5.0m/s | -34.2°C | 0.6% | 6.1hPa | 2.6V | 00:00:00 | 00:00:00 | 00:00:00 | |
| DL1XH-15 | 2026-09-01 00:54:48 | 49.64409 | 8.67447 | 51° | 20km/h | 34624m | 5.1m/s | -34.2°C | 2% | 6.1hPa | 2.6V | 02:52:39 | 02:26:25 | 00:00:00 | |
| AA1-15 | 2026-09-01 00:54:48 | 49.64404 | 8.67471 | 127° | 22km/h | 34640m | 5m/s | -34.2°C | 0% | 6.1hPa | 2.5V | 02:52:52 | 02:26:29 | 00:00:00 | |
| GOEST3-10 | 2026-09-01 00:54:48 | 49.64404 | 8.67471 | 127° | 27km/h | 34640m | 4.9m/s | 0°C | 0% | 0hPa | 2.6V | 00:00:00 | 00:00:00 | 00:00:00 | |
| HEMX73-11 | 2026-09-01 00:54:45 | 49.64410 | 8.67458 | 118° | 16km/h | 34632m | 3.2m/s | -34.2°C | 0.6% | 6.2hPa | 2.6V | 02:52:00 | 00:00:00 | 00:00:00 | |
| DM0DOS-11 | 2026-09-01 00:54:44 | 49.64377 | 8.67423 | 19° | 44km/h | 34601m | 3.7m/s | -34.2°C | 2% | 6.2hPa | 2.6V | 02:52:43 | 02:26:21 | 00:00:00 | |
| DL1XH-west | 2026-09-01 00:54:43 | 49.64404 | 8.67441 | 33° | 27km/h | 34618m | 6.4m/s | -34.2°C | 0% | 6.2hPa | 2.5V | 02:52:52 | 02:26:24 | 00:00:00 | |
| HSKMA3-T | 2026-09-01 00:54:40 | 49.64377 | 8.67423 | 19° | 44km/h | 34601m | 3.7m/s | -34.2°C | 0% | 6.2hPa | 2.6V | 02:52:52 | 02:26:21 | 00:00:00 | |
| AA1-15 | 2026-09-01 00:54:38 | 49.64355 | 8.67409 | 40° | 18km/h | 34590m | 5.6m/s | -34.1°C | 0% | 6.2hPa | 2.5V | 02:52:52 | 02:26:18 | 00:00:00 | |
| DL1XH1-15 | 2026-09-01 00:54:34 | 49.64365 | 8.67381 | 107° | 22km/h | 34565m | 2.5m/s | -34.1°C | 2% | 6.2hPa | 2.5V | 02:52:51 | 02:26:13 | 00:00:00 | |
| DJ2DS-15 | 2026-09-01 00:54:34 | 49.64358 | 8.67395 | 140° | 31km/h | 34572m | 4.6m/s | -34.0°C | 2.0% | 6.1hPa | 2.5V | 00:00:00 | 02:26:15 | 00:00:00 | |
| DM0DOS-11 | 2026-09-01 00:54:33 | 49.64362 | 8.67364 | 52° | 31km/h | 34557m | 5.8m/s | -34.1°C | 2% | 6.2hPa | 2.5V | 02:52:53 | 02:26:11 | 00:00:00 | |
| DL1XH-west | 2026-09-01 00:54:33 | 49.64362 | 8.67389 | 131° | 24km/h | 34568m | 3.1m/s | -34.1°C | 0% | 6.2hPa | 2.6V | 02:52:52 | 02:26:14 | 00:00:00 | |
| DF8AY | 2026-09-01 00:54:32 | 49.64365 | 8.67382 | 108° | 22km/h | 34565m | 2.5m/s | -34.1°C | 0% | 6.2hPa | 2.5V | 02:54:34 | 02:26:13 | 00:00:00 | |
| HSKMA3-T | 2026-09-01 00:54:29 | 49.64356 | 8.67354 | 37° | 42km/h | 34551m | 7.2m/s | -34.1°C | 0% | 6.2hPa | 2.5V | 02:53:43 | 02:26:10 | 00:00:00 | |
| BIOWL1-15 | 2026-09-01 00:54:28 | 49.64296 | 8.67323 | 169° | 18km/h | 34511m | 6.6m/s | -34.2°C | 0% | 6.2hPa | 2.6V | 02:53:43 | 02:26:02 | 00:00:00 | |
| AA1-15 | 2026-09-01 00:54:26 | 49.64320 | 8.67331 | 14° | 53km/h | 34534m | 2.5m/s | -34.1°C | 0% | 6.2hPa | 2.6V | 02:53:43 | 02:26:07 | 00:00:00 | |
| DL3AQ-11 | 2026-09-01 00:54:26 | 49.64308 | 8.67327 | 9° | 42km/h | 34532m | 2.0m/s | -34.1°C | 0.6% | 6.2hPa | 2.5V | 00:00:00 | 00:00:00 | 00:00:00 | |
| DL1ZP-14 | 2026-09-01 00:54:25 | 49.64308 | 8.67327 | 9° | 42km/h | 34532m | 2.0m/s | -34.1°C | 0.6% | 6.2hPa | 2.5V | 00:00:00 | 00:00:00 | 00:00:00 | |
| DL1XH-15 | 2026-09-01 00:54:24 | 49.64308 | 8.67316 | 145° | 31km/h | 34502m | 2m/s | -34.2°C | 2% | 6.3hPa | 2.6V | 02:53:04 | 02:26:00 | 00:00:00 | |
| DL1XH-west | 2026-09-01 00:54:22 | 49.64293 | 8.67324 | 165° | 4km/h | 34518m | 7.1m/s | -34.2°C | 0% | 6.2hPa | 2.5V | 02:53:43 | 02:26:03 | 00:00:00 | |
| DF8AY | 2026-09-01 00:54:21 | 49.64308 | 8.67316 | 146° | 31km/h | 34502m | 2m/s | -34.2°C | 0% | 0hPa | 2.6V | 02:54:34 | 02:26:00 | 00:00:00 | |
| HSKMA3-T | 2026-09-01 00:54:18 | 49.64313 | 8.67308 | 122° | 29km/h | 34501m | 1.4m/s | -34.2°C | 0% | 6.3hPa | 2.5V | 02:53:43 | 02:25:59 | 00:00:00 | |
| BIOWL1-15 | 2026-09-01 00:54:18 | 49.64315 | 8.67298 | 92° | 29km/h | 34498m | 3m/s | -34.3°C | 0% | 6.2hPa | 2.5V | 02:53:43 | 02:25:58 | 00:00:00 | |
| AA1-15 | 2026-09-01 00:54:15 | 49.64307 | 8.67274 | 42° | 44km/h | 34488m | 7.3m/s | -34.3°C | 0% | 6.3hPa | 2.6V | 02:53:43 | 02:25:56 | 00:00:00 | |
| DL1XH-west | 2026-09-01 00:54:12 | 49.64267 | 8.67252 | 4° | 60km/h | 34471m | 2.5m/s | -34.4°C | 0% | 6.3hPa | 2.5V | 02:53:43 | 02:25:53 | 00:00:00 | |
| DM0DOS-11 | 2026-09-01 00:54:11 | 49.64243 | 8.67256 | 341° | 37km/h | 34466m | 2.9m/s | -34.5°C | 2% | 6.3hPa | 2.6V | 02:53:13 | 02:25:51 | 00:00:00 | |
| DO1YAY-16 | 2026-09-01 00:54:11 | 49.64253 | 8.67253 | 353° | 49km/h | 34469m | 1.5m/s | -34.4°C | 0.6% | 6.3hPa | 2.6V | 00:00:00 | 00:00:00 | 00:00:00 | |
| DL4BBY-15 | 2026-09-01 00:54:09 | 49.64236 | 8.67261 | 322° | 42km/h | 34463m | 5.0m/s | -35.1°C | 0% | 0hPa | 2.6V | 00:00:00 | 00:00:00 | 00:00:00 | |
| DL1XH1-15 | 2026-09-01 00:54:08 | 49.64260 | 8.67227 | 74° | 44km/h | 34431m | 4.7m/s | -34.5°C | 2% | 6.3hPa | 2.6V | 02:53:21 | 02:25:43 | 00:00:00 | |
| HSKMA3-T | 2026-09-01 00:54:08 | 49.64236 | 8.67270 | 199° | 20km/h | 34450m | 6.7m/s | -34.5°C | 0% | 6.3hPa | 2.5V | 02:53:43 | 02:25:48 | 00:00:00 | |
| BIOWL1-15 | 2026-09-01 00:54:06 | 49.64243 | 8.67270 | 171° | 31km/h | 34444m | 5m/s | -34.5°C | 0% | 6.3hPa | 2.5V | 02:53:43 | 02:25:47 | 00:00:00 | |
| AA1-15 | 2026-09-01 00:54:05 | 49.64257 | 8.67256 | 126° | 38km/h | 34438m | 2.1m/s | -34.5°C | 0% | 6.3hPa | 2.5V | 02:53:43 | 02:25:45 | 00:00:00 | |
| DM0DOS-11 | 2026-09-01 00:54:04 | 49.64244 | 8.67196 | 33° | 60km/h | 34420m | 6m/s | -34.5°C | 2% | 6.3hPa | 2.5V | 02:53:23 | 02:25:41 | 00:00:00 | |
| DL1XH-west | 2026-09-01 00:54:01 | 49.64255 | 8.67210 | 52° | 51km/h | 34426m | 6m/s | -34.5°C | 0% | 6.3hPa | 2.6V | 02:53:43 | 02:25:42 | 00:00:00 | |
| HSKMA3-T | 2026-09-01 00:53:57 | 49.64200 | 8.67185 | 345° | 55km/h | 34409m | 2.3m/s | -34.6°C | 0% | 6.3hPa | 2.5V | 02:53:43 | 02:25:38 | 00:00:00 | |
| BIOWL1-15 | 2026-09-01 00:53:56 | 49.64189 | 8.67193 | 325° | 42km/h | 34406m | 3.2m/s | -34.7°C | 0% | 6.4hPa | 2.6V | 02:53:43 | 02:25:37 | 00:00:00 | |
| AA1-15 | 2026-09-01 00:53:53 | 49.64186 | 8.67223 | 215° | 31km/h | 34389m | 6.7m/s | -34.7°C | 0% | 6.3hPa | 2.5V | 02:53:43 | 02:25:34 | 00:00:00 | |
| DF8AY | 2026-09-01 00:53:52 | 49.64194 | 8.67227 | 185° | 38km/h | 34383m | 5.5m/s | -34.7°C | 0% | 0hPa | 2.5V | 02:54:34 | 02:25:33 | 00:00:00 | |
| DM0DOS-11 | 2026-09-01 00:53:51 | 49.64219 | 8.67203 | 108° | 42km/h | 34374m | 2.5m/s | -34.7°C | 2% | 6.4hPa | 2.6V | 02:53:34 | 02:25:30 | 00:00:00 | |
| DL1XH-west | 2026-09-01 00:53:51 | 49.64204 | 8.67225 | 161° | 42km/h | 34379m | 3.6m/s | -34.7°C | 0% | 6.4hPa | 2.5V | 02:53:43 | 02:25:32 | 00:00:00 | |
| HSKMA3-T | 2026-09-01 00:53:47 | 49.64215 | 8.67172 | 55° | 47km/h | 34365m | 5.7m/s | -34.7°C | 0% | 6.4hPa | 2.5V | 02:53:43 | 02:25:28 | 00:00:00 | |
| BIOWL1-15 | 2026-09-01 00:53:45 | 49.64193 | 8.67149 | 15° | 62km/h | 34353m | 6m/s | -34.7°C | 0% | 6.4hPa | 2.6V | 02:53:43 | 02:25:26 | 00:00:00 | |
| AA1-15 | 2026-09-01 00:53:43 | 49.64162 | 8.67150 | 341° | 58km/h | 34344m | 2.6m/s | -34.7°C | 0% | 6.4hPa | 2.6V | 02:53:43 | 02:25:24 | 00:00:00 | |
| DF8AY | 2026-09-01 00:53:41 | 49.64143 | 8.67171 | 299° | 37km/h | 34339m | 3.5m/s | -34.7°C | 0% | 0hPa | 2.5V | 02:54:34 | 02:25:22 | 00:00:00 | |
| DL1XH-west | 2026-09-01 00:53:40 | 49.64142 | 8.67183 | 263° | 27km/h | 34335m | 5.3m/s | -34.8°C | 0% | 6.4hPa | 2.5V | 02:53:43 | 02:25:21 | 00:00:00 | |
| DM0DOS-11 | 2026-09-01 00:53:39 | 49.64162 | 8.67193 | 159° | 44km/h | 34316m | 5.3m/s | -34.8°C | 2% | 6.4hPa | 2.6V | 02:53:46 | 02:25:18 | 00:00:00 | |
| HSKMA3-T | 2026-09-01 00:53:36 | 49.64172 | 8.67183 | 138° | 47km/h | 34312m | 3.5m/s | -34.8°C | 0% | 6.4hPa | 2.6V | 02:54:34 | 02:25:17 | 00:00:00 | |
| DJ2KF-10 | 2026-09-01 00:53:35 | 49.64179 | 8.67169 | 115° | 44km/h | 34309m | 2.5m/s | -34.8°C | 2.1% | 6.4hPa | 2.5V | 02:53:00 | 02:25:16 | 00:00:00 | |
| DL1XH1-15 | 2026-09-01 00:53:34 | 49.64172 | 8.67123 | 37° | 47km/h | 34296m | 6.2m/s | -34.9°C | 2% | 6.5hPa | 2.5V | 02:53:51 | 02:25:13 | 00:00:00 | |
| BIOWL1-15 | 2026-09-01 00:53:34 | 49.64181 | 8.67152 | 90° | 44km/h | 34306m | 3m/s | -34.9°C | 0% | 6.4hPa | 2.5V | 02:54:34 | 02:25:15 | 00:00:00 | |
| AA1-15 | 2026-09-01 00:53:32 | 49.64172 | 8.67123 | 38° | 47km/h | 34296m | 6.2m/s | -34.9°C | 0% | 6.5hPa | 2.5V | 02:54:34 | 02:25:13 | 00:00:00 | |
| DF8AY | 2026-09-01 00:53:31 | 49.64125 | 8.67172 | 187° | 37km/h | 34258m | 7m/s | -35°C | 0% | 0hPa | 2.6V | 02:54:34 | 02:25:05 | 00:00:00 | |
| DL1XH-west | 2026-09-01 00:53:29 | 49.64134 | 8.67119 | 335° | 57km/h | 34279m | 3.8m/s | -35°C | 0% | 6.5hPa | 2.6V | 02:54:34 | 02:25:10 | 00:00:00 | |
| HSKMA3-T | 2026-09-01 00:53:26 | 49.64115 | 8.67157 | 263° | 31km/h | 34270m | 4.1m/s | -35.1°C | 0% | 6.5hPa | 2.5V | 02:54:34 | 02:25:07 | 00:00:00 | |
| DK5PH-5 | 2026-09-01 00:53:26 | 49.64115 | 8.67157 | 263° | 46km/h | 34270m | 4.0m/s | -35.0°C | 2.0% | 6.4hPa | 2.6V | 00:00:00 | 02:25:07 | 00:00:00 | |
| SONCRA | 2026-09-01 00:53:25 | 49.64118 | 8.67167 | 222° | 29km/h | 34265m | 6.0m/s | -35.0°C | 0.6% | 6.5hPa | 2.6V | 00:00:00 | 00:00:00 | 00:00:00 | |
| DL1XH1-15 | 2026-09-01 00:53:24 | 49.64146 | 8.67160 | 139° | 53km/h | 34245m | 4.6m/s | -35°C | 2% | 6.5hPa | 2.6V | 02:54:01 | 02:25:03 | 00:00:00 | |
| HTAHTA | 2026-09-01 00:53:24 | 49.64136 | 8.67170 | 160° | 46km/h | 34251m | 6.5m/s | -35.0°C | 0.6% | 6.5hPa | 2.6V | 00:00:00 | 00:00:00 | 00:00:00 | |
| DL1ZP-14 | 2026-09-01 00:53:23 | 49.64136 | 8.67170 | 160° | 46km/h | 34251m | 6.5m/s | -35.0°C | 0.6% | 6.5hPa | 2.6V | 00:00:00 | 00:00:00 | 00:00:00 | |
| DM0DOS-11 | 2026-09-01 00:53:22 | 49.64143 | 8.67082 | 22° | 47km/h | 34226m | 6.7m/s | -35.3°C | 2.1% | 6.5hPa | 2.6V | 02:54:06 | 02:24:58 | 00:00:00 | |
| AA1-15 | 2026-09-01 00:53:22 | 49.64146 | 8.67160 | 139° | 53km/h | 34245m | 4.6m/s | -35°C | 0% | 6.5hPa | 2.6V | 02:54:34 | 02:25:03 | 00:00:00 | |
| DL1XH-west | 2026-09-01 00:53:19 | 49.64158 | 8.67107 | 74° | 47km/h | 34237m | 3.3m/s | -35.2°C | 0% | 6.5hPa | 2.5V | 02:54:34 | 02:25:00 | 00:00:00 | |
| DB0UT-7 | 2026-09-01 00:53:18 | 49.64152 | 8.67092 | 48° | 42km/h | 34233m | 5.1m/s | -35.2°C | 2.1% | 6.5hPa | 2.6V | 00:00:00 | 02:24:59 | 00:00:00 | |
| DL1XH1-15 | 2026-09-01 00:53:17 | 49.64093 | 8.67123 | 279° | 38km/h | 34200m | 3.1m/s | -35.5°C | 2.1% | 6.5hPa | 2.6V | 02:54:11 | 02:24:53 | 00:00:00 | |
| HSKMA3-T | 2026-09-01 00:53:15 | 49.64118 | 8.67083 | 338° | 57km/h | 34213m | 6.2m/s | -35.4°C | 0% | 6.5hPa | 2.5V | 02:54:34 | 02:24:56 | 00:00:00 | |
| DF8AY | 2026-09-01 00:53:15 | 49.64106 | 8.67093 | 320° | 55km/h | 34207m | 4.5m/s | -35.4°C | 0% | 0hPa | 2.5V | 02:54:34 | 02:24:55 | 00:00:00 | |
| DJ2DS-15 | 2026-09-01 00:53:14 | 49.64106 | 8.67093 | 320° | 42km/h | 34208m | 4.5m/s | -35.4°C | 2.1% | 6.5hPa | 2.5V | 02:54:00 | 02:24:55 | 00:00:00 | |
| DM0DOS-11 | 2026-09-01 00:53:12 | 49.64116 | 8.67124 | 111° | 46km/h | 34174m | 5.8m/s | -35.9°C | 2.2% | 6.6hPa | 2.5V | 02:54:16 | 02:24:48 | 00:00:00 | |
| AA1-15 | 2026-09-01 00:53:11 | 49.64094 | 8.67136 | 250° | 29km/h | 34197m | 4.1m/s | -35.6°C | 0% | 6.5hPa | 2.6V | 02:54:34 | 02:24:52 | 00:00:00 | |
| DL1XH-west | 2026-09-01 00:53:09 | 49.64104 | 8.67144 | 165° | 29km/h | 34186m | 6.2m/s | -35.8°C | 0% | 6.5hPa | 2.5V | 02:54:34 | 02:24:50 | 00:00:00 | |
| BIOWL1-15 | 2026-09-01 00:53:08 | 49.64116 | 8.67124 | 111° | 46km/h | 34174m | 5.8m/s | -35.9°C | 0% | 6.6hPa | 2.5V | 02:54:34 | 02:24:48 | 00:00:00 | |
| DL3AQ-11 | 2026-09-01 00:53:06 | 49.64117 | 8.67086 | 72° | 53km/h | 34164m | 4.5m/s | -35.9°C | 0.6% | 6.6hPa | 2.5V | 00:00:00 | 00:00:00 | 00:00:00 | |
| DL1XH1-15 | 2026-09-01 00:53:05 | 49.64090 | 8.67044 | 15° | 49km/h | 34149m | 4.7m/s | -36°C | 2.2% | 6.6hPa | 2.5V | 02:54:21 | 02:24:43 | 00:00:00 | |
| HSKMA3-T | 2026-09-01 00:53:04 | 49.64111 | 8.67067 | 54° | 55km/h | 34159m | 4.5m/s | -35.9°C | 0% | 6.6hPa | 2.6V | 02:54:34 | 02:24:45 | 00:00:00 | |
| DF8AY | 2026-09-01 00:53:04 | 49.64101 | 8.67053 | 35° | 53km/h | 34154m | 4.6m/s | -36°C | 0% | 0hPa | 2.5V | 02:54:34 | 02:24:44 | 00:00:00 | |
| HEMX73-11 | 2026-09-01 00:53:03 | 49.64111 | 8.67067 | 55° | 55km/h | 34159m | 4.5m/s | -35.9°C | 0.7% | 6.6hPa | 2.6V | 02:54:00 | 00:00:00 | 00:00:00 | |
| DM0DOS-11 | 2026-09-01 00:53:01 | 49.64061 | 8.67080 | 232° | 31km/h | 34127m | 3.9m/s | -36°C | 2.2% | 6.6hPa | 2.6V | 02:54:26 | 02:24:38 | 00:00:00 | |
| AA1-15 | 2026-09-01 00:53:00 | 49.64068 | 8.67047 | 330° | 42km/h | 34140m | 4.7m/s | -36°C | 0% | 6.6hPa | 2.5V | 02:54:34 | 02:24:41 | 00:00:00 | |
| DL1XH-west | 2026-09-01 00:52:59 | 49.64061 | 8.67057 | 302° | 37km/h | 34135m | 4.4m/s | -36°C | 0% | 6.6hPa | 2.6V | 02:54:34 | 02:24:40 | 00:00:00 | |
| BIOWL1-15 | 2026-09-01 00:52:57 | 49.64075 | 8.67087 | 167° | 38km/h | 34119m | 4.5m/s | -36°C | 0% | 6.7hPa | 2.5V | 02:54:34 | 02:24:36 | 00:00:00 | |
| HSKMA3-T | 2026-09-01 00:52:53 | 49.64092 | 8.67067 | 122° | 49km/h | 34108m | 5.2m/s | -35.9°C | 0% | 6.6hPa | 2.6V | 02:54:34 | 02:24:34 | 00:00:00 | |
| HTAHTA | 2026-09-01 00:52:53 | 49.64097 | 8.67048 | 103° | 53km/h | 34103m | 5.3m/s | -35.9°C | 0.7% | 6.6hPa | 2.6V | 00:00:00 | 00:00:00 | 00:00:00 | |
| DL1ZP-14 | 2026-09-01 00:52:52 | 49.64097 | 8.67048 | 103° | 53km/h | 34103m | 5.3m/s | -35.9°C | 0.7% | 6.6hPa | 2.6V | 00:00:00 | 00:00:00 | 00:00:00 | |
| DL1XH-15 | 2026-09-01 00:52:51 | 49.64062 | 8.66984 | 289° | 22km/h | 34070m | 5m/s | -35.8°C | 2.2% | 6.7hPa | 2.5V | 02:54:38 | 02:24:26 | 00:00:00 | |
| AA1-15 | 2026-09-01 00:52:49 | 49.64089 | 8.66991 | 50° | 47km/h | 34089m | 4.5m/s | -35.9°C | 0% | 6.7hPa | 2.5V | 02:54:34 | 02:24:30 | 00:00:00 | |
| BIOWL1-15 | 2026-09-01 00:52:49 | 49.64062 | 8.66984 | 290° | 22km/h | 34070m | 5m/s | -35.8°C | 0% | 6.7hPa | 2.5V | 02:55:25 | 02:24:26 | 00:00:00 | |
| DL1XH-west | 2026-09-01 00:52:48 | 49.64081 | 8.66980 | 30° | 40km/h | 34084m | 4.5m/s | -35.8°C | 0% | 6.7hPa | 2.6V | 02:55:25 | 02:24:29 | 00:00:00 | |
| DM3KS-11 | 2026-09-01 00:52:47 | 49.64066 | 8.66977 | 332° | 24km/h | 34075m | 4.9m/s | -35.8°C | 0.6% | 6.7hPa | 2.6V | 00:00:00 | 00:00:00 | 00:00:00 | |
| DL1XH1-15 | 2026-09-01 00:52:46 | 49.64074 | 8.67006 | 192° | 37km/h | 34055m | 4.5m/s | -35.9°C | 2.2% | 6.7hPa | 2.6V | 02:54:41 | 02:24:23 | 00:00:00 | |
| DD1CC8 | 2026-09-01 00:52:45 | 49.64062 | 8.66992 | 249° | 24km/h | 34065m | 4.8m/s | -35.8°C | 0.6% | 6.7hPa | 2.6V | 00:00:00 | 00:00:00 | 00:00:00 | |
| HSKMA3-T | 2026-09-01 00:52:43 | 49.64066 | 8.67000 | 217° | 31km/h | 34060m | 4.5m/s | -35.9°C | 0% | 6.7hPa | 2.6V | 02:55:25 | 02:24:24 | 00:00:00 | |
| DF8AY | 2026-09-01 00:52:43 | 49.64074 | 8.67005 | 192° | 37km/h | 34055m | 4.5m/s | -35.9°C | 0% | 0hPa | 2.6V | 18:12:15 | 02:24:23 | 00:00:00 | |
| AA1-15 | 2026-09-01 00:52:38 | 49.64108 | 8.66972 | 112° | 51km/h | 34035m | 6m/s | -35.8°C | 0% | 6.7hPa | 2.5V | 02:55:25 | 02:24:19 | 00:00:00 | |
| DL1XH-west | 2026-09-01 00:52:37 | 49.64111 | 8.66953 | 96° | 51km/h | 34029m | 6m/s | -35.7°C | 0% | 6.7hPa | 2.5V | 02:55:25 | 02:24:18 | 00:00:00 | |
| BIOWL1-15 | 2026-09-01 00:52:36 | 49.64111 | 8.66934 | 81° | 49km/h | 34023m | 5.4m/s | -35.7°C | 0% | 6.7hPa | 2.6V | 02:55:25 | 02:24:17 | 00:00:00 | |
| DF8AY | 2026-09-01 00:52:32 | 49.64092 | 8.66889 | 287° | 4km/h | 34000m | 5.3m/s | -35.6°C | 0% | 0hPa | 2.5V | 18:12:15 | 02:24:12 | 00:00:00 | |
| HSKMA3-T | 2026-09-01 00:52:32 | 49.64093 | 8.66889 | 21° | 13km/h | 34005m | 4.6m/s | -35.7°C | 0% | 6.7hPa | 2.5V | 02:55:25 | 02:24:13 | 00:00:00 | |
| AA1-15 | 2026-09-01 00:52:28 | 49.64106 | 8.66898 | 186° | 37km/h | 33984m | 5.1m/s | -35.6°C | 0% | 6.8hPa | 2.6V | 02:55:25 | 02:24:09 | 00:00:00 | |
| DL1XH-west | 2026-09-01 00:52:27 | 49.64115 | 8.66897 | 173° | 42km/h | 33979m | 4.2m/s | -35.6°C | 0% | 6.8hPa | 2.6V | 02:55:25 | 02:24:08 | 00:00:00 | |
| BIOWL1-15 | 2026-09-01 00:52:25 | 49.64135 | 8.66885 | 142° | 42km/h | 33971m | 3.9m/s | -35.6°C | 0% | 6.8hPa | 2.5V | 02:55:25 | 02:24:06 | 00:00:00 | |
| DF8AY | 2026-09-01 00:52:21 | 49.64133 | 8.66780 | 120° | 13km/h | 33928m | 5.1m/s | -35.7°C | 0% | 0hPa | 2.6V | 18:12:15 | 02:23:57 | 00:00:00 | |
| HSKMA3-T | 2026-09-01 00:52:21 | 49.64146 | 8.66828 | 75° | 40km/h | 33950m | 5.7m/s | -35.6°C | 0% | 6.8hPa | 2.6V | 02:55:25 | 02:24:02 | 00:00:00 | |
| DL1XH-west | 2026-09-01 00:52:17 | 49.64133 | 8.66786 | 76° | 16km/h | 33932m | 4.3m/s | -35.7°C | 0% | 6.8hPa | 2.5V | 02:55:25 | 02:23:58 | 00:00:00 | |
| BIOWL1-15 | 2026-09-01 00:52:15 | 49.64136 | 8.66776 | 150° | 20km/h | 33922m | 6m/s | -35.7°C | 0% | 6.8hPa | 2.6V | 02:55:25 | 02:23:56 | 00:00:00 | |
| DD1CC8 | 2026-09-01 00:52:14 | 49.64150 | 8.66768 | 161° | 35km/h | 33911m | 5.3m/s | -35.7°C | 0.7% | 6.8hPa | 2.6V | 00:00:00 | 00:00:00 | 00:00:00 | |
| DL1XH-15 | 2026-09-01 00:52:13 | 49.64167 | 8.66757 | 152° | 35km/h | 33902m | 4.2m/s | -35.7°C | 2.2% | 6.9hPa | 2.6V | 02:55:12 | 02:23:52 | 00:00:00 | |
| HSKMA3-T | 2026-09-01 00:52:11 | 49.64167 | 8.66757 | 152° | 35km/h | 33902m | 4.2m/s | -35.7°C | 0% | 6.9hPa | 2.6V | 02:55:25 | 02:23:52 | 00:00:00 | |
| DL1XH-west | 2026-09-01 00:52:07 | 49.64179 | 8.66716 | 69° | 27km/h | 33874m | 5.4m/s | -35.6°C | 0% | 6.9hPa | 2.6V | 02:55:25 | 02:23:47 | 00:00:00 | |
| DL1XH1-15 | 2026-09-01 00:52:05 | 49.64176 | 8.66676 | 118° | 29km/h | 33857m | 5.1m/s | -35.5°C | 2.2% | 6.9hPa | 2.5V | 02:55:21 | 02:23:43 | 00:00:00 | |
| BIOWL1-15 | 2026-09-01 00:52:04 | 49.64174 | 8.66696 | 79° | 27km/h | 33866m | 3.6m/s | -35.5°C | 0% | 6.9hPa | 2.6V | 02:55:25 | 02:23:45 | 00:00:00 | |
| HSKMA3-T | 2026-09-01 00:52:00 | 49.64188 | 8.66657 | 148° | 40km/h | 33845m | 6.4m/s | -35.5°C | 0% | 6.9hPa | 2.5V | 02:55:25 | 02:23:41 | 00:00:00 | |
| DL8DAS-15 | 2026-09-01 00:51:58 | 49.64197 | 8.66649 | 156° | 44km/h | 33840m | 4.9m/s | -35.5°C | 0.7% | 6.9hPa | 2.5V | 00:00:00 | 00:00:00 | 00:00:00 | |
| DL1XH-15 | 2026-09-01 00:51:57 | 49.64222 | 8.66634 | 154° | 22km/h | 33829m | 3.9m/s | -35.4°C | 2.2% | 6.9hPa | 2.5V | 02:55:27 | 02:23:37 | 00:00:00 | |
| AA1-15 | 2026-09-01 00:51:57 | 49.64216 | 8.66638 | 160° | 33km/h | 33832m | 2.7m/s | -35.4°C | 0% | 6.9hPa | 2.6V | 02:56:16 | 02:23:38 | 00:00:00 | |
| DL1XH-west | 2026-09-01 00:51:56 | 49.64222 | 8.66634 | 154° | 22km/h | 33829m | 3.9m/s | -35.5°C | 0% | 6.9hPa | 2.5V | 02:56:16 | 02:23:37 | 00:00:00 | |
| DL1XH1-15 | 2026-09-01 00:51:54 | 49.64217 | 8.66614 | 41° | 33km/h | 33804m | 4.9m/s | -35.5°C | 2.2% | 6.9hPa | 2.6V | 02:55:31 | 02:23:33 | 00:00:00 | |
| BIOWL1-15 | 2026-09-01 00:51:53 | 49.64223 | 8.66622 | 40° | 24km/h | 33810m | 6.8m/s | -35.5°C | 0% | 6.9hPa | 2.5V | 02:56:16 | 02:23:34 | 00:00:00 | |
| HSKMA3-T | 2026-09-01 00:51:49 | 49.64204 | 8.66577 | 89° | 38km/h | 33794m | 4.2m/s | -35.4°C | 0% | 7hPa | 2.5V | 02:56:16 | 02:23:30 | 00:00:00 | |
| AA1-15 | 2026-09-01 00:51:47 | 49.64212 | 8.66547 | 129° | 47km/h | 33782m | 7.2m/s | -35.3°C | 0% | 7hPa | 2.5V | 02:56:16 | 02:23:28 | 00:00:00 | |
| DL1XH-west | 2026-09-01 00:51:46 | 49.64233 | 8.66524 | 158° | 55km/h | 33770m | 4.4m/s | -35.3°C | 0% | 7hPa | 2.6V | 02:56:16 | 02:23:26 | 00:00:00 | |
| DM3KS-11 | 2026-09-01 00:51:44 | 49.64245 | 8.66518 | 168° | 47km/h | 33767m | 2.5m/s | -35.3°C | 0.7% | 7.0hPa | 2.6V | 00:00:00 | 00:00:00 | 00:00:00 | |
| BIOWL1-15 | 2026-09-01 00:51:43 | 49.64256 | 8.66516 | 178° | 37km/h | 33764m | 2.7m/s | -35.3°C | 0% | 7hPa | 2.6V | 02:56:16 | 02:23:24 | 00:00:00 | |
| DF8AY | 2026-09-01 00:51:43 | 49.64267 | 8.66517 | 228° | 5km/h | 33755m | 6.3m/s | 0°C | 0% | 0hPa | 2.5V | 18:12:15 | 02:23:22 | 00:00:00 | |
| HSKMA3-T | 2026-09-01 00:51:39 | 49.64259 | 8.66516 | 19° | 31km/h | 33741m | 6.3m/s | -35.4°C | 0% | 7hPa | 2.5V | 02:56:16 | 02:23:20 | 00:00:00 | |
| AA1-15 | 2026-09-01 00:51:37 | 49.64242 | 8.66497 | 49° | 49km/h | 33732m | 4m/s | -35.4°C | 0% | 7hPa | 2.6V | 02:56:16 | 02:23:18 | 00:00:00 | |
| DO1YAY-16 | 2026-09-01 00:51:36 | 49.64235 | 8.66481 | 66° | 51km/h | 33728m | 4.0m/s | -35.4°C | 0.7% | 7.0hPa | 2.5V | 00:00:00 | 00:00:00 | 00:00:00 | |
| DJ2KF-10 | 2026-09-01 00:51:35 | 49.64232 | 8.66461 | 85° | 44km/h | 33724m | 4.6m/s | -35.3°C | 2.1% | 7.0hPa | 2.5V | 00:00:00 | 02:23:16 | 00:00:00 | |
| DL1XH1-15 | 2026-09-01 00:51:34 | 49.64249 | 8.66405 | 143° | 55km/h | 33707m | 5.4m/s | -35.5°C | 2.1% | 7hPa | 2.5V | 02:55:51 | 02:23:13 | 00:00:00 | |
| DL1XH-west | 2026-09-01 00:51:34 | 49.64233 | 8.66440 | 105° | 55km/h | 33718m | 5.3m/s | -35.4°C | 0% | 7hPa | 2.5V | 02:56:16 | 02:23:15 | 00:00:00 | |
| HSKMA3-T | 2026-09-01 00:51:29 | 49.64281 | 8.66396 | 206° | 35km/h | 33692m | 4.8m/s | -35.5°C | 0% | 7.1hPa | 2.6V | 02:56:16 | 02:23:10 | 00:00:00 | |
| BIOWL1-15 | 2026-09-01 00:51:28 | 49.64287 | 8.66403 | 240° | 24km/h | 33687m | 5m/s | -35.5°C | 0% | 7.1hPa | 2.5V | 02:56:16 | 02:23:09 | 00:00:00 | |
| AA1-15 | 2026-09-01 00:51:26 | 49.64283 | 8.66417 | 338° | 26km/h | 33677m | 5.5m/s | -35.5°C | 0% | 7.1hPa | 2.5V | 02:56:16 | 02:23:07 | 00:00:00 | |
| SFWM-10 | 2026-09-01 00:51:25 | 49.64283 | 8.66417 | 339° | 26km/h | 33677m | 5.5m/s | -35.5°C | 0.7% | 7.1hPa | 2.6V | 00:00:00 | 00:00:00 | 00:00:00 | |
| DL1XH1-15 | 2026-09-01 00:51:24 | 49.64250 | 8.66380 | 69° | 58km/h | 33655m | 4.7m/s | -35.6°C | 2.2% | 7.1hPa | 2.6V | 02:56:01 | 02:23:03 | 00:00:00 | |
| DL1XH-west | 2026-09-01 00:51:23 | 49.64257 | 8.66399 | 51° | 55km/h | 33660m | 5.3m/s | -35.5°C | 0% | 7.1hPa | 2.6V | 02:56:16 | 02:23:04 | 00:00:00 | |
| BIOWL1-15 | 2026-09-01 00:51:18 | 49.64263 | 8.66305 | 147° | 46km/h | 33636m | 5.7m/s | -35.6°C | 0% | 7.1hPa | 2.5V | 02:56:16 | 02:22:59 | 00:00:00 | |
| AA1-15 | 2026-09-01 00:51:15 | 49.64289 | 8.66307 | 229° | 29km/h | 33618m | 5.2m/s | -35.7°C | 0% | 7.1hPa | 2.6V | 02:56:16 | 02:22:56 | 00:00:00 | |
| DF8AY | 2026-09-01 00:51:15 | 49.64291 | 8.66316 | 266° | 26km/h | 33613m | 4.5m/s | 0°C | 0% | 0hPa | 2.5V | 18:12:15 | 02:22:55 | 00:00:00 | |
| DL1XH1-15 | 2026-09-01 00:51:13 | 49.64284 | 8.66330 | 345° | 29km/h | 33604m | 4.8m/s | -35.7°C | 2.2% | 7.2hPa | 2.5V | 02:56:11 | 02:22:53 | 00:00:00 | |
| DL1XH-west | 2026-09-01 00:51:12 | 49.64284 | 8.66330 | 346° | 29km/h | 33604m | 4.9m/s | -35.7°C | 0% | 7.2hPa | 2.5V | 02:56:16 | 02:22:53 | 00:00:00 | |
| HSKMA3-T | 2026-09-01 00:51:08 | 49.64254 | 8.66290 | 75° | 55km/h | 33580m | 5.8m/s | -35.6°C | 0% | 7.2hPa | 2.6V | 02:56:16 | 02:22:49 | 00:00:00 | |
| DB0ND-19 | 2026-09-01 00:51:07 | 49.64253 | 8.66269 | 91° | 55km/h | 33575m | 5.1m/s | -35.6°C | 0.7% | 7.2hPa | 2.6V | 00:00:00 | 00:00:00 | 00:00:00 | |
| DL3AQ-11 | 2026-09-01 00:51:06 | 49.64260 | 8.66233 | 127° | 42km/h | 33565m | 5.1m/s | -35.6°C | 0.7% | 7.2hPa | 2.6V | 00:00:00 | 00:00:00 | 00:00:00 | |
| DL1XH1-15 | 2026-09-01 00:51:05 | 49.64281 | 8.66223 | 219° | 26km/h | 33547m | 6.3m/s | -35.5°C | 2.2% | 7.2hPa | 2.6V | 02:56:21 | 02:22:43 | 00:00:00 | |
| DF8AY | 2026-09-01 00:51:05 | 49.64268 | 8.66223 | 151° | 35km/h | 33560m | 5.7m/s | 0°C | 0% | 0hPa | 2.5V | 18:12:15 | 02:22:45 | 00:00:00 | |
| DL1XH-15 | 2026-09-01 00:51:04 | 49.64280 | 8.66251 | 322° | 33km/h | 33531m | 4.4m/s | -35.5°C | 2.1% | 7.2hPa | 2.5V | 02:56:24 | 02:22:40 | 00:00:00 | |
| DL1XH-west | 2026-09-01 00:51:02 | 49.64281 | 8.66223 | 220° | 26km/h | 33548m | 6.4m/s | -35.5°C | 0% | 7.2hPa | 2.6V | 02:57:07 | 02:22:43 | 00:00:00 | |
| HSKMA3-T | 2026-09-01 00:50:57 | 49.64262 | 8.66254 | 17° | 40km/h | 33522m | 5.3m/s | -35.4°C | 0% | 7.3hPa | 2.5V | 02:57:07 | 02:22:38 | 00:00:00 | |
| AA1-15 | 2026-09-01 00:50:54 | 49.64239 | 8.66192 | 95° | 53km/h | 33498m | 5m/s | -35.4°C | 0% | 7.3hPa | 2.5V | 02:57:07 | 02:22:34 | 00:00:00 | |
| DF8AY | 2026-09-01 00:50:53 | 49.64265 | 8.66156 | 241° | 24km/h | 33472m | 6.6m/s | 0°C | 0% | 0hPa | 2.6V | 18:12:15 | 02:22:29 | 00:00:00 | |
| DL1XH-west | 2026-09-01 00:50:51 | 49.64248 | 8.66159 | 131° | 38km/h | 33489m | 4.5m/s | -35.4°C | 0% | 7.3hPa | 2.5V | 02:57:07 | 02:22:32 | 00:00:00 | |
| BIOWL1-15 | 2026-09-01 00:50:50 | 49.64254 | 8.66152 | 157° | 29km/h | 33484m | 5.4m/s | -35.4°C | 0% | 7.3hPa | 2.5V | 02:57:07 | 02:22:31 | 00:00:00 | |
| HSKMA3-T | 2026-09-01 00:50:47 | 49.64266 | 8.66165 | 276° | 29km/h | 33466m | 6m/s | -35.4°C | 0% | 7.3hPa | 2.6V | 02:57:07 | 02:22:28 | 00:00:00 | |
| DL8DAS-14 | 2026-09-01 00:50:47 | 49.64263 | 8.66176 | 303° | 33km/h | 33460m | 4.7m/s | -35.4°C | 0.7% | 7.3hPa | 2.6V | 00:00:00 | 00:00:00 | 00:00:00 | |
| DL1XH1-15 | 2026-09-01 00:50:45 | 49.64230 | 8.66177 | 48° | 46km/h | 33441m | 6.4m/s | -35.6°C | 2.1% | 7.3hPa | 2.6V | 02:56:41 | 02:22:23 | 00:00:00 | |
| AA1-15 | 2026-09-01 00:50:43 | 49.64230 | 8.66177 | 48° | 46km/h | 33441m | 6.4m/s | -35.6°C | 0% | 7.3hPa | 2.6V | 02:57:07 | 02:22:23 | 00:00:00 | |
| BIOWL1-15 | 2026-09-01 00:50:41 | 49.64235 | 8.66088 | 139° | 38km/h | 33414m | 4m/s | -35.7°C | 0% | 7.4hPa | 2.5V | 02:57:07 | 02:22:18 | 00:00:00 | |
| DL1XH-west | 2026-09-01 00:50:40 | 49.64222 | 8.66141 | 88° | 55km/h | 33428m | 6m/s | -35.6°C | 0% | 7.3hPa | 2.6V | 02:57:07 | 02:22:21 | 00:00:00 | |
| DF8AY | 2026-09-01 00:50:36 | 49.64247 | 8.66082 | 210° | 18km/h | 33404m | 6.1m/s | 0°C | 0% | 0hPa | 2.6V | 18:12:15 | 02:22:16 | 00:00:00 | |
| HSKMA3-T | 2026-09-01 00:50:36 | 49.64242 | 8.66082 | 164° | 27km/h | 33409m | 5m/s | -35.7°C | 0% | 7.4hPa | 2.5V | 02:57:07 | 02:22:17 | 00:00:00 | |
| AA1-15 | 2026-09-01 00:50:33 | 49.64247 | 8.66097 | 303° | 31km/h | 33391m | 6.6m/s | -35.7°C | 0% | 7.4hPa | 2.6V | 02:57:07 | 02:22:14 | 00:00:00 | |
| DL1XH-west | 2026-09-01 00:50:30 | 49.64220 | 8.66113 | 9° | 47km/h | 33375m | 4.1m/s | -35.7°C | 0% | 7.4hPa | 2.5V | 02:57:07 | 02:22:11 | 00:00:00 | |
| BIOWL1-15 | 2026-09-01 00:50:28 | 49.64187 | 8.66041 | 15° | 51km/h | 33297m | 5.1m/s | -35.7°C | 0% | 7.5hPa | 2.5V | 02:57:07 | 02:21:57 | 00:00:00 | |
| DL0LBS | 2026-09-01 00:50:27 | 49.64199 | 8.66095 | 53° | 49km/h | 33366m | 5.7m/s | -35.7°C | 0.7% | 7.4hPa | 2.5V | 02:57:00 | 00:00:00 | 00:00:00 | |
| DL1XH1-15 | 2026-09-01 00:50:26 | 49.64215 | 8.66012 | 183° | 26km/h | 33331m | 5.3m/s | -35.8°C | 2.2% | 7.5hPa | 2.5V | 02:57:01 | 02:22:03 | 00:00:00 | |
| HSKMA3-T | 2026-09-01 00:50:25 | 49.64195 | 8.66040 | 112° | 49km/h | 33347m | 5.8m/s | -35.6°C | 0% | 7.5hPa | 2.5V | 02:57:07 | 02:22:06 | 00:00:00 | |
| AA1-15 | 2026-09-01 00:50:23 | 49.64209 | 8.66015 | 153° | 35km/h | 33336m | 5m/s | -35.7°C | 0% | 7.5hPa | 2.5V | 02:57:07 | 02:22:04 | 00:00:00 | |
| DF8AY | 2026-09-01 00:50:20 | 49.64221 | 8.66023 | 280° | 24km/h | 33320m | 6m/s | 0°C | 0% | 0hPa | 2.6V | 18:12:15 | 02:22:01 | 00:00:00 | |
| DL1XH-west | 2026-09-01 00:50:19 | 49.64218 | 8.66032 | 314° | 33km/h | 33314m | 6.1m/s | -35.8°C | 0% | 7.5hPa | 2.6V | 02:57:07 | 02:22:00 | 00:00:00 | |
| SONCRA | 2026-09-01 00:50:19 | 49.64210 | 8.66040 | 337° | 40km/h | 33308m | 6.1m/s | -35.7°C | 0.7% | 7.5hPa | 2.5V | 00:00:00 | 00:00:00 | 00:00:00 | |
| DL1XH-15 | 2026-09-01 00:50:18 | 49.64187 | 8.66041 | 15° | 51km/h | 33297m | 5m/s | -35.7°C | 2.2% | 7.5hPa | 2.5V | 02:57:07 | 02:21:57 | 00:00:00 | |
| DL1ZP-14 | 2026-09-01 00:50:17 | 49.64187 | 8.66041 | 15° | 51km/h | 33297m | 5.1m/s | -35.7°C | 0.7% | 7.5hPa | 2.5V | 00:00:00 | 00:00:00 | 00:00:00 | |
| DL8DAS-14 | 2026-09-01 00:50:16 | 49.64175 | 8.66033 | 33° | 51km/h | 33292m | 4.8m/s | -35.7°C | 0.6% | 7.5hPa | 2.6V | 00:00:00 | 00:00:00 | 00:00:00 | |
| DF7PN | 2026-09-01 00:50:15 | 49.64166 | 8.66020 | 51° | 49km/h | 33287m | 4.9m/s | 0°C | -1.0% | -1.0hPa | 2.6V | 00:00:00 | 00:00:00 | 00:00:00 | |
| DL1XH1-15 | 2026-09-01 00:50:14 | 49.64159 | 8.65988 | 93° | 40km/h | 33276m | 6.2m/s | -35.6°C | 2.2% | 7.5hPa | 2.6V | 02:57:11 | 02:21:53 | 00:00:00 | |
| HSKMA3-T | 2026-09-01 00:50:14 | 49.64166 | 8.66020 | 52° | 49km/h | 33287m | 4.9m/s | -35.6°C | 0% | 7.5hPa | 2.6V | 02:57:58 | 02:21:55 | 00:00:00 | |
| AA1-15 | 2026-09-01 00:50:13 | 49.64159 | 8.65988 | 94° | 40km/h | 33276m | 6.2m/s | -35.6°C | 0% | 7.5hPa | 2.6V | 02:57:58 | 02:21:53 | 00:00:00 | |
| DF8AY | 2026-09-01 00:50:09 | 49.64173 | 8.65960 | 174° | 27km/h | 33259m | 5m/s | 0°C | 0% | 0hPa | 2.5V | 18:12:15 | 02:21:50 | 00:00:00 | |
| DL1XH-15 | 2026-09-01 00:50:09 | 49.64182 | 8.65975 | 297° | 24km/h | 33244m | 5.5m/s | -35.6°C | 2.1% | 7.5hPa | 2.6V | 02:57:17 | 02:21:47 | 00:00:00 | |
| DL1XH-west | 2026-09-01 00:50:08 | 49.64179 | 8.65961 | 209° | 22km/h | 33254m | 4.6m/s | -35.6°C | 0% | 7.5hPa | 2.5V | 02:57:58 | 02:21:49 | 00:00:00 | |
| BIOWL1-15 | 2026-09-01 00:50:07 | 49.64182 | 8.65967 | 253° | 20km/h | 33249m | 4.9m/s | -35.6°C | 0% | 7.6hPa | 2.6V | 02:57:58 | 02:21:48 | 00:00:00 | |
| DL1XH1-15 | 2026-09-01 00:50:05 | 49.64146 | 8.65979 | 28° | 51km/h | 33221m | 4.9m/s | -35.5°C | 2.1% | 7.6hPa | 2.5V | 02:57:21 | 02:21:43 | 00:00:00 | |
| HSKMA3-T | 2026-09-01 00:50:03 | 49.64157 | 8.65985 | 11° | 47km/h | 33226m | 5.6m/s | -35.5°C | 0% | 7.6hPa | 2.5V | 02:57:58 | 02:21:44 | 00:00:00 | |
| AA1-15 | 2026-09-01 00:50:02 | 49.64146 | 8.65979 | 28° | 51km/h | 33221m | 4.9m/s | -35.5°C | 0% | 7.6hPa | 2.5V | 02:57:58 | 02:21:43 | 00:00:00 | |
| DL1XH-west | 2026-09-01 00:49:58 | 49.64131 | 8.65902 | 129° | 40km/h | 33194m | 6.1m/s | -35.5°C | 0% | 7.6hPa | 2.5V | 02:57:58 | 02:21:38 | 00:00:00 | |
| DL1XH-15 | 2026-09-01 00:49:57 | 49.64145 | 8.65889 | 174° | 27km/h | 33182m | 5.3m/s | -35.5°C | 2.2% | 7.6hPa | 2.5V | 02:57:28 | 02:21:36 | 00:00:00 | |
| AA1-15 | 2026-09-01 00:49:52 | 49.64153 | 8.65899 | 314° | 16km/h | 33168m | 5m/s | -35.5°C | 0% | 7.7hPa | 2.6V | 02:57:58 | 02:21:33 | 00:00:00 | |
| DL1XH-west | 2026-09-01 00:49:47 | 49.64114 | 8.65869 | 61° | 53km/h | 33140m | 4.9m/s | -35.5°C | 0% | 7.7hPa | 2.6V | 02:57:58 | 02:21:28 | 00:00:00 | |
| DL3AQ-11 | 2026-09-01 00:49:46 | 49.64108 | 8.65831 | 94° | 47km/h | 33131m | 5.0m/s | -35.6°C | 0.7% | 7.7hPa | 2.5V | 00:00:00 | 00:00:00 | 00:00:00 | |
| DL8DAS-14 | 2026-09-01 00:49:45 | 49.64111 | 8.65814 | 112° | 42km/h | 33125m | 5.5m/s | -35.6°C | 0.7% | 7.7hPa | 2.5V | 00:00:00 | 00:00:00 | 00:00:00 | |
| BIOWL1-15 | 2026-09-01 00:49:44 | 49.64127 | 8.65789 | 37° | 29km/h | 33081m | 5.6m/s | -35.8°C | 0% | 7.8hPa | 2.5V | 02:57:58 | 02:21:17 | 00:00:00 | |
| HSKMA3-T | 2026-09-01 00:49:41 | 49.64128 | 8.65789 | 171° | 24km/h | 33107m | 5.8m/s | -35.7°C | 0% | 7.7hPa | 2.6V | 02:57:58 | 02:21:22 | 00:00:00 | |
| DL1XH-15 | 2026-09-01 00:49:40 | 49.64135 | 8.65793 | 333° | 9km/h | 33092m | 4.9m/s | -35.8°C | 2.1% | 7.7hPa | 2.5V | 02:57:45 | 02:21:19 | 00:00:00 | |
| DL1XH-west | 2026-09-01 00:49:37 | 49.64132 | 8.65793 | 16° | 18km/h | 33086m | 5.1m/s | -35.8°C | 0% | 7.7hPa | 2.5V | 02:57:58 | 02:21:18 | 00:00:00 | |
| HSKMA3-T | 2026-09-01 00:49:31 | 49.64110 | 8.65708 | 99° | 49km/h | 33056m | 4.5m/s | -35.8°C | 0% | 7.8hPa | 2.5V | 02:57:58 | 02:21:12 | 00:00:00 | |
| DL1XH-west | 2026-09-01 00:49:26 | 49.64133 | 8.65665 | 190° | 13km/h | 33029m | 4.6m/s | -35.9°C | 0% | 7.8hPa | 2.6V | 02:57:58 | 02:21:07 | 00:00:00 | |
| DL1XH1-15 | 2026-09-01 00:49:25 | 49.64125 | 8.65658 | 41° | 33km/h | 33010m | 5.8m/s | -35.9°C | 2.1% | 7.8hPa | 2.5V | 02:58:01 | 02:21:03 | 00:00:00 | |
| AA1-15 | 2026-09-01 00:49:21 | 49.64118 | 8.65647 | 49° | 42km/h | 33004m | 5.5m/s | -35.9°C | 0% | 7.8hPa | 2.6V | 02:58:49 | 02:21:02 | 00:00:00 | |
| HSKMA3-T | 2026-09-01 00:49:21 | 49.64112 | 8.65634 | 57° | 47km/h | 32999m | 4.8m/s | -36°C | 0% | 7.8hPa | 2.6V | 02:58:49 | 02:21:01 | 00:00:00 | |
| DL8DAS-15 | 2026-09-01 00:49:18 | 49.64106 | 8.65618 | 66° | 46km/h | 32995m | 4.1m/s | -36.0°C | 0.7% | 7.8hPa | 2.6V | 02:58:00 | 00:00:00 | 00:00:00 | |
| DL1XH-15 | 2026-09-01 00:49:17 | 49.64103 | 8.65570 | 130° | 16km/h | 32975m | 6m/s | -36°C | 2.2% | 7.9hPa | 2.6V | 02:58:08 | 02:20:56 | 00:00:00 | |
| BIOWL1-15 | 2026-09-01 00:49:16 | 49.64103 | 8.65570 | 131° | 16km/h | 32975m | 6m/s | -36°C | 0% | 7.9hPa | 2.6V | 02:58:49 | 02:20:56 | 00:00:00 | |
| DL1XH-west | 2026-09-01 00:49:16 | 49.64101 | 8.65577 | 102° | 24km/h | 32981m | 5.5m/s | -36°C | 0% | 7.9hPa | 2.5V | 02:58:49 | 02:20:57 | 00:00:00 | |
| DL1XH1-15 | 2026-09-01 00:49:15 | 49.64112 | 8.65569 | 213° | 13km/h | 32960m | 4m/s | -36°C | 2.2% | 7.9hPa | 2.5V | 02:58:11 | 02:20:53 | 00:00:00 | |
| HSKMA3-T | 2026-09-01 00:49:10 | 49.64114 | 8.65572 | 23° | 5km/h | 32951m | 4.6m/s | -36.1°C | 0% | 7.9hPa | 2.5V | 02:58:49 | 02:20:51 | 00:00:00 | |
| DM3KS-11 | 2026-09-01 00:49:09 | 49.64103 | 8.65556 | 44° | 33km/h | 32936m | 5.1m/s | -36.2°C | 0.6% | 7.9hPa | 2.5V | 00:00:00 | 00:00:00 | 00:00:00 | |
| DL1XH-15 | 2026-09-01 00:49:07 | 49.64084 | 8.65528 | 42° | 29km/h | 32922m | 4.3m/s | -36.3°C | 2.2% | 7.9hPa | 2.5V | 02:58:19 | 02:20:45 | 00:00:00 | |
| DL3AQ-11 | 2026-09-01 00:49:06 | 49.64090 | 8.65537 | 44° | 35km/h | 32927m | 4.2m/s | -36.2°C | 0.7% | 7.9hPa | 2.6V | 00:00:00 | 00:00:00 | 00:00:00 | |
| DL1XH1-15 | 2026-09-01 00:49:05 | 49.64076 | 8.65518 | 23° | 11km/h | 32913m | 5.1m/s | -36.3°C | 2.1% | 8hPa | 2.6V | 02:58:21 | 02:20:43 | 00:00:00 | |
| DL1XH-west | 2026-09-01 00:49:05 | 49.64090 | 8.65537 | 44° | 35km/h | 32927m | 4.2m/s | -36.2°C | 0% | 7.9hPa | 2.5V | 02:58:49 | 02:20:46 | 00:00:00 | |
| HSKMA3-T | 2026-09-01 00:49:00 | 49.64074 | 8.65520 | 265° | 5km/h | 32903m | 4.8m/s | -36.4°C | 0% | 8hPa | 2.5V | 02:58:49 | 02:20:41 | 00:00:00 | |
| BIOWL1-15 | 2026-09-01 00:48:56 | 49.64060 | 8.65504 | 31° | 24km/h | 32864m | 5.4m/s | -36.6°C | 0% | 8hPa | 2.5V | 02:58:49 | 02:20:33 | 00:00:00 | |
| HEMX73-11 | 2026-09-01 00:48:56 | 49.64075 | 8.65525 | 0° | 0km/h | 32889m | 4.8m/s | -36.4°C | 0.7% | 8.0hPa | 2.5V | 02:58:00 | 00:00:00 | 00:00:00 | |
| DL1XH1-15 | 2026-09-01 00:48:55 | 49.64060 | 8.65504 | 30° | 24km/h | 32864m | 5.4m/s | -36.6°C | 2.2% | 8hPa | 2.5V | 02:58:31 | 02:20:33 | 00:00:00 | |
| DL1XH-west | 2026-09-01 00:48:54 | 49.64069 | 8.65514 | 42° | 20km/h | 32874m | 4.6m/s | -36.5°C | 0% | 8hPa | 2.6V | 02:58:49 | 02:20:35 | 00:00:00 | |
| HSKMA3-T | 2026-09-01 00:48:50 | 49.64050 | 8.65496 | 24° | 18km/h | 32854m | 4.5m/s | -36.7°C | 0% | 8hPa | 2.5V | 02:58:49 | 02:20:31 | 00:00:00 | |
| AA1-15 | 2026-09-01 00:48:50 | 49.64046 | 8.65493 | 30° | 15km/h | 32850m | 4.1m/s | -36.7°C | 0% | 8hPa | 2.6V | 02:58:49 | 02:20:30 | 00:00:00 | |
| DL1XH-15 | 2026-09-01 00:48:48 | 49.64043 | 8.65467 | 98° | 24km/h | 32826m | 5.3m/s | -36.8°C | 2.2% | 8.1hPa | 2.5V | 02:58:39 | 02:20:25 | 00:00:00 | |
| DL1XH1-15 | 2026-09-01 00:48:48 | 49.64044 | 8.65448 | 89° | 22km/h | 32817m | 3.9m/s | -36.8°C | 2.2% | 8.1hPa | 2.6V | 02:58:41 | 02:20:23 | 00:00:00 | |
| SONCRA | 2026-09-01 00:48:46 | 49.64043 | 8.65475 | 96° | 18km/h | 32832m | 5.4m/s | -36.8°C | 0.7% | 8.0hPa | 2.6V | 00:00:00 | 00:00:00 | 00:00:00 | |
| DL1XH-west | 2026-09-01 00:48:43 | 49.64044 | 8.65457 | 95° | 24km/h | 32821m | 4.5m/s | -36.8°C | 0% | 8.1hPa | 2.6V | 02:58:49 | 02:20:24 | 00:00:00 | |
| BIOWL1-15 | 2026-09-01 00:48:43 | 49.64044 | 8.65448 | 90° | 22km/h | 32817m | 3.9m/s | -36.9°C | 0% | 8.1hPa | 2.6V | 02:58:49 | 02:20:23 | 00:00:00 | |
| HSKMA3-T | 2026-09-01 00:48:40 | 49.64043 | 8.65434 | 63° | 15km/h | 32809m | 4.1m/s | -36.9°C | 0% | 8.1hPa | 2.5V | 02:58:49 | 02:20:21 | 00:00:00 | |
| AA1-15 | 2026-09-01 00:48:39 | 49.64038 | 8.65430 | 349° | 11km/h | 32799m | 5.8m/s | -36.9°C | 0% | 8.1hPa | 2.5V | 02:58:49 | 02:20:19 | 00:00:00 | |
| DL1XH-15 | 2026-09-01 00:48:38 | 49.64027 | 8.65438 | 29° | 9km/h | 32782m | 2.9m/s | -36.9°C | 2.3% | 8.1hPa | 2.5V | 02:58:49 | 02:20:15 | 00:00:00 | |
| BIOWL1-15 | 2026-09-01 00:48:32 | 49.64025 | 8.65426 | 79° | 26km/h | 32774m | 6.4m/s | -36.9°C | 0% | 8.1hPa | 2.5V | 02:59:40 | 02:20:13 | 00:00:00 | |
| HSKMA3-T | 2026-09-01 00:48:30 | 49.64022 | 8.65399 | 81° | 42km/h | 32761m | 4.6m/s | -37°C | 0% | 8.1hPa | 2.6V | 02:59:40 | 02:20:11 | 00:00:00 | |
| AA1-15 | 2026-09-01 00:48:28 | 49.64013 | 8.65357 | 53° | 29km/h | 32752m | 3.8m/s | -37°C | 0% | 8.1hPa | 2.5V | 02:59:40 | 02:20:08 | 00:00:00 | |
| DL1XH-15 | 2026-09-01 00:48:27 | 49.63991 | 8.65360 | 317° | 29km/h | 32731m | 3.5m/s | -37.1°C | 2.3% | 8.1hPa | 2.6V | 02:59:00 | 02:20:04 | 00:00:00 | |
| DL1XH-west | 2026-09-01 00:48:22 | 49.63986 | 8.65367 | 317° | 26km/h | 32729m | 2.7m/s | -37.1°C | 0% | 8.2hPa | 2.5V | 02:59:40 | 02:20:03 | 00:00:00 | |
| HSKMA3-T | 2026-09-01 00:48:19 | 49.63978 | 8.65370 | 80° | 15km/h | 32716m | 5.5m/s | -37.1°C | 0% | 8.2hPa | 2.6V | 02:59:40 | 02:20:00 | 00:00:00 | |
| AA1-15 | 2026-09-01 00:48:16 | 49.63979 | 8.65335 | 93° | 38km/h | 32700m | 5m/s | -37.2°C | 0% | 8.2hPa | 2.5V | 02:59:40 | 02:19:57 | 00:00:00 | |
| DL1XH-west | 2026-09-01 00:48:12 | 49.63968 | 8.65286 | 17° | 20km/h | 32677m | 4.9m/s | -37.4°C | 0% | 8.2hPa | 2.6V | 02:59:40 | 02:19:52 | 00:00:00 | |
| BIOWL1-15 | 2026-09-01 00:48:11 | 49.63942 | 8.65270 | 117° | 20km/h | 32641m | 4.5m/s | -37.4°C | 0% | 8.3hPa | 2.5V | 02:59:40 | 02:19:44 | 00:00:00 | |
| HSKMA3-T | 2026-09-01 00:48:09 | 49.63957 | 8.65285 | 353° | 24km/h | 32668m | 4.8m/s | -37.4°C | 0% | 8.2hPa | 2.5V | 02:59:40 | 02:19:50 | 00:00:00 | |
| AA1-15 | 2026-09-01 00:48:06 | 49.63943 | 8.65285 | 29° | 13km/h | 32654m | 4.2m/s | -37.4°C | 0% | 8.2hPa | 2.6V | 02:59:40 | 02:19:47 | 00:00:00 | |
| DL1XH-west | 2026-09-01 00:48:01 | 49.63948 | 8.65257 | 128° | 20km/h | 32632m | 5.1m/s | -37.4°C | 0% | 8.3hPa | 2.6V | 02:59:40 | 02:19:42 | 00:00:00 | |
| BIOWL9-15 | 2026-09-01 00:48:00 | 49.63952 | 8.65246 | 115° | 11km/h | 32622m | 4.1m/s | -37.4°C | 0.7% | 8.3hPa | 2.5V | 00:00:00 | 00:00:00 | 00:00:00 | |
| DL1XH-15 | 2026-09-01 00:47:59 | 49.63953 | 8.65242 | 83° | 11km/h | 32618m | 4m/s | -37.4°C | 2.3% | 8.3hPa | 2.5V | 02:59:25 | 02:19:39 | 00:00:00 | |
| HSKMA3-T | 2026-09-01 00:47:59 | 49.63952 | 8.65246 | 115° | 13km/h | 32622m | 4.1m/s | -37.4°C | 0% | 8.3hPa | 2.6V | 02:59:40 | 02:19:40 | 00:00:00 | |
| BIOWL1-15 | 2026-09-01 00:47:56 | 49.63949 | 8.65233 | 48° | 18km/h | 32610m | 4.9m/s | -37.4°C | 0% | 8.3hPa | 2.5V | 02:59:40 | 02:19:37 | 00:00:00 | |
| AA1-15 | 2026-09-01 00:47:55 | 49.63946 | 8.65227 | 47° | 24km/h | 32604m | 5.5m/s | -37.3°C | 0% | 8.3hPa | 2.6V | 02:59:40 | 02:19:36 | 00:00:00 | |
| DL1XH-west | 2026-09-01 00:47:51 | 49.63929 | 8.65200 | 47° | 18km/h | 32587m | 3.6m/s | -37.3°C | 0% | 8.3hPa | 2.5V | 02:59:40 | 02:19:32 | 00:00:00 | |
| HSKMA3-T | 2026-09-01 00:47:48 | 49.63925 | 8.65194 | 269° | 4km/h | 32572m | 5.3m/s | -37.3°C | 0% | 8.4hPa | 2.6V | 02:59:40 | 02:19:29 | 00:00:00 | |
| BIOWL1-15 | 2026-09-01 00:47:46 | 49.63926 | 8.65196 | 185° | 5km/h | 32563m | 3.1m/s | -37.3°C | 0% | 8.4hPa | 2.5V | 02:59:40 | 02:19:27 | 00:00:00 | |
| DL3AQ-11 | 2026-09-01 00:47:46 | 49.63927 | 8.65195 | 115° | 5km/h | 32560m | 3.2m/s | -37.3°C | 0.7% | 8.4hPa | 2.6V | 00:00:00 | 00:00:00 | 00:00:00 | |
| DL1XH1-15 | 2026-09-01 00:47:45 | 49.63924 | 8.65173 | 68° | 35km/h | 32545m | 5.7m/s | -37.3°C | 2.3% | 8.4hPa | 2.6V | 02:59:41 | 02:19:23 | 00:00:00 | |
| AA1-15 | 2026-09-01 00:47:44 | 49.63927 | 8.65191 | 89° | 15km/h | 32556m | 4.5m/s | -37.3°C | 0% | 8.4hPa | 2.5V | 02:59:40 | 02:19:25 | 00:00:00 | |
| DL1XH-west | 2026-09-01 00:47:40 | 49.63914 | 8.65146 | 51° | 42km/h | 32536m | 3.4m/s | -37.4°C | 0% | 8.4hPa | 2.5V | 03:00:31 | 02:19:21 | 00:00:00 | |
| HSKMA3-T | 2026-09-01 00:47:38 | 49.63900 | 8.65127 | 28° | 33km/h | 32530m | 4m/s | -37.4°C | 0% | 8.4hPa | 2.5V | 03:00:31 | 02:19:19 | 00:00:00 | |
| BIOWL1-15 | 2026-09-01 00:47:38 | 49.63888 | 8.65124 | 336° | 18km/h | 32520m | 5.4m/s | -37.5°C | 0% | 8.4hPa | 2.6V | 03:00:31 | 02:19:17 | 00:00:00 | |
| DJ2KF-10 | 2026-09-01 00:47:35 | 49.63886 | 8.65128 | 290° | 27km/h | 32515m | 4.6m/s | -37.4°C | 2.3% | 8.4hPa | 2.6V | 02:59:00 | 02:19:16 | 00:00:00 | |
| DL1XH1-15 | 2026-09-01 00:47:34 | 49.63893 | 8.65139 | 172° | 20km/h | 32503m | 4.4m/s | -37.6°C | 2.3% | 8.4hPa | 2.5V | 02:59:51 | 02:19:13 | 00:00:00 | |
| AA1-15 | 2026-09-01 00:47:34 | 49.63888 | 8.65138 | 209° | 16km/h | 32507m | 3.5m/s | -37.6°C | 0% | 8.4hPa | 2.5V | 03:00:31 | 02:19:14 | 00:00:00 | |
| DL1XH-west | 2026-09-01 00:47:29 | 49.63907 | 8.65113 | 105° | 42km/h | 32488m | 4.9m/s | -37.8°C | 0% | 8.5hPa | 2.5V | 03:00:31 | 02:19:10 | 00:00:00 | |
| HSKMA3-T | 2026-09-01 00:47:27 | 49.63907 | 8.65079 | 77° | 46km/h | 32480m | 3.6m/s | -37.8°C | 0% | 8.5hPa | 2.5V | 03:00:31 | 02:19:08 | 00:00:00 | |
| BIOWL1-15 | 2026-09-01 00:47:25 | 49.63892 | 8.65046 | 20° | 27km/h | 32466m | 5.5m/s | -37.9°C | 0% | 8.5hPa | 2.6V | 03:00:31 | 02:19:05 | 00:00:00 | |
| AA1-15 | 2026-09-01 00:47:23 | 49.63885 | 8.65045 | 352° | 24km/h | 32461m | 5.3m/s | -37.9°C | 0% | 8.5hPa | 2.6V | 03:00:31 | 02:19:04 | 00:00:00 | |
| DL1XH-west | 2026-09-01 00:47:19 | 49.63877 | 8.65058 | 170° | 7km/h | 32443m | 4.7m/s | -38°C | 0% | 8.5hPa | 2.6V | 03:00:31 | 02:19:00 | 00:00:00 | |
| HSKMA3-T | 2026-09-01 00:47:17 | 49.63883 | 8.65047 | 119° | 29km/h | 32433m | 5.6m/s | -38°C | 0% | 8.5hPa | 2.5V | 03:00:31 | 02:18:58 | 00:00:00 | |
| DL1XH1-15 | 2026-09-01 00:47:14 | 49.63884 | 8.64978 | 53° | 31km/h | 32411m | 5m/s | -38.1°C | 2.3% | 8.6hPa | 2.5V | 03:00:11 | 02:18:53 | 00:00:00 | |
| AA1-15 | 2026-09-01 00:47:12 | 49.63883 | 8.64978 | 54° | 31km/h | 32411m | 5m/s | -38.1°C | 0% | 8.6hPa | 2.5V | 03:00:31 | 02:18:53 | 00:00:00 | |
| DL1XH-west | 2026-09-01 00:47:09 | 49.63859 | 8.64970 | 342° | 24km/h | 32390m | 4.6m/s | -38.2°C | 0% | 8.6hPa | 2.6V | 03:00:31 | 02:18:49 | 00:00:00 | |
| HSKMA3-T | 2026-09-01 00:47:06 | 49.63850 | 8.64973 | 8° | 11km/h | 32381m | 4.4m/s | -38.4°C | 0% | 8.6hPa | 2.6V | 03:00:31 | 02:18:47 | 00:00:00 | |
| DM3KS-11 | 2026-09-01 00:47:05 | 49.63847 | 8.64965 | 89° | 18km/h | 32372m | 5.2m/s | -38.5°C | 0.7% | 8.6hPa | 2.6V | 00:00:00 | 00:00:00 | 00:00:00 | |
| DL1XH1-15 | 2026-09-01 00:47:04 | 49.63848 | 8.64945 | 95° | 31km/h | 32361m | 5.4m/s | -38.6°C | 2.4% | 8.6hPa | 2.6V | 03:00:21 | 02:18:43 | 00:00:00 | |
| AA1-15 | 2026-09-01 00:47:02 | 49.63849 | 8.64920 | 86° | 31km/h | 32350m | 4.7m/s | -38.6°C | 0% | 8.7hPa | 2.5V | 03:00:31 | 02:18:41 | 00:00:00 | |
| DL1XH-west | 2026-09-01 00:46:58 | 49.63845 | 8.64898 | 65° | 27km/h | 32341m | 4.8m/s | -38.7°C | 0% | 8.7hPa | 2.5V | 03:00:31 | 02:18:39 | 00:00:00 | |
| HSKMA3-T | 2026-09-01 00:46:55 | 49.63833 | 8.64877 | 35° | 24km/h | 32326m | 5.2m/s | -38.8°C | 0% | 8.7hPa | 2.5V | 03:00:31 | 02:18:36 | 00:00:00 | |
| AA1-15 | 2026-09-01 00:46:50 | 49.63811 | 8.64850 | 46° | 18km/h | 32301m | 4.3m/s | -38.8°C | 0% | 8.7hPa | 2.6V | 03:01:22 | 02:18:31 | 00:00:00 | |
| DL1XH-west | 2026-09-01 00:46:48 | 49.63804 | 8.64840 | 36° | 18km/h | 32291m | 5.6m/s | -38.8°C | 0% | 8.7hPa | 2.5V | 03:01:22 | 02:18:29 | 00:00:00 | |
| BIOWL1-15 | 2026-09-01 00:46:47 | 49.63800 | 8.64836 | 31° | 18km/h | 32286m | 5.7m/s | -38.8°C | 0% | 8.7hPa | 2.5V | 03:01:22 | 02:18:28 | 00:00:00 | |
| HSKMA3-T | 2026-09-01 00:46:45 | 49.63792 | 8.64828 | 38° | 20km/h | 32276m | 4.3m/s | -38.8°C | 0% | 8.7hPa | 2.6V | 03:01:22 | 02:18:26 | 00:00:00 | |
| DL1XH1-15 | 2026-09-01 00:46:44 | 49.63781 | 8.64805 | 67° | 29km/h | 32262m | 5.6m/s | -38.9°C | 2.4% | 8.8hPa | 2.5V | 03:00:41 | 02:18:23 | 00:00:00 | |
| AA1-15 | 2026-09-01 00:46:39 | 49.63777 | 8.64768 | 88° | 33km/h | 32245m | 4.8m/s | -39°C | 0% | 8.8hPa | 2.6V | 03:01:22 | 02:18:20 | 00:00:00 | |
| DL1XH-west | 2026-09-01 00:46:38 | 49.63777 | 8.64757 | 91° | 26km/h | 32241m | 4.3m/s | -39°C | 0% | 8.8hPa | 2.5V | 03:01:22 | 02:18:19 | 00:00:00 | |
| BIOWL1-15 | 2026-09-01 00:46:37 | 49.63777 | 8.64743 | 76° | 11km/h | 32231m | 5.7m/s | -39°C | 0% | 8.8hPa | 2.5V | 03:01:22 | 02:18:17 | 00:00:00 | |
| DJ2KF-10 | 2026-09-01 00:46:35 | 49.63776 | 8.64740 | 23° | 22km/h | 32226m | 6.8m/s | -38.9°C | 2.4% | 8.7hPa | 2.6V | 00:00:00 | 02:18:16 | 00:00:00 | |
| DL1XH1-15 | 2026-09-01 00:46:34 | 49.63772 | 8.64746 | 287° | 4km/h | 32210m | 3.8m/s | -39°C | 2.4% | 8.8hPa | 2.6V | 03:00:51 | 02:18:13 | 00:00:00 | |
| HSKMA3-T | 2026-09-01 00:46:34 | 49.63774 | 8.64741 | 322° | 7km/h | 32219m | 5.7m/s | -39°C | 0% | 8.8hPa | 2.6V | 03:01:22 | 02:18:15 | 00:00:00 | |
| DL1XH-west | 2026-09-01 00:46:28 | 49.63781 | 8.64726 | 117° | 35km/h | 32188m | 5.6m/s | -39°C | 0% | 8.9hPa | 2.6V | 03:01:22 | 02:18:09 | 00:00:00 | |
| BIOWL1-15 | 2026-09-01 00:46:26 | 49.63782 | 8.64654 | 1° | 11km/h | 32152m | 5.4m/s | -39.2°C | 0% | 8.9hPa | 2.5V | 03:01:22 | 02:18:02 | 00:00:00 | |
| HSKMA3-T | 2026-09-01 00:46:23 | 49.63788 | 8.64662 | 63° | 22km/h | 32164m | 5.6m/s | -39.1°C | 0% | 8.9hPa | 2.6V | 03:01:22 | 02:18:04 | 00:00:00 | |
| DL1XH-west | 2026-09-01 00:46:17 | 49.63780 | 8.64657 | 144° | 13km/h | 32131m | 5.6m/s | -39.5°C | 0% | 8.9hPa | 2.6V | 03:01:22 | 02:17:58 | 00:00:00 | |
| BIOWL1-15 | 2026-09-01 00:46:14 | 49.63784 | 8.64598 | 56° | 33km/h | 32099m | 6m/s | -39.7°C | 0% | 9hPa | 2.6V | 03:01:22 | 02:17:52 | 00:00:00 | |
| DL1XH1-15 | 2026-09-01 00:46:12 | 49.63787 | 8.64610 | 72° | 33km/h | 32105m | 6m/s | -39.7°C | 2.5% | 9hPa | 2.5V | 03:01:11 | 02:17:53 | 00:00:00 | |
| HSKMA3-T | 2026-09-01 00:46:12 | 49.63787 | 8.64610 | 72° | 33km/h | 32105m | 6m/s | -39.7°C | 0% | 9hPa | 2.5V | 03:01:22 | 02:17:53 | 00:00:00 | |
| DL1XH-west | 2026-09-01 00:46:06 | 49.63759 | 8.64578 | 13° | 7km/h | 32073m | 5.7m/s | -39.6°C | 0% | 9hPa | 2.6V | 03:01:22 | 02:17:47 | 00:00:00 | |
| DB0UT-7 | 2026-09-01 00:46:06 | 49.63759 | 8.64577 | 114° | 18km/h | 32068m | 5.8m/s | -39.6°C | 2.6% | 9.0hPa | 2.6V | 00:00:00 | 00:00:00 | 00:00:00 | |
| DJ2KF-10 | 2026-09-01 00:46:05 | 49.63759 | 8.64577 | 114° | 18km/h | 32068m | 5.8m/s | -39.6°C | 2.6% | 9.0hPa | 2.6V | 00:00:00 | 02:17:46 | 00:00:00 | |
| DL1XH1-15 | 2026-09-01 00:46:04 | 49.63765 | 8.64561 | 109° | 24km/h | 32051m | 5m/s | -39.6°C | 2.5% | 9.1hPa | 2.5V | 03:01:21 | 02:17:43 | 00:00:00 | |
| BIOWL1-15 | 2026-09-01 00:46:04 | 49.63764 | 8.64530 | 63° | 29km/h | 32034m | 5.8m/s | -39.7°C | 0% | 9.1hPa | 2.6V | 03:02:13 | 02:17:40 | 00:00:00 | |
| HSKMA3-T | 2026-09-01 00:46:02 | 49.63765 | 8.64561 | 110° | 24km/h | 32051m | 5m/s | -39.6°C | 0% | 9.1hPa | 2.5V | 03:01:22 | 02:17:43 | 00:00:00 | |
| DL1XH-west | 2026-09-01 00:45:55 | 49.63746 | 8.64507 | 17° | 13km/h | 32014m | 4.9m/s | -39.7°C | 0% | 9.1hPa | 2.5V | 03:02:13 | 02:17:36 | 00:00:00 | |
| DO1YAY-16 | 2026-09-01 00:45:55 | 49.63744 | 8.64506 | 24° | 2km/h | 32009m | 5.5m/s | -39.7°C | 0.8% | 9.1hPa | 2.5V | 00:00:00 | 00:00:00 | 00:00:00 | |
| DL1XH1-15 | 2026-09-01 00:45:54 | 49.63747 | 8.64504 | 160° | 15km/h | 31997m | 5.8m/s | -39.7°C | 2.5% | 9.1hPa | 2.5V | 03:01:31 | 02:17:33 | 00:00:00 | |
| HSKMA3-T | 2026-09-01 00:45:51 | 49.63751 | 8.64501 | 150° | 20km/h | 31992m | 5.2m/s | -39.7°C | 0% | 9.1hPa | 2.5V | 03:02:13 | 02:17:32 | 00:00:00 | |
| DL1XH-west | 2026-09-01 00:45:45 | 49.63754 | 8.64465 | 21° | 20km/h | 31960m | 5.7m/s | -39.7°C | 0% | 9.2hPa | 2.5V | 03:02:13 | 02:17:26 | 00:00:00 | |
| DL1XH1-15 | 2026-09-01 00:45:44 | 49.63743 | 8.64466 | 318° | 9km/h | 31945m | 5.3m/s | -39.7°C | 2.5% | 9.2hPa | 2.5V | 03:01:41 | 02:17:23 | 00:00:00 | |
| HSKMA3-T | 2026-09-01 00:45:41 | 49.63742 | 8.64468 | 246° | 5km/h | 31939m | 5.5m/s | -39.7°C | 0% | 9.2hPa | 2.5V | 03:02:13 | 02:17:22 | 00:00:00 | |
| DL4BBY-15 | 2026-09-01 00:45:39 | 49.63747 | 8.64468 | 159° | 18km/h | 31928m | 5.5m/s | -40.5°C | 0% | 0hPa | 2.6V | 00:00:00 | 00:00:00 | 00:00:00 | |
| HTAHTA | 2026-09-01 00:45:38 | 49.63760 | 8.64447 | 111° | 27km/h | 31912m | 5.2m/s | -40.0°C | -1.0% | -1.0hPa | 2.6V | 00:00:00 | 00:00:00 | 00:00:00 | |
| DL1XH1-15 | 2026-09-01 00:45:37 | 49.63752 | 8.64415 | 353° | 13km/h | 31884m | 5.9m/s | -40°C | 2.6% | 9.3hPa | 2.6V | 03:01:52 | 02:17:12 | 00:00:00 | |
| AA1-15 | 2026-09-01 00:45:34 | 49.63755 | 8.64416 | 25° | 15km/h | 31890m | 5.7m/s | -40.1°C | 0% | 9.3hPa | 2.6V | 03:02:13 | 02:17:13 | 00:00:00 | |
| DL1XH-west | 2026-09-01 00:45:34 | 49.63761 | 8.64428 | 75° | 24km/h | 31901m | 5.1m/s | -40.1°C | 0% | 9.2hPa | 2.5V | 03:02:13 | 02:17:15 | 00:00:00 | |
| BIOWL1-15 | 2026-09-01 00:45:31 | 49.63752 | 8.64415 | 354° | 13km/h | 31884m | 5.9m/s | -40.1°C | 0% | 9.3hPa | 2.6V | 03:02:13 | 02:17:12 | 00:00:00 | |
| HSKMA3-T | 2026-09-01 00:45:30 | 49.63749 | 8.64417 | 318° | 11km/h | 31878m | 5.6m/s | -40°C | 0% | 9.3hPa | 2.5V | 03:02:13 | 02:17:11 | 00:00:00 | |
| AA1-15 | 2026-09-01 00:45:24 | 49.63763 | 8.64401 | 101° | 27km/h | 31841m | 5.4m/s | -40.1°C | 0% | 9.3hPa | 2.5V | 03:02:13 | 02:17:04 | 00:00:00 | |
| DL1XH-west | 2026-09-01 00:45:24 | 49.63761 | 8.64411 | 115° | 26km/h | 31846m | 5.5m/s | -40°C | 0% | 9.3hPa | 2.5V | 03:02:13 | 02:17:05 | 00:00:00 | |
| BIOWL1-15 | 2026-09-01 00:45:20 | 49.63759 | 8.64375 | 8° | 7km/h | 31820m | 5.5m/s | -40.2°C | 0% | 9.4hPa | 2.5V | 03:02:13 | 02:17:00 | 00:00:00 | |
| HSKMA3-T | 2026-09-01 00:45:20 | 49.63761 | 8.64377 | 49° | 13km/h | 31825m | 5.2m/s | -40.1°C | 0% | 9.4hPa | 2.5V | 03:02:13 | 02:17:01 | 00:00:00 | |
| DL0LBS | 2026-09-01 00:45:19 | 49.63761 | 8.64377 | 50° | 13km/h | 31826m | 5.2m/s | -40.1°C | 0.8% | 9.4hPa | 2.6V | 03:02:00 | 00:00:00 | 00:00:00 | |
| DJTTGO | 2026-09-01 00:45:18 | 49.63759 | 8.64375 | 9° | 7km/h | 31820m | 5.5m/s | -40.2°C | 0% | 9.4hPa | 2.6V | 00:00:00 | 00:00:00 | 00:00:00 | |
| DL1XH1-15 | 2026-09-01 00:45:14 | 49.63783 | 8.64381 | 116° | 22km/h | 31776m | 5.8m/s | -40.4°C | 2.6% | 9.4hPa | 2.6V | 03:02:12 | 02:16:52 | 00:00:00 | |
| DL1XH-west | 2026-09-01 00:45:13 | 49.63775 | 8.64391 | 164° | 22km/h | 31787m | 4.8m/s | -40.3°C | 0% | 9.4hPa | 2.5V | 03:02:13 | 02:16:54 | 00:00:00 | |
| AA1-15 | 2026-09-01 00:45:12 | 49.63780 | 8.64387 | 140° | 22km/h | 31782m | 5.3m/s | -40.3°C | 0% | 9.4hPa | 2.5V | 03:02:13 | 02:16:53 | 00:00:00 | |
| BIOWL1-15 | 2026-09-01 00:45:12 | 49.63779 | 8.64357 | 247° | 13km/h | 31745m | 5.9m/s | -40.6°C | 0% | 9.5hPa | 2.6V | 03:03:04 | 02:16:46 | 00:00:00 | |
| HSKMA3-T | 2026-09-01 00:45:10 | 49.63785 | 8.64373 | 95° | 22km/h | 31771m | 5.7m/s | -40.4°C | 0% | 9.4hPa | 2.6V | 03:02:13 | 02:16:51 | 00:00:00 | |
| DL4BBY-15 | 2026-09-01 00:45:09 | 49.63784 | 8.64364 | 75° | 20km/h | 31766m | 5.0m/s | -41.1°C | 0% | 0hPa | 2.5V | 00:00:00 | 00:00:00 | 00:00:00 | |
| SONCRA | 2026-09-01 00:45:08 | 49.63782 | 8.64358 | 56° | 15km/h | 31761m | 4.6m/s | -40.5°C | 0.8% | 9.5hPa | 2.5V | 00:00:00 | 00:00:00 | 00:00:00 | |
| DL1ZP-14 | 2026-09-01 00:45:07 | 49.63779 | 8.64354 | 305° | 4km/h | 31751m | 5.5m/s | -40.6°C | 0.8% | 9.5hPa | 2.5V | 00:00:00 | 00:00:00 | 00:00:00 | |
| DJ2KF-10 | 2026-09-01 00:45:06 | 49.63779 | 8.64357 | 247° | 22km/h | 31745m | 5.8m/s | -40.6°C | 2.6% | 9.4hPa | 2.5V | 00:00:00 | 02:16:46 | 00:00:00 | |
| DL1XH1-15 | 2026-09-01 00:45:04 | 49.63803 | 8.64376 | 182° | 35km/h | 31724m | 4.9m/s | -40.6°C | 2.6% | 9.5hPa | 2.5V | 03:02:22 | 02:16:42 | 00:00:00 | |
| DL1XH-west | 2026-09-01 00:45:04 | 49.63795 | 8.64374 | 198° | 35km/h | 31728m | 4.9m/s | -40.6°C | 0% | 9.5hPa | 2.5V | 03:03:04 | 02:16:43 | 00:00:00 | |
| AA1-15 | 2026-09-01 00:45:02 | 49.63803 | 8.64376 | 182° | 35km/h | 31724m | 4.9m/s | -40.6°C | 0% | 9.5hPa | 2.5V | 03:03:04 | 02:16:42 | 00:00:00 | |
| HSKMA3-T | 2026-09-01 00:44:59 | 49.63818 | 8.64370 | 144° | 29km/h | 31713m | 5.3m/s | -40.6°C | 0% | 9.5hPa | 2.6V | 03:03:04 | 02:16:40 | 00:00:00 | |
| DB0ND-19 | 2026-09-01 00:44:55 | 49.63816 | 8.64336 | 9° | 16km/h | 31686m | 4.9m/s | -40.7°C | 0.8% | 9.6hPa | 2.5V | 00:00:00 | 00:00:00 | 00:00:00 | |
| DL1XH1-15 | 2026-09-01 00:44:54 | 49.63810 | 8.64344 | 242° | 13km/h | 31671m | 5.7m/s | -40.7°C | 2.6% | 9.6hPa | 2.5V | 03:02:32 | 02:16:32 | 00:00:00 | |
| AA1-15 | 2026-09-01 00:44:51 | 49.63810 | 8.64344 | 242° | 13km/h | 31671m | 5.7m/s | -40.7°C | 0% | 9.6hPa | 2.5V | 03:03:04 | 02:16:32 | 00:00:00 | |
| HSKMA3-T | 2026-09-01 00:44:48 | 49.63824 | 8.64350 | 173° | 27km/h | 31653m | 5.7m/s | -40.8°C | 0% | 9.6hPa | 2.5V | 03:03:04 | 02:16:29 | 00:00:00 | |
| DL1XH1-15 | 2026-09-01 00:44:45 | 49.63839 | 8.64320 | 23° | 13km/h | 31614m | 5m/s | -40.8°C | 2.7% | 9.7hPa | 2.5V | 03:02:42 | 02:16:22 | 00:00:00 | |
| DL1XH-west | 2026-09-01 00:44:41 | 49.63839 | 8.64320 | 23° | 13km/h | 31614m | 5m/s | -40.8°C | 0% | 9.7hPa | 2.5V | 03:03:04 | 02:16:22 | 00:00:00 | |
| DB0UT-9 | 2026-09-01 00:44:40 | 49.63839 | 8.64320 | 24° | 13km/h | 31615m | 5.0m/s | -40.8°C | 0.9% | 9.7hPa | 2.6V | 03:03:00 | 00:00:00 | 00:00:00 | |
| DL1XH-15 | 2026-09-01 00:44:39 | 49.63847 | 8.64307 | 154° | 18km/h | 31578m | 5m/s | -40.9°C | 2.6% | 9.7hPa | 2.6V | 03:02:49 | 02:16:15 | 00:00:00 | |
| HSKMA3-T | 2026-09-01 00:44:38 | 49.63834 | 8.64316 | 125° | 4km/h | 31599m | 5.6m/s | -40.9°C | 0% | 9.7hPa | 2.5V | 03:03:04 | 02:16:19 | 00:00:00 | |
| SONCRA | 2026-09-01 00:44:37 | 49.63836 | 8.64315 | 152° | 9km/h | 31593m | 5.5m/s | -40.9°C | 0.8% | 9.7hPa | 2.6V | 00:00:00 | 00:00:00 | 00:00:00 | |
| HTAHTA | 2026-09-01 00:44:36 | 49.63843 | 8.64310 | 155° | 18km/h | 31583m | 5.0m/s | -40.9°C | -1.0% | -1.0hPa | 2.6V | 00:00:00 | 00:00:00 | 00:00:00 | |
| DJ2KF-10 | 2026-09-01 00:44:35 | 49.63842 | 8.64310 | 156° | 13km/h | 31583m | 4.9m/s | -40.8°C | 2.6% | 9.7hPa | 2.6V | 00:00:00 | 02:16:16 | 00:00:00 | |
| DL1XH1-15 | 2026-09-01 00:44:34 | 49.63855 | 8.64300 | 146° | 5km/h | 31561m | 5.6m/s | -40.9°C | 2.6% | 9.8hPa | 2.5V | 03:02:52 | 02:16:12 | 00:00:00 | |
| DL1XH-west | 2026-09-01 00:44:31 | 49.63855 | 8.64300 | 147° | 5km/h | 31561m | 5.6m/s | -40.9°C | 0% | 9.8hPa | 2.5V | 03:03:04 | 02:16:12 | 00:00:00 | |
| AA1-15 | 2026-09-01 00:44:31 | 49.63856 | 8.64299 | 149° | 4km/h | 31556m | 5.4m/s | -40.9°C | 0% | 9.8hPa | 2.5V | 03:03:04 | 02:16:11 | 00:00:00 | |
| BIOWL1-15 | 2026-09-01 00:44:28 | 49.63857 | 8.64299 | 173° | 4km/h | 31545m | 5.7m/s | -41°C | 0% | 9.8hPa | 2.6V | 03:03:04 | 02:16:09 | 00:00:00 | |
| HSKMA3-T | 2026-09-01 00:44:27 | 49.63858 | 8.64298 | 168° | 7km/h | 31539m | 6.1m/s | -41.1°C | 0% | 9.8hPa | 2.6V | 03:03:04 | 02:16:08 | 00:00:00 | |
| DL3AQ-11 | 2026-09-01 00:44:26 | 49.63863 | 8.64296 | 150° | 11km/h | 31528m | 5.0m/s | -41.2°C | 0.8% | 9.8hPa | 2.5V | 00:00:00 | 00:00:00 | 00:00:00 | |
| DB0ND-19 | 2026-09-01 00:44:24 | 49.63867 | 8.64289 | 119° | 11km/h | 31518m | 6.3m/s | -41.2°C | 0.8% | 9.8hPa | 2.5V | 00:00:00 | 00:00:00 | 00:00:00 | |
| DL1XH1-15 | 2026-09-01 00:44:23 | 49.63869 | 8.64280 | 99° | 15km/h | 31505m | 5.2m/s | -41.2°C | 2.7% | 9.8hPa | 2.5V | 03:03:02 | 02:16:02 | 00:00:00 | |
| DL1XH-west | 2026-09-01 00:44:21 | 49.63869 | 8.64280 | 100° | 15km/h | 31505m | 5.2m/s | -41.3°C | 0.1% | 9.9hPa | 2.5V | 03:03:04 | 02:16:02 | 00:00:00 | |
| AA1-15 | 2026-09-01 00:44:19 | 49.63871 | 8.64268 | 115° | 18km/h | 31495m | 5.4m/s | -41.2°C | 0.1% | 9.8hPa | 2.5V | 03:03:04 | 02:16:00 | 00:00:00 | |
| BIOWL1-15 | 2026-09-01 00:44:17 | 49.63889 | 8.64239 | 56° | 5km/h | 31455m | 6.1m/s | -41.1°C | 0% | 9.9hPa | 2.6V | 03:03:55 | 02:15:53 | 00:00:00 | |
| HSKMA3-T | 2026-09-01 00:44:17 | 49.63877 | 8.64256 | 137° | 20km/h | 31483m | 5.8m/s | -41.3°C | 0.1% | 9.9hPa | 2.6V | 03:03:55 | 02:15:58 | 00:00:00 | |
| DB0UT-9 | 2026-09-01 00:44:15 | 49.63880 | 8.64251 | 145° | 20km/h | 31478m | 4.9m/s | -41.3°C | 0.9% | 9.9hPa | 2.5V | 00:00:00 | 00:00:00 | 00:00:00 | |
| SFWM-10 | 2026-09-01 00:44:14 | 49.63884 | 8.64247 | 148° | 16km/h | 31473m | 4.8m/s | -41.2°C | 0.9% | 9.9hPa | 2.5V | 00:00:00 | 00:00:00 | 00:00:00 | |
| DL1XH1-15 | 2026-09-01 00:44:13 | 49.63888 | 8.64237 | 36° | 9km/h | 31450m | 5.1m/s | -41.1°C | 2.7% | 9.9hPa | 2.5V | 03:03:12 | 02:15:52 | 00:00:00 | |
| DL1XH-west | 2026-09-01 00:44:10 | 49.63886 | 8.64235 | 43° | 11km/h | 31445m | 4.7m/s | -41.1°C | 0.1% | 9.9hPa | 2.5V | 03:03:55 | 02:15:51 | 00:00:00 | |
| AA1-15 | 2026-09-01 00:44:08 | 49.63884 | 8.64227 | 91° | 13km/h | 31434m | 6.3m/s | -41.1°C | 0% | 0hPa | 2.6V | 03:03:55 | 02:15:49 | 00:00:00 | |
| HSKMA3-T | 2026-09-01 00:44:07 | 49.63884 | 8.64221 | 107° | 16km/h | 31428m | 6.1m/s | -41.1°C | 0.1% | 9.9hPa | 2.6V | 03:03:55 | 02:15:48 | 00:00:00 | |
| DL1XH-west | 2026-09-01 00:44:01 | 49.63891 | 8.64176 | 84° | 7km/h | 31384m | 5.6m/s | -41°C | 0% | 10hPa | 2.5V | 03:03:55 | 02:15:40 | 00:00:00 | |
| AA1-15 | 2026-09-01 00:43:59 | 49.63891 | 8.64174 | 100° | 7km/h | 31379m | 5.8m/s | -41°C | 0% | 0hPa | 2.6V | 03:03:55 | 02:15:39 | 00:00:00 | |
| BIOWL1-15 | 2026-09-01 00:43:56 | 49.63892 | 8.64167 | 106° | 9km/h | 31368m | 5m/s | -41°C | 0.1% | 10hPa | 2.5V | 03:03:55 | 02:15:37 | 00:00:00 | |
| DL1XH-west | 2026-09-01 00:43:50 | 49.63883 | 8.64145 | 47° | 9km/h | 31336m | 4.3m/s | -41°C | 0.1% | 10.1hPa | 2.5V | 03:03:55 | 02:15:31 | 00:00:00 | |
| HSKMA3-T | 2026-09-01 00:43:46 | 49.63888 | 8.64136 | 166° | 15km/h | 31314m | 4.8m/s | -40.9°C | 0.1% | 10.1hPa | 2.5V | 03:03:55 | 02:15:27 | 00:00:00 | |
| BIOWL1-15 | 2026-09-01 00:43:45 | 49.63891 | 8.64135 | 166° | 13km/h | 31309m | 4.2m/s | -40.9°C | 0.1% | 10.1hPa | 2.5V | 03:03:55 | 02:15:26 | 00:00:00 | |
| DL1XH-west | 2026-09-01 00:43:40 | 49.63888 | 8.64129 | 20° | 16km/h | 31282m | 4.9m/s | -40.7°C | 0% | 10.2hPa | 2.5V | 03:03:55 | 02:15:21 | 00:00:00 | |
| AA1-15 | 2026-09-01 00:43:35 | 49.63879 | 8.64104 | 96° | 15km/h | 31250m | 5.4m/s | -40.6°C | 0% | 0hPa | 2.5V | 03:03:55 | 02:15:15 | 00:00:00 | |
| HSKMA3-T | 2026-09-01 00:43:35 | 49.63879 | 8.64110 | 95° | 15km/h | 31255m | 5m/s | -40.6°C | 0% | 10.2hPa | 2.5V | 03:03:55 | 02:15:16 | 00:00:00 | |
| BIOWL1-15 | 2026-09-01 00:43:34 | 49.63879 | 8.64084 | 83° | 9km/h | 31228m | 4.7m/s | -40.6°C | 0% | 10.2hPa | 2.5V | 03:03:55 | 02:15:11 | 00:00:00 | |
| DL1XH-west | 2026-09-01 00:43:29 | 49.63881 | 8.64078 | 169° | 7km/h | 31212m | 5.6m/s | -40.6°C | 0% | 10.3hPa | 2.6V | 03:04:46 | 02:15:08 | 00:00:00 | |
| HSKMA3-T | 2026-09-01 00:43:25 | 49.63884 | 8.64077 | 144° | 4km/h | 31203m | 3.9m/s | 0°C | 0% | 10.3hPa | 2.5V | 18:12:15 | 02:15:06 | 00:00:00 | |
| BIOWL1-15 | 2026-09-01 00:43:23 | 49.63883 | 8.64073 | 53° | 11km/h | 31193m | 6.2m/s | -40.5°C | 0% | 10.3hPa | 2.6V | 03:04:46 | 02:15:04 | 00:00:00 | |
| DL1XH-west | 2026-09-01 00:43:18 | 49.63873 | 8.64036 | 92° | 26km/h | 31166m | 5.8m/s | -40.4°C | 0% | 10.3hPa | 2.6V | 03:04:46 | 02:14:59 | 00:00:00 | |
| HSKMA3-T | 2026-09-01 00:43:15 | 49.63878 | 8.64010 | 115° | 18km/h | 31151m | 4.7m/s | 0°C | 0% | 0hPa | 2.5V | 18:12:15 | 02:14:56 | 00:00:00 | |
| DL1XH-15 | 2026-09-01 00:43:14 | 49.63876 | 8.63990 | 54° | 7km/h | 31120m | 5.5m/s | -40.6°C | 2.6% | 10.4hPa | 2.5V | 03:04:14 | 02:14:50 | 00:00:00 | |
| DL1XH1-15 | 2026-09-01 00:43:13 | 49.63879 | 8.63994 | 41° | 7km/h | 31130m | 4.8m/s | -40.5°C | 2.6% | 10.4hPa | 2.5V | 03:04:12 | 02:14:52 | 00:00:00 | |
| BIOWL1-15 | 2026-09-01 00:43:13 | 49.63881 | 8.64000 | 92° | 9km/h | 31141m | 5.5m/s | -40.4°C | 0% | 10.4hPa | 2.6V | 03:04:46 | 02:14:54 | 00:00:00 | |
| AA1-15 | 2026-09-01 00:43:13 | 49.63880 | 8.63997 | 61° | 7km/h | 31135m | 5.1m/s | 0°C | 0% | 0hPa | 2.6V | 18:12:15 | 02:14:53 | 00:00:00 | |
| DL1XH-west | 2026-09-01 00:43:08 | 49.63875 | 8.63987 | 82° | 9km/h | 31115m | 5.7m/s | -40.6°C | 0% | 10.4hPa | 2.6V | 03:04:46 | 02:14:49 | 00:00:00 | |
| HSKMA3-T | 2026-09-01 00:43:05 | 49.63877 | 8.63972 | 99° | 16km/h | 31100m | 4.6m/s | 0°C | 0% | 0hPa | 2.5V | 18:12:15 | 02:14:46 | 00:00:00 | |
| DJ2KF-10 | 2026-09-01 00:43:05 | 49.63877 | 8.63972 | 99° | 9km/h | 31100m | 4.6m/s | -40.7°C | 2.6% | 10.4hPa | 2.5V | 00:00:00 | 02:14:46 | 00:00:00 | |
| SONCRA | 2026-09-01 00:43:04 | 49.63877 | 8.63966 | 90° | 16km/h | 31095m | 5.2m/s | -40.8°C | 0.8% | 10.5hPa | 2.6V | 00:00:00 | 00:00:00 | 00:00:00 | |
| DL1XH-15 | 2026-09-01 00:43:03 | 49.63874 | 8.63934 | 129° | 9km/h | 31064m | 5.9m/s | -41°C | 2.7% | 10.5hPa | 2.6V | 03:04:25 | 02:14:39 | 00:00:00 | |
| AA1-15 | 2026-09-01 00:43:01 | 49.63874 | 8.63946 | 68° | 16km/h | 31079m | 4.4m/s | 0°C | 0% | 0hPa | 2.5V | 18:12:15 | 02:14:42 | 00:00:00 | |
| DL1XH-west | 2026-09-01 00:42:58 | 49.63874 | 8.63934 | 129° | 9km/h | 31064m | 5.9m/s | -41°C | 0.1% | 10.5hPa | 2.6V | 03:04:46 | 02:14:39 | 00:00:00 | |
| DM3KS-11 | 2026-09-01 00:42:57 | 49.63877 | 8.63931 | 174° | 7km/h | 31054m | 4.5m/s | -41.0°C | 0.8% | 10.5hPa | 2.5V | 00:00:00 | 00:00:00 | 00:00:00 | |
| DD1CC8 | 2026-09-01 00:42:55 | 49.63880 | 8.63931 | 233° | 0km/h | 31045m | 5.5m/s | -41.0°C | 0.8% | 10.6hPa | 2.5V | 00:00:00 | 00:00:00 | 00:00:00 | |
| BIOWL1-15 | 2026-09-01 00:42:54 | 49.63886 | 8.63903 | 66° | 11km/h | 30945m | 5.9m/s | -41.6°C | 0.1% | 10.7hPa | 2.5V | 03:05:37 | 02:14:15 | 00:00:00 | |
| DL1XH1-15 | 2026-09-01 00:42:53 | 49.63871 | 8.63924 | 63° | 11km/h | 31019m | 5.8m/s | -41°C | 2.6% | 10.6hPa | 2.5V | 03:04:34 | 02:14:30 | 00:00:00 | |
| DL3AQ-11 | 2026-09-01 00:42:53 | 49.63878 | 8.63931 | 12° | 9km/h | 31034m | 4.7m/s | -41.0°C | 0.8% | 10.6hPa | 2.6V | 00:00:00 | 00:00:00 | 00:00:00 | |
| AA1-15 | 2026-09-01 00:42:51 | 49.63881 | 8.63909 | 189° | 11km/h | 30964m | 4.8m/s | 0°C | 0% | 0hPa | 2.6V | 18:12:15 | 02:14:19 | 00:00:00 | |
| DB0ND-19 | 2026-09-01 00:42:51 | 49.63873 | 8.63927 | 41° | 11km/h | 31025m | 4.7m/s | -41.0°C | 0.8% | 10.6hPa | 2.5V | 00:00:00 | 00:00:00 | 00:00:00 | |
| BIOWL9-15 | 2026-09-01 00:42:49 | 49.63871 | 8.63924 | 63° | 9km/h | 31020m | 5.8m/s | -41.0°C | 0.8% | 10.6hPa | 2.5V | 00:00:00 | 00:00:00 | 00:00:00 | |
| DL1XH-west | 2026-09-01 00:42:48 | 49.63886 | 8.63908 | 148° | 7km/h | 30955m | 4.2m/s | -41.5°C | 0.1% | 10.7hPa | 2.5V | 03:05:37 | 02:14:17 | 00:00:00 | |
| DL1XH-15 | 2026-09-01 00:42:48 | 49.63875 | 8.63903 | 123° | 2km/h | 30988m | 4.8m/s | -41.1°C | 2.6% | 10.6hPa | 2.6V | 03:04:40 | 02:14:24 | 00:00:00 | |
| DL1XH1-15 | 2026-09-01 00:42:47 | 49.63879 | 8.63908 | 200° | 11km/h | 30969m | 5.6m/s | -41.4°C | 2.7% | 10.7hPa | 2.5V | 03:04:44 | 02:14:20 | 00:00:00 | |
| DL1XH-west | 2026-09-01 00:42:36 | 49.63887 | 8.63906 | 102° | 7km/h | 30950m | 5.7m/s | -41.6°C | 0% | 10.7hPa | 2.5V | 03:05:37 | 02:14:16 | 00:00:00 | |
| DJ2KF-10 | 2026-09-01 00:42:34 | 49.63886 | 8.63903 | 67° | 22km/h | 30945m | 5.8m/s | -41.6°C | 2.7% | 10.7hPa | 2.5V | 00:00:00 | 02:14:15 | 00:00:00 | |
| SONCRA | 2026-09-01 00:42:33 | 49.63885 | 8.63898 | 55° | 15km/h | 30939m | 5.2m/s | -41.6°C | 0.8% | 10.7hPa | 2.5V | 00:00:00 | 00:00:00 | 00:00:00 | |
| DL1XH-15 | 2026-09-01 00:42:32 | 49.63879 | 8.63879 | 86° | 20km/h | 30926m | 4.2m/s | -41.6°C | 2.7% | 10.7hPa | 2.5V | 03:04:53 | 02:14:11 | 00:00:00 | |
| BIOWL1-15 | 2026-09-01 00:42:30 | 49.63883 | 8.63863 | 124° | 26km/h | 30915m | 6.2m/s | -41.7°C | 0% | 10.8hPa | 2.6V | 03:05:37 | 02:14:09 | 00:00:00 | |
| DL1XH-west | 2026-09-01 00:42:25 | 49.63898 | 8.63844 | 157° | 24km/h | 30900m | 4.3m/s | -41.9°C | 0.1% | 10.8hPa | 2.5V | 03:05:37 | 02:14:06 | 00:00:00 | |
| BIOWL1-15 | 2026-09-01 00:42:18 | 49.63904 | 8.63823 | 84° | 24km/h | 30865m | 5.2m/s | -42.1°C | 0.1% | 10.8hPa | 2.6V | 03:05:37 | 02:13:59 | 00:00:00 | |
| DL1XH-west | 2026-09-01 00:42:15 | 49.63906 | 8.63791 | 102° | 29km/h | 30851m | 4.5m/s | -42.3°C | 0.1% | 10.9hPa | 2.5V | 03:05:37 | 02:13:56 | 00:00:00 | |
| AA1-15 | 2026-09-01 00:42:10 | 49.63916 | 8.63752 | 130° | 16km/h | 30826m | 4.3m/s | 0°C | 0% | 0hPa | 2.5V | 18:12:15 | 02:13:51 | 00:00:00 | |
| BIOWL1-15 | 2026-09-01 00:42:07 | 49.63932 | 8.63689 | 76° | 22km/h | 30767m | 5.9m/s | -42.9°C | 0.2% | 11hPa | 2.6V | 03:05:37 | 02:13:39 | 00:00:00 | |
| DL1XH-west | 2026-09-01 00:42:05 | 49.63935 | 8.63723 | 134° | 20km/h | 30802m | 4m/s | -42.6°C | 0.2% | 10.9hPa | 2.5V | 03:05:37 | 02:13:46 | 00:00:00 | |
| BIOWL1-15 | 2026-09-01 00:42:01 | 49.63931 | 8.63680 | 88° | 26km/h | 30761m | 5.5m/s | -42.9°C | 0.2% | 11hPa | 2.6V | 03:05:37 | 02:13:38 | 00:00:00 | |
| DL1XH-west | 2026-09-01 00:41:54 | 49.63936 | 8.63650 | 114° | 24km/h | 30746m | 5.2m/s | -42.8°C | 0.2% | 11.1hPa | 2.5V | 03:05:37 | 02:13:35 | 00:00:00 | |
| DB0UT-7 | 2026-09-01 00:41:53 | 49.63938 | 8.63643 | 120° | 29km/h | 30742m | 5.9m/s | -42.7°C | 2.9% | 11.0hPa | 2.6V | 03:05:00 | 02:13:34 | 00:00:00 | |
| DL1XH-15 | 2026-09-01 00:41:52 | 49.63943 | 8.63630 | 111° | 11km/h | 30726m | 4.1m/s | -42.7°C | 2.9% | 11.1hPa | 2.5V | 03:05:33 | 02:13:31 | 00:00:00 | |
| BIOWL1-15 | 2026-09-01 00:41:46 | 49.63943 | 8.63600 | 76° | 31km/h | 30706m | 5.2m/s | -42.7°C | 0.2% | 11.1hPa | 2.5V | 03:05:37 | 02:13:27 | 00:00:00 | |
| DL1XH-west | 2026-09-01 00:41:44 | 49.63937 | 8.63576 | 63° | 33km/h | 30696m | 4.4m/s | 0°C | 0% | 11.1hPa | 2.5V | 18:12:15 | 02:13:25 | 00:00:00 | |
| BIOWL1-15 | 2026-09-01 00:41:35 | 49.63893 | 8.63434 | 106° | 27km/h | 30600m | 5.5m/s | -43.1°C | 0.2% | 11.3hPa | 2.5V | 03:06:28 | 02:13:05 | 00:00:00 | |
| DL1XH-west | 2026-09-01 00:41:33 | 49.63926 | 8.63490 | 75° | 35km/h | 30645m | 4.3m/s | 0°C | 0% | 0hPa | 2.6V | 18:12:15 | 02:13:14 | 00:00:00 | |
| DL3AQ-11 | 2026-09-01 00:41:33 | 49.63923 | 8.63478 | 59° | 35km/h | 30640m | 5.4m/s | -43.0°C | 0.9% | 11.2hPa | 2.6V | 00:00:00 | 00:00:00 | 00:00:00 | |
| DJ2DS-15 | 2026-09-01 00:41:32 | 49.63923 | 8.63478 | 60° | 29km/h | 30641m | 5.4m/s | -42.9°C | 2.9% | 11.2hPa | 2.6V | 00:00:00 | 02:13:13 | 00:00:00 | |
| DL1XH-15 | 2026-09-01 00:41:31 | 49.63894 | 8.63451 | 24° | 13km/h | 30616m | 4.1m/s | -43°C | 2.9% | 11.3hPa | 2.6V | 03:05:56 | 02:13:08 | 00:00:00 | |
| DL1XH-west | 2026-09-01 00:41:22 | 49.63896 | 8.63407 | 94° | 40km/h | 30590m | 4.6m/s | 0°C | 0% | 0hPa | 2.6V | 18:12:15 | 02:13:03 | 00:00:00 | |
| BIOWL1-15 | 2026-09-01 00:41:21 | 49.63896 | 8.63391 | 84° | 42km/h | 30585m | 4.6m/s | -43.1°C | 0.2% | 11.3hPa | 2.5V | 03:06:28 | 02:13:02 | 00:00:00 | |
| DH7VM-15 | 2026-09-01 00:41:17 | 49.63884 | 8.63349 | 45° | 37km/h | 30571m | 5.2m/s | -43.3°C | 0.9% | 11.3hPa | 2.5V | 00:00:00 | 00:00:00 | 00:00:00 | |
| DL1XH-15 | 2026-09-01 00:41:16 | 49.63863 | 8.63332 | 15° | 26km/h | 30556m | 4.5m/s | -43.3°C | 2.9% | 11.4hPa | 2.5V | 03:06:08 | 02:12:56 | 00:00:00 | |
| DL1XH-west | 2026-09-01 00:41:12 | 49.63849 | 8.63319 | 56° | 24km/h | 30541m | 5.4m/s | 0°C | 0% | 0hPa | 2.6V | 18:12:15 | 02:12:53 | 00:00:00 | |
| BIOWL1-15 | 2026-09-01 00:41:10 | 49.63821 | 8.63235 | 38° | 22km/h | 30494m | 4.4m/s | -43.5°C | 0.3% | 11.5hPa | 2.6V | 03:06:28 | 02:12:44 | 00:00:00 | |
| BIOWL1-15 | 2026-09-01 00:41:02 | 49.63804 | 8.63215 | 41° | 35km/h | 30480m | 5.7m/s | -43.5°C | 0.2% | 11.5hPa | 2.5V | 03:06:28 | 02:12:41 | 00:00:00 | |
| BIOWL1-15 | 2026-09-01 00:40:49 | 49.63764 | 8.63142 | 24° | 18km/h | 30425m | 5.4m/s | -43.6°C | 0.2% | 11.6hPa | 2.5V | 03:07:19 | 02:12:30 | 00:00:00 | |
| DB0ND-19 | 2026-09-01 00:40:46 | 49.63745 | 8.63123 | 39° | 37km/h | 30410m | 4.3m/s | -43.7°C | 0.9% | 11.6hPa | 2.5V | 00:00:00 | 00:00:00 | 00:00:00 | |
| BIOWL9-15 | 2026-09-01 00:40:45 | 49.63738 | 8.63114 | 42° | 37km/h | 30406m | 4.4m/s | -43.7°C | 0.9% | 11.6hPa | 2.5V | 00:00:00 | 00:00:00 | 00:00:00 | |
| DO1YAY-16 | 2026-09-01 00:40:44 | 49.63732 | 8.63104 | 46° | 33km/h | 30401m | 4.9m/s | -43.8°C | 0.9% | 11.6hPa | 2.5V | 00:00:00 | 00:00:00 | 00:00:00 | |
| BIOWL1-15 | 2026-09-01 00:40:39 | 49.63715 | 8.63071 | 48° | 15km/h | 30376m | 4.6m/s | -44°C | 0.3% | 11.7hPa | 2.5V | 03:07:19 | 02:12:20 | 00:00:00 | |
| DL1XH-west | 2026-09-01 00:40:35 | 49.63699 | 8.63054 | 29° | 24km/h | 30355m | 4.3m/s | 0°C | 0% | 0hPa | 2.5V | 18:12:15 | 02:12:16 | 00:00:00 | |
| DL8DAS-15 | 2026-09-01 00:40:33 | 49.63688 | 8.63045 | 32° | 22km/h | 30346m | 5.7m/s | -44.1°C | 0.9% | 11.7hPa | 2.5V | 00:00:00 | 00:00:00 | 00:00:00 | |
| DL0LBS | 2026-09-01 00:40:32 | 49.63688 | 8.63045 | 32° | 22km/h | 30346m | 5.7m/s | -44.1°C | 0.9% | 11.7hPa | 2.5V | 03:07:00 | 00:00:00 | 00:00:00 | |
| DJ2DS-15 | 2026-09-01 00:40:31 | 49.63681 | 8.63036 | 46° | 20km/h | 30335m | 5.0m/s | -44.1°C | 3.0% | 11.7hPa | 2.5V | 03:06:00 | 02:12:12 | 00:00:00 | |
| BIOWL1-15 | 2026-09-01 00:40:29 | 49.63598 | 8.62933 | 8° | 18km/h | 30210m | 5.1m/s | -44.9°C | 0.3% | 12hPa | 2.5V | 03:07:19 | 02:11:47 | 00:00:00 | |
| SONCRA | 2026-09-01 00:40:29 | 49.63672 | 8.63017 | 55° | 24km/h | 30320m | 5.7m/s | -44.2°C | 0.9% | -1.0hPa | 2.6V | 00:00:00 | 00:00:00 | 00:00:00 | |
| DL1XH-15 | 2026-09-01 00:40:27 | 49.63652 | 8.62988 | 16° | 13km/h | 30296m | 6.2m/s | -44.2°C | 3% | 11.8hPa | 2.6V | 03:07:00 | 02:12:04 | 00:00:00 | |
| DL1XH-west | 2026-09-01 00:40:24 | 49.63656 | 8.62990 | 33° | 18km/h | 30301m | 5m/s | 0°C | 0% | 0hPa | 2.5V | 18:12:15 | 02:12:05 | 00:00:00 | |
| BIOWL1-15 | 2026-09-01 00:40:14 | 49.63593 | 8.62933 | 0° | 20km/h | 30205m | 4.9m/s | -45°C | 0.4% | 12hPa | 2.5V | 03:07:19 | 02:11:46 | 00:00:00 | |
| DB0UT-7 | 2026-09-01 00:40:14 | 49.63614 | 8.62965 | 50° | 11km/h | 30251m | 4.7m/s | -44.6°C | 3.0% | 11.9hPa | 2.5V | 00:00:00 | 00:00:00 | 00:00:00 | |
| DL1XH-15 | 2026-09-01 00:40:13 | 49.63604 | 8.62936 | 36° | 9km/h | 30220m | 5.4m/s | -44.8°C | 3.1% | 12hPa | 2.6V | 03:07:15 | 02:11:49 | 00:00:00 | |
| BIOWL1-15 | 2026-09-01 00:39:59 | 49.63567 | 8.62939 | 31° | 11km/h | 30176m | 4.8m/s | -45.1°C | 0.4% | 12.1hPa | 2.5V | 03:08:10 | 02:11:40 | 00:00:00 | |
| BIOWL1-15 | 2026-09-01 00:39:48 | 49.63542 | 8.62899 | 351° | 15km/h | 30119m | 5.9m/s | -45.5°C | 0.4% | 12.2hPa | 2.6V | 03:08:10 | 02:11:29 | 00:00:00 | |
| DL3AQ-11 | 2026-09-01 00:39:46 | 49.63528 | 8.62899 | 3° | 18km/h | 30103m | 4.5m/s | -45.7°C | 1.0% | 12.2hPa | 2.5V | 00:00:00 | 00:00:00 | 00:00:00 | |
| DB0ND-19 | 2026-09-01 00:39:44 | 49.63523 | 8.62899 | 357° | 18km/h | 30099m | 4.5m/s | -45.6°C | 1.0% | 12.2hPa | 2.5V | 00:00:00 | 00:00:00 | 00:00:00 | |
| BIOWL1-15 | 2026-09-01 00:39:37 | 49.63501 | 8.62892 | 36° | 16km/h | 30047m | 4.9m/s | -45.8°C | 0.5% | 12.3hPa | 2.5V | 03:08:10 | 02:11:15 | 00:00:00 | |
| BIOWL1-15 | 2026-09-01 00:39:26 | 49.63465 | 8.62894 | 19° | 9km/h | 29982m | 5.6m/s | -45.7°C | 0.5% | 12.4hPa | 2.6V | 03:08:10 | 02:11:03 | 00:00:00 | |
| BIOWL1-15 | 2026-09-01 00:39:13 | 49.63459 | 8.62886 | 314° | 7km/h | 29933m | 6m/s | -45.8°C | 0.5% | 12.5hPa | 2.6V | 03:08:10 | 02:10:54 | 00:00:00 | |
| BIOWL1-15 | 2026-09-01 00:39:02 | 49.63443 | 8.62877 | 253° | 7km/h | 29864m | 4.9m/s | -45.8°C | 0.5% | 12.6hPa | 2.5V | 03:09:01 | 02:10:41 | 00:00:00 | |
| DF3TZ-5 | 2026-09-01 00:39:00 | 49.63445 | 8.62878 | 109° | 5km/h | 29847m | 5.5m/s | -45.8°C | 1.0% | 12.7hPa | 2.6V | 00:00:00 | 00:00:00 | 00:00:00 | |
| DL8DAS-14 | 2026-09-01 00:38:53 | 49.63446 | 8.62873 | 249° | 4km/h | 29825m | 6.1m/s | -45.9°C | 1.0% | 12.7hPa | 2.6V | 00:00:00 | 00:00:00 | 00:00:00 | |
| DL3AQ-11 | 2026-09-01 00:38:52 | 49.63446 | 8.62875 | 255° | 7km/h | 29819m | 5.1m/s | -45.9°C | 1.0% | 12.7hPa | 2.6V | 00:00:00 | 00:00:00 | 00:00:00 | |
| DF7PN | 2026-09-01 00:38:51 | 49.63448 | 8.62882 | 248° | 7km/h | 29810m | 4.9m/s | 0°C | -1.0% | -1.0hPa | 2.6V | 00:00:00 | 00:00:00 | 00:00:00 | |
| BIOWL1-15 | 2026-09-01 00:38:50 | 49.63456 | 8.62886 | 227° | 5km/h | 29770m | 5.3m/s | -46.1°C | 0.5% | 12.8hPa | 2.6V | 03:09:01 | 02:10:24 | 00:00:00 | |
| DM3KS-11 | 2026-09-01 00:38:48 | 49.63451 | 8.62886 | 161° | 4km/h | 29792m | 5.5m/s | -46.0°C | 1.0% | 12.8hPa | 2.5V | 00:00:00 | 00:00:00 | 00:00:00 | |
| DD1CC8 | 2026-09-01 00:38:46 | 49.63452 | 8.62885 | 158° | 5km/h | 29787m | 5.0m/s | -46.1°C | 1.0% | 12.8hPa | 2.5V | 00:00:00 | 00:00:00 | 00:00:00 | |
| BIOWL1-15 | 2026-09-01 00:38:39 | 49.63458 | 8.62885 | 92° | 9km/h | 29748m | 6.5m/s | -46°C | 0.6% | 12.8hPa | 2.5V | 03:09:01 | 02:10:20 | 00:00:00 | |
| DL1XH-west | 2026-09-01 00:38:37 | 49.63458 | 8.62876 | 101° | 13km/h | 29737m | 4.8m/s | 0°C | 0% | 0hPa | 2.6V | 18:12:15 | 02:10:18 | 00:00:00 | |
| BIOWL1-15 | 2026-09-01 00:38:28 | 49.63461 | 8.62875 | 11° | 7km/h | 29687m | 5.1m/s | -46.2°C | 0.5% | 13hPa | 2.5V | 03:09:01 | 02:10:09 | 00:00:00 | |
| BIOWL1-15 | 2026-09-01 00:38:20 | 49.63454 | 8.62876 | 159° | 11km/h | 29634m | 3.9m/s | -46.3°C | 0.6% | 13.1hPa | 2.5V | 03:09:52 | 02:09:59 | 00:00:00 | |
| DL1XH-west | 2026-09-01 00:38:09 | 49.63450 | 8.62903 | 331° | 2km/h | 29584m | 5.3m/s | 0°C | 0% | 0hPa | 2.6V | 18:12:15 | 02:09:50 | 00:00:00 | |
| BIOWL1-15 | 2026-09-01 00:38:08 | 49.63451 | 8.62906 | 242° | 5km/h | 29562m | 5.2m/s | -46.2°C | 0.6% | 13.3hPa | 2.6V | 03:09:52 | 02:09:46 | 00:00:00 | |
| BIOWL1-15 | 2026-09-01 00:37:57 | 49.63456 | 8.62938 | 305° | 20km/h | 29513m | 4.6m/s | -46.3°C | 0.6% | 13.3hPa | 2.5V | 03:09:52 | 02:09:37 | 00:00:00 | |
| DL1XH-west | 2026-09-01 00:37:49 | 49.63453 | 8.62951 | 183° | 9km/h | 29477m | 5.2m/s | 0°C | 0% | 0hPa | 2.5V | 18:12:15 | 02:09:30 | 00:00:00 | |
| BIOWL1-15 | 2026-09-01 00:37:45 | 49.63453 | 8.62963 | 316° | 16km/h | 29456m | 4.8m/s | -46.3°C | 0.6% | 13.5hPa | 2.5V | 03:09:52 | 02:09:26 | 00:00:00 | |
| DD1CC8 | 2026-09-01 00:37:44 | 49.63449 | 8.62967 | 330° | 16km/h | 29452m | 4.7m/s | -46.3°C | 1.0% | 13.5hPa | 2.5V | 00:00:00 | 00:00:00 | 00:00:00 | |
| DL8DAS-15 | 2026-09-01 00:37:42 | 49.63445 | 8.62969 | 345° | 16km/h | 29447m | 5.4m/s | -46.3°C | 1.1% | 13.5hPa | 2.5V | 00:00:00 | 00:00:00 | 00:00:00 | |
| DB0ND-19 | 2026-09-01 00:37:40 | 49.63437 | 8.62967 | 47° | 7km/h | 29430m | 4.8m/s | -46.3°C | 1.0% | 13.5hPa | 2.5V | 00:00:00 | 00:00:00 | 00:00:00 | |
| BIOWL1-15 | 2026-09-01 00:37:35 | 49.63430 | 8.62994 | 190° | 2km/h | 29334m | 5m/s | -46.1°C | 0.5% | 13.8hPa | 2.5V | 03:10:43 | 02:09:03 | 00:00:00 | |
| DL3AQ-11 | 2026-09-01 00:37:33 | 49.63430 | 8.62989 | 328° | 11km/h | 29388m | 6.1m/s | -46.1°C | 1.0% | 13.6hPa | 2.5V | 00:00:00 | 00:00:00 | 00:00:00 | |
| DJ2DS-15 | 2026-09-01 00:37:31 | 49.63427 | 8.62991 | 350° | 7km/h | 29382m | 5.3m/s | -46.1°C | 3.4% | 13.6hPa | 2.5V | 00:00:00 | 02:09:12 | 00:00:00 | |
| DF3TZ-5 | 2026-09-01 00:37:27 | 49.63423 | 8.62991 | 214° | 4km/h | 29360m | 5.4m/s | -46.2°C | 1.0% | 13.7hPa | 2.5V | 00:00:00 | 00:00:00 | 00:00:00 | |
| IW2NTF | 2026-09-01 00:37:26 | 49.63430 | 8.62994 | 273° | 4km/h | 29329m | 4.6m/s | 0°C | 0% | 0hPa | 2.5V | 00:00:00 | 02:09:02 | 00:00:00 | |
| BIOWL1-15 | 2026-09-01 00:37:22 | 49.63430 | 8.62996 | 283° | 7km/h | 29324m | 6.1m/s | -46.1°C | 0.5% | 13.7hPa | 2.5V | 03:10:43 | 02:09:01 | 00:00:00 | |
| DL1XH-west | 2026-09-01 00:37:15 | 49.63426 | 8.63017 | 324° | 4km/h | 29297m | 6.2m/s | 0°C | 0% | 0hPa | 2.5V | 18:12:15 | 02:08:56 | 00:00:00 | |
| BIOWL1-15 | 2026-09-01 00:37:12 | 49.63432 | 8.63027 | 291° | 7km/h | 29219m | 6.1m/s | -45.9°C | 0.5% | 14hPa | 2.5V | 03:10:43 | 02:08:41 | 00:00:00 | |
| DJ2DS-15 | 2026-09-01 00:37:11 | 49.63429 | 8.63010 | 163° | 11km/h | 29276m | 5.9m/s | -46.0°C | 3.3% | 13.8hPa | 2.5V | 00:00:00 | 02:08:52 | 00:00:00 | |
| IW2NTF | 2026-09-01 00:37:10 | 49.63441 | 8.63019 | 235° | 13km/h | 29255m | 4.6m/s | 0°C | 0% | 0hPa | 2.5V | 00:00:00 | 02:08:48 | 00:00:00 | |
| DL4BBY-15 | 2026-09-01 00:37:09 | 49.63435 | 8.63012 | 207° | 11km/h | 29265m | 4.9m/s | -46.7°C | 0% | 0hPa | 2.5V | 00:00:00 | 00:00:00 | 00:00:00 | |
| BIOWL9-15 | 2026-09-01 00:37:08 | 49.63441 | 8.63019 | 235° | 11km/h | 29256m | 4.6m/s | -46.0°C | 1.0% | 13.9hPa | 2.5V | 00:00:00 | 00:00:00 | 00:00:00 | |
| DL0LBS | 2026-09-01 00:37:06 | 49.63441 | 8.63019 | 237° | 13km/h | 29256m | 4.6m/s | -46.0°C | 1.0% | 13.9hPa | 2.5V | 03:10:00 | 00:00:00 | 00:00:00 | |
| DB0UT-9 | 2026-09-01 00:37:05 | 49.63442 | 8.63022 | 258° | 9km/h | 29251m | 5.3m/s | -46.0°C | 1.1% | 13.9hPa | 2.5V | 03:10:00 | 00:00:00 | 00:00:00 | |
| IW2NTF | 2026-09-01 00:37:00 | 49.63437 | 8.63039 | 226° | 16km/h | 29202m | 5.1m/s | 0°C | 0% | 0hPa | 2.5V | 00:00:00 | 02:08:38 | 00:00:00 | |
| DL1XH-west | 2026-09-01 00:36:59 | 49.63433 | 8.63030 | 254° | 11km/h | 29213m | 6.1m/s | 0°C | 0% | 0hPa | 2.6V | 18:12:15 | 02:08:40 | 00:00:00 | |
| DF3TZ-5 | 2026-09-01 00:36:56 | 49.63439 | 8.63043 | 215° | 15km/h | 29196m | 5.9m/s | -45.9°C | 1.0% | 14.0hPa | 2.6V | 00:00:00 | 00:00:00 | 00:00:00 | |
| DL3AQ-11 | 2026-09-01 00:36:53 | 49.63448 | 8.63050 | 236° | 5km/h | 29176m | 4.9m/s | -45.9°C | 1.0% | 14.1hPa | 2.6V | 00:00:00 | 00:00:00 | 00:00:00 | |
| DJ2DS-15 | 2026-09-01 00:36:51 | 49.63449 | 8.63052 | 271° | 13km/h | 29171m | 6.0m/s | -45.9°C | 3.2% | 14.0hPa | 2.6V | 00:00:00 | 02:08:32 | 00:00:00 | |
| IW2NTF | 2026-09-01 00:36:49 | 49.63435 | 8.63072 | 9° | 11km/h | 29139m | 5.6m/s | 0°C | 0% | 0hPa | 2.6V | 00:00:00 | 02:08:26 | 00:00:00 | |
| DL1XH-west | 2026-09-01 00:36:48 | 49.63444 | 8.63066 | 314° | 16km/h | 29155m | 4.3m/s | 0°C | 0% | 0hPa | 2.5V | 18:12:15 | 02:08:29 | 00:00:00 | |
| DB0UT-7 | 2026-09-01 00:36:47 | 49.63441 | 8.63070 | 329° | 13km/h | 29151m | 4.8m/s | -46.0°C | 3.3% | 14.1hPa | 2.6V | 00:00:00 | 00:00:00 | 00:00:00 | |
| DL0LBS | 2026-09-01 00:36:46 | 49.63441 | 8.63070 | 329° | 15km/h | 29151m | 4.8m/s | -46.1°C | 1.0% | 14.1hPa | 2.6V | 03:10:00 | 00:00:00 | 00:00:00 | |
| DB0UT-9 | 2026-09-01 00:36:45 | 49.63438 | 8.63072 | 347° | 13km/h | 29145m | 6.0m/s | -46.1°C | 1.1% | 14.1hPa | 2.6V | 03:10:00 | 00:00:00 | 00:00:00 | |
| DL8DAS-15 | 2026-09-01 00:36:43 | 49.63432 | 8.63071 | 36° | 7km/h | 29135m | 4.6m/s | -46.2°C | 1.0% | 14.1hPa | 2.6V | 03:10:00 | 00:00:00 | 00:00:00 | |
| DL3AQ-11 | 2026-09-01 00:36:42 | 49.63434 | 8.63070 | 208° | 11km/h | 29119m | 6.4m/s | -46.2°C | 1.0% | 14.2hPa | 2.6V | 00:00:00 | 00:00:00 | 00:00:00 | |
| BIOWL1-15 | 2026-09-01 00:36:42 | 49.63441 | 8.63078 | 225° | 20km/h | 29108m | 4.7m/s | -46.3°C | 0.5% | 14.2hPa | 2.5V | 03:11:34 | 02:08:20 | 00:00:00 | |
| DL4BBY-15 | 2026-09-01 00:36:39 | 49.63441 | 8.63078 | 225° | 11km/h | 29108m | 4.6m/s | -47.0°C | 0% | 0hPa | 2.6V | 00:00:00 | 00:00:00 | 00:00:00 | |
| DB0ND-19 | 2026-09-01 00:36:38 | 49.63444 | 8.63084 | 230° | 16km/h | 29103m | 4.4m/s | -46.3°C | 1.0% | 14.2hPa | 2.6V | 00:00:00 | 00:00:00 | 00:00:00 | |
| BIOWL9-15 | 2026-09-01 00:36:37 | 49.63447 | 8.63092 | 266° | 5km/h | 29093m | 5.9m/s | -46.3°C | 1.0% | 14.2hPa | 2.6V | 00:00:00 | 00:00:00 | 00:00:00 | |
| IW2NTF | 2026-09-01 00:36:36 | 49.63434 | 8.63099 | 327° | 15km/h | 29066m | 5.7m/s | 0°C | 0% | 0hPa | 2.6V | 00:00:00 | 02:08:12 | 00:00:00 | |
| BIOWL1-15 | 2026-09-01 00:36:29 | 49.63436 | 8.63126 | 229° | 11km/h | 29025m | 4.8m/s | -46.5°C | 0.6% | 14.4hPa | 2.6V | 03:11:34 | 02:08:04 | 00:00:00 | |
| DL3AQ-11 | 2026-09-01 00:36:26 | 49.63433 | 8.63122 | 221° | 7km/h | 29035m | 4.8m/s | -46.5°C | 1.0% | 14.3hPa | 2.5V | 00:00:00 | 00:00:00 | 00:00:00 | |
| DF3TZ-5 | 2026-09-01 00:36:25 | 49.63433 | 8.63122 | 221° | 7km/h | 29035m | 4.8m/s | -46.5°C | 1.0% | 14.3hPa | 2.5V | 00:00:00 | 00:00:00 | 00:00:00 | |
| IW2NTF | 2026-09-01 00:36:24 | 49.63440 | 8.63134 | 245° | 15km/h | 29014m | 5.5m/s | 0°C | 0% | 0hPa | 2.5V | 00:00:00 | 02:08:02 | 00:00:00 | |
| BIOWL1-15 | 2026-09-01 00:36:14 | 49.63446 | 8.63161 | 225° | 18km/h | 28957m | 4.4m/s | -46.7°C | 0.6% | 14.6hPa | 2.5V | 03:11:34 | 02:07:51 | 00:00:00 | |
| DL3AQ-11 | 2026-09-01 00:36:13 | 49.63441 | 8.63152 | 230° | 13km/h | 28967m | 5.4m/s | -46.7°C | 1.0% | 14.5hPa | 2.5V | 00:00:00 | 00:00:00 | 00:00:00 | |
| DM3KS-11 | 2026-09-01 00:36:12 | 49.63441 | 8.63152 | 230° | 13km/h | 28967m | 5.4m/s | -46.7°C | 1.0% | 14.5hPa | 2.5V | 00:00:00 | 00:00:00 | 00:00:00 | |
| IW2NTF | 2026-09-01 00:36:11 | 49.63446 | 8.63161 | 225° | 18km/h | 28957m | 4.4m/s | 0°C | 0% | 0hPa | 2.5V | 00:00:00 | 02:07:51 | 00:00:00 | |
| DL1XH-west | 2026-09-01 00:36:09 | 49.63449 | 8.63166 | 222° | 15km/h | 28952m | 5.5m/s | 0°C | 0% | 0hPa | 2.5V | 18:12:15 | 02:07:50 | 00:00:00 | |
| BIOWL1-15 | 2026-09-01 00:36:04 | 49.63455 | 8.63175 | 274° | 5km/h | 28926m | 5.8m/s | -46.7°C | 0.6% | 14.6hPa | 2.5V | 03:11:34 | 02:07:45 | 00:00:00 | |
| DL3AQ-11 | 2026-09-01 00:36:02 | 49.63456 | 8.63183 | 255° | 5km/h | 28910m | 4.4m/s | -46.7°C | 1.0% | 14.6hPa | 2.5V | 00:00:00 | 00:00:00 | 00:00:00 | |
| IW2NTF | 2026-09-01 00:36:01 | 49.63459 | 8.63185 | 161° | 9km/h | 28893m | 5.6m/s | 0°C | 0% | 0hPa | 2.5V | 00:00:00 | 02:07:39 | 00:00:00 | |
| BIOWL1-15 | 2026-09-01 00:35:53 | 49.63494 | 8.63189 | 197° | 13km/h | 28819m | 4.6m/s | -46.5°C | 0.6% | 14.9hPa | 2.6V | 03:12:25 | 02:07:25 | 00:00:00 | |
| DJ2DS-15 | 2026-09-01 00:35:51 | 49.63479 | 8.63191 | 182° | 13km/h | 28857m | 6.2m/s | -46.6°C | 3.4% | 14.7hPa | 2.5V | 00:00:00 | 02:07:32 | 00:00:00 | |
| IW2NTF | 2026-09-01 00:35:50 | 49.63487 | 8.63186 | 169° | 7km/h | 28835m | 6m/s | 0°C | 0% | 0hPa | 2.5V | 00:00:00 | 02:07:28 | 00:00:00 | |
| DL8DAS-14 | 2026-09-01 00:35:47 | 49.63489 | 8.63186 | 194° | 7km/h | 28830m | 5.8m/s | -46.5°C | 1.0% | 14.8hPa | 2.5V | 00:00:00 | 00:00:00 | 00:00:00 | |
| DL3AQ-11 | 2026-09-01 00:35:46 | 49.63491 | 8.63187 | 205° | 9km/h | 28824m | 4.8m/s | -46.5°C | 1.0% | 14.8hPa | 2.5V | 00:00:00 | 00:00:00 | 00:00:00 | |
| DF7PN | 2026-09-01 00:35:45 | 49.63491 | 8.63187 | 205° | 9km/h | 28824m | 4.8m/s | 0°C | -1.0% | -1.0hPa | 2.5V | 00:00:00 | 00:00:00 | 00:00:00 | |
| DB0UT-9 | 2026-09-01 00:35:43 | 49.63494 | 8.63189 | 198° | 13km/h | 28820m | 4.6m/s | -46.5°C | 1.1% | 14.9hPa | 2.5V | 00:00:00 | 00:00:00 | 00:00:00 | |
| DL8DAS-15 | 2026-09-01 00:35:42 | 49.63501 | 8.63190 | 169° | 16km/h | 28810m | 6.2m/s | -46.5°C | 1.1% | 14.9hPa | 2.5V | 00:00:00 | 00:00:00 | 00:00:00 | |
| DM3KS-11 | 2026-09-01 00:35:41 | 49.63505 | 8.63187 | 155° | 18km/h | 28803m | 6.0m/s | -46.5°C | 1.0% | 14.9hPa | 2.5V | 00:00:00 | 00:00:00 | 00:00:00 | |
| DD1CC8 | 2026-09-01 00:35:40 | 49.63510 | 8.63184 | 150° | 20km/h | 28798m | 5.0m/s | -46.5°C | 1.0% | 14.9hPa | 2.5V | 00:00:00 | 00:00:00 | 00:00:00 | |
| DL4BBY-15 | 2026-09-01 00:35:39 | 49.63514 | 8.63180 | 150° | 15km/h | 28794m | 5.0m/s | -47.2°C | 0% | 0hPa | 2.5V | 00:00:00 | 00:00:00 | 00:00:00 | |
| IW2NTF | 2026-09-01 00:35:38 | 49.63527 | 8.63163 | 81° | 9km/h | 28760m | 5.7m/s | 0°C | 0% | 0hPa | 2.5V | 00:00:00 | 02:07:14 | 00:00:00 | |
| BIOWL1-15 | 2026-09-01 00:35:36 | 49.63526 | 8.63167 | 99° | 7km/h | 28766m | 6.2m/s | -46.6°C | 0.6% | 15hPa | 2.5V | 03:12:25 | 02:07:15 | 00:00:00 | |
| BIOWL9-15 | 2026-09-01 00:35:35 | 49.63526 | 8.63167 | 98° | 7km/h | 28766m | 6.2m/s | -46.6°C | 1.0% | 15.0hPa | 2.6V | 00:00:00 | 00:00:00 | 00:00:00 | |
| DO1YAY-16 | 2026-09-01 00:35:34 | 49.63526 | 8.63163 | 81° | 9km/h | 28760m | 5.7m/s | -46.6°C | 1.1% | 15.0hPa | 2.6V | 00:00:00 | 00:00:00 | 00:00:00 | |
| BIOWL1-15 | 2026-09-01 00:35:26 | 49.63574 | 8.63117 | 162° | 15km/h | 28670m | 5.6m/s | -46.7°C | 0.6% | 15.2hPa | 2.6V | 03:12:25 | 02:06:56 | 00:00:00 | |
| DL0LBS | 2026-09-01 00:35:24 | 49.63544 | 8.63151 | 161° | 26km/h | 28720m | 5.8m/s | -46.7°C | 1.1% | 15.1hPa | 2.5V | 03:12:00 | 00:00:00 | 00:00:00 | |
| DF3TZ-5 | 2026-09-01 00:35:23 | 49.63555 | 8.63140 | 135° | 26km/h | 28709m | 4.6m/s | -46.7°C | 1.0% | 15.1hPa | 2.5V | 00:00:00 | 00:00:00 | 00:00:00 | |
| DL3AQ-11 | 2026-09-01 00:35:22 | 49.63563 | 8.63126 | 124° | 18km/h | 28700m | 4.7m/s | -46.7°C | 1.0% | 15.1hPa | 2.5V | 00:00:00 | 00:00:00 | 00:00:00 | |
| IW2NTF | 2026-09-01 00:35:19 | 49.63567 | 8.63118 | 138° | 7km/h | 28689m | 5.7m/s | 0°C | 0% | 0hPa | 2.5V | 00:00:00 | 02:07:00 | 00:00:00 | |
| BIOWL1-15 | 2026-09-01 00:35:15 | 49.63593 | 8.63086 | 114° | 20km/h | 28644m | 5.5m/s | -46.8°C | 0.6% | 15.2hPa | 2.5V | 03:12:25 | 02:06:51 | 00:00:00 | |
| DJ2DS-15 | 2026-09-01 00:35:11 | 49.63590 | 8.63094 | 123° | 11km/h | 28650m | 4.8m/s | -46.7°C | 3.4% | 15.2hPa | 2.5V | 03:12:00 | 02:06:52 | 00:00:00 | |
| DM3KS-11 | 2026-09-01 00:35:10 | 49.63593 | 8.63086 | 114° | 20km/h | 28644m | 5.5m/s | -46.8°C | 1.0% | 15.2hPa | 2.5V | 00:00:00 | 00:00:00 | 00:00:00 | |
| IW2NTF | 2026-09-01 00:35:09 | 49.63596 | 8.63073 | 116° | 4km/h | 28629m | 4.7m/s | 0°C | 0% | 0hPa | 2.5V | 00:00:00 | 02:06:48 | 00:00:00 | |
| BIOWL1-15 | 2026-09-01 00:35:01 | 49.63608 | 8.63066 | 137° | 11km/h | 28599m | 4.7m/s | -46.7°C | 0.6% | 15.4hPa | 2.5V | 03:12:25 | 02:06:42 | 00:00:00 | |
| DB0UT-9 | 2026-09-01 00:35:01 | 49.63605 | 8.63069 | 154° | 13km/h | 28604m | 4.4m/s | -46.7°C | 1.1% | 15.3hPa | 2.5V | 00:00:00 | 00:00:00 | 00:00:00 | |
| IW2NTF | 2026-09-01 00:34:59 | 49.63607 | 8.63040 | 98° | 13km/h | 28566m | 5.5m/s | 0°C | 0% | 0hPa | 2.5V | 00:00:00 | 02:06:36 | 00:00:00 | |
| DL3AQ-11 | 2026-09-01 00:34:53 | 49.63611 | 8.63032 | 168° | 5km/h | 28551m | 5.5m/s | -46.9°C | 1.0% | 15.5hPa | 2.6V | 00:00:00 | 00:00:00 | 00:00:00 | |
| DF3TZ-5 | 2026-09-01 00:34:52 | 49.63611 | 8.63032 | 168° | 5km/h | 28551m | 5.5m/s | -46.9°C | 1.0% | 15.5hPa | 2.6V | 00:00:00 | 00:00:00 | 00:00:00 | |
| BIOWL1-15 | 2026-09-01 00:34:50 | 49.63615 | 8.63020 | 54° | 16km/h | 28491m | 4.8m/s | -47°C | 0.6% | 15.6hPa | 2.6V | 03:13:16 | 02:06:22 | 00:00:00 | |
| IW2NTF | 2026-09-01 00:34:48 | 49.63618 | 8.63030 | 69° | 13km/h | 28502m | 6.2m/s | 0°C | 0% | 0hPa | 2.5V | 00:00:00 | 02:06:24 | 00:00:00 | |
| DL8DAS-14 | 2026-09-01 00:34:45 | 49.63619 | 8.63034 | 91° | 9km/h | 28508m | 5.0m/s | -47.0°C | 1.1% | 15.6hPa | 2.5V | 00:00:00 | 00:00:00 | 00:00:00 | |
| DL8DAS-15 | 2026-09-01 00:34:44 | 49.63618 | 8.63038 | 123° | 7km/h | 28513m | 4.5m/s | -47.0°C | 1.1% | 15.6hPa | 2.5V | 00:00:00 | 00:00:00 | 00:00:00 | |
| BIOWL1-15 | 2026-09-01 00:34:35 | 49.63602 | 8.63014 | 89° | 9km/h | 28408m | 4.8m/s | -46.8°C | 0.6% | 15.8hPa | 2.5V | 03:13:16 | 02:06:06 | 00:00:00 | |
| DB0ND-19 | 2026-09-01 00:34:34 | 49.63617 | 8.63008 | 258° | 7km/h | 28456m | 5.7m/s | -47.0°C | 1.1% | 15.7hPa | 2.6V | 00:00:00 | 00:00:00 | 00:00:00 | |
| BIOWL9-15 | 2026-09-01 00:34:33 | 49.63615 | 8.63016 | 311° | 15km/h | 28444m | 5.6m/s | -46.9°C | 1.0% | 15.7hPa | 2.6V | 00:00:00 | 00:00:00 | 00:00:00 | |
| DJ2DS-15 | 2026-09-01 00:34:31 | 49.63612 | 8.63019 | 326° | 11km/h | 28439m | 4.6m/s | -46.9°C | 3.4% | 15.7hPa | 2.6V | 00:00:00 | 02:06:12 | 00:00:00 | |
| DK5PH-5 | 2026-09-01 00:34:29 | 49.63606 | 8.63023 | 355° | 9km/h | 28430m | 5.7m/s | -46.8°C | 3.4% | 15.7hPa | 2.6V | 00:00:00 | 02:06:10 | 00:00:00 | |
| IW2NTF | 2026-09-01 00:34:27 | 49.63601 | 8.63009 | 35° | 5km/h | 28398m | 4.9m/s | 0°C | 0% | 0hPa | 2.6V | 00:00:00 | 02:06:04 | 00:00:00 | |
| BIOWL1-15 | 2026-09-01 00:34:22 | 49.63599 | 8.63008 | 345° | 5km/h | 28393m | 4.5m/s | -46.8°C | 0.6% | 15.8hPa | 2.6V | 03:13:16 | 02:06:03 | 00:00:00 | |
| DF3TZ-5 | 2026-09-01 00:34:21 | 49.63597 | 8.63013 | 286° | 9km/h | 28384m | 5.3m/s | -46.9°C | 1.0% | 15.9hPa | 2.5V | 00:00:00 | 00:00:00 | 00:00:00 | |
| IW2NTF | 2026-09-01 00:34:17 | 49.63595 | 8.63049 | 306° | 11km/h | 28346m | 4.1m/s | 0°C | 0% | 0hPa | 2.5V | 00:00:00 | 02:05:54 | 00:00:00 | |
| BIOWL1-15 | 2026-09-01 00:34:12 | 49.63593 | 8.63051 | 322° | 7km/h | 28342m | 4.2m/s | -47.3°C | 0.7% | 16hPa | 2.5V | 03:13:16 | 02:05:53 | 00:00:00 | |
| BIOWL1-15 | 2026-09-01 00:34:01 | 49.63612 | 8.63068 | 190° | 5km/h | 28273m | 4.8m/s | -47.1°C | 0.6% | 16.2hPa | 2.6V | 03:14:07 | 02:05:40 | 00:00:00 | |
| BIOWL1-15 | 2026-09-01 00:33:49 | 49.63652 | 8.63058 | 229° | 13km/h | 28206m | 4.4m/s | -47.2°C | 0.6% | 16.3hPa | 2.6V | 03:14:07 | 02:05:27 | 00:00:00 | |
| DL3AQ-11 | 2026-09-01 00:33:46 | 49.63654 | 8.63061 | 215° | 11km/h | 28201m | 5.2m/s | -47.3°C | 1.0% | 16.4hPa | 2.5V | 00:00:00 | 00:00:00 | 00:00:00 | |
| BIOWL1-15 | 2026-09-01 00:33:37 | 49.63684 | 8.63044 | 170° | 13km/h | 28160m | 4.7m/s | -47.4°C | 0.7% | 16.4hPa | 2.5V | 03:14:07 | 02:05:18 | 00:00:00 | |
| BIOWL1-15 | 2026-09-01 00:33:26 | 49.63729 | 8.63050 | 138° | 11km/h | 28104m | 5.6m/s | -47.5°C | 0.6% | 16.6hPa | 2.5V | 03:14:07 | 02:05:07 | 00:00:00 | |
| BIOWL1-15 | 2026-09-01 00:33:16 | 49.63779 | 8.63052 | 224° | 13km/h | 28034m | 5.7m/s | -47.6°C | 0.7% | 16.8hPa | 2.5V | 03:14:58 | 02:04:53 | 00:00:00 | |
| BIOWL1-15 | 2026-09-01 00:33:05 | 49.63786 | 8.63050 | 208° | 5km/h | 27984m | 4.4m/s | -47.7°C | 0.7% | 16.9hPa | 2.5V | 03:14:58 | 02:04:43 | 00:00:00 | |
| BIOWL1-15 | 2026-09-01 00:32:51 | 49.63805 | 8.63061 | 128° | 7km/h | 27928m | 5.5m/s | -47.8°C | 0.7% | 17hPa | 2.5V | 03:14:58 | 02:04:32 | 00:00:00 | |
| DF3TZ-5 | 2026-09-01 00:32:48 | 49.63812 | 8.63053 | 169° | 5km/h | 27908m | 5.4m/s | -47.9°C | 1.1% | 17.1hPa | 2.5V | 00:00:00 | 00:00:00 | 00:00:00 | |
| BIOWL1-15 | 2026-09-01 00:32:41 | 49.63829 | 8.63060 | 195° | 15km/h | 27879m | 4m/s | -48°C | 0.7% | 17.2hPa | 2.5V | 03:14:58 | 02:04:22 | 00:00:00 | |
| DL8DAS-14 | 2026-09-01 00:32:41 | 49.63833 | 8.63061 | 205° | 11km/h | 27875m | 4.0m/s | -48.0°C | 1.1% | 17.2hPa | 2.5V | 00:00:00 | 00:00:00 | 00:00:00 | |
| DL0LBS | 2026-09-01 00:32:40 | 49.63832 | 8.63061 | 207° | 11km/h | 27875m | 4.0m/s | -48.0°C | 1.1% | 17.2hPa | 2.5V | 03:14:00 | 00:00:00 | 00:00:00 | |
| BIOWL1-15 | 2026-09-01 00:32:30 | 49.63835 | 8.63072 | 350° | 9km/h | 27776m | 5.5m/s | -48.8°C | 0.8% | 17.4hPa | 2.5V | 03:15:49 | 02:04:01 | 00:00:00 | |
| DB0ND-19 | 2026-09-01 00:32:30 | 49.63834 | 8.63063 | 172° | 9km/h | 27825m | 5.5m/s | -48.2°C | 1.1% | 17.3hPa | 2.5V | 00:00:00 | 00:00:00 | 00:00:00 | |
| BIOWL9-15 | 2026-09-01 00:32:28 | 49.63838 | 8.63065 | 228° | 7km/h | 27814m | 4.5m/s | -48.3°C | 1.1% | 17.3hPa | 2.5V | 00:00:00 | 00:00:00 | 00:00:00 | |
| DL3AQ-11 | 2026-09-01 00:32:27 | 49.63840 | 8.63071 | 263° | 2km/h | 27801m | 5.1m/s | -48.5°C | 1.1% | 17.4hPa | 2.5V | 00:00:00 | 00:00:00 | 00:00:00 | |
| KANTATE | 2026-09-01 00:32:20 | 49.63837 | 8.63072 | 359° | 5km/h | 27781m | 5.5m/s | -48.7°C | 1.1% | 17.4hPa | 2.5V | 03:15:00 | 00:00:00 | 00:00:00 | |
| DL0LBS | 2026-09-01 00:32:19 | 49.63835 | 8.63072 | 351° | 9km/h | 27776m | 5.5m/s | -48.8°C | 1.1% | 17.4hPa | 2.5V | 03:15:00 | 00:00:00 | 00:00:00 | |
| DB0UT-9 | 2026-09-01 00:32:17 | 49.63831 | 8.63072 | 15° | 9km/h | 27766m | 4.5m/s | -48.8°C | 1.1% | 17.5hPa | 2.5V | 00:00:00 | 00:00:00 | 00:00:00 | |
| DL1XH-15 | 2026-09-01 00:32:16 | 49.63817 | 8.63054 | 346° | 9km/h | 27730m | 5.2m/s | -49.1°C | 3.7% | 17.6hPa | 2.5V | 03:15:12 | 02:03:52 | 00:00:00 | |
| BIOWL1-15 | 2026-09-01 00:32:12 | 49.63813 | 8.63057 | 339° | 7km/h | 27720m | 5.2m/s | -49.1°C | 0.9% | 17.6hPa | 2.6V | 03:15:49 | 02:03:50 | 00:00:00 | |
| HEMX73-11 | 2026-09-01 00:32:12 | 49.63821 | 8.63056 | 42° | 11km/h | 27741m | 5.3m/s | -49.0°C | 1.1% | 17.5hPa | 2.5V | 03:15:00 | 00:00:00 | 00:00:00 | |
| DJ2DS-15 | 2026-09-01 00:32:11 | 49.63817 | 8.63054 | 347° | 13km/h | 27730m | 5.2m/s | -49.0°C | 3.7% | 17.5hPa | 2.5V | 00:00:00 | 02:03:52 | 00:00:00 | |
| DL8DAS-14 | 2026-09-01 00:32:10 | 49.63813 | 8.63057 | 338° | 7km/h | 27721m | 5.2m/s | -49.1°C | 1.2% | 17.6hPa | 2.6V | 00:00:00 | 00:00:00 | 00:00:00 | |
| DB0UT-7 | 2026-09-01 00:32:09 | 49.63813 | 8.63056 | 339° | 13km/h | 27721m | 5.2m/s | -49.1°C | 3.7% | 17.6hPa | 2.6V | 03:15:00 | 02:03:50 | 00:00:00 | |
| DL4BBY-15 | 2026-09-01 00:32:07 | 49.63810 | 8.63057 | 14° | 13km/h | 27710m | 4.8m/s | -50.0°C | 0% | 0hPa | 2.6V | 00:00:00 | 00:00:00 | 00:00:00 | |
| DL1XH-15 | 2026-09-01 00:32:06 | 49.63792 | 8.63054 | 10° | 16km/h | 27679m | 5.4m/s | -49.3°C | 3.8% | 17.7hPa | 2.6V | 03:15:22 | 02:03:42 | 00:00:00 | |
| BIOWL1-15 | 2026-09-01 00:32:00 | 49.63761 | 8.63076 | 16° | 7km/h | 27622m | 4.9m/s | -49.5°C | 0.8% | 17.9hPa | 2.6V | 03:15:49 | 02:03:31 | 00:00:00 | |
| DB0ND-19 | 2026-09-01 00:31:59 | 49.63785 | 8.63051 | 17° | 13km/h | 27669m | 4.5m/s | -49.3°C | 1.1% | 17.7hPa | 2.6V | 00:00:00 | 00:00:00 | 00:00:00 | |
| BIOWL9-15 | 2026-09-01 00:31:57 | 49.63778 | 8.63051 | 341° | 13km/h | 27659m | 5.2m/s | -49.3°C | 1.1% | 17.7hPa | 2.6V | 00:00:00 | 00:00:00 | 00:00:00 | |
| DL1XH-15 | 2026-09-01 00:31:56 | 49.63763 | 8.63076 | 339° | 7km/h | 27627m | 5.5m/s | -49.5°C | 3.8% | 17.8hPa | 2.6V | 03:15:32 | 02:03:32 | 00:00:00 | |
| DO1YAY-16 | 2026-09-01 00:31:56 | 49.63775 | 8.63053 | 321° | 15km/h | 27654m | 6.2m/s | -49.3°C | 1.1% | 17.8hPa | 2.5V | 00:00:00 | 00:00:00 | 00:00:00 | |
| DL8DAS-15 | 2026-09-01 00:31:54 | 49.63772 | 8.63058 | 310° | 18km/h | 27648m | 5.4m/s | -49.4°C | 1.2% | 17.8hPa | 2.5V | 00:00:00 | 00:00:00 | 00:00:00 | |
| HEMX73-11 | 2026-09-01 00:31:51 | 49.63765 | 8.63074 | 314° | 11km/h | 27633m | 5.8m/s | -49.5°C | 1.1% | 17.8hPa | 2.5V | 03:15:00 | 00:00:00 | 00:00:00 | |
| DL1XH-15 | 2026-09-01 00:31:46 | 49.63738 | 8.63083 | 267° | 7km/h | 27576m | 4.8m/s | -49.7°C | 3.8% | 18hPa | 2.5V | 03:15:42 | 02:03:22 | 00:00:00 | |
| DF3TZ-5 | 2026-09-01 00:31:45 | 49.63746 | 8.63075 | 340° | 15km/h | 27597m | 4.2m/s | -49.6°C | 1.1% | 17.9hPa | 2.5V | 00:00:00 | 00:00:00 | 00:00:00 | |
| BIOWL1-15 | 2026-09-01 00:31:43 | 49.63738 | 8.63083 | 267° | 7km/h | 27576m | 4.8m/s | -49.7°C | 0.9% | 18hPa | 2.5V | 03:15:49 | 02:03:22 | 00:00:00 | |
| DH7VM-15 | 2026-09-01 00:31:41 | 49.63738 | 8.63081 | 304° | 5km/h | 27582m | 5.4m/s | -49.7°C | 1.2% | 18.0hPa | 2.6V | 00:00:00 | 00:00:00 | 00:00:00 | |
| DB0UT-7 | 2026-09-01 00:31:39 | 49.63739 | 8.63091 | 260° | 13km/h | 27567m | 6.0m/s | -49.8°C | 3.9% | 17.9hPa | 2.6V | 00:00:00 | 00:00:00 | 00:00:00 | |
| DL0LBS | 2026-09-01 00:31:38 | 49.63739 | 8.63091 | 260° | 13km/h | 27567m | 6.0m/s | -49.8°C | 1.2% | 18.0hPa | 2.6V | 03:15:00 | 00:00:00 | 00:00:00 | |
| DL4BBY-15 | 2026-09-01 00:31:37 | 49.63740 | 8.63102 | 266° | 11km/h | 27556m | 4.5m/s | -50.6°C | 0% | 0hPa | 2.6V | 00:00:00 | 00:00:00 | 00:00:00 | |
| DL1XH-15 | 2026-09-01 00:31:35 | 49.63738 | 8.63116 | 327° | 9km/h | 27519m | 5.3m/s | -49.9°C | 3.9% | 18.1hPa | 2.6V | 03:15:53 | 02:03:11 | 00:00:00 | |
| BIOWL1-15 | 2026-09-01 00:31:30 | 49.63738 | 8.63116 | 328° | 9km/h | 27519m | 5.3m/s | -49.9°C | 1% | 18.2hPa | 2.6V | 03:16:40 | 02:03:11 | 00:00:00 | |
| DB0ND-19 | 2026-09-01 00:31:28 | 49.63734 | 8.63121 | 302° | 9km/h | 27510m | 4.4m/s | -49.9°C | 1.2% | 18.2hPa | 2.6V | 00:00:00 | 00:00:00 | 00:00:00 | |
| BIOWL9-15 | 2026-09-01 00:31:26 | 49.63733 | 8.63128 | 263° | 9km/h | 27499m | 5.7m/s | -49.9°C | 1.2% | 18.2hPa | 2.6V | 00:00:00 | 00:00:00 | 00:00:00 | |
| DL1XH-15 | 2026-09-01 00:31:25 | 49.63740 | 8.63161 | 268° | 18km/h | 27468m | 4.2m/s | -49.8°C | 3.9% | 18.3hPa | 2.6V | 03:16:03 | 02:03:01 | 00:00:00 | |
| BIOWL1-15 | 2026-09-01 00:31:23 | 49.63741 | 8.63173 | 160° | 7km/h | 27449m | 5.5m/s | -49.7°C | 0.9% | 18.4hPa | 2.5V | 03:16:40 | 02:02:57 | 00:00:00 | |
| DL3AQ-11 | 2026-09-01 00:31:22 | 49.63739 | 8.63154 | 260° | 18km/h | 27473m | 5.6m/s | -49.8°C | 1.2% | 18.3hPa | 2.5V | 00:00:00 | 00:00:00 | 00:00:00 | |
| DL0LBS | 2026-09-01 00:31:18 | 49.63739 | 8.63167 | 275° | 15km/h | 27464m | 3.9m/s | -49.8°C | 1.2% | 18.3hPa | 2.5V | 03:16:00 | 00:00:00 | 00:00:00 | |
| DL1XH-15 | 2026-09-01 00:31:15 | 49.63760 | 8.63182 | 256° | 16km/h | 27420m | 5.2m/s | -49.7°C | 3.9% | 18.4hPa | 2.5V | 03:16:13 | 02:02:51 | 00:00:00 | |
| BIOWL1-15 | 2026-09-01 00:31:10 | 49.63760 | 8.63182 | 257° | 16km/h | 27420m | 5.2m/s | -49.7°C | 0.9% | 18.4hPa | 2.5V | 03:16:40 | 02:02:51 | 00:00:00 | |
| DL8DAS-14 | 2026-09-01 00:31:08 | 49.63759 | 8.63200 | 284° | 11km/h | 27405m | 4.7m/s | -49.7°C | 1.2% | 18.5hPa | 2.6V | 00:00:00 | 00:00:00 | 00:00:00 | |
| DL4BBY-15 | 2026-09-01 00:31:07 | 49.63759 | 8.63200 | 285° | 11km/h | 27404m | 4.7m/s | -50.4°C | 0% | 0hPa | 2.6V | 00:00:00 | 00:00:00 | 00:00:00 | |
| DL3AQ-11 | 2026-09-01 00:31:06 | 49.63759 | 8.63206 | 217° | 7km/h | 27395m | 5.3m/s | -49.7°C | 1.2% | 18.5hPa | 2.6V | 00:00:00 | 00:00:00 | 00:00:00 | |
| DL1XH-15 | 2026-09-01 00:31:05 | 49.63778 | 8.63213 | 203° | 13km/h | 27371m | 5.2m/s | -49.6°C | 3.8% | 18.6hPa | 2.6V | 03:16:23 | 02:02:41 | 00:00:00 | |
| BIOWL1-15 | 2026-09-01 00:31:02 | 49.63778 | 8.63213 | 204° | 13km/h | 27371m | 5.2m/s | -49.6°C | 0.9% | 18.6hPa | 2.6V | 03:16:40 | 02:02:41 | 00:00:00 | |
| DD1CC8 | 2026-09-01 00:31:01 | 49.63778 | 8.63213 | 203° | 11km/h | 27371m | 5.2m/s | -49.6°C | 1.2% | 18.6hPa | 2.5V | 00:00:00 | 00:00:00 | 00:00:00 | |
| DB0ND-19 | 2026-09-01 00:30:57 | 49.63781 | 8.63219 | 299° | 4km/h | 27356m | 3.9m/s | -49.5°C | 1.1% | 18.6hPa | 2.5V | 00:00:00 | 00:00:00 | 00:00:00 | |
| BIOWL9-15 | 2026-09-01 00:30:55 | 49.63780 | 8.63221 | 194° | 2km/h | 27347m | 5.4m/s | -49.5°C | 1.1% | 18.6hPa | 2.5V | 00:00:00 | 00:00:00 | 00:00:00 | |
| DO1YAY-16 | 2026-09-01 00:30:54 | 49.63782 | 8.63221 | 179° | 7km/h | 27341m | 5.7m/s | -49.5°C | 1.2% | 18.7hPa | 2.5V | 00:00:00 | 00:00:00 | 00:00:00 | |
| DL3AQ-11 | 2026-09-01 00:30:53 | 49.63789 | 8.63222 | 187° | 18km/h | 27331m | 4.9m/s | -49.5°C | 1.1% | 18.7hPa | 2.5V | 00:00:00 | 00:00:00 | 00:00:00 | |
| DL1XH-15 | 2026-09-01 00:30:52 | 49.63808 | 8.63237 | 226° | 9km/h | 27306m | 3.5m/s | -49.6°C | 3.8% | 18.7hPa | 2.5V | 03:16:36 | 02:02:28 | 00:00:00 | |
| BIOWL1-15 | 2026-09-01 00:30:49 | 49.63809 | 8.63237 | 226° | 9km/h | 27306m | 3.5m/s | -49.6°C | 0.9% | 18.7hPa | 2.5V | 03:16:40 | 02:02:28 | 00:00:00 | |
| DJ2DS-15 | 2026-09-01 00:30:47 | 49.63809 | 8.63237 | 226° | 9km/h | 27307m | 3.5m/s | -49.6°C | 1.2% | 18.7hPa | 2.5V | 00:00:00 | 00:00:00 | 00:00:00 | |
| DF3TZ-5 | 2026-09-01 00:30:43 | 49.63815 | 8.63234 | 138° | 11km/h | 27287m | 4.5m/s | -49.7°C | 1.2% | 18.8hPa | 2.5V | 00:00:00 | 00:00:00 | 00:00:00 | |
| DL1XH-15 | 2026-09-01 00:30:42 | 49.63836 | 8.63237 | 196° | 20km/h | 27256m | 5.6m/s | -49.8°C | 3.9% | 18.9hPa | 2.5V | 03:16:46 | 02:02:18 | 00:00:00 | |
| BIOWL1-15 | 2026-09-01 00:30:38 | 49.63846 | 8.63239 | 178° | 18km/h | 27245m | 4.6m/s | -49.7°C | 0.9% | 18.9hPa | 2.6V | 03:17:31 | 02:02:16 | 00:00:00 | |
| DL4BBY-15 | 2026-09-01 00:30:37 | 49.63836 | 8.63236 | 197° | 13km/h | 27256m | 5.6m/s | -50.5°C | 0% | 0hPa | 2.5V | 00:00:00 | 00:00:00 | 00:00:00 | |
| DL0LBS | 2026-09-01 00:30:36 | 49.63836 | 8.63236 | 198° | 20km/h | 27256m | 5.6m/s | -49.8°C | 1.2% | 18.9hPa | 2.5V | 03:17:00 | 00:00:00 | 00:00:00 | |
| DM3KS-11 | 2026-09-01 00:30:31 | 49.63855 | 8.63232 | 96° | 5km/h | 27220m | 4.0m/s | -49.7°C | 1.2% | 19.0hPa | 2.5V | 00:00:00 | 00:00:00 | 00:00:00 | |
| KANTATE | 2026-09-01 00:30:29 | 49.63855 | 8.63232 | 97° | 5km/h | 27220m | 4.0m/s | -49.7°C | 1.2% | 19.0hPa | 2.5V | 00:00:00 | 00:00:00 | 00:00:00 | |
| DL1XH-15 | 2026-09-01 00:30:28 | 49.63863 | 8.63217 | 150° | 16km/h | 27199m | 4.9m/s | -49.7°C | 3.9% | 19hPa | 2.5V | 03:16:57 | 02:02:07 | 00:00:00 | |
| DB0UT-7 | 2026-09-01 00:30:27 | 49.63859 | 8.63221 | 137° | 13km/h | 27205m | 5.0m/s | -49.7°C | 3.9% | 19.0hPa | 2.6V | 00:00:00 | 02:02:08 | 00:00:00 | |
| DB0ND-19 | 2026-09-01 00:30:26 | 49.63863 | 8.63217 | 150° | 16km/h | 27200m | 4.9m/s | -49.7°C | 1.2% | 19.0hPa | 2.6V | 00:00:00 | 00:00:00 | 00:00:00 | |
| BIOWL1-15 | 2026-09-01 00:30:25 | 49.63909 | 8.63170 | 138° | 15km/h | 27107m | 5.4m/s | -49.5°C | 0.9% | 19.4hPa | 2.6V | 03:17:31 | 02:01:49 | 00:00:00 | |
| BIOWL9-15 | 2026-09-01 00:30:24 | 49.63871 | 8.63214 | 183° | 15km/h | 27189m | 5.6m/s | -49.7°C | 1.2% | 19.1hPa | 2.5V | 00:00:00 | 00:00:00 | 00:00:00 | |
| DO1YAY-16 | 2026-09-01 00:30:23 | 49.63875 | 8.63215 | 196° | 16km/h | 27184m | 4.6m/s | -49.7°C | 1.2% | 19.1hPa | 2.5V | 00:00:00 | 00:00:00 | 00:00:00 | |
| DH7VM-15 | 2026-09-01 00:30:20 | 49.63885 | 8.63219 | 176° | 11km/h | 27169m | 5.5m/s | -49.7°C | 1.2% | 19.2hPa | 2.5V | 00:00:00 | 00:00:00 | 00:00:00 | |
| DL1XH-15 | 2026-09-01 00:30:18 | 49.63890 | 8.63209 | 91° | 7km/h | 27148m | 5.6m/s | -49.6°C | 3.9% | 19.2hPa | 2.5V | 03:17:07 | 02:01:57 | 00:00:00 | |
| DL0LBS | 2026-09-01 00:30:18 | 49.63890 | 8.63212 | 103° | 7km/h | 27154m | 5.4m/s | -49.7°C | 1.2% | 19.2hPa | 2.5V | 03:17:00 | 00:00:00 | 00:00:00 | |
| BIOWL7-15 | 2026-09-01 00:30:16 | 49.63890 | 8.63209 | 93° | 7km/h | 27149m | 5.6m/s | -49.6°C | 1.2% | 19.2hPa | 2.5V | 00:00:00 | 00:00:00 | 00:00:00 | |
| DL3AQ-11 | 2026-09-01 00:30:13 | 49.63895 | 8.63193 | 129° | 18km/h | 27128m | 6.0m/s | -49.5°C | 1.2% | 19.3hPa | 2.5V | 00:00:00 | 00:00:00 | 00:00:00 | |
| DF3TZ-5 | 2026-09-01 00:30:12 | 49.63895 | 8.63193 | 129° | 18km/h | 27128m | 6.0m/s | -49.5°C | 1.2% | 19.3hPa | 2.5V | 00:00:00 | 00:00:00 | 00:00:00 | |
| DJ2DS-15 | 2026-09-01 00:30:11 | 49.63898 | 8.63187 | 134° | 13km/h | 27122m | 5.0m/s | -49.4°C | 3.8% | 19.3hPa | 2.5V | 00:00:00 | 02:01:52 | 00:00:00 | |
| DL1XH-15 | 2026-09-01 00:30:08 | 49.63913 | 8.63164 | 114° | 9km/h | 27097m | 4m/s | -49.5°C | 3.8% | 19.4hPa | 2.5V | 03:17:17 | 02:01:47 | 00:00:00 | |
| BIOWL1-15 | 2026-09-01 00:30:08 | 49.63911 | 8.63167 | 130° | 11km/h | 27102m | 4.5m/s | -49.5°C | 0.8% | 19.4hPa | 2.6V | 03:17:31 | 02:01:48 | 00:00:00 | |
| DL1XH-west | 2026-09-01 00:30:02 | 49.63915 | 8.63146 | 99° | 13km/h | 27077m | 4.5m/s | -49.6°C | 0.9% | 19.4hPa | 2.6V | 03:18:22 | 02:01:43 | 00:00:00 | |
| DL8DAS-15 | 2026-09-01 00:30:01 | 49.63914 | 8.63145 | 100° | 13km/h | 27078m | 4.5m/s | -49.6°C | 1.2% | 19.4hPa | 2.6V | 03:17:00 | 00:00:00 | 00:00:00 | |
| DM3KS-11 | 2026-09-01 00:30:00 | 49.63917 | 8.63135 | 141° | 4km/h | 27062m | 5.6m/s | -49.6°C | 1.2% | 19.5hPa | 2.6V | 00:00:00 | 00:00:00 | 00:00:00 | |
| DD1CC8 | 2026-09-01 00:29:59 | 49.63918 | 8.63134 | 167° | 5km/h | 27057m | 4.9m/s | -49.6°C | 1.2% | 19.5hPa | 2.6V | 00:00:00 | 00:00:00 | 00:00:00 | |
| DL1XH-15 | 2026-09-01 00:29:58 | 49.63923 | 8.63132 | 157° | 13km/h | 27046m | 5.7m/s | -49.6°C | 3.8% | 19.5hPa | 2.6V | 03:17:27 | 02:01:37 | 00:00:00 | |
| BIOWL1-15 | 2026-09-01 00:29:56 | 49.63935 | 8.63109 | 80° | 5km/h | 27006m | 5.6m/s | -49.7°C | 0.9% | 19.6hPa | 2.5V | 03:18:22 | 02:01:29 | 00:00:00 | |
| DB0ND-19 | 2026-09-01 00:29:55 | 49.63926 | 8.63130 | 147° | 15km/h | 27041m | 5.5m/s | -49.7°C | 1.2% | 19.6hPa | 2.6V | 00:00:00 | 00:00:00 | 00:00:00 | |
| BIOWL9-15 | 2026-09-01 00:29:53 | 49.63932 | 8.63122 | 131° | 15km/h | 27032m | 4.1m/s | -49.7°C | 1.2% | 19.6hPa | 2.6V | 00:00:00 | 00:00:00 | 00:00:00 | |
| DO1YAY-16 | 2026-09-01 00:29:52 | 49.63934 | 8.63117 | 124° | 11km/h | 27027m | 5.8m/s | -49.7°C | 1.2% | 19.6hPa | 2.6V | 00:00:00 | 00:00:00 | 00:00:00 | |
| DJ2DS-15 | 2026-09-01 00:29:51 | 49.63935 | 8.63114 | 107° | 7km/h | 27021m | 5.9m/s | -49.6°C | 3.9% | 19.6hPa | 2.6V | 03:17:00 | 02:01:32 | 00:00:00 | |
| DL8DAS-15 | 2026-09-01 00:29:50 | 49.63935 | 8.63114 | 107° | 7km/h | 27021m | 6.0m/s | -49.7°C | 1.2% | 19.6hPa | 2.6V | 03:18:00 | 00:00:00 | 00:00:00 | |
| DL1XH-15 | 2026-09-01 00:29:48 | 49.63935 | 8.63105 | 127° | 5km/h | 26995m | 4.8m/s | -49.6°C | 3.8% | 19.7hPa | 2.6V | 03:17:37 | 02:01:27 | 00:00:00 | |
| BIOWL1-15 | 2026-09-01 00:29:46 | 49.63935 | 8.63105 | 128° | 5km/h | 26995m | 4.9m/s | -49.7°C | 0.9% | 19.7hPa | 2.6V | 03:18:22 | 02:01:27 | 00:00:00 | |
| DL3AQ-11 | 2026-09-01 00:29:46 | 49.63936 | 8.63103 | 152° | 4km/h | 26990m | 4.9m/s | -49.6°C | 1.2% | 19.7hPa | 2.6V | 00:00:00 | 00:00:00 | 00:00:00 | |
| DF3TZ-5 | 2026-09-01 00:29:41 | 49.63942 | 8.63105 | 186° | 7km/h | 26971m | 4.0m/s | -49.6°C | 1.2% | 19.8hPa | 2.6V | 00:00:00 | 00:00:00 | 00:00:00 | |
| DL1XH-15 | 2026-09-01 00:29:37 | 49.63954 | 8.63091 | 126° | 13km/h | 26945m | 4.5m/s | -49.5°C | 3.8% | 19.8hPa | 2.6V | 03:17:47 | 02:01:17 | 00:00:00 | |
| BIOWL1-15 | 2026-09-01 00:29:36 | 49.63954 | 8.63091 | 126° | 13km/h | 26945m | 4.5m/s | -49.5°C | 0.9% | 19.8hPa | 2.6V | 03:18:22 | 02:01:17 | 00:00:00 | |
| DL1XH-west | 2026-09-01 00:29:26 | 49.63960 | 8.63068 | 111° | 9km/h | 26889m | 4.5m/s | -49.7°C | 0.9% | 20hPa | 2.6V | 03:18:22 | 02:01:06 | 00:00:00 | |
| BIOWL1-15 | 2026-09-01 00:29:26 | 49.63961 | 8.63064 | 104° | 11km/h | 26885m | 4.3m/s | -49.7°C | 0.9% | 20hPa | 2.5V | 03:18:22 | 02:01:05 | 00:00:00 | |
| DB0ND-19 | 2026-09-01 00:29:24 | 49.63961 | 8.63064 | 104° | 11km/h | 26885m | 4.3m/s | -49.7°C | 1.2% | 20.0hPa | 2.5V | 00:00:00 | 00:00:00 | 00:00:00 | |
| DL3AQ-11 | 2026-09-01 00:29:22 | 49.63964 | 8.63045 | 101° | 22km/h | 26869m | 5.1m/s | -49.7°C | 1.2% | 20.1hPa | 2.5V | 00:00:00 | 00:00:00 | 00:00:00 | |
| DO1YAY-16 | 2026-09-01 00:29:21 | 49.63964 | 8.63045 | 101° | 22km/h | 26869m | 5.1m/s | -49.7°C | 1.2% | 20.1hPa | 2.5V | 00:00:00 | 00:00:00 | 00:00:00 | |
| DL1XH-15 | 2026-09-01 00:29:17 | 49.63966 | 8.63016 | 58° | 5km/h | 26844m | 5m/s | -49.7°C | 3.8% | 20.1hPa | 2.5V | 03:18:07 | 02:00:57 | 00:00:00 | |
| BIOWL1-15 | 2026-09-01 00:29:15 | 49.63962 | 8.62986 | 97° | 22km/h | 26815m | 4.8m/s | -49.9°C | 1% | 20.2hPa | 2.6V | 03:18:22 | 02:00:51 | 00:00:00 | |
| DJTTGO | 2026-09-01 00:29:14 | 49.63965 | 8.63014 | 50° | 7km/h | 26840m | 4.3m/s | -49.7°C | 1.1% | 20.2hPa | 2.5V | 00:00:00 | 00:00:00 | 00:00:00 | |
| DJ2DS-15 | 2026-09-01 00:29:11 | 49.63962 | 8.62994 | 90° | 16km/h | 26820m | 4.3m/s | -49.9°C | 3.8% | 20.2hPa | 2.5V | 00:00:00 | 02:00:52 | 00:00:00 | |
| DF3TZ-5 | 2026-09-01 00:29:10 | 49.63962 | 8.62986 | 96° | 20km/h | 26815m | 4.8m/s | -49.9°C | 1.2% | 20.2hPa | 2.5V | 00:00:00 | 00:00:00 | 00:00:00 | |
| DL1XH-15 | 2026-09-01 00:29:07 | 49.63968 | 8.62960 | 117° | 15km/h | 26794m | 4.7m/s | -50°C | 3.9% | 20.3hPa | 2.5V | 03:18:17 | 02:00:47 | 00:00:00 | |
| BIOWL1-15 | 2026-09-01 00:29:04 | 49.63963 | 8.62915 | 41° | 13km/h | 26758m | 5.7m/s | -50°C | 1% | 20.4hPa | 2.6V | 03:19:13 | 02:00:40 | 00:00:00 | |
| DL1XH-west | 2026-09-01 00:29:03 | 49.63971 | 8.62941 | 87° | 20km/h | 26779m | 5.7m/s | -50°C | 0.9% | 20.4hPa | 2.5V | 03:18:22 | 02:00:44 | 00:00:00 | |
| DB0UT-9 | 2026-09-01 00:29:01 | 49.63970 | 8.62933 | 77° | 22km/h | 26774m | 4.7m/s | -50.0°C | 1.2% | 20.4hPa | 2.5V | 03:18:00 | 00:00:00 | 00:00:00 | |
| DM3KS-11 | 2026-09-01 00:28:58 | 49.63959 | 8.62910 | 34° | 7km/h | 26748m | 4.6m/s | -50.0°C | 1.2% | 20.4hPa | 2.5V | 00:00:00 | 00:00:00 | 00:00:00 | |
| DL1XH-15 | 2026-09-01 00:28:57 | 49.63958 | 8.62908 | 55° | 7km/h | 26743m | 5.8m/s | -50°C | 3.9% | 20.4hPa | 2.5V | 03:18:27 | 02:00:37 | 00:00:00 | |
| DL1XH-west | 2026-09-01 00:28:53 | 49.63957 | 8.62896 | 101° | 13km/h | 26728m | 4.4m/s | -49.9°C | 0.9% | 20.5hPa | 2.6V | 03:19:13 | 02:00:34 | 00:00:00 | |
| BIOWL1-15 | 2026-09-01 00:28:52 | 49.63958 | 8.62891 | 101° | 11km/h | 26722m | 5.7m/s | -49.9°C | 0.9% | 20.5hPa | 2.5V | 03:19:13 | 02:00:33 | 00:00:00 | |
| BIOWL9-15 | 2026-09-01 00:28:51 | 49.63958 | 8.62887 | 94° | 9km/h | 26717m | 5.6m/s | -49.9°C | 1.2% | 20.6hPa | 2.6V | 00:00:00 | 00:00:00 | 00:00:00 | |
| DO1YAY-16 | 2026-09-01 00:28:50 | 49.63958 | 8.62883 | 80° | 9km/h | 26712m | 4.9m/s | -49.9°C | 1.2% | 20.6hPa | 2.6V | 00:00:00 | 00:00:00 | 00:00:00 | |
| DL1XH-15 | 2026-09-01 00:28:47 | 49.63951 | 8.62860 | 55° | 22km/h | 26691m | 4.3m/s | -49.9°C | 3.8% | 20.6hPa | 2.6V | 03:18:37 | 02:00:27 | 00:00:00 | |
| DL1XH-west | 2026-09-01 00:28:43 | 49.63941 | 8.62847 | 12° | 13km/h | 26676m | 6.3m/s | -49.9°C | 0.9% | 20.7hPa | 2.5V | 03:19:13 | 02:00:24 | 00:00:00 | |
| BIOWL1-15 | 2026-09-01 00:28:41 | 49.63936 | 8.62849 | 313° | 9km/h | 26665m | 5m/s | -50°C | 0.9% | 20.7hPa | 2.5V | 03:19:13 | 02:00:22 | 00:00:00 | |
| DB0UT-9 | 2026-09-01 00:28:40 | 49.63936 | 8.62849 | 314° | 9km/h | 26665m | 5.0m/s | -50.0°C | 1.2% | 20.7hPa | 2.5V | 03:19:00 | 00:00:00 | 00:00:00 | |
| DF3TZ-5 | 2026-09-01 00:28:39 | 49.63935 | 8.62853 | 250° | 0km/h | 26656m | 5.2m/s | -50.0°C | 1.2% | 20.7hPa | 2.5V | 00:00:00 | 00:00:00 | 00:00:00 | |
| DL1XH-15 | 2026-09-01 00:28:37 | 49.63935 | 8.62843 | 86° | 16km/h | 26640m | 4.4m/s | -50°C | 3.9% | 20.8hPa | 2.5V | 03:18:47 | 02:00:17 | 00:00:00 | |
| DL1XH-west | 2026-09-01 00:28:32 | 49.63930 | 8.62824 | 22° | 9km/h | 26620m | 4.8m/s | -50°C | 0.9% | 20.9hPa | 2.6V | 03:19:13 | 02:00:13 | 00:00:00 | |
| DJ2DS-15 | 2026-09-01 00:28:31 | 49.63928 | 8.62823 | 355° | 11km/h | 26615m | 4.2m/s | -50.0°C | 3.9% | 20.8hPa | 2.6V | 03:18:00 | 02:00:12 | 00:00:00 | |
| BIOWL1-15 | 2026-09-01 00:28:31 | 49.63922 | 8.62827 | 326° | 5km/h | 26600m | 5.1m/s | -50°C | 0.9% | 20.9hPa | 2.5V | 03:19:13 | 02:00:09 | 00:00:00 | |
| DJTTGO | 2026-09-01 00:28:29 | 49.63925 | 8.62824 | 338° | 9km/h | 26611m | 4.8m/s | -50.0°C | 1.2% | 20.9hPa | 2.6V | 00:00:00 | 00:00:00 | 00:00:00 | |
| DL1XH-15 | 2026-09-01 00:28:27 | 49.63920 | 8.62830 | 301° | 5km/h | 26590m | 4.5m/s | -50°C | 3.8% | 20.9hPa | 2.6V | 03:18:57 | 02:00:07 | 00:00:00 | |
| DM3KS-11 | 2026-09-01 00:28:27 | 49.63920 | 8.62830 | 301° | 5km/h | 26590m | 4.5m/s | -50.0°C | 1.2% | 21.0hPa | 2.5V | 00:00:00 | 00:00:00 | 00:00:00 | |
| DL4BBY-15 | 2026-09-01 00:28:26 | 49.63920 | 8.62830 | 302° | 9km/h | 26590m | 4.4m/s | -50.7°C | 0% | 0hPa | 2.5V | 00:00:00 | 00:00:00 | 00:00:00 | |
| DD1CC8 | 2026-09-01 00:28:25 | 49.63920 | 8.62832 | 294° | 7km/h | 26586m | 5.1m/s | -50.1°C | 1.2% | 21.0hPa | 2.5V | 00:00:00 | 00:00:00 | 00:00:00 | |
| HEMX73-11 | 2026-09-01 00:28:24 | 49.63919 | 8.62832 | 296° | 7km/h | 26586m | 5.1m/s | -50.0°C | 1.2% | 21.0hPa | 2.5V | 03:19:00 | 00:00:00 | 00:00:00 | |
| DL1XH-15 | 2026-09-01 00:28:22 | 49.63906 | 8.62834 | 354° | 7km/h | 26539m | 5.9m/s | -50.3°C | 3.9% | 21.1hPa | 2.5V | 03:19:07 | 01:59:57 | 00:00:00 | |
| DL1XH-west | 2026-09-01 00:28:21 | 49.63915 | 8.62843 | 349° | 7km/h | 26565m | 4.9m/s | -50.2°C | 0.9% | 21hPa | 2.5V | 03:19:13 | 02:00:02 | 00:00:00 | |
| BIOWL1-15 | 2026-09-01 00:28:19 | 49.63910 | 8.62837 | 51° | 11km/h | 26548m | 4.4m/s | -50.3°C | 1% | 21.1hPa | 2.5V | 03:19:13 | 01:59:59 | 00:00:00 | |
| DL1XH-west | 2026-09-01 00:28:10 | 49.63886 | 8.62866 | 328° | 9km/h | 26497m | 5.3m/s | -50.4°C | 1% | 21.3hPa | 2.5V | 03:20:04 | 01:59:49 | 00:00:00 | |
| BIOWL1-15 | 2026-09-01 00:28:09 | 49.63885 | 8.62868 | 320° | 7km/h | 26492m | 6m/s | -50.3°C | 0.9% | 21.3hPa | 2.6V | 03:20:04 | 01:59:48 | 00:00:00 | |
| DL1XH-15 | 2026-09-01 00:28:09 | 49.63884 | 8.62869 | 314° | 5km/h | 26486m | 5.2m/s | -50.3°C | 4% | 21.3hPa | 2.6V | 03:19:17 | 01:59:47 | 00:00:00 | |
| DF3TZ-5 | 2026-09-01 00:28:08 | 49.63886 | 8.62866 | 327° | 7km/h | 26497m | 5.3m/s | -50.4°C | 1.2% | 21.3hPa | 2.6V | 00:00:00 | 00:00:00 | 00:00:00 | |
| DL8DAS-15 | 2026-09-01 00:28:07 | 49.63886 | 8.62866 | 329° | 9km/h | 26498m | 5.3m/s | -50.4°C | 1.3% | 21.3hPa | 2.6V | 00:00:00 | 00:00:00 | 00:00:00 | |
| HEMX73-11 | 2026-09-01 00:28:03 | 49.63882 | 8.62871 | 21° | 2km/h | 26476m | 5.6m/s | -50.3°C | 1.2% | 21.3hPa | 2.6V | 03:20:00 | 00:00:00 | 00:00:00 | |
| DL1ZP-14 | 2026-09-01 00:28:02 | 49.63880 | 8.62867 | 13° | 2km/h | 26460m | 4.3m/s | -50.3°C | 1.2% | 21.4hPa | 2.6V | 00:00:00 | 00:00:00 | 00:00:00 | |
| DL8DAS-14 | 2026-09-01 00:28:01 | 49.63880 | 8.62867 | 13° | 2km/h | 26460m | 4.3m/s | -50.3°C | 1.2% | 21.4hPa | 2.6V | 00:00:00 | 00:00:00 | 00:00:00 | |
| DF7PN | 2026-09-01 00:27:59 | 49.63875 | 8.62892 | 285° | 4km/h | 26423m | 5.3m/s | -50.1°C | 1.2% | 21.5hPa | 2.6V | 00:00:00 | 00:00:00 | 00:00:00 | |
| DL1XH-west | 2026-09-01 00:27:59 | 49.63879 | 8.62871 | 287° | 11km/h | 26449m | 6m/s | -50.2°C | 1% | 21.4hPa | 2.5V | 03:20:04 | 01:59:40 | 00:00:00 | |
| DB0UT-9 | 2026-09-01 00:27:58 | 49.63879 | 8.62871 | 288° | 11km/h | 26449m | 6.0m/s | -50.2°C | 1.3% | 21.4hPa | 2.6V | 03:20:00 | 00:00:00 | 00:00:00 | |
| DL8DAS-15 | 2026-09-01 00:27:57 | 49.63878 | 8.62875 | 284° | 15km/h | 26444m | 5.0m/s | -50.2°C | 1.3% | 21.4hPa | 2.6V | 00:00:00 | 00:00:00 | 00:00:00 | |
| DL1XH-15 | 2026-09-01 00:27:56 | 49.63876 | 8.62886 | 282° | 13km/h | 26433m | 5.7m/s | -50.1°C | 3.9% | 21.5hPa | 2.6V | 03:19:27 | 01:59:37 | 00:00:00 | |
| DM3KS-11 | 2026-09-01 00:27:55 | 49.63876 | 8.62890 | 284° | 7km/h | 26428m | 5.6m/s | -50.1°C | 1.2% | 21.5hPa | 2.6V | 00:00:00 | 00:00:00 | 00:00:00 | |
| DD1CC8 | 2026-09-01 00:27:54 | 49.63875 | 8.62892 | 285° | 4km/h | 26423m | 5.3m/s | -50.1°C | 1.2% | 21.5hPa | 2.6V | 00:00:00 | 00:00:00 | 00:00:00 | |
| DL0LBS | 2026-09-01 00:27:52 | 49.63875 | 8.62893 | 278° | 2km/h | 26417m | 5.5m/s | -50.1°C | 1.2% | 21.5hPa | 2.6V | 03:20:00 | 00:00:00 | 00:00:00 | |
| DL1XH-15 | 2026-09-01 00:27:51 | 49.63873 | 8.62898 | 38° | 5km/h | 26380m | 5.7m/s | -50.1°C | 3.9% | 21.7hPa | 2.6V | 03:19:37 | 01:59:27 | 00:00:00 | |
| BIOWL1-15 | 2026-09-01 00:27:50 | 49.63875 | 8.62899 | 328° | 2km/h | 26392m | 4.8m/s | -50.1°C | 1% | 21.6hPa | 2.5V | 03:20:04 | 01:59:29 | 00:00:00 | |
| DL1XH-west | 2026-09-01 00:27:49 | 49.63875 | 8.62898 | 288° | 4km/h | 26396m | 4m/s | -50.1°C | 0.9% | 21.6hPa | 2.5V | 03:20:04 | 01:59:30 | 00:00:00 | |
| DO1YAY-16 | 2026-09-01 00:27:48 | 49.63875 | 8.62899 | 328° | 2km/h | 26392m | 4.8m/s | -50.1°C | 1.2% | 21.6hPa | 2.5V | 00:00:00 | 00:00:00 | 00:00:00 | |
| DJ2DS-15 | 2026-09-01 00:27:47 | 49.63873 | 8.62898 | 38° | 5km/h | 26381m | 5.7m/s | -50.1°C | 1.2% | 21.7hPa | 2.5V | 00:00:00 | 00:00:00 | 00:00:00 | |
| DL3AQ-11 | 2026-09-01 00:27:46 | 49.63872 | 8.62897 | 29° | 5km/h | 26375m | 4.9m/s | -50.1°C | 1.2% | 21.7hPa | 2.5V | 00:00:00 | 00:00:00 | 00:00:00 | |
| HEMX73-11 | 2026-09-01 00:27:43 | 49.63869 | 8.62896 | 334° | 9km/h | 26366m | 5.4m/s | -50.1°C | 1.2% | 21.7hPa | 2.5V | 03:20:00 | 00:00:00 | 00:00:00 | |
| KANTATE | 2026-09-01 00:27:42 | 49.63869 | 8.62896 | 334° | 9km/h | 26366m | 5.4m/s | -50.1°C | 1.2% | 21.7hPa | 2.5V | 00:00:00 | 00:00:00 | 00:00:00 | |
| DL1XH-15 | 2026-09-01 00:27:38 | 49.63861 | 8.62897 | 63° | 13km/h | 26319m | 6m/s | -50.3°C | 3.9% | 21.9hPa | 2.5V | 03:19:49 | 01:59:15 | 00:00:00 | |
| DL1XH-west | 2026-09-01 00:27:38 | 49.63863 | 8.62911 | 41° | 0km/h | 26340m | 5.8m/s | -50.1°C | 0.9% | 21.8hPa | 2.6V | 03:20:04 | 01:59:19 | 00:00:00 | |
| BIOWL1-15 | 2026-09-01 00:27:37 | 49.63863 | 8.62909 | 88° | 7km/h | 26335m | 5.3m/s | -50.2°C | 1% | 21.8hPa | 2.5V | 03:20:04 | 01:59:18 | 00:00:00 | |
| DL1XH-west | 2026-09-01 00:27:28 | 49.63849 | 8.62879 | 65° | 7km/h | 26287m | 4.9m/s | -50.4°C | 1% | 22hPa | 2.5V | 03:20:04 | 01:59:09 | 00:00:00 | |
| BIOWL1-15 | 2026-09-01 00:27:27 | 49.63847 | 8.62878 | 292° | 7km/h | 26266m | 5.7m/s | -50.5°C | 1% | 22hPa | 2.6V | 03:20:04 | 01:59:05 | 00:00:00 | |
| DL4BBY-15 | 2026-09-01 00:27:26 | 49.63848 | 8.62875 | 49° | 7km/h | 26279m | 5.0m/s | -51.2°C | 0% | 0hPa | 2.6V | 00:00:00 | 00:00:00 | 00:00:00 | |
| DM3KS-11 | 2026-09-01 00:27:24 | 49.63846 | 8.62880 | 299° | 5km/h | 26262m | 4.7m/s | -50.5°C | 1.2% | 22.0hPa | 2.6V | 00:00:00 | 00:00:00 | 00:00:00 | |
| DD1CC8 | 2026-09-01 00:27:23 | 49.63846 | 8.62880 | 299° | 5km/h | 26262m | 4.7m/s | -50.5°C | 1.2% | 22.0hPa | 2.6V | 00:00:00 | 00:00:00 | 00:00:00 | |
| DK5PH-5 | 2026-09-01 00:27:22 | 49.63846 | 8.62881 | 322° | 9km/h | 26257m | 4.5m/s | -50.5°C | 4.0% | 22.0hPa | 2.6V | 00:00:00 | 01:59:03 | 00:00:00 | |
| HEMX73-11 | 2026-09-01 00:27:21 | 49.63846 | 8.62881 | 322° | 4km/h | 26257m | 4.5m/s | -50.5°C | 1.2% | 22.1hPa | 2.6V | 03:20:00 | 00:00:00 | 00:00:00 | |
| DB0ND-19 | 2026-09-01 00:27:20 | 49.63845 | 8.62875 | 87° | 11km/h | 26241m | 4.5m/s | -50.5°C | 1.2% | 22.1hPa | 2.6V | 00:00:00 | 00:00:00 | 00:00:00 | |
| DL1XH-15 | 2026-09-01 00:27:18 | 49.63839 | 8.62851 | 66° | 5km/h | 26205m | 6m/s | -50.5°C | 4% | 22.2hPa | 2.6V | 03:20:11 | 01:58:53 | 00:00:00 | |
| DL1XH-west | 2026-09-01 00:27:17 | 49.63844 | 8.62865 | 79° | 13km/h | 26231m | 5.4m/s | -50.5°C | 1% | 22.1hPa | 2.6V | 03:20:55 | 01:58:58 | 00:00:00 | |
| DB0UT-9 | 2026-09-01 00:27:16 | 49.63844 | 8.62865 | 80° | 13km/h | 26231m | 5.4m/s | -50.5°C | 1.3% | 22.1hPa | 2.6V | 03:20:00 | 00:00:00 | 00:00:00 | |
| BIOWL1-15 | 2026-09-01 00:27:14 | 49.63824 | 8.62829 | 36° | 5km/h | 26138m | 5.9m/s | -50.3°C | 0.9% | 22.5hPa | 2.6V | 03:20:55 | 01:58:40 | 00:00:00 | |
| DJ2DS-15 | 2026-09-01 00:27:11 | 49.63837 | 8.62847 | 51° | 11km/h | 26195m | 4.8m/s | -50.5°C | 4.0% | 22.2hPa | 2.5V | 03:20:00 | 01:58:51 | 00:00:00 | |
| DL1XH-15 | 2026-09-01 00:27:07 | 49.63825 | 8.62840 | 83° | 15km/h | 26153m | 4.8m/s | -50.3°C | 3.9% | 22.4hPa | 2.5V | 03:20:21 | 01:58:43 | 00:00:00 | |
| DL1XH-west | 2026-09-01 00:27:07 | 49.63833 | 8.62849 | 336° | 9km/h | 26178m | 5.1m/s | -50.5°C | 1% | 22.4hPa | 2.5V | 03:20:55 | 01:58:48 | 00:00:00 | |
| BIOWL1-15 | 2026-09-01 00:27:00 | 49.63822 | 8.62828 | 349° | 9km/h | 26132m | 5.2m/s | -50.3°C | 1% | 22.5hPa | 2.6V | 03:20:55 | 01:58:39 | 00:00:00 | |
| DL8DAS-14 | 2026-09-01 00:26:59 | 49.63824 | 8.62829 | 35° | 5km/h | 26138m | 5.9m/s | -50.3°C | 1.2% | 22.5hPa | 2.6V | 00:00:00 | 00:00:00 | 00:00:00 | |
| DL1XH-15 | 2026-09-01 00:26:56 | 49.63802 | 8.62831 | 8° | 13km/h | 26102m | 4.6m/s | -50.3°C | 3.8% | 22.6hPa | 2.6V | 03:20:31 | 01:58:33 | 00:00:00 | |
| DL1XH-west | 2026-09-01 00:26:56 | 49.63816 | 8.62831 | 344° | 15km/h | 26123m | 5m/s | -50.3°C | 0.9% | 22.5hPa | 2.5V | 03:20:55 | 01:58:37 | 00:00:00 | |
| BIOWL1-15 | 2026-09-01 00:26:50 | 49.63797 | 8.62831 | 352° | 9km/h | 26092m | 5.6m/s | -50.3°C | 0.9% | 22.6hPa | 2.5V | 03:20:55 | 01:58:31 | 00:00:00 | |
| DB0ND-19 | 2026-09-01 00:26:49 | 49.63793 | 8.62832 | 358° | 5km/h | 26082m | 4.4m/s | -50.3°C | 1.2% | 22.7hPa | 2.5V | 00:00:00 | 00:00:00 | 00:00:00 | |
| BIOWL9-15 | 2026-09-01 00:26:47 | 49.63790 | 8.62829 | 50° | 9km/h | 26072m | 6.3m/s | -50.4°C | 1.2% | 22.7hPa | 2.5V | 00:00:00 | 00:00:00 | 00:00:00 | |
| DL1XH-15 | 2026-09-01 00:26:46 | 49.63782 | 8.62813 | 41° | 11km/h | 26051m | 5.8m/s | -50.5°C | 3.9% | 22.8hPa | 2.5V | 03:20:41 | 01:58:23 | 00:00:00 | |
| DL1XH-west | 2026-09-01 00:26:45 | 49.63788 | 8.62826 | 59° | 15km/h | 26066m | 5.7m/s | -50.4°C | 0.9% | 22.7hPa | 2.6V | 03:20:55 | 01:58:26 | 00:00:00 | |
| BIOWL1-15 | 2026-09-01 00:26:39 | 49.63738 | 8.62786 | 37° | 15km/h | 25972m | 4.6m/s | -50.9°C | 1.1% | 23.1hPa | 2.5V | 03:21:46 | 01:58:08 | 00:00:00 | |
| DL1XH-15 | 2026-09-01 00:26:36 | 49.63748 | 8.62797 | 17° | 9km/h | 25993m | 4.5m/s | -50.9°C | 4% | 23hPa | 2.6V | 03:20:52 | 01:58:12 | 00:00:00 | |
| DL1XH-west | 2026-09-01 00:26:35 | 49.63760 | 8.62804 | 24° | 18km/h | 26014m | 4.8m/s | -50.7°C | 1% | 22.9hPa | 2.5V | 03:20:55 | 01:58:16 | 00:00:00 | |
| BIOWL1-15 | 2026-09-01 00:26:29 | 49.63727 | 8.62780 | 10° | 16km/h | 25956m | 4.8m/s | -50.9°C | 1.1% | 23.1hPa | 2.6V | 03:21:46 | 01:58:05 | 00:00:00 | |
| DL8DAS-14 | 2026-09-01 00:26:28 | 49.63740 | 8.62789 | 41° | 13km/h | 25977m | 4.8m/s | -50.9°C | 1.2% | 23.1hPa | 2.5V | 00:00:00 | 00:00:00 | 00:00:00 | |
| DL1XH-15 | 2026-09-01 00:26:26 | 49.63713 | 8.62773 | 24° | 22km/h | 25940m | 5.4m/s | -51°C | 4.1% | 23.2hPa | 2.5V | 03:21:02 | 01:58:02 | 00:00:00 | |
| DL1XH-west | 2026-09-01 00:26:25 | 49.63731 | 8.62781 | 15° | 15km/h | 25961m | 5.5m/s | -50.9°C | 1% | 23.1hPa | 2.6V | 03:21:46 | 01:58:06 | 00:00:00 | |
| DK5PH-5 | 2026-09-01 00:26:22 | 49.63718 | 8.62776 | 20° | 16km/h | 25946m | 6.2m/s | -50.9°C | 4.1% | 23.1hPa | 2.6V | 00:00:00 | 01:58:03 | 00:00:00 | |
| DD1CC8 | 2026-09-01 00:26:21 | 49.63713 | 8.62773 | 24° | 22km/h | 25940m | 5.4m/s | -51.0°C | 1.3% | 23.2hPa | 2.6V | 00:00:00 | 00:00:00 | 00:00:00 | |
| HEMX73-11 | 2026-09-01 00:26:19 | 49.63708 | 8.62769 | 26° | 22km/h | 25935m | 4.6m/s | -51.0°C | 1.3% | 23.2hPa | 2.6V | 03:21:00 | 00:00:00 | 00:00:00 | |
| DB0ND-19 | 2026-09-01 00:26:18 | 49.63694 | 8.62761 | 17° | 16km/h | 25918m | 5.1m/s | -50.9°C | 1.3% | 23.2hPa | 2.6V | 00:00:00 | 00:00:00 | 00:00:00 | |
| DL1XH-15 | 2026-09-01 00:26:16 | 49.63673 | 8.62742 | 19° | 15km/h | 25887m | 6.2m/s | -50.8°C | 4% | 23.4hPa | 2.6V | 03:21:12 | 01:57:52 | 00:00:00 | |
| BIOWL1-15 | 2026-09-01 00:26:14 | 49.63676 | 8.62744 | 30° | 16km/h | 25892m | 5.2m/s | -50.8°C | 1.1% | 23.4hPa | 2.6V | 03:21:46 | 01:57:53 | 00:00:00 | |
| DL1XH-west | 2026-09-01 00:26:14 | 49.63683 | 8.62752 | 38° | 16km/h | 25902m | 5.2m/s | -50.8°C | 1% | 23.3hPa | 2.5V | 03:21:46 | 01:57:55 | 00:00:00 | |
| DL1XH-west | 2026-09-01 00:26:03 | 49.63641 | 8.62727 | 8° | 16km/h | 25846m | 6m/s | -50.7°C | 1% | 23.5hPa | 2.5V | 03:21:46 | 01:57:44 | 00:00:00 | |
| DL1XH-15 | 2026-09-01 00:26:03 | 49.63633 | 8.62727 | 356° | 15km/h | 25835m | 4.5m/s | -50.7°C | 4% | 23.6hPa | 2.5V | 03:21:22 | 01:57:42 | 00:00:00 | |
| BIOWL1-15 | 2026-09-01 00:26:02 | 49.63633 | 8.62727 | 357° | 15km/h | 25835m | 4.5m/s | -50.7°C | 1.1% | 23.6hPa | 2.5V | 03:21:46 | 01:57:42 | 00:00:00 | |
| DL1XH-west | 2026-09-01 00:25:53 | 49.63607 | 8.62715 | 3° | 16km/h | 25794m | 4.5m/s | -50.8°C | 1% | 23.7hPa | 2.5V | 03:21:46 | 01:57:34 | 00:00:00 | |
| BIOWL1-15 | 2026-09-01 00:25:51 | 49.63573 | 8.62716 | 327° | 16km/h | 25748m | 4.5m/s | -50.9°C | 1% | 23.9hPa | 2.6V | 03:21:46 | 01:57:25 | 00:00:00 | |
| DD1CC8 | 2026-09-01 00:25:50 | 49.63594 | 8.62712 | 20° | 16km/h | 25778m | 5.1m/s | -50.8°C | 1.2% | 23.8hPa | 2.5V | 00:00:00 | 00:00:00 | 00:00:00 | |
| DB0ND-19 | 2026-09-01 00:25:47 | 49.63580 | 8.62710 | 334° | 15km/h | 25758m | 5.9m/s | -50.9°C | 1.2% | 23.8hPa | 2.5V | 00:00:00 | 00:00:00 | 00:00:00 | |
| DL1XH-15 | 2026-09-01 00:25:46 | 49.63563 | 8.62721 | 17° | 13km/h | 25732m | 5.3m/s | -50.9°C | 4% | 23.9hPa | 2.5V | 03:21:42 | 01:57:22 | 00:00:00 | |
| DL3AQ-11 | 2026-09-01 00:25:46 | 49.63576 | 8.62713 | 326° | 16km/h | 25753m | 5.0m/s | -50.9°C | 1.2% | 23.9hPa | 2.6V | 00:00:00 | 00:00:00 | 00:00:00 | |
| BIOWL9-15 | 2026-09-01 00:25:45 | 49.63573 | 8.62716 | 326° | 16km/h | 25748m | 4.5m/s | -50.9°C | 1.2% | 23.9hPa | 2.6V | 00:00:00 | 00:00:00 | 00:00:00 | |
| DL1XH-west | 2026-09-01 00:25:43 | 49.63569 | 8.62719 | 335° | 15km/h | 25743m | 4.8m/s | -50.9°C | 1% | 23.9hPa | 2.6V | 03:21:46 | 01:57:24 | 00:00:00 | |
| HEMX73-11 | 2026-09-01 00:25:37 | 49.63553 | 8.62713 | 23° | 15km/h | 25718m | 5.8m/s | -50.8°C | 1.2% | 24.0hPa | 2.6V | 03:21:00 | 00:00:00 | 00:00:00 | |
| DL1XH-15 | 2026-09-01 00:25:36 | 49.63533 | 8.62704 | 15° | 11km/h | 25682m | 4.8m/s | -50.7°C | 3.9% | 24.1hPa | 2.6V | 03:21:52 | 01:57:12 | 00:00:00 | |
| BIOWL1-15 | 2026-09-01 00:25:35 | 49.63543 | 8.62710 | 8° | 11km/h | 25703m | 4.5m/s | -50.7°C | 1% | 24hPa | 2.5V | 03:22:37 | 01:57:16 | 00:00:00 | |
| DL1XH-west | 2026-09-01 00:25:32 | 49.63536 | 8.62706 | 25° | 11km/h | 25687m | 4.2m/s | -50.7°C | 1% | 24.1hPa | 2.6V | 03:22:37 | 01:57:13 | 00:00:00 | |
| BIOWL1-15 | 2026-09-01 00:25:24 | 49.63472 | 8.62682 | 18° | 15km/h | 25615m | 5.5m/s | -51°C | 1% | 24.4hPa | 2.5V | 03:22:37 | 01:56:59 | 00:00:00 | |
| DL1XH-west | 2026-09-01 00:25:21 | 49.63486 | 8.62684 | 5° | 22km/h | 25630m | 4.8m/s | -50.9°C | 1% | 24.3hPa | 2.5V | 03:22:37 | 01:57:02 | 00:00:00 | |
| DK5PH-5 | 2026-09-01 00:25:20 | 49.63480 | 8.62683 | 3° | 24km/h | 25626m | 4.3m/s | -50.9°C | 4.0% | 24.3hPa | 2.5V | 00:00:00 | 01:57:01 | 00:00:00 | |
| DD1CC8 | 2026-09-01 00:25:19 | 49.63476 | 8.62683 | 6° | 16km/h | 25621m | 5.4m/s | -51.0°C | 1.2% | 24.4hPa | 2.6V | 00:00:00 | 00:00:00 | 00:00:00 | |
| AM1SDL-15 | 2026-09-01 00:25:16 | 49.63464 | 8.62676 | 30° | 24km/h | 25606m | 4.0m/s | -51.0°C | 4.1% | 24.4hPa | 2.6V | 00:00:00 | 01:56:57 | 00:00:00 | |
| DL1XH-15 | 2026-09-01 00:25:15 | 49.63433 | 8.62661 | 10° | 29km/h | 25581m | 4.5m/s | -51°C | 4.1% | 24.5hPa | 2.6V | 03:22:12 | 01:56:52 | 00:00:00 | |
| BIOWL1-15 | 2026-09-01 00:25:12 | 49.63401 | 8.62645 | 14° | 24km/h | 25550m | 5.9m/s | -51.1°C | 1.1% | 24.6hPa | 2.5V | 03:22:37 | 01:56:46 | 00:00:00 | |
| DL1XH-west | 2026-09-01 00:25:09 | 49.63421 | 8.62657 | 18° | 24km/h | 25570m | 5.8m/s | -51.1°C | 1.1% | 24.6hPa | 2.6V | 03:22:37 | 01:56:50 | 00:00:00 | |
| BIOWL1-15 | 2026-09-01 00:25:00 | 49.63368 | 8.62633 | 23° | 24km/h | 25525m | 5.5m/s | -50.9°C | 0.9% | 24.7hPa | 2.5V | 03:22:37 | 01:56:41 | 00:00:00 | |
| DL1XH-west | 2026-09-01 00:24:54 | 49.63336 | 8.62613 | 14° | 22km/h | 25495m | 3.9m/s | -51°C | 1% | 24.9hPa | 2.5V | 03:22:37 | 01:56:35 | 00:00:00 | |
| DL3AQ-11 | 2026-09-01 00:24:53 | 49.63326 | 8.62608 | 26° | 16km/h | 25485m | 6.0m/s | -51.1°C | 1.2% | 24.9hPa | 2.5V | 00:00:00 | 00:00:00 | 00:00:00 | |
| DL1XH-15 | 2026-09-01 00:24:52 | 49.63323 | 8.62605 | 32° | 15km/h | 25479m | 5m/s | -51.1°C | 3.9% | 24.9hPa | 2.5V | 03:22:32 | 01:56:32 | 00:00:00 | |
| BIOWL1-15 | 2026-09-01 00:24:51 | 49.63302 | 8.62592 | 23° | 15km/h | 25449m | 5.9m/s | -51.5°C | 1% | 25hPa | 2.5V | 03:23:28 | 01:56:26 | 00:00:00 | |
| DM3KS-11 | 2026-09-01 00:24:49 | 49.63317 | 8.62600 | 26° | 13km/h | 25470m | 5.7m/s | -51.2°C | 1.2% | 24.9hPa | 2.5V | 00:00:00 | 00:00:00 | 00:00:00 | |
| DD1CC8 | 2026-09-01 00:24:48 | 49.63314 | 8.62598 | 19° | 15km/h | 25465m | 5.5m/s | -51.3°C | 1.2% | 25.0hPa | 2.5V | 00:00:00 | 00:00:00 | 00:00:00 | |
| DH7VM-15 | 2026-09-01 00:24:47 | 49.63306 | 8.62594 | 19° | 16km/h | 25455m | 4.9m/s | -51.4°C | 1.2% | 25.0hPa | 2.5V | 03:22:00 | 00:00:00 | 00:00:00 | |
| DL1XH-15 | 2026-09-01 00:24:46 | 49.63290 | 8.62584 | 15° | 15km/h | 25428m | 5.7m/s | -51.7°C | 4.1% | 25.1hPa | 2.5V | 03:22:42 | 01:56:22 | 00:00:00 | |
| DL1XH-west | 2026-09-01 00:24:44 | 49.63299 | 8.62590 | 28° | 13km/h | 25443m | 5.2m/s | -51.5°C | 1% | 25hPa | 2.5V | 03:23:28 | 01:56:25 | 00:00:00 | |
| BIOWL9-15 | 2026-09-01 00:24:43 | 49.63294 | 8.62586 | 22° | 13km/h | 25434m | 5.2m/s | -51.6°C | 1.3% | 25.1hPa | 2.5V | 00:00:00 | 00:00:00 | 00:00:00 | |
| DL3AQ-11 | 2026-09-01 00:24:42 | 49.63290 | 8.62584 | 15° | 15km/h | 25428m | 5.7m/s | -51.7°C | 1.3% | 25.1hPa | 2.5V | 00:00:00 | 00:00:00 | 00:00:00 | |
| DO1YAY-16 | 2026-09-01 00:24:41 | 49.63290 | 8.62584 | 15° | 15km/h | 25428m | 5.7m/s | -51.7°C | 1.3% | 25.1hPa | 2.5V | 00:00:00 | 00:00:00 | 00:00:00 | |
| DL8DAS-15 | 2026-09-01 00:24:38 | 49.63283 | 8.62582 | 9° | 15km/h | 25418m | 4.1m/s | -51.7°C | 1.3% | 25.1hPa | 2.5V | 00:00:00 | 00:00:00 | 00:00:00 | |
| DL1XH-15 | 2026-09-01 00:24:36 | 49.63261 | 8.62578 | 0° | 18km/h | 25379m | 3.9m/s | -51.8°C | 4.2% | 25.3hPa | 2.5V | 03:22:52 | 01:56:12 | 00:00:00 | |
| BIOWL1-15 | 2026-09-01 00:24:34 | 49.63247 | 8.62579 | 348° | 9km/h | 25360m | 4.1m/s | -51.8°C | 1.2% | 25.4hPa | 2.5V | 03:23:28 | 01:56:08 | 00:00:00 | |
| DL1XH-west | 2026-09-01 00:24:34 | 49.63273 | 8.62579 | 5° | 9km/h | 25393m | 5.3m/s | -51.7°C | 1.1% | 25.2hPa | 2.5V | 03:23:28 | 01:56:15 | 00:00:00 | |
| DF3TZ-5 | 2026-09-01 00:24:31 | 49.63257 | 8.62578 | 1° | 16km/h | 25375m | 5.0m/s | -51.8°C | 1.3% | 25.3hPa | 2.5V | 00:00:00 | 00:00:00 | 00:00:00 | |
| DJ2DS-15 | 2026-09-01 00:24:30 | 49.63257 | 8.62578 | 2° | 13km/h | 25375m | 5.0m/s | -51.8°C | 4.2% | 25.3hPa | 2.5V | 03:22:00 | 01:56:11 | 00:00:00 | |
| DB0UT-9 | 2026-09-01 00:24:29 | 49.63257 | 8.62578 | 2° | 16km/h | 25375m | 5.0m/s | -51.8°C | 1.3% | 25.3hPa | 2.5V | 03:23:00 | 00:00:00 | 00:00:00 | |
| AM1SDL-15 | 2026-09-01 00:24:28 | 49.63250 | 8.62579 | 355° | 11km/h | 25365m | 4.8m/s | -51.8°C | 4.2% | 25.3hPa | 2.5V | 03:22:00 | 01:56:09 | 00:00:00 | |
| DL3AQ-11 | 2026-09-01 00:24:26 | 49.63242 | 8.62582 | 342° | 11km/h | 25352m | 5.0m/s | -51.9°C | 1.3% | 25.4hPa | 2.5V | 00:00:00 | 00:00:00 | 00:00:00 | |
| DL1XH-15 | 2026-09-01 00:24:24 | 49.63227 | 8.62589 | 343° | 15km/h | 25333m | 4.4m/s | -51.9°C | 4.3% | 25.5hPa | 2.5V | 03:23:02 | 01:56:02 | 00:00:00 | |
| DL1XH-west | 2026-09-01 00:24:23 | 49.63235 | 8.62585 | 342° | 18km/h | 25342m | 4.7m/s | -51.9°C | 1.2% | 25.4hPa | 2.6V | 03:23:28 | 01:56:04 | 00:00:00 | |
| BIOWL1-15 | 2026-09-01 00:24:22 | 49.63224 | 8.62591 | 345° | 11km/h | 25328m | 5.8m/s | -51.9°C | 1.2% | 25.5hPa | 2.5V | 03:23:28 | 01:56:01 | 00:00:00 | |
| DB0UT-7 | 2026-09-01 00:24:22 | 49.63231 | 8.62587 | 343° | 9km/h | 25337m | 4.2m/s | -51.9°C | 4.2% | 25.4hPa | 2.6V | 00:00:00 | 00:00:00 | 00:00:00 | |
| DF7PN | 2026-09-01 00:24:21 | 49.63227 | 8.62589 | 343° | 13km/h | 25333m | 4.4m/s | -51.9°C | 1.3% | 25.5hPa | 2.6V | 00:00:00 | 00:00:00 | 00:00:00 | |
| DM3KS-11 | 2026-09-01 00:24:18 | 49.63220 | 8.62593 | 331° | 5km/h | 25318m | 4.3m/s | -51.9°C | 1.3% | 25.5hPa | 2.6V | 00:00:00 | 00:00:00 | 00:00:00 | |
| DD1CC8 | 2026-09-01 00:24:17 | 49.63218 | 8.62594 | 323° | 9km/h | 25313m | 5.1m/s | -51.9°C | 1.3% | 25.6hPa | 2.6V | 00:00:00 | 00:00:00 | 00:00:00 | |
| AM1SDL-15 | 2026-09-01 00:24:16 | 49.63216 | 8.62597 | 319° | 11km/h | 25308m | 5.5m/s | -51.8°C | 4.2% | 25.5hPa | 2.6V | 00:00:00 | 01:55:57 | 00:00:00 | |
| HEMX73-11 | 2026-09-01 00:24:15 | 49.63216 | 8.62597 | 320° | 13km/h | 25308m | 5.6m/s | -51.9°C | 1.3% | 25.6hPa | 2.5V | 03:23:00 | 00:00:00 | 00:00:00 | |
| DL1XH-15 | 2026-09-01 00:24:14 | 49.63207 | 8.62618 | 289° | 11km/h | 25283m | 4.6m/s | -51.8°C | 4.2% | 25.7hPa | 2.5V | 03:23:12 | 01:55:52 | 00:00:00 | |
| DL1XH-west | 2026-09-01 00:24:13 | 49.63209 | 8.62610 | 301° | 15km/h | 25294m | 5.6m/s | -51.8°C | 1.1% | 25.6hPa | 2.5V | 03:23:28 | 01:55:54 | 00:00:00 | |
| BIOWL1-15 | 2026-09-01 00:24:09 | 49.63198 | 8.62636 | 298° | 5km/h | 25239m | 5.6m/s | -51.8°C | 1.1% | 25.8hPa | 2.6V | 03:23:28 | 01:55:43 | 00:00:00 | |
| DL1XH-west | 2026-09-01 00:24:03 | 49.63198 | 8.62635 | 274° | 4km/h | 25244m | 4.4m/s | -51.8°C | 1.1% | 25.8hPa | 2.6V | 03:23:28 | 01:55:44 | 00:00:00 | |
| DL1XH-15 | 2026-09-01 00:24:01 | 49.63190 | 8.62655 | 303° | 7km/h | 25209m | 4.6m/s | -51.8°C | 4.2% | 26hPa | 2.6V | 03:23:27 | 01:55:37 | 00:00:00 | |
| DF3TZ-5 | 2026-09-01 00:24:00 | 49.63193 | 8.62646 | 305° | 11km/h | 25224m | 4.5m/s | -51.8°C | 1.3% | 25.9hPa | 2.6V | 00:00:00 | 00:00:00 | 00:00:00 | |
| DL4BBY-15 | 2026-09-01 00:23:56 | 49.63190 | 8.62655 | 304° | 9km/h | 25209m | 4.5m/s | -52.5°C | 0% | 0hPa | 2.6V | 00:00:00 | 00:00:00 | 00:00:00 | |
| HEMX73-11 | 2026-09-01 00:23:55 | 49.63190 | 8.62655 | 304° | 7km/h | 25209m | 4.6m/s | -51.8°C | 1.3% | 26.0hPa | 2.6V | 03:23:00 | 00:00:00 | 00:00:00 | |
| DL1XH1-15 | 2026-09-01 00:23:53 | 49.63181 | 8.62668 | 287° | 7km/h | 25172m | 3.9m/s | -51.9°C | 4.2% | 26.1hPa | 2.6V | 03:23:35 | 01:55:29 | 00:00:00 | |
| DL1XH-west | 2026-09-01 00:23:53 | 49.63185 | 8.62660 | 340° | 9km/h | 25194m | 3.9m/s | -51.8°C | 1.1% | 26hPa | 2.5V | 03:24:19 | 01:55:34 | 00:00:00 | |
| BIOWL1-15 | 2026-09-01 00:23:52 | 49.63172 | 8.62683 | 314° | 16km/h | 25152m | 4.3m/s | -51.9°C | 1.2% | 26.2hPa | 2.5V | 03:24:19 | 01:55:25 | 00:00:00 | |
| DJ2DS-15 | 2026-09-01 00:23:50 | 49.63181 | 8.62664 | 278° | 9km/h | 25180m | 5.0m/s | -51.8°C | 4.2% | 26.0hPa | 2.5V | 00:00:00 | 01:55:31 | 00:00:00 | |
| DL1XH-15 | 2026-09-01 00:23:47 | 49.63178 | 8.62675 | 314° | 15km/h | 25162m | 5.2m/s | -51.9°C | 4.2% | 26.2hPa | 2.5V | 03:23:37 | 01:55:27 | 00:00:00 | |
| DL3AQ-11 | 2026-09-01 00:23:46 | 49.63175 | 8.62679 | 316° | 15km/h | 25157m | 4.5m/s | -51.9°C | 1.3% | 26.2hPa | 2.6V | 00:00:00 | 00:00:00 | 00:00:00 | |
| DL1XH-west | 2026-09-01 00:23:42 | 49.63168 | 8.62691 | 299° | 9km/h | 25143m | 4.6m/s | -51.9°C | 1.2% | 26.2hPa | 2.6V | 03:24:19 | 01:55:23 | 00:00:00 | |
| BIOWL1-15 | 2026-09-01 00:23:37 | 49.63163 | 8.62706 | 259° | 11km/h | 25111m | 5.5m/s | -51.7°C | 1.1% | 26.4hPa | 2.6V | 03:24:19 | 01:55:16 | 00:00:00 | |
| DJ2DS-15 | 2026-09-01 00:23:34 | 49.63164 | 8.62710 | 253° | 13km/h | 25105m | 4.6m/s | -51.7°C | 1.3% | 26.4hPa | 2.6V | 00:00:00 | 00:00:00 | 00:00:00 | |
| DL1XH1-15 | 2026-09-01 00:23:33 | 49.63163 | 8.62728 | 315° | 9km/h | 25087m | 4.8m/s | -51.6°C | 4.1% | 26.5hPa | 2.6V | 03:23:53 | 01:55:11 | 00:00:00 | |
| DL1XH-west | 2026-09-01 00:23:31 | 49.63164 | 8.62725 | 291° | 11km/h | 25092m | 5.5m/s | -51.6°C | 1.1% | 26.4hPa | 2.5V | 03:24:19 | 01:55:12 | 00:00:00 | |
| DJ2DS-15 | 2026-09-01 00:23:30 | 49.63163 | 8.62728 | 316° | 7km/h | 25087m | 4.8m/s | -51.5°C | 4.1% | 26.4hPa | 2.5V | 00:00:00 | 01:55:11 | 00:00:00 | |
| DF3TZ-5 | 2026-09-01 00:23:29 | 49.63159 | 8.62731 | 347° | 4km/h | 25078m | 5.0m/s | -51.6°C | 1.3% | 26.5hPa | 2.5V | 00:00:00 | 00:00:00 | 00:00:00 | |
| DL1XH-15 | 2026-09-01 00:23:27 | 49.63159 | 8.62731 | 142° | 4km/h | 25068m | 4.5m/s | -51.5°C | 4.1% | 26.6hPa | 2.5V | 03:23:57 | 01:55:07 | 00:00:00 | |
| BIOWL1-15 | 2026-09-01 00:23:26 | 49.63159 | 8.62731 | 143° | 4km/h | 25068m | 4.5m/s | -51.5°C | 1.1% | 26.6hPa | 2.5V | 03:24:19 | 01:55:07 | 00:00:00 | |
| DB0UT-9 | 2026-09-01 00:23:25 | 49.63159 | 8.62731 | 144° | 4km/h | 25068m | 4.5m/s | -51.5°C | 1.3% | 26.6hPa | 2.5V | 03:24:00 | 00:00:00 | 00:00:00 | |
| DL3AQ-11 | 2026-09-01 00:23:22 | 49.63165 | 8.62727 | 208° | 4km/h | 25045m | 4.1m/s | -51.5°C | 1.2% | 26.7hPa | 2.5V | 00:00:00 | 00:00:00 | 00:00:00 | |
| DL1XH-15 | 2026-09-01 00:23:21 | 49.63173 | 8.62746 | 258° | 11km/h | 25022m | 4.3m/s | -51.6°C | 4.1% | 26.7hPa | 2.5V | 03:24:07 | 01:54:57 | 00:00:00 | |
| DL1XH-west | 2026-09-01 00:23:20 | 49.63166 | 8.62728 | 228° | 9km/h | 25041m | 4.3m/s | -51.5°C | 1% | 26.7hPa | 2.5V | 03:24:19 | 01:55:01 | 00:00:00 | |
| BIOWL1-15 | 2026-09-01 00:23:15 | 49.63173 | 8.62750 | 289° | 7km/h | 25017m | 5.2m/s | -51.6°C | 1.1% | 26.8hPa | 2.5V | 03:24:19 | 01:54:56 | 00:00:00 | |
| DD1CC8 | 2026-09-01 00:23:15 | 49.63173 | 8.62750 | 288° | 7km/h | 25017m | 5.2m/s | -51.6°C | 1.3% | 26.8hPa | 2.5V | 00:00:00 | 00:00:00 | 00:00:00 | |
| DL1XH1-15 | 2026-09-01 00:23:13 | 49.63172 | 8.62732 | 138° | 11km/h | 24985m | 3.9m/s | -51.7°C | 4.2% | 26.9hPa | 2.5V | 03:24:15 | 01:54:49 | 00:00:00 | |
| BIOWL1-15 | 2026-09-01 00:23:09 | 49.63177 | 8.62733 | 200° | 5km/h | 24952m | 5.3m/s | -51.9°C | 1.2% | 27hPa | 2.5V | 03:25:10 | 01:54:42 | 00:00:00 | |
| DL1XH-west | 2026-09-01 00:23:09 | 49.63170 | 8.62736 | 127° | 13km/h | 24990m | 4.1m/s | -51.7°C | 1.1% | 26.9hPa | 2.5V | 03:24:19 | 01:54:50 | 00:00:00 | |
| DB0UT-7 | 2026-09-01 00:23:09 | 49.63169 | 8.62736 | 128° | 9km/h | 24990m | 4.1m/s | -51.7°C | 4.2% | 26.8hPa | 2.6V | 00:00:00 | 00:00:00 | 00:00:00 | |
| DO1YAY-16 | 2026-09-01 00:23:08 | 49.63172 | 8.62732 | 138° | 11km/h | 24986m | 3.9m/s | -51.7°C | 1.3% | 26.9hPa | 2.6V | 00:00:00 | 00:00:00 | 00:00:00 | |
| DL1XH-15 | 2026-09-01 00:23:07 | 49.63175 | 8.62728 | 155° | 4km/h | 24976m | 5.2m/s | -51.8°C | 4.1% | 26.9hPa | 2.6V | 03:24:17 | 01:54:47 | 00:00:00 | |
| KANTATE | 2026-09-01 00:23:05 | 49.63175 | 8.62728 | 156° | 4km/h | 24976m | 5.2m/s | -51.8°C | 1.3% | 26.9hPa | 2.6V | 00:00:00 | 00:00:00 | 00:00:00 | |
| DL0LBS | 2026-09-01 00:23:01 | 49.63176 | 8.62732 | 240° | 4km/h | 24958m | 5.1m/s | -51.8°C | 1.3% | 27.0hPa | 2.6V | 03:25:00 | 00:00:00 | 00:00:00 | |
| DL1XH1-15 | 2026-09-01 00:22:59 | 49.63181 | 8.62730 | 107° | 7km/h | 24939m | 5.3m/s | -51.9°C | 4.2% | 27.1hPa | 2.6V | 03:24:25 | 01:54:39 | 00:00:00 | |
| DL1XH-west | 2026-09-01 00:22:58 | 49.63181 | 8.62730 | 108° | 7km/h | 24939m | 5.3m/s | -51.9°C | 1.1% | 27.1hPa | 2.6V | 03:25:10 | 01:54:39 | 00:00:00 | |
| BIOWL1-15 | 2026-09-01 00:22:54 | 49.63178 | 8.62707 | 85° | 9km/h | 24914m | 4.9m/s | -51.9°C | 1.1% | 27.2hPa | 2.5V | 03:25:10 | 01:54:34 | 00:00:00 | |
| DL1XH1-15 | 2026-09-01 00:22:53 | 49.63174 | 8.62706 | 316° | 9km/h | 24889m | 4m/s | -51.9°C | 4.2% | 27.3hPa | 2.5V | 03:24:35 | 01:54:29 | 00:00:00 | |
| DL1XH-west | 2026-09-01 00:22:47 | 49.63173 | 8.62708 | 317° | 7km/h | 24885m | 5.1m/s | -51.9°C | 1.1% | 27.3hPa | 2.5V | 03:25:10 | 01:54:28 | 00:00:00 | |
| DL1XH-15 | 2026-09-01 00:22:47 | 49.63172 | 8.62709 | 340° | 4km/h | 24880m | 5m/s | -51.9°C | 4.2% | 27.3hPa | 2.5V | 03:24:37 | 01:54:27 | 00:00:00 | |
| DM3KS-11 | 2026-09-01 00:22:45 | 49.63169 | 8.62706 | 51° | 9km/h | 24871m | 4.6m/s | -51.9°C | 1.3% | 27.4hPa | 2.6V | 00:00:00 | 00:00:00 | 00:00:00 | |
| DD1CC8 | 2026-09-01 00:22:44 | 49.63169 | 8.62706 | 51° | 9km/h | 24871m | 4.6m/s | -51.9°C | 1.3% | 27.4hPa | 2.6V | 00:00:00 | 00:00:00 | 00:00:00 | |
| BIOWL1-15 | 2026-09-01 00:22:42 | 49.63159 | 8.62684 | 62° | 20km/h | 24851m | 4.7m/s | -51.8°C | 1.1% | 27.5hPa | 2.6V | 03:25:10 | 01:54:21 | 00:00:00 | |
| DL3AQ-11 | 2026-09-01 00:22:42 | 49.63162 | 8.62691 | 55° | 20km/h | 24856m | 4.0m/s | -51.9°C | 1.3% | 27.4hPa | 2.5V | 00:00:00 | 00:00:00 | 00:00:00 | |
| DL1XH-15 | 2026-09-01 00:22:41 | 49.63153 | 8.62670 | 1° | 7km/h | 24832m | 6m/s | -51.9°C | 4.1% | 27.5hPa | 2.5V | 03:24:47 | 01:54:17 | 00:00:00 | |
| AM1SDL-15 | 2026-09-01 00:22:40 | 49.63159 | 8.62684 | 62° | 9km/h | 24852m | 4.7m/s | -51.8°C | 4.1% | 27.4hPa | 2.5V | 00:00:00 | 01:54:21 | 00:00:00 | |
| DL1XH1-15 | 2026-09-01 00:22:39 | 49.63156 | 8.62673 | 66° | 11km/h | 24842m | 4.3m/s | -51.9°C | 4.2% | 27.5hPa | 2.5V | 03:24:45 | 01:54:19 | 00:00:00 | |
| DL1XH-west | 2026-09-01 00:22:36 | 49.63153 | 8.62670 | 1° | 7km/h | 24832m | 6m/s | -51.9°C | 1.1% | 27.5hPa | 2.5V | 03:25:10 | 01:54:17 | 00:00:00 | |
| BIOWL1-15 | 2026-09-01 00:22:30 | 49.63131 | 8.62649 | 47° | 2km/h | 24751m | 4.8m/s | -52.1°C | 1.1% | 27.9hPa | 2.5V | 03:25:10 | 01:54:00 | 00:00:00 | |
| DJ2DS-15 | 2026-09-01 00:22:30 | 49.63143 | 8.62683 | 345° | 11km/h | 24803m | 4.4m/s | -51.9°C | 4.1% | 27.6hPa | 2.6V | 00:00:00 | 01:54:11 | 00:00:00 | |
| DL8DAS-15 | 2026-09-01 00:22:29 | 49.63143 | 8.62683 | 0° | 0km/h | 24803m | 4.4m/s | -52.0°C | 1.3% | 27.7hPa | 2.6V | 03:25:00 | 00:00:00 | 00:00:00 | |
| DL1XH1-15 | 2026-09-01 00:22:28 | 49.63131 | 8.62659 | 63° | 11km/h | 24770m | 5.5m/s | -52.1°C | 4.2% | 27.8hPa | 2.6V | 03:25:00 | 01:54:04 | 00:00:00 | |
| DL1XH-west | 2026-09-01 00:22:26 | 49.63133 | 8.62664 | 51° | 15km/h | 24775m | 4.4m/s | -52.1°C | 1.1% | 27.8hPa | 2.5V | 03:25:10 | 01:54:05 | 00:00:00 | |
| BIOWL1-15 | 2026-09-01 00:22:20 | 49.63125 | 8.62646 | 23° | 15km/h | 24737m | 4.7m/s | -52.1°C | 1.2% | 28hPa | 2.6V | 03:25:10 | 01:53:57 | 00:00:00 | |
| DL1XH-west | 2026-09-01 00:22:15 | 49.63121 | 8.62643 | 34° | 16km/h | 24732m | 5.1m/s | -52.1°C | 1.2% | 28hPa | 2.6V | 03:25:10 | 01:53:56 | 00:00:00 | |
| BIOWL1-15 | 2026-09-01 00:22:10 | 49.63109 | 8.62622 | 37° | 11km/h | 24708m | 5.1m/s | -52.1°C | 1.1% | 28.1hPa | 2.6V | 03:26:01 | 01:53:51 | 00:00:00 | |
| DL1XH-west | 2026-09-01 00:22:05 | 49.63097 | 8.62611 | 41° | 11km/h | 24685m | 4.7m/s | -52.1°C | 1.2% | 28.2hPa | 2.5V | 03:26:52 | 01:53:46 | 00:00:00 | |
| AM1SDL-15 | 2026-09-01 00:22:04 | 49.63095 | 8.62609 | 34° | 16km/h | 24681m | 4.2m/s | -52.1°C | 4.2% | 28.2hPa | 2.6V | 00:00:00 | 01:53:45 | 00:00:00 | |
| DB0UT-9 | 2026-09-01 00:22:03 | 49.63095 | 8.62609 | 34° | 11km/h | 24681m | 4.2m/s | -52.1°C | 1.3% | 28.2hPa | 2.6V | 03:26:00 | 00:00:00 | 00:00:00 | |
| DL1XH-15 | 2026-09-01 00:22:01 | 49.63058 | 8.62600 | 26° | 18km/h | 24635m | 5.3m/s | -52.3°C | 4.3% | 0hPa | 2.6V | 03:25:28 | 01:53:36 | 00:00:00 | |
| BIOWL1-15 | 2026-09-01 00:22:00 | 49.63080 | 8.62607 | 352° | 20km/h | 24660m | 4.6m/s | -52.2°C | 1.1% | 28.3hPa | 2.6V | 03:26:01 | 01:53:41 | 00:00:00 | |
| DL1XH-west | 2026-09-01 00:21:55 | 49.63050 | 8.62594 | 22° | 18km/h | 24625m | 4.5m/s | -52.3°C | 1.2% | 28.4hPa | 2.5V | 03:26:52 | 01:53:34 | 00:00:00 | |
| BIOWL1-15 | 2026-09-01 00:21:52 | 49.63040 | 8.62586 | 39° | 13km/h | 24610m | 5.3m/s | -52.3°C | 1.2% | 28.5hPa | 2.6V | 03:26:01 | 01:53:31 | 00:00:00 | |
| HEMX73-11 | 2026-09-01 00:21:51 | 49.63046 | 8.62592 | 27° | 16km/h | 24621m | 4.2m/s | -52.3°C | 1.4% | 28.5hPa | 2.5V | 03:26:00 | 00:00:00 | 00:00:00 | |
| DJ2DS-15 | 2026-09-01 00:21:50 | 49.63040 | 8.62586 | 39° | 18km/h | 24611m | 5.2m/s | -52.2°C | 4.3% | 28.5hPa | 2.5V | 03:25:00 | 01:53:31 | 00:00:00 | |
| DJ2KF-10 | 2026-09-01 00:21:49 | 49.63037 | 8.62583 | 34° | 13km/h | 24606m | 4.3m/s | -52.3°C | 4.4% | 28.5hPa | 2.5V | 03:25:00 | 01:53:30 | 00:00:00 | |
| DL1XH-15 | 2026-09-01 00:21:48 | 49.63028 | 8.62582 | 346° | 18km/h | 24590m | 5.6m/s | -52.2°C | 4.3% | 0hPa | 2.5V | 03:25:37 | 01:53:27 | 00:00:00 | |
| DL3AQ-11 | 2026-09-01 00:21:46 | 49.63023 | 8.62584 | 345° | 22km/h | 24586m | 4.4m/s | -52.3°C | 1.3% | 28.6hPa | 2.5V | 00:00:00 | 00:00:00 | 00:00:00 | |
| DL1XH-west | 2026-09-01 00:21:43 | 49.63011 | 8.62586 | 359° | 22km/h | 24576m | 5.6m/s | -52.3°C | 1.2% | 28.7hPa | 2.5V | 03:26:52 | 01:53:24 | 00:00:00 | |
| DM3KS-11 | 2026-09-01 00:21:43 | 49.63006 | 8.62585 | 9° | 20km/h | 24571m | 4.9m/s | -52.3°C | 1.3% | 28.7hPa | 2.6V | 00:00:00 | 00:00:00 | 00:00:00 | |
| DD1CC8 | 2026-09-01 00:21:42 | 49.63001 | 8.62584 | 15° | 20km/h | 24567m | 4.3m/s | -52.3°C | 1.3% | 28.7hPa | 2.6V | 00:00:00 | 00:00:00 | 00:00:00 | |
| DL1XH-15 | 2026-09-01 00:21:41 | 49.62976 | 8.62575 | 13° | 16km/h | 24542m | 5.2m/s | -52.2°C | 4.3% | 0hPa | 2.6V | 03:25:47 | 01:53:17 | 00:00:00 | |
| BIOWL1-15 | 2026-09-01 00:21:39 | 49.62990 | 8.62579 | 13° | 20km/h | 24557m | 5.4m/s | -52.2°C | 1.1% | 28.7hPa | 2.5V | 03:26:01 | 01:53:20 | 00:00:00 | |
| DL1XH-west | 2026-09-01 00:21:33 | 49.62957 | 8.62576 | 327° | 20km/h | 24517m | 5.2m/s | -52.2°C | 1.2% | 28.9hPa | 2.6V | 03:26:52 | 01:53:12 | 00:00:00 | |
| HEMX73-11 | 2026-09-01 00:21:31 | 49.62961 | 8.62573 | 341° | 16km/h | 24523m | 5.5m/s | -52.2°C | 1.3% | 28.9hPa | 2.6V | 03:26:00 | 00:00:00 | 00:00:00 | |
| DJ2DS-15 | 2026-09-01 00:21:30 | 49.62953 | 8.62581 | 322° | 13km/h | 24513m | 3.8m/s | -52.1°C | 4.4% | 28.9hPa | 2.6V | 00:00:00 | 01:53:11 | 00:00:00 | |
| BIOWL1-15 | 2026-09-01 00:21:28 | 49.62896 | 8.62629 | 317° | 9km/h | 24398m | 5.6m/s | -51.6°C | 1% | 29.5hPa | 2.6V | 03:26:52 | 01:52:48 | 00:00:00 | |
| AM1SDL-15 | 2026-09-01 00:21:28 | 49.62945 | 8.62590 | 331° | 15km/h | 24504m | 5.6m/s | -52.1°C | 4.4% | 28.9hPa | 2.6V | 03:25:00 | 01:53:09 | 00:00:00 | |
| DL1XH-15 | 2026-09-01 00:21:27 | 49.62937 | 8.62593 | 6° | 13km/h | 24493m | 4.7m/s | 0°C | 0% | 0hPa | 2.6V | 03:25:57 | 01:53:07 | 00:00:00 | |
| DL4BBY-15 | 2026-09-01 00:21:26 | 49.62937 | 8.62592 | 7° | 11km/h | 24494m | 4.7m/s | -52.8°C | 0% | 0hPa | 2.5V | 00:00:00 | 00:00:00 | 00:00:00 | |
| DF3TZ-5 | 2026-09-01 00:21:24 | 49.62931 | 8.62590 | 14° | 13km/h | 24484m | 5.3m/s | -52.0°C | 1.3% | 29.1hPa | 2.5V | 00:00:00 | 00:00:00 | 00:00:00 | |
| DL1XH-15 | 2026-09-01 00:21:22 | 49.62907 | 8.62605 | 298° | 9km/h | 24439m | 5.5m/s | 0°C | 0% | 0hPa | 2.5V | 03:26:08 | 01:52:56 | 00:00:00 | |
| DL1XH-west | 2026-09-01 00:21:21 | 49.62910 | 8.62600 | 322° | 7km/h | 24448m | 4.8m/s | -51.9°C | 1.2% | 29.2hPa | 2.5V | 03:26:52 | 01:52:58 | 00:00:00 | |
| DL0LBS | 2026-09-01 00:21:19 | 49.62917 | 8.62594 | 333° | 15km/h | 24464m | 4.7m/s | -51.9°C | 1.3% | 29.2hPa | 2.5V | 03:26:00 | 00:00:00 | 00:00:00 | |
| BIOWL1-15 | 2026-09-01 00:21:03 | 49.62891 | 8.62648 | 267° | 13km/h | 24369m | 4.5m/s | -51.7°C | 1.1% | 29.6hPa | 2.5V | 03:26:52 | 01:52:42 | 00:00:00 | |
| DB0UT-9 | 2026-09-01 00:21:02 | 49.62891 | 8.62640 | 283° | 7km/h | 24378m | 4.8m/s | -51.6°C | 1.3% | 29.6hPa | 2.6V | 03:26:00 | 00:00:00 | 00:00:00 | |
| DL1XH-15 | 2026-09-01 00:20:59 | 49.62892 | 8.62674 | 265° | 16km/h | 24350m | 4.3m/s | 0°C | 0% | 0hPa | 2.6V | 03:26:26 | 01:52:38 | 00:00:00 | |
| BIOWL1-15 | 2026-09-01 00:20:51 | 49.62896 | 8.62692 | 252° | 11km/h | 24320m | 5m/s | -51.7°C | 1.1% | 29.8hPa | 2.6V | 03:26:52 | 01:52:32 | 00:00:00 | |
| DL1ZP-14 | 2026-09-01 00:20:47 | 49.62899 | 8.62712 | 254° | 11km/h | 24301m | 5.3m/s | -51.7°C | 1.3% | 29.9hPa | 2.5V | 00:00:00 | 00:00:00 | 00:00:00 | |
| DL8DAS-14 | 2026-09-01 00:20:46 | 49.62900 | 8.62716 | 256° | 11km/h | 24297m | 4.6m/s | -51.7°C | 1.3% | 29.9hPa | 2.5V | 00:00:00 | 00:00:00 | 00:00:00 | |
| DF7PN | 2026-09-01 00:20:44 | 49.62902 | 8.62726 | 258° | 15km/h | 24287m | 5.7m/s | -51.8°C | 1.3% | 30.0hPa | 2.5V | 00:00:00 | 00:00:00 | 00:00:00 | |
| DL1XH-west | 2026-09-01 00:20:42 | 49.62903 | 8.62740 | 256° | 18km/h | 24277m | 4m/s | -51.7°C | 1.1% | 30hPa | 2.5V | 03:26:52 | 01:52:23 | 00:00:00 | |
| BIOWL1-15 | 2026-09-01 00:20:40 | 49.62906 | 8.62751 | 242° | 11km/h | 24268m | 5.7m/s | -51.7°C | 1.2% | 30.1hPa | 2.5V | 03:26:52 | 01:52:21 | 00:00:00 | |
| BIOWL1-15 | 2026-09-01 00:20:32 | 49.62919 | 8.62772 | 264° | 7km/h | 24219m | 4.7m/s | -51.6°C | 1.1% | 30.3hPa | 2.5V | 03:27:43 | 01:52:11 | 00:00:00 | |
| DL1XH-west | 2026-09-01 00:20:31 | 49.62918 | 8.62769 | 241° | 7km/h | 24224m | 4.4m/s | -51.6°C | 1.1% | 30.3hPa | 2.6V | 03:26:52 | 01:52:12 | 00:00:00 | |
| DJ2DS-15 | 2026-09-01 00:20:30 | 49.62919 | 8.62772 | 264° | 7km/h | 24219m | 4.6m/s | -51.6°C | 4.1% | 30.3hPa | 2.6V | 03:26:00 | 01:52:11 | 00:00:00 | |
| HEMX73-11 | 2026-09-01 00:20:29 | 49.62919 | 8.62772 | 265° | 7km/h | 24219m | 4.7m/s | -51.6°C | 1.3% | 30.3hPa | 2.6V | 03:27:00 | 00:00:00 | 00:00:00 | |
| DL3AQ-11 | 2026-09-01 00:20:26 | 49.62917 | 8.62791 | 277° | 4km/h | 24194m | 5.1m/s | -51.7°C | 1.3% | 30.4hPa | 2.6V | 00:00:00 | 00:00:00 | 00:00:00 | |
| AM1SDL-15 | 2026-09-01 00:20:25 | 49.62917 | 8.62791 | 278° | 5km/h | 24194m | 5.0m/s | -51.6°C | 4.1% | 30.4hPa | 2.6V | 00:00:00 | 01:52:06 | 00:00:00 | |
| DL1XH1-15 | 2026-09-01 00:20:24 | 49.62920 | 8.62798 | 217° | 7km/h | 24165m | 4.6m/s | -51.8°C | 4.1% | 30.5hPa | 2.6V | 03:27:04 | 01:52:00 | 00:00:00 | |
| DL1XH-15 | 2026-09-01 00:20:22 | 49.62924 | 8.62800 | 184° | 7km/h | 24155m | 5.5m/s | 0°C | 0% | 0hPa | 2.6V | 03:27:06 | 01:51:58 | 00:00:00 | |
| BIOWL1-15 | 2026-09-01 00:20:22 | 49.62927 | 8.62800 | 184° | 4km/h | 24146m | 3.9m/s | -51.8°C | 1.1% | 30.6hPa | 2.5V | 03:27:43 | 01:51:56 | 00:00:00 | |
| DL1XH-west | 2026-09-01 00:20:21 | 49.62918 | 8.62794 | 229° | 5km/h | 24175m | 5m/s | -51.7°C | 1.1% | 30.5hPa | 2.5V | 03:27:43 | 01:52:02 | 00:00:00 | |
| DL1XH-west | 2026-09-01 00:20:11 | 49.62924 | 8.62809 | 318° | 13km/h | 24126m | 4m/s | -51.9°C | 1.2% | 30.7hPa | 2.5V | 03:27:43 | 01:51:52 | 00:00:00 | |
| DM3KS-11 | 2026-09-01 00:20:10 | 49.62919 | 8.62813 | 347° | 7km/h | 24117m | 5.4m/s | -51.9°C | 1.3% | 30.8hPa | 2.6V | 00:00:00 | 00:00:00 | 00:00:00 | |
| DL1XH-15 | 2026-09-01 00:20:08 | 49.62917 | 8.62812 | 81° | 4km/h | 24107m | 4.6m/s | 0°C | 0% | 0hPa | 2.6V | 03:27:16 | 01:51:48 | 00:00:00 | |
| BIOWL1-15 | 2026-09-01 00:20:07 | 49.62918 | 8.62809 | 161° | 4km/h | 24097m | 5.2m/s | -51.8°C | 1.2% | 30.9hPa | 2.5V | 03:27:43 | 01:51:46 | 00:00:00 | |
| DL8DAS-15 | 2026-09-01 00:20:07 | 49.62918 | 8.62813 | 23° | 5km/h | 24112m | 4.9m/s | -51.9°C | 1.3% | 30.8hPa | 2.5V | 00:00:00 | 00:00:00 | 00:00:00 | |
| DB0ND-19 | 2026-09-01 00:20:05 | 49.62918 | 8.62809 | 160° | 4km/h | 24097m | 5.2m/s | -51.8°C | 1.3% | 30.9hPa | 2.5V | 00:00:00 | 00:00:00 | 00:00:00 | |
| BIOWL9-15 | 2026-09-01 00:20:03 | 49.62921 | 8.62809 | 177° | 4km/h | 24089m | 3.6m/s | -51.9°C | 1.3% | 30.9hPa | 2.5V | 00:00:00 | 00:00:00 | 00:00:00 | |
| DL1XH-15 | 2026-09-01 00:20:02 | 49.62914 | 8.62812 | 330° | 18km/h | 24059m | 5.6m/s | 0°C | 0% | 0hPa | 2.5V | 03:27:26 | 01:51:38 | 00:00:00 | |
| DL1XH-west | 2026-09-01 00:20:00 | 49.62918 | 8.62809 | 336° | 15km/h | 24065m | 5.8m/s | -51.9°C | 1.2% | 31hPa | 2.5V | 03:27:43 | 01:51:39 | 00:00:00 | |
| BIOWL1-15 | 2026-09-01 00:19:57 | 49.62914 | 8.62812 | 330° | 18km/h | 24060m | 5.6m/s | -51.9°C | 1.1% | 31.1hPa | 2.5V | 03:27:43 | 01:51:38 | 00:00:00 | |
| BIOWL1-15 | 2026-09-01 00:19:47 | 49.62896 | 8.62808 | 51° | 5km/h | 24013m | 4.1m/s | -52°C | 1.1% | 31.3hPa | 2.5V | 03:27:43 | 01:51:28 | 00:00:00 | |
| DL3AQ-11 | 2026-09-01 00:19:46 | 49.62892 | 8.62804 | 23° | 13km/h | 24003m | 5.3m/s | -52.0°C | 1.3% | 31.3hPa | 2.5V | 00:00:00 | 00:00:00 | 00:00:00 | |
| DL1XH-15 | 2026-09-01 00:19:45 | 49.62868 | 8.62805 | 327° | 18km/h | 23979m | 4.8m/s | 0°C | 0% | 0hPa | 2.5V | 03:27:43 | 01:51:21 | 00:00:00 | |
| DL1ZP-14 | 2026-09-01 00:19:45 | 49.62892 | 8.62804 | 23° | 13km/h | 24003m | 5.3m/s | -52.0°C | 1.3% | 31.3hPa | 2.5V | 00:00:00 | 00:00:00 | 00:00:00 | |
| DL1XH1-15 | 2026-09-01 00:19:45 | 49.62888 | 8.62802 | 14° | 18km/h | 23998m | 4.4m/s | -52°C | 4.1% | 31.4hPa | 2.6V | 03:27:39 | 01:51:25 | 00:00:00 | |
| DK5PH-5 | 2026-09-01 00:19:44 | 49.62888 | 8.62802 | 15° | 15km/h | 23998m | 4.4m/s | -52.0°C | 4.1% | 31.3hPa | 2.6V | 00:00:00 | 01:51:25 | 00:00:00 | |
| DF7PN | 2026-09-01 00:19:42 | 49.62877 | 8.62800 | 354° | 20km/h | 23989m | 4.7m/s | -52.1°C | 1.3% | 31.4hPa | 2.6V | 00:00:00 | 00:00:00 | 00:00:00 | |
| DL1XH1-15 | 2026-09-01 00:19:39 | 49.62851 | 8.62815 | 4° | 13km/h | 23950m | 4.4m/s | -52.2°C | 4.2% | 31.6hPa | 2.6V | 03:27:49 | 01:51:15 | 00:00:00 | |
| BIOWL1-15 | 2026-09-01 00:19:38 | 49.62854 | 8.62816 | 6° | 13km/h | 23955m | 4.8m/s | -52.1°C | 1.1% | 31.6hPa | 2.5V | 03:28:34 | 01:51:16 | 00:00:00 | |
| DL1XH-west | 2026-09-01 00:19:37 | 49.62857 | 8.62816 | 356° | 11km/h | 23960m | 5.4m/s | -52.1°C | 1.1% | 31.5hPa | 2.5V | 03:28:34 | 01:51:17 | 00:00:00 | |
| DB0UT-9 | 2026-09-01 00:19:35 | 49.62857 | 8.62816 | 357° | 11km/h | 23960m | 5.4m/s | -52.1°C | 1.3% | 31.5hPa | 2.5V | 03:28:00 | 00:00:00 | 00:00:00 | |
| DB0ND-19 | 2026-09-01 00:19:34 | 49.62850 | 8.62815 | 4° | 13km/h | 23951m | 4.4m/s | -52.2°C | 1.3% | 31.6hPa | 2.5V | 00:00:00 | 00:00:00 | 00:00:00 | |
| DL3AQ-11 | 2026-09-01 00:19:33 | 49.62844 | 8.62816 | 341° | 13km/h | 23941m | 5.4m/s | -52.2°C | 1.3% | 31.6hPa | 2.5V | 00:00:00 | 00:00:00 | 00:00:00 | |
| BIOWL9-15 | 2026-09-01 00:19:32 | 49.62844 | 8.62816 | 341° | 13km/h | 23941m | 5.4m/s | -52.2°C | -1.0% | 31.6hPa | 2.5V | 00:00:00 | 00:00:00 | 00:00:00 | |
| DO1YAY-16 | 2026-09-01 00:19:31 | 49.62841 | 8.62818 | 327° | 13km/h | 23936m | 5.1m/s | -52.2°C | 1.3% | 31.7hPa | 2.5V | 00:00:00 | 00:00:00 | 00:00:00 | |
| DL1XH1-15 | 2026-09-01 00:19:28 | 49.62816 | 8.62841 | 311° | 15km/h | 23895m | 5.1m/s | -52.3°C | 4.3% | 31.9hPa | 2.5V | 03:28:00 | 01:51:04 | 00:00:00 | |
| DL1XH-west | 2026-09-01 00:19:27 | 49.62826 | 8.62831 | 340° | 16km/h | 23911m | 4.1m/s | -52.3°C | 1.1% | 31.8hPa | 2.6V | 03:28:34 | 01:51:07 | 00:00:00 | |
| BIOWL1-15 | 2026-09-01 00:19:25 | 49.62806 | 8.62853 | 336° | 11km/h | 23875m | 4.3m/s | -52.4°C | 1.1% | 32hPa | 2.6V | 03:28:34 | 01:51:00 | 00:00:00 | |
| KANTATE | 2026-09-01 00:19:23 | 49.62819 | 8.62836 | 321° | 15km/h | 23901m | 5.9m/s | -52.3°C | 1.3% | 31.8hPa | 2.5V | 00:00:00 | 00:00:00 | 00:00:00 | |
| DL1XH-15 | 2026-09-01 00:19:22 | 49.62802 | 8.62857 | 315° | 9km/h | 23866m | 5.8m/s | 0°C | 0% | 0hPa | 2.5V | 03:28:06 | 01:50:58 | 00:00:00 | |
| DL3AQ-11 | 2026-09-01 00:19:22 | 49.62811 | 8.62849 | 318° | 11km/h | 23886m | 5.4m/s | -52.3°C | 1.3% | 31.9hPa | 2.6V | 00:00:00 | 00:00:00 | 00:00:00 | |
| DF3TZ-5 | 2026-09-01 00:19:20 | 49.62809 | 8.62851 | 330° | 11km/h | 23880m | 5.4m/s | -52.4°C | 1.4% | 31.9hPa | 2.6V | 00:00:00 | 00:00:00 | 00:00:00 | |
| IW2NTF | 2026-09-01 00:19:19 | 49.62797 | 8.62870 | 304° | 15km/h | 23852m | 4.1m/s | 0°C | 0% | 0hPa | 2.6V | 00:00:00 | 01:50:55 | 00:00:00 | |
| DL1XH-west | 2026-09-01 00:19:16 | 49.62799 | 8.62865 | 299° | 15km/h | 23856m | 4.3m/s | -52.4°C | 1.2% | 32hPa | 2.6V | 03:28:34 | 01:50:56 | 00:00:00 | |
| BIOWL1-15 | 2026-09-01 00:19:15 | 49.62795 | 8.62874 | 316° | 15km/h | 23847m | 5.1m/s | -52.4°C | 1.2% | 32.1hPa | 2.6V | 03:28:34 | 01:50:54 | 00:00:00 | |
| DL1XH-west | 2026-09-01 00:19:05 | 49.62772 | 8.62905 | 269° | 5km/h | 23802m | 4.9m/s | -52.3°C | 1.2% | 32.3hPa | 2.5V | 03:28:34 | 01:50:45 | 00:00:00 | |
| BIOWL1-15 | 2026-09-01 00:19:03 | 49.62773 | 8.62964 | 244° | 13km/h | 23713m | 5.4m/s | -52.2°C | 1.2% | 32.8hPa | 2.6V | 03:29:25 | 01:50:27 | 00:00:00 | |
| DL1XH-west | 2026-09-01 00:18:55 | 49.62775 | 8.62937 | 296° | 13km/h | 23752m | 4.8m/s | -52.3°C | 1.2% | 32.6hPa | 2.5V | 03:28:34 | 01:50:35 | 00:00:00 | |
| DL1XH-15 | 2026-09-01 00:18:54 | 49.62772 | 8.62947 | 293° | 13km/h | 23744m | 4.2m/s | 0°C | 0% | 0hPa | 2.6V | 03:28:31 | 01:50:33 | 00:00:00 | |
| DL3AQ-11 | 2026-09-01 00:18:53 | 49.62772 | 8.62947 | 293° | 13km/h | 23744m | 4.2m/s | -52.2°C | 1.4% | 32.6hPa | 2.6V | 00:00:00 | 00:00:00 | 00:00:00 | |
| DJ2DS-15 | 2026-09-01 00:18:50 | 49.62770 | 8.62954 | 288° | 7km/h | 23734m | 5.3m/s | -52.2°C | 4.3% | 32.6hPa | 2.6V | 00:00:00 | 01:50:31 | 00:00:00 | |
| DL1XH1-15 | 2026-09-01 00:18:49 | 49.62773 | 8.62964 | 243° | 13km/h | 23713m | 5.4m/s | -52.2°C | 4.3% | 32.8hPa | 2.6V | 03:28:37 | 01:50:27 | 00:00:00 | |
| DJ2DS-15 | 2026-09-01 00:18:46 | 49.62774 | 8.62968 | 247° | 13km/h | 23708m | 4.3m/s | -52.2°C | 1.3% | 32.8hPa | 2.6V | 00:00:00 | 00:00:00 | 00:00:00 | |
| DL1XH-15 | 2026-09-01 00:18:45 | 49.62775 | 8.62981 | 310° | 5km/h | 23688m | 4.6m/s | 0°C | 0% | 0hPa | 2.6V | 03:28:42 | 01:50:22 | 00:00:00 | |
| DL1XH-west | 2026-09-01 00:18:45 | 49.62775 | 8.62973 | 254° | 11km/h | 23704m | 4.5m/s | -52.2°C | 1.2% | 32.8hPa | 2.5V | 03:29:25 | 01:50:25 | 00:00:00 | |
| BIOWL1-15 | 2026-09-01 00:18:40 | 49.62773 | 8.62988 | 278° | 7km/h | 23673m | 4.7m/s | -52.2°C | 1.2% | 33hPa | 2.5V | 03:29:25 | 01:50:19 | 00:00:00 | |
| DF7PN | 2026-09-01 00:18:40 | 49.62773 | 8.62985 | 292° | 5km/h | 23678m | 5.3m/s | -52.2°C | 1.4% | 33.0hPa | 2.5V | 00:00:00 | 00:00:00 | 00:00:00 | |
| DM3KS-11 | 2026-09-01 00:18:36 | 49.62773 | 8.62992 | 260° | 4km/h | 23664m | 4.8m/s | -52.1°C | 1.4% | 33.0hPa | 2.5V | 00:00:00 | 00:00:00 | 00:00:00 | |
| DL1XH1-15 | 2026-09-01 00:18:35 | 49.62773 | 8.62995 | 252° | 4km/h | 23653m | 4.5m/s | -52°C | 4.2% | 33.1hPa | 2.5V | 03:28:49 | 01:50:15 | 00:00:00 | |
| DL1XH-west | 2026-09-01 00:18:33 | 49.62773 | 8.62997 | 260° | 5km/h | 23649m | 4.3m/s | -52°C | 1.2% | 33.1hPa | 2.5V | 03:29:25 | 01:50:14 | 00:00:00 | |
| DB0UT-9 | 2026-09-01 00:18:33 | 49.62773 | 8.62995 | 254° | 4km/h | 23654m | 4.6m/s | -52.1°C | 1.4% | 33.1hPa | 2.5V | 03:29:00 | 00:00:00 | 00:00:00 | |
| BIOWL1-15 | 2026-09-01 00:18:29 | 49.62779 | 8.63025 | 204° | 5km/h | 23567m | 5.6m/s | -51.9°C | 1.1% | 33.5hPa | 2.5V | 03:29:25 | 01:49:57 | 00:00:00 | |
| DB0UT-7 | 2026-09-01 00:18:28 | 49.62771 | 8.63014 | 312° | 7km/h | 23625m | 5.6m/s | -51.9°C | 4.2% | 33.2hPa | 2.5V | 00:00:00 | 00:00:00 | 00:00:00 | |
| AM1SDL-15 | 2026-09-01 00:18:27 | 49.62770 | 8.63016 | 339° | 7km/h | 23620m | 4.7m/s | -52.0°C | 4.2% | 33.2hPa | 2.6V | 00:00:00 | 01:50:08 | 00:00:00 | |
| DL4BBY-15 | 2026-09-01 00:18:26 | 49.62768 | 8.63017 | 354° | 7km/h | 23616m | 4.3m/s | -52.7°C | 0% | 0hPa | 2.6V | 00:00:00 | 00:00:00 | 00:00:00 | |
| DL3AQ-11 | 2026-09-01 00:18:25 | 49.62767 | 8.63017 | 348° | 4km/h | 23611m | 4.6m/s | -52.0°C | 1.3% | 33.3hPa | 2.6V | 00:00:00 | 00:00:00 | 00:00:00 | |
| DL1XH1-15 | 2026-09-01 00:18:24 | 49.62775 | 8.63025 | 178° | 7km/h | 23582m | 5.4m/s | -51.9°C | 4.2% | 33.5hPa | 2.6V | 03:29:04 | 01:50:00 | 00:00:00 | |
| DL1XH-west | 2026-09-01 00:18:23 | 49.62767 | 8.63019 | 232° | 5km/h | 23600m | 5m/s | -52°C | 1.2% | 33.4hPa | 2.5V | 03:29:25 | 01:50:04 | 00:00:00 | |
| BIOWL1-15 | 2026-09-01 00:18:12 | 49.62781 | 8.63032 | 290° | 2km/h | 23548m | 5.4m/s | -52°C | 1.2% | 33.6hPa | 2.6V | 03:29:25 | 01:49:53 | 00:00:00 | |
| DL1XH-west | 2026-09-01 00:18:01 | 49.62805 | 8.63019 | 160° | 7km/h | 23496m | 5.3m/s | -52°C | 1.2% | 33.9hPa | 2.5V | 03:29:25 | 01:49:42 | 00:00:00 | |
| BIOWL1-15 | 2026-09-01 00:17:53 | 49.62810 | 8.63004 | 174° | 2km/h | 23448m | 3.9m/s | -52.1°C | 1.1% | 34.2hPa | 2.6V | 03:30:16 | 01:49:32 | 00:00:00 | |
| DL1XH-west | 2026-09-01 00:17:51 | 49.62811 | 8.63004 | 166° | 2km/h | 23444m | 4.2m/s | -52.1°C | 1.2% | 34.2hPa | 2.6V | 03:30:16 | 01:49:31 | 00:00:00 | |
| DF3TZ-5 | 2026-09-01 00:17:47 | 49.62812 | 8.63001 | 109° | 4km/h | 23431m | 4.0m/s | -52.1°C | 1.3% | 34.3hPa | 2.5V | 00:00:00 | 00:00:00 | 00:00:00 | |
| DL3AQ-11 | 2026-09-01 00:17:46 | 49.62813 | 8.62999 | 170° | 2km/h | 23421m | 5.4m/s | -52.0°C | 1.4% | 34.3hPa | 2.5V | 00:00:00 | 00:00:00 | 00:00:00 | |
| DL1XH-west | 2026-09-01 00:17:41 | 49.62812 | 8.62999 | 29° | 5km/h | 23403m | 5.2m/s | -52°C | 1.2% | 34.4hPa | 2.5V | 03:30:16 | 01:49:22 | 00:00:00 | |
| BIOWL1-15 | 2026-09-01 00:17:40 | 49.62786 | 8.63000 | 343° | 5km/h | 23347m | 5.2m/s | -51.8°C | 1.1% | 34.7hPa | 2.5V | 03:30:16 | 01:49:10 | 00:00:00 | |
| DL1XH-15 | 2026-09-01 00:17:40 | 49.62799 | 8.62998 | 327° | 11km/h | 23375m | 4.3m/s | 0°C | 0% | 0hPa | 2.5V | 03:29:48 | 01:49:16 | 00:00:00 | |
| DK7TD | 2026-09-01 00:17:33 | 49.62794 | 8.63001 | 351° | 9km/h | 23366m | 5.3m/s | 0°C | 0% | 0hPa | 2.6V | 18:12:15 | 01:49:14 | 00:00:00 | |
| DL1XH-west | 2026-09-01 00:17:31 | 49.62790 | 8.63000 | 12° | 9km/h | 23357m | 4m/s | -51.9°C | 1.1% | 34.6hPa | 2.6V | 03:30:16 | 01:49:12 | 00:00:00 | |
| BIOWL1-15 | 2026-09-01 00:17:25 | 49.62781 | 8.63006 | 340° | 9km/h | 23328m | 5.1m/s | -51.9°C | 1% | 34.8hPa | 2.6V | 03:30:16 | 01:49:06 | 00:00:00 | |
| DK7TD | 2026-09-01 00:17:21 | 49.62768 | 8.63015 | 329° | 22km/h | 23310m | 4.6m/s | 0°C | 0% | 0hPa | 2.5V | 18:12:15 | 01:49:02 | 00:00:00 | |
| DL1XH-west | 2026-09-01 00:17:20 | 49.62763 | 8.63019 | 333° | 22km/h | 23305m | 3.9m/s | -52°C | 1.1% | 34.9hPa | 2.5V | 03:30:16 | 01:49:01 | 00:00:00 | |
| BIOWL1-15 | 2026-09-01 00:17:15 | 49.62742 | 8.63034 | 314° | 15km/h | 23282m | 5.4m/s | -52.4°C | 1.2% | 35hPa | 2.5V | 03:30:16 | 01:48:56 | 00:00:00 | |
| DL1XH-west | 2026-09-01 00:17:09 | 49.62716 | 8.63078 | 324° | 31km/h | 23242m | 3.6m/s | -52.7°C | 1.3% | 35.3hPa | 2.5V | 03:31:07 | 01:48:47 | 00:00:00 | |
| BIOWL1-15 | 2026-09-01 00:17:07 | 49.62709 | 8.63084 | 329° | 29km/h | 23238m | 3.5m/s | -52.6°C | 1.3% | 35.3hPa | 2.6V | 03:31:07 | 01:48:46 | 00:00:00 | |
| DF7PN | 2026-09-01 00:17:07 | 49.62716 | 8.63078 | 324° | 29km/h | 23242m | 3.6m/s | -52.7°C | 1.4% | 35.3hPa | 2.5V | 00:00:00 | 00:00:00 | 00:00:00 | |
| DL3AQ-11 | 2026-09-01 00:17:06 | 49.62709 | 8.63084 | 328° | 29km/h | 23238m | 3.5m/s | -52.6°C | 1.4% | 35.3hPa | 2.5V | 00:00:00 | 00:00:00 | 00:00:00 | |
| DL1XH-15 | 2026-09-01 00:17:04 | 49.62690 | 8.63103 | 286° | 13km/h | 23216m | 4.7m/s | 0°C | 0% | 0hPa | 2.5V | 00:00:00 | 01:48:41 | 00:00:00 | |
| DK7TD | 2026-09-01 00:17:03 | 49.62698 | 8.63093 | 338° | 20km/h | 23230m | 4.4m/s | 0°C | 0% | 0hPa | 2.6V | 18:12:15 | 01:48:44 | 00:00:00 | |
| DL1XH-west | 2026-09-01 00:16:57 | 49.62684 | 8.63134 | 300° | 26km/h | 23199m | 4.6m/s | -52.5°C | 1.2% | 35.5hPa | 2.6V | 03:31:07 | 01:48:37 | 00:00:00 | |
| BIOWL1-15 | 2026-09-01 00:16:55 | 49.62657 | 8.63169 | 308° | 20km/h | 23173m | 5.2m/s | -52.5°C | 1.2% | 35.7hPa | 2.7V | 03:31:07 | 01:48:31 | 00:00:00 | |
| DL1XH-west | 2026-09-01 00:16:46 | 49.62651 | 8.63203 | 286° | 13km/h | 23149m | 5.6m/s | -52.4°C | 1.1% | 35.8hPa | 2.5V | 03:31:07 | 01:48:26 | 00:00:00 | |
| DF3TZ-5 | 2026-09-01 00:16:45 | 49.62651 | 8.63203 | 285° | 11km/h | 23149m | 5.6m/s | -52.4°C | 1.3% | 35.8hPa | 2.5V | 00:00:00 | 00:00:00 | 00:00:00 | |
| BIOWL1-15 | 2026-09-01 00:16:42 | 49.62644 | 8.63217 | 313° | 15km/h | 23130m | 4.8m/s | -52.4°C | 1.1% | 35.9hPa | 2.5V | 03:31:07 | 01:48:22 | 00:00:00 | |
| DL1XH-west | 2026-09-01 00:16:35 | 49.62630 | 8.63238 | 260° | 11km/h | 23097m | 5.4m/s | -52.3°C | 1.2% | 36.1hPa | 2.5V | 03:31:07 | 01:48:15 | 00:00:00 | |
| BIOWL1-15 | 2026-09-01 00:16:32 | 49.62632 | 8.63247 | 245° | 15km/h | 23088m | 3.7m/s | -52.4°C | 1.1% | 36.1hPa | 2.5V | 03:31:07 | 01:48:13 | 00:00:00 | |
| DL1XH-west | 2026-09-01 00:16:25 | 49.62619 | 8.63250 | 17° | 9km/h | 23051m | 3.5m/s | -52.5°C | 1.2% | 36.4hPa | 2.6V | 03:31:07 | 01:48:05 | 00:00:00 | |
| BIOWL1-15 | 2026-09-01 00:16:22 | 49.62618 | 8.63244 | 168° | 7km/h | 23033m | 4.7m/s | -52.5°C | 1.1% | 36.4hPa | 2.6V | 03:31:07 | 01:48:01 | 00:00:00 | |
| DL1XH-west | 2026-09-01 00:16:15 | 49.62629 | 8.63249 | 172° | 5km/h | 23008m | 5.2m/s | -52.7°C | 1.2% | 36.6hPa | 2.6V | 03:31:58 | 01:47:56 | 00:00:00 | |
| BIOWL1-15 | 2026-09-01 00:16:12 | 49.62626 | 8.63238 | 47° | 11km/h | 22984m | 4.1m/s | -52.8°C | 1.2% | 36.7hPa | 2.6V | 03:31:58 | 01:47:51 | 00:00:00 | |
| DL1XH-west | 2026-09-01 00:16:05 | 49.62627 | 8.63218 | 150° | 9km/h | 22961m | 5.5m/s | -52.9°C | 1.2% | 36.8hPa | 2.5V | 03:31:58 | 01:47:46 | 00:00:00 | |
| BIOWL1-15 | 2026-09-01 00:16:01 | 49.62636 | 8.63218 | 166° | 7km/h | 22944m | 4.6m/s | -52.9°C | 1.2% | 37hPa | 2.6V | 03:31:58 | 01:47:42 | 00:00:00 | |
| DD1CC8 | 2026-09-01 00:16:00 | 49.62637 | 8.63216 | 132° | 9km/h | 22939m | 4.8m/s | -52.9°C | 1.4% | 37.0hPa | 2.5V | 00:00:00 | 00:00:00 | 00:00:00 | |
| DL9PN | 2026-09-01 00:15:59 | 49.62639 | 8.63213 | 112° | 11km/h | 22934m | 4.6m/s | -52.9°C | 1.4% | 37.0hPa | 2.5V | 00:00:00 | 00:00:00 | 00:00:00 | |
| DB0ND-19 | 2026-09-01 00:15:57 | 49.62640 | 8.63202 | 88° | 15km/h | 22925m | 5.6m/s | -52.9°C | 1.4% | 37.0hPa | 2.5V | 00:00:00 | 00:00:00 | 00:00:00 | |
| BIOWL9-15 | 2026-09-01 00:15:55 | 49.62638 | 8.63183 | 77° | 18km/h | 22910m | 5.1m/s | -52.9°C | 1.4% | 37.1hPa | 2.5V | 00:00:00 | 00:00:00 | 00:00:00 | |
| DL1XH-15 | 2026-09-01 00:15:54 | 49.62635 | 8.63161 | 77° | 15km/h | 22896m | 4.3m/s | 0°C | 0% | 0hPa | 2.5V | 00:00:00 | 01:47:32 | 00:00:00 | |
| DL1XH-west | 2026-09-01 00:15:54 | 49.62638 | 8.63183 | 77° | 20km/h | 22910m | 5.1m/s | -52.9°C | 1.2% | 37.1hPa | 2.6V | 03:31:58 | 01:47:35 | 00:00:00 | |
| BIOWL1-15 | 2026-09-01 00:15:53 | 49.62635 | 8.63161 | 78° | 15km/h | 22896m | 4.3m/s | -52.8°C | 1.3% | 37.2hPa | 2.5V | 03:31:58 | 01:47:32 | 00:00:00 | |
| DL3AQ-11 | 2026-09-01 00:15:46 | 49.62633 | 8.63156 | 72° | 5km/h | 22868m | 4.5m/s | -52.6°C | 1.4% | 37.4hPa | 2.6V | 00:00:00 | 00:00:00 | 00:00:00 | |
| DL1XH-west | 2026-09-01 00:15:43 | 49.62631 | 8.63150 | 53° | 13km/h | 22859m | 4.8m/s | -52.5°C | 1.2% | 37.4hPa | 2.6V | 03:31:58 | 01:47:24 | 00:00:00 | |
| BIOWL1-15 | 2026-09-01 00:15:42 | 49.62621 | 8.63137 | 33° | 16km/h | 22844m | 4.5m/s | -52.5°C | 1.2% | 37.5hPa | 2.6V | 03:31:58 | 01:47:21 | 00:00:00 | |
| HEMX73-11 | 2026-09-01 00:15:41 | 49.62628 | 8.63145 | 45° | 16km/h | 22855m | 5.2m/s | -52.5°C | 1.4% | 37.5hPa | 2.6V | 03:31:00 | 00:00:00 | 00:00:00 | |
| KANTATE | 2026-09-01 00:15:40 | 49.62625 | 8.63141 | 38° | 16km/h | 22849m | 5.1m/s | -52.5°C | 1.4% | 37.5hPa | 2.6V | 00:00:00 | 00:00:00 | 00:00:00 | |
| DL1XH-15 | 2026-09-01 00:15:39 | 49.62609 | 8.63121 | 4° | 5km/h | 22816m | 5.4m/s | 0°C | 0% | 0hPa | 2.6V | 00:00:00 | 01:47:15 | 00:00:00 | |
| DL1XH-west | 2026-09-01 00:15:33 | 49.62607 | 8.63121 | 339° | 9km/h | 22811m | 5m/s | -52.3°C | 1.2% | 37.7hPa | 2.5V | 03:31:58 | 01:47:14 | 00:00:00 | |
| BIOWL1-15 | 2026-09-01 00:15:30 | 49.62598 | 8.63128 | 344° | 13km/h | 22792m | 3.9m/s | -52.4°C | 1.2% | 37.8hPa | 2.6V | 03:31:58 | 01:47:10 | 00:00:00 | |
| DL1XH-west | 2026-09-01 00:15:23 | 49.62571 | 8.63125 | 34° | 18km/h | 22763m | 5m/s | -52.5°C | 1.2% | 38hPa | 2.5V | 03:32:49 | 01:47:04 | 00:00:00 | |
| BIOWL1-15 | 2026-09-01 00:15:18 | 49.62525 | 8.63117 | 352° | 24km/h | 22710m | 4.4m/s | -52.4°C | 1.2% | 38.3hPa | 2.5V | 03:32:49 | 01:46:53 | 00:00:00 | |
| DL1XH-west | 2026-09-01 00:15:12 | 49.62519 | 8.63118 | 357° | 24km/h | 22705m | 3.9m/s | -52.4°C | 1.2% | 38.3hPa | 2.5V | 03:32:49 | 01:46:52 | 00:00:00 | |
| BIOWL1-15 | 2026-09-01 00:15:08 | 49.62484 | 8.63117 | 341° | 22km/h | 22672m | 4m/s | -52.2°C | 1.1% | 38.6hPa | 2.5V | 03:32:49 | 01:46:45 | 00:00:00 | |
| DL1XH-west | 2026-09-01 00:15:01 | 49.62468 | 8.63127 | 337° | 24km/h | 22658m | 4.3m/s | -52.2°C | 1.1% | 38.6hPa | 2.6V | 03:32:49 | 01:46:42 | 00:00:00 | |
| BIOWL1-15 | 2026-09-01 00:14:54 | 49.62405 | 8.63136 | 352° | 18km/h | 22611m | 5m/s | -52.2°C | 1.2% | 38.9hPa | 2.5V | 03:32:49 | 01:46:32 | 00:00:00 | |
| DL1XH-west | 2026-09-01 00:14:50 | 49.62400 | 8.63137 | 346° | 20km/h | 22606m | 4.4m/s | -52.2°C | 1.2% | 39hPa | 2.5V | 03:32:49 | 01:46:31 | 00:00:00 | |
| BIOWL1-15 | 2026-09-01 00:14:42 | 49.62313 | 8.63158 | 357° | 24km/h | 22531m | 4.1m/s | -52.7°C | 1.2% | 39.4hPa | 2.7V | 03:32:49 | 01:46:15 | 00:00:00 | |
| DL1XH-west | 2026-09-01 00:14:38 | 49.62334 | 8.63157 | 1° | 18km/h | 22549m | 3.9m/s | -52.6°C | 1.2% | 39.3hPa | 2.5V | 03:32:49 | 01:46:19 | 00:00:00 | |
| BIOWL1-15 | 2026-09-01 00:14:27 | 49.62269 | 8.63167 | 340° | 27km/h | 22497m | 3.6m/s | -52.8°C | 1.2% | 39.6hPa | 2.7V | 03:33:40 | 01:46:08 | 00:00:00 | |
| DL1XH-west | 2026-09-01 00:14:17 | 49.62225 | 8.63195 | 326° | 18km/h | 22452m | 3.9m/s | -52.8°C | 1.2% | 39.9hPa | 2.5V | 03:33:40 | 01:45:58 | 00:00:00 | |
| BIOWL1-15 | 2026-09-01 00:14:17 | 49.62210 | 8.63214 | 320° | 33km/h | 22438m | 4.4m/s | -52.9°C | 1.3% | 40hPa | 2.7V | 03:33:40 | 01:45:55 | 00:00:00 | |
| DL1XH-west | 2026-09-01 00:14:07 | 49.62169 | 8.63253 | 332° | 18km/h | 22406m | 4.6m/s | -53.1°C | 1.3% | 40.2hPa | 2.6V | 03:33:40 | 01:45:48 | 00:00:00 | |
| BIOWL1-15 | 2026-09-01 00:14:06 | 49.62157 | 8.63261 | 332° | 13km/h | 22388m | 3.6m/s | -53.2°C | 1.2% | 40.3hPa | 2.5V | 03:33:40 | 01:45:44 | 00:00:00 | |
| DL1XH-west | 2026-09-01 00:13:57 | 49.62127 | 8.63296 | 332° | 31km/h | 22360m | 4.9m/s | -53.4°C | 1.3% | 40.5hPa | 2.6V | 03:33:40 | 01:45:38 | 00:00:00 | |
| BIOWL1-15 | 2026-09-01 00:13:56 | 49.62120 | 8.63301 | 338° | 29km/h | 22356m | 3.9m/s | -53.4°C | 1.3% | 40.5hPa | 2.6V | 03:33:40 | 01:45:37 | 00:00:00 | |
| DL1XH-west | 2026-09-01 00:13:47 | 49.62088 | 8.63328 | 285° | 15km/h | 22315m | 5.1m/s | -53.2°C | 1.2% | 40.8hPa | 2.6V | 03:33:40 | 01:45:28 | 00:00:00 | |
| BIOWL1-15 | 2026-09-01 00:13:45 | 49.62085 | 8.63344 | 295° | 26km/h | 22306m | 3.6m/s | -53.2°C | 1.3% | 40.8hPa | 2.6V | 03:33:40 | 01:45:26 | 00:00:00 | |
| BIOWL1-15 | 2026-09-01 00:13:38 | 49.62061 | 8.63432 | 293° | 18km/h | 22249m | 4.2m/s | -53.2°C | 1.3% | 41.2hPa | 2.5V | 03:34:31 | 01:45:13 | 00:00:00 | |
| DL1XH-west | 2026-09-01 00:13:36 | 49.62068 | 8.63412 | 290° | 18km/h | 22262m | 5.5m/s | -53.1°C | 1.3% | 41.1hPa | 2.6V | 03:34:31 | 01:45:16 | 00:00:00 | |
| DL1XH-west | 2026-09-01 00:13:24 | 49.62059 | 8.63503 | 276° | 24km/h | 22214m | 4.3m/s | -53.2°C | 1.3% | 41.4hPa | 2.6V | 03:34:31 | 01:45:05 | 00:00:00 | |
| BIOWL1-15 | 2026-09-01 00:13:22 | 49.62059 | 8.63520 | 266° | 20km/h | 22204m | 4.4m/s | -53.2°C | 1.2% | 41.5hPa | 2.5V | 03:34:31 | 01:45:03 | 00:00:00 | |
| DL1XH-west | 2026-09-01 00:13:13 | 49.62055 | 8.63568 | 262° | 9km/h | 22163m | 4m/s | -52.9°C | 1.3% | 41.7hPa | 2.6V | 03:34:31 | 01:44:54 | 00:00:00 | |
| BIOWL1-15 | 2026-09-01 00:13:12 | 49.62053 | 8.63580 | 295° | 11km/h | 22149m | 4m/s | -52.9°C | 1.2% | 41.8hPa | 2.6V | 03:34:31 | 01:44:51 | 00:00:00 | |
| DL1XH-west | 2026-09-01 00:13:02 | 49.62047 | 8.63600 | 277° | 11km/h | 22113m | 3.5m/s | -52.7°C | 1.2% | 42.1hPa | 2.5V | 03:34:31 | 01:44:43 | 00:00:00 | |
| DL8DAS-14 | 2026-09-01 00:13:01 | 49.62047 | 8.63608 | 251° | 7km/h | 22103m | 4.9m/s | -52.7°C | 1.3% | 42.1hPa | 2.7V | 00:00:00 | 00:00:00 | 00:00:00 | |
| DL1XH1-15 | 2026-09-01 00:12:59 | 49.62045 | 8.63621 | 46° | 9km/h | 22071m | 4.8m/s | -52.6°C | 4.2% | 42.3hPa | 2.7V | 03:34:30 | 01:44:34 | 00:00:00 | |
| DL1XH-west | 2026-09-01 00:12:52 | 49.62043 | 8.63618 | 50° | 11km/h | 22067m | 3.9m/s | -52.6°C | 1.1% | 42.4hPa | 2.6V | 03:34:31 | 01:44:33 | 00:00:00 | |
| BIOWL1-15 | 2026-09-01 00:12:51 | 49.62036 | 8.63613 | 316° | 5km/h | 22051m | 3.6m/s | -52.8°C | 1.2% | 42.5hPa | 2.7V | 03:35:22 | 01:44:29 | 00:00:00 | |
| DB0ND-19 | 2026-09-01 00:12:51 | 49.62039 | 8.63612 | 27° | 7km/h | 22059m | 4.9m/s | -52.7°C | 1.3% | 42.4hPa | 2.5V | 00:00:00 | 00:00:00 | 00:00:00 | |
| BIOWL9-15 | 2026-09-01 00:12:48 | 49.62036 | 8.63613 | 315° | 4km/h | 22051m | 3.6m/s | -52.8°C | 1.4% | 42.5hPa | 2.5V | 00:00:00 | 00:00:00 | 00:00:00 | |
| DO1YAY-16 | 2026-09-01 00:12:47 | 49.62036 | 8.63614 | 287° | 4km/h | 22047m | 4.6m/s | -52.9°C | 1.4% | 42.5hPa | 2.5V | 00:00:00 | 00:00:00 | 00:00:00 | |
| DJ2DS-15 | 2026-09-01 00:12:45 | 49.62035 | 8.63618 | 335° | 2km/h | 22034m | 3.6m/s | -53.0°C | 1.4% | 42.6hPa | 2.5V | 00:00:00 | 00:00:00 | 00:00:00 | |
| DL1XH1-15 | 2026-09-01 00:12:42 | 49.62025 | 8.63619 | 7° | 15km/h | 22016m | 4.1m/s | -53°C | 4.3% | 42.7hPa | 2.5V | 03:34:43 | 01:44:21 | 00:00:00 | |
| BIOWL1-15 | 2026-09-01 00:12:42 | 49.62025 | 8.63619 | 8° | 15km/h | 22016m | 4.1m/s | -53°C | 1.2% | 42.7hPa | 2.5V | 03:35:22 | 01:44:21 | 00:00:00 | |
| DL1XH-west | 2026-09-01 00:12:41 | 49.62028 | 8.63619 | 0° | 13km/h | 22021m | 4.8m/s | -53°C | 1.2% | 42.7hPa | 2.5V | 03:35:22 | 01:44:22 | 00:00:00 | |
| DL1XH-west | 2026-09-01 00:12:31 | 49.62000 | 8.63583 | 60° | 15km/h | 21976m | 4.7m/s | -53.3°C | 1.3% | 43hPa | 2.6V | 03:35:22 | 01:44:12 | 00:00:00 | |
| BIOWL1-15 | 2026-09-01 00:12:29 | 49.61996 | 8.63574 | 48° | 13km/h | 21968m | 3.6m/s | -53.4°C | 1.2% | 43hPa | 2.5V | 03:35:22 | 01:44:10 | 00:00:00 | |
| DL8DAS-15 | 2026-09-01 00:12:28 | 49.61996 | 8.63574 | 49° | 13km/h | 21969m | 3.6m/s | -53.4°C | 1.4% | 43.0hPa | 2.5V | 00:00:00 | 00:00:00 | 00:00:00 | |
| DF7PN | 2026-09-01 00:12:27 | 49.61990 | 8.63567 | 31° | 16km/h | 21959m | 4.7m/s | -53.4°C | 1.4% | 43.1hPa | 2.5V | 00:00:00 | 00:00:00 | 00:00:00 | |
| DL0LBS | 2026-09-01 00:12:26 | 49.61986 | 8.63563 | 30° | 20km/h | 21955m | 4.0m/s | -53.4°C | 1.4% | 43.1hPa | 2.5V | 03:35:00 | 00:00:00 | 00:00:00 | |
| DD1CC8 | 2026-09-01 00:12:23 | 49.61975 | 8.63554 | 30° | 11km/h | 21942m | 4.4m/s | -53.5°C | 1.4% | 43.2hPa | 2.5V | 00:00:00 | 00:00:00 | 00:00:00 | |
| DL1XH1-15 | 2026-09-01 00:12:22 | 49.61967 | 8.63546 | 39° | 13km/h | 21928m | 4.9m/s | -53.7°C | 4.5% | 43.3hPa | 2.5V | 03:35:03 | 01:44:01 | 00:00:00 | |
| DL1XH-west | 2026-09-01 00:12:21 | 49.61970 | 8.63549 | 40° | 11km/h | 21933m | 4.9m/s | -53.7°C | 1.3% | 43.2hPa | 2.6V | 03:35:22 | 01:44:02 | 00:00:00 | |
| BIOWL1-15 | 2026-09-01 00:12:20 | 49.61962 | 8.63540 | 37° | 13km/h | 21919m | 4.1m/s | -53.9°C | 1.3% | 43.3hPa | 2.6V | 03:35:22 | 01:43:59 | 00:00:00 | |
| DB0ND-19 | 2026-09-01 00:12:20 | 49.61965 | 8.63543 | 38° | 13km/h | 21924m | 4.0m/s | -53.8°C | 1.5% | 43.3hPa | 2.6V | 00:00:00 | 00:00:00 | 00:00:00 | |
| BIOWL9-15 | 2026-09-01 00:12:18 | 49.61960 | 8.63537 | 34° | 9km/h | 21915m | 5.1m/s | -54.0°C | 1.5% | 43.4hPa | 2.6V | 00:00:00 | 00:00:00 | 00:00:00 | |
| DB0UT-9 | 2026-09-01 00:12:16 | 49.61960 | 8.63537 | 35° | 11km/h | 21915m | 5.1m/s | -54.0°C | 1.5% | 43.4hPa | 2.6V | 03:35:00 | 00:00:00 | 00:00:00 | |
| DJ2KF-10 | 2026-09-01 00:12:15 | 49.61955 | 8.63533 | 17° | 15km/h | 21906m | 3.8m/s | -54.0°C | 4.7% | 43.4hPa | 2.6V | 00:00:00 | 01:43:56 | 00:00:00 | |
| DL3AQ-11 | 2026-09-01 00:12:13 | 49.61943 | 8.63530 | 5° | 18km/h | 21892m | 4.2m/s | -53.9°C | 1.5% | 43.5hPa | 2.6V | 00:00:00 | 00:00:00 | 00:00:00 | |
| DL1XH1-15 | 2026-09-01 00:12:12 | 49.61935 | 8.63531 | 345° | 16km/h | 21883m | 5.2m/s | -53.9°C | 4.7% | 43.6hPa | 2.6V | 03:35:13 | 01:43:51 | 00:00:00 | |
| DL1XH-west | 2026-09-01 00:12:10 | 49.61935 | 8.63531 | 346° | 16km/h | 21883m | 5.2m/s | -53.9°C | 1.4% | 43.6hPa | 2.6V | 03:35:22 | 01:43:51 | 00:00:00 | |
| BIOWL1-15 | 2026-09-01 00:12:07 | 49.61924 | 8.63538 | 336° | 16km/h | 21869m | 5.1m/s | -53.8°C | 1.4% | 43.7hPa | 2.6V | 03:35:22 | 01:43:48 | 00:00:00 | |
| DL1XH-west | 2026-09-01 00:12:00 | 49.61899 | 8.63554 | 350° | 15km/h | 21837m | 5.2m/s | -53.5°C | 1.4% | 43.9hPa | 2.6V | 03:36:13 | 01:43:41 | 00:00:00 | |
| DL1XH1-15 | 2026-09-01 00:11:59 | 49.61891 | 8.63556 | 346° | 15km/h | 21828m | 4.1m/s | -53.5°C | 4.5% | 44hPa | 2.7V | 03:35:25 | 01:43:39 | 00:00:00 | |
| BIOWL1-15 | 2026-09-01 00:11:57 | 49.61876 | 8.63572 | 327° | 15km/h | 21805m | 4.9m/s | -53.4°C | 1.3% | 44.1hPa | 2.6V | 03:36:13 | 01:43:34 | 00:00:00 | |
| DF7PN | 2026-09-01 00:11:56 | 49.61885 | 8.63561 | 321° | 13km/h | 21819m | 4.7m/s | -53.4°C | 1.5% | 44.0hPa | 2.5V | 00:00:00 | 00:00:00 | 00:00:00 | |
| DD1CC8 | 2026-09-01 00:11:52 | 49.61873 | 8.63575 | 333° | 15km/h | 21801m | 3.8m/s | -53.4°C | 1.4% | 44.2hPa | 2.5V | 00:00:00 | 00:00:00 | 00:00:00 | |
| DJ2DS-15 | 2026-09-01 00:11:50 | 49.61867 | 8.63580 | 332° | 13km/h | 21792m | 5.2m/s | -53.4°C | 4.5% | 44.2hPa | 2.5V | 00:00:00 | 01:43:31 | 00:00:00 | |
| DL1XH1-15 | 2026-09-01 00:11:49 | 49.61862 | 8.63584 | 331° | 9km/h | 21782m | 4.5m/s | -53.4°C | 4.5% | 44.3hPa | 2.5V | 03:35:35 | 01:43:29 | 00:00:00 | |
| DL1XH-west | 2026-09-01 00:11:49 | 49.61864 | 8.63582 | 329° | 11km/h | 21787m | 5m/s | -53.4°C | 1.2% | 44.2hPa | 2.5V | 03:36:13 | 01:43:30 | 00:00:00 | |
| BIOWL1-15 | 2026-09-01 00:11:44 | 49.61849 | 8.63590 | 335° | 16km/h | 21764m | 4.2m/s | -53.5°C | 1.3% | 44.4hPa | 2.6V | 03:36:13 | 01:43:25 | 00:00:00 | |
| DL0LBS | 2026-09-01 00:11:43 | 49.61849 | 8.63590 | 336° | 16km/h | 21764m | 4.2m/s | -53.5°C | 1.5% | 44.4hPa | 2.6V | 03:36:00 | 00:00:00 | 00:00:00 | |
| DL1XH1-15 | 2026-09-01 00:11:39 | 49.61823 | 8.63619 | 335° | 7km/h | 21727m | 5.3m/s | -53.6°C | 4.6% | 44.7hPa | 2.6V | 03:35:47 | 01:43:17 | 00:00:00 | |
| DL1XH-west | 2026-09-01 00:11:39 | 49.61832 | 8.63611 | 327° | 18km/h | 21741m | 4.9m/s | -53.5°C | 1.3% | 44.5hPa | 2.7V | 03:36:13 | 01:43:20 | 00:00:00 | |
| BIOWL1-15 | 2026-09-01 00:11:34 | 49.61811 | 8.63610 | 340° | 11km/h | 21696m | 4.8m/s | -53.6°C | 1.3% | 44.9hPa | 2.6V | 03:36:13 | 01:43:10 | 00:00:00 | |
| DL3AQ-11 | 2026-09-01 00:11:33 | 49.61819 | 8.63614 | 48° | 9km/h | 21708m | 4.9m/s | -53.7°C | 1.4% | 44.8hPa | 2.7V | 00:00:00 | 00:00:00 | 00:00:00 | |
| DJ2DS-15 | 2026-09-01 00:11:32 | 49.61819 | 8.63614 | 48° | 9km/h | 21708m | 4.9m/s | -53.7°C | 1.4% | 44.8hPa | 2.7V | 00:00:00 | 00:00:00 | 00:00:00 | |
| DB0UT-9 | 2026-09-01 00:11:31 | 49.61819 | 8.63614 | 50° | 11km/h | 21709m | 4.9m/s | -53.6°C | 1.5% | 44.8hPa | 2.7V | 03:36:00 | 00:00:00 | 00:00:00 | |
| DK5PH-5 | 2026-09-01 00:11:30 | 49.61814 | 8.63610 | 8° | 9km/h | 21701m | 3.7m/s | -53.6°C | 4.5% | 44.8hPa | 2.7V | 00:00:00 | 01:43:11 | 00:00:00 | |
| DL1XH1-15 | 2026-09-01 00:11:29 | 49.61805 | 8.63624 | 287° | 16km/h | 21682m | 4.1m/s | -53.6°C | 4.5% | 45hPa | 2.6V | 03:35:57 | 01:43:07 | 00:00:00 | |
| DL1XH-west | 2026-09-01 00:11:28 | 49.61808 | 8.63613 | 312° | 13km/h | 21691m | 5.3m/s | -53.6°C | 1.3% | 44.9hPa | 2.5V | 03:36:13 | 01:43:09 | 00:00:00 | |
| DL8DAS-14 | 2026-09-01 00:11:28 | 49.61806 | 8.63618 | 293° | 15km/h | 21686m | 4.6m/s | -53.6°C | 1.5% | 44.9hPa | 2.5V | 00:00:00 | 00:00:00 | 00:00:00 | |
| DF7PN | 2026-09-01 00:11:25 | 49.61804 | 8.63630 | 287° | 16km/h | 21678m | 4.4m/s | -53.5°C | 1.4% | 45.0hPa | 2.5V | 00:00:00 | 00:00:00 | 00:00:00 | |
| DL3AQ-11 | 2026-09-01 00:11:22 | 49.61796 | 8.63645 | 342° | 9km/h | 21659m | 4.5m/s | -53.5°C | 1.4% | 45.1hPa | 2.5V | 00:00:00 | 00:00:00 | 00:00:00 | |
| DL1XH1-15 | 2026-09-01 00:11:21 | 49.61792 | 8.63645 | 38° | 2km/h | 21636m | 5.4m/s | -53.6°C | 4.5% | 45.3hPa | 2.5V | 03:36:07 | 01:42:57 | 00:00:00 | |
| BIOWL1-15 | 2026-09-01 00:11:18 | 49.61792 | 8.63646 | 49° | 0km/h | 21644m | 4.1m/s | -53.5°C | 1.4% | 45.2hPa | 2.6V | 03:36:13 | 01:42:59 | 00:00:00 | |
| DL1XH-west | 2026-09-01 00:11:17 | 49.61792 | 8.63645 | 94° | 2km/h | 21640m | 4m/s | -53.6°C | 1.3% | 45.2hPa | 2.5V | 03:36:13 | 01:42:58 | 00:00:00 | |
| BIOWL9-15 | 2026-09-01 00:11:15 | 49.61792 | 8.63645 | 350° | 2km/h | 21631m | 4.8m/s | -53.6°C | 1.5% | 45.3hPa | 2.7V | 00:00:00 | 00:00:00 | 00:00:00 | |
| DJ2KF-10 | 2026-09-01 00:11:14 | 49.61791 | 8.63645 | 310° | 7km/h | 21626m | 4.2m/s | -53.6°C | 4.5% | 45.3hPa | 2.7V | 03:36:00 | 01:42:55 | 00:00:00 | |
| DL1XH1-15 | 2026-09-01 00:11:11 | 49.61793 | 8.63671 | 309° | 5km/h | 21590m | 4.1m/s | -53.6°C | 4.5% | 45.6hPa | 2.7V | 03:36:17 | 01:42:47 | 00:00:00 | |
| BIOWL1-15 | 2026-09-01 00:11:07 | 49.61792 | 8.63672 | 302° | 4km/h | 21585m | 4.6m/s | -53.6°C | 1.4% | 45.6hPa | 2.6V | 03:37:04 | 01:42:46 | 00:00:00 | |
| DL1XH-west | 2026-09-01 00:11:07 | 49.61793 | 8.63669 | 294° | 7km/h | 21594m | 4.6m/s | -53.6°C | 1.3% | 45.6hPa | 2.6V | 03:37:04 | 01:42:48 | 00:00:00 | |
| DL3AQ-11 | 2026-09-01 00:11:06 | 49.61792 | 8.63672 | 301° | 2km/h | 21586m | 4.6m/s | -53.6°C | 1.5% | 45.6hPa | 2.5V | 00:00:00 | 00:00:00 | 00:00:00 | |
| DF3TZ-5 | 2026-09-01 00:11:03 | 49.61793 | 8.63674 | 209° | 4km/h | 21576m | 4.4m/s | -53.6°C | -1.0% | 45.7hPa | 2.5V | 00:00:00 | 00:00:00 | 00:00:00 | |
| DL1XH1-15 | 2026-09-01 00:11:01 | 49.61801 | 8.63690 | 250° | 13km/h | 21543m | 4.1m/s | -53.6°C | 4.4% | 45.9hPa | 2.5V | 03:36:27 | 01:42:37 | 00:00:00 | |
| DL1XH-west | 2026-09-01 00:10:56 | 49.61801 | 8.63690 | 250° | 13km/h | 21543m | 4.1m/s | -53.6°C | 1.2% | 45.9hPa | 2.5V | 03:37:04 | 01:42:37 | 00:00:00 | |
| BIOWL1-15 | 2026-09-01 00:10:55 | 49.61802 | 8.63695 | 265° | 13km/h | 21539m | 3.9m/s | -53.6°C | 1.3% | 46hPa | 2.6V | 03:37:04 | 01:42:36 | 00:00:00 | |
| DF7PN | 2026-09-01 00:10:54 | 49.61801 | 8.63700 | 286° | 11km/h | 21535m | 5.1m/s | -53.6°C | 1.4% | 46.0hPa | 2.5V | 00:00:00 | 00:00:00 | 00:00:00 | |
| DL3AQ-11 | 2026-09-01 00:10:53 | 49.61797 | 8.63708 | 327° | 13km/h | 21525m | 4.3m/s | -53.8°C | 1.4% | 46.1hPa | 2.5V | 00:00:00 | 00:00:00 | 00:00:00 | |
| DL1XH1-15 | 2026-09-01 00:10:51 | 49.61788 | 8.63719 | 277° | 5km/h | 21499m | 4.4m/s | -53.9°C | 4.7% | 46.2hPa | 2.5V | 03:36:37 | 01:42:27 | 00:00:00 | |
| DL1XH-west | 2026-09-01 00:10:46 | 49.61788 | 8.63719 | 277° | 5km/h | 21499m | 4.4m/s | -53.9°C | 1.4% | 46.3hPa | 2.5V | 03:37:04 | 01:42:27 | 00:00:00 | |
| BIOWL1-15 | 2026-09-01 00:10:44 | 49.61786 | 8.63728 | 276° | 7km/h | 21481m | 5.2m/s | -53.7°C | 1.4% | 46.4hPa | 2.7V | 03:37:04 | 01:42:23 | 00:00:00 | |
| DJ2KF-10 | 2026-09-01 00:10:44 | 49.61787 | 8.63723 | 297° | 11km/h | 21490m | 4.1m/s | -53.8°C | 4.6% | 46.3hPa | 2.6V | 00:00:00 | 01:42:25 | 00:00:00 | |
| DO1YAY-16 | 2026-09-01 00:10:43 | 49.61787 | 8.63725 | 289° | 5km/h | 21486m | 3.8m/s | -53.8°C | 1.5% | 46.4hPa | 2.6V | 00:00:00 | 00:00:00 | 00:00:00 | |
| DL1XH1-15 | 2026-09-01 00:10:41 | 49.61782 | 8.63748 | 321° | 13km/h | 21453m | 3.9m/s | -53.5°C | 4.6% | 46.6hPa | 2.6V | 03:36:47 | 01:42:17 | 00:00:00 | |
| DL1XH-west | 2026-09-01 00:10:35 | 49.61780 | 8.63751 | 314° | 13km/h | 21449m | 3.8m/s | -53.5°C | 1.3% | 46.6hPa | 2.7V | 03:37:04 | 01:42:16 | 00:00:00 | |
| BIOWL1-15 | 2026-09-01 00:10:32 | 49.61776 | 8.63768 | 266° | 18km/h | 21435m | 4.4m/s | -53.4°C | 1.3% | 46.7hPa | 2.6V | 03:37:04 | 01:42:13 | 00:00:00 | |
| DL1XH1-15 | 2026-09-01 00:10:31 | 49.61782 | 8.63799 | 256° | 11km/h | 21408m | 5m/s | -53.2°C | 4.5% | 46.9hPa | 2.5V | 03:36:57 | 01:42:07 | 00:00:00 | |
| DL1XH-west | 2026-09-01 00:10:25 | 49.61783 | 8.63803 | 262° | 13km/h | 21403m | 5.1m/s | -53.1°C | 1.3% | 47hPa | 2.5V | 03:37:04 | 01:42:06 | 00:00:00 | |
| BIOWL1-15 | 2026-09-01 00:10:21 | 49.61784 | 8.63818 | 263° | 5km/h | 21384m | 4.8m/s | -53°C | 1.3% | 47.1hPa | 2.7V | 03:37:04 | 01:42:02 | 00:00:00 | |
| DL1XH-west | 2026-09-01 00:10:14 | 49.61789 | 8.63849 | 257° | 13km/h | 21352m | 4.8m/s | -52.9°C | 1.3% | 47.4hPa | 2.6V | 03:37:55 | 01:41:55 | 00:00:00 | |
| BIOWL1-15 | 2026-09-01 00:10:10 | 49.61802 | 8.63876 | 180° | 7km/h | 21316m | 5.3m/s | -52.7°C | 1.2% | 47.6hPa | 2.6V | 03:37:55 | 01:41:47 | 00:00:00 | |
| DJ2DS-15 | 2026-09-01 00:10:10 | 49.61793 | 8.63866 | 238° | 9km/h | 21334m | 5.1m/s | -52.8°C | 4.4% | 47.4hPa | 2.7V | 00:00:00 | 01:41:51 | 00:00:00 | |
| DL1XH1-15 | 2026-09-01 00:10:08 | 49.61807 | 8.63876 | 208° | 7km/h | 21302m | 5.1m/s | -52.7°C | 4.4% | 47.7hPa | 2.7V | 03:37:20 | 01:41:44 | 00:00:00 | |
| DL1XH-west | 2026-09-01 00:10:04 | 49.61805 | 8.63875 | 186° | 5km/h | 21307m | 3.9m/s | -52.7°C | 1.2% | 47.7hPa | 2.7V | 03:37:55 | 01:41:45 | 00:00:00 | |
| DL3AQ-11 | 2026-09-01 00:10:02 | 49.61810 | 8.63882 | 232° | 11km/h | 21293m | 4.0m/s | -52.7°C | 1.4% | 47.8hPa | 2.6V | 00:00:00 | 00:00:00 | 00:00:00 | |
| DF3TZ-5 | 2026-09-01 00:10:01 | 49.61810 | 8.63882 | 232° | 11km/h | 21293m | 4.0m/s | -52.7°C | -1.0% | 47.8hPa | 2.6V | 00:00:00 | 00:00:00 | 00:00:00 | |
| DK5PH-5 | 2026-09-01 00:10:00 | 49.61812 | 8.63886 | 229° | 9km/h | 21289m | 4.7m/s | -52.6°C | 4.4% | 47.8hPa | 2.6V | 00:00:00 | 01:41:41 | 00:00:00 | |
| DL0LBS | 2026-09-01 00:09:59 | 49.61812 | 8.63886 | 229° | 13km/h | 21289m | 4.7m/s | -52.7°C | 1.5% | 47.8hPa | 2.7V | 03:37:00 | 00:00:00 | 00:00:00 | |
| DL1XH1-15 | 2026-09-01 00:09:58 | 49.61820 | 8.63906 | 257° | 11km/h | 21257m | 3.7m/s | -52.7°C | 4.3% | 48hPa | 2.7V | 03:37:30 | 01:41:34 | 00:00:00 | |
| DL1XH-west | 2026-09-01 00:09:54 | 49.61819 | 8.63902 | 265° | 11km/h | 21261m | 4.5m/s | -52.7°C | 1.2% | 48hPa | 2.6V | 03:37:55 | 01:41:35 | 00:00:00 | |
| BIOWL1-15 | 2026-09-01 00:09:44 | 49.61836 | 8.63911 | 255° | 7km/h | 21218m | 4.3m/s | -52.7°C | 1.2% | 48.4hPa | 2.5V | 03:37:55 | 01:41:25 | 00:00:00 | |
| DL1XH-west | 2026-09-01 00:09:43 | 49.61836 | 8.63914 | 253° | 11km/h | 21213m | 3.9m/s | -52.7°C | 1.2% | 48.4hPa | 2.6V | 03:37:55 | 01:41:24 | 00:00:00 | |
| DL1XH1-15 | 2026-09-01 00:09:42 | 49.61842 | 8.63925 | 207° | 11km/h | 21200m | 4.3m/s | -52.7°C | 4.4% | 48.5hPa | 2.6V | 03:37:43 | 01:41:21 | 00:00:00 | |
| BIOWL1-15 | 2026-09-01 00:09:33 | 49.61856 | 8.63914 | 156° | 5km/h | 21145m | 4m/s | -52.9°C | 1.2% | 48.9hPa | 2.7V | 03:37:55 | 01:41:09 | 00:00:00 | |
| DL1XH-west | 2026-09-01 00:09:32 | 49.61853 | 8.63917 | 154° | 5km/h | 21159m | 5.2m/s | -52.8°C | 1.2% | 48.8hPa | 2.5V | 03:37:55 | 01:41:12 | 00:00:00 | |
| DL1XH1-15 | 2026-09-01 00:09:32 | 49.61854 | 8.63916 | 146° | 5km/h | 21153m | 5.2m/s | -52.8°C | 4.4% | 48.8hPa | 2.6V | 03:37:53 | 01:41:11 | 00:00:00 | |
| HEMX73-11 | 2026-09-01 00:09:30 | 49.61854 | 8.63916 | 147° | 5km/h | 21154m | 5.2m/s | -52.8°C | 1.4% | 48.8hPa | 2.6V | 03:37:00 | 00:00:00 | 00:00:00 | |
| DB0UT-9 | 2026-09-01 00:09:27 | 49.61856 | 8.63914 | 157° | 5km/h | 21145m | 4.0m/s | -52.9°C | 1.4% | 48.9hPa | 2.6V | 03:37:00 | 00:00:00 | 00:00:00 | |
| DB0UT-7 | 2026-09-01 00:09:25 | 49.61862 | 8.63912 | 166° | 5km/h | 21131m | 3.6m/s | -52.8°C | 4.3% | 49.0hPa | 2.6V | 00:00:00 | 00:00:00 | 00:00:00 | |
| DL1ZP-14 | 2026-09-01 00:09:24 | 49.61864 | 8.63910 | 108° | 2km/h | 21122m | 5.2m/s | -53.0°C | 1.4% | 49.1hPa | 2.7V | 00:00:00 | 00:00:00 | 00:00:00 | |
| DL1XH1-15 | 2026-09-01 00:09:22 | 49.61863 | 8.63905 | 116° | 4km/h | 21103m | 5.4m/s | -53.1°C | 4.3% | 49.2hPa | 2.6V | 03:38:04 | 01:41:00 | 00:00:00 | |
| BIOWL1-15 | 2026-09-01 00:09:21 | 49.61864 | 8.63903 | 134° | 7km/h | 21098m | 4.5m/s | -53.2°C | 1.2% | 49.2hPa | 2.6V | 03:38:46 | 01:40:59 | 00:00:00 | |
| DL1XH-west | 2026-09-01 00:09:20 | 49.61863 | 8.63906 | 67° | 4km/h | 21108m | 4.5m/s | -53.1°C | 1.2% | 49.2hPa | 2.6V | 03:38:46 | 01:41:01 | 00:00:00 | |
| DD1CC8 | 2026-09-01 00:09:17 | 49.61866 | 8.63898 | 120° | 9km/h | 21089m | 5.3m/s | -53.3°C | 1.4% | 49.3hPa | 2.7V | 00:00:00 | 00:00:00 | 00:00:00 | |
| DB0ND-19 | 2026-09-01 00:09:14 | 49.61870 | 8.63886 | 123° | 11km/h | 21076m | 4.6m/s | -53.3°C | 1.4% | 49.4hPa | 2.7V | 00:00:00 | 00:00:00 | 00:00:00 | |
| DL1XH1-15 | 2026-09-01 00:09:12 | 49.61877 | 8.63878 | 143° | 4km/h | 21057m | 5.3m/s | -53.3°C | 4.5% | 49.5hPa | 2.7V | 03:38:14 | 01:40:50 | 00:00:00 | |
| BIOWL1-15 | 2026-09-01 00:09:11 | 49.61876 | 8.63879 | 155° | 7km/h | 21062m | 4.2m/s | -53.3°C | 1.3% | 49.5hPa | 2.7V | 03:38:46 | 01:40:51 | 00:00:00 | |
| DL1XH-west | 2026-09-01 00:09:09 | 49.61877 | 8.63878 | 143° | 4km/h | 21057m | 5.3m/s | -53.3°C | 1.3% | 49.6hPa | 2.7V | 03:38:46 | 01:40:50 | 00:00:00 | |
| HEMX73-11 | 2026-09-01 00:09:08 | 49.61877 | 8.63878 | 144° | 4km/h | 21057m | 5.3m/s | -53.3°C | 1.4% | 49.6hPa | 2.7V | 03:38:00 | 00:00:00 | 00:00:00 | |
| DL3AQ-11 | 2026-09-01 00:09:06 | 49.61878 | 8.63877 | 199° | 4km/h | 21039m | 5.2m/s | -53.3°C | 1.4% | 49.7hPa | 2.7V | 00:00:00 | 00:00:00 | 00:00:00 | |
| DL1XH1-15 | 2026-09-01 00:09:02 | 49.61883 | 8.63870 | 115° | 5km/h | 21012m | 5.1m/s | -53.2°C | 4.4% | 49.9hPa | 2.7V | 03:38:24 | 01:40:40 | 00:00:00 | |
| BIOWL1-15 | 2026-09-01 00:09:00 | 49.61883 | 8.63872 | 106° | 5km/h | 21017m | 3.9m/s | -53.2°C | 1.3% | 49.9hPa | 2.6V | 03:38:46 | 01:40:41 | 00:00:00 | |
| DL1XH-west | 2026-09-01 00:08:59 | 49.61883 | 8.63870 | 116° | 5km/h | 21012m | 5.1m/s | -53.2°C | 1.3% | 49.9hPa | 2.7V | 03:38:46 | 01:40:40 | 00:00:00 | |
| DL3AQ-11 | 2026-09-01 00:08:53 | 49.61887 | 8.63861 | 101° | 2km/h | 20979m | 5.6m/s | -53.3°C | 1.5% | 50.2hPa | 2.6V | 00:00:00 | 00:00:00 | 00:00:00 | |
| DL1XH1-15 | 2026-09-01 00:08:52 | 49.61889 | 8.63858 | 126° | 9km/h | 20960m | 5.3m/s | -53.3°C | 4.5% | 50.3hPa | 2.6V | 03:38:35 | 01:40:29 | 00:00:00 | |
| BIOWL1-15 | 2026-09-01 00:08:49 | 49.61900 | 8.63843 | 153° | 18km/h | 20942m | 5.1m/s | -53.2°C | 1.3% | 50.5hPa | 2.6V | 03:38:46 | 01:40:25 | 00:00:00 | |
| DL1XH-west | 2026-09-01 00:08:49 | 49.61888 | 8.63860 | 140° | 5km/h | 20965m | 4.3m/s | -53.3°C | 1.3% | 50.3hPa | 2.6V | 03:38:46 | 01:40:30 | 00:00:00 | |
| HEMX73-11 | 2026-09-01 00:08:47 | 49.61889 | 8.63858 | 128° | 9km/h | 20961m | 5.3m/s | -53.3°C | 1.5% | 50.3hPa | 2.6V | 03:38:00 | 00:00:00 | 00:00:00 | |
| DB0UT-9 | 2026-09-01 00:08:46 | 49.61893 | 8.63850 | 135° | 16km/h | 20952m | 3.7m/s | -53.2°C | 1.5% | 50.4hPa | 2.6V | 00:00:00 | 00:00:00 | 00:00:00 | |
| DL1XH1-15 | 2026-09-01 00:08:42 | 49.61921 | 8.63822 | 136° | 11km/h | 20914m | 5.5m/s | -53.3°C | 4.5% | 50.7hPa | 2.6V | 03:38:45 | 01:40:19 | 00:00:00 | |
| DL1XH-west | 2026-09-01 00:08:39 | 49.61919 | 8.63826 | 136° | 13km/h | 20919m | 4.4m/s | -53.3°C | 1.3% | 50.6hPa | 2.7V | 03:38:46 | 01:40:20 | 00:00:00 | |
| BIOWL1-15 | 2026-09-01 00:08:38 | 49.61923 | 8.63820 | 139° | 7km/h | 20909m | 4.9m/s | -53.4°C | 1.3% | 50.7hPa | 2.6V | 03:38:46 | 01:40:18 | 00:00:00 | |
| DL1XH-west | 2026-09-01 00:08:29 | 49.61934 | 8.63795 | 145° | 18km/h | 20874m | 4m/s | -53.4°C | 1.3% | 51hPa | 2.7V | 03:39:37 | 01:40:10 | 00:00:00 | |
| BIOWL1-15 | 2026-09-01 00:08:28 | 49.61946 | 8.63777 | 128° | 26km/h | 20859m | 4.2m/s | -53.4°C | 1.3% | 51.1hPa | 2.6V | 03:39:37 | 01:40:07 | 00:00:00 | |
| DL1XH-west | 2026-09-01 00:08:19 | 49.61965 | 8.63739 | 116° | 9km/h | 20826m | 4.2m/s | -53.3°C | 1.3% | 51.4hPa | 2.6V | 03:39:37 | 01:40:00 | 00:00:00 | |
| DF7PN | 2026-09-01 00:08:18 | 49.61967 | 8.63735 | 159° | 5km/h | 20818m | 5.2m/s | -53.3°C | 1.4% | 51.5hPa | 2.6V | 00:00:00 | 00:00:00 | 00:00:00 | |
| DL1XH1-15 | 2026-09-01 00:08:17 | 49.61982 | 8.63725 | 133° | 18km/h | 20795m | 4.4m/s | -53.2°C | 4.4% | 51.6hPa | 2.6V | 03:39:11 | 01:39:53 | 00:00:00 | |
| BIOWL1-15 | 2026-09-01 00:08:15 | 49.61972 | 8.63734 | 171° | 13km/h | 20809m | 3.1m/s | -53.2°C | 1.3% | 51.5hPa | 2.7V | 03:39:37 | 01:39:56 | 00:00:00 | |
| DL1XH-west | 2026-09-01 00:08:08 | 49.61993 | 8.63705 | 134° | 9km/h | 20779m | 4.7m/s | -53.1°C | 1.3% | 51.8hPa | 2.6V | 03:39:37 | 01:39:49 | 00:00:00 | |
| HEMX73-11 | 2026-09-01 00:08:06 | 49.61995 | 8.63702 | 125° | 4km/h | 20770m | 3.8m/s | -53.1°C | 1.5% | 51.8hPa | 2.7V | 03:39:00 | 00:00:00 | 00:00:00 | |
| DB0UT-9 | 2026-09-01 00:08:04 | 49.61995 | 8.63701 | 81° | 2km/h | 20766m | 5.1m/s | -53.0°C | 1.5% | 51.9hPa | 2.7V | 03:39:00 | 00:00:00 | 00:00:00 | |
| DL3AQ-11 | 2026-09-01 00:08:02 | 49.61994 | 8.63697 | 168° | 0km/h | 20747m | 4.6m/s | -53.0°C | 1.5% | 52.0hPa | 2.7V | 00:00:00 | 00:00:00 | 00:00:00 | |
| DB0UT-7 | 2026-09-01 00:08:00 | 49.61995 | 8.63697 | 171° | 5km/h | 20743m | 3.5m/s | -52.9°C | 4.5% | 52.0hPa | 2.7V | 00:00:00 | 00:00:00 | 00:00:00 | |
| DJ2KF-10 | 2026-09-01 00:07:59 | 49.61995 | 8.63696 | 152° | 5km/h | 20739m | 4.1m/s | -52.8°C | 4.4% | 52.0hPa | 2.7V | 00:00:00 | 01:39:40 | 00:00:00 | |
| DL1XH1-15 | 2026-09-01 00:07:58 | 49.62005 | 8.63682 | 175° | 9km/h | 20714m | 4.8m/s | -52.7°C | 4.4% | 52.3hPa | 2.7V | 03:39:30 | 01:39:34 | 00:00:00 | |
| DL1XH-west | 2026-09-01 00:07:58 | 49.61997 | 8.63695 | 133° | 7km/h | 20734m | 4.9m/s | -52.9°C | 1.2% | 52.1hPa | 2.7V | 03:39:37 | 01:39:39 | 00:00:00 | |
| BIOWL1-15 | 2026-09-01 00:07:51 | 49.62009 | 8.63683 | 196° | 7km/h | 20705m | 3.9m/s | -52.7°C | 1.2% | 52.3hPa | 2.6V | 03:39:37 | 01:39:32 | 00:00:00 | |
| DL1ZP-14 | 2026-09-01 00:07:51 | 49.62011 | 8.63683 | 181° | 5km/h | 20700m | 4.9m/s | -52.7°C | 1.4% | 52.4hPa | 2.6V | 00:00:00 | 00:00:00 | 00:00:00 | |
| DF7PN | 2026-09-01 00:07:48 | 49.62012 | 8.63680 | 95° | 4km/h | 20688m | 4.1m/s | -52.6°C | 1.4% | 52.5hPa | 2.7V | 00:00:00 | 00:00:00 | 00:00:00 | |
| DL1XH1-15 | 2026-09-01 00:07:47 | 49.62013 | 8.63671 | 86° | 7km/h | 20665m | 4.5m/s | -52.5°C | 4.3% | 52.7hPa | 2.7V | 03:39:41 | 01:39:23 | 00:00:00 | |
| DL1XH-west | 2026-09-01 00:07:47 | 49.62012 | 8.63680 | 96° | 4km/h | 20688m | 4.1m/s | -52.6°C | 1.2% | 52.5hPa | 2.7V | 03:39:37 | 01:39:28 | 00:00:00 | |
| DL3AQ-11 | 2026-09-01 00:07:46 | 49.62013 | 8.63677 | 108° | 4km/h | 20679m | 4.3m/s | -52.6°C | 1.4% | 52.6hPa | 2.7V | 00:00:00 | 00:00:00 | 00:00:00 | |
| DM3KS-11 | 2026-09-01 00:07:44 | 49.62013 | 8.63676 | 104° | 4km/h | 20675m | 4.0m/s | -52.6°C | 1.4% | 52.6hPa | 2.7V | 00:00:00 | 00:00:00 | 00:00:00 | |
| BIOWL1-15 | 2026-09-01 00:07:43 | 49.62013 | 8.63668 | 82° | 7km/h | 20661m | 3.8m/s | -52.5°C | 1.2% | 52.7hPa | 2.7V | 03:40:28 | 01:39:22 | 00:00:00 | |
| DL1XH-west | 2026-09-01 00:07:36 | 49.62012 | 8.63669 | 277° | 4km/h | 20640m | 4.2m/s | -52.4°C | 1.2% | 52.9hPa | 2.6V | 03:40:28 | 01:39:17 | 00:00:00 | |
| BIOWL1-15 | 2026-09-01 00:07:30 | 49.62014 | 8.63668 | 134° | 4km/h | 20614m | 4m/s | -52.5°C | 1.2% | 53.1hPa | 2.7V | 03:40:28 | 01:39:11 | 00:00:00 | |
| DL1XH-west | 2026-09-01 00:07:25 | 49.62014 | 8.63661 | 275° | 2km/h | 20592m | 4.8m/s | -52.4°C | 1.2% | 53.3hPa | 2.6V | 03:40:28 | 01:39:06 | 00:00:00 | |
| BIOWL1-15 | 2026-09-01 00:07:19 | 49.62009 | 8.63667 | 94° | 5km/h | 20563m | 4.7m/s | -52.3°C | 1.1% | 53.5hPa | 2.6V | 03:40:28 | 01:38:59 | 00:00:00 | |
| DL1XH-west | 2026-09-01 00:07:15 | 49.62010 | 8.63657 | 86° | 13km/h | 20549m | 4.7m/s | -52.4°C | 1.1% | 53.7hPa | 2.6V | 03:40:28 | 01:38:56 | 00:00:00 | |
| DL0LBS | 2026-09-01 00:07:14 | 49.62010 | 8.63656 | 87° | 13km/h | 20550m | 4.7m/s | -52.4°C | 1.4% | 53.7hPa | 2.6V | 03:40:00 | 00:00:00 | 00:00:00 | |
| DD1CC8 | 2026-09-01 00:07:13 | 49.62008 | 8.63643 | 62° | 9km/h | 20538m | 4.4m/s | -52.4°C | 1.4% | 53.7hPa | 2.6V | 00:00:00 | 00:00:00 | 00:00:00 | |
| DL1XH1-15 | 2026-09-01 00:07:12 | 49.62005 | 8.63639 | 20° | 4km/h | 20526m | 3.5m/s | -52.6°C | 4.3% | 53.8hPa | 2.6V | 03:40:14 | 01:38:50 | 00:00:00 | |
| BIOWL1-15 | 2026-09-01 00:07:08 | 49.62004 | 8.63638 | 31° | 4km/h | 20522m | 4.7m/s | -52.8°C | 1.3% | 53.9hPa | 2.6V | 03:40:28 | 01:38:49 | 00:00:00 | |
| DL1XH-west | 2026-09-01 00:07:04 | 49.62003 | 8.63628 | 103° | 11km/h | 20505m | 4.4m/s | -52.8°C | 1.2% | 54hPa | 2.7V | 03:40:28 | 01:38:45 | 00:00:00 | |
| DL1XH1-15 | 2026-09-01 00:07:02 | 49.62000 | 8.63587 | 73° | 18km/h | 20481m | 4.2m/s | -52.8°C | 4.4% | 54.2hPa | 2.7V | 03:40:25 | 01:38:39 | 00:00:00 | |
| BIOWL1-15 | 2026-09-01 00:07:00 | 49.62000 | 8.63587 | 74° | 18km/h | 20482m | 4.2m/s | -52.8°C | 1.2% | 54.2hPa | 2.7V | 03:40:28 | 01:38:39 | 00:00:00 | |
| DL1XH-west | 2026-09-01 00:06:54 | 49.61996 | 8.63565 | 71° | 13km/h | 20465m | 4.6m/s | -52.7°C | 1.2% | 54.4hPa | 2.7V | 03:41:19 | 01:38:35 | 00:00:00 | |
| DL3AQ-11 | 2026-09-01 00:06:53 | 49.61994 | 8.63555 | 71° | 15km/h | 20457m | 3.6m/s | -52.6°C | 1.4% | 54.4hPa | 2.5V | 00:00:00 | 00:00:00 | 00:00:00 | |
| DL1XH1-15 | 2026-09-01 00:06:52 | 49.61995 | 8.63528 | 98° | 15km/h | 20437m | 4.8m/s | -52.6°C | 4.3% | 54.6hPa | 2.5V | 03:40:36 | 01:38:28 | 00:00:00 | |
| BIOWL1-15 | 2026-09-01 00:06:48 | 49.61995 | 8.63523 | 92° | 15km/h | 20433m | 3.9m/s | -52.6°C | 1.2% | 54.6hPa | 2.6V | 03:41:19 | 01:38:27 | 00:00:00 | |
| DF7PN | 2026-09-01 00:06:45 | 49.61995 | 8.63518 | 94° | 11km/h | 20430m | 3.5m/s | -52.6°C | 1.4% | 54.7hPa | 2.7V | 00:00:00 | 00:00:00 | 00:00:00 | |
| DL1XH-west | 2026-09-01 00:06:43 | 49.61996 | 8.63510 | 110° | 7km/h | 20421m | 4.5m/s | -52.5°C | 1.1% | 54.8hPa | 2.7V | 03:41:19 | 01:38:24 | 00:00:00 | |
| DL1XH1-15 | 2026-09-01 00:06:42 | 49.61997 | 8.63497 | 117° | 7km/h | 20396m | 4.8m/s | -52.5°C | 4.3% | 54.9hPa | 2.6V | 03:40:46 | 01:38:18 | 00:00:00 | |
| BIOWL1-15 | 2026-09-01 00:06:37 | 49.62000 | 8.63491 | 135° | 13km/h | 20388m | 3.6m/s | -52.5°C | 1.2% | 55hPa | 2.7V | 03:41:19 | 01:38:16 | 00:00:00 | |
| DL1XH-west | 2026-09-01 00:06:34 | 49.62005 | 8.63482 | 121° | 15km/h | 20379m | 4.5m/s | -52.4°C | 1.2% | 55.1hPa | 2.6V | 03:41:19 | 01:38:14 | 00:00:00 | |
| BIOWL1-15 | 2026-09-01 00:06:27 | 49.62033 | 8.63442 | 141° | 11km/h | 20322m | 4.4m/s | -52.4°C | 1.2% | 55.6hPa | 2.7V | 03:41:19 | 01:38:00 | 00:00:00 | |
| DL1XH-west | 2026-09-01 00:06:23 | 49.62025 | 8.63448 | 164° | 11km/h | 20334m | 3.9m/s | -52.4°C | 1.2% | 55.5hPa | 2.6V | 03:41:19 | 01:38:03 | 00:00:00 | |
| DL1XH1-15 | 2026-09-01 00:06:22 | 49.62037 | 8.63437 | 130° | 11km/h | 20315m | 2.9m/s | -52.6°C | 4.3% | 55.6hPa | 2.6V | 03:41:06 | 01:37:58 | 00:00:00 | |
| DL8DAS-15 | 2026-09-01 00:06:19 | 49.62030 | 8.63445 | 153° | 13km/h | 20327m | 3.9m/s | -52.4°C | 1.4% | 55.5hPa | 2.6V | 00:00:00 | 00:00:00 | 00:00:00 | |
| DL8DAS-14 | 2026-09-01 00:06:18 | 49.62036 | 8.63437 | 130° | 9km/h | 20315m | 2.9m/s | -52.6°C | 1.4% | 55.6hPa | 2.6V | 00:00:00 | 00:00:00 | 00:00:00 | |
| DL1ZP-14 | 2026-09-01 00:06:17 | 49.62036 | 8.63437 | 130° | 9km/h | 20315m | 2.9m/s | -52.6°C | 1.4% | 55.6hPa | 2.6V | 00:00:00 | 00:00:00 | 00:00:00 | |
| DB0NH | 2026-09-01 00:06:14 | 49.62044 | 8.63428 | 157° | 16km/h | 20302m | 4.5m/s | 0°C | 0% | 0hPa | 2.7V | 00:00:00 | 01:37:55 | 00:00:00 | |
| DL3AQ-11 | 2026-09-01 00:06:13 | 49.62048 | 8.63426 | 158° | 16km/h | 20298m | 3.7m/s | -52.5°C | 1.4% | 55.8hPa | 2.7V | 00:00:00 | 00:00:00 | 00:00:00 | |
| DL1XH1-15 | 2026-09-01 00:06:12 | 49.62071 | 8.63414 | 186° | 16km/h | 20273m | 4.6m/s | -52.4°C | 4.3% | 56hPa | 2.7V | 03:41:16 | 01:37:48 | 00:00:00 | |
| BIOWL1-15 | 2026-09-01 00:06:12 | 49.62060 | 8.63417 | 154° | 15km/h | 20285m | 3.8m/s | -52.5°C | 1.2% | 55.9hPa | 2.6V | 03:41:19 | 01:37:51 | 00:00:00 | |
| DL1XH-west | 2026-09-01 00:06:11 | 49.62056 | 8.63420 | 153° | 16km/h | 20290m | 5m/s | -52.5°C | 1.2% | 55.9hPa | 2.6V | 03:41:19 | 01:37:52 | 00:00:00 | |
| DM3KS-11 | 2026-09-01 00:06:11 | 49.62056 | 8.63420 | 152° | 16km/h | 20290m | 5.0m/s | -52.5°C | 1.4% | 55.9hPa | 2.6V | 00:00:00 | 00:00:00 | 00:00:00 | |
| DL8DAS-15 | 2026-09-01 00:06:10 | 49.62060 | 8.63417 | 155° | 15km/h | 20285m | 3.8m/s | -52.5°C | 1.4% | 55.9hPa | 2.6V | 00:00:00 | 00:00:00 | 00:00:00 | |
| DJ2DS-15 | 2026-09-01 00:06:09 | 49.62063 | 8.63415 | 163° | 22km/h | 20282m | 3.3m/s | -52.4°C | 4.3% | 55.9hPa | 2.6V | 00:00:00 | 01:37:50 | 00:00:00 | |
| DB0ND-19 | 2026-09-01 00:06:08 | 49.62071 | 8.63414 | 186° | 16km/h | 20273m | 4.6m/s | -52.4°C | 1.4% | 56.0hPa | 2.6V | 00:00:00 | 00:00:00 | 00:00:00 | |
| BIOWL9-15 | 2026-09-01 00:06:05 | 49.62080 | 8.63415 | 179° | 16km/h | 20265m | 3.8m/s | -52.3°C | 1.4% | 56.0hPa | 2.6V | 00:00:00 | 00:00:00 | 00:00:00 | |
| DO1YAY-16 | 2026-09-01 00:06:04 | 49.62089 | 8.63412 | 155° | 20km/h | 20256m | 4.1m/s | -52.2°C | 1.4% | 56.1hPa | 2.6V | 00:00:00 | 00:00:00 | 00:00:00 | |
| DL1XH1-15 | 2026-09-01 00:06:02 | 49.62170 | 8.63353 | 143° | 22km/h | 20194m | 4.8m/s | -52.3°C | 4.1% | 56.7hPa | 2.6V | 03:41:35 | 01:37:29 | 00:00:00 | |
| DB0UT-9 | 2026-09-01 00:06:02 | 49.62094 | 8.63408 | 152° | 24km/h | 20253m | 3.8m/s | -52.2°C | 1.4% | 56.2hPa | 2.7V | 00:00:00 | 00:00:00 | 00:00:00 | |
| DL1XH-west | 2026-09-01 00:06:01 | 49.62191 | 8.63331 | 141° | 27km/h | 20177m | 4.5m/s | -52.4°C | 1.2% | 56.8hPa | 2.7V | 03:42:10 | 01:37:25 | 00:00:00 | |
| BIOWL1-15 | 2026-09-01 00:06:00 | 49.62180 | 8.63343 | 147° | 26km/h | 20185m | 3.8m/s | -52.4°C | 1.1% | 56.8hPa | 2.6V | 03:43:01 | 01:37:27 | 00:00:00 | |
| DB0UT-7 | 2026-09-01 00:05:59 | 49.62111 | 8.63393 | 151° | 26km/h | 20239m | 3.9m/s | -52.1°C | 4.2% | 56.3hPa | 2.7V | 00:00:00 | 01:37:40 | 00:00:00 | |
| DL8DAS-15 | 2026-09-01 00:05:58 | 49.62111 | 8.63393 | 152° | 26km/h | 20239m | 3.9m/s | -52.1°C | 1.4% | 56.3hPa | 2.7V | 03:42:00 | 00:00:00 | 00:00:00 | |
| DL1XH1-15 | 2026-09-01 00:05:57 | 49.62185 | 8.63337 | 144° | 27km/h | 20181m | 3.5m/s | -52.4°C | 4.3% | 56.8hPa | 2.7V | 03:41:38 | 01:37:26 | 00:00:00 | |
| DF3TZ-5 | 2026-09-01 00:05:53 | 49.62165 | 8.63359 | 142° | 20km/h | 20198m | 3.8m/s | 0°C | -1.0% | -1.0hPa | 2.6V | 00:00:00 | 00:00:00 | 00:00:00 | |
| DL3AQ-11 | 2026-09-01 00:05:47 | 49.62185 | 8.63337 | 144° | 26km/h | 20181m | 3.5m/s | -52.4°C | 1.4% | 56.8hPa | 2.6V | 00:00:00 | 00:00:00 | 00:00:00 | |
| DL1XH-west | 2026-09-01 00:05:44 | 49.62196 | 8.63324 | 136° | 29km/h | 20173m | 4.9m/s | -52.5°C | 1.1% | 56.9hPa | 2.6V | 03:42:10 | 01:37:24 | 00:00:00 | |
| BIOWL1-15 | 2026-09-01 00:05:38 | 49.62242 | 8.63280 | 149° | 33km/h | 20145m | 4.4m/s | -52.5°C | 1.1% | 57.1hPa | 2.6V | 03:43:01 | 01:37:17 | 00:00:00 | |
| DL1XH-west | 2026-09-01 00:05:32 | 49.62261 | 8.63250 | 121° | 24km/h | 20128m | 4.4m/s | -52.5°C | 1.1% | 57.3hPa | 2.7V | 03:42:10 | 01:37:13 | 00:00:00 | |
| DL1XH1-15 | 2026-09-01 00:05:29 | 49.62284 | 8.63193 | 130° | 27km/h | 20103m | 4.8m/s | -52.6°C | 4.3% | 57.5hPa | 2.7V | 03:41:57 | 01:37:07 | 00:00:00 | |
| BIOWL1-15 | 2026-09-01 00:05:29 | 49.62304 | 8.63159 | 124° | 24km/h | 20083m | 4.3m/s | -52.6°C | 1.2% | 57.7hPa | 2.7V | 03:43:01 | 01:37:02 | 00:00:00 | |
| DL8DAS-15 | 2026-09-01 00:05:24 | 49.62293 | 8.63179 | 137° | 22km/h | 20095m | 3.2m/s | -52.6°C | 1.4% | 57.6hPa | 2.6V | 03:42:00 | 00:00:00 | 00:00:00 | |
| DF3TZ-5 | 2026-09-01 00:05:23 | 49.62313 | 8.63135 | 117° | 22km/h | 20070m | 5.0m/s | 0°C | -1.0% | -1.0hPa | 2.6V | 00:00:00 | 00:00:00 | 00:00:00 | |
| DL1XH1-15 | 2026-09-01 00:05:22 | 49.62321 | 8.63111 | 118° | 26km/h | 20056m | 4.9m/s | -52.6°C | 4.3% | 57.9hPa | 2.6V | 03:42:08 | 01:36:56 | 00:00:00 | |
| DL1XH-west | 2026-09-01 00:05:21 | 49.62316 | 8.63127 | 117° | 22km/h | 20066m | 4.5m/s | -52.6°C | 1.2% | 57.8hPa | 2.7V | 03:42:10 | 01:36:58 | 00:00:00 | |
| BIOWL1-15 | 2026-09-01 00:05:17 | 49.62318 | 8.63119 | 118° | 22km/h | 20061m | 4.6m/s | -52.6°C | 1.2% | 57.9hPa | 2.7V | 03:43:01 | 01:36:57 | 00:00:00 | |
| DL1ZP-14 | 2026-09-01 00:05:16 | 49.62321 | 8.63111 | 118° | 24km/h | 20056m | 4.9m/s | -52.6°C | 1.4% | 57.9hPa | 2.6V | 00:00:00 | 00:00:00 | 00:00:00 | |
| SFWM-10 | 2026-09-01 00:05:15 | 49.62321 | 8.63111 | 119° | 26km/h | 20057m | 4.9m/s | -52.6°C | 1.4% | 57.9hPa | 2.6V | 00:00:00 | 00:00:00 | 00:00:00 | |
| DF7PN | 2026-09-01 00:05:12 | 49.62330 | 8.63082 | 109° | 27km/h | 20044m | 3.4m/s | -52.7°C | 1.4% | 58.0hPa | 2.6V | 00:00:00 | 00:00:00 | 00:00:00 | |
| DD1CC8 | 2026-09-01 00:05:09 | 49.62334 | 8.63044 | 91° | 24km/h | 20027m | 4.2m/s | -52.7°C | 1.4% | 58.2hPa | 2.6V | 00:00:00 | 00:00:00 | 00:00:00 | |
| DL1XH1-15 | 2026-09-01 00:05:08 | 49.62335 | 8.63025 | 100° | 27km/h | 20017m | 4.5m/s | -52.8°C | 4.3% | 58.3hPa | 2.6V | 03:42:17 | 01:36:47 | 00:00:00 | |
| BIOWL1-15 | 2026-09-01 00:05:07 | 49.62340 | 8.62995 | 100° | 22km/h | 20004m | 5.1m/s | -52.9°C | 1.1% | 58.4hPa | 2.7V | 03:43:01 | 01:36:44 | 00:00:00 | |
| DL1XH-west | 2026-09-01 00:05:07 | 49.62337 | 8.63014 | 103° | 27km/h | 20013m | 4m/s | -52.9°C | 1.2% | 58.3hPa | 2.6V | 03:43:01 | 01:36:46 | 00:00:00 | |
| DB0ND-19 | 2026-09-01 00:05:06 | 49.62337 | 8.63014 | 103° | 26km/h | 20013m | 4.0m/s | -52.9°C | 1.4% | 58.3hPa | 2.6V | 00:00:00 | 00:00:00 | 00:00:00 | |
| DL1XH1-15 | 2026-09-01 00:05:01 | 49.62336 | 8.62925 | 71° | 27km/h | 19967m | 4.8m/s | -52.7°C | 4.3% | 58.7hPa | 2.6V | 03:42:28 | 01:36:36 | 00:00:00 | |
| DL1XH-west | 2026-09-01 00:04:56 | 49.62338 | 8.62935 | 76° | 27km/h | 19972m | 5.5m/s | -52.8°C | 1.2% | 58.7hPa | 2.6V | 03:43:01 | 01:36:37 | 00:00:00 | |
| BIOWL1-15 | 2026-09-01 00:04:53 | 49.62331 | 8.62905 | 74° | 27km/h | 19958m | 4.2m/s | -52.7°C | 1.2% | 58.8hPa | 2.7V | 03:43:01 | 01:36:34 | 00:00:00 | |
| DL3AQ-11 | 2026-09-01 00:04:53 | 49.62330 | 8.62895 | 79° | 26km/h | 19954m | 5.2m/s | -52.7°C | 1.4% | 58.9hPa | 2.7V | 00:00:00 | 00:00:00 | 00:00:00 | |
| SFWM-10 | 2026-09-01 00:04:52 | 49.62329 | 8.62884 | 85° | 27km/h | 19949m | 4.6m/s | -52.7°C | 1.4% | 58.9hPa | 2.7V | 00:00:00 | 00:00:00 | 00:00:00 | |
| DJ2DS-15 | 2026-09-01 00:04:51 | 49.62327 | 8.62864 | 81° | 26km/h | 19940m | 4.9m/s | -52.6°C | 4.2% | 58.9hPa | 2.7V | 00:00:00 | 01:36:30 | 00:00:00 | |
| DL1XH1-15 | 2026-09-01 00:04:48 | 49.62321 | 8.62835 | 69° | 24km/h | 19926m | 4.1m/s | -52.6°C | 4.2% | 59.1hPa | 2.7V | 03:42:37 | 01:36:27 | 00:00:00 | |
| DL1XH-west | 2026-09-01 00:04:46 | 49.62319 | 8.62826 | 72° | 24km/h | 19921m | 5.3m/s | -52.7°C | 1.1% | 59.1hPa | 2.6V | 03:43:01 | 01:36:26 | 00:00:00 | |
| DL1ZP-14 | 2026-09-01 00:04:46 | 49.62318 | 8.62818 | 73° | 20km/h | 19917m | 4.5m/s | -52.7°C | 1.4% | 59.2hPa | 2.6V | 00:00:00 | 00:00:00 | 00:00:00 | |
| BIOWL1-15 | 2026-09-01 00:04:44 | 49.62301 | 8.62665 | 79° | 24km/h | 19841m | 4.5m/s | -53.6°C | 1.3% | 59.9hPa | 2.6V | 03:43:01 | 01:36:09 | 00:00:00 | |
| DL3AQ-11 | 2026-09-01 00:04:42 | 49.62312 | 8.62794 | 66° | 22km/h | 19903m | 4.2m/s | -52.7°C | 1.4% | 59.3hPa | 2.7V | 00:00:00 | 00:00:00 | 00:00:00 | |
| DL1XH1-15 | 2026-09-01 00:04:41 | 49.62307 | 8.62738 | 83° | 27km/h | 19874m | 5.2m/s | -52.8°C | 4.2% | 59.6hPa | 2.7V | 03:42:48 | 01:36:16 | 00:00:00 | |
| BIOWL1-15 | 2026-09-01 00:04:36 | 49.62300 | 8.62656 | 82° | 24km/h | 19836m | 4.3m/s | -53.7°C | 1.3% | 59.9hPa | 2.6V | 03:43:01 | 01:36:08 | 00:00:00 | |
| DL1XH-west | 2026-09-01 00:04:36 | 49.62306 | 8.62727 | 82° | 29km/h | 19870m | 4.3m/s | -52.9°C | 1.2% | 59.6hPa | 2.6V | 03:43:01 | 01:36:15 | 00:00:00 | |
| DJ2KF-10 | 2026-09-01 00:04:35 | 49.62306 | 8.62727 | 82° | 24km/h | 19870m | 4.3m/s | -52.9°C | 4.2% | 59.6hPa | 2.7V | 00:00:00 | 01:36:15 | 00:00:00 | |
| DB0UT-9 | 2026-09-01 00:04:34 | 49.62306 | 8.62727 | 83° | 29km/h | 19870m | 4.3m/s | -52.9°C | 1.4% | 59.6hPa | 2.7V | 03:43:00 | 00:00:00 | 00:00:00 | |
| DJ3KS | 2026-09-01 00:04:33 | 49.62305 | 8.62716 | 83° | 29km/h | 19865m | 4.5m/s | -53.1°C | 1.5% | 59.7hPa | 2.7V | 00:00:00 | 00:00:00 | 00:00:00 | |
| DO1YAY-16 | 2026-09-01 00:04:32 | 49.62303 | 8.62684 | 84° | 26km/h | 19851m | 4.3m/s | -53.5°C | 0% | 59.8hPa | 2.7V | 00:00:00 | 00:00:00 | 00:00:00 | |
| DB0UT-7 | 2026-09-01 00:04:30 | 49.62302 | 8.62674 | 81° | 26km/h | 19846m | 5.4m/s | -53.5°C | 4.5% | 59.8hPa | 2.7V | 00:00:00 | 00:00:00 | 00:00:00 | |
| DL1XH1-15 | 2026-09-01 00:04:29 | 49.62299 | 8.62647 | 88° | 24km/h | 19832m | 5.7m/s | -53.7°C | 4.5% | 60hPa | 2.7V | 03:42:57 | 01:36:07 | 00:00:00 | |
| DL1XH-west | 2026-09-01 00:04:24 | 49.62302 | 8.62619 | 97° | 26km/h | 19817m | 4.8m/s | -53.7°C | 1.3% | 60.1hPa | 2.6V | 03:43:01 | 01:36:04 | 00:00:00 | |
| DL1XH1-15 | 2026-09-01 00:04:22 | 49.62307 | 8.62536 | 89° | 27km/h | 19781m | 5.2m/s | -53.5°C | 4.5% | 60.5hPa | 2.6V | 03:43:08 | 01:35:56 | 00:00:00 | |
| BIOWL1-15 | 2026-09-01 00:04:19 | 49.62307 | 8.62526 | 83° | 26km/h | 19776m | 4.1m/s | -53.6°C | 1.3% | 60.5hPa | 2.6V | 03:43:52 | 01:35:55 | 00:00:00 | |
| DL1XH-west | 2026-09-01 00:04:12 | 49.62304 | 8.62502 | 80° | 16km/h | 19763m | 4.8m/s | -53.6°C | 1.3% | 60.6hPa | 2.6V | 03:43:52 | 01:35:52 | 00:00:00 | |
| DF7PN | 2026-09-01 00:04:10 | 49.62303 | 8.62492 | 76° | 13km/h | 19755m | 3.9m/s | -53.5°C | 1.5% | 60.7hPa | 2.6V | 00:00:00 | 00:00:00 | 00:00:00 | |
| DJ2DS-15 | 2026-09-01 00:04:09 | 49.62303 | 8.62492 | 77° | 18km/h | 19755m | 3.9m/s | -53.5°C | 4.5% | 60.6hPa | 2.6V | 00:00:00 | 01:35:50 | 00:00:00 | |
| DL1XH1-15 | 2026-09-01 00:04:08 | 49.62299 | 8.62474 | 66° | 20km/h | 19741m | 4.2m/s | -53.6°C | 4.4% | 60.8hPa | 2.6V | 03:43:17 | 01:35:47 | 00:00:00 | |
| BIOWL1-15 | 2026-09-01 00:04:07 | 49.62300 | 8.62480 | 67° | 18km/h | 19745m | 4.7m/s | -53.6°C | 1.3% | 60.8hPa | 2.7V | 03:43:52 | 01:35:48 | 00:00:00 | |
| DL1XH-west | 2026-09-01 00:04:02 | 49.62293 | 8.62436 | 76° | 22km/h | 19719m | 5m/s | -53.7°C | 1.3% | 61hPa | 2.6V | 03:43:52 | 01:35:42 | 00:00:00 | |
| DL1XH1-15 | 2026-09-01 00:04:02 | 49.62283 | 8.62397 | 65° | 18km/h | 19696m | 3.8m/s | -53.9°C | 4.4% | 61.2hPa | 2.6V | 03:43:27 | 01:35:37 | 00:00:00 | |
| BIOWL1-15 | 2026-09-01 00:03:59 | 49.62270 | 8.62378 | 30° | 20km/h | 19679m | 4m/s | -53.8°C | 1.2% | 61.4hPa | 2.7V | 03:43:52 | 01:35:33 | 00:00:00 | |
| DL1XH-west | 2026-09-01 00:03:52 | 49.62266 | 8.62374 | 32° | 20km/h | 19675m | 4.3m/s | -53.9°C | 1.3% | 61.5hPa | 2.7V | 03:43:52 | 01:35:32 | 00:00:00 | |
| BIOWL1-15 | 2026-09-01 00:03:46 | 49.62242 | 8.62330 | 58° | 24km/h | 19646m | 4.9m/s | -54°C | 1.2% | 61.7hPa | 2.7V | 03:43:52 | 01:35:25 | 00:00:00 | |
| DL1XH-west | 2026-09-01 00:03:42 | 49.62234 | 8.62307 | 59° | 22km/h | 19633m | 4.6m/s | -54.3°C | 1.3% | 61.9hPa | 2.6V | 03:43:52 | 01:35:22 | 00:00:00 | |
| BIOWL1-15 | 2026-09-01 00:03:34 | 49.62212 | 8.62261 | 53° | 24km/h | 19603m | 4.8m/s | -54.7°C | 1.4% | 62.1hPa | 2.7V | 03:43:52 | 01:35:15 | 00:00:00 | |
| DL1XH-west | 2026-09-01 00:03:31 | 49.62199 | 8.62229 | 69° | 24km/h | 19586m | 4.6m/s | -54.6°C | 1.4% | 62.3hPa | 2.7V | 03:44:43 | 01:35:11 | 00:00:00 | |
| DL1XH1-15 | 2026-09-01 00:03:29 | 49.62192 | 8.62200 | 65° | 16km/h | 19569m | 3.1m/s | -54.4°C | 4.7% | 62.5hPa | 2.6V | 03:43:57 | 01:35:07 | 00:00:00 | |
| BIOWL1-15 | 2026-09-01 00:03:27 | 49.62190 | 8.62190 | 78° | 11km/h | 19561m | 5.1m/s | -54.3°C | 1.4% | 62.6hPa | 2.7V | 03:44:43 | 01:35:05 | 00:00:00 | |
| DL3AQ-11 | 2026-09-01 00:03:25 | 49.62196 | 8.62084 | 89° | 9km/h | 19479m | 3.5m/s | -54.0°C | 1.5% | 63.4hPa | 2.7V | 00:00:00 | 00:00:00 | 00:00:00 | |
| KANTATE | 2026-09-01 00:03:24 | 49.62197 | 8.62076 | 106° | 11km/h | 19471m | 4.6m/s | -53.9°C | 1.5% | 63.5hPa | 2.7V | 00:00:00 | 00:00:00 | 00:00:00 | |
| DL9PN | 2026-09-01 00:03:23 | 49.62198 | 8.62061 | 87° | 15km/h | 19458m | 4.8m/s | -53.9°C | 1.5% | 63.6hPa | 2.7V | 00:00:00 | 00:00:00 | 00:00:00 | |
| DL1XH1-15 | 2026-09-01 00:03:22 | 49.62188 | 8.62148 | 101° | 18km/h | 19526m | 4.6m/s | -54.1°C | 4.6% | 62.9hPa | 2.7V | 03:44:07 | 01:34:57 | 00:00:00 | |
| DB0ND-19 | 2026-09-01 00:03:22 | 49.62198 | 8.62066 | 97° | 13km/h | 19463m | 3.7m/s | -53.9°C | 1.5% | 63.5hPa | 2.6V | 00:00:00 | 00:00:00 | 00:00:00 | |
| DL1XH-west | 2026-09-01 00:03:21 | 49.62189 | 8.62174 | 76° | 15km/h | 19543m | 4.5m/s | -54.2°C | 1.4% | 62.8hPa | 2.6V | 03:44:43 | 01:35:01 | 00:00:00 | |
| BIOWL9-15 | 2026-09-01 00:03:18 | 49.62223 | 8.61809 | 89° | 31km/h | 19328m | 4.6m/s | -54.4°C | 1.5% | 64.9hPa | 2.7V | 00:00:00 | 00:00:00 | 00:00:00 | |
| DJ2KF-10 | 2026-09-01 00:03:17 | 49.62197 | 8.62047 | 84° | 22km/h | 19450m | 3.9m/s | -53.8°C | 4.6% | 63.6hPa | 2.7V | 00:00:00 | 01:34:39 | 00:00:00 | |
| SFWM-10 | 2026-09-01 00:03:16 | 49.62197 | 8.62032 | 102° | 20km/h | 19441m | 4.5m/s | -53.9°C | 1.5% | 63.7hPa | 2.7V | 00:00:00 | 00:00:00 | 00:00:00 | |
| DL3AQ-11 | 2026-09-01 00:03:15 | 49.62202 | 8.62013 | 112° | 13km/h | 19429m | 4.8m/s | -53.9°C | 1.5% | 63.9hPa | 2.7V | 00:00:00 | 00:00:00 | 00:00:00 | |
| BIOWL1-15 | 2026-09-01 00:03:13 | 49.62197 | 8.62071 | 105° | 13km/h | 19466m | 3.5m/s | -53.9°C | 1.3% | 63.5hPa | 2.7V | 03:44:43 | 01:34:43 | 00:00:00 | |
| DL1XH-west | 2026-09-01 00:03:11 | 49.62193 | 8.62101 | 113° | 15km/h | 19496m | 4.3m/s | -54°C | 1.4% | 63.2hPa | 2.6V | 03:44:43 | 01:34:50 | 00:00:00 | |
| DJ2DS-15 | 2026-09-01 00:03:11 | 49.62208 | 8.61994 | 120° | 24km/h | 19411m | 4.5m/s | -54.0°C | 4.5% | 64.0hPa | 2.7V | 00:00:00 | 01:34:30 | 00:00:00 | |
| DB0UT-9 | 2026-09-01 00:03:10 | 49.62208 | 8.61994 | 121° | 16km/h | 19411m | 4.6m/s | -54.0°C | 1.5% | 64.0hPa | 2.7V | 03:44:00 | 00:00:00 | 00:00:00 | |
| DF3TZ-5 | 2026-09-01 00:03:08 | 49.62212 | 8.61946 | 94° | 26km/h | 19385m | 5.4m/s | -53.9°C | -1.0% | -1.0hPa | 2.7V | 00:00:00 | 00:00:00 | 00:00:00 | |
| BIOWL1-15 | 2026-09-01 00:03:06 | 49.62198 | 8.62066 | 97° | 15km/h | 19463m | 3.7m/s | -53.9°C | 1.3% | 63.5hPa | 2.7V | 03:44:43 | 01:34:42 | 00:00:00 | |
| DL1XH1-15 | 2026-09-01 00:03:03 | 49.62199 | 8.62025 | 108° | 18km/h | 19436m | 3.5m/s | -53.9°C | 4.6% | 63.8hPa | 2.6V | 03:44:28 | 01:34:36 | 00:00:00 | |
| DL1XH-west | 2026-09-01 00:03:01 | 49.62199 | 8.62025 | 108° | 18km/h | 19436m | 3.5m/s | -53.9°C | 1.3% | 63.8hPa | 2.6V | 03:44:43 | 01:34:36 | 00:00:00 | |
| DL3AQ-11 | 2026-09-01 00:03:00 | 49.62213 | 8.61936 | 99° | 26km/h | 19380m | 4.3m/s | -53.9°C | 1.5% | 64.3hPa | 2.7V | 00:00:00 | 00:00:00 | 00:00:00 | |
| AM1SDL-15 | 2026-09-01 00:02:57 | 49.62216 | 8.61916 | 101° | 26km/h | 19372m | 4.5m/s | 0°C | 0% | 0hPa | 2.7V | 00:00:00 | 01:34:21 | 00:00:00 | |
| DL1ZP-14 | 2026-09-01 00:02:53 | 49.62217 | 8.61907 | 100° | 22km/h | 19368m | 4.2m/s | -53.9°C | 1.5% | 64.5hPa | 2.7V | 00:00:00 | 00:00:00 | 00:00:00 | |
| BIOWL1-15 | 2026-09-01 00:02:50 | 49.62206 | 8.62000 | 122° | 15km/h | 19416m | 5.3m/s | -54°C | 1.3% | 64hPa | 2.6V | 03:44:43 | 01:34:31 | 00:00:00 | |
| DL1XH1-15 | 2026-09-01 00:02:49 | 49.62212 | 8.61974 | 93° | 20km/h | 19397m | 4.6m/s | -54°C | 4.5% | 64.2hPa | 2.7V | 03:44:37 | 01:34:27 | 00:00:00 | |
| DL1XH-west | 2026-09-01 00:02:48 | 49.62210 | 8.61988 | 113° | 18km/h | 19407m | 3.8m/s | -54°C | 1.3% | 64.1hPa | 2.6V | 03:44:43 | 01:34:29 | 00:00:00 | |
| DF7PN | 2026-09-01 00:02:48 | 49.62221 | 8.61882 | 111° | 22km/h | 19355m | 4.6m/s | -54.0°C | 1.5% | 64.6hPa | 2.6V | 00:00:00 | 00:00:00 | 00:00:00 | |
| HEMX73-11 | 2026-09-01 00:02:47 | 49.62221 | 8.61882 | 112° | 22km/h | 19356m | 4.6m/s | -54.0°C | 1.5% | 64.6hPa | 2.6V | 03:45:00 | 00:00:00 | 00:00:00 | |
| DL8DAS-15 | 2026-09-01 00:02:46 | 49.62225 | 8.61864 | 103° | 26km/h | 19348m | 3.5m/s | -54.1°C | 1.5% | 64.7hPa | 2.6V | 03:45:00 | 00:00:00 | 00:00:00 | |
| DD1CC8 | 2026-09-01 00:02:45 | 49.62226 | 8.61854 | 93° | 26km/h | 19344m | 4.7m/s | -54.2°C | 1.5% | 64.7hPa | 2.6V | 00:00:00 | 00:00:00 | 00:00:00 | |
| DL9PN | 2026-09-01 00:02:44 | 49.62225 | 8.61833 | 81° | 29km/h | 19336m | 3.4m/s | -54.3°C | 1.5% | 64.8hPa | 2.6V | 00:00:00 | 00:00:00 | 00:00:00 | |
| DL1XH1-15 | 2026-09-01 00:02:43 | 49.62223 | 8.61874 | 109° | 24km/h | 19351m | 3.6m/s | -54°C | 4.5% | 64.6hPa | 2.6V | 03:44:48 | 01:34:16 | 00:00:00 | |
| DJ2DS-15 | 2026-09-01 00:02:42 | 49.62223 | 8.61808 | 90° | 35km/h | 19328m | 4.5m/s | -54.3°C | 4.5% | 64.8hPa | 2.6V | 00:00:00 | 01:34:10 | 00:00:00 | |
| DJ2KF-10 | 2026-09-01 00:02:41 | 49.62224 | 8.61796 | 97° | 35km/h | 19323m | 4.7m/s | -54.4°C | 4.6% | 64.9hPa | 2.6V | 00:00:00 | 01:34:09 | 00:00:00 | |
| BIOWL1-15 | 2026-09-01 00:02:40 | 49.62226 | 8.61844 | 85° | 27km/h | 19339m | 4.2m/s | -54.2°C | 1.3% | 64.8hPa | 2.6V | 03:45:34 | 01:34:13 | 00:00:00 | |
| BIOWL9-15 | 2026-09-01 00:02:39 | 49.62225 | 8.61783 | 101° | 33km/h | 19319m | 4.2m/s | -54.6°C | 1.5% | 65.0hPa | 2.7V | 00:00:00 | 00:00:00 | 00:00:00 | |
| DL1XH-west | 2026-09-01 00:02:38 | 49.62225 | 8.61864 | 102° | 26km/h | 19348m | 3.5m/s | -54.1°C | 1.2% | 64.7hPa | 2.7V | 03:45:34 | 01:34:15 | 00:00:00 | |
| DO1YAY-16 | 2026-09-01 00:02:35 | 49.62227 | 8.61770 | 104° | 33km/h | 19315m | 3.7m/s | -54.6°C | 1.6% | 65.0hPa | 2.6V | 00:00:00 | 00:00:00 | 00:00:00 | |
| DL8DAS-15 | 2026-09-01 00:02:31 | 49.62231 | 8.61746 | 100° | 29km/h | 19306m | 4.8m/s | -54.8°C | 1.6% | 65.1hPa | 2.6V | 03:45:00 | 00:00:00 | 00:00:00 | |
| DL1XH1-15 | 2026-09-01 00:02:30 | 49.62229 | 8.61758 | 103° | 31km/h | 19311m | 4m/s | -54.7°C | 4.6% | 65.1hPa | 2.6V | 03:44:58 | 01:34:06 | 00:00:00 | |
| DL1XH-west | 2026-09-01 00:02:26 | 49.62229 | 8.61758 | 104° | 31km/h | 19311m | 4m/s | -54.7°C | 1.3% | 65.1hPa | 2.6V | 03:45:34 | 01:34:06 | 00:00:00 | |
| BIOWL7-15 | 2026-09-01 00:02:24 | 49.62231 | 8.61681 | 93° | 42km/h | 19284m | 4.2m/s | -54.9°C | 1.6% | 65.3hPa | 2.6V | 00:00:00 | 00:00:00 | 00:00:00 | |
| DL1XH1-15 | 2026-09-01 00:02:22 | 49.62234 | 8.61617 | 95° | 37km/h | 19267m | 4.2m/s | -54.8°C | 4.8% | 65.5hPa | 2.6V | 03:45:08 | 01:33:56 | 00:00:00 | |
| AM1SDL-15 | 2026-09-01 00:02:21 | 49.62233 | 8.61632 | 95° | 35km/h | 19271m | 4.6m/s | 0°C | 0% | 0hPa | 2.6V | 00:00:00 | 01:33:57 | 00:00:00 | |
| BIOWL1-15 | 2026-09-01 00:02:20 | 49.62233 | 8.61632 | 94° | 38km/h | 19271m | 4.6m/s | -54.8°C | 1.4% | 65.5hPa | 2.6V | 03:45:34 | 01:33:57 | 00:00:00 | |
| DF3TZ-5 | 2026-09-01 00:02:19 | 49.62234 | 8.61617 | 95° | 37km/h | 19267m | 4.2m/s | -54.8°C | -1.0% | -1.0hPa | 2.6V | 00:00:00 | 00:00:00 | 00:00:00 | |
| HEMX73-11 | 2026-09-01 00:02:17 | 49.62234 | 8.61617 | 96° | 37km/h | 19267m | 4.2m/s | -54.8°C | 1.6% | 65.5hPa | 2.6V | 03:45:00 | 00:00:00 | 00:00:00 | |
| DL1XH-west | 2026-09-01 00:02:15 | 49.62234 | 8.61617 | 95° | 37km/h | 19267m | 4.2m/s | -54.8°C | 1.4% | 65.5hPa | 2.6V | 03:45:34 | 01:33:56 | 00:00:00 | |
| DL8DAS-14 | 2026-09-01 00:02:12 | 49.62239 | 8.61539 | 95° | 29km/h | 19238m | 4.7m/s | -54.7°C | 1.6% | 65.8hPa | 2.7V | 00:00:00 | 00:00:00 | 00:00:00 | |
| DJ2DS-15 | 2026-09-01 00:02:11 | 49.62238 | 8.61539 | 96° | 31km/h | 19238m | 4.6m/s | -54.7°C | 4.8% | 65.7hPa | 2.7V | 00:00:00 | 01:33:50 | 00:00:00 | |
| BIOWL1-15 | 2026-09-01 00:02:09 | 49.62241 | 8.61502 | 96° | 35km/h | 19225m | 5.1m/s | -54.6°C | 1.4% | 65.9hPa | 2.6V | 03:45:34 | 01:33:47 | 00:00:00 | |
| DF7PN | 2026-09-01 00:02:07 | 49.62242 | 8.61489 | 94° | 35km/h | 19220m | 4.3m/s | -54.6°C | 1.6% | 66.0hPa | 2.7V | 00:00:00 | 00:00:00 | 00:00:00 | |
| DL1XH-west | 2026-09-01 00:02:06 | 49.62243 | 8.61461 | 94° | 33km/h | 19211m | 5.2m/s | -54.5°C | 1.4% | 66.1hPa | 2.7V | 03:45:34 | 01:33:44 | 00:00:00 | |
| AM1SDL-15 | 2026-09-01 00:02:05 | 49.62242 | 8.61475 | 95° | 33km/h | 19216m | 4.3m/s | 0°C | 0% | 0hPa | 2.6V | 03:45:00 | 01:33:45 | 00:00:00 | |
| DL1XH1-15 | 2026-09-01 00:02:02 | 49.62242 | 8.61361 | 84° | 27km/h | 19173m | 4.9m/s | -54.5°C | 4.7% | 66.4hPa | 2.6V | 03:45:28 | 01:33:36 | 00:00:00 | |
| DL3AQ-11 | 2026-09-01 00:02:00 | 49.62243 | 8.61235 | 93° | 20km/h | 19115m | 3.9m/s | -54.3°C | 1.6% | 67.1hPa | 2.6V | 00:00:00 | 00:00:00 | 00:00:00 | |
| BIOWL1-15 | 2026-09-01 00:01:58 | 49.62240 | 8.61295 | 93° | 27km/h | 19144m | 4.1m/s | -54.4°C | 1.4% | 66.7hPa | 2.6V | 03:45:34 | 01:33:30 | 00:00:00 | |
| DL1XH-west | 2026-09-01 00:01:53 | 49.62239 | 8.61305 | 91° | 27km/h | 19148m | 4.2m/s | -54.5°C | 1.4% | 66.7hPa | 2.6V | 03:45:34 | 01:33:31 | 00:00:00 | |
| DL8DAS-14 | 2026-09-01 00:01:52 | 49.62239 | 8.61195 | 65° | 18km/h | 19089m | 5.9m/s | -54.1°C | 1.5% | 67.3hPa | 2.7V | 00:00:00 | 00:00:00 | 00:00:00 | |
| BIOWL1-15 | 2026-09-01 00:01:49 | 49.62241 | 8.61273 | 95° | 29km/h | 19134m | 4.9m/s | -54.4°C | 1.4% | 66.9hPa | 2.7V | 03:46:25 | 01:33:28 | 00:00:00 | |
| DL1ZP-14 | 2026-09-01 00:01:49 | 49.62237 | 8.61189 | 63° | 16km/h | 19084m | 4.8m/s | -54.1°C | 1.6% | 67.4hPa | 2.6V | 00:00:00 | 00:00:00 | 00:00:00 | |
| DL1XH1-15 | 2026-09-01 00:01:48 | 49.62242 | 8.61252 | 96° | 24km/h | 19124m | 5.5m/s | -54.4°C | 4.8% | 67hPa | 2.6V | 03:45:38 | 01:33:26 | 00:00:00 | |
| DL8DAS-15 | 2026-09-01 00:01:47 | 49.62237 | 8.61188 | 64° | 18km/h | 19084m | 4.8m/s | -54.1°C | 1.6% | 67.4hPa | 2.7V | 03:46:00 | 00:00:00 | 00:00:00 | |
| DF7PN | 2026-09-01 00:01:45 | 49.62232 | 8.61167 | 80° | 20km/h | 19069m | 4.6m/s | -54.0°C | 1.6% | 67.5hPa | 2.7V | 00:00:00 | 00:00:00 | 00:00:00 | |
| DB0UT-9 | 2026-09-01 00:01:44 | 49.62233 | 8.61175 | 74° | 20km/h | 19074m | 5.4m/s | -54.0°C | 1.6% | 67.5hPa | 2.7V | 03:46:00 | 00:00:00 | 00:00:00 | |
| HEMX73-11 | 2026-09-01 00:01:43 | 49.62232 | 8.61167 | 82° | 22km/h | 19069m | 4.6m/s | -54.0°C | 1.6% | 67.6hPa | 2.7V | 03:46:00 | 00:00:00 | 00:00:00 | |
| AM1SDL-15 | 2026-09-01 00:01:42 | 49.62232 | 8.61159 | 84° | 20km/h | 19065m | 3.6m/s | 0°C | 0% | 0hPa | 2.7V | 00:00:00 | 01:33:14 | 00:00:00 | |
| DL1XH1-15 | 2026-09-01 00:01:41 | 49.62233 | 8.61175 | 73° | 20km/h | 19074m | 5.4m/s | -54°C | 4.7% | 67.5hPa | 2.7V | 03:45:48 | 01:33:16 | 00:00:00 | |
| DL1XH-west | 2026-09-01 00:01:40 | 49.62242 | 8.61210 | 79° | 22km/h | 19100m | 4.4m/s | -54.2°C | 1.3% | 67.2hPa | 2.7V | 03:46:25 | 01:33:21 | 00:00:00 | |
| DJ2DS-15 | 2026-09-01 00:01:39 | 49.62228 | 8.61129 | 79° | 16km/h | 19046m | 4.4m/s | -53.8°C | 4.7% | 67.7hPa | 2.7V | 00:00:00 | 01:33:10 | 00:00:00 | |
| DJ2KF-10 | 2026-09-01 00:01:38 | 49.62227 | 8.61122 | 83° | 16km/h | 19041m | 5.7m/s | -53.7°C | 4.6% | 67.8hPa | 2.7V | 00:00:00 | 01:33:09 | 00:00:00 | |
| BIOWL9-15 | 2026-09-01 00:01:36 | 49.62226 | 8.61101 | 77° | 18km/h | 19027m | 4.6m/s | -53.7°C | 1.6% | 68.0hPa | 2.7V | 00:00:00 | 00:00:00 | 00:00:00 | |
| DO1YAY-16 | 2026-09-01 00:01:33 | 49.62224 | 8.61094 | 67° | 16km/h | 19022m | 5.5m/s | -53.6°C | 1.5% | 68.0hPa | 2.7V | 00:00:00 | 00:00:00 | 00:00:00 | |
| DL1XH-west | 2026-09-01 00:01:30 | 49.62217 | 8.61071 | 79° | 16km/h | 19002m | 4.7m/s | -53.5°C | 1.3% | 68.2hPa | 2.7V | 03:46:25 | 01:33:01 | 00:00:00 | |
| DL1XH1-15 | 2026-09-01 00:01:28 | 49.62226 | 8.61101 | 77° | 18km/h | 19027m | 4.6m/s | -53.7°C | 4.6% | 68hPa | 2.7V | 03:45:58 | 01:33:06 | 00:00:00 | |
| DB0UT-7 | 2026-09-01 00:01:27 | 49.62217 | 8.61071 | 79° | 16km/h | 19002m | 4.6m/s | -53.4°C | 4.6% | 68.2hPa | 2.7V | 00:00:00 | 00:00:00 | 00:00:00 | |
| AM1SDL-15 | 2026-09-01 00:01:26 | 49.62217 | 8.61065 | 81° | 16km/h | 18998m | 4.0m/s | 0°C | 0% | 0hPa | 2.6V | 00:00:00 | 01:33:00 | 00:00:00 | |
| BIOWL1-15 | 2026-09-01 00:01:24 | 49.62199 | 8.61001 | 53° | 15km/h | 18945m | 4.7m/s | -53°C | 1.3% | 68.8hPa | 2.6V | 03:46:25 | 01:32:49 | 00:00:00 | |
| DL1XH-west | 2026-09-01 00:01:19 | 49.62216 | 8.61059 | 76° | 15km/h | 18994m | 4.9m/s | -53.4°C | 1.3% | 68.3hPa | 2.6V | 03:46:25 | 01:32:59 | 00:00:00 | |
| DB0UT-9 | 2026-09-01 00:01:18 | 49.62211 | 8.61042 | 62° | 18km/h | 18979m | 4.3m/s | -53.3°C | 1.6% | 68.5hPa | 2.6V | 03:46:00 | 00:00:00 | 00:00:00 | |
| HEMX73-11 | 2026-09-01 00:01:17 | 49.62207 | 8.61030 | 74° | 16km/h | 18969m | 5.2m/s | -53.2°C | 1.5% | 68.6hPa | 2.6V | 03:46:00 | 00:00:00 | 00:00:00 | |
| DJ2DS-15 | 2026-09-01 00:01:12 | 49.62201 | 8.61006 | 55° | 16km/h | 18950m | 4.6m/s | -53.0°C | 4.5% | 68.7hPa | 2.6V | 00:00:00 | 01:32:50 | 00:00:00 | |
| DL8DAS-14 | 2026-09-01 00:01:11 | 49.62197 | 8.60997 | 54° | 13km/h | 18941m | 5.2m/s | -53.0°C | 1.5% | 68.9hPa | 2.7V | 00:00:00 | 00:00:00 | 00:00:00 | |
| DL1XH1-15 | 2026-09-01 00:01:08 | 49.62193 | 8.60988 | 51° | 15km/h | 18932m | 3.6m/s | -52.9°C | 4.4% | 69hPa | 2.7V | 03:46:18 | 01:32:46 | 00:00:00 | |
| DL1XH-west | 2026-09-01 00:01:07 | 49.62197 | 8.60997 | 54° | 13km/h | 18941m | 5.2m/s | -53°C | 1.3% | 68.9hPa | 2.6V | 03:46:25 | 01:32:48 | 00:00:00 | |
| DF7PN | 2026-09-01 00:01:05 | 49.62187 | 8.60978 | 48° | 18km/h | 18923m | 4.5m/s | -52.8°C | 1.5% | 69.1hPa | 2.6V | 00:00:00 | 00:00:00 | 00:00:00 | |
| DL3AQ-11 | 2026-09-01 00:01:04 | 49.62187 | 8.60978 | 48° | 18km/h | 18923m | 4.5m/s | -52.8°C | 1.5% | 69.1hPa | 2.6V | 00:00:00 | 00:00:00 | 00:00:00 | |
| KANTATE | 2026-09-01 00:01:03 | 49.62190 | 8.60983 | 48° | 16km/h | 18928m | 5.2m/s | -52.9°C | 1.5% | 69.0hPa | 2.6V | 00:00:00 | 00:00:00 | 00:00:00 | |
| DB0ND-19 | 2026-09-01 00:01:02 | 49.62175 | 8.60935 | 66° | 20km/h | 18896m | 5.2m/s | -52.6°C | 1.5% | 69.4hPa | 2.6V | 00:00:00 | 00:00:00 | 00:00:00 | |
| DL1XH1-15 | 2026-09-01 00:01:01 | 49.62165 | 8.60912 | 51° | 15km/h | 18878m | 4.1m/s | -52.4°C | 4.4% | 69.6hPa | 2.6V | 03:46:30 | 01:32:34 | 00:00:00 | |
| HEMX73-11 | 2026-09-01 00:00:59 | 49.62165 | 8.60912 | 52° | 15km/h | 18878m | 4.1m/s | -52.4°C | 1.5% | 69.6hPa | 2.6V | 03:47:00 | 00:00:00 | 00:00:00 | |
| DL1XH-west | 2026-09-01 00:00:57 | 49.62168 | 8.60917 | 58° | 16km/h | 18882m | 5.2m/s | -52.5°C | 1.2% | 69.5hPa | 2.6V | 03:47:16 | 01:32:35 | 00:00:00 | |
| AM1SDL-15 | 2026-09-01 00:00:56 | 49.62157 | 8.60901 | 34° | 16km/h | 18864m | 4.4m/s | 0°C | 0% | 0hPa | 2.6V | 00:00:00 | 01:32:31 | 00:00:00 | |
| DB0UT-7 | 2026-09-01 00:00:55 | 49.62157 | 8.60901 | 34° | 22km/h | 18864m | 4.4m/s | -52.3°C | 4.3% | 69.7hPa | 2.6V | 00:00:00 | 01:32:31 | 00:00:00 | |
| DJ2DS-15 | 2026-09-01 00:00:53 | 49.62154 | 8.60897 | 38° | 16km/h | 18860m | 4.0m/s | -52.2°C | 4.3% | 69.7hPa | 2.6V | 00:00:00 | 01:32:30 | 00:00:00 | |
| DL8DAS-15 | 2026-09-01 00:00:52 | 49.62153 | 8.60897 | 39° | 16km/h | 18860m | 4.0m/s | -52.3°C | 1.5% | 69.8hPa | 2.6V | 03:47:00 | 00:00:00 | 00:00:00 | |
| DL1XH1-15 | 2026-09-01 00:00:45 | 49.62142 | 8.60866 | 61° | 18km/h | 18832m | 4.5m/s | -52.1°C | 4.2% | 70.1hPa | 2.6V | 03:46:40 | 01:32:24 | 00:00:00 | |
| DL1XH-west | 2026-09-01 00:00:45 | 49.62142 | 8.60866 | 61° | 18km/h | 18832m | 4.5m/s | -52.1°C | 1.1% | 70.1hPa | 2.6V | 03:47:16 | 01:32:24 | 00:00:00 | |
| DJ2DS-15 | 2026-09-01 00:00:45 | 49.62142 | 8.60866 | 61° | 18km/h | 18832m | 4.5m/s | -52.1°C | 1.4% | 70.1hPa | 2.7V | 00:00:00 | 00:00:00 | 00:00:00 | |
| BIOWL1-15 | 2026-09-01 00:00:44 | 49.62064 | 8.60646 | 73° | 24km/h | 18677m | 4.6m/s | -52.6°C | 1.1% | 71.8hPa | 2.7V | 03:47:16 | 01:31:51 | 00:00:00 | |
| DL3AQ-11 | 2026-09-01 00:00:41 | 49.62133 | 8.60844 | 58° | 13km/h | 18813m | 4.5m/s | -52.0°C | 1.4% | 70.3hPa | 2.7V | 00:00:00 | 00:00:00 | 00:00:00 | |
| AM1SDL-15 | 2026-09-01 00:00:40 | 49.62131 | 8.60839 | 61° | 18km/h | 18809m | 4.6m/s | 0°C | 0% | 0hPa | 2.7V | 00:00:00 | 01:32:19 | 00:00:00 | |
| DL8DAS-14 | 2026-09-01 00:00:37 | 49.62127 | 8.60828 | 56° | 18km/h | 18799m | 4.0m/s | -52.0°C | 1.4% | 70.4hPa | 2.7V | 00:00:00 | 00:00:00 | 00:00:00 | |
| DL1ZP-14 | 2026-09-01 00:00:36 | 49.62124 | 8.60822 | 58° | 18km/h | 18795m | 3.7m/s | -52.0°C | 1.4% | 70.5hPa | 2.7V | 00:00:00 | 00:00:00 | 00:00:00 | |
| DL1XH1-15 | 2026-09-01 00:00:33 | 49.62120 | 8.60810 | 60° | 16km/h | 18785m | 4.7m/s | -52.1°C | 4.1% | 70.6hPa | 2.6V | 03:46:50 | 01:32:14 | 00:00:00 | |
| DL1XH-west | 2026-09-01 00:00:33 | 49.62120 | 8.60810 | 60° | 16km/h | 18785m | 4.7m/s | -52.1°C | 1.1% | 70.6hPa | 2.6V | 03:47:16 | 01:32:14 | 00:00:00 | |
| BIOWL1-15 | 2026-09-01 00:00:32 | 49.62061 | 8.60628 | 75° | 22km/h | 18667m | 5.3m/s | -52.7°C | 1.1% | 71.9hPa | 2.6V | 03:47:16 | 01:31:49 | 00:00:00 | |
| DJ2KF-10 | 2026-09-01 00:00:30 | 49.62108 | 8.60776 | 62° | 22km/h | 18763m | 4.4m/s | -52.0°C | 4.1% | 70.8hPa | 2.6V | 00:00:00 | 01:32:09 | 00:00:00 | |
| DL9PN | 2026-09-01 00:00:29 | 49.62104 | 8.60763 | 67° | 16km/h | 18753m | 4.5m/s | -52.0°C | 1.4% | 70.9hPa | 2.6V | 00:00:00 | 00:00:00 | 00:00:00 | |
| BIOWL9-15 | 2026-09-01 00:00:28 | 49.62098 | 8.60743 | 63° | 20km/h | 18739m | 4.8m/s | -52.0°C | 1.4% | 71.1hPa | 2.6V | 00:00:00 | 00:00:00 | 00:00:00 | |
| DL1XH-west | 2026-09-01 00:00:23 | 49.62068 | 8.60662 | 68° | 22km/h | 18686m | 4.2m/s | -52.6°C | 1.1% | 71.7hPa | 2.6V | 03:47:16 | 01:31:53 | 00:00:00 | |
| BIOWL1-15 | 2026-09-01 00:00:19 | 49.62060 | 8.60620 | 77° | 20km/h | 18663m | 4.6m/s | -52.8°C | 1.1% | 71.9hPa | 2.6V | 03:47:16 | 01:31:48 | 00:00:00 | |
| HSKMA3-T | 2026-09-01 00:00:18 | 49.62073 | 8.60677 | 62° | 22km/h | 18695m | 5.1m/s | -52.5°C | 1.1% | 0hPa | 2.6V | 03:54:04 | 01:31:55 | 00:00:00 | |
| DF3TZ-5 | 2026-09-01 00:00:18 | 49.62066 | 8.60654 | 71° | 22km/h | 18681m | 5.3m/s | -52.6°C | 1.4% | 71.7hPa | 2.6V | 00:00:00 | 00:00:00 | 00:00:00 | |
| DL1XH1-15 | 2026-09-01 00:00:17 | 49.62070 | 8.60670 | 65° | 20km/h | 18690m | 4.1m/s | -52.5°C | 4.1% | 71.6hPa | 2.6V | 03:47:10 | 01:31:54 | 00:00:00 | |
| DL3AQ-11 | 2026-09-01 00:00:14 | 49.62064 | 8.60646 | 73° | 24km/h | 18677m | 4.6m/s | -52.6°C | 1.4% | 71.8hPa | 2.7V | 00:00:00 | 00:00:00 | 00:00:00 | |
| DL1XH-west | 2026-09-01 00:00:12 | 49.62066 | 8.60654 | 71° | 24km/h | 18681m | 5.3m/s | -52.6°C | 1% | 71.7hPa | 2.7V | 03:47:16 | 01:31:52 | 00:00:00 | |
| DJ2DS-15 | 2026-09-01 00:00:09 | 49.62062 | 8.60636 | 75° | 29km/h | 18672m | 4.0m/s | -52.6°C | 4.1% | 71.8hPa | 2.6V | 00:00:00 | 01:31:50 | 00:00:00 | |
| DL1XH1-15 | 2026-09-01 00:00:08 | 49.62053 | 8.60586 | 64° | 26km/h | 18643m | 4.2m/s | -53.5°C | 4.4% | 72.1hPa | 2.6V | 03:47:20 | 01:31:44 | 00:00:00 | |
| DJ2DS-15 | 2026-09-01 00:00:08 | 49.62060 | 8.60620 | 77° | 20km/h | 18663m | 4.6m/s | -52.8°C | 1.4% | 71.9hPa | 2.6V | 00:00:00 | 00:00:00 | 00:00:00 | |
| HSKMA3-T | 2026-09-01 00:00:05 | 49.62055 | 8.60595 | 69° | 26km/h | 18648m | 4.9m/s | -53.2°C | 1.2% | 0hPa | 2.6V | 03:54:04 | 01:31:45 | 00:00:00 | |
| DL1ZP-14 | 2026-09-01 00:00:04 | 49.62055 | 8.60595 | 69° | 24km/h | 18648m | 4.9m/s | -53.2°C | 1.4% | 72.1hPa | 2.6V | 00:00:00 | 00:00:00 | 00:00:00 | |
| DL1XH-west | 2026-09-01 00:00:01 | 49.62042 | 8.60562 | 49° | 26km/h | 18629m | 3.7m/s | -53.7°C | 1.3% | 72.3hPa | 2.7V | 03:48:07 | 01:31:41 | 00:00:00 | |
| DL3AQ-11 | 2026-09-01 00:00:00 | 49.62038 | 8.60554 | 51° | 27km/h | 18625m | 4.9m/s | -53.8°C | 1.6% | 72.4hPa | 2.7V | 00:00:00 | 00:00:00 | 00:00:00 | |
| DD1CC8 | 2026-08-31 23:59:58 | 49.62033 | 8.60545 | 52° | 31km/h | 18620m | 5.5m/s | -53.8°C | 1.5% | 72.4hPa | 2.7V | 00:00:00 | 00:00:00 | 00:00:00 | |
| BIOWL1-15 | 2026-08-31 23:59:57 | 49.61988 | 8.60394 | 58° | 38km/h | 18560m | 5.7m/s | -53.7°C | 1.3% | 73.1hPa | 2.7V | 03:48:07 | 01:31:27 | 00:00:00 | |
| DJ2KF-10 | 2026-08-31 23:59:57 | 49.62028 | 8.60534 | 57° | 37km/h | 18615m | 4.7m/s | -53.9°C | 4.6% | 72.4hPa | 2.6V | 03:47:00 | 01:31:38 | 00:00:00 | |
| DB0UT-7 | 2026-08-31 23:59:56 | 49.62023 | 8.60523 | 59° | 37km/h | 18610m | 4.7m/s | -53.9°C | 4.6% | 72.5hPa | 2.6V | 00:00:00 | 00:00:00 | 00:00:00 | |
| DB0ND-19 | 2026-08-31 23:59:55 | 49.62019 | 8.60512 | 61° | 33km/h | 18605m | 5.6m/s | -53.9°C | 1.6% | 72.6hPa | 2.6V | 00:00:00 | 00:00:00 | 00:00:00 | |
| HEMX73-6 | 2026-08-31 23:59:54 | 49.62015 | 8.60500 | 65° | 26km/h | 18600m | 4.5m/s | -53.9°C | 4.7% | 72.6hPa | 2.6V | 00:00:00 | 01:31:35 | 00:00:00 | |
| BIOWL9-15 | 2026-08-31 23:59:52 | 49.62009 | 8.60475 | 71° | 37km/h | 18590m | 6.0m/s | -53.9°C | 1.5% | 72.7hPa | 2.7V | 00:00:00 | 00:00:00 | 00:00:00 | |
| HEMX73-11 | 2026-08-31 23:59:51 | 49.62009 | 8.60475 | 72° | 37km/h | 18590m | 6.0m/s | -53.9°C | 1.5% | 72.7hPa | 2.7V | 03:48:00 | 00:00:00 | 00:00:00 | |
| DL1XH-west | 2026-08-31 23:59:50 | 49.62003 | 8.60446 | 74° | 38km/h | 18580m | 3.9m/s | -53.8°C | 1.3% | 72.9hPa | 2.7V | 03:48:07 | 01:31:31 | 00:00:00 | |
| DJ2DS-15 | 2026-08-31 23:59:49 | 49.62000 | 8.60432 | 71° | 37km/h | 18576m | 5.4m/s | -53.8°C | 4.6% | 72.9hPa | 2.7V | 00:00:00 | 01:31:30 | 00:00:00 | |
| BIOWL1-15 | 2026-08-31 23:59:47 | 49.61983 | 8.60382 | 55° | 40km/h | 18555m | 5m/s | -53.7°C | 1.3% | 73.1hPa | 2.7V | 03:48:07 | 01:31:26 | 00:00:00 | |
| DL3AQ-11 | 2026-08-31 23:59:44 | 49.61971 | 8.60357 | 52° | 37km/h | 18546m | 5.3m/s | -53.6°C | -1.0% | -1.0hPa | 2.6V | 00:00:00 | 00:00:00 | 00:00:00 | |
| DF3TZ-5 | 2026-08-31 23:59:40 | 49.61951 | 8.60312 | 62° | 35km/h | 18525m | 5.3m/s | -53.5°C | 1.6% | 73.5hPa | 2.6V | 00:00:00 | 00:00:00 | 00:00:00 | |
| DL1XH-west | 2026-08-31 23:59:39 | 49.61951 | 8.60312 | 62° | 37km/h | 18525m | 5.3m/s | -53.5°C | 1.3% | 73.5hPa | 2.6V | 03:48:07 | 01:31:20 | 00:00:00 | |
| DL1XH1-15 | 2026-08-31 23:59:37 | 49.61924 | 8.60225 | 59° | 38km/h | 18492m | 4.5m/s | -53.3°C | 4.5% | 73.9hPa | 2.6V | 03:47:51 | 01:31:13 | 00:00:00 | |
| HSKMA3-T | 2026-08-31 23:59:37 | 49.61943 | 8.60287 | 67° | 35km/h | 18516m | 4.8m/s | -53.5°C | 1.3% | 0hPa | 2.6V | 03:54:04 | 01:31:18 | 00:00:00 | |
| BIOWL1-15 | 2026-08-31 23:59:35 | 49.61936 | 8.60262 | 65° | 33km/h | 18506m | 4.3m/s | -53.4°C | 1.3% | 73.7hPa | 2.7V | 03:48:07 | 01:31:16 | 00:00:00 | |
| DL8DAS-14 | 2026-08-31 23:59:34 | 49.61933 | 8.60250 | 63° | 33km/h | 18502m | 4.4m/s | -53.4°C | 1.6% | 73.7hPa | 2.6V | 00:00:00 | 00:00:00 | 00:00:00 | |
| DL3AQ-11 | 2026-08-31 23:59:31 | 49.61908 | 8.60190 | 54° | 33km/h | 18478m | 5.3m/s | -53.3°C | -1.0% | -1.0hPa | 2.6V | 00:00:00 | 00:00:00 | 00:00:00 | |
| DF7PN | 2026-08-31 23:59:30 | 49.61913 | 8.60201 | 55° | 35km/h | 18483m | 4.7m/s | -53.3°C | 1.5% | 74.0hPa | 2.6V | 00:00:00 | 00:00:00 | 00:00:00 | |
| DL1XH-west | 2026-08-31 23:59:29 | 49.61908 | 8.60190 | 55° | 33km/h | 18478m | 5.3m/s | -53.3°C | 1.3% | 74hPa | 2.6V | 03:48:07 | 01:31:10 | 00:00:00 | |
| HSKMA3-T | 2026-08-31 23:59:27 | 49.61899 | 8.60170 | 55° | 31km/h | 18469m | 4.1m/s | -53.2°C | 1.3% | 0hPa | 2.6V | 03:54:04 | 01:31:08 | 00:00:00 | |
| DB0UT-7 | 2026-08-31 23:59:26 | 49.61895 | 8.60160 | 56° | 33km/h | 18464m | 5.2m/s | -53.1°C | 4.5% | 74.1hPa | 2.7V | 03:47:00 | 01:31:07 | 00:00:00 | |
| DL1XH1-15 | 2026-08-31 23:59:25 | 49.61876 | 8.60114 | 62° | 35km/h | 18445m | 4.9m/s | -53.1°C | 4.5% | 74.4hPa | 2.6V | 03:48:01 | 01:31:03 | 00:00:00 | |
| DL9PN | 2026-08-31 23:59:25 | 49.61871 | 8.60102 | 61° | 33km/h | 18440m | 3.9m/s | -53.0°C | 1.5% | 74.5hPa | 2.6V | 00:00:00 | 00:00:00 | 00:00:00 | |
| BIOWL1-15 | 2026-08-31 23:59:24 | 49.61876 | 8.60114 | 62° | 35km/h | 18445m | 4.9m/s | -53.1°C | 1.3% | 74.4hPa | 2.6V | 03:48:07 | 01:31:03 | 00:00:00 | |
| DK5PH-5 | 2026-08-31 23:59:23 | 49.61880 | 8.60126 | 59° | 31km/h | 18450m | 5.0m/s | -53.1°C | 4.5% | 74.3hPa | 2.6V | 00:00:00 | 01:31:04 | 00:00:00 | |
| BIOWL9-15 | 2026-08-31 23:59:21 | 49.61871 | 8.60102 | 61° | 33km/h | 18440m | 3.9m/s | -53.0°C | 1.5% | 74.5hPa | 2.6V | 00:00:00 | 00:00:00 | 00:00:00 | |
| DL3AQ-11 | 2026-08-31 23:59:20 | 49.61862 | 8.60078 | 54° | 37km/h | 18432m | 5.1m/s | -53.0°C | -1.0% | -1.0hPa | 2.6V | 00:00:00 | 00:00:00 | 00:00:00 | |
| DL1XH-west | 2026-08-31 23:59:18 | 49.61856 | 8.60067 | 52° | 37km/h | 18427m | 4.6m/s | -52.9°C | 1.2% | 74.7hPa | 2.6V | 03:48:07 | 01:30:59 | 00:00:00 | |
| DL1XH1-15 | 2026-08-31 23:59:17 | 49.61818 | 8.59997 | 52° | 33km/h | 18393m | 4.5m/s | -52.8°C | 4.3% | 75hPa | 2.7V | 03:48:12 | 01:30:52 | 00:00:00 | |
| DL8DAS-15 | 2026-08-31 23:59:14 | 49.61840 | 8.60036 | 51° | 31km/h | 18412m | 4.4m/s | -52.8°C | 1.6% | 74.8hPa | 2.6V | 00:00:00 | 00:00:00 | 00:00:00 | |
| BIOWL1-15 | 2026-08-31 23:59:13 | 49.61829 | 8.60017 | 49° | 33km/h | 18403m | 5.2m/s | -52.8°C | 1.2% | 74.9hPa | 2.6V | 03:48:58 | 01:30:54 | 00:00:00 | |
| HSKMA3-T | 2026-08-31 23:59:12 | 49.61824 | 8.60007 | 50° | 35km/h | 18398m | 4.6m/s | -52.8°C | 1.2% | 0hPa | 2.6V | 03:54:04 | 01:30:53 | 00:00:00 | |
| DJ2DS-15 | 2026-08-31 23:59:09 | 49.61809 | 8.59976 | 56° | 33km/h | 18384m | 3.9m/s | -52.8°C | 4.3% | 75.1hPa | 2.6V | 03:48:00 | 01:30:50 | 00:00:00 | |
| DL1XH-west | 2026-08-31 23:59:08 | 49.61804 | 8.59965 | 54° | 35km/h | 18380m | 4.3m/s | -52.8°C | 1.2% | 75.2hPa | 2.6V | 03:48:58 | 01:30:49 | 00:00:00 | |
| BIOWL1-15 | 2026-08-31 23:59:04 | 49.61768 | 8.59908 | 40° | 27km/h | 18352m | 3.7m/s | -52.7°C | 1.2% | 75.5hPa | 2.6V | 03:48:58 | 01:30:43 | 00:00:00 | |
| DL8DAS-14 | 2026-08-31 23:59:03 | 49.61773 | 8.59916 | 40° | 29km/h | 18356m | 5.0m/s | -52.7°C | 1.5% | 75.5hPa | 2.6V | 00:00:00 | 00:00:00 | 00:00:00 | |
| DL1ZP-14 | 2026-08-31 23:59:02 | 49.61768 | 8.59908 | 39° | 27km/h | 18352m | 3.7m/s | -52.7°C | 1.5% | 75.5hPa | 2.6V | 00:00:00 | 00:00:00 | 00:00:00 | |
| HSKMA3-T | 2026-08-31 23:59:01 | 49.61762 | 8.59901 | 40° | 27km/h | 18348m | 3.4m/s | -52.7°C | 1.3% | 0hPa | 2.7V | 03:54:04 | 01:30:42 | 00:00:00 | |
| DL1XH1-15 | 2026-08-31 23:59:00 | 49.61752 | 8.59887 | 42° | 29km/h | 18339m | 4.6m/s | -52.7°C | 4.5% | 75.7hPa | 2.6V | 03:48:24 | 01:30:40 | 00:00:00 | |
| DL1XH-west | 2026-08-31 23:58:57 | 49.61742 | 8.59871 | 51° | 27km/h | 18330m | 4.4m/s | -52.8°C | 1.3% | 75.8hPa | 2.6V | 03:48:58 | 01:30:38 | 00:00:00 | |
| BIOWL1-15 | 2026-08-31 23:58:52 | 49.61717 | 8.59825 | 41° | 37km/h | 18309m | 4.5m/s | -52.7°C | 1.2% | 76hPa | 2.6V | 03:48:58 | 01:30:33 | 00:00:00 | |
| DL1XH-west | 2026-08-31 23:58:47 | 49.61682 | 8.59790 | 36° | 26km/h | 18289m | 4.1m/s | -52.5°C | 1.2% | 76.3hPa | 2.6V | 03:48:58 | 01:30:28 | 00:00:00 | |
| BIOWL1-15 | 2026-08-31 23:58:42 | 49.61625 | 8.59709 | 46° | 18km/h | 18225m | 4.8m/s | -52°C | 1.2% | 77hPa | 2.6V | 03:48:58 | 01:30:14 | 00:00:00 | |
| DL1XH1-15 | 2026-08-31 23:58:40 | 49.61649 | 8.59741 | 40° | 24km/h | 18252m | 5.3m/s | -52.2°C | 4.2% | 76.7hPa | 2.6V | 03:48:44 | 01:30:20 | 00:00:00 | |
| DL1XH-west | 2026-08-31 23:58:37 | 49.61641 | 8.59729 | 43° | 24km/h | 18243m | 3.8m/s | -52.2°C | 1.2% | 76.8hPa | 2.6V | 03:48:58 | 01:30:18 | 00:00:00 | |
| DL8DAS-14 | 2026-08-31 23:58:32 | 49.61622 | 8.59703 | 56° | 16km/h | 18220m | 5.2m/s | -52.0°C | 1.4% | 77.1hPa | 2.7V | 00:00:00 | 00:00:00 | 00:00:00 | |
| DL1ZP-14 | 2026-08-31 23:58:31 | 49.61619 | 8.59697 | 60° | 16km/h | 18215m | 4.3m/s | -52.0°C | 1.4% | 77.1hPa | 2.7V | 00:00:00 | 00:00:00 | 00:00:00 | |
| DL1XH1-15 | 2026-08-31 23:58:30 | 49.61615 | 8.59686 | 51° | 16km/h | 18206m | 5m/s | -52°C | 4.3% | 77.2hPa | 2.6V | 03:48:54 | 01:30:10 | 00:00:00 | |
| DL1XH-west | 2026-08-31 23:58:27 | 49.61609 | 8.59676 | 47° | 16km/h | 18197m | 3.5m/s | -52°C | 1.1% | 77.3hPa | 2.6V | 03:48:58 | 01:30:08 | 00:00:00 | |
| BIOWL1-15 | 2026-08-31 23:58:24 | 49.61590 | 8.59648 | 37° | 16km/h | 18172m | 3.7m/s | -51.9°C | 1.2% | 77.7hPa | 2.7V | 03:49:49 | 01:30:02 | 00:00:00 | |
| DL3AQ-11 | 2026-08-31 23:58:24 | 49.61594 | 8.59652 | 33° | 16km/h | 18176m | 3.9m/s | 0°C | -1.0% | -1.0hPa | 2.6V | 00:00:00 | 00:00:00 | 00:00:00 | |
| DL9PN | 2026-08-31 23:58:23 | 49.61594 | 8.59652 | 33° | 16km/h | 18176m | 3.9m/s | -51.9°C | 1.5% | 77.6hPa | 2.6V | 00:00:00 | 00:00:00 | 00:00:00 | |
| DB0ND-19 | 2026-08-31 23:58:22 | 49.61590 | 8.59648 | 37° | 16km/h | 18172m | 3.7m/s | -51.9°C | 1.5% | 77.7hPa | 2.6V | 00:00:00 | 00:00:00 | 00:00:00 | |
| DL1XH1-15 | 2026-08-31 23:58:20 | 49.61585 | 8.59640 | 57° | 15km/h | 18163m | 4.4m/s | -51.9°C | 4.3% | 77.8hPa | 2.6V | 03:49:04 | 01:30:00 | 00:00:00 | |
| DL1XH-west | 2026-08-31 23:58:16 | 49.61579 | 8.59627 | 50° | 13km/h | 18151m | 4.9m/s | -51.9°C | 1.1% | 77.9hPa | 2.7V | 03:49:49 | 01:29:57 | 00:00:00 | |
| BIOWL1-15 | 2026-08-31 23:58:10 | 49.61558 | 8.59589 | 76° | 13km/h | 18108m | 5.7m/s | -51.6°C | 1.1% | 78.4hPa | 2.7V | 03:49:49 | 01:29:47 | 00:00:00 | |
| DL1XH1-15 | 2026-08-31 23:58:10 | 49.61563 | 8.59604 | 55° | 15km/h | 18121m | 5.1m/s | -51.7°C | 4.2% | 78.2hPa | 2.6V | 03:49:14 | 01:29:50 | 00:00:00 | |
| DL1XH-west | 2026-08-31 23:58:05 | 49.61558 | 8.59584 | 90° | 13km/h | 18102m | 4.8m/s | -51.5°C | 1.1% | 78.5hPa | 2.7V | 03:49:49 | 01:29:46 | 00:00:00 | |
| DL1XH1-15 | 2026-08-31 23:58:04 | 49.61557 | 8.59557 | 86° | 11km/h | 18075m | 5.2m/s | -51.3°C | 4.2% | 78.8hPa | 2.6V | 03:49:24 | 01:29:40 | 00:00:00 | |
| BIOWL1-15 | 2026-08-31 23:57:58 | 49.61555 | 8.59545 | 64° | 13km/h | 18062m | 5.2m/s | -51.2°C | 1.1% | 79hPa | 2.7V | 03:49:49 | 01:29:37 | 00:00:00 | |
| DL1XH-west | 2026-08-31 23:57:55 | 49.61554 | 8.59541 | 60° | 11km/h | 18058m | 4.1m/s | -51.2°C | 1% | 79hPa | 2.7V | 03:49:49 | 01:29:36 | 00:00:00 | |
| BIOWL1-15 | 2026-08-31 23:57:46 | 49.61561 | 8.59500 | 125° | 13km/h | 18015m | 3.6m/s | -50.9°C | 1% | 79.5hPa | 2.7V | 03:49:49 | 01:29:26 | 00:00:00 | |
| DL1XH-west | 2026-08-31 23:57:44 | 49.61562 | 8.59496 | 113° | 13km/h | 18011m | 4.5m/s | -50.8°C | 1% | 79.6hPa | 2.6V | 03:49:49 | 01:29:25 | 00:00:00 | |
| DB0UT-9 | 2026-08-31 23:57:42 | 49.61563 | 8.59491 | 98° | 13km/h | 18006m | 4.6m/s | -50.8°C | 1.4% | 79.7hPa | 2.6V | 03:49:00 | 00:00:00 | 00:00:00 | |
| DL1XH1-15 | 2026-08-31 23:57:40 | 49.61562 | 8.59474 | 85° | 9km/h | 17990m | 3.5m/s | -50.7°C | 4% | 79.8hPa | 2.6V | 03:49:44 | 01:29:20 | 00:00:00 | |
| BIOWL1-15 | 2026-08-31 23:57:35 | 49.61560 | 8.59455 | 88° | 16km/h | 17973m | 3.9m/s | -50.6°C | 1% | 80.1hPa | 2.7V | 03:49:49 | 01:29:16 | 00:00:00 | |
| DL1XH1-15 | 2026-08-31 23:57:34 | 49.61572 | 8.59416 | 117° | 18km/h | 17947m | 5.3m/s | -50.3°C | 4% | 80.4hPa | 2.6V | 03:49:54 | 01:29:10 | 00:00:00 | |
| DL1XH-west | 2026-08-31 23:57:33 | 49.61562 | 8.59441 | 108° | 18km/h | 17965m | 5.1m/s | -50.5°C | 0.9% | 80.2hPa | 2.6V | 03:50:40 | 01:29:14 | 00:00:00 | |
| BIOWL1-15 | 2026-08-31 23:57:26 | 49.61576 | 8.59392 | 87° | 11km/h | 17925m | 3.8m/s | -50.4°C | 1% | 80.7hPa | 2.6V | 03:50:40 | 01:29:05 | 00:00:00 | |
| DL1XH-west | 2026-08-31 23:57:22 | 49.61574 | 8.59381 | 75° | 18km/h | 17916m | 4.8m/s | -50.4°C | 1% | 80.8hPa | 2.6V | 03:50:40 | 01:29:03 | 00:00:00 | |
| DL1XH1-15 | 2026-08-31 23:57:20 | 49.61573 | 8.59358 | 100° | 20km/h | 17905m | 4.6m/s | -50.3°C | 3.9% | 80.9hPa | 2.6V | 03:50:04 | 01:29:00 | 00:00:00 | |
| DL3AQ-11 | 2026-08-31 23:57:20 | 49.61577 | 8.59344 | 127° | 18km/h | 17896m | 3.7m/s | 0°C | -1.0% | -1.0hPa | 2.6V | 00:00:00 | 00:00:00 | 00:00:00 | |
| BIOWL9-15 | 2026-08-31 23:57:17 | 49.61577 | 8.59344 | 127° | 18km/h | 17896m | 3.7m/s | -50.3°C | 1.4% | 81.0hPa | 2.6V | 00:00:00 | 00:00:00 | 00:00:00 | |
| DL1XH1-15 | 2026-08-31 23:57:14 | 49.61598 | 8.59304 | 116° | 20km/h | 17860m | 4m/s | -50.1°C | 3.9% | 81.5hPa | 2.6V | 03:50:14 | 01:28:50 | 00:00:00 | |
| BIOWL1-15 | 2026-08-31 23:57:14 | 49.61586 | 8.59328 | 130° | 16km/h | 17883m | 4.4m/s | -50.2°C | 0.9% | 81.2hPa | 2.6V | 03:50:40 | 01:28:55 | 00:00:00 | |
| DL1XH-west | 2026-08-31 23:57:11 | 49.61593 | 8.59315 | 128° | 15km/h | 17870m | 4.8m/s | -50.1°C | 0.9% | 81.3hPa | 2.7V | 03:50:40 | 01:28:52 | 00:00:00 | |
| BIOWL1-15 | 2026-08-31 23:57:04 | 49.61597 | 8.59247 | 80° | 35km/h | 17839m | 3.1m/s | -50.1°C | 0.9% | 81.7hPa | 2.6V | 03:50:40 | 01:28:45 | 00:00:00 | |
| DL1XH-west | 2026-08-31 23:57:00 | 49.61601 | 8.59206 | 133° | 24km/h | 17821m | 4.4m/s | -50.2°C | 0.9% | 81.9hPa | 2.7V | 03:50:40 | 01:28:41 | 00:00:00 | |
| DL8DAS-14 | 2026-08-31 23:56:59 | 49.61611 | 8.59194 | 145° | 24km/h | 17812m | 4.3m/s | -50.1°C | 1.3% | 82.1hPa | 2.6V | 00:00:00 | 00:00:00 | 00:00:00 | |
| DL1ZP-14 | 2026-08-31 23:56:58 | 49.61616 | 8.59189 | 144° | 24km/h | 17808m | 4.3m/s | -50.1°C | 1.3% | 82.1hPa | 2.6V | 00:00:00 | 00:00:00 | 00:00:00 | |
| DF7PN | 2026-08-31 23:56:55 | 49.61624 | 8.59176 | 123° | 24km/h | 17799m | 4.3m/s | -50.1°C | 1.4% | 82.2hPa | 2.6V | 00:00:00 | 00:00:00 | 00:00:00 | |
| DL1XH1-15 | 2026-08-31 23:56:54 | 49.61629 | 8.59097 | 89° | 38km/h | 17770m | 4.7m/s | -49.9°C | 3.8% | 82.6hPa | 2.6V | 03:50:34 | 01:28:30 | 00:00:00 | |
| BIOWL1-15 | 2026-08-31 23:56:54 | 49.61627 | 8.59168 | 110° | 27km/h | 17795m | 4.8m/s | -50.1°C | 0.9% | 82.3hPa | 2.6V | 03:50:40 | 01:28:35 | 00:00:00 | |
| DL1XH-west | 2026-08-31 23:56:49 | 49.61629 | 8.59097 | 89° | 38km/h | 17770m | 4.7m/s | -49.9°C | 0.9% | 82.6hPa | 2.6V | 03:50:40 | 01:28:30 | 00:00:00 | |
| DB0ND-19 | 2026-08-31 23:56:49 | 49.61629 | 8.59083 | 93° | 33km/h | 17766m | 5.5m/s | -50.0°C | 1.3% | 82.7hPa | 2.6V | 00:00:00 | 00:00:00 | 00:00:00 | |
| BIOWL9-15 | 2026-08-31 23:56:46 | 49.61632 | 8.59059 | 110° | 29km/h | 17756m | 3.9m/s | -50.1°C | 1.3% | 82.8hPa | 2.6V | 00:00:00 | 00:00:00 | 00:00:00 | |
| BIOWL1-15 | 2026-08-31 23:56:43 | 49.61643 | 8.59027 | 119° | 33km/h | 17742m | 4.4m/s | -50.1°C | 0.8% | 82.9hPa | 2.6V | 03:50:40 | 01:28:24 | 00:00:00 | |
| DL1XH-west | 2026-08-31 23:56:38 | 49.61658 | 8.58967 | 106° | 35km/h | 17719m | 5.8m/s | -50.1°C | 0.9% | 83.3hPa | 2.6V | 03:51:31 | 01:28:19 | 00:00:00 | |
| BIOWL1-15 | 2026-08-31 23:56:33 | 49.61675 | 8.58805 | 102° | 44km/h | 17673m | 4m/s | -50.1°C | 0.8% | 83.8hPa | 2.6V | 03:51:31 | 01:28:09 | 00:00:00 | |
| DL1XH-west | 2026-08-31 23:56:27 | 49.61677 | 8.58789 | 99° | 42km/h | 17668m | 5.1m/s | -50.2°C | 0.9% | 83.9hPa | 2.6V | 03:51:31 | 01:28:08 | 00:00:00 | |
| DL4BBY-15 | 2026-08-31 23:56:27 | 49.61677 | 8.58789 | 99° | 47km/h | 17669m | 5.0m/s | -50.9°C | 0% | 0hPa | 2.7V | 00:00:00 | 00:00:00 | 00:00:00 | |
| DL1ZP-14 | 2026-08-31 23:56:26 | 49.61678 | 8.58773 | 93° | 38km/h | 17663m | 5.2m/s | -50.3°C | 1.3% | 84.0hPa | 2.7V | 00:00:00 | 00:00:00 | 00:00:00 | |
| DL1XH1-15 | 2026-08-31 23:56:25 | 49.61679 | 8.58743 | 90° | 40km/h | 17655m | 4m/s | -50.5°C | 3.8% | 84.1hPa | 2.6V | 03:50:59 | 01:28:05 | 00:00:00 | |
| BIOWL1-15 | 2026-08-31 23:56:20 | 49.61684 | 8.58677 | 100° | 46km/h | 17635m | 5.1m/s | -50.8°C | 0.9% | 84.3hPa | 2.7V | 03:51:31 | 01:28:01 | 00:00:00 | |
| DL1XH1-15 | 2026-08-31 23:56:19 | 49.61699 | 8.58564 | 100° | 51km/h | 17607m | 4.1m/s | -50.9°C | 3.8% | 84.7hPa | 2.6V | 03:51:09 | 01:27:55 | 00:00:00 | |
| DL1XH-west | 2026-08-31 23:56:16 | 49.61693 | 8.58604 | 104° | 53km/h | 17616m | 5.2m/s | -50.9°C | 0.9% | 84.6hPa | 2.7V | 03:51:31 | 01:27:57 | 00:00:00 | |
| BIOWL1-15 | 2026-08-31 23:56:10 | 49.61718 | 8.58281 | 91° | 55km/h | 17546m | 5m/s | -51.4°C | 0.9% | 85.5hPa | 2.7V | 03:51:31 | 01:27:41 | 00:00:00 | |
| DL1XH-west | 2026-08-31 23:56:06 | 49.61708 | 8.58407 | 98° | 49km/h | 17571m | 4.5m/s | -51.5°C | 1% | 85.2hPa | 2.7V | 03:51:31 | 01:27:47 | 00:00:00 | |
| DL1XH1-15 | 2026-08-31 23:56:05 | 49.61712 | 8.58368 | 99° | 53km/h | 17563m | 4.4m/s | -51.4°C | 3.9% | 85.3hPa | 2.6V | 03:51:19 | 01:27:45 | 00:00:00 | |
| DL1XH-west | 2026-08-31 23:55:55 | 49.61713 | 8.58179 | 85° | 51km/h | 17524m | 3.6m/s | -52.6°C | 1.1% | 85.8hPa | 2.7V | 03:51:31 | 01:27:36 | 00:00:00 | |
| DL1XH1-15 | 2026-08-31 23:55:55 | 49.61712 | 8.58160 | 87° | 49km/h | 17521m | 4m/s | -52.6°C | 4.3% | 85.8hPa | 2.6V | 03:51:29 | 01:27:35 | 00:00:00 | |
| BIOWL1-15 | 2026-08-31 23:55:53 | 49.61712 | 8.58104 | 93° | 47km/h | 17508m | 4m/s | -52.6°C | 1.1% | 86hPa | 2.7V | 03:52:22 | 01:27:32 | 00:00:00 | |
| DF7PN | 2026-08-31 23:55:53 | 49.61711 | 8.58123 | 90° | 46km/h | 17512m | 3.8m/s | -52.6°C | 1.5% | 85.9hPa | 2.6V | 00:00:00 | 00:00:00 | 00:00:00 | |
| DD1CC8 | 2026-08-31 23:55:50 | 49.61713 | 8.58065 | 94° | 53km/h | 17499m | 3.7m/s | -52.5°C | 1.5% | 86.1hPa | 2.6V | 00:00:00 | 00:00:00 | 00:00:00 | |
| DB0ND-19 | 2026-08-31 23:55:47 | 49.61715 | 8.58003 | 87° | 49km/h | 17487m | 5.0m/s | -52.5°C | 1.5% | 86.2hPa | 2.6V | 00:00:00 | 00:00:00 | 00:00:00 | |
| DL1XH1-15 | 2026-08-31 23:55:45 | 49.61712 | 8.57964 | 80° | 51km/h | 17479m | 3.2m/s | -52.5°C | 4.1% | 86.4hPa | 2.6V | 03:51:39 | 01:27:25 | 00:00:00 | |
| DL1XH-west | 2026-08-31 23:55:44 | 49.61707 | 8.57924 | 78° | 53km/h | 17470m | 4.5m/s | -52.9°C | 1.2% | 86.5hPa | 2.6V | 03:52:22 | 01:27:23 | 00:00:00 | |
| BIOWL1-15 | 2026-08-31 23:55:43 | 49.61710 | 8.57944 | 79° | 53km/h | 17475m | 5.1m/s | -52.7°C | 1.1% | 86.4hPa | 2.6V | 03:52:22 | 01:27:24 | 00:00:00 | |
| DK5PH-5 | 2026-08-31 23:55:38 | 49.61697 | 8.57849 | 83° | 53km/h | 17455m | 3.2m/s | -53.3°C | 4.4% | 86.7hPa | 2.6V | 00:00:00 | 01:27:19 | 00:00:00 | |
| DL1XH1-15 | 2026-08-31 23:55:35 | 49.61694 | 8.57769 | 88° | 58km/h | 17439m | 3.8m/s | -53.2°C | 4.4% | 86.9hPa | 2.6V | 03:51:49 | 01:27:15 | 00:00:00 | |
| BIOWL1-15 | 2026-08-31 23:55:32 | 49.61692 | 8.57680 | 83° | 55km/h | 17423m | 3.9m/s | -53.3°C | 1.3% | 87.1hPa | 2.7V | 03:52:22 | 01:27:11 | 00:00:00 | |
| HSKMA3-T | 2026-08-31 23:55:21 | 49.61671 | 8.57492 | 81° | 58km/h | 17388m | 3.9m/s | -53.2°C | 1.3% | 0hPa | 2.7V | 03:54:04 | 01:27:02 | 00:00:00 | |
| DL1XH-west | 2026-08-31 23:55:19 | 49.61666 | 8.57447 | 81° | 58km/h | 17380m | 4.3m/s | -53.2°C | 1.3% | 87.7hPa | 2.6V | 03:52:22 | 01:27:00 | 00:00:00 | |
| BIOWL1-15 | 2026-08-31 23:55:10 | 49.61641 | 8.57262 | 78° | 51km/h | 17347m | 4.1m/s | -53°C | 1.2% | 88.2hPa | 2.7V | 03:52:22 | 01:26:51 | 00:00:00 | |
| DL1XH-west | 2026-08-31 23:55:09 | 49.61635 | 8.57222 | 77° | 53km/h | 17339m | 4.5m/s | -53°C | 1.2% | 88.3hPa | 2.6V | 03:52:22 | 01:26:49 | 00:00:00 | |
| BIOWL1-15 | 2026-08-31 23:55:03 | 49.61606 | 8.57040 | 72° | 47km/h | 17304m | 3.4m/s | -52.8°C | 1.3% | 88.8hPa | 2.6V | 03:53:13 | 01:26:40 | 00:00:00 | |
| DL1XH-west | 2026-08-31 23:54:58 | 49.61602 | 8.57023 | 74° | 47km/h | 17300m | 4.5m/s | -52.8°C | 1.3% | 88.8hPa | 2.6V | 03:53:13 | 01:26:39 | 00:00:00 | |
| DL4BBY-15 | 2026-08-31 23:54:56 | 49.61596 | 8.56987 | 77° | 42km/h | 17293m | 3.2m/s | -53.5°C | 0% | 0hPa | 2.6V | 00:00:00 | 00:00:00 | 00:00:00 | |
| DL1XH1-15 | 2026-08-31 23:54:55 | 49.61590 | 8.56949 | 75° | 51km/h | 17284m | 4.4m/s | -52.8°C | 4.4% | 89hPa | 2.6V | 03:52:29 | 01:26:35 | 00:00:00 | |
| BIOWL1-15 | 2026-08-31 23:54:50 | 49.61577 | 8.56837 | 80° | 46km/h | 17261m | 4.4m/s | -52.7°C | 1.1% | 89.4hPa | 2.6V | 03:53:13 | 01:26:29 | 00:00:00 | |
| DL1XH-west | 2026-08-31 23:54:47 | 49.61574 | 8.56820 | 76° | 47km/h | 17257m | 4.6m/s | -52.7°C | 1.2% | 89.4hPa | 2.6V | 03:53:13 | 01:26:28 | 00:00:00 | |
| DB0UT-9 | 2026-08-31 23:54:46 | 49.61574 | 8.56820 | 77° | 47km/h | 17257m | 4.6m/s | -52.7°C | 1.6% | 89.4hPa | 2.6V | 03:53:00 | 00:00:00 | 00:00:00 | |
| DL1XH1-15 | 2026-08-31 23:54:45 | 49.61563 | 8.56767 | 71° | 47km/h | 17245m | 3.9m/s | -52.6°C | 4.2% | 89.6hPa | 2.6V | 03:52:39 | 01:26:25 | 00:00:00 | |
| DB0ND-19 | 2026-08-31 23:54:45 | 49.61563 | 8.56767 | 71° | 46km/h | 17245m | 3.9m/s | -52.6°C | 1.5% | 89.6hPa | 2.6V | 00:00:00 | 00:00:00 | 00:00:00 | |
| BIOWL1-15 | 2026-08-31 23:54:37 | 49.61543 | 8.56664 | 63° | 35km/h | 17215m | 3.8m/s | -52.5°C | 1.1% | 90hPa | 2.6V | 03:53:13 | 01:26:18 | 00:00:00 | |
| DL1XH-west | 2026-08-31 23:54:36 | 49.61539 | 8.56652 | 65° | 37km/h | 17211m | 3.6m/s | -52.5°C | 1.2% | 90hPa | 2.7V | 03:53:13 | 01:26:17 | 00:00:00 | |
| DL1XH1-15 | 2026-08-31 23:54:35 | 49.61533 | 8.56625 | 77° | 37km/h | 17203m | 4.1m/s | -52.7°C | 4.3% | 90.2hPa | 2.6V | 03:52:49 | 01:26:15 | 00:00:00 | |
| BIOWL1-15 | 2026-08-31 23:54:28 | 49.61516 | 8.56533 | 63° | 38km/h | 17176m | 4.5m/s | -52.8°C | 1.2% | 90.6hPa | 2.6V | 03:53:13 | 01:26:08 | 00:00:00 | |
| DL4BBY-15 | 2026-08-31 23:54:26 | 49.61512 | 8.56519 | 65° | 37km/h | 17172m | 4.0m/s | -53.5°C | 0% | 0hPa | 2.6V | 00:00:00 | 00:00:00 | 00:00:00 | |
| DL1XH1-15 | 2026-08-31 23:54:25 | 49.61504 | 8.56491 | 67° | 37km/h | 17164m | 3.8m/s | -52.8°C | 4.4% | 90.7hPa | 2.6V | 03:52:59 | 01:26:05 | 00:00:00 | |
| DL1XH-west | 2026-08-31 23:54:25 | 49.61508 | 8.56505 | 67° | 40km/h | 17168m | 4m/s | -52.8°C | 1.3% | 90.7hPa | 2.7V | 03:53:13 | 01:26:06 | 00:00:00 | |
| BIOWL1-15 | 2026-08-31 23:54:16 | 49.61486 | 8.56407 | 77° | 29km/h | 17130m | 3.8m/s | -52.9°C | 1.3% | 91.2hPa | 2.7V | 03:53:13 | 01:25:57 | 00:00:00 | |
| DM0DOS-11 | 2026-08-31 23:54:15 | 49.61477 | 8.56351 | 84° | 31km/h | 17109m | 4.3m/s | -52.9°C | 4.3% | 91.5hPa | 2.7V | 03:53:12 | 01:25:52 | 00:00:00 | |
| DL1XH-west | 2026-08-31 23:54:14 | 49.61482 | 8.56386 | 72° | 29km/h | 17122m | 3.9m/s | -52.9°C | 1.2% | 91.3hPa | 2.6V | 03:53:13 | 01:25:55 | 00:00:00 | |
| BIOWL1-15 | 2026-08-31 23:54:06 | 49.61464 | 8.56241 | 70° | 37km/h | 17074m | 3.8m/s | -52.8°C | 1.2% | 92hPa | 2.6V | 03:54:04 | 01:25:43 | 00:00:00 | |
| DL1XH1-15 | 2026-08-31 23:54:05 | 49.61467 | 8.56255 | 72° | 37km/h | 17077m | 3.4m/s | -52.8°C | 4.3% | 92hPa | 2.6V | 03:53:20 | 01:25:44 | 00:00:00 | |
| DL1XH-west | 2026-08-31 23:54:04 | 49.61469 | 8.56268 | 74° | 35km/h | 17081m | 4.2m/s | -52.7°C | 1.3% | 91.9hPa | 2.6V | 03:54:04 | 01:25:45 | 00:00:00 | |
| DB0UT-7 | 2026-08-31 23:54:02 | 49.61464 | 8.56241 | 71° | 40km/h | 17074m | 3.7m/s | -52.7°C | 4.3% | 91.9hPa | 2.6V | 00:00:00 | 00:00:00 | 00:00:00 | |
| DF3TZ-5 | 2026-08-31 23:53:59 | 49.61451 | 8.56189 | 71° | 37km/h | 17058m | 4.7m/s | 0°C | -1.0% | -1.0hPa | 2.6V | 00:00:00 | 00:00:00 | 00:00:00 | |
| DL8DAS-15 | 2026-08-31 23:53:56 | 49.61445 | 8.56160 | 76° | 38km/h | 17050m | 3.5m/s | -52.8°C | 1.6% | 92.3hPa | 2.6V | 00:00:00 | 00:00:00 | 00:00:00 | |
| DL1XH1-15 | 2026-08-31 23:53:55 | 49.61437 | 8.56120 | 72° | 35km/h | 17037m | 3.5m/s | -52.9°C | 4.4% | 0hPa | 2.6V | 03:53:30 | 01:25:34 | 00:00:00 | |
| DL1XH-west | 2026-08-31 23:53:54 | 49.61440 | 8.56133 | 73° | 35km/h | 17041m | 4.1m/s | -52.8°C | 1.2% | 92.5hPa | 2.6V | 03:54:04 | 01:25:35 | 00:00:00 | |
| DL1XH-west | 2026-08-31 23:53:44 | 49.61402 | 8.55985 | 68° | 47km/h | 17001m | 3.8m/s | -53.1°C | 1.3% | 93.1hPa | 2.6V | 03:54:04 | 01:25:25 | 00:00:00 | |
| BIOWL1-15 | 2026-08-31 23:53:44 | 49.61388 | 8.55937 | 66° | 44km/h | 16989m | 3.1m/s | -53°C | 1.3% | 93.2hPa | 2.7V | 03:54:04 | 01:25:22 | 00:00:00 | |
| DB0ND-19 | 2026-08-31 23:53:43 | 49.61393 | 8.55952 | 66° | 42km/h | 16992m | 4.0m/s | -53.1°C | 1.6% | 93.2hPa | 2.6V | 00:00:00 | 00:00:00 | 00:00:00 | |
| HEMX73-11 | 2026-08-31 23:53:41 | 49.61388 | 8.55937 | 67° | 44km/h | 16989m | 3.1m/s | -53.0°C | 1.6% | 93.2hPa | 2.6V | 03:54:00 | 00:00:00 | 00:00:00 | |
| BIOWL9-15 | 2026-08-31 23:53:40 | 49.61380 | 8.55906 | 67° | 44km/h | 16981m | 4.6m/s | 0°C | -1.0% | -1.0hPa | 2.6V | 00:00:00 | 00:00:00 | 00:00:00 | |
| DL1XH1-15 | 2026-08-31 23:53:35 | 49.61356 | 8.55813 | 64° | 38km/h | 16957m | 3.6m/s | -52.8°C | 0% | 0hPa | 2.6V | 03:53:50 | 01:25:14 | 00:00:00 | |
| DL1XH-west | 2026-08-31 23:53:33 | 49.61356 | 8.55813 | 65° | 38km/h | 16957m | 3.6m/s | -52.8°C | 1.2% | 93.7hPa | 2.6V | 03:54:04 | 01:25:14 | 00:00:00 | |
| BIOWL1-15 | 2026-08-31 23:53:30 | 49.61342 | 8.55771 | 62° | 40km/h | 16944m | 4m/s | -52.7°C | 1.3% | 93.9hPa | 2.7V | 03:54:04 | 01:25:11 | 00:00:00 | |
| HSKMA3-T | 2026-08-31 23:53:27 | 49.61329 | 8.55731 | 65° | 38km/h | 16931m | 4.5m/s | -52.6°C | 1.3% | 0hPa | 2.6V | 03:54:04 | 01:25:08 | 00:00:00 | |
| DL1XH1-15 | 2026-08-31 23:53:25 | 49.61313 | 8.55676 | 63° | 37km/h | 16913m | 4.5m/s | -52.4°C | 0% | 0hPa | 2.6V | 03:54:00 | 01:25:04 | 00:00:00 | |
| DL1XH-west | 2026-08-31 23:53:23 | 49.61309 | 8.55663 | 61° | 37km/h | 16909m | 3.6m/s | -52.4°C | 1.2% | 94.4hPa | 2.6V | 03:54:04 | 01:25:03 | 00:00:00 | |
| BIOWL1-15 | 2026-08-31 23:53:19 | 49.61277 | 8.55577 | 59° | 35km/h | 16879m | 4.3m/s | -52.1°C | 1.2% | 94.8hPa | 2.7V | 03:54:55 | 01:24:56 | 00:00:00 | |
| HSKMA3-T | 2026-08-31 23:53:16 | 49.61281 | 8.55588 | 58° | 35km/h | 16883m | 3.8m/s | 0°C | 0% | 0hPa | 2.7V | 18:12:15 | 01:24:57 | 00:00:00 | |
| DL1XH-west | 2026-08-31 23:53:12 | 49.61265 | 8.55540 | 66° | 35km/h | 16866m | 3.9m/s | -52°C | 1.2% | 95hPa | 2.6V | 03:54:55 | 01:24:53 | 00:00:00 | |
| BIOWL1-15 | 2026-08-31 23:53:11 | 49.61255 | 8.55505 | 72° | 31km/h | 16853m | 3.6m/s | -51.9°C | 1.2% | 95.2hPa | 2.6V | 03:54:55 | 01:24:50 | 00:00:00 | |
| DJ2DS-15 | 2026-08-31 23:53:09 | 49.61255 | 8.55505 | 72° | 33km/h | 16853m | 3.5m/s | -51.8°C | 4.3% | 95.2hPa | 2.6V | 00:00:00 | 01:24:50 | 00:00:00 | |
| DO1YAY-16 | 2026-08-31 23:53:07 | 49.61250 | 8.55481 | 70° | 35km/h | 16844m | 3.8m/s | -51.8°C | 1.5% | 95.3hPa | 2.6V | 00:00:00 | 00:00:00 | 00:00:00 | |
| DL1XH1-15 | 2026-08-31 23:53:04 | 49.61214 | 8.55389 | 52° | 33km/h | 16811m | 4.6m/s | -51.5°C | 0% | 0hPa | 2.6V | 03:54:24 | 01:24:40 | 00:00:00 | |
| DL1XH-west | 2026-08-31 23:53:02 | 49.61230 | 8.55422 | 54° | 35km/h | 16823m | 4.6m/s | -51.6°C | 1.1% | 95.7hPa | 2.6V | 03:54:55 | 01:24:43 | 00:00:00 | |
| BIOWL1-15 | 2026-08-31 23:52:59 | 49.61204 | 8.55369 | 57° | 33km/h | 16804m | 3.4m/s | -51.5°C | 1.2% | 96hPa | 2.6V | 03:54:55 | 01:24:38 | 00:00:00 | |
| HEMX73-11 | 2026-08-31 23:52:59 | 49.61214 | 8.55389 | 54° | 33km/h | 16812m | 4.6m/s | -51.5°C | 1.5% | 95.8hPa | 2.6V | 03:54:00 | 00:00:00 | 00:00:00 | |
| DL8DAS-15 | 2026-08-31 23:52:55 | 49.61197 | 8.55346 | 68° | 35km/h | 16796m | 3.3m/s | -51.4°C | 1.5% | 96.1hPa | 2.6V | 00:00:00 | 00:00:00 | 00:00:00 | |
| DL1XH1-15 | 2026-08-31 23:52:54 | 49.61179 | 8.55282 | 57° | 31km/h | 16772m | 4.7m/s | -51.2°C | 0% | 0hPa | 2.6V | 03:54:34 | 01:24:30 | 00:00:00 | |
| DL1XH-west | 2026-08-31 23:52:52 | 49.61188 | 8.55312 | 70° | 27km/h | 16784m | 4.3m/s | -51.3°C | 1.1% | 96.2hPa | 2.6V | 03:54:55 | 01:24:33 | 00:00:00 | |
| BIOWL1-15 | 2026-08-31 23:52:48 | 49.61174 | 8.55272 | 53° | 35km/h | 16768m | 3.7m/s | -51.1°C | 1% | 96.5hPa | 2.6V | 03:54:55 | 01:24:29 | 00:00:00 | |
| DF7PN | 2026-08-31 23:52:46 | 49.61162 | 8.55250 | 47° | 37km/h | 16761m | 4.1m/s | -51.1°C | 1.5% | 96.5hPa | 2.6V | 00:00:00 | 00:00:00 | 00:00:00 | |
| DK5PH-5 | 2026-08-31 23:52:45 | 49.61156 | 8.55240 | 48° | 29km/h | 16757m | 3.9m/s | -51.0°C | 4.0% | 96.6hPa | 2.6V | 00:00:00 | 01:24:26 | 00:00:00 | |
| DL1XH1-15 | 2026-08-31 23:52:44 | 49.61135 | 8.55174 | 77° | 29km/h | 16735m | 4.3m/s | -50.9°C | 0% | 0hPa | 2.6V | 03:54:44 | 01:24:20 | 00:00:00 | |
| DL1XH-west | 2026-08-31 23:52:41 | 49.61139 | 8.55197 | 73° | 33km/h | 16742m | 3.7m/s | -51°C | 1.1% | 96.9hPa | 2.7V | 03:54:55 | 01:24:22 | 00:00:00 | |
| BIOWL1-15 | 2026-08-31 23:52:38 | 49.61134 | 8.55163 | 74° | 26km/h | 16731m | 4.2m/s | -50.9°C | 1% | 97.1hPa | 2.6V | 03:54:55 | 01:24:19 | 00:00:00 | |
| DO1YAY-16 | 2026-08-31 23:52:36 | 49.61129 | 8.55145 | 64° | 24km/h | 16723m | 4.0m/s | -50.8°C | 1.4% | 97.2hPa | 2.6V | 00:00:00 | 00:00:00 | 00:00:00 | |
| DL1XH1-15 | 2026-08-31 23:52:34 | 49.61103 | 8.55084 | 53° | 29km/h | 16696m | 4.8m/s | 0°C | 0% | 0hPa | 2.6V | 03:54:54 | 01:24:10 | 00:00:00 | |
| DL1XH-west | 2026-08-31 23:52:31 | 49.61111 | 8.55101 | 51° | 26km/h | 16703m | 4m/s | -51°C | 1.1% | 97.4hPa | 2.7V | 03:54:55 | 01:24:12 | 00:00:00 | |
| BIOWL1-15 | 2026-08-31 23:52:28 | 49.61093 | 8.55029 | 97° | 27km/h | 16673m | 4.6m/s | -50.6°C | 1% | 97.9hPa | 2.6V | 03:55:46 | 01:24:05 | 00:00:00 | |
| DL1XH1-15 | 2026-08-31 23:52:24 | 49.61087 | 8.54984 | 53° | 29km/h | 16653m | 2.9m/s | 0°C | 0% | 0hPa | 2.6V | 00:00:00 | 01:24:00 | 00:00:00 | |
| DL1XH-west | 2026-08-31 23:52:20 | 49.61091 | 8.54993 | 60° | 26km/h | 16656m | 3.4m/s | -50.3°C | 0.9% | 98.2hPa | 2.7V | 03:55:46 | 01:24:01 | 00:00:00 | |
| BIOWL1-15 | 2026-08-31 23:52:19 | 49.61077 | 8.54964 | 59° | 33km/h | 16645m | 4.8m/s | -50.3°C | 0.9% | 98.3hPa | 2.6V | 03:55:46 | 01:23:58 | 00:00:00 | |
| DJ2KF-10 | 2026-08-31 23:52:19 | 49.61087 | 8.54984 | 54° | 40km/h | 16653m | 2.8m/s | -50.2°C | 3.8% | 98.1hPa | 2.6V | 00:00:00 | 01:24:00 | 00:00:00 | |
| HEMX73-11 | 2026-08-31 23:52:18 | 49.61082 | 8.54975 | 53° | 31km/h | 16649m | 4.5m/s | -50.2°C | 1.4% | 98.2hPa | 2.6V | 03:55:00 | 00:00:00 | 00:00:00 | |
| DK5PH-5 | 2026-08-31 23:52:15 | 49.61072 | 8.54941 | 81° | 40km/h | 16634m | 5.1m/s | -50.3°C | 3.8% | 98.4hPa | 2.6V | 00:00:00 | 01:23:56 | 00:00:00 | |
| DL1XH1-15 | 2026-08-31 23:52:13 | 49.61076 | 8.54858 | 83° | 29km/h | 16599m | 4.4m/s | 0°C | 0% | 0hPa | 2.6V | 00:00:00 | 01:23:49 | 00:00:00 | |
| DL1XH-west | 2026-08-31 23:52:10 | 49.61076 | 8.54881 | 95° | 29km/h | 16609m | 5.5m/s | -50.9°C | 0.9% | 98.8hPa | 2.7V | 03:55:46 | 01:23:51 | 00:00:00 | |
| BIOWL1-15 | 2026-08-31 23:52:07 | 49.61075 | 8.54846 | 84° | 31km/h | 16595m | 4.4m/s | -51°C | 1% | 99.1hPa | 2.6V | 03:55:46 | 01:23:48 | 00:00:00 | |
| BIOWL9-15 | 2026-08-31 23:52:07 | 49.61074 | 8.54834 | 87° | 33km/h | 16591m | 4.9m/s | -51.0°C | 1.5% | 99.1hPa | 2.7V | 00:00:00 | 00:00:00 | 00:00:00 | |
| DB0UT-7 | 2026-08-31 23:52:02 | 49.61077 | 8.54773 | 97° | 49km/h | 16573m | 4.7m/s | -51.1°C | 4.1% | 99.4hPa | 2.7V | 00:00:00 | 00:00:00 | 00:00:00 | |
| DL1XH1-15 | 2026-08-31 23:52:01 | 49.61084 | 8.54670 | 93° | 44km/h | 16545m | 4.3m/s | 0°C | 0% | 0hPa | 2.7V | 00:00:00 | 01:23:37 | 00:00:00 | |
| DL1XH-west | 2026-08-31 23:51:59 | 49.61081 | 8.54723 | 97° | 47km/h | 16559m | 4.8m/s | -51.1°C | 1% | 99.6hPa | 2.6V | 03:55:46 | 01:23:40 | 00:00:00 | |
| BIOWL1-15 | 2026-08-31 23:51:57 | 49.61084 | 8.54687 | 95° | 46km/h | 16550m | 4.6m/s | -51.1°C | 1% | 99.7hPa | 2.6V | 03:55:46 | 01:23:38 | 00:00:00 | |
| DL1XH-west | 2026-08-31 23:51:49 | 49.61093 | 8.54549 | 92° | 46km/h | 16518m | 4.4m/s | -51.2°C | 1.1% | 100.2hPa | 2.6V | 03:55:46 | 01:23:30 | 00:00:00 | |
| BIOWL1-15 | 2026-08-31 23:51:46 | 49.61092 | 8.54494 | 88° | 47km/h | 16506m | 4.6m/s | -51.2°C | 1% | 100.4hPa | 2.7V | 03:55:46 | 01:23:27 | 00:00:00 | |
| DF7PN | 2026-08-31 23:51:44 | 49.61092 | 8.54457 | 88° | 46km/h | 16498m | 3.5m/s | -51.3°C | 1.5% | 100.6hPa | 2.6V | 00:00:00 | 00:00:00 | 00:00:00 | |
| BIOWL1-15 | 2026-08-31 23:51:38 | 49.61088 | 8.54279 | 86° | 51km/h | 16456m | 5m/s | -51.3°C | 1% | 101.2hPa | 2.6V | 03:56:37 | 01:23:15 | 00:00:00 | |
| DL1XH-west | 2026-08-31 23:51:37 | 49.61091 | 8.54337 | 88° | 47km/h | 16469m | 4.4m/s | -51.3°C | 1.1% | 101hPa | 2.6V | 03:55:46 | 01:23:18 | 00:00:00 | |
| DL1XH-west | 2026-08-31 23:51:27 | 49.61083 | 8.54139 | 89° | 51km/h | 16427m | 4m/s | -51.2°C | 1% | 0hPa | 2.6V | 03:57:28 | 01:23:08 | 00:00:00 | |
| BIOWL1-15 | 2026-08-31 23:51:27 | 49.61082 | 8.54099 | 85° | 51km/h | 16419m | 4.8m/s | -51.1°C | 1% | 101.8hPa | 2.7V | 03:56:37 | 01:23:06 | 00:00:00 | |
| DL1XH-west | 2026-08-31 23:51:16 | 49.61062 | 8.53919 | 81° | 51km/h | 16381m | 4.6m/s | -51.2°C | 1% | 0hPa | 2.7V | 03:57:28 | 01:22:57 | 00:00:00 | |
| BIOWL1-15 | 2026-08-31 23:51:15 | 49.61060 | 8.53899 | 82° | 51km/h | 16377m | 3.5m/s | -51.3°C | 1.1% | 102.5hPa | 2.7V | 03:56:37 | 01:22:56 | 00:00:00 | |
| DL1XH-west | 2026-08-31 23:51:05 | 49.61035 | 8.53716 | 72° | 51km/h | 16335m | 4m/s | -51.6°C | 1.1% | 0hPa | 2.7V | 03:57:28 | 01:22:46 | 00:00:00 | |
| BIOWL1-15 | 2026-08-31 23:51:04 | 49.61031 | 8.53697 | 74° | 51km/h | 16331m | 4.6m/s | -51.7°C | 1.1% | 103.2hPa | 2.6V | 03:56:37 | 01:22:45 | 00:00:00 | |
| DL1XH-west | 2026-08-31 23:50:54 | 49.61001 | 8.53510 | 82° | 49km/h | 16290m | 4.4m/s | -51.7°C | 1.1% | 0hPa | 2.6V | 03:57:28 | 01:22:35 | 00:00:00 | |
| DL8DAS-14 | 2026-08-31 23:50:46 | 49.60978 | 8.53336 | 74° | 58km/h | 16258m | 3.5m/s | -51.8°C | 1.5% | 104.4hPa | 2.6V | 00:00:00 | 00:00:00 | 00:00:00 | |
| DL1ZP-14 | 2026-08-31 23:50:45 | 49.60972 | 8.53291 | 83° | 57km/h | 16249m | 4.6m/s | -51.8°C | 1.5% | 104.5hPa | 2.6V | 00:00:00 | 00:00:00 | 00:00:00 | |
| BIOWL1-15 | 2026-08-31 23:50:43 | 49.60971 | 8.53269 | 88° | 58km/h | 16245m | 4.2m/s | -51.7°C | 1.1% | 104.6hPa | 2.6V | 03:57:28 | 01:22:24 | 00:00:00 | |
| DB0UT-7 | 2026-08-31 23:50:42 | 49.60971 | 8.53246 | 90° | 57km/h | 16241m | 3.3m/s | -51.7°C | 4.1% | 104.6hPa | 2.6V | 00:00:00 | 00:00:00 | 00:00:00 | |
| DM3KS-11 | 2026-08-31 23:50:39 | 49.60969 | 8.53181 | 83° | 55km/h | 16229m | 3.7m/s | -51.7°C | 1.5% | 104.9hPa | 2.7V | 00:00:00 | 00:00:00 | 00:00:00 | |
| DB0UT-9 | 2026-08-31 23:50:38 | 49.60969 | 8.53181 | 85° | 57km/h | 16229m | 3.7m/s | -51.7°C | 1.6% | 104.9hPa | 2.7V | 03:57:00 | 00:00:00 | 00:00:00 | |
| BIOWL1-15 | 2026-08-31 23:50:35 | 49.60923 | 8.52790 | 70° | 53km/h | 16159m | 4.3m/s | -52°C | 1.2% | 106hPa | 2.7V | 03:57:28 | 01:22:02 | 00:00:00 | |
| BIOWL1-15 | 2026-08-31 23:50:17 | 49.60898 | 8.52644 | 84° | 53km/h | 16132m | 3.3m/s | -52.1°C | 1.2% | 106.4hPa | 2.6V | 03:57:28 | 01:21:55 | 00:00:00 | |
| BIOWL1-15 | 2026-08-31 23:50:06 | 49.60872 | 8.52435 | 77° | 57km/h | 16095m | 3.1m/s | -52°C | 1.2% | 107hPa | 2.6V | 03:57:28 | 01:21:45 | 00:00:00 | |
| DL1XH-west | 2026-08-31 23:49:58 | 49.60856 | 8.52306 | 79° | 60km/h | 16071m | 3.4m/s | 0°C | 0% | 0hPa | 2.6V | 03:57:28 | 01:21:39 | 00:00:00 | |
| BIOWL1-15 | 2026-08-31 23:49:53 | 49.60841 | 8.52196 | 81° | 55km/h | 16051m | 3.9m/s | -51.9°C | 1.2% | 107.7hPa | 2.6V | 03:58:19 | 01:21:34 | 00:00:00 | |
| DL1XH-west | 2026-08-31 23:49:48 | 49.60835 | 8.52090 | 84° | 53km/h | 16031m | 4.5m/s | 0°C | 0% | 0hPa | 2.6V | 18:12:15 | 01:21:29 | 00:00:00 | |
| DL8DAS-14 | 2026-08-31 23:49:44 | 49.60829 | 8.52007 | 84° | 53km/h | 16016m | 2.8m/s | -52.2°C | 1.6% | 108.3hPa | 2.7V | 00:00:00 | 00:00:00 | 00:00:00 | |
| DM0DOS-11 | 2026-08-31 23:49:43 | 49.60825 | 8.51928 | 86° | 51km/h | 16001m | 3.9m/s | -52.3°C | 4.3% | 108.6hPa | 2.7V | 03:57:43 | 01:21:21 | 00:00:00 | |
| BIOWL1-15 | 2026-08-31 23:49:42 | 49.60826 | 8.51947 | 85° | 49km/h | 16004m | 3.4m/s | -52.3°C | 1.2% | 108.6hPa | 2.7V | 03:58:19 | 01:21:22 | 00:00:00 | |
| DL1XH-west | 2026-08-31 23:49:32 | 49.60829 | 8.51765 | 94° | 55km/h | 15970m | 3.6m/s | 0°C | 0% | 0hPa | 2.6V | 18:12:15 | 01:21:13 | 00:00:00 | |
| BIOWL1-15 | 2026-08-31 23:49:31 | 49.60831 | 8.51723 | 91° | 55km/h | 15962m | 4.2m/s | -52.5°C | 1.3% | 109.2hPa | 2.7V | 03:58:19 | 01:21:11 | 00:00:00 | |
| HSKMA3-T | 2026-08-31 23:49:22 | 49.60830 | 8.51550 | 89° | 51km/h | 15933m | 4.3m/s | 0°C | 0% | 0hPa | 2.6V | 18:12:15 | 01:21:03 | 00:00:00 | |
| BIOWL1-15 | 2026-08-31 23:49:20 | 49.60830 | 8.51511 | 87° | 49km/h | 15926m | 3.2m/s | -52.5°C | 1.3% | 109.9hPa | 2.6V | 03:58:19 | 01:21:01 | 00:00:00 | |
| DL1XH-west | 2026-08-31 23:49:19 | 49.60829 | 8.51492 | 87° | 47km/h | 15922m | 4.6m/s | 0°C | 0% | 0hPa | 2.7V | 18:12:15 | 01:21:00 | 00:00:00 | |
| DJ2DS-15 | 2026-08-31 23:49:18 | 49.60828 | 8.51474 | 86° | 46km/h | 15918m | 3.4m/s | -52.5°C | 1.7% | 110.0hPa | 2.6V | 00:00:00 | 00:00:00 | 00:00:00 | |
| DM0DOS-11 | 2026-08-31 23:49:16 | 49.60825 | 8.51354 | 87° | 53km/h | 15897m | 4m/s | -52.5°C | 4.4% | 110.3hPa | 2.6V | 03:58:11 | 01:20:53 | 00:00:00 | |
| BIOWL1-15 | 2026-08-31 23:49:09 | 49.60823 | 8.51291 | 89° | 57km/h | 15886m | 4.1m/s | -52.4°C | 1.4% | 110.5hPa | 2.7V | 03:58:19 | 01:20:50 | 00:00:00 | |
| DL1XH-west | 2026-08-31 23:49:08 | 49.60823 | 8.51268 | 89° | 58km/h | 15883m | 3.4m/s | 0°C | 0% | 0hPa | 2.7V | 18:12:15 | 01:20:49 | 00:00:00 | |
| BIOWL1-15 | 2026-08-31 23:48:58 | 49.60827 | 8.50886 | 85° | 55km/h | 15823m | 3.2m/s | -52.7°C | 1.4% | 111.7hPa | 2.6V | 03:59:10 | 01:20:32 | 00:00:00 | |
| DB0UT-9 | 2026-08-31 23:48:55 | 49.60827 | 8.50978 | 93° | 64km/h | 15836m | 2.9m/s | -52.8°C | 1.7% | 111.4hPa | 2.7V | 00:00:00 | 00:00:00 | 00:00:00 | |
| HEMX73-11 | 2026-08-31 23:48:54 | 49.60827 | 8.50953 | 93° | 62km/h | 15833m | 2.7m/s | -52.7°C | 1.7% | 111.5hPa | 2.7V | 03:59:00 | 00:00:00 | 00:00:00 | |
| SFWM-10 | 2026-08-31 23:48:52 | 49.60828 | 8.50930 | 91° | 58km/h | 15830m | 3.8m/s | -52.7°C | 1.7% | 111.5hPa | 2.7V | 00:00:00 | 00:00:00 | 00:00:00 | |
| DL4BBY-15 | 2026-08-31 23:48:51 | 49.60827 | 8.50886 | 86° | 71km/h | 15823m | 3.2m/s | -53.4°C | 0% | 0hPa | 2.7V | 00:00:00 | 00:00:00 | 00:00:00 | |
| DM0DOS-11 | 2026-08-31 23:48:50 | 49.60824 | 8.50842 | 83° | 58km/h | 15816m | 3.6m/s | -52.8°C | 4.5% | 111.7hPa | 2.7V | 03:58:34 | 01:20:30 | 00:00:00 | |
| DF3TZ-5 | 2026-08-31 23:48:48 | 49.60822 | 8.50819 | 85° | 60km/h | 15813m | 2.9m/s | -52.8°C | 1.7% | 111.8hPa | 2.7V | 00:00:00 | 00:00:00 | 00:00:00 | |
| BIOWL1-15 | 2026-08-31 23:48:37 | 49.60818 | 8.50550 | 88° | 60km/h | 15774m | 3.5m/s | -52.8°C | 1.4% | 112.5hPa | 2.7V | 03:59:10 | 01:20:18 | 00:00:00 | |
| HSKMA3-T | 2026-08-31 23:48:32 | 49.60815 | 8.50433 | 90° | 58km/h | 15757m | 4.3m/s | 0°C | 0% | 0hPa | 2.7V | 18:12:15 | 01:20:13 | 00:00:00 | |
| BIOWL1-15 | 2026-08-31 23:48:27 | 49.60818 | 8.50319 | 95° | 58km/h | 15739m | 4m/s | -53.2°C | 1.5% | 113.1hPa | 2.7V | 03:59:10 | 01:20:08 | 00:00:00 | |
| BIOWL1-15 | 2026-08-31 23:48:20 | 49.60843 | 8.49966 | 86° | 62km/h | 15685m | 3.9m/s | -53.6°C | 1.6% | 114hPa | 2.6V | 04:00:01 | 01:19:53 | 00:00:00 | |
| DJ2KF-10 | 2026-08-31 23:48:20 | 49.60831 | 8.50158 | 101° | 64km/h | 15713m | 3.6m/s | -53.4°C | 4.5% | 113.5hPa | 2.7V | 03:59:00 | 01:20:01 | 00:00:00 | |
| DF3TZ-5 | 2026-08-31 23:48:17 | 49.60840 | 8.50086 | 98° | 64km/h | 15703m | 3.8m/s | -53.5°C | 1.8% | 113.7hPa | 2.7V | 00:00:00 | 00:00:00 | 00:00:00 | |
| DL8DAS-15 | 2026-08-31 23:48:15 | 49.60843 | 8.50036 | 95° | 62km/h | 15696m | 4.1m/s | -53.5°C | 1.8% | 113.9hPa | 2.7V | 03:59:00 | 00:00:00 | 00:00:00 | |
| KANTATE | 2026-08-31 23:48:13 | 49.60843 | 8.49989 | 89° | 60km/h | 15688m | 3.1m/s | 0°C | 0% | 114.0hPa | 2.7V | 03:59:00 | 00:00:00 | 00:00:00 | |
| BIOWL1-15 | 2026-08-31 23:48:07 | 49.60843 | 8.49536 | 89° | 64km/h | 15622m | 3.3m/s | -53.9°C | 1.6% | 115.2hPa | 2.7V | 04:00:01 | 01:19:36 | 00:00:00 | |
| BIOWL1-15 | 2026-08-31 23:48:01 | 49.60844 | 8.49484 | 92° | 68km/h | 15614m | 4.6m/s | -54°C | 1.6% | 115.3hPa | 2.6V | 04:00:01 | 01:19:34 | 00:00:00 | |
| HSKMA3-T | 2026-08-31 23:47:55 | 49.60843 | 8.49510 | 91° | 66km/h | 15618m | 3.5m/s | 0°C | 0% | 0hPa | 2.7V | 18:12:15 | 01:19:35 | 00:00:00 | |
| DF3TZ-5 | 2026-08-31 23:47:46 | 49.60849 | 8.49304 | 90° | 68km/h | 15589m | 3.9m/s | -54.1°C | 1.9% | 115.8hPa | 2.7V | 00:00:00 | 00:00:00 | 00:00:00 | |
| BIOWL1-15 | 2026-08-31 23:47:45 | 49.60846 | 8.49074 | 89° | 64km/h | 15555m | 3m/s | -54.2°C | 1.7% | 116.4hPa | 2.7V | 04:00:01 | 01:19:18 | 00:00:00 | |
| BIOWL1-15 | 2026-08-31 23:47:33 | 49.60848 | 8.48970 | 93° | 68km/h | 15541m | 3.8m/s | -54.3°C | 1.7% | 116.7hPa | 2.6V | 04:00:01 | 01:19:14 | 00:00:00 | |
| BIOWL1-15 | 2026-08-31 23:47:22 | 49.60859 | 8.48676 | 96° | 75km/h | 15498m | 3.4m/s | -54.5°C | 1.8% | 117.4hPa | 2.6V | 04:00:01 | 01:19:03 | 00:00:00 | |
| DJ2KF-10 | 2026-08-31 23:47:20 | 49.60863 | 8.48618 | 96° | 71km/h | 15491m | 3.8m/s | -54.4°C | 4.9% | 117.5hPa | 2.7V | 00:00:00 | 01:19:01 | 00:00:00 | |
| DM0DOS-11 | 2026-08-31 23:47:18 | 49.60870 | 8.48423 | 92° | 69km/h | 15464m | 3m/s | -54.5°C | 4.9% | 118.1hPa | 2.7V | 04:00:10 | 01:18:54 | 00:00:00 | |
| BIOWL1-15 | 2026-08-31 23:47:11 | 49.60870 | 8.48368 | 90° | 71km/h | 15456m | 4.2m/s | -54.5°C | 1.8% | 118.2hPa | 2.6V | 04:00:52 | 01:18:52 | 00:00:00 | |
| DJ2DS-15 | 2026-08-31 23:47:09 | 49.60870 | 8.48312 | 90° | 71km/h | 15448m | 4.7m/s | -54.4°C | 4.9% | 118.3hPa | 2.7V | 00:00:00 | 01:18:50 | 00:00:00 | |
| DM0DOS-11 | 2026-08-31 23:47:08 | 49.60863 | 8.48142 | 84° | 71km/h | 15424m | 4.4m/s | -54.5°C | 5% | 118.8hPa | 2.7V | 04:00:20 | 01:18:44 | 00:00:00 | |
| BIOWL1-15 | 2026-08-31 23:47:00 | 49.60858 | 8.48034 | 87° | 71km/h | 15409m | 3.9m/s | -54.4°C | 1.8% | 119.1hPa | 2.6V | 04:00:52 | 01:18:40 | 00:00:00 | |
| DB0ND-19 | 2026-08-31 23:46:59 | 49.60858 | 8.48034 | 86° | 69km/h | 15409m | 3.9m/s | -54.4°C | 2.0% | 119.1hPa | 2.6V | 00:00:00 | 00:00:00 | 00:00:00 | |
| DM0DOS-11 | 2026-08-31 23:46:56 | 49.60852 | 8.47866 | 86° | 73km/h | 15385m | 3.5m/s | -54.4°C | 4.9% | 119.5hPa | 2.6V | 04:00:30 | 01:18:34 | 00:00:00 | |
| BIOWL1-15 | 2026-08-31 23:46:51 | 49.60847 | 8.47756 | 87° | 69km/h | 15371m | 3.7m/s | -54.3°C | 1.8% | 119.8hPa | 2.6V | 04:00:52 | 01:18:30 | 00:00:00 | |
| DF3TZ-5 | 2026-08-31 23:46:44 | 49.60847 | 8.47623 | 90° | 68km/h | 15351m | 3.4m/s | -54.3°C | 2.0% | 120.2hPa | 2.6V | 00:00:00 | 00:00:00 | 00:00:00 | |
| BIOWL1-15 | 2026-08-31 23:46:40 | 49.60848 | 8.47461 | 87° | 68km/h | 15328m | 3.9m/s | -54.2°C | 1.7% | 120.6hPa | 2.6V | 04:00:52 | 01:18:19 | 00:00:00 | |
| BIOWL1-15 | 2026-08-31 23:46:30 | 49.60856 | 8.47178 | 96° | 66km/h | 15286m | 4.3m/s | -54.1°C | 1.6% | 121.4hPa | 2.7V | 04:01:43 | 01:18:08 | 00:00:00 | |
| DJ2DS-15 | 2026-08-31 23:46:29 | 49.60853 | 8.47230 | 96° | 69km/h | 15293m | 4.2m/s | -54.1°C | 4.8% | 121.2hPa | 2.7V | 00:00:00 | 01:18:10 | 00:00:00 | |
| DB0ND-19 | 2026-08-31 23:46:28 | 49.60854 | 8.47204 | 96° | 66km/h | 15290m | 3.2m/s | -54.1°C | 1.9% | 121.3hPa | 2.7V | 00:00:00 | 00:00:00 | 00:00:00 | |
| BIOWL1-15 | 2026-08-31 23:46:16 | 49.60870 | 8.46713 | 92° | 75km/h | 15218m | 4.6m/s | -54.1°C | 1.6% | 122.7hPa | 2.7V | 04:01:43 | 01:17:51 | 00:00:00 | |
| BIOWL1-15 | 2026-08-31 23:46:02 | 49.60868 | 8.46482 | 88° | 69km/h | 15186m | 3.1m/s | -54.3°C | 1.6% | 123.3hPa | 2.6V | 04:01:43 | 01:17:43 | 00:00:00 | |
| BIOWL1-15 | 2026-08-31 23:45:52 | 49.60864 | 8.46064 | 86° | 71km/h | 15130m | 3.6m/s | -54.3°C | 1.6% | 124.3hPa | 2.6V | 04:01:43 | 01:17:28 | 00:00:00 | |
| DB0UT-7 | 2026-08-31 23:45:51 | 49.60866 | 8.46172 | 90° | 71km/h | 15145m | 4.2m/s | -54.2°C | 4.9% | 124.1hPa | 2.6V | 00:00:00 | 01:17:32 | 00:00:00 | |
| DJ2KF-10 | 2026-08-31 23:45:50 | 49.60866 | 8.46145 | 90° | 71km/h | 15141m | 3.4m/s | -54.2°C | 4.9% | 124.1hPa | 2.6V | 00:00:00 | 01:17:31 | 00:00:00 | |
| DJ2DS-15 | 2026-08-31 23:45:49 | 49.60866 | 8.46118 | 89° | 73km/h | 15138m | 3.2m/s | -54.2°C | 4.9% | 124.2hPa | 2.6V | 00:00:00 | 01:17:30 | 00:00:00 | |
| HEMX73-11 | 2026-08-31 23:45:48 | 49.60865 | 8.46091 | 88° | 69km/h | 15134m | 4.5m/s | -54.3°C | 1.9% | 124.3hPa | 2.6V | 04:01:00 | 00:00:00 | 00:00:00 | |
| DB0UT-9 | 2026-08-31 23:45:46 | 49.60864 | 8.46064 | 87° | 71km/h | 15130m | 3.6m/s | -54.3°C | 1.9% | 124.4hPa | 2.6V | 04:01:00 | 00:00:00 | 00:00:00 | |
| BIOWL1-15 | 2026-08-31 23:45:36 | 49.60846 | 8.45558 | 87° | 69km/h | 15064m | 3.6m/s | -54.4°C | 1.6% | 125.7hPa | 2.6V | 04:02:34 | 01:17:10 | 00:00:00 | |
| BIOWL1-15 | 2026-08-31 23:45:24 | 49.60832 | 8.45393 | 82° | 73km/h | 15042m | 3.2m/s | -54.4°C | 1.7% | 126.1hPa | 2.6V | 04:02:34 | 01:17:04 | 00:00:00 | |
| BIOWL9-15 | 2026-08-31 23:45:23 | 49.60832 | 8.45393 | 82° | 73km/h | 15042m | 3.2m/s | -54.4°C | 1.9% | 126.1hPa | 2.7V | 00:00:00 | 00:00:00 | 00:00:00 | |
| DB0UT-7 | 2026-08-31 23:45:21 | 49.60826 | 8.45335 | 82° | 71km/h | 15034m | 4.1m/s | -54.4°C | 5.0% | 126.2hPa | 2.7V | 00:00:00 | 00:00:00 | 00:00:00 | |
| DJ2KF-10 | 2026-08-31 23:45:20 | 49.60824 | 8.45306 | 83° | 71km/h | 15030m | 3.2m/s | -54.4°C | 4.9% | 126.3hPa | 2.7V | 04:02:00 | 01:17:01 | 00:00:00 | |
| DM0DOS-11 | 2026-08-31 23:45:18 | 49.60813 | 8.45164 | 82° | 73km/h | 15011m | 4.1m/s | -54.4°C | 4.9% | 126.7hPa | 2.7V | 04:02:08 | 01:16:56 | 00:00:00 | |
| BIOWL1-15 | 2026-08-31 23:45:13 | 49.60805 | 8.45079 | 82° | 73km/h | 15001m | 4.4m/s | -54.3°C | 1.8% | 126.9hPa | 2.6V | 04:02:34 | 01:16:53 | 00:00:00 | |
| BIOWL1-15 | 2026-08-31 23:45:04 | 49.60782 | 8.44829 | 84° | 69km/h | 14968m | 3.7m/s | -54.2°C | 1.7% | 127.6hPa | 2.6V | 04:02:34 | 01:16:44 | 00:00:00 | |
| DM0DOS-11 | 2026-08-31 23:45:04 | 49.60780 | 8.44802 | 83° | 71km/h | 14964m | 4.4m/s | -54.2°C | 4.8% | 127.7hPa | 2.7V | 04:02:21 | 01:16:43 | 00:00:00 | |
| BIOWL1-15 | 2026-08-31 23:44:50 | 49.60765 | 8.44448 | 91° | 71km/h | 14914m | 3.3m/s | -54.2°C | 1.7% | 128.7hPa | 2.7V | 04:02:34 | 01:16:30 | 00:00:00 | |
| DM0DOS-11 | 2026-08-31 23:44:50 | 49.60765 | 8.44448 | 91° | 71km/h | 14914m | 3.3m/s | -54.2°C | 4.8% | 128.7hPa | 2.7V | 04:02:34 | 01:16:30 | 00:00:00 | |
| BIOWL1-15 | 2026-08-31 23:44:44 | 49.60757 | 8.44137 | 89° | 73km/h | 14874m | 4.4m/s | -54°C | 1.7% | 129.5hPa | 2.6V | 04:03:25 | 01:16:19 | 00:00:00 | |
| BIOWL1-15 | 2026-08-31 23:44:29 | 49.60749 | 8.43885 | 86° | 71km/h | 14839m | 4.5m/s | -54.1°C | 1.8% | 130.2hPa | 2.7V | 04:03:25 | 01:16:10 | 00:00:00 | |
| DJ2DS-15 | 2026-08-31 23:44:29 | 49.60749 | 8.43885 | 87° | 75km/h | 14839m | 4.5m/s | -54.0°C | 4.9% | 130.1hPa | 2.6V | 04:02:00 | 01:16:10 | 00:00:00 | |
| BIOWL1-15 | 2026-08-31 23:44:19 | 49.60727 | 8.43367 | 87° | 73km/h | 14768m | 3.7m/s | -53.9°C | 1.8% | 131.6hPa | 2.6V | 04:03:25 | 01:15:52 | 00:00:00 | |
| DL4BBY-15 | 2026-08-31 23:44:15 | 49.60734 | 8.43484 | 84° | 78km/h | 14785m | 4.6m/s | -54.7°C | 0% | 0hPa | 2.6V | 00:00:00 | 00:00:00 | 00:00:00 | |
| BIOWL1-15 | 2026-08-31 23:44:01 | 49.60713 | 8.42938 | 86° | 80km/h | 14715m | 4.2m/s | -53.7°C | 1.9% | 132.7hPa | 2.6V | 04:05:07 | 01:15:38 | 00:00:00 | |
| BIOWL1-15 | 2026-08-31 23:43:51 | 49.60705 | 8.42750 | 86° | 80km/h | 14692m | 4.4m/s | -53.5°C | 1.8% | 133.2hPa | 2.6V | 04:05:07 | 01:15:32 | 00:00:00 | |
| BIOWL9-15 | 2026-08-31 23:43:50 | 49.60702 | 8.42686 | 85° | 80km/h | 14684m | 3.6m/s | -53.5°C | 2.0% | 133.4hPa | 2.7V | 00:00:00 | 00:00:00 | 00:00:00 | |
| DO1YAY-16 | 2026-08-31 23:43:49 | 49.60700 | 8.42655 | 84° | 78km/h | 14680m | 4.4m/s | -53.5°C | 2.0% | 133.5hPa | 2.7V | 00:00:00 | 00:00:00 | 00:00:00 | |
| BIOWL1-15 | 2026-08-31 23:43:41 | 49.60693 | 8.42436 | 88° | 78km/h | 14653m | 3.7m/s | -53.5°C | 1.9% | 134hPa | 2.7V | 04:05:07 | 01:15:22 | 00:00:00 | |
| DM0DOS-11 | 2026-08-31 23:43:40 | 49.60687 | 8.42243 | 86° | 84km/h | 14629m | 3.6m/s | -53.7°C | 5% | 134.5hPa | 2.6V | 04:03:48 | 01:15:16 | 00:00:00 | |
| BIOWL1-15 | 2026-08-31 23:43:34 | 49.60684 | 8.42073 | 89° | 84km/h | 14608m | 3.8m/s | -53.7°C | 2% | 135hPa | 2.6V | 04:05:07 | 01:15:11 | 00:00:00 | |
| BIOWL1-15 | 2026-08-31 23:43:20 | 49.60671 | 8.41746 | 83° | 88km/h | 14569m | 2.9m/s | -53.6°C | 2% | 135.8hPa | 2.7V | 04:05:07 | 01:15:01 | 00:00:00 | |
| DJ2KF-10 | 2026-08-31 23:43:20 | 49.60671 | 8.41746 | 83° | 88km/h | 14569m | 2.9m/s | -53.6°C | 5.0% | 135.7hPa | 2.7V | 00:00:00 | 01:15:01 | 00:00:00 | |
| DM0DOS-11 | 2026-08-31 23:43:19 | 49.60659 | 8.41583 | 86° | 86km/h | 14549m | 4.9m/s | -53.7°C | 5.1% | 136.2hPa | 2.6V | 04:04:08 | 01:14:56 | 00:00:00 | |
| BIOWL1-15 | 2026-08-31 23:43:10 | 49.60651 | 8.41380 | 84° | 91km/h | 14525m | 4.6m/s | -53.6°C | 2.1% | 136.7hPa | 2.6V | 04:05:07 | 01:14:50 | 00:00:00 | |
| DM0DOS-11 | 2026-08-31 23:43:09 | 49.60641 | 8.41238 | 83° | 89km/h | 14508m | 3.9m/s | -53.7°C | 5.1% | 137.1hPa | 2.7V | 04:04:18 | 01:14:46 | 00:00:00 | |
| DJ2DS-15 | 2026-08-31 23:43:09 | 49.60651 | 8.41380 | 85° | 89km/h | 14525m | 4.6m/s | -53.6°C | 5.0% | 136.7hPa | 2.6V | 00:00:00 | 01:14:50 | 00:00:00 | |
| DF3TZ-5 | 2026-08-31 23:43:07 | 49.60644 | 8.41273 | 83° | 89km/h | 14513m | 4.7m/s | -53.7°C | 2.2% | 137.0hPa | 2.6V | 00:00:00 | 00:00:00 | 00:00:00 | |
| HEMX73-11 | 2026-08-31 23:43:04 | 49.60639 | 8.41204 | 86° | 88km/h | 14505m | 3.3m/s | -53.7°C | 2.2% | 137.2hPa | 2.6V | 04:05:00 | 00:00:00 | 00:00:00 | |
| DL8DAS-14 | 2026-08-31 23:43:01 | 49.60635 | 8.41067 | 89° | 86km/h | 14488m | 4.8m/s | -53.7°C | 2.2% | 137.5hPa | 2.6V | 00:00:00 | 00:00:00 | 00:00:00 | |
| DM0DOS-11 | 2026-08-31 23:43:00 | 49.60627 | 8.40863 | 84° | 89km/h | 14463m | 4.5m/s | -53.7°C | 5.1% | 138hPa | 2.6V | 04:04:29 | 01:14:35 | 00:00:00 | |
| BIOWL1-15 | 2026-08-31 23:42:58 | 49.60633 | 8.40967 | 87° | 88km/h | 14476m | 4.6m/s | -53.7°C | 2.1% | 137.8hPa | 2.7V | 04:05:07 | 01:14:38 | 00:00:00 | |
| DF7PN | 2026-08-31 23:42:56 | 49.60632 | 8.40932 | 85° | 89km/h | 14471m | 3.7m/s | -53.7°C | 2.2% | 137.8hPa | 2.7V | 00:00:00 | 00:00:00 | 00:00:00 | |
| DM3KS-11 | 2026-08-31 23:42:54 | 49.60625 | 8.40828 | 83° | 88km/h | 14459m | 3.6m/s | -53.7°C | 2.2% | 138.1hPa | 2.7V | 00:00:00 | 00:00:00 | 00:00:00 | |
| DB0UT-7 | 2026-08-31 23:42:51 | 49.60620 | 8.40759 | 84° | 84km/h | 14451m | 4.5m/s | -53.7°C | 5.2% | 138.3hPa | 2.7V | 00:00:00 | 01:14:32 | 00:00:00 | |
| DJ2KF-10 | 2026-08-31 23:42:50 | 49.60618 | 8.40724 | 84° | 84km/h | 14448m | 3.3m/s | -53.7°C | 5.2% | 138.3hPa | 2.7V | 04:04:00 | 01:14:31 | 00:00:00 | |
| DM0DOS-11 | 2026-08-31 23:42:49 | 49.60608 | 8.40530 | 84° | 82km/h | 14424m | 4.1m/s | -53.6°C | 5.2% | 138.9hPa | 2.7V | 04:04:39 | 01:14:25 | 00:00:00 | |
| BIOWL1-15 | 2026-08-31 23:42:47 | 49.60612 | 8.40624 | 86° | 80km/h | 14436m | 3.7m/s | -53.7°C | 2.2% | 138.6hPa | 2.6V | 04:05:07 | 01:14:28 | 00:00:00 | |
| DL4BBY-15 | 2026-08-31 23:42:45 | 49.60609 | 8.40562 | 87° | 88km/h | 14428m | 4.1m/s | -54.4°C | 0% | 0hPa | 2.6V | 00:00:00 | 00:00:00 | 00:00:00 | |
| HEMX73-11 | 2026-08-31 23:42:42 | 49.60605 | 8.40497 | 84° | 84km/h | 14420m | 3.7m/s | -53.6°C | 2.3% | 139.0hPa | 2.6V | 04:05:00 | 00:00:00 | 00:00:00 | |
| DM0DOS-11 | 2026-08-31 23:42:39 | 49.60573 | 8.40146 | 83° | 84km/h | 14373m | 3.8m/s | -53.5°C | 5% | 140hPa | 2.6V | 04:04:51 | 01:14:13 | 00:00:00 | |
| BIOWL1-15 | 2026-08-31 23:42:33 | 49.60575 | 8.40178 | 83° | 82km/h | 14377m | 5.1m/s | -53.5°C | 2.2% | 139.9hPa | 2.6V | 04:05:07 | 01:14:14 | 00:00:00 | |
| DL8DAS-14 | 2026-08-31 23:42:30 | 49.60566 | 8.40050 | 83° | 82km/h | 14360m | 4.3m/s | -53.6°C | 2.3% | 140.2hPa | 2.7V | 00:00:00 | 00:00:00 | 00:00:00 | |
| DJ2DS-15 | 2026-08-31 23:42:29 | 49.60566 | 8.40049 | 84° | 86km/h | 14360m | 4.3m/s | -53.6°C | 5.1% | 140.2hPa | 2.7V | 00:00:00 | 01:14:10 | 00:00:00 | |
| DM0DOS-11 | 2026-08-31 23:42:27 | 49.60556 | 8.39880 | 84° | 86km/h | 14338m | 4.4m/s | -53.7°C | 5.1% | 140.8hPa | 2.7V | 04:04:59 | 01:14:05 | 00:00:00 | |
| BIOWL1-15 | 2026-08-31 23:42:22 | 49.60553 | 8.39813 | 86° | 86km/h | 14330m | 4.4m/s | -53.8°C | 2.2% | 140.9hPa | 2.7V | 04:05:07 | 01:14:03 | 00:00:00 | |
| DB0UT-7 | 2026-08-31 23:42:21 | 49.60551 | 8.39779 | 87° | 88km/h | 14326m | 4.5m/s | -53.7°C | 5.1% | 141.0hPa | 2.6V | 04:05:00 | 00:00:00 | 00:00:00 | |
| DJ2KF-10 | 2026-08-31 23:42:20 | 49.60549 | 8.39745 | 87° | 91km/h | 14321m | 3.8m/s | -53.7°C | 5.1% | 141.1hPa | 2.6V | 00:00:00 | 01:14:01 | 00:00:00 | |
| SFWM-10 | 2026-08-31 23:42:19 | 49.60548 | 8.39711 | 88° | 86km/h | 14317m | 4.1m/s | -53.7°C | 2.3% | 141.2hPa | 2.6V | 00:00:00 | 00:00:00 | 00:00:00 | |
| DB0UT-9 | 2026-08-31 23:42:18 | 49.60548 | 8.39711 | 88° | 86km/h | 14317m | 4.1m/s | -53.7°C | 2.3% | 141.2hPa | 2.6V | 04:05:00 | 00:00:00 | 00:00:00 | |
| BIOWL9-15 | 2026-08-31 23:42:17 | 49.60543 | 8.39613 | 84° | 84km/h | 14305m | 4.0m/s | -53.8°C | 2.3% | 141.5hPa | 2.6V | 00:00:00 | 00:00:00 | 00:00:00 | |
| DM0DOS-11 | 2026-08-31 23:42:15 | 49.60539 | 8.39546 | 83° | 88km/h | 14296m | 3.9m/s | -53.7°C | 5.1% | 141.7hPa | 2.6V | 04:05:09 | 01:13:55 | 00:00:00 | |
| BIOWL1-15 | 2026-08-31 23:42:11 | 49.60526 | 8.39380 | 84° | 88km/h | 14274m | 4.8m/s | -53.7°C | 2.3% | 142.2hPa | 2.7V | 04:05:58 | 01:13:50 | 00:00:00 | |
| DJ2DS-15 | 2026-08-31 23:42:09 | 49.60526 | 8.39380 | 84° | 89km/h | 14274m | 4.7m/s | -53.7°C | 5.1% | 142.1hPa | 2.7V | 00:00:00 | 01:13:50 | 00:00:00 | |
| DJTTGO | 2026-08-31 23:42:06 | 49.60521 | 8.39313 | 84° | 86km/h | 14266m | 4.7m/s | 0°C | 0% | 0hPa | 2.7V | 00:00:00 | 00:00:00 | 00:00:00 | |
| DM0DOS-11 | 2026-08-31 23:42:05 | 49.60511 | 8.39215 | 80° | 86km/h | 14252m | 4.8m/s | -53.8°C | 5.2% | 142.6hPa | 2.7V | 04:05:19 | 01:13:45 | 00:00:00 | |
| BIOWL1-15 | 2026-08-31 23:41:59 | 49.60494 | 8.39043 | 81° | 93km/h | 14231m | 4.2m/s | -53.9°C | 2.4% | 143.1hPa | 2.7V | 04:05:58 | 01:13:40 | 00:00:00 | |
| DL8DAS-14 | 2026-08-31 23:41:59 | 49.60490 | 8.39007 | 81° | 95km/h | 14227m | 4.8m/s | -54.0°C | 2.4% | 143.2hPa | 2.6V | 00:00:00 | 00:00:00 | 00:00:00 | |
| DL1ZP-14 | 2026-08-31 23:41:56 | 49.60482 | 8.38934 | 81° | 93km/h | 14218m | 4.1m/s | -54.0°C | 2.4% | 143.4hPa | 2.6V | 00:00:00 | 00:00:00 | 00:00:00 | |
| DK5PH-5 | 2026-08-31 23:41:55 | 49.60479 | 8.38898 | 81° | 93km/h | 14214m | 4.4m/s | -53.9°C | 5.4% | 143.4hPa | 2.6V | 00:00:00 | 01:13:36 | 00:00:00 | |
| DM0DOS-11 | 2026-08-31 23:41:54 | 49.60471 | 8.38828 | 79° | 89km/h | 14206m | 4m/s | -53.9°C | 5.4% | 143.7hPa | 2.7V | 04:05:30 | 01:13:34 | 00:00:00 | |
| BIOWL1-15 | 2026-08-31 23:41:53 | 49.60455 | 8.38691 | 80° | 88km/h | 14189m | 4.7m/s | -53.8°C | 2.4% | 144.1hPa | 2.6V | 04:05:58 | 01:13:30 | 00:00:00 | |
| DM3KS-11 | 2026-08-31 23:41:52 | 49.60463 | 8.38759 | 79° | 89km/h | 14197m | 3.8m/s | -53.9°C | 2.5% | 143.9hPa | 2.7V | 00:00:00 | 00:00:00 | 00:00:00 | |
| DB0ND-19 | 2026-08-31 23:41:49 | 49.60451 | 8.38658 | 80° | 86km/h | 14184m | 4.4m/s | -53.8°C | 2.4% | 144.2hPa | 2.7V | 00:00:00 | 00:00:00 | 00:00:00 | |
| BIOWL9-15 | 2026-08-31 23:41:46 | 49.60439 | 8.38555 | 79° | 89km/h | 14171m | 3.5m/s | -53.7°C | 2.4% | 144.5hPa | 2.7V | 00:00:00 | 00:00:00 | 00:00:00 | |
| BIOWL1-15 | 2026-08-31 23:41:38 | 49.60413 | 8.38300 | 83° | 99km/h | 14142m | 4.9m/s | -53.8°C | 2.4% | 145.1hPa | 2.7V | 04:05:58 | 01:13:19 | 00:00:00 | |
| BIOWL1-15 | 2026-08-31 23:41:28 | 49.60342 | 8.37718 | 78° | 97km/h | 14073m | 4.4m/s | -53.7°C | 2.4% | 146.7hPa | 2.7V | 04:06:49 | 01:13:03 | 00:00:00 | |
| BIOWL1-15 | 2026-08-31 23:41:13 | 49.60293 | 8.37357 | 77° | 95km/h | 14032m | 4.6m/s | -53.4°C | 2.3% | 147.6hPa | 2.6V | 04:06:49 | 01:12:53 | 00:00:00 | |
| BIOWL1-15 | 2026-08-31 23:41:02 | 49.60241 | 8.36966 | 76° | 89km/h | 13987m | 3.6m/s | -53.4°C | 2.3% | 148.6hPa | 2.7V | 04:06:49 | 01:12:42 | 00:00:00 | |
| BIOWL1-15 | 2026-08-31 23:40:51 | 49.60187 | 8.36621 | 78° | 89km/h | 13944m | 3.7m/s | -53.2°C | 2.3% | 149.7hPa | 2.6V | 04:06:49 | 01:12:32 | 00:00:00 | |
| DM3KS-11 | 2026-08-31 23:40:50 | 49.60177 | 8.36552 | 76° | 91km/h | 13936m | 4.5m/s | -53.2°C | 2.4% | 149.8hPa | 2.6V | 00:00:00 | 00:00:00 | 00:00:00 | |
| DB0ND-19 | 2026-08-31 23:40:47 | 49.60159 | 8.36450 | 73° | 86km/h | 13924m | 4.2m/s | -53.1°C | 2.4% | 150.2hPa | 2.6V | 00:00:00 | 00:00:00 | 00:00:00 | |
| BIOWL1-15 | 2026-08-31 23:40:41 | 49.60122 | 8.36224 | 74° | 86km/h | 13896m | 4.5m/s | -53.1°C | 2.3% | 150.8hPa | 2.6V | 04:06:49 | 01:12:20 | 00:00:00 | |
| BIOWL1-15 | 2026-08-31 23:40:31 | 49.60062 | 8.35958 | 71° | 88km/h | 13863m | 4.9m/s | -52.8°C | 2.1% | 151.6hPa | 2.7V | 04:07:40 | 01:12:12 | 00:00:00 | |
| BIOWL1-15 | 2026-08-31 23:40:21 | 49.59998 | 8.35652 | 69° | 86km/h | 13821m | 4.5m/s | -52.5°C | 2.1% | 152.6hPa | 2.6V | 04:07:40 | 01:12:02 | 00:00:00 | |
| DB0UT-7 | 2026-08-31 23:40:21 | 49.59998 | 8.35652 | 70° | 82km/h | 13822m | 4.4m/s | -52.5°C | 5.0% | 152.5hPa | 2.6V | 00:00:00 | 00:00:00 | 00:00:00 | |
| SFWM-10 | 2026-08-31 23:40:20 | 49.59998 | 8.35652 | 70° | 86km/h | 13822m | 4.5m/s | -52.5°C | 2.3% | 152.6hPa | 2.7V | 04:07:00 | 00:00:00 | 00:00:00 | |
| BIOWL1-15 | 2026-08-31 23:40:10 | 49.59867 | 8.35068 | 71° | 82km/h | 13745m | 4m/s | -52.1°C | 2% | 154.4hPa | 2.7V | 04:07:40 | 01:11:43 | 00:00:00 | |
| BIOWL1-15 | 2026-08-31 23:39:53 | 49.59811 | 8.34804 | 71° | 77km/h | 13707m | 4m/s | -52.2°C | 2.1% | 155.2hPa | 2.6V | 04:07:40 | 01:11:34 | 00:00:00 | |
| DL1ZP-14 | 2026-08-31 23:39:52 | 49.59805 | 8.34776 | 70° | 75km/h | 13703m | 4.3m/s | -52.2°C | 2.2% | 155.3hPa | 2.7V | 00:00:00 | 00:00:00 | 00:00:00 | |
| DF7PN | 2026-08-31 23:39:50 | 49.59787 | 8.34692 | 73° | 77km/h | 13691m | 4.1m/s | -52.1°C | 2.3% | 155.7hPa | 2.6V | 00:00:00 | 00:00:00 | 00:00:00 | |
| DM3KS-11 | 2026-08-31 23:39:47 | 49.59777 | 8.34634 | 75° | 75km/h | 13682m | 4.7m/s | -52.1°C | 2.2% | 155.9hPa | 2.6V | 00:00:00 | 00:00:00 | 00:00:00 | |
| DB0ND-19 | 2026-08-31 23:39:45 | 49.59762 | 8.34548 | 74° | 78km/h | 13670m | 4.7m/s | -52.2°C | 2.2% | 156.2hPa | 2.6V | 00:00:00 | 00:00:00 | 00:00:00 | |
| BIOWL1-15 | 2026-08-31 23:39:42 | 49.59751 | 8.34488 | 73° | 80km/h | 13662m | 4.2m/s | -52.2°C | 2.1% | 156.4hPa | 2.6V | 04:08:31 | 01:11:23 | 00:00:00 | |
| BIOWL1-15 | 2026-08-31 23:39:31 | 49.59696 | 8.34180 | 81° | 75km/h | 13618m | 3.3m/s | -52.1°C | 2.2% | 157.4hPa | 2.7V | 04:08:31 | 01:11:12 | 00:00:00 | |
| BIOWL1-15 | 2026-08-31 23:39:23 | 49.59654 | 8.33901 | 75° | 71km/h | 13579m | 4.1m/s | -52.2°C | 2.2% | 158.4hPa | 2.6V | 04:08:31 | 01:11:02 | 00:00:00 | |
| BIOWL1-15 | 2026-08-31 23:39:10 | 49.59607 | 8.33606 | 75° | 68km/h | 13535m | 3m/s | -52.1°C | 2.3% | 159.4hPa | 2.6V | 04:08:31 | 01:10:51 | 00:00:00 | |
| BIOWL1-15 | 2026-08-31 23:38:59 | 49.59575 | 8.33307 | 83° | 75km/h | 13493m | 4m/s | -51.7°C | 2.2% | 160.5hPa | 2.6V | 04:08:31 | 01:10:40 | 00:00:00 | |
| BIOWL1-15 | 2026-08-31 23:38:49 | 49.59544 | 8.32995 | 80° | 75km/h | 13450m | 3.6m/s | -51.4°C | 2.3% | 161.6hPa | 2.8V | 04:09:22 | 01:10:29 | 00:00:00 | |
| DF7PN | 2026-08-31 23:38:48 | 49.59541 | 8.32966 | 80° | 73km/h | 13446m | 3.5m/s | -51.3°C | 2.4% | 161.7hPa | 2.7V | 00:00:00 | 00:00:00 | 00:00:00 | |
| DM3KS-11 | 2026-08-31 23:38:45 | 49.59535 | 8.32909 | 82° | 73km/h | 13438m | 3.4m/s | -51.3°C | 2.4% | 161.9hPa | 2.7V | 00:00:00 | 00:00:00 | 00:00:00 | |
| BIOWL1-15 | 2026-08-31 23:38:35 | 49.59508 | 8.32623 | 78° | 71km/h | 13398m | 4.4m/s | -50.9°C | 2.3% | 162.8hPa | 2.7V | 04:09:22 | 01:10:16 | 00:00:00 | |
| DB0UT-9 | 2026-08-31 23:38:33 | 49.59504 | 8.32596 | 79° | 71km/h | 13394m | 3.9m/s | -50.9°C | 2.4% | 163.0hPa | 2.6V | 04:09:00 | 00:00:00 | 00:00:00 | |
| DJ2DS-15 | 2026-08-31 23:38:29 | 49.59484 | 8.32449 | 81° | 77km/h | 13375m | 4.0m/s | -50.8°C | 4.9% | 163.4hPa | 2.6V | 00:00:00 | 01:10:10 | 00:00:00 | |
| DM0DOS-11 | 2026-08-31 23:38:27 | 49.59473 | 8.32332 | 80° | 73km/h | 13359m | 4.1m/s | -50.9°C | 4.9% | 163.8hPa | 2.6V | 04:08:58 | 01:10:06 | 00:00:00 | |
| BIOWL1-15 | 2026-08-31 23:38:24 | 49.59456 | 8.32189 | 81° | 77km/h | 13339m | 4m/s | -50.9°C | 2.4% | 164.3hPa | 2.6V | 04:09:22 | 01:10:01 | 00:00:00 | |
| DK5PH-5 | 2026-08-31 23:38:23 | 49.59466 | 8.32275 | 79° | 78km/h | 13351m | 4.0m/s | -50.8°C | 4.9% | 164.0hPa | 2.6V | 00:00:00 | 01:10:04 | 00:00:00 | |
| DJ3KS | 2026-08-31 23:38:21 | 49.59462 | 8.32247 | 80° | 77km/h | 13347m | 3.5m/s | -50.9°C | 2.5% | 164.2hPa | 2.6V | 04:09:00 | 00:00:00 | 00:00:00 | |
| DM0DOS-11 | 2026-08-31 23:38:20 | 49.59439 | 8.32037 | 79° | 78km/h | 13318m | 4m/s | -50.9°C | 5% | 164.9hPa | 2.6V | 04:09:08 | 01:09:56 | 00:00:00 | |
| BIOWL1-15 | 2026-08-31 23:38:13 | 49.59431 | 8.31977 | 78° | 78km/h | 13311m | 4.2m/s | -50.9°C | 2.5% | 165.1hPa | 2.6V | 04:09:22 | 01:09:54 | 00:00:00 | |
| BIOWL1-15 | 2026-08-31 23:38:05 | 49.59391 | 8.31674 | 78° | 86km/h | 13272m | 4.5m/s | -50.9°C | 2.5% | 166.1hPa | 2.7V | 04:09:22 | 01:09:44 | 00:00:00 | |
| BIOWL1-15 | 2026-08-31 23:37:54 | 49.59345 | 8.31321 | 80° | 84km/h | 13227m | 4.2m/s | -51.1°C | 2.6% | 167.2hPa | 2.6V | 04:10:13 | 01:09:33 | 00:00:00 | |
| DK5PH-5 | 2026-08-31 23:37:53 | 49.59349 | 8.31353 | 79° | 84km/h | 13231m | 3.5m/s | -51.0°C | 5.1% | 167.1hPa | 2.6V | 04:09:00 | 01:09:34 | 00:00:00 | |
| DM0DOS-11 | 2026-08-31 23:37:52 | 49.59325 | 8.31128 | 81° | 84km/h | 13204m | 4.4m/s | -51.2°C | 5.2% | 167.8hPa | 2.6V | 04:09:37 | 01:09:27 | 00:00:00 | |
| DL8DAS-14 | 2026-08-31 23:37:50 | 49.59338 | 8.31257 | 80° | 82km/h | 13219m | 3.4m/s | -51.2°C | 2.6% | 167.5hPa | 2.6V | 00:00:00 | 00:00:00 | 00:00:00 | |
| DL1ZP-14 | 2026-08-31 23:37:48 | 49.59331 | 8.31193 | 80° | 84km/h | 13211m | 4.2m/s | -51.2°C | 2.6% | 167.7hPa | 2.6V | 00:00:00 | 00:00:00 | 00:00:00 | |
| DF7PN | 2026-08-31 23:37:46 | 49.59321 | 8.31096 | 81° | 82km/h | 13199m | 4.1m/s | -51.2°C | 2.6% | 167.9hPa | 2.6V | 00:00:00 | 00:00:00 | 00:00:00 | |
| BIOWL1-15 | 2026-08-31 23:37:42 | 49.59311 | 8.31000 | 79° | 84km/h | 13187m | 3.5m/s | -51.3°C | 2.6% | 168.3hPa | 2.6V | 04:10:13 | 01:09:23 | 00:00:00 | |
| DJ3KS | 2026-08-31 23:37:41 | 49.59311 | 8.31000 | 80° | 84km/h | 13187m | 3.5m/s | -51.3°C | 0% | 0hPa | 2.6V | 04:10:00 | 00:00:00 | 00:00:00 | |
| DM0DOS-11 | 2026-08-31 23:37:40 | 49.59293 | 8.30838 | 78° | 86km/h | 13168m | 4.3m/s | -51.1°C | 5% | 168.8hPa | 2.6V | 04:09:46 | 01:09:18 | 00:00:00 | |
| BIOWL1-15 | 2026-08-31 23:37:32 | 49.59263 | 8.30580 | 82° | 82km/h | 13137m | 4m/s | -51°C | 2.5% | 169.6hPa | 2.6V | 04:10:13 | 01:09:10 | 00:00:00 | |
| DB0UT-9 | 2026-08-31 23:37:31 | 49.59272 | 8.30675 | 82° | 82km/h | 13149m | 3.2m/s | -51.0°C | 2.5% | 169.3hPa | 2.8V | 04:10:00 | 00:00:00 | 00:00:00 | |
| DJ2DS-15 | 2026-08-31 23:37:29 | 49.59263 | 8.30580 | 82° | 82km/h | 13137m | 4.0m/s | -50.9°C | 4.9% | 169.5hPa | 2.8V | 00:00:00 | 01:09:10 | 00:00:00 | |
| DM0DOS-11 | 2026-08-31 23:37:28 | 49.59258 | 8.30518 | 82° | 78km/h | 13129m | 3.5m/s | -51°C | 4.9% | 169.8hPa | 2.8V | 04:09:56 | 01:09:08 | 00:00:00 | |
| DF3TZ-5 | 2026-08-31 23:37:25 | 49.59252 | 8.30456 | 80° | 82km/h | 13121m | 4.3m/s | -51.2°C | 2.5% | 170.0hPa | 2.7V | 00:00:00 | 00:00:00 | 00:00:00 | |
| DK5PH-5 | 2026-08-31 23:37:23 | 49.59245 | 8.30392 | 81° | 84km/h | 13113m | 4.4m/s | -51.3°C | 4.9% | 170.2hPa | 2.7V | 00:00:00 | 01:09:04 | 00:00:00 | |
| DM0DOS-11 | 2026-08-31 23:37:21 | 49.59228 | 8.30198 | 85° | 84km/h | 13089m | 4.6m/s | -51.8°C | 5% | 170.8hPa | 2.7V | 04:10:06 | 01:08:58 | 00:00:00 | |
| BIOWL1-15 | 2026-08-31 23:37:19 | 49.59226 | 8.30133 | 87° | 84km/h | 13081m | 3.5m/s | -51.9°C | 2.3% | 171hPa | 2.8V | 04:10:13 | 01:08:56 | 00:00:00 | |
| DL8DAS-15 | 2026-08-31 23:37:18 | 49.59233 | 8.30263 | 84° | 84km/h | 13097m | 4.1m/s | -51.6°C | 2.5% | 170.6hPa | 2.7V | 00:00:00 | 00:00:00 | 00:00:00 | |
| DL1ZP-14 | 2026-08-31 23:37:17 | 49.59228 | 8.30198 | 85° | 82km/h | 13089m | 4.6m/s | -51.8°C | 2.5% | 170.8hPa | 2.7V | 00:00:00 | 00:00:00 | 00:00:00 | |
| DF7PN | 2026-08-31 23:37:14 | 49.59225 | 8.30101 | 86° | 82km/h | 13077m | 4.7m/s | -51.9°C | 2.4% | 171.2hPa | 2.7V | 00:00:00 | 00:00:00 | 00:00:00 | |
| DB0UT-7 | 2026-08-31 23:37:13 | 49.59223 | 8.30068 | 86° | 86km/h | 13073m | 3.5m/s | -51.8°C | 5.0% | 171.2hPa | 2.7V | 04:10:00 | 00:00:00 | 00:00:00 | |
| DM3KS-11 | 2026-08-31 23:37:12 | 49.59222 | 8.30036 | 84° | 82km/h | 13069m | 3.5m/s | -51.9°C | 2.4% | 171.3hPa | 2.6V | 00:00:00 | 00:00:00 | 00:00:00 | |
| DM0DOS-11 | 2026-08-31 23:37:11 | 49.59212 | 8.29877 | 84° | 86km/h | 13050m | 4m/s | -52°C | 5% | 171.9hPa | 2.6V | 04:10:16 | 01:08:48 | 00:00:00 | |
| BIOWL1-15 | 2026-08-31 23:37:08 | 49.59210 | 8.29844 | 85° | 88km/h | 13046m | 3.9m/s | -52.1°C | 2.2% | 172hPa | 2.6V | 04:11:04 | 01:08:47 | 00:00:00 | |
| BIOWL9-15 | 2026-08-31 23:37:06 | 49.59210 | 8.29844 | 84° | 86km/h | 13046m | 3.9m/s | -52.1°C | 2.4% | 172.0hPa | 2.8V | 00:00:00 | 00:00:00 | 00:00:00 | |
| DO1YAY-16 | 2026-08-31 23:37:05 | 49.59177 | 8.29306 | 87° | 88km/h | 12981m | 4.0m/s | -52.4°C | 2.4% | 173.7hPa | 2.8V | 00:00:00 | 00:00:00 | 00:00:00 | |
| DM0DOS-11 | 2026-08-31 23:36:59 | 49.59187 | 8.29539 | 84° | 86km/h | 13010m | 4.1m/s | -52.3°C | 5% | 172.9hPa | 2.8V | 04:10:26 | 01:08:38 | 00:00:00 | |
| BIOWL1-15 | 2026-08-31 23:36:58 | 49.59189 | 8.29572 | 83° | 84km/h | 13014m | 3.4m/s | -52.3°C | 2.3% | 172.8hPa | 2.7V | 04:11:04 | 01:08:39 | 00:00:00 | |
| DF3TZ-5 | 2026-08-31 23:36:54 | 49.59181 | 8.29439 | 86° | 84km/h | 12998m | 4.7m/s | -52.4°C | 2.5% | 173.2hPa | 2.7V | 00:00:00 | 00:00:00 | 00:00:00 | |
| HEMX73-11 | 2026-08-31 23:36:51 | 49.59179 | 8.29373 | 88° | 86km/h | 12990m | 3.6m/s | -52.4°C | 2.4% | 173.5hPa | 2.7V | 04:11:00 | 00:00:00 | 00:00:00 | |
| DB0UT-9 | 2026-08-31 23:36:50 | 49.59177 | 8.29306 | 89° | 88km/h | 12981m | 4.0m/s | -52.4°C | 2.5% | 173.7hPa | 2.7V | 04:11:00 | 00:00:00 | 00:00:00 | |
| DM0DOS-11 | 2026-08-31 23:36:49 | 49.59175 | 8.29205 | 88° | 86km/h | 12969m | 3.3m/s | -52.4°C | 5% | 174.1hPa | 2.7V | 04:10:36 | 01:08:28 | 00:00:00 | |
| BIOWL1-15 | 2026-08-31 23:36:48 | 49.59175 | 8.29238 | 88° | 86km/h | 12973m | 4.3m/s | -52.4°C | 2.3% | 173.9hPa | 2.7V | 04:11:04 | 01:08:29 | 00:00:00 | |
| DL1ZP-14 | 2026-08-31 23:36:46 | 49.59174 | 8.29172 | 87° | 86km/h | 12965m | 4.6m/s | -52.4°C | 2.4% | 174.1hPa | 2.8V | 00:00:00 | 00:00:00 | 00:00:00 | |
| DM0DOS-11 | 2026-08-31 23:36:43 | 49.59171 | 8.28881 | 90° | 78km/h | 12929m | 3.9m/s | -52.4°C | 4.8% | 175.1hPa | 2.8V | 04:10:46 | 01:08:18 | 00:00:00 | |
| BIOWL1-15 | 2026-08-31 23:36:37 | 49.59173 | 8.28787 | 91° | 84km/h | 12917m | 3.9m/s | -52.5°C | 2.2% | 175.4hPa | 2.7V | 04:11:04 | 01:08:15 | 00:00:00 | |
| BIOWL9-15 | 2026-08-31 23:36:35 | 49.59172 | 8.28819 | 91° | 80km/h | 12921m | 4.6m/s | -52.5°C | 2.3% | 175.3hPa | 2.8V | 00:00:00 | 00:00:00 | 00:00:00 | |
| DL8DAS-15 | 2026-08-31 23:36:34 | 49.59172 | 8.28819 | 92° | 82km/h | 12921m | 4.6m/s | -52.5°C | 2.3% | 175.3hPa | 2.8V | 00:00:00 | 00:00:00 | 00:00:00 | |
| DH7VM-15 | 2026-08-31 23:36:33 | 49.59172 | 8.28787 | 92° | 84km/h | 12917m | 3.9m/s | -52.5°C | 2.3% | 175.4hPa | 2.8V | 00:00:00 | 00:00:00 | 00:00:00 | |
| HEMX73-11 | 2026-08-31 23:36:31 | 49.59174 | 8.28721 | 95° | 86km/h | 12910m | 3.7m/s | -52.6°C | 2.4% | 175.7hPa | 2.8V | 04:11:00 | 00:00:00 | 00:00:00 | |
| DM0DOS-11 | 2026-08-31 23:36:30 | 49.59188 | 8.28563 | 97° | 80km/h | 12889m | 4.1m/s | -52.7°C | 5.1% | 176.2hPa | 2.8V | 04:10:56 | 01:08:08 | 00:00:00 | |
| BIOWL1-15 | 2026-08-31 23:36:25 | 49.59193 | 8.28501 | 98° | 80km/h | 12882m | 4.1m/s | -52.8°C | 2.2% | 176.4hPa | 2.6V | 04:11:04 | 01:08:06 | 00:00:00 | |
| BIOWL1-15 | 2026-08-31 23:36:14 | 49.59222 | 8.28144 | 96° | 89km/h | 12837m | 3.5m/s | -52.9°C | 2.3% | 177.6hPa | 2.8V | 04:11:55 | 01:07:55 | 00:00:00 | |
| BIOWL1-15 | 2026-08-31 23:36:08 | 49.59242 | 8.27690 | 92° | 89km/h | 12787m | 4.1m/s | -52.7°C | 2.4% | 179hPa | 2.8V | 04:11:55 | 01:07:42 | 00:00:00 | |
| BIOWL1-15 | 2026-08-31 23:35:55 | 49.59246 | 8.27416 | 91° | 88km/h | 12755m | 4m/s | -53.1°C | 2.8% | 179.9hPa | 2.7V | 04:11:55 | 01:07:34 | 00:00:00 | |
| DF3TZ-5 | 2026-08-31 23:35:52 | 49.59246 | 8.27382 | 91° | 86km/h | 12752m | 3.2m/s | -53.1°C | 2.7% | 180.0hPa | 2.8V | 00:00:00 | 00:00:00 | 00:00:00 | |
| DL8DAS-14 | 2026-08-31 23:35:46 | 49.59247 | 8.27174 | 86° | 89km/h | 12729m | 3.5m/s | -53.2°C | 2.8% | 180.7hPa | 2.8V | 00:00:00 | 00:00:00 | 00:00:00 | |
| BIOWL1-15 | 2026-08-31 23:35:45 | 49.59243 | 8.27070 | 89° | 88km/h | 12717m | 3.5m/s | -53.2°C | 3% | 181hPa | 2.8V | 04:11:55 | 01:07:24 | 00:00:00 | |
| BIOWL1-15 | 2026-08-31 23:35:34 | 49.59245 | 8.26716 | 92° | 86km/h | 12674m | 4.8m/s | -53.1°C | 3.4% | 182.2hPa | 2.8V | 04:11:55 | 01:07:13 | 00:00:00 | |
| BIOWL9-15 | 2026-08-31 23:35:33 | 49.59245 | 8.26749 | 90° | 84km/h | 12678m | 3.0m/s | -53.2°C | 3.1% | 182.1hPa | 2.8V | 00:00:00 | 00:00:00 | 00:00:00 | |
| BIOWL1-15 | 2026-08-31 23:35:21 | 49.59276 | 8.26107 | 96° | 89km/h | 12604m | 4.5m/s | -53.2°C | 4.5% | 184.2hPa | 2.8V | 04:12:46 | 01:06:55 | 00:00:00 | |
| BIOWL1-15 | 2026-08-31 23:35:06 | 49.59310 | 8.25803 | 103° | 88km/h | 12568m | 3.8m/s | -53.2°C | 5.3% | 185.2hPa | 2.8V | 04:12:46 | 01:06:46 | 00:00:00 | |
| BIOWL1-15 | 2026-08-31 23:34:54 | 49.59370 | 8.25316 | 99° | 95km/h | 12512m | 4.5m/s | -53.2°C | 7% | 186.8hPa | 2.7V | 04:12:46 | 01:06:32 | 00:00:00 | |
| DJ2DS-15 | 2026-08-31 23:34:53 | 49.59366 | 8.25352 | 99° | 91km/h | 12517m | 3.7m/s | -53.1°C | 5.2% | 186.7hPa | 2.8V | 00:00:00 | 00:00:00 | 00:00:00 | |
| DF3TZ-5 | 2026-08-31 23:34:50 | 49.59374 | 8.25280 | 98° | 95km/h | 12508m | 3.7m/s | -53.2°C | 5.4% | 187.0hPa | 2.8V | 00:00:00 | 00:00:00 | 00:00:00 | |
| BIOWL1-15 | 2026-08-31 23:34:45 | 49.59399 | 8.25021 | 99° | 99km/h | 12482m | 3.7m/s | -53.5°C | 8.3% | 187.7hPa | 2.8V | 04:12:46 | 01:06:24 | 00:00:00 | |
| DL8DAS-14 | 2026-08-31 23:34:44 | 49.59395 | 8.25059 | 99° | 99km/h | 12486m | 3.7m/s | -53.4°C | 6.0% | 187.6hPa | 2.8V | 00:00:00 | 00:00:00 | 00:00:00 | |
| BIOWL1-15 | 2026-08-31 23:34:33 | 49.59456 | 8.24565 | 100° | 102km/h | 12432m | 3.8m/s | -54°C | 9.7% | 189.2hPa | 2.8V | 04:13:37 | 01:06:12 | 00:00:00 | |
| BIOWL9-15 | 2026-08-31 23:34:31 | 49.59456 | 8.24565 | 99° | 100km/h | 12432m | 3.8m/s | -54.0°C | 7.2% | 189.2hPa | 2.7V | 00:00:00 | 00:00:00 | 00:00:00 | |
| DJ2DS-15 | 2026-08-31 23:34:29 | 49.59464 | 8.24484 | 98° | 110km/h | 12422m | 5.6m/s | -54.0°C | 11.1% | 189.4hPa | 2.7V | 04:12:00 | 01:06:10 | 00:00:00 | |
| HEMX73-11 | 2026-08-31 23:34:27 | 49.59468 | 8.24442 | 98° | 111km/h | 12417m | 4.6m/s | -54.1°C | 7.5% | 189.6hPa | 2.7V | 04:13:00 | 00:00:00 | 00:00:00 | |
| DB0UT-9 | 2026-08-31 23:34:25 | 49.59475 | 8.24356 | 97° | 111km/h | 12408m | 5.0m/s | -54.2°C | 7.7% | 189.9hPa | 2.7V | 04:13:00 | 00:00:00 | 00:00:00 | |
| DM0DOS-11 | 2026-08-31 23:34:24 | 49.59483 | 8.24228 | 95° | 111km/h | 12395m | 5m/s | -54.2°C | 11.6% | 190.2hPa | 2.7V | 04:13:00 | 01:06:04 | 00:00:00 | |
| BIOWL1-15 | 2026-08-31 23:34:23 | 49.59487 | 8.24185 | 96° | 111km/h | 12391m | 4.2m/s | -54.2°C | 10.6% | 190.4hPa | 2.8V | 04:13:37 | 01:06:03 | 00:00:00 | |
| BIOWL1-15 | 2026-08-31 23:34:11 | 49.59527 | 8.23636 | 95° | 110km/h | 12338m | 3.8m/s | -54.3°C | 12.5% | 192hPa | 2.7V | 04:13:37 | 01:05:50 | 00:00:00 | |
| BIOWL1-15 | 2026-08-31 23:33:59 | 49.59545 | 8.23217 | 96° | 108km/h | 12300m | 4.4m/s | -54.7°C | 15.3% | 193.1hPa | 2.8V | 04:13:37 | 01:05:40 | 00:00:00 | |
| DO1YAY-16 | 2026-08-31 23:33:58 | 49.59548 | 8.23175 | 97° | 108km/h | 12296m | 3.5m/s | -54.8°C | 11.4% | 193.2hPa | 2.8V | 00:00:00 | 00:00:00 | 00:00:00 | |
| DM0DOS-11 | 2026-08-31 23:33:54 | 49.59574 | 8.22799 | 94° | 108km/h | 12260m | 4.3m/s | -55.2°C | 18.2% | 194.3hPa | 2.8V | 04:13:34 | 01:05:30 | 00:00:00 | |
| BIOWL1-15 | 2026-08-31 23:33:48 | 49.59580 | 8.22671 | 93° | 111km/h | 12250m | 4.4m/s | -55.2°C | 20.3% | 194.6hPa | 2.7V | 04:13:37 | 01:05:27 | 00:00:00 | |
| DF3TZ-5 | 2026-08-31 23:33:48 | 49.59578 | 8.22714 | 93° | 110km/h | 12254m | 2.8m/s | -55.2°C | 14.2% | 194.6hPa | 2.8V | 00:00:00 | 00:00:00 | 00:00:00 | |
| HEMX73-11 | 2026-08-31 23:33:45 | 49.59580 | 8.22671 | 94° | 111km/h | 12250m | 4.4m/s | -55.2°C | 14.5% | 194.6hPa | 2.8V | 04:13:00 | 00:00:00 | 00:00:00 | |
| DM0DOS-11 | 2026-08-31 23:33:44 | 49.59588 | 8.22363 | 91° | 113km/h | 12223m | 3.6m/s | -55.7°C | 23.5% | 195.5hPa | 2.8V | 04:13:44 | 01:05:20 | 00:00:00 | |
| BIOWL1-15 | 2026-08-31 23:33:36 | 49.59590 | 8.21907 | 89° | 120km/h | 12186m | 3.1m/s | -55.9°C | 31% | 196.6hPa | 2.8V | 04:15:19 | 01:05:10 | 00:00:00 | |
| DM3KS-11 | 2026-08-31 23:33:35 | 49.59592 | 8.22140 | 89° | 117km/h | 12205m | 3.5m/s | -55.9°C | 20.1% | 196.0hPa | 2.8V | 00:00:00 | 00:00:00 | 00:00:00 | |
| DM0DOS-11 | 2026-08-31 23:33:33 | 49.59589 | 8.21907 | 88° | 120km/h | 12186m | 3.1m/s | -55.9°C | 28.6% | 196.6hPa | 2.8V | 04:13:54 | 01:05:10 | 00:00:00 | |
| BIOWL1-15 | 2026-08-31 23:33:24 | 49.59598 | 8.21271 | 91° | 119km/h | 12136m | 3.5m/s | -57.5°C | 43.5% | 198.2hPa | 2.8V | 04:15:19 | 01:04:56 | 00:00:00 | |
| DM0DOS-11 | 2026-08-31 23:33:23 | 49.59596 | 8.21453 | 91° | 115km/h | 12151m | 4.1m/s | -56.9°C | 37.3% | 197.7hPa | 2.8V | 04:14:04 | 01:05:00 | 00:00:00 | |
| DK7TD | 2026-08-31 23:33:18 | 49.59596 | 8.21408 | 91° | 115km/h | 12147m | 3.7m/s | 0°C | 0% | 0hPa | 2.8V | 04:14:28 | 01:04:59 | 00:00:00 | |
| DF3TZ-5 | 2026-08-31 23:33:17 | 49.59597 | 8.21317 | 90° | 117km/h | 12140m | 4.5m/s | -57.4°C | 33.0% | 198.1hPa | 2.8V | 00:00:00 | 00:00:00 | 00:00:00 | |
| DM0DOS-11 | 2026-08-31 23:33:12 | 49.59603 | 8.20998 | 93° | 113km/h | 12115m | 3.1m/s | -58.7°C | 51% | 198.9hPa | 2.8V | 04:14:14 | 01:04:50 | 00:00:00 | |
| BIOWL1-15 | 2026-08-31 23:33:07 | 49.59610 | 8.20784 | 92° | 110km/h | 12097m | 3.3m/s | -58.7°C | 49.2% | 199.4hPa | 2.8V | 04:15:19 | 01:04:45 | 00:00:00 | |
| DK7TD | 2026-08-31 23:33:06 | 49.59607 | 8.20869 | 93° | 108km/h | 12104m | 3.9m/s | 0°C | 0% | 0hPa | 2.7V | 04:14:28 | 01:04:47 | 00:00:00 | |
| BIOWL1-15 | 2026-08-31 23:32:56 | 49.59621 | 8.20431 | 94° | 115km/h | 12067m | 3m/s | -58.7°C | 51.3% | 200.4hPa | 2.7V | 04:15:19 | 01:04:37 | 00:00:00 | |
| DK7TD | 2026-08-31 23:32:54 | 49.59626 | 8.20342 | 96° | 115km/h | 12060m | 3.6m/s | 0°C | 0% | 0hPa | 2.8V | 18:12:15 | 01:04:35 | 00:00:00 | |
| DM0DOS-11 | 2026-08-31 23:32:54 | 49.59638 | 8.20084 | 92° | 110km/h | 12041m | 3.6m/s | -58.7°C | 54% | 201.2hPa | 2.8V | 04:14:35 | 01:04:29 | 00:00:00 | |
| DF3TZ-5 | 2026-08-31 23:32:46 | 49.59645 | 8.19955 | 96° | 111km/h | 12031m | 3.7m/s | -58.7°C | 44.8% | 201.6hPa | 2.7V | 00:00:00 | 00:00:00 | 00:00:00 | |
| BIOWL1-15 | 2026-08-31 23:32:44 | 49.59665 | 8.19734 | 97° | 115km/h | 12011m | 3.5m/s | -59°C | 52.5% | 202.2hPa | 2.7V | 04:15:19 | 01:04:21 | 00:00:00 | |
| DK7TD | 2026-08-31 23:32:43 | 49.59653 | 8.19868 | 98° | 115km/h | 12023m | 3.8m/s | 0°C | 0% | 0hPa | 2.8V | 18:12:15 | 01:04:24 | 00:00:00 | |
| DM0DOS-11 | 2026-08-31 23:32:43 | 49.59672 | 8.19646 | 98° | 113km/h | 12003m | 4.5m/s | -59.1°C | 55.4% | 202.5hPa | 2.8V | 04:14:45 | 01:04:19 | 00:00:00 | |
| DB0UT-9 | 2026-08-31 23:32:42 | 49.59653 | 8.19868 | 99° | 115km/h | 12023m | 3.8m/s | -58.8°C | 45.0% | 201.8hPa | 2.7V | 04:15:00 | 00:00:00 | 00:00:00 | |
| DL8DAS-14 | 2026-08-31 23:32:40 | 49.59665 | 8.19734 | 97° | 115km/h | 12011m | 3.5m/s | -59.0°C | 45.2% | 202.2hPa | 2.7V | 00:00:00 | 00:00:00 | 00:00:00 | |
| DK5PH-5 | 2026-08-31 23:32:38 | 49.59672 | 8.19646 | 99° | 119km/h | 12003m | 4.4m/s | -59.1°C | 55.4% | 202.4hPa | 2.7V | 00:00:00 | 01:04:19 | 00:00:00 | |
| DL1ZP-14 | 2026-08-31 23:32:37 | 49.59676 | 8.19602 | 98° | 113km/h | 11998m | 4.0m/s | -59.1°C | 46.1% | 202.6hPa | 2.7V | 00:00:00 | 00:00:00 | 00:00:00 | |
| DB0UT-7 | 2026-08-31 23:32:36 | 49.59681 | 8.19558 | 99° | 119km/h | 11995m | 4.0m/s | -59.1°C | 55.5% | 202.7hPa | 2.7V | 00:00:00 | 01:04:17 | 00:00:00 | |
| DF7PN | 2026-08-31 23:32:35 | 49.59685 | 8.19513 | 98° | 117km/h | 11990m | 5.0m/s | -59.1°C | 46.0% | 202.9hPa | 2.8V | 00:00:00 | 00:00:00 | 00:00:00 | |
| DM0DOS-11 | 2026-08-31 23:32:33 | 49.59722 | 8.19187 | 100° | 120km/h | 11964m | 3.5m/s | -59.2°C | 57.6% | 203.7hPa | 2.8V | 04:14:55 | 01:04:09 | 00:00:00 | |
| BIOWL1-15 | 2026-08-31 23:32:31 | 49.59716 | 8.19233 | 101° | 122km/h | 11968m | 4.1m/s | -59.2°C | 52.7% | 203.6hPa | 2.7V | 04:15:19 | 01:04:10 | 00:00:00 | |
| DK7TD | 2026-08-31 23:32:31 | 49.59704 | 8.19327 | 101° | 122km/h | 11974m | 3.4m/s | 0°C | 0% | 0hPa | 2.7V | 18:12:15 | 01:04:12 | 00:00:00 | |
| DB0ND-19 | 2026-08-31 23:32:30 | 49.59710 | 8.19280 | 101° | 122km/h | 11971m | 2.9m/s | -59.2°C | 47.4% | 203.5hPa | 2.7V | 00:00:00 | 00:00:00 | 00:00:00 | |
| DJ2DS-15 | 2026-08-31 23:32:29 | 49.59716 | 8.19233 | 101° | 119km/h | 11968m | 4.0m/s | 0°C | 0% | 0hPa | 2.7V | 00:00:00 | 01:04:10 | 00:00:00 | |
| BIOWL9-15 | 2026-08-31 23:32:27 | 49.59734 | 8.19095 | 100° | 117km/h | 11957m | 3.8m/s | -59.2°C | 47.7% | 203.9hPa | 2.7V | 00:00:00 | 00:00:00 | 00:00:00 | |
| DO1YAY-16 | 2026-08-31 23:32:25 | 49.59739 | 8.19050 | 100° | 117km/h | 11954m | 3.0m/s | -59.2°C | 47.5% | 204.1hPa | 2.7V | 00:00:00 | 00:00:00 | 00:00:00 | |
| HEMX73-11 | 2026-08-31 23:32:22 | 49.59750 | 8.18960 | 101° | 119km/h | 11947m | 3.5m/s | -59.2°C | 47.5% | 204.3hPa | 2.7V | 04:15:00 | 00:00:00 | 00:00:00 | |
| DM0DOS-11 | 2026-08-31 23:32:21 | 49.59779 | 8.18732 | 101° | 120km/h | 11928m | 3.2m/s | -59.1°C | 57.5% | 204.9hPa | 2.7V | 04:15:05 | 01:03:59 | 00:00:00 | |
| BIOWL1-15 | 2026-08-31 23:32:18 | 49.59779 | 8.18732 | 101° | 120km/h | 11928m | 3.2m/s | -59.2°C | 52.9% | 204.9hPa | 2.7V | 04:15:19 | 01:03:59 | 00:00:00 | |
| BIOWL1-15 | 2026-08-31 23:32:07 | 49.59867 | 8.18160 | 103° | 117km/h | 11881m | 2.8m/s | -59°C | 51.8% | 206.5hPa | 2.7V | 04:15:19 | 01:03:46 | 00:00:00 | |
| BIOWL1-15 | 2026-08-31 23:31:56 | 49.59955 | 8.17687 | 111° | 115km/h | 11841m | 4.8m/s | -58.7°C | 50.7% | 207.8hPa | 2.7V | 04:16:10 | 01:03:35 | 00:00:00 | |
| DK7TD | 2026-08-31 23:31:52 | 49.59975 | 8.17602 | 109° | 117km/h | 11832m | 4.7m/s | 0°C | 0% | 0hPa | 2.7V | 18:12:15 | 01:03:33 | 00:00:00 | |
| BIOWL1-15 | 2026-08-31 23:31:41 | 49.60092 | 8.17034 | 108° | 122km/h | 11781m | 3.4m/s | -58.2°C | 48.5% | 209.7hPa | 2.8V | 04:16:10 | 01:03:20 | 00:00:00 | |
| BIOWL1-15 | 2026-08-31 23:31:28 | 49.60207 | 8.16498 | 104° | 115km/h | 11728m | 5m/s | -58.1°C | 46.7% | 211.5hPa | 2.7V | 04:16:10 | 01:03:08 | 00:00:00 | |
| BIOWL1-15 | 2026-08-31 23:31:20 | 49.60330 | 8.15774 | 105° | 124km/h | 11664m | 3.6m/s | -57.7°C | 49.5% | 213.7hPa | 2.8V | 04:17:01 | 01:02:53 | 00:00:00 | |
| BIOWL1-15 | 2026-08-31 23:31:10 | 49.60360 | 8.15585 | 103° | 126km/h | 11651m | 2.8m/s | -57.7°C | 49.7% | 214.1hPa | 2.8V | 04:17:01 | 01:02:49 | 00:00:00 | |
| BIOWL1-15 | 2026-08-31 23:31:00 | 49.60440 | 8.15096 | 104° | 124km/h | 11617m | 3.6m/s | -57.6°C | 50.4% | 215.2hPa | 2.7V | 04:17:01 | 01:02:39 | 00:00:00 | |
| BIOWL1-15 | 2026-08-31 23:30:47 | 49.60519 | 8.14561 | 102° | 133km/h | 11578m | 4.3m/s | -57.6°C | 49.5% | 216.6hPa | 2.7V | 04:17:01 | 01:02:28 | 00:00:00 | |
| BIOWL1-15 | 2026-08-31 23:30:37 | 49.60615 | 8.13760 | 100° | 130km/h | 11523m | 2.7m/s | -57.2°C | 49.8% | 218.5hPa | 2.7V | 04:17:01 | 01:02:12 | 00:00:00 | |
| BIOWL1-15 | 2026-08-31 23:30:28 | 49.60643 | 8.13516 | 102° | 126km/h | 11506m | 3.4m/s | -57.1°C | 50.3% | 219.1hPa | 2.7V | 04:17:01 | 01:02:07 | 00:00:00 | |
| BIOWL1-15 | 2026-08-31 23:30:18 | 49.60721 | 8.12893 | 102° | 126km/h | 11460m | 3.2m/s | -56.9°C | 51.5% | 220.7hPa | 2.8V | 04:17:52 | 01:01:54 | 00:00:00 | |
| BIOWL1-15 | 2026-08-31 23:30:05 | 49.60779 | 8.12504 | 103° | 126km/h | 11432m | 3.7m/s | -56.9°C | 52.8% | 221.7hPa | 2.8V | 04:17:52 | 01:01:46 | 00:00:00 | |
| BIOWL1-15 | 2026-08-31 23:29:55 | 49.60861 | 8.11893 | 102° | 122km/h | 11387m | 4.1m/s | -56.5°C | 55% | 223.3hPa | 2.8V | 04:17:52 | 01:01:33 | 00:00:00 | |
| DL9PN | 2026-08-31 23:29:54 | 49.60849 | 8.11987 | 101° | 122km/h | 11394m | 3.3m/s | -56.5°C | 49.6% | 223.0hPa | 2.8V | 00:00:00 | 00:00:00 | 00:00:00 | |
| BIOWL9-15 | 2026-08-31 23:29:51 | 49.60868 | 8.11847 | 102° | 120km/h | 11383m | 2.7m/s | -56.5°C | 49.9% | 223.4hPa | 2.8V | 00:00:00 | 00:00:00 | 00:00:00 | |
| DO1YAY-16 | 2026-08-31 23:29:50 | 49.60913 | 8.11517 | 101° | 126km/h | 11360m | 3.9m/s | -56.4°C | 49.0% | 224.2hPa | 2.8V | 00:00:00 | 00:00:00 | 00:00:00 | |
| BIOWL1-15 | 2026-08-31 23:29:41 | 49.60933 | 8.11374 | 103° | 124km/h | 11349m | 3.2m/s | -56.3°C | 54.2% | 224.6hPa | 2.8V | 04:17:52 | 01:01:22 | 00:00:00 | |
| BIOWL1-15 | 2026-08-31 23:29:30 | 49.61002 | 8.10861 | 100° | 122km/h | 11312m | 3.7m/s | -56°C | 56.2% | 225.9hPa | 2.8V | 04:18:43 | 01:01:11 | 00:00:00 | |
| BIOWL1-15 | 2026-08-31 23:29:20 | 49.61078 | 8.10243 | 103° | 122km/h | 11268m | 3.4m/s | -55.7°C | 55.6% | 227.5hPa | 2.7V | 04:18:43 | 01:00:58 | 00:00:00 | |
| HEMX73-11 | 2026-08-31 23:29:18 | 49.61071 | 8.10290 | 104° | 124km/h | 11272m | 4.3m/s | -55.7°C | 50.8% | 227.4hPa | 2.8V | 04:18:00 | 00:00:00 | 00:00:00 | |
| DM0DOS-11 | 2026-08-31 23:29:14 | 49.61102 | 8.10054 | 99° | 126km/h | 11254m | 3.5m/s | -55.6°C | 58% | 227.9hPa | 2.8V | 04:18:10 | 01:00:54 | 00:00:00 | |
| BEGRI65-1 | 2026-08-31 23:29:12 | 49.61102 | 8.10053 | 101° | 126km/h | 11255m | 3.5m/s | 0°C | 0% | 0hPa | 2.7V | 00:00:00 | 00:00:00 | 00:00:00 | |
| DF3TZ-5 | 2026-08-31 23:29:08 | 49.61130 | 8.09814 | 100° | 126km/h | 11236m | 3.0m/s | -55.5°C | 48.7% | 228.6hPa | 2.7V | 00:00:00 | 00:00:00 | 00:00:00 | |
| DK5PH-5 | 2026-08-31 23:29:06 | 49.61141 | 8.09718 | 101° | 126km/h | 11229m | 3.1m/s | -55.3°C | 57.7% | 228.8hPa | 2.7V | 00:00:00 | 01:00:47 | 00:00:00 | |
| DB0UT-7 | 2026-08-31 23:29:05 | 49.61147 | 8.09670 | 101° | 126km/h | 11226m | 3.4m/s | -55.3°C | 57.4% | 228.9hPa | 2.8V | 00:00:00 | 00:00:00 | 00:00:00 | |
| DM0DOS-11 | 2026-08-31 23:29:04 | 49.61158 | 8.09573 | 100° | 128km/h | 11219m | 2.7m/s | -55.3°C | 57.6% | 229.3hPa | 2.8V | 04:18:20 | 01:00:44 | 00:00:00 | |
| BIOWL1-15 | 2026-08-31 23:29:00 | 49.61175 | 8.09429 | 100° | 124km/h | 11209m | 3m/s | -55.2°C | 53.3% | 229.7hPa | 2.7V | 04:18:43 | 01:00:41 | 00:00:00 | |
| DL1ZP-14 | 2026-08-31 23:29:00 | 49.61180 | 8.09380 | 99° | 126km/h | 11206m | 3.8m/s | -55.2°C | 48.7% | 229.8hPa | 2.7V | 00:00:00 | 00:00:00 | 00:00:00 | |
| DF7PN | 2026-08-31 23:28:57 | 49.61191 | 8.09282 | 99° | 128km/h | 11199m | 2.9m/s | -55.1°C | 49.0% | 230.0hPa | 2.7V | 00:00:00 | 00:00:00 | 00:00:00 | |
| DM3KS-11 | 2026-08-31 23:28:55 | 49.61201 | 8.09185 | 99° | 126km/h | 11192m | 3.4m/s | -55.1°C | 48.8% | 230.3hPa | 2.7V | 00:00:00 | 00:00:00 | 00:00:00 | |
| DM0DOS-11 | 2026-08-31 23:28:54 | 49.61223 | 8.08989 | 99° | 126km/h | 11177m | 4.4m/s | -55°C | 56.8% | 230.7hPa | 2.7V | 04:18:32 | 01:00:32 | 00:00:00 | |
| BIOWL1-15 | 2026-08-31 23:28:49 | 49.61235 | 8.08893 | 101° | 126km/h | 11170m | 3.7m/s | -54.9°C | 52.8% | 231hPa | 2.8V | 04:18:43 | 01:00:30 | 00:00:00 | |
| DO1YAY-16 | 2026-08-31 23:28:48 | 49.61247 | 8.08795 | 101° | 126km/h | 11162m | 3.0m/s | -54.9°C | 48.2% | 231.4hPa | 2.7V | 00:00:00 | 00:00:00 | 00:00:00 | |
| DM0DOS-11 | 2026-08-31 23:28:44 | 49.61285 | 8.08455 | 98° | 126km/h | 11136m | 4m/s | -54.7°C | 56.6% | 232.2hPa | 2.7V | 04:18:43 | 01:00:21 | 00:00:00 | |
| BIOWL1-15 | 2026-08-31 23:28:39 | 49.61289 | 8.08406 | 98° | 126km/h | 11133m | 3.1m/s | -54.7°C | 53% | 232.3hPa | 2.7V | 04:19:34 | 01:00:20 | 00:00:00 | |
| DF3TZ-5 | 2026-08-31 23:28:37 | 49.61299 | 8.08309 | 99° | 126km/h | 11125m | 3.4m/s | -54.6°C | 47.9% | 232.7hPa | 2.8V | 00:00:00 | 00:00:00 | 00:00:00 | |
| DK5PH-5 | 2026-08-31 23:28:36 | 49.61305 | 8.08260 | 100° | 122km/h | 11122m | 2.5m/s | -54.5°C | 56.5% | 232.7hPa | 2.8V | 00:00:00 | 01:00:17 | 00:00:00 | |
| DB0UT-7 | 2026-08-31 23:28:35 | 49.61310 | 8.08212 | 100° | 122km/h | 11119m | 3.9m/s | -54.5°C | 56.2% | 232.8hPa | 2.8V | 00:00:00 | 01:00:16 | 00:00:00 | |
| DM0DOS-11 | 2026-08-31 23:28:34 | 49.61337 | 8.07976 | 99° | 124km/h | 11101m | 3.1m/s | -54.4°C | 56.3% | 233.5hPa | 2.8V | 04:18:53 | 01:00:11 | 00:00:00 | |
| BIOWL1-15 | 2026-08-31 23:28:31 | 49.61342 | 8.07929 | 100° | 122km/h | 11098m | 3.8m/s | -54.4°C | 52.6% | 233.6hPa | 2.7V | 04:19:34 | 01:00:10 | 00:00:00 | |
| DL1ZP-14 | 2026-08-31 23:28:29 | 49.61347 | 8.07882 | 99° | 120km/h | 11094m | 3.9m/s | -54.3°C | 48.1% | 233.8hPa | 2.7V | 00:00:00 | 00:00:00 | 00:00:00 | |
| DF7PN | 2026-08-31 23:28:26 | 49.61356 | 8.07789 | 98° | 120km/h | 11087m | 4.1m/s | -54.3°C | 47.9% | 234.1hPa | 2.7V | 00:00:00 | 00:00:00 | 00:00:00 | |
| DM0DOS-11 | 2026-08-31 23:28:24 | 49.61386 | 8.07508 | 100° | 122km/h | 11065m | 4.3m/s | -54.1°C | 56% | 234.8hPa | 2.7V | 04:19:03 | 01:00:01 | 00:00:00 | |
| BIOWL1-15 | 2026-08-31 23:28:18 | 49.61399 | 8.07415 | 102° | 120km/h | 11058m | 3.5m/s | -54°C | 52.4% | 235.2hPa | 2.7V | 04:19:34 | 00:59:59 | 00:00:00 | |
| DO1YAY-16 | 2026-08-31 23:28:17 | 49.61411 | 8.07324 | 101° | 117km/h | 11051m | 3.3m/s | -54.0°C | 47.6% | 235.4hPa | 2.8V | 00:00:00 | 00:00:00 | 00:00:00 | |
| HEMX73-11 | 2026-08-31 23:28:16 | 49.61411 | 8.07324 | 103° | 119km/h | 11051m | 3.3m/s | -54.0°C | 47.6% | 235.4hPa | 2.8V | 04:19:00 | 00:00:00 | 00:00:00 | |
| DB0UT-9 | 2026-08-31 23:28:14 | 49.61417 | 8.07279 | 102° | 119km/h | 11047m | 3.8m/s | -53.9°C | 47.4% | 235.5hPa | 2.8V | 04:19:00 | 00:00:00 | 00:00:00 | |
| DM0DOS-11 | 2026-08-31 23:28:09 | 49.61474 | 8.06768 | 100° | 120km/h | 11007m | 3.4m/s | -53.6°C | 55.6% | 237hPa | 2.8V | 04:19:19 | 00:59:45 | 00:00:00 | |
| BIOWL1-15 | 2026-08-31 23:28:07 | 49.61492 | 8.06629 | 102° | 120km/h | 10996m | 4m/s | -53.5°C | 51.9% | 237.4hPa | 2.8V | 04:19:34 | 00:59:42 | 00:00:00 | |
| BIOWL1-15 | 2026-08-31 23:27:57 | 49.61517 | 8.06447 | 101° | 120km/h | 10981m | 3.9m/s | -53.4°C | 52.4% | 238hPa | 2.7V | 04:19:34 | 00:59:38 | 00:00:00 | |
| BIOWL1-15 | 2026-08-31 23:27:46 | 49.61583 | 8.05939 | 103° | 120km/h | 10939m | 4.1m/s | -53°C | 51.4% | 239.5hPa | 2.7V | 04:20:25 | 00:59:27 | 00:00:00 | |
| DO1YAY-16 | 2026-08-31 23:27:46 | 49.61589 | 8.05893 | 102° | 120km/h | 10936m | 3.5m/s | -53.0°C | 46.8% | 239.6hPa | 2.7V | 00:00:00 | 00:00:00 | 00:00:00 | |
| BIOWL1-15 | 2026-08-31 23:27:39 | 49.61654 | 8.05393 | 100° | 120km/h | 10893m | 3.3m/s | -52.6°C | 48.6% | 241.2hPa | 2.7V | 04:20:25 | 00:59:15 | 00:00:00 | |
| BIOWL1-15 | 2026-08-31 23:27:23 | 49.61719 | 8.04891 | 102° | 119km/h | 10851m | 4.2m/s | -52.2°C | 47.3% | 242.8hPa | 2.8V | 04:20:25 | 00:59:04 | 00:00:00 | |
| BIOWL1-15 | 2026-08-31 23:27:13 | 49.61825 | 8.04117 | 103° | 115km/h | 10784m | 3.3m/s | -51.7°C | 47% | 245.3hPa | 2.8V | 04:20:25 | 00:58:47 | 00:00:00 | |
| BIOWL1-15 | 2026-08-31 23:27:01 | 49.61854 | 8.03898 | 103° | 115km/h | 10765m | 4.1m/s | -51.5°C | 46.5% | 246hPa | 2.8V | 04:20:25 | 00:58:42 | 00:00:00 | |
| BIOWL1-15 | 2026-08-31 23:26:51 | 49.61948 | 8.03240 | 103° | 117km/h | 10707m | 4m/s | -51.1°C | 48.8% | 248.3hPa | 2.7V | 04:21:16 | 00:58:27 | 00:00:00 | |
| DB0ND-19 | 2026-08-31 23:26:49 | 49.61935 | 8.03328 | 103° | 113km/h | 10715m | 3.3m/s | -51.1°C | 43.3% | 247.9hPa | 2.7V | 00:00:00 | 00:00:00 | 00:00:00 | |
| DM0DOS-11 | 2026-08-31 23:26:48 | 49.61948 | 8.03240 | 103° | 117km/h | 10707m | 4m/s | -51.1°C | 51.2% | 248.3hPa | 2.7V | 04:20:37 | 00:58:27 | 00:00:00 | |
| DL9PN | 2026-08-31 23:26:48 | 49.61942 | 8.03284 | 103° | 115km/h | 10711m | 4.3m/s | -51.1°C | 43.5% | 248.1hPa | 2.8V | 00:00:00 | 00:00:00 | 00:00:00 | |
| BIOWL9-15 | 2026-08-31 23:26:45 | 49.61955 | 8.03195 | 103° | 117km/h | 10704m | 3.0m/s | -51.0°C | 44.5% | 248.3hPa | 2.8V | 00:00:00 | 00:00:00 | 00:00:00 | |
| DO1YAY-16 | 2026-08-31 23:26:43 | 49.61970 | 8.03105 | 104° | 119km/h | 10696m | 3.6m/s | -51.0°C | 45.3% | 248.7hPa | 2.8V | 00:00:00 | 00:00:00 | 00:00:00 | |
| DM0DOS-11 | 2026-08-31 23:26:38 | 49.62013 | 8.02800 | 103° | 111km/h | 10670m | 3.7m/s | -50.8°C | 52.6% | 249.6hPa | 2.8V | 04:20:47 | 00:58:17 | 00:00:00 | |
| BIOWL1-15 | 2026-08-31 23:26:37 | 49.62007 | 8.02843 | 103° | 111km/h | 10674m | 3.7m/s | -50.8°C | 49.6% | 249.5hPa | 2.7V | 04:21:16 | 00:58:18 | 00:00:00 | |
| BIOWL1-15 | 2026-08-31 23:26:34 | 49.62080 | 8.02362 | 104° | 115km/h | 10633m | 3.5m/s | -50.5°C | 54.5% | 251.1hPa | 2.8V | 04:21:16 | 00:58:07 | 00:00:00 | |
| DF3TZ-5 | 2026-08-31 23:26:33 | 49.62033 | 8.02670 | 102° | 115km/h | 10659m | 3.3m/s | -50.7°C | 46.6% | 250.1hPa | 2.7V | 00:00:00 | 00:00:00 | 00:00:00 | |
| DB0UT-9 | 2026-08-31 23:26:32 | 49.62033 | 8.02670 | 104° | 115km/h | 10659m | 3.3m/s | -50.7°C | 46.6% | 250.1hPa | 2.7V | 04:21:00 | 00:00:00 | 00:00:00 | |
| DB0UT-7 | 2026-08-31 23:26:30 | 49.62053 | 8.02538 | 103° | 115km/h | 10648m | 4.2m/s | -50.6°C | 55.4% | 250.5hPa | 2.7V | 00:00:00 | 00:58:11 | 00:00:00 | |
| DM0DOS-11 | 2026-08-31 23:26:28 | 49.62080 | 8.02362 | 104° | 115km/h | 10633m | 3.5m/s | -50.5°C | 57.3% | 251.1hPa | 2.8V | 04:20:57 | 00:58:07 | 00:00:00 | |
| DL8DAS-14 | 2026-08-31 23:26:28 | 49.62073 | 8.02406 | 103° | 115km/h | 10637m | 4.4m/s | -50.6°C | 49.6% | 250.9hPa | 2.7V | 00:00:00 | 00:00:00 | 00:00:00 | |
| DL1ZP-14 | 2026-08-31 23:26:24 | 49.62093 | 8.02276 | 102° | 113km/h | 10625m | 4.0m/s | -50.5°C | 50.5% | 251.4hPa | 2.7V | 00:00:00 | 00:00:00 | 00:00:00 | |
| DF7PN | 2026-08-31 23:26:22 | 49.62106 | 8.02190 | 102° | 111km/h | 10617m | 4.5m/s | -50.5°C | 51.1% | 251.7hPa | 2.7V | 00:00:00 | 00:00:00 | 00:00:00 | |
| DM0DOS-11 | 2026-08-31 23:26:21 | 49.62142 | 8.01932 | 104° | 115km/h | 10595m | 3.5m/s | -50.3°C | 59.3% | 252.5hPa | 2.7V | 04:21:07 | 00:57:57 | 00:00:00 | |
| BIOWL1-15 | 2026-08-31 23:26:16 | 49.62142 | 8.01932 | 104° | 115km/h | 10595m | 3.5m/s | -50.3°C | 56.1% | 252.5hPa | 2.7V | 04:21:16 | 00:57:57 | 00:00:00 | |
| BIOWL9-15 | 2026-08-31 23:26:14 | 49.62156 | 8.01845 | 103° | 115km/h | 10587m | 4.3m/s | -50.2°C | 51.8% | 252.9hPa | 2.8V | 00:00:00 | 00:00:00 | 00:00:00 | |
| DB0UT-9 | 2026-08-31 23:26:12 | 49.62163 | 8.01801 | 105° | 117km/h | 10584m | 3.3m/s | -50.2°C | 52.2% | 253.0hPa | 2.8V | 04:21:00 | 00:00:00 | 00:00:00 | |
| HEMX73-11 | 2026-08-31 23:26:11 | 49.62170 | 8.01757 | 105° | 115km/h | 10580m | 4.3m/s | -50.2°C | 52.3% | 253.1hPa | 2.8V | 04:21:00 | 00:00:00 | 00:00:00 | |
| DM0DOS-11 | 2026-08-31 23:26:09 | 49.62209 | 8.01495 | 102° | 115km/h | 10557m | 3.8m/s | -50°C | 62.2% | 254hPa | 2.8V | 04:21:17 | 00:57:47 | 00:00:00 | |
| BIOWL1-15 | 2026-08-31 23:26:06 | 49.62209 | 8.01495 | 103° | 115km/h | 10557m | 3.8m/s | -50°C | 58.6% | 254hPa | 2.8V | 04:22:07 | 00:57:47 | 00:00:00 | |
| DK5PH-5 | 2026-08-31 23:26:06 | 49.62209 | 8.01495 | 103° | 117km/h | 10557m | 3.7m/s | -50.0°C | 62.2% | 254.0hPa | 2.7V | 00:00:00 | 00:57:47 | 00:00:00 | |
| SFWM-10 | 2026-08-31 23:26:04 | 49.62216 | 8.01451 | 104° | 115km/h | 10554m | 3.4m/s | 0°C | 0% | 0hPa | 2.8V | 00:00:00 | 00:00:00 | 00:00:00 | |
| DF3TZ-5 | 2026-08-31 23:26:02 | 49.62236 | 8.01318 | 103° | 119km/h | 10543m | 2.9m/s | -50.0°C | 55.8% | 254.5hPa | 2.8V | 00:00:00 | 00:00:00 | 00:00:00 | |
| DB0UT-7 | 2026-08-31 23:26:00 | 49.62251 | 8.01229 | 105° | 117km/h | 10536m | 3.3m/s | -49.9°C | 64.1% | 254.8hPa | 2.8V | 00:00:00 | 00:00:00 | 00:00:00 | |
| DM0DOS-11 | 2026-08-31 23:25:58 | 49.62278 | 8.01056 | 103° | 113km/h | 10522m | 3.8m/s | -49.8°C | 64.6% | 255.4hPa | 2.8V | 04:21:27 | 00:57:37 | 00:00:00 | |
| BIOWL1-15 | 2026-08-31 23:25:57 | 49.62284 | 8.01013 | 104° | 113km/h | 10518m | 3.9m/s | -49.8°C | 60.9% | 255.5hPa | 2.8V | 04:22:07 | 00:57:36 | 00:00:00 | |
| DL8DAS-14 | 2026-08-31 23:25:57 | 49.62278 | 8.01056 | 103° | 113km/h | 10522m | 3.8m/s | -49.8°C | 56.7% | 255.4hPa | 2.8V | 00:00:00 | 00:00:00 | 00:00:00 | |
| DL1ZP-14 | 2026-08-31 23:25:53 | 49.62298 | 8.00926 | 103° | 117km/h | 10511m | 4.3m/s | -49.7°C | 57.9% | 255.8hPa | 2.8V | 00:00:00 | 00:00:00 | 00:00:00 | |
| DF7PN | 2026-08-31 23:25:51 | 49.62312 | 8.00836 | 103° | 119km/h | 10504m | 3.1m/s | -49.7°C | 59.6% | 256.1hPa | 2.8V | 00:00:00 | 00:00:00 | 00:00:00 | |
| DM3KS-11 | 2026-08-31 23:25:49 | 49.62335 | 8.00702 | 105° | 117km/h | 10494m | 3.2m/s | -49.6°C | 59.9% | 256.5hPa | 2.8V | 00:00:00 | 00:00:00 | 00:00:00 | |
| DM0DOS-11 | 2026-08-31 23:25:48 | 49.62350 | 8.00614 | 104° | 117km/h | 10486m | 3.6m/s | -49.5°C | 68% | 256.8hPa | 2.8V | 04:21:37 | 00:57:27 | 00:00:00 | |
| BIOWL1-15 | 2026-08-31 23:25:45 | 49.62364 | 8.00527 | 104° | 113km/h | 10479m | 4m/s | -49.5°C | 63% | 257.1hPa | 2.7V | 04:22:07 | 00:57:25 | 00:00:00 | |
| BIOWL9-15 | 2026-08-31 23:25:43 | 49.62372 | 8.00484 | 104° | 113km/h | 10475m | 3.0m/s | -49.4°C | 60.5% | 257.2hPa | 2.8V | 00:00:00 | 00:00:00 | 00:00:00 | |
| DO1YAY-16 | 2026-08-31 23:25:41 | 49.62386 | 8.00397 | 103° | 115km/h | 10467m | 4.2m/s | -49.4°C | 59.6% | 257.5hPa | 2.8V | 00:00:00 | 00:00:00 | 00:00:00 | |
| DM0DOS-11 | 2026-08-31 23:25:38 | 49.62421 | 8.00176 | 103° | 117km/h | 10449m | 4.6m/s | -49.2°C | 66.8% | 258.3hPa | 2.8V | 04:21:47 | 00:57:17 | 00:00:00 | |
| BIOWL1-15 | 2026-08-31 23:25:34 | 49.62443 | 8.00043 | 105° | 117km/h | 10436m | 3.6m/s | -49.1°C | 62.1% | 258.7hPa | 2.7V | 04:22:07 | 00:57:14 | 00:00:00 | |
| DF3TZ-5 | 2026-08-31 23:25:31 | 49.62459 | 7.99955 | 105° | 119km/h | 10429m | 4.3m/s | -49.0°C | 58.5% | 259.0hPa | 2.7V | 00:00:00 | 00:00:00 | 00:00:00 | |
| DB0UT-7 | 2026-08-31 23:25:29 | 49.62475 | 7.99864 | 107° | 120km/h | 10422m | 3.7m/s | -48.9°C | 66.0% | 259.3hPa | 2.7V | 00:00:00 | 00:57:10 | 00:00:00 | |
| DM0DOS-11 | 2026-08-31 23:25:28 | 49.62502 | 7.99728 | 106° | 120km/h | 10411m | 3.7m/s | -48.9°C | 66.8% | 259.7hPa | 2.7V | 04:21:57 | 00:57:07 | 00:00:00 | |
| BIOWL1-15 | 2026-08-31 23:25:22 | 49.62553 | 7.99412 | 103° | 120km/h | 10385m | 4.5m/s | -48.7°C | 62.7% | 260.8hPa | 2.8V | 04:22:07 | 00:57:00 | 00:00:00 | |
| DL1ZP-14 | 2026-08-31 23:25:22 | 49.62532 | 7.99546 | 104° | 117km/h | 10396m | 4.2m/s | -48.8°C | 59.7% | 260.4hPa | 2.7V | 00:00:00 | 00:00:00 | 00:00:00 | |
| DF7PN | 2026-08-31 23:25:20 | 49.62546 | 7.99457 | 103° | 117km/h | 10389m | 3.2m/s | -48.7°C | 59.4% | 260.6hPa | 2.7V | 00:00:00 | 00:00:00 | 00:00:00 | |
| DM0DOS-11 | 2026-08-31 23:25:18 | 49.62575 | 7.99273 | 104° | 122km/h | 10374m | 4.3m/s | -48.5°C | 66.5% | 261.3hPa | 2.7V | 04:22:07 | 00:56:57 | 00:00:00 | |
| DM3KS-11 | 2026-08-31 23:25:18 | 49.62567 | 7.99320 | 103° | 122km/h | 10378m | 4.0m/s | -48.6°C | 58.8% | 261.1hPa | 2.7V | 00:00:00 | 00:00:00 | 00:00:00 | |
| BIOWL1-15 | 2026-08-31 23:25:11 | 49.62703 | 7.98509 | 105° | 117km/h | 10310m | 3.6m/s | -47.9°C | 60.1% | 263.8hPa | 2.7V | 04:22:58 | 00:56:40 | 00:00:00 | |
| DO1YAY-16 | 2026-08-31 23:25:10 | 49.62621 | 7.99003 | 104° | 117km/h | 10351m | 3.6m/s | -48.3°C | 58.0% | 262.1hPa | 2.8V | 00:00:00 | 00:00:00 | 00:00:00 | |
| DJ3KS | 2026-08-31 23:25:09 | 49.62621 | 7.99003 | 105° | 119km/h | 10351m | 3.6m/s | 0°C | 0% | 0hPa | 2.8V | 00:00:00 | 00:00:00 | 00:00:00 | |
| DM0DOS-11 | 2026-08-31 23:25:08 | 49.62650 | 7.98821 | 104° | 120km/h | 10335m | 4.3m/s | -48.2°C | 65.2% | 262.7hPa | 2.8V | 04:22:17 | 00:56:47 | 00:00:00 | |
| DK5PH-5 | 2026-08-31 23:25:06 | 49.62649 | 7.98821 | 105° | 119km/h | 10336m | 4.3m/s | -48.1°C | 65.2% | 262.7hPa | 2.8V | 00:00:00 | 00:56:47 | 00:00:00 | |
| DM0DOS-11 | 2026-08-31 23:25:02 | 49.62725 | 7.98377 | 104° | 117km/h | 10299m | 4.4m/s | -47.8°C | 63.3% | 264.3hPa | 2.8V | 04:22:27 | 00:56:37 | 00:00:00 | |
| DF3TZ-5 | 2026-08-31 23:25:00 | 49.62695 | 7.98553 | 105° | 115km/h | 10314m | 3.0m/s | -48.0°C | 56.9% | 263.7hPa | 2.8V | 00:00:00 | 00:00:00 | 00:00:00 | |
| DL8DAS-14 | 2026-08-31 23:24:55 | 49.62739 | 7.98287 | 103° | 119km/h | 10291m | 4.0m/s | -47.8°C | 55.8% | 264.6hPa | 2.8V | 00:00:00 | 00:00:00 | 00:00:00 | |
| DM0DOS-11 | 2026-08-31 23:24:51 | 49.62799 | 7.97927 | 105° | 115km/h | 10261m | 3.5m/s | -47.5°C | 61.8% | 265.8hPa | 2.8V | 04:22:37 | 00:56:27 | 00:00:00 | |
| BIOWL1-15 | 2026-08-31 23:24:49 | 49.62776 | 7.98058 | 105° | 119km/h | 10272m | 3.3m/s | -47.6°C | 58.7% | 265.3hPa | 2.7V | 04:22:58 | 00:56:30 | 00:00:00 | |
| DF7PN | 2026-08-31 23:24:49 | 49.62776 | 7.98058 | 105° | 117km/h | 10272m | 3.3m/s | -47.6°C | 55.6% | 265.3hPa | 2.8V | 00:00:00 | 00:00:00 | 00:00:00 | |
| DM3KS-11 | 2026-08-31 23:24:47 | 49.62799 | 7.97927 | 105° | 115km/h | 10261m | 3.5m/s | -47.5°C | 54.6% | 265.8hPa | 2.8V | 00:00:00 | 00:00:00 | 00:00:00 | |
| DB0ND-19 | 2026-08-31 23:24:44 | 49.62815 | 7.97840 | 106° | 115km/h | 10253m | 3.2m/s | -47.4°C | 54.0% | 266.0hPa | 2.8V | 00:00:00 | 00:00:00 | 00:00:00 | |
| DL9PN | 2026-08-31 23:24:43 | 49.62824 | 7.97797 | 106° | 117km/h | 10250m | 3.3m/s | -47.4°C | 53.6% | 266.2hPa | 2.8V | 00:00:00 | 00:00:00 | 00:00:00 | |
| DM0DOS-11 | 2026-08-31 23:24:41 | 49.62874 | 7.97479 | 104° | 120km/h | 10225m | 3.5m/s | -47.1°C | 59.9% | 267.2hPa | 2.8V | 04:22:47 | 00:56:17 | 00:00:00 | |
| BIOWL1-15 | 2026-08-31 23:24:41 | 49.62852 | 7.97618 | 103° | 120km/h | 10236m | 4.1m/s | -47.3°C | 56.4% | 266.7hPa | 2.7V | 04:22:58 | 00:56:20 | 00:00:00 | |
| BIOWL9-15 | 2026-08-31 23:24:41 | 49.62845 | 7.97663 | 102° | 119km/h | 10239m | 2.7m/s | -47.3°C | 53.2% | 266.6hPa | 2.7V | 00:00:00 | 00:00:00 | 00:00:00 | |
| DO1YAY-16 | 2026-08-31 23:24:39 | 49.62852 | 7.97618 | 102° | 120km/h | 10236m | 4.1m/s | -47.3°C | 52.9% | 266.7hPa | 2.7V | 00:00:00 | 00:00:00 | 00:00:00 | |
| DK5PH-5 | 2026-08-31 23:24:36 | 49.62874 | 7.97479 | 105° | 119km/h | 10226m | 3.4m/s | -47.1°C | 59.9% | 267.2hPa | 2.7V | 04:22:00 | 00:56:17 | 00:00:00 | |
| DM0DOS-11 | 2026-08-31 23:24:31 | 49.62953 | 7.97030 | 105° | 122km/h | 10188m | 3.5m/s | -46.9°C | 59.4% | 268.7hPa | 2.8V | 04:22:57 | 00:56:07 | 00:00:00 | |
| BIOWL1-15 | 2026-08-31 23:24:29 | 49.62930 | 7.97167 | 105° | 119km/h | 10200m | 3.6m/s | -47°C | 56.6% | 268.2hPa | 2.7V | 04:22:58 | 00:56:10 | 00:00:00 | |
| DB0UT-7 | 2026-08-31 23:24:29 | 49.62930 | 7.97167 | 105° | 120km/h | 10200m | 3.5m/s | -46.9°C | 60.1% | 268.2hPa | 2.8V | 04:22:00 | 00:56:10 | 00:00:00 | |
| DL8DAS-14 | 2026-08-31 23:24:23 | 49.62977 | 7.96891 | 104° | 120km/h | 10178m | 2.7m/s | -46.8°C | 52.2% | 269.2hPa | 2.8V | 00:00:00 | 00:00:00 | 00:00:00 | |
| DM0DOS-11 | 2026-08-31 23:24:21 | 49.63033 | 7.96573 | 104° | 119km/h | 10153m | 3.7m/s | -46.5°C | 56.8% | 270.1hPa | 2.8V | 04:23:07 | 00:55:57 | 00:00:00 | |
| BIOWL1-15 | 2026-08-31 23:24:18 | 49.63055 | 7.96440 | 104° | 119km/h | 10142m | 4.1m/s | -46.4°C | 53.8% | 270.6hPa | 2.8V | 04:23:49 | 00:55:54 | 00:00:00 | |
| DF7PN | 2026-08-31 23:24:18 | 49.63018 | 7.96663 | 105° | 119km/h | 10160m | 3.9m/s | -46.6°C | 50.9% | 269.9hPa | 2.8V | 00:00:00 | 00:00:00 | 00:00:00 | |
| DM3KS-11 | 2026-08-31 23:24:16 | 49.63040 | 7.96529 | 104° | 117km/h | 10149m | 4.2m/s | -46.5°C | 50.3% | 270.3hPa | 2.8V | 00:00:00 | 00:00:00 | 00:00:00 | |
| DB0ND-19 | 2026-08-31 23:24:14 | 49.63055 | 7.96440 | 103° | 117km/h | 10142m | 4.1m/s | -46.4°C | 49.4% | 270.6hPa | 2.8V | 00:00:00 | 00:00:00 | 00:00:00 | |
| DL9PN | 2026-08-31 23:24:12 | 49.63062 | 7.96395 | 103° | 119km/h | 10138m | 3.7m/s | -46.4°C | 49.4% | 270.8hPa | 2.8V | 00:00:00 | 00:00:00 | 00:00:00 | |
| BIOWL9-15 | 2026-08-31 23:24:10 | 49.63085 | 7.96259 | 106° | 119km/h | 10127m | 3.2m/s | -46.3°C | 48.6% | 271.2hPa | 2.8V | 00:00:00 | 00:00:00 | 00:00:00 | |
| DM0DOS-11 | 2026-08-31 23:24:09 | 49.63110 | 7.96125 | 105° | 119km/h | 10115m | 3.6m/s | -46.2°C | 54.9% | 271.7hPa | 2.8V | 04:23:17 | 00:55:47 | 00:00:00 | |
| BIOWL1-15 | 2026-08-31 23:24:08 | 49.63102 | 7.96169 | 106° | 120km/h | 10119m | 4.1m/s | -46.2°C | 52.4% | 271.5hPa | 2.8V | 04:23:49 | 00:55:48 | 00:00:00 | |
| BIOWL1-15 | 2026-08-31 23:23:59 | 49.63184 | 7.95724 | 105° | 120km/h | 10082m | 4.1m/s | -45.9°C | 52.9% | 273.1hPa | 2.8V | 04:23:49 | 00:55:38 | 00:00:00 | |
| DB0UT-7 | 2026-08-31 23:23:59 | 49.63168 | 7.95814 | 106° | 117km/h | 10089m | 4.3m/s | -45.9°C | 55.2% | 272.7hPa | 2.8V | 00:00:00 | 00:00:00 | 00:00:00 | |
| DM0DOS-11 | 2026-08-31 23:23:58 | 49.63192 | 7.95679 | 104° | 120km/h | 10078m | 3.7m/s | -45.9°C | 55.8% | 273.2hPa | 2.8V | 04:23:27 | 00:55:37 | 00:00:00 | |
| BIOWL1-15 | 2026-08-31 23:23:48 | 49.63280 | 7.95202 | 108° | 115km/h | 10037m | 4.1m/s | -45.5°C | 52.2% | 274.9hPa | 2.8V | 04:23:49 | 00:55:26 | 00:00:00 | |
| DF7PN | 2026-08-31 23:23:47 | 49.63271 | 7.95244 | 107° | 113km/h | 10041m | 3.8m/s | -45.6°C | 48.7% | 274.8hPa | 2.8V | 00:00:00 | 00:00:00 | 00:00:00 | |
| DM3KS-11 | 2026-08-31 23:23:44 | 49.63289 | 7.95159 | 107° | 113km/h | 10033m | 3.9m/s | -45.5°C | 49.0% | 275.1hPa | 2.8V | 00:00:00 | 00:00:00 | 00:00:00 | |
| DB0ND-19 | 2026-08-31 23:23:43 | 49.63305 | 7.95074 | 105° | 111km/h | 10025m | 3.7m/s | -45.4°C | 49.5% | 275.4hPa | 2.8V | 00:00:00 | 00:00:00 | 00:00:00 | |
| DL9PN | 2026-08-31 23:23:41 | 49.63312 | 7.95032 | 105° | 113km/h | 10022m | 3.5m/s | -45.4°C | 49.5% | 275.5hPa | 2.8V | 00:00:00 | 00:00:00 | 00:00:00 | |
| BIOWL9-15 | 2026-08-31 23:23:39 | 49.63337 | 7.94902 | 106° | 115km/h | 10011m | 3.2m/s | -45.3°C | 49.9% | 276.0hPa | 2.8V | 00:00:00 | 00:00:00 | 00:00:00 | |
| DM0DOS-11 | 2026-08-31 23:23:38 | 49.63361 | 7.94772 | 105° | 115km/h | 9999m | 3.6m/s | -45.2°C | 56.1% | 276.5hPa | 2.8V | 04:23:48 | 00:55:16 | 00:00:00 | |
| BIOWL1-15 | 2026-08-31 23:23:35 | 49.63361 | 7.94772 | 105° | 115km/h | 9999m | 3.6m/s | -45.2°C | 53% | 276.5hPa | 2.8V | 04:23:49 | 00:55:16 | 00:00:00 | |
| DB0UT-7 | 2026-08-31 23:23:29 | 49.63408 | 7.94512 | 106° | 117km/h | 9977m | 3.5m/s | -45.0°C | 56.7% | 277.4hPa | 2.7V | 00:00:00 | 00:55:10 | 00:00:00 | |
| DM0DOS-11 | 2026-08-31 23:23:28 | 49.63441 | 7.94335 | 104° | 117km/h | 9961m | 3.8m/s | -44.9°C | 57.3% | 278.1hPa | 2.8V | 04:23:58 | 00:55:06 | 00:00:00 | |
| BIOWL1-15 | 2026-08-31 23:23:24 | 49.63448 | 7.94291 | 105° | 117km/h | 9958m | 2.9m/s | -44.9°C | 54.3% | 278.2hPa | 2.7V | 04:24:40 | 00:55:05 | 00:00:00 | |
| DL8DAS-14 | 2026-08-31 23:23:21 | 49.63473 | 7.94160 | 106° | 113km/h | 9946m | 4.3m/s | -44.8°C | 50.9% | 278.7hPa | 2.8V | 00:00:00 | 00:00:00 | 00:00:00 | |
| DM0DOS-11 | 2026-08-31 23:23:18 | 49.63523 | 7.93905 | 106° | 115km/h | 9922m | 4.4m/s | -44.6°C | 57.1% | 279.7hPa | 2.8V | 04:24:08 | 00:54:56 | 00:00:00 | |
| BIOWL1-15 | 2026-08-31 23:23:14 | 49.63531 | 7.93863 | 106° | 115km/h | 9918m | 3.4m/s | -44.6°C | 54.5% | 279.9hPa | 2.7V | 04:24:40 | 00:54:55 | 00:00:00 | |
| BIOWL1-15 | 2026-08-31 23:23:07 | 49.63610 | 7.93427 | 105° | 115km/h | 9880m | 3.6m/s | -44.3°C | 55.6% | 281.5hPa | 2.8V | 04:24:40 | 00:54:45 | 00:00:00 | |
| DM0DOS-11 | 2026-08-31 23:23:07 | 49.63603 | 7.93470 | 104° | 115km/h | 9884m | 4.4m/s | -44.4°C | 58.3% | 281.3hPa | 2.8V | 04:24:18 | 00:54:46 | 00:00:00 | |
| DO1YAY-16 | 2026-08-31 23:23:06 | 49.63659 | 7.93165 | 105° | 115km/h | 9858m | 3.5m/s | -44.2°C | 53.1% | 282.4hPa | 2.7V | 00:00:00 | 00:00:00 | 00:00:00 | |
| DB0UT-7 | 2026-08-31 23:22:59 | 49.63651 | 7.93208 | 107° | 117km/h | 9861m | 3.5m/s | -44.2°C | 59.5% | 282.3hPa | 2.7V | 00:00:00 | 00:00:00 | 00:00:00 | |
| DK5PH-5 | 2026-08-31 23:22:57 | 49.63667 | 7.93121 | 106° | 117km/h | 9854m | 4.6m/s | -44.1°C | 59.2% | 282.5hPa | 2.7V | 00:00:00 | 00:54:38 | 00:00:00 | |
| DM0DOS-11 | 2026-08-31 23:22:56 | 49.63690 | 7.92987 | 104° | 117km/h | 9842m | 4.4m/s | -44°C | 58.3% | 283.1hPa | 2.8V | 04:24:29 | 00:54:35 | 00:00:00 | |
| BIOWL1-15 | 2026-08-31 23:22:53 | 49.63697 | 7.92943 | 104° | 117km/h | 9838m | 3.4m/s | -44°C | 55.1% | 283.3hPa | 2.7V | 04:24:40 | 00:54:34 | 00:00:00 | |
| DL8DAS-14 | 2026-08-31 23:22:50 | 49.63718 | 7.92809 | 103° | 117km/h | 9826m | 4.1m/s | -43.9°C | 51.4% | 283.7hPa | 2.8V | 00:00:00 | 00:00:00 | 00:00:00 | |
| DM0DOS-11 | 2026-08-31 23:22:49 | 49.63760 | 7.92543 | 104° | 117km/h | 9803m | 4.6m/s | -43.7°C | 57% | 284.8hPa | 2.8V | 04:24:39 | 00:54:25 | 00:00:00 | |
| DL1ZP-14 | 2026-08-31 23:22:47 | 49.63745 | 7.92632 | 103° | 117km/h | 9810m | 3.5m/s | -43.8°C | 51.3% | 284.5hPa | 2.7V | 00:00:00 | 00:00:00 | 00:00:00 | |
| DF7PN | 2026-08-31 23:22:45 | 49.63760 | 7.92543 | 104° | 115km/h | 9803m | 4.6m/s | -43.7°C | 51.1% | 284.8hPa | 2.8V | 00:00:00 | 00:00:00 | 00:00:00 | |
| BIOWL1-15 | 2026-08-31 23:22:43 | 49.63767 | 7.92499 | 105° | 115km/h | 9799m | 3.5m/s | -43.7°C | 54.2% | 284.9hPa | 2.8V | 04:24:40 | 00:54:24 | 00:00:00 | |
| BIOWL1-15 | 2026-08-31 23:22:32 | 49.63848 | 7.92018 | 106° | 115km/h | 9756m | 3.3m/s | -43.4°C | 54.7% | 286.7hPa | 2.8V | 04:25:31 | 00:54:13 | 00:00:00 | |
| DB0UT-7 | 2026-08-31 23:22:29 | 49.63872 | 7.91888 | 105° | 115km/h | 9746m | 3.0m/s | -43.2°C | 58.7% | 287.1hPa | 2.8V | 00:00:00 | 00:54:10 | 00:00:00 | |
| DM0DOS-11 | 2026-08-31 23:22:27 | 49.63905 | 7.91672 | 103° | 113km/h | 9728m | 3.9m/s | -43.1°C | 57.9% | 288hPa | 2.8V | 04:24:59 | 00:54:05 | 00:00:00 | |
| BIOWL1-15 | 2026-08-31 23:22:21 | 49.63946 | 7.91408 | 103° | 117km/h | 9705m | 4.6m/s | -43°C | 55% | 288.9hPa | 2.8V | 04:25:31 | 00:53:59 | 00:00:00 | |
| DM0DOS-11 | 2026-08-31 23:22:17 | 49.63972 | 7.91236 | 102° | 111km/h | 9690m | 2.5m/s | -42.8°C | 57.7% | 289.5hPa | 2.7V | 04:25:09 | 00:53:55 | 00:00:00 | |
| BIOWL1-15 | 2026-08-31 23:22:11 | 49.63988 | 7.91109 | 100° | 111km/h | 9680m | 3.3m/s | -42.8°C | 54.3% | 290hPa | 2.8V | 04:25:31 | 00:53:52 | 00:00:00 | |
| DB0ND-19 | 2026-08-31 23:22:09 | 49.63998 | 7.91022 | 100° | 113km/h | 9672m | 3.2m/s | -42.7°C | 51.4% | 290.4hPa | 2.7V | 00:00:00 | 00:00:00 | 00:00:00 | |
| DL9PN | 2026-08-31 23:22:08 | 49.64003 | 7.90978 | 100° | 115km/h | 9669m | 3.8m/s | -42.7°C | 51.0% | 290.5hPa | 2.7V | 00:00:00 | 00:00:00 | 00:00:00 | |
| DF2AP-13 | 2026-08-31 23:22:07 | 49.64008 | 7.90933 | 101° | 117km/h | 9665m | 4.0m/s | -42.6°C | 56.8% | 290.6hPa | 2.7V | 00:00:00 | 00:53:48 | 00:00:00 | |
| DM0DOS-11 | 2026-08-31 23:22:06 | 49.64027 | 7.90796 | 102° | 119km/h | 9653m | 3.5m/s | -42.5°C | 57.4% | 291.1hPa | 2.7V | 04:25:19 | 00:53:45 | 00:00:00 | |
| BIOWL1-15 | 2026-08-31 23:22:06 | 49.64047 | 7.90662 | 102° | 117km/h | 9643m | 3.5m/s | -42.4°C | 54.9% | 291.6hPa | 2.8V | 04:25:31 | 00:53:42 | 00:00:00 | |
| HEMX73-11 | 2026-08-31 23:22:05 | 49.64014 | 7.90888 | 102° | 120km/h | 9661m | 3.4m/s | -42.6°C | 51.1% | 290.9hPa | 2.7V | 04:25:00 | 00:00:00 | 00:00:00 | |
| DO1YAY-16 | 2026-08-31 23:22:04 | 49.64027 | 7.90796 | 102° | 119km/h | 9653m | 3.5m/s | -42.5°C | 51.7% | 291.1hPa | 2.7V | 00:00:00 | 00:00:00 | 00:00:00 | |
| DB0UT-7 | 2026-08-31 23:21:59 | 49.64059 | 7.90573 | 103° | 117km/h | 9636m | 3.6m/s | -42.3°C | 58.7% | 291.9hPa | 2.7V | 04:25:00 | 00:00:00 | 00:00:00 | |
| DK5PH-5 | 2026-08-31 23:21:57 | 49.64071 | 7.90486 | 101° | 117km/h | 9629m | 3.9m/s | -42.3°C | 59.3% | 292.2hPa | 2.8V | 04:25:00 | 00:53:38 | 00:00:00 | |
| DM0DOS-11 | 2026-08-31 23:21:56 | 49.64087 | 7.90351 | 101° | 119km/h | 9617m | 4.5m/s | -42.2°C | 60% | 292.8hPa | 2.8V | 04:25:29 | 00:53:35 | 00:00:00 | |
| BIOWL1-15 | 2026-08-31 23:21:50 | 49.64110 | 7.90169 | 100° | 119km/h | 9603m | 3.5m/s | -42.1°C | 57.5% | 293.4hPa | 2.8V | 04:26:22 | 00:53:31 | 00:00:00 | |
| DM0DOS-11 | 2026-08-31 23:21:46 | 49.64141 | 7.89901 | 100° | 115km/h | 9579m | 4.1m/s | -42°C | 62.8% | 294.3hPa | 2.8V | 04:25:39 | 00:53:25 | 00:00:00 | |
| DL1ZP-14 | 2026-08-31 23:21:45 | 49.64141 | 7.89901 | 100° | 115km/h | 9579m | 4.1m/s | -42.0°C | 56.8% | 294.4hPa | 2.8V | 00:00:00 | 00:00:00 | 00:00:00 | |
| BIOWL1-15 | 2026-08-31 23:21:39 | 49.64188 | 7.89506 | 99° | 113km/h | 9547m | 4.4m/s | -41.8°C | 60.6% | 295.8hPa | 2.7V | 04:26:22 | 00:53:16 | 00:00:00 | |
| DB0ND-19 | 2026-08-31 23:21:38 | 49.64173 | 7.89636 | 100° | 113km/h | 9558m | 3.9m/s | -41.9°C | 58.9% | 295.3hPa | 2.8V | 00:00:00 | 00:00:00 | 00:00:00 | |
| DF2AP-13 | 2026-08-31 23:21:37 | 49.64178 | 7.89592 | 101° | 115km/h | 9554m | 3.5m/s | 0°C | 0% | 0hPa | 2.8V | 00:00:00 | 00:53:18 | 00:00:00 | |
| DM0DOS-11 | 2026-08-31 23:21:36 | 49.64192 | 7.89462 | 97° | 115km/h | 9543m | 3.4m/s | -41.7°C | 64.9% | 296hPa | 2.8V | 04:25:49 | 00:53:15 | 00:00:00 | |
| BIOWL1-15 | 2026-08-31 23:21:28 | 49.64228 | 7.89102 | 99° | 115km/h | 9513m | 4.4m/s | -41.5°C | 62.1% | 297.3hPa | 2.8V | 04:26:22 | 00:53:07 | 00:00:00 | |
| DK5PH-5 | 2026-08-31 23:21:27 | 49.64223 | 7.89146 | 99° | 115km/h | 9517m | 3.4m/s | -41.5°C | 66.2% | 297.1hPa | 2.7V | 00:00:00 | 00:53:08 | 00:00:00 | |
| DM0DOS-11 | 2026-08-31 23:21:26 | 49.64238 | 7.89014 | 99° | 113km/h | 9506m | 3.5m/s | -41.5°C | 66.6% | 297.6hPa | 2.7V | 04:25:59 | 00:53:05 | 00:00:00 | |
| BIOWL1-15 | 2026-08-31 23:21:16 | 49.64278 | 7.88614 | 102° | 115km/h | 9471m | 4.4m/s | -41.2°C | 60.8% | 299.1hPa | 2.8V | 04:26:22 | 00:52:56 | 00:00:00 | |
| DM0DOS-11 | 2026-08-31 23:21:16 | 49.64285 | 7.88570 | 102° | 113km/h | 9467m | 3.7m/s | -41.2°C | 65.2% | 299.3hPa | 2.8V | 04:26:09 | 00:52:55 | 00:00:00 | |
| DL1ZP-14 | 2026-08-31 23:21:14 | 49.64290 | 7.88527 | 102° | 111km/h | 9463m | 4.0m/s | -41.1°C | 59.0% | 299.5hPa | 2.7V | 00:00:00 | 00:00:00 | 00:00:00 | |
| DF7PN | 2026-08-31 23:21:11 | 49.64301 | 7.88442 | 100° | 110km/h | 9456m | 2.9m/s | -41.1°C | 59.4% | 299.9hPa | 2.8V | 00:00:00 | 00:00:00 | 00:00:00 | |
| DM0DOS-11 | 2026-08-31 23:21:09 | 49.64333 | 7.88138 | 98° | 113km/h | 9430m | 4.7m/s | -40.9°C | 65% | 300.9hPa | 2.8V | 04:26:19 | 00:52:45 | 00:00:00 | |
| BIOWL1-15 | 2026-08-31 23:21:05 | 49.64329 | 7.88181 | 98° | 113km/h | 9434m | 3.8m/s | -40.9°C | 61% | 300.7hPa | 2.8V | 04:26:22 | 00:52:46 | 00:00:00 | |
| BIOWL1-15 | 2026-08-31 23:20:56 | 49.64388 | 7.87711 | 101° | 113km/h | 9391m | 4.6m/s | -40.6°C | 60.8% | 302.7hPa | 2.8V | 04:27:13 | 00:52:35 | 00:00:00 | |
| DM0DOS-11 | 2026-08-31 23:20:51 | 49.64417 | 7.87452 | 99° | 111km/h | 9368m | 3.8m/s | -40.4°C | 65.4% | 303.7hPa | 2.8V | 04:26:35 | 00:52:29 | 00:00:00 | |
| DL8DAS-14 | 2026-08-31 23:20:46 | 49.64426 | 7.87367 | 99° | 110km/h | 9360m | 4.6m/s | -40.4°C | 59.6% | 304.0hPa | 2.8V | 00:00:00 | 00:00:00 | 00:00:00 | |
| BIOWL1-15 | 2026-08-31 23:20:43 | 49.64441 | 7.87238 | 100° | 113km/h | 9348m | 3.4m/s | -40.3°C | 63.6% | 304.5hPa | 2.8V | 04:27:13 | 00:52:24 | 00:00:00 | |
| DL1ZP-14 | 2026-08-31 23:20:42 | 49.64446 | 7.87194 | 100° | 113km/h | 9344m | 3.2m/s | -40.3°C | 63.4% | 304.7hPa | 2.8V | 00:00:00 | 00:00:00 | 00:00:00 | |
| DM0DOS-11 | 2026-08-31 23:20:41 | 49.64465 | 7.87024 | 98° | 111km/h | 9329m | 4.2m/s | -40.2°C | 70% | 305.4hPa | 2.8V | 04:26:45 | 00:52:19 | 00:00:00 | |
| BIOWL1-15 | 2026-08-31 23:20:32 | 49.64498 | 7.86727 | 100° | 110km/h | 9302m | 3.8m/s | -40°C | 64.8% | 306.6hPa | 2.8V | 04:27:13 | 00:52:12 | 00:00:00 | |
| DO1YAY-16 | 2026-08-31 23:20:31 | 49.64498 | 7.86727 | 99° | 110km/h | 9302m | 3.8m/s | -40.0°C | 64.1% | 306.6hPa | 2.8V | 00:00:00 | 00:00:00 | 00:00:00 | |
| DM0DOS-11 | 2026-08-31 23:20:30 | 49.64512 | 7.86601 | 100° | 110km/h | 9290m | 4.4m/s | -39.9°C | 70.4% | 307.1hPa | 2.8V | 04:26:55 | 00:52:09 | 00:00:00 | |
| DB0UT-7 | 2026-08-31 23:20:29 | 49.64507 | 7.86642 | 100° | 110km/h | 9294m | 4.1m/s | -39.9°C | 70.5% | 306.9hPa | 2.7V | 00:00:00 | 00:52:10 | 00:00:00 | |
| DK5PH-5 | 2026-08-31 23:20:27 | 49.64517 | 7.86558 | 101° | 110km/h | 9286m | 4.0m/s | -39.8°C | 71.0% | 307.3hPa | 2.8V | 00:00:00 | 00:52:08 | 00:00:00 | |
| DM0DOS-11 | 2026-08-31 23:20:23 | 49.64555 | 7.86182 | 98° | 110km/h | 9249m | 4.5m/s | -39.6°C | 70.2% | 308.9hPa | 2.8V | 04:27:05 | 00:51:59 | 00:00:00 | |
| BIOWL1-15 | 2026-08-31 23:20:20 | 49.64566 | 7.86055 | 98° | 110km/h | 9238m | 4.6m/s | -39.5°C | 65.4% | 309.5hPa | 2.7V | 04:27:13 | 00:51:56 | 00:00:00 | |
| DF3TZ-5 | 2026-08-31 23:20:20 | 49.64551 | 7.86224 | 98° | 106km/h | 9254m | 3.8m/s | 0°C | -1.0% | 308.8hPa | 2.8V | 00:00:00 | 00:00:00 | 00:00:00 | |
| DM0DOS-11 | 2026-08-31 23:20:11 | 49.64597 | 7.85759 | 99° | 110km/h | 9210m | 4.5m/s | -39.4°C | 70.2% | 310.8hPa | 2.8V | 04:27:15 | 00:51:49 | 00:00:00 | |
| BIOWL1-15 | 2026-08-31 23:20:08 | 49.64597 | 7.85759 | 99° | 110km/h | 9210m | 4.5m/s | -39.4°C | 64.9% | 310.8hPa | 2.8V | 04:28:04 | 00:51:49 | 00:00:00 | |
| DM3KS-11 | 2026-08-31 23:20:07 | 49.64601 | 7.85717 | 98° | 110km/h | 9206m | 3.6m/s | -39.3°C | 64.5% | 311.0hPa | 2.8V | 00:00:00 | 00:00:00 | 00:00:00 | |
| DF2AP-13 | 2026-08-31 23:20:05 | 49.64609 | 7.85632 | 98° | 110km/h | 9199m | 4.7m/s | 0°C | 0% | 0hPa | 2.8V | 00:00:00 | 00:51:46 | 00:00:00 | |
| DL9PN | 2026-08-31 23:20:04 | 49.64613 | 7.85591 | 97° | 106km/h | 9194m | 3.5m/s | -39.2°C | 63.6% | 311.5hPa | 2.8V | 00:00:00 | 00:00:00 | 00:00:00 | |
| DM0DOS-11 | 2026-08-31 23:20:03 | 49.64632 | 7.85338 | 98° | 110km/h | 9171m | 3.9m/s | -39°C | 67.7% | 312.6hPa | 2.8V | 04:27:25 | 00:51:39 | 00:00:00 | |
| BIOWL1-15 | 2026-08-31 23:19:57 | 49.64644 | 7.85209 | 98° | 111km/h | 9159m | 4m/s | -38.9°C | 63.2% | 313.1hPa | 2.9V | 04:28:04 | 00:51:36 | 00:00:00 | |
| DK5PH-5 | 2026-08-31 23:19:57 | 49.64636 | 7.85295 | 99° | 108km/h | 9167m | 4.5m/s | -39.0°C | 67.5% | 312.7hPa | 2.7V | 00:00:00 | 00:51:38 | 00:00:00 | |
| DM0DOS-11 | 2026-08-31 23:19:52 | 49.64666 | 7.84876 | 93° | 106km/h | 9128m | 4m/s | -38.7°C | 68.4% | 314.5hPa | 2.8V | 04:27:36 | 00:51:28 | 00:00:00 | |
| BIOWL1-15 | 2026-08-31 23:19:45 | 49.64670 | 7.84793 | 94° | 108km/h | 9121m | 3.3m/s | -38.6°C | 63.9% | 314.8hPa | 2.7V | 04:28:04 | 00:51:26 | 00:00:00 | |
| BIOWL1-15 | 2026-08-31 23:19:34 | 49.64706 | 7.84252 | 96° | 108km/h | 9071m | 4.2m/s | -38.4°C | 65.5% | 317.2hPa | 2.8V | 04:28:04 | 00:51:13 | 00:00:00 | |
| BIOWL1-15 | 2026-08-31 23:19:21 | 49.64732 | 7.83807 | 97° | 106km/h | 9025m | 4.7m/s | -38°C | 66.2% | 319.3hPa | 2.7V | 04:28:04 | 00:51:02 | 00:00:00 | |
| DB0UT-9 | 2026-08-31 23:19:20 | 49.64732 | 7.83807 | 98° | 106km/h | 9025m | 4.7m/s | -38.0°C | 64.9% | 319.3hPa | 2.7V | 04:28:00 | 00:00:00 | 00:00:00 | |
| BIOWL1-15 | 2026-08-31 23:19:11 | 49.64781 | 7.83063 | 97° | 100km/h | 8943m | 4.4m/s | -37.4°C | 66.5% | 323.1hPa | 2.7V | 04:28:55 | 00:50:43 | 00:00:00 | |
| DL1ZP-14 | 2026-08-31 23:19:09 | 49.64762 | 7.83330 | 96° | 97km/h | 8973m | 4.9m/s | -37.6°C | 66.8% | 321.7hPa | 2.8V | 00:00:00 | 00:00:00 | 00:00:00 | |
| DF7PN | 2026-08-31 23:19:07 | 49.64767 | 7.83254 | 96° | 97km/h | 8965m | 3.8m/s | -37.6°C | 66.7% | 322.0hPa | 2.9V | 00:00:00 | 00:00:00 | 00:00:00 | |
| DM3KS-11 | 2026-08-31 23:19:05 | 49.64773 | 7.83178 | 95° | 97km/h | 8956m | 3.9m/s | -37.5°C | 66.6% | 322.5hPa | 2.9V | 00:00:00 | 00:00:00 | 00:00:00 | |
| DB0ND-19 | 2026-08-31 23:19:03 | 49.64778 | 7.83101 | 96° | 99km/h | 8947m | 3.8m/s | -37.4°C | 66.1% | 322.9hPa | 2.9V | 00:00:00 | 00:00:00 | 00:00:00 | |
| DM0DOS-11 | 2026-08-31 23:19:01 | 49.64787 | 7.82986 | 95° | 99km/h | 8934m | 3.9m/s | -37.3°C | 70.8% | 323.5hPa | 2.9V | 04:28:23 | 00:50:41 | 00:00:00 | |
| BIOWL9-15 | 2026-08-31 23:18:59 | 49.64789 | 7.82947 | 96° | 99km/h | 8930m | 4.9m/s | -37.2°C | 65.0% | 323.7hPa | 2.8V | 00:00:00 | 00:00:00 | 00:00:00 | |
| DO1YAY-16 | 2026-08-31 23:18:58 | 49.64792 | 7.82908 | 96° | 100km/h | 8926m | 3.4m/s | -37.2°C | 65.5% | 323.9hPa | 2.8V | 00:00:00 | 00:00:00 | 00:00:00 | |
| BIOWL1-15 | 2026-08-31 23:18:57 | 49.64835 | 7.82304 | 97° | 99km/h | 8863m | 4.1m/s | -36.6°C | 64.6% | 326.8hPa | 2.8V | 04:28:55 | 00:50:23 | 00:00:00 | |
| DK5PH-5 | 2026-08-31 23:18:57 | 49.64795 | 7.82869 | 97° | 97km/h | 8922m | 3.4m/s | -37.1°C | 70.6% | 324.0hPa | 2.7V | 00:00:00 | 00:50:38 | 00:00:00 | |
| DM0DOS-11 | 2026-08-31 23:18:53 | 49.64812 | 7.82602 | 96° | 95km/h | 8895m | 4.1m/s | -36.9°C | 69.9% | 325.2hPa | 2.7V | 04:28:33 | 00:50:31 | 00:00:00 | |
| BIOWL1-15 | 2026-08-31 23:18:43 | 49.64838 | 7.82266 | 97° | 99km/h | 8859m | 3.8m/s | -36.6°C | 64.4% | 327hPa | 2.9V | 04:28:55 | 00:50:22 | 00:00:00 | |
| DL8DAS-14 | 2026-08-31 23:18:42 | 49.64835 | 7.82304 | 96° | 97km/h | 8863m | 4.1m/s | -36.6°C | 63.9% | 326.8hPa | 2.9V | 00:00:00 | 00:00:00 | 00:00:00 | |
| DM0DOS-11 | 2026-08-31 23:18:41 | 49.64841 | 7.82228 | 96° | 97km/h | 8855m | 4.6m/s | -36.5°C | 68.4% | 327.1hPa | 2.9V | 04:28:43 | 00:50:21 | 00:00:00 | |
| HEMX73-11 | 2026-08-31 23:18:39 | 49.64841 | 7.82228 | 97° | 97km/h | 8855m | 4.6m/s | -36.6°C | 63.2% | 327.2hPa | 2.9V | 04:28:00 | 00:00:00 | 00:00:00 | |
| DL1ZP-14 | 2026-08-31 23:18:38 | 49.64846 | 7.82153 | 95° | 97km/h | 8847m | 3.7m/s | -36.5°C | 62.9% | 327.6hPa | 2.9V | 00:00:00 | 00:00:00 | 00:00:00 | |
| DF7PN | 2026-08-31 23:18:36 | 49.64851 | 7.82077 | 95° | 97km/h | 8838m | 3.3m/s | -36.4°C | 62.8% | 328.0hPa | 2.8V | 00:00:00 | 00:00:00 | 00:00:00 | |
| DM3KS-11 | 2026-08-31 23:18:34 | 49.64856 | 7.82002 | 96° | 95km/h | 8831m | 4.3m/s | -36.3°C | 61.8% | 328.4hPa | 2.8V | 00:00:00 | 00:00:00 | 00:00:00 | |
| DM0DOS-11 | 2026-08-31 23:18:33 | 49.64868 | 7.81853 | 98° | 97km/h | 8815m | 3.6m/s | -36.2°C | 65.8% | 329.1hPa | 2.8V | 04:28:53 | 00:50:11 | 00:00:00 | |
| BIOWL1-15 | 2026-08-31 23:18:33 | 49.64872 | 7.81815 | 99° | 97km/h | 8811m | 4.5m/s | -36.1°C | 61.5% | 329.3hPa | 2.9V | 04:28:55 | 00:50:10 | 00:00:00 | |
| BIOWL1-15 | 2026-08-31 23:18:22 | 49.64899 | 7.81480 | 96° | 99km/h | 8775m | 3.6m/s | -35.8°C | 60.3% | 331hPa | 2.9V | 04:29:46 | 00:50:01 | 00:00:00 | |
| DM0DOS-11 | 2026-08-31 23:18:21 | 49.64899 | 7.81480 | 95° | 99km/h | 8775m | 3.6m/s | -35.8°C | 64% | 331hPa | 2.9V | 04:29:03 | 00:50:01 | 00:00:00 | |
| DB0UT-9 | 2026-08-31 23:18:18 | 49.64902 | 7.81442 | 97° | 97km/h | 8772m | 3.8m/s | -35.8°C | 58.9% | 331.2hPa | 2.8V | 04:29:00 | 00:00:00 | 00:00:00 | |
| DF3TZ-5 | 2026-08-31 23:18:16 | 49.64914 | 7.81293 | 97° | 97km/h | 8755m | 4.0m/s | 0°C | -1.0% | 332.0hPa | 2.8V | 00:00:00 | 00:00:00 | 00:00:00 | |
| DM0DOS-11 | 2026-08-31 23:18:13 | 49.64930 | 7.81110 | 97° | 95km/h | 8734m | 3.9m/s | -35.5°C | 63.6% | 333hPa | 2.8V | 04:29:13 | 00:49:51 | 00:00:00 | |
| BIOWL1-15 | 2026-08-31 23:18:10 | 49.64938 | 7.81001 | 97° | 93km/h | 8722m | 3.9m/s | -35.4°C | 61% | 333.5hPa | 2.9V | 04:29:46 | 00:49:48 | 00:00:00 | |
| Es werden nur die letzten 3500 von 4086 Frames angezeigt. GPX/KML und Diagramme bleiben verfügbar. | |||||||||||||||